<?xml version="1.0" encoding="UTF-8" standalone="no" ?>
<gpx xmlns="http://www.topografix.com/GPX/1/1" xmlns:xsi="http://www.w3.org/2001/XMLSchema-instance" xsi:schemaLocation="http://www.topografix.com/GPX/1/1 http://www.topografix.com/GPX/1/1/gpx.xsd" version="1.1" creator="VisuGPX - https://www.visugpx.com">
  <metadata>
    <name>Cap Découverte - Albi</name>
    <desc><![CDATA[Cap Découverte, Albi]]></desc>
  </metadata>
  <trk>
    <name><![CDATA[Cap Découverte - Albi_1]]></name>
    <trkseg>
      <trkpt lat="44.04683" lon="2.15006">
        <ele>250.7</ele>
        <time>2017-04-20T10:31:08Z</time>
      </trkpt>
      <trkpt lat="44.04683" lon="2.15006">
        <ele>250.7</ele>
        <time>2017-04-20T10:31:22Z</time>
      </trkpt>
      <trkpt lat="44.04687" lon="2.14994">
        <ele>250.6</ele>
        <time>2017-04-20T10:31:26Z</time>
      </trkpt>
      <trkpt lat="44.04691" lon="2.14983">
        <ele>250</ele>
        <time>2017-04-20T10:31:29Z</time>
      </trkpt>
      <trkpt lat="44.04694" lon="2.14973">
        <ele>250</ele>
        <time>2017-04-20T10:31:31Z</time>
      </trkpt>
      <trkpt lat="44.04698" lon="2.14959">
        <ele>248.8</ele>
        <time>2017-04-20T10:31:34Z</time>
      </trkpt>
      <trkpt lat="44.04701" lon="2.1495">
        <ele>248.6</ele>
        <time>2017-04-20T10:31:36Z</time>
      </trkpt>
      <trkpt lat="44.04705" lon="2.1494">
        <ele>248.4</ele>
        <time>2017-04-20T10:31:38Z</time>
      </trkpt>
      <trkpt lat="44.04709" lon="2.14932">
        <ele>248.3</ele>
        <time>2017-04-20T10:31:40Z</time>
      </trkpt>
      <trkpt lat="44.04713" lon="2.14924">
        <ele>247.8</ele>
        <time>2017-04-20T10:31:42Z</time>
      </trkpt>
      <trkpt lat="44.04717" lon="2.14915">
        <ele>247.8</ele>
        <time>2017-04-20T10:31:44Z</time>
      </trkpt>
      <trkpt lat="44.04723" lon="2.14905">
        <ele>247.7</ele>
        <time>2017-04-20T10:31:46Z</time>
      </trkpt>
      <trkpt lat="44.04728" lon="2.14893">
        <ele>247.1</ele>
        <time>2017-04-20T10:31:48Z</time>
      </trkpt>
      <trkpt lat="44.04733" lon="2.14883">
        <ele>246.2</ele>
        <time>2017-04-20T10:31:50Z</time>
      </trkpt>
      <trkpt lat="44.04738" lon="2.1487">
        <ele>245.4</ele>
        <time>2017-04-20T10:31:52Z</time>
      </trkpt>
      <trkpt lat="44.04744" lon="2.14859">
        <ele>244.8</ele>
        <time>2017-04-20T10:31:54Z</time>
      </trkpt>
      <trkpt lat="44.04749" lon="2.14847">
        <ele>244.5</ele>
        <time>2017-04-20T10:31:56Z</time>
      </trkpt>
      <trkpt lat="44.04755" lon="2.14837">
        <ele>244.3</ele>
        <time>2017-04-20T10:31:58Z</time>
      </trkpt>
      <trkpt lat="44.0476" lon="2.14826">
        <ele>244.4</ele>
        <time>2017-04-20T10:32:00Z</time>
      </trkpt>
      <trkpt lat="44.04761" lon="2.14813">
        <ele>243.3</ele>
        <time>2017-04-20T10:32:02Z</time>
      </trkpt>
      <trkpt lat="44.04759" lon="2.14803">
        <ele>243.2</ele>
        <time>2017-04-20T10:32:04Z</time>
      </trkpt>
      <trkpt lat="44.04751" lon="2.14794">
        <ele>244.2</ele>
        <time>2017-04-20T10:32:07Z</time>
      </trkpt>
      <trkpt lat="44.04743" lon="2.14788">
        <ele>245.1</ele>
        <time>2017-04-20T10:32:10Z</time>
      </trkpt>
      <trkpt lat="44.04735" lon="2.14781">
        <ele>246</ele>
        <time>2017-04-20T10:32:13Z</time>
      </trkpt>
      <trkpt lat="44.04726" lon="2.14774">
        <ele>247.1</ele>
        <time>2017-04-20T10:32:16Z</time>
      </trkpt>
      <trkpt lat="44.04718" lon="2.14766">
        <ele>248.2</ele>
        <time>2017-04-20T10:32:19Z</time>
      </trkpt>
      <trkpt lat="44.0471" lon="2.1476">
        <ele>249.1</ele>
        <time>2017-04-20T10:32:22Z</time>
      </trkpt>
      <trkpt lat="44.04702" lon="2.14753">
        <ele>250</ele>
        <time>2017-04-20T10:32:25Z</time>
      </trkpt>
      <trkpt lat="44.04694" lon="2.14747">
        <ele>250.5</ele>
        <time>2017-04-20T10:32:28Z</time>
      </trkpt>
      <trkpt lat="44.04689" lon="2.14739">
        <ele>251</ele>
        <time>2017-04-20T10:32:31Z</time>
      </trkpt>
      <trkpt lat="44.04692" lon="2.14728">
        <ele>251.4</ele>
        <time>2017-04-20T10:32:34Z</time>
      </trkpt>
      <trkpt lat="44.04697" lon="2.14715">
        <ele>251.1</ele>
        <time>2017-04-20T10:32:37Z</time>
      </trkpt>
      <trkpt lat="44.047" lon="2.14705">
        <ele>251.5</ele>
        <time>2017-04-20T10:32:39Z</time>
      </trkpt>
      <trkpt lat="44.04704" lon="2.14695">
        <ele>251.4</ele>
        <time>2017-04-20T10:32:41Z</time>
      </trkpt>
      <trkpt lat="44.04708" lon="2.14685">
        <ele>250.1</ele>
        <time>2017-04-20T10:32:43Z</time>
      </trkpt>
      <trkpt lat="44.04712" lon="2.14674">
        <ele>249.7</ele>
        <time>2017-04-20T10:32:45Z</time>
      </trkpt>
      <trkpt lat="44.04715" lon="2.14662">
        <ele>249.3</ele>
        <time>2017-04-20T10:32:47Z</time>
      </trkpt>
      <trkpt lat="44.04718" lon="2.14651">
        <ele>249</ele>
        <time>2017-04-20T10:32:49Z</time>
      </trkpt>
      <trkpt lat="44.04721" lon="2.14641">
        <ele>249.2</ele>
        <time>2017-04-20T10:32:51Z</time>
      </trkpt>
      <trkpt lat="44.04723" lon="2.14629">
        <ele>249.6</ele>
        <time>2017-04-20T10:32:53Z</time>
      </trkpt>
      <trkpt lat="44.04726" lon="2.14619">
        <ele>250.1</ele>
        <time>2017-04-20T10:32:55Z</time>
      </trkpt>
      <trkpt lat="44.04726" lon="2.14606">
        <ele>249.6</ele>
        <time>2017-04-20T10:32:58Z</time>
      </trkpt>
      <trkpt lat="44.04719" lon="2.14599">
        <ele>251.6</ele>
        <time>2017-04-20T10:33:01Z</time>
      </trkpt>
      <trkpt lat="44.04709" lon="2.14595">
        <ele>253.8</ele>
        <time>2017-04-20T10:33:04Z</time>
      </trkpt>
      <trkpt lat="44.047" lon="2.1459">
        <ele>253.6</ele>
        <time>2017-04-20T10:33:07Z</time>
      </trkpt>
      <trkpt lat="44.04689" lon="2.14584">
        <ele>252.9</ele>
        <time>2017-04-20T10:33:10Z</time>
      </trkpt>
      <trkpt lat="44.04681" lon="2.14581">
        <ele>252.9</ele>
        <time>2017-04-20T10:33:12Z</time>
      </trkpt>
      <trkpt lat="44.04673" lon="2.14578">
        <ele>253.3</ele>
        <time>2017-04-20T10:33:14Z</time>
      </trkpt>
      <trkpt lat="44.04666" lon="2.14575">
        <ele>253.1</ele>
        <time>2017-04-20T10:33:16Z</time>
      </trkpt>
      <trkpt lat="44.04659" lon="2.14571">
        <ele>253.3</ele>
        <time>2017-04-20T10:33:18Z</time>
      </trkpt>
      <trkpt lat="44.04652" lon="2.14565">
        <ele>253.6</ele>
        <time>2017-04-20T10:33:20Z</time>
      </trkpt>
      <trkpt lat="44.04647" lon="2.14557">
        <ele>253.5</ele>
        <time>2017-04-20T10:33:22Z</time>
      </trkpt>
      <trkpt lat="44.04641" lon="2.1455">
        <ele>253.3</ele>
        <time>2017-04-20T10:33:24Z</time>
      </trkpt>
      <trkpt lat="44.04633" lon="2.14546">
        <ele>254.1</ele>
        <time>2017-04-20T10:33:26Z</time>
      </trkpt>
      <trkpt lat="44.04626" lon="2.14545">
        <ele>254.5</ele>
        <time>2017-04-20T10:33:28Z</time>
      </trkpt>
      <trkpt lat="44.04618" lon="2.14542">
        <ele>254.8</ele>
        <time>2017-04-20T10:33:30Z</time>
      </trkpt>
      <trkpt lat="44.0461" lon="2.1454">
        <ele>254.8</ele>
        <time>2017-04-20T10:33:32Z</time>
      </trkpt>
      <trkpt lat="44.04603" lon="2.14538">
        <ele>254.8</ele>
        <time>2017-04-20T10:33:34Z</time>
      </trkpt>
      <trkpt lat="44.04593" lon="2.14537">
        <ele>254.7</ele>
        <time>2017-04-20T10:33:37Z</time>
      </trkpt>
      <trkpt lat="44.04586" lon="2.14535">
        <ele>254.7</ele>
        <time>2017-04-20T10:33:44Z</time>
      </trkpt>
      <trkpt lat="44.04584" lon="2.14534">
        <ele>254.2</ele>
        <time>2017-04-20T10:33:51Z</time>
      </trkpt>
      <trkpt lat="44.0458" lon="2.14543">
        <ele>252.3</ele>
        <time>2017-04-20T10:35:09Z</time>
      </trkpt>
      <trkpt lat="44.04573" lon="2.14551">
        <ele>251.4</ele>
        <time>2017-04-20T10:35:14Z</time>
      </trkpt>
      <trkpt lat="44.04567" lon="2.14558">
        <ele>251.3</ele>
        <time>2017-04-20T10:35:18Z</time>
      </trkpt>
      <trkpt lat="44.0456" lon="2.1455">
        <ele>250.6</ele>
        <time>2017-04-20T10:35:23Z</time>
      </trkpt>
      <trkpt lat="44.04556" lon="2.14541">
        <ele>251</ele>
        <time>2017-04-20T10:35:26Z</time>
      </trkpt>
      <trkpt lat="44.0455" lon="2.14531">
        <ele>251</ele>
        <time>2017-04-20T10:35:29Z</time>
      </trkpt>
      <trkpt lat="44.04543" lon="2.14522">
        <ele>251.7</ele>
        <time>2017-04-20T10:35:32Z</time>
      </trkpt>
      <trkpt lat="44.04535" lon="2.14511">
        <ele>251.8</ele>
        <time>2017-04-20T10:35:35Z</time>
      </trkpt>
      <trkpt lat="44.04529" lon="2.14504">
        <ele>252.2</ele>
        <time>2017-04-20T10:35:37Z</time>
      </trkpt>
      <trkpt lat="44.04524" lon="2.14496">
        <ele>251.8</ele>
        <time>2017-04-20T10:35:39Z</time>
      </trkpt>
      <trkpt lat="44.04518" lon="2.14488">
        <ele>251.9</ele>
        <time>2017-04-20T10:35:41Z</time>
      </trkpt>
      <trkpt lat="44.04513" lon="2.14479">
        <ele>251.7</ele>
        <time>2017-04-20T10:35:43Z</time>
      </trkpt>
      <trkpt lat="44.04508" lon="2.1447">
        <ele>251.9</ele>
        <time>2017-04-20T10:35:46Z</time>
      </trkpt>
      <trkpt lat="44.04513" lon="2.14461">
        <ele>251.4</ele>
        <time>2017-04-20T10:35:50Z</time>
      </trkpt>
      <trkpt lat="44.04508" lon="2.14452">
        <ele>251.5</ele>
        <time>2017-04-20T10:35:53Z</time>
      </trkpt>
      <trkpt lat="44.045" lon="2.14444">
        <ele>251.8</ele>
        <time>2017-04-20T10:35:56Z</time>
      </trkpt>
      <trkpt lat="44.04493" lon="2.14435">
        <ele>252.1</ele>
        <time>2017-04-20T10:35:59Z</time>
      </trkpt>
      <trkpt lat="44.04485" lon="2.14427">
        <ele>252.5</ele>
        <time>2017-04-20T10:36:02Z</time>
      </trkpt>
      <trkpt lat="44.04477" lon="2.14418">
        <ele>252.2</ele>
        <time>2017-04-20T10:36:05Z</time>
      </trkpt>
      <trkpt lat="44.04471" lon="2.14411">
        <ele>252.3</ele>
        <time>2017-04-20T10:36:07Z</time>
      </trkpt>
      <trkpt lat="44.04465" lon="2.14406">
        <ele>252.6</ele>
        <time>2017-04-20T10:36:09Z</time>
      </trkpt>
      <trkpt lat="44.04459" lon="2.14399">
        <ele>252.8</ele>
        <time>2017-04-20T10:36:11Z</time>
      </trkpt>
      <trkpt lat="44.04453" lon="2.14394">
        <ele>253.1</ele>
        <time>2017-04-20T10:36:13Z</time>
      </trkpt>
      <trkpt lat="44.04448" lon="2.14385">
        <ele>253.2</ele>
        <time>2017-04-20T10:36:15Z</time>
      </trkpt>
      <trkpt lat="44.04444" lon="2.14376">
        <ele>253.3</ele>
        <time>2017-04-20T10:36:17Z</time>
      </trkpt>
      <trkpt lat="44.04438" lon="2.14368">
        <ele>253.3</ele>
        <time>2017-04-20T10:36:19Z</time>
      </trkpt>
      <trkpt lat="44.04432" lon="2.14361">
        <ele>253.2</ele>
        <time>2017-04-20T10:36:21Z</time>
      </trkpt>
      <trkpt lat="44.04425" lon="2.14355">
        <ele>253</ele>
        <time>2017-04-20T10:36:23Z</time>
      </trkpt>
      <trkpt lat="44.04418" lon="2.14349">
        <ele>253.1</ele>
        <time>2017-04-20T10:36:25Z</time>
      </trkpt>
      <trkpt lat="44.04411" lon="2.14343">
        <ele>253.1</ele>
        <time>2017-04-20T10:36:27Z</time>
      </trkpt>
      <trkpt lat="44.04405" lon="2.14337">
        <ele>252.7</ele>
        <time>2017-04-20T10:36:29Z</time>
      </trkpt>
      <trkpt lat="44.04398" lon="2.14332">
        <ele>252.4</ele>
        <time>2017-04-20T10:36:31Z</time>
      </trkpt>
      <trkpt lat="44.04391" lon="2.14326">
        <ele>251.7</ele>
        <time>2017-04-20T10:36:33Z</time>
      </trkpt>
      <trkpt lat="44.04384" lon="2.14321">
        <ele>251.6</ele>
        <time>2017-04-20T10:36:35Z</time>
      </trkpt>
      <trkpt lat="44.04376" lon="2.14317">
        <ele>252.7</ele>
        <time>2017-04-20T10:36:37Z</time>
      </trkpt>
      <trkpt lat="44.04367" lon="2.14311">
        <ele>252.2</ele>
        <time>2017-04-20T10:36:40Z</time>
      </trkpt>
      <trkpt lat="44.04359" lon="2.14307">
        <ele>252</ele>
        <time>2017-04-20T10:36:42Z</time>
      </trkpt>
      <trkpt lat="44.04351" lon="2.14303">
        <ele>252.4</ele>
        <time>2017-04-20T10:36:44Z</time>
      </trkpt>
      <trkpt lat="44.04343" lon="2.143">
        <ele>252.4</ele>
        <time>2017-04-20T10:36:46Z</time>
      </trkpt>
      <trkpt lat="44.04335" lon="2.14296">
        <ele>252.3</ele>
        <time>2017-04-20T10:36:48Z</time>
      </trkpt>
      <trkpt lat="44.04327" lon="2.14292">
        <ele>252.4</ele>
        <time>2017-04-20T10:36:50Z</time>
      </trkpt>
      <trkpt lat="44.04318" lon="2.14289">
        <ele>252.8</ele>
        <time>2017-04-20T10:36:52Z</time>
      </trkpt>
      <trkpt lat="44.04311" lon="2.14284">
        <ele>252.8</ele>
        <time>2017-04-20T10:36:54Z</time>
      </trkpt>
      <trkpt lat="44.04303" lon="2.1428">
        <ele>253.1</ele>
        <time>2017-04-20T10:36:56Z</time>
      </trkpt>
      <trkpt lat="44.04294" lon="2.14276">
        <ele>253.6</ele>
        <time>2017-04-20T10:36:58Z</time>
      </trkpt>
      <trkpt lat="44.04285" lon="2.14273">
        <ele>253.8</ele>
        <time>2017-04-20T10:37:00Z</time>
      </trkpt>
      <trkpt lat="44.04277" lon="2.1427">
        <ele>254</ele>
        <time>2017-04-20T10:37:02Z</time>
      </trkpt>
      <trkpt lat="44.04269" lon="2.14267">
        <ele>254.2</ele>
        <time>2017-04-20T10:37:04Z</time>
      </trkpt>
      <trkpt lat="44.04261" lon="2.14264">
        <ele>254.1</ele>
        <time>2017-04-20T10:37:06Z</time>
      </trkpt>
      <trkpt lat="44.04253" lon="2.14262">
        <ele>254.3</ele>
        <time>2017-04-20T10:37:08Z</time>
      </trkpt>
      <trkpt lat="44.04246" lon="2.1426">
        <ele>254.2</ele>
        <time>2017-04-20T10:37:10Z</time>
      </trkpt>
      <trkpt lat="44.04237" lon="2.14258">
        <ele>254.4</ele>
        <time>2017-04-20T10:37:12Z</time>
      </trkpt>
      <trkpt lat="44.0423" lon="2.14256">
        <ele>254.7</ele>
        <time>2017-04-20T10:37:14Z</time>
      </trkpt>
      <trkpt lat="44.04222" lon="2.14255">
        <ele>255.2</ele>
        <time>2017-04-20T10:37:16Z</time>
      </trkpt>
      <trkpt lat="44.04215" lon="2.14253">
        <ele>255.6</ele>
        <time>2017-04-20T10:37:18Z</time>
      </trkpt>
      <trkpt lat="44.04208" lon="2.14251">
        <ele>255.3</ele>
        <time>2017-04-20T10:37:20Z</time>
      </trkpt>
      <trkpt lat="44.042" lon="2.14249">
        <ele>255</ele>
        <time>2017-04-20T10:37:22Z</time>
      </trkpt>
      <trkpt lat="44.04193" lon="2.14247">
        <ele>255.2</ele>
        <time>2017-04-20T10:37:24Z</time>
      </trkpt>
      <trkpt lat="44.04185" lon="2.14246">
        <ele>254.8</ele>
        <time>2017-04-20T10:37:26Z</time>
      </trkpt>
      <trkpt lat="44.04178" lon="2.14244">
        <ele>255.2</ele>
        <time>2017-04-20T10:37:28Z</time>
      </trkpt>
      <trkpt lat="44.0417" lon="2.14243">
        <ele>255.6</ele>
        <time>2017-04-20T10:37:30Z</time>
      </trkpt>
      <trkpt lat="44.04163" lon="2.14241">
        <ele>256.8</ele>
        <time>2017-04-20T10:37:32Z</time>
      </trkpt>
      <trkpt lat="44.04156" lon="2.1424">
        <ele>257.1</ele>
        <time>2017-04-20T10:37:34Z</time>
      </trkpt>
      <trkpt lat="44.04148" lon="2.14239">
        <ele>257.3</ele>
        <time>2017-04-20T10:37:36Z</time>
      </trkpt>
      <trkpt lat="44.04138" lon="2.14237">
        <ele>257.4</ele>
        <time>2017-04-20T10:37:39Z</time>
      </trkpt>
      <trkpt lat="44.04127" lon="2.14235">
        <ele>258.7</ele>
        <time>2017-04-20T10:37:42Z</time>
      </trkpt>
      <trkpt lat="44.04116" lon="2.14233">
        <ele>258</ele>
        <time>2017-04-20T10:37:45Z</time>
      </trkpt>
      <trkpt lat="44.04106" lon="2.1423">
        <ele>256.5</ele>
        <time>2017-04-20T10:37:48Z</time>
      </trkpt>
      <trkpt lat="44.04096" lon="2.14228">
        <ele>256.3</ele>
        <time>2017-04-20T10:37:51Z</time>
      </trkpt>
      <trkpt lat="44.04087" lon="2.14226">
        <ele>255.5</ele>
        <time>2017-04-20T10:37:53Z</time>
      </trkpt>
      <trkpt lat="44.04079" lon="2.14225">
        <ele>256.2</ele>
        <time>2017-04-20T10:37:55Z</time>
      </trkpt>
      <trkpt lat="44.04071" lon="2.14224">
        <ele>256.4</ele>
        <time>2017-04-20T10:37:57Z</time>
      </trkpt>
      <trkpt lat="44.04063" lon="2.14222">
        <ele>256.3</ele>
        <time>2017-04-20T10:37:59Z</time>
      </trkpt>
      <trkpt lat="44.04055" lon="2.1422">
        <ele>256.3</ele>
        <time>2017-04-20T10:38:01Z</time>
      </trkpt>
      <trkpt lat="44.04047" lon="2.14219">
        <ele>256.7</ele>
        <time>2017-04-20T10:38:03Z</time>
      </trkpt>
      <trkpt lat="44.04039" lon="2.14218">
        <ele>257.5</ele>
        <time>2017-04-20T10:38:05Z</time>
      </trkpt>
      <trkpt lat="44.04031" lon="2.14216">
        <ele>257.6</ele>
        <time>2017-04-20T10:38:07Z</time>
      </trkpt>
      <trkpt lat="44.04023" lon="2.14214">
        <ele>258.1</ele>
        <time>2017-04-20T10:38:09Z</time>
      </trkpt>
      <trkpt lat="44.04016" lon="2.14212">
        <ele>258.2</ele>
        <time>2017-04-20T10:38:11Z</time>
      </trkpt>
      <trkpt lat="44.04005" lon="2.14209">
        <ele>257.8</ele>
        <time>2017-04-20T10:38:14Z</time>
      </trkpt>
      <trkpt lat="44.03998" lon="2.14207">
        <ele>258.6</ele>
        <time>2017-04-20T10:38:16Z</time>
      </trkpt>
      <trkpt lat="44.03988" lon="2.14203">
        <ele>258.5</ele>
        <time>2017-04-20T10:38:19Z</time>
      </trkpt>
      <trkpt lat="44.0398" lon="2.14201">
        <ele>258.8</ele>
        <time>2017-04-20T10:38:21Z</time>
      </trkpt>
      <trkpt lat="44.03972" lon="2.14198">
        <ele>259.1</ele>
        <time>2017-04-20T10:38:23Z</time>
      </trkpt>
      <trkpt lat="44.03964" lon="2.14195">
        <ele>258.8</ele>
        <time>2017-04-20T10:38:25Z</time>
      </trkpt>
      <trkpt lat="44.03955" lon="2.14193">
        <ele>259.3</ele>
        <time>2017-04-20T10:38:27Z</time>
      </trkpt>
      <trkpt lat="44.03947" lon="2.1419">
        <ele>259.4</ele>
        <time>2017-04-20T10:38:29Z</time>
      </trkpt>
      <trkpt lat="44.03938" lon="2.14188">
        <ele>259.4</ele>
        <time>2017-04-20T10:38:31Z</time>
      </trkpt>
      <trkpt lat="44.0393" lon="2.14184">
        <ele>259.3</ele>
        <time>2017-04-20T10:38:33Z</time>
      </trkpt>
      <trkpt lat="44.03922" lon="2.14182">
        <ele>259.1</ele>
        <time>2017-04-20T10:38:35Z</time>
      </trkpt>
      <trkpt lat="44.03914" lon="2.14179">
        <ele>258.7</ele>
        <time>2017-04-20T10:38:37Z</time>
      </trkpt>
      <trkpt lat="44.03906" lon="2.14175">
        <ele>258.3</ele>
        <time>2017-04-20T10:38:39Z</time>
      </trkpt>
      <trkpt lat="44.03898" lon="2.14172">
        <ele>257.7</ele>
        <time>2017-04-20T10:38:41Z</time>
      </trkpt>
      <trkpt lat="44.0389" lon="2.14168">
        <ele>257.4</ele>
        <time>2017-04-20T10:38:43Z</time>
      </trkpt>
      <trkpt lat="44.03881" lon="2.14165">
        <ele>257.3</ele>
        <time>2017-04-20T10:38:45Z</time>
      </trkpt>
      <trkpt lat="44.03873" lon="2.14163">
        <ele>257.3</ele>
        <time>2017-04-20T10:38:47Z</time>
      </trkpt>
      <trkpt lat="44.03866" lon="2.14159">
        <ele>257.3</ele>
        <time>2017-04-20T10:38:49Z</time>
      </trkpt>
      <trkpt lat="44.03859" lon="2.14154">
        <ele>256</ele>
        <time>2017-04-20T10:38:51Z</time>
      </trkpt>
      <trkpt lat="44.03852" lon="2.14149">
        <ele>255.1</ele>
        <time>2017-04-20T10:38:53Z</time>
      </trkpt>
      <trkpt lat="44.03845" lon="2.14143">
        <ele>254.3</ele>
        <time>2017-04-20T10:38:55Z</time>
      </trkpt>
      <trkpt lat="44.03838" lon="2.14138">
        <ele>253.3</ele>
        <time>2017-04-20T10:38:57Z</time>
      </trkpt>
      <trkpt lat="44.0383" lon="2.14136">
        <ele>252.5</ele>
        <time>2017-04-20T10:39:00Z</time>
      </trkpt>
      <trkpt lat="44.03823" lon="2.1414">
        <ele>252.1</ele>
        <time>2017-04-20T10:39:06Z</time>
      </trkpt>
      <trkpt lat="44.03823" lon="2.14151">
        <ele>250.7</ele>
        <time>2017-04-20T10:39:12Z</time>
      </trkpt>
      <trkpt lat="44.0383" lon="2.14163">
        <ele>249.6</ele>
        <time>2017-04-20T10:39:15Z</time>
      </trkpt>
      <trkpt lat="44.03834" lon="2.14178">
        <ele>248.1</ele>
        <time>2017-04-20T10:39:17Z</time>
      </trkpt>
      <trkpt lat="44.03833" lon="2.14192">
        <ele>248.6</ele>
        <time>2017-04-20T10:39:19Z</time>
      </trkpt>
      <trkpt lat="44.03829" lon="2.14204">
        <ele>249</ele>
        <time>2017-04-20T10:39:21Z</time>
      </trkpt>
      <trkpt lat="44.03824" lon="2.14214">
        <ele>249.7</ele>
        <time>2017-04-20T10:39:23Z</time>
      </trkpt>
      <trkpt lat="44.03817" lon="2.14222">
        <ele>249.8</ele>
        <time>2017-04-20T10:39:25Z</time>
      </trkpt>
      <trkpt lat="44.03808" lon="2.14222">
        <ele>250.9</ele>
        <time>2017-04-20T10:39:28Z</time>
      </trkpt>
      <trkpt lat="44.038" lon="2.14214">
        <ele>251.2</ele>
        <time>2017-04-20T10:39:31Z</time>
      </trkpt>
      <trkpt lat="44.03793" lon="2.14202">
        <ele>251.4</ele>
        <time>2017-04-20T10:39:34Z</time>
      </trkpt>
      <trkpt lat="44.03787" lon="2.14192">
        <ele>252.7</ele>
        <time>2017-04-20T10:39:37Z</time>
      </trkpt>
      <trkpt lat="44.03782" lon="2.14183">
        <ele>254.5</ele>
        <time>2017-04-20T10:39:40Z</time>
      </trkpt>
      <trkpt lat="44.03776" lon="2.14171">
        <ele>255.6</ele>
        <time>2017-04-20T10:39:43Z</time>
      </trkpt>
      <trkpt lat="44.03772" lon="2.14163">
        <ele>256.9</ele>
        <time>2017-04-20T10:39:45Z</time>
      </trkpt>
      <trkpt lat="44.03765" lon="2.14152">
        <ele>257.4</ele>
        <time>2017-04-20T10:39:48Z</time>
      </trkpt>
      <trkpt lat="44.03759" lon="2.14145">
        <ele>257.8</ele>
        <time>2017-04-20T10:39:50Z</time>
      </trkpt>
      <trkpt lat="44.03754" lon="2.14138">
        <ele>257.7</ele>
        <time>2017-04-20T10:39:52Z</time>
      </trkpt>
      <trkpt lat="44.03748" lon="2.1413">
        <ele>257.2</ele>
        <time>2017-04-20T10:39:54Z</time>
      </trkpt>
      <trkpt lat="44.03743" lon="2.14124">
        <ele>257.4</ele>
        <time>2017-04-20T10:39:56Z</time>
      </trkpt>
      <trkpt lat="44.03737" lon="2.14117">
        <ele>257.5</ele>
        <time>2017-04-20T10:39:58Z</time>
      </trkpt>
      <trkpt lat="44.0373" lon="2.1411">
        <ele>258</ele>
        <time>2017-04-20T10:40:00Z</time>
      </trkpt>
      <trkpt lat="44.03722" lon="2.14102">
        <ele>257.9</ele>
        <time>2017-04-20T10:40:03Z</time>
      </trkpt>
      <trkpt lat="44.03714" lon="2.14094">
        <ele>258.2</ele>
        <time>2017-04-20T10:40:06Z</time>
      </trkpt>
      <trkpt lat="44.03707" lon="2.14089">
        <ele>257.9</ele>
        <time>2017-04-20T10:40:08Z</time>
      </trkpt>
      <trkpt lat="44.037" lon="2.14085">
        <ele>258</ele>
        <time>2017-04-20T10:40:10Z</time>
      </trkpt>
      <trkpt lat="44.03694" lon="2.1408">
        <ele>257.9</ele>
        <time>2017-04-20T10:40:12Z</time>
      </trkpt>
      <trkpt lat="44.03687" lon="2.14075">
        <ele>257.8</ele>
        <time>2017-04-20T10:40:14Z</time>
      </trkpt>
      <trkpt lat="44.03678" lon="2.14067">
        <ele>257.6</ele>
        <time>2017-04-20T10:40:17Z</time>
      </trkpt>
      <trkpt lat="44.03669" lon="2.1406">
        <ele>257</ele>
        <time>2017-04-20T10:40:20Z</time>
      </trkpt>
      <trkpt lat="44.03661" lon="2.14053">
        <ele>256.4</ele>
        <time>2017-04-20T10:40:23Z</time>
      </trkpt>
      <trkpt lat="44.03655" lon="2.14048">
        <ele>255.8</ele>
        <time>2017-04-20T10:40:25Z</time>
      </trkpt>
      <trkpt lat="44.03647" lon="2.14043">
        <ele>255.2</ele>
        <time>2017-04-20T10:40:27Z</time>
      </trkpt>
      <trkpt lat="44.03638" lon="2.14039">
        <ele>255.1</ele>
        <time>2017-04-20T10:40:29Z</time>
      </trkpt>
      <trkpt lat="44.03631" lon="2.14034">
        <ele>255.3</ele>
        <time>2017-04-20T10:40:31Z</time>
      </trkpt>
      <trkpt lat="44.03624" lon="2.1403">
        <ele>255.6</ele>
        <time>2017-04-20T10:40:33Z</time>
      </trkpt>
      <trkpt lat="44.03616" lon="2.14027">
        <ele>256.2</ele>
        <time>2017-04-20T10:40:35Z</time>
      </trkpt>
      <trkpt lat="44.03606" lon="2.14025">
        <ele>257.4</ele>
        <time>2017-04-20T10:40:37Z</time>
      </trkpt>
      <trkpt lat="44.03597" lon="2.14021">
        <ele>258</ele>
        <time>2017-04-20T10:40:39Z</time>
      </trkpt>
      <trkpt lat="44.03587" lon="2.14017">
        <ele>258.7</ele>
        <time>2017-04-20T10:40:41Z</time>
      </trkpt>
      <trkpt lat="44.03578" lon="2.14012">
        <ele>259.8</ele>
        <time>2017-04-20T10:40:43Z</time>
      </trkpt>
      <trkpt lat="44.0357" lon="2.14008">
        <ele>260.6</ele>
        <time>2017-04-20T10:40:45Z</time>
      </trkpt>
      <trkpt lat="44.03562" lon="2.14006">
        <ele>261.2</ele>
        <time>2017-04-20T10:40:47Z</time>
      </trkpt>
      <trkpt lat="44.03555" lon="2.14003">
        <ele>262</ele>
        <time>2017-04-20T10:40:49Z</time>
      </trkpt>
      <trkpt lat="44.03546" lon="2.13997">
        <ele>261.7</ele>
        <time>2017-04-20T10:40:52Z</time>
      </trkpt>
      <trkpt lat="44.03537" lon="2.13994">
        <ele>262.1</ele>
        <time>2017-04-20T10:40:55Z</time>
      </trkpt>
      <trkpt lat="44.03527" lon="2.13999">
        <ele>263.3</ele>
        <time>2017-04-20T10:40:58Z</time>
      </trkpt>
      <trkpt lat="44.0352" lon="2.14008">
        <ele>264.5</ele>
        <time>2017-04-20T10:41:00Z</time>
      </trkpt>
      <trkpt lat="44.03516" lon="2.14016">
        <ele>265.1</ele>
        <time>2017-04-20T10:41:02Z</time>
      </trkpt>
      <trkpt lat="44.0351" lon="2.14023">
        <ele>265.6</ele>
        <time>2017-04-20T10:41:04Z</time>
      </trkpt>
      <trkpt lat="44.03505" lon="2.1403">
        <ele>265.9</ele>
        <time>2017-04-20T10:41:06Z</time>
      </trkpt>
      <trkpt lat="44.03499" lon="2.14037">
        <ele>266.3</ele>
        <time>2017-04-20T10:41:08Z</time>
      </trkpt>
      <trkpt lat="44.03493" lon="2.14043">
        <ele>267.4</ele>
        <time>2017-04-20T10:41:10Z</time>
      </trkpt>
      <trkpt lat="44.03487" lon="2.14049">
        <ele>268.3</ele>
        <time>2017-04-20T10:41:12Z</time>
      </trkpt>
      <trkpt lat="44.03481" lon="2.14057">
        <ele>268.9</ele>
        <time>2017-04-20T10:41:14Z</time>
      </trkpt>
      <trkpt lat="44.03476" lon="2.14064">
        <ele>269.8</ele>
        <time>2017-04-20T10:41:16Z</time>
      </trkpt>
      <trkpt lat="44.0347" lon="2.14075">
        <ele>268.4</ele>
        <time>2017-04-20T10:41:19Z</time>
      </trkpt>
      <trkpt lat="44.03464" lon="2.14086">
        <ele>266.8</ele>
        <time>2017-04-20T10:41:22Z</time>
      </trkpt>
      <trkpt lat="44.0346" lon="2.14098">
        <ele>266.7</ele>
        <time>2017-04-20T10:41:25Z</time>
      </trkpt>
      <trkpt lat="44.03457" lon="2.14112">
        <ele>267.1</ele>
        <time>2017-04-20T10:41:28Z</time>
      </trkpt>
      <trkpt lat="44.03454" lon="2.14124">
        <ele>267.5</ele>
        <time>2017-04-20T10:41:31Z</time>
      </trkpt>
      <trkpt lat="44.0345" lon="2.14137">
        <ele>266.7</ele>
        <time>2017-04-20T10:41:34Z</time>
      </trkpt>
      <trkpt lat="44.03447" lon="2.14149">
        <ele>266.4</ele>
        <time>2017-04-20T10:41:37Z</time>
      </trkpt>
      <trkpt lat="44.03444" lon="2.14163">
        <ele>264.5</ele>
        <time>2017-04-20T10:41:40Z</time>
      </trkpt>
      <trkpt lat="44.0344" lon="2.14175">
        <ele>262.6</ele>
        <time>2017-04-20T10:41:43Z</time>
      </trkpt>
      <trkpt lat="44.03436" lon="2.14189">
        <ele>262</ele>
        <time>2017-04-20T10:41:46Z</time>
      </trkpt>
      <trkpt lat="44.03437" lon="2.142">
        <ele>264.8</ele>
        <time>2017-04-20T10:41:48Z</time>
      </trkpt>
      <trkpt lat="44.03436" lon="2.14211">
        <ele>266.2</ele>
        <time>2017-04-20T10:41:50Z</time>
      </trkpt>
      <trkpt lat="44.03435" lon="2.14222">
        <ele>266.6</ele>
        <time>2017-04-20T10:41:52Z</time>
      </trkpt>
      <trkpt lat="44.03434" lon="2.14233">
        <ele>267.4</ele>
        <time>2017-04-20T10:41:54Z</time>
      </trkpt>
      <trkpt lat="44.03433" lon="2.14244">
        <ele>269.1</ele>
        <time>2017-04-20T10:41:56Z</time>
      </trkpt>
      <trkpt lat="44.03432" lon="2.14254">
        <ele>270.4</ele>
        <time>2017-04-20T10:41:58Z</time>
      </trkpt>
      <trkpt lat="44.0343" lon="2.14264">
        <ele>271.8</ele>
        <time>2017-04-20T10:42:00Z</time>
      </trkpt>
      <trkpt lat="44.03429" lon="2.14275">
        <ele>273.6</ele>
        <time>2017-04-20T10:42:02Z</time>
      </trkpt>
      <trkpt lat="44.03427" lon="2.14286">
        <ele>274.9</ele>
        <time>2017-04-20T10:42:04Z</time>
      </trkpt>
      <trkpt lat="44.03426" lon="2.14297">
        <ele>276.4</ele>
        <time>2017-04-20T10:42:06Z</time>
      </trkpt>
      <trkpt lat="44.03424" lon="2.14307">
        <ele>276.8</ele>
        <time>2017-04-20T10:42:08Z</time>
      </trkpt>
      <trkpt lat="44.03422" lon="2.14318">
        <ele>276.9</ele>
        <time>2017-04-20T10:42:10Z</time>
      </trkpt>
      <trkpt lat="44.0342" lon="2.1433">
        <ele>277.3</ele>
        <time>2017-04-20T10:42:12Z</time>
      </trkpt>
      <trkpt lat="44.03417" lon="2.14343">
        <ele>277.6</ele>
        <time>2017-04-20T10:42:14Z</time>
      </trkpt>
      <trkpt lat="44.03413" lon="2.14355">
        <ele>277.5</ele>
        <time>2017-04-20T10:42:16Z</time>
      </trkpt>
      <trkpt lat="44.03407" lon="2.14367">
        <ele>277.2</ele>
        <time>2017-04-20T10:42:18Z</time>
      </trkpt>
      <trkpt lat="44.03401" lon="2.14379">
        <ele>277.6</ele>
        <time>2017-04-20T10:42:20Z</time>
      </trkpt>
      <trkpt lat="44.03395" lon="2.1439">
        <ele>277.8</ele>
        <time>2017-04-20T10:42:22Z</time>
      </trkpt>
      <trkpt lat="44.03388" lon="2.14399">
        <ele>277.9</ele>
        <time>2017-04-20T10:42:24Z</time>
      </trkpt>
      <trkpt lat="44.03382" lon="2.1441">
        <ele>278.3</ele>
        <time>2017-04-20T10:42:26Z</time>
      </trkpt>
      <trkpt lat="44.03376" lon="2.14421">
        <ele>279.1</ele>
        <time>2017-04-20T10:42:28Z</time>
      </trkpt>
      <trkpt lat="44.03369" lon="2.1443">
        <ele>279.8</ele>
        <time>2017-04-20T10:42:30Z</time>
      </trkpt>
      <trkpt lat="44.03363" lon="2.1444">
        <ele>280.6</ele>
        <time>2017-04-20T10:42:32Z</time>
      </trkpt>
      <trkpt lat="44.03356" lon="2.14448">
        <ele>281.5</ele>
        <time>2017-04-20T10:42:34Z</time>
      </trkpt>
      <trkpt lat="44.03347" lon="2.14456">
        <ele>281.8</ele>
        <time>2017-04-20T10:42:36Z</time>
      </trkpt>
      <trkpt lat="44.03339" lon="2.14461">
        <ele>282.2</ele>
        <time>2017-04-20T10:42:38Z</time>
      </trkpt>
      <trkpt lat="44.03329" lon="2.14464">
        <ele>282.3</ele>
        <time>2017-04-20T10:42:40Z</time>
      </trkpt>
      <trkpt lat="44.03319" lon="2.14464">
        <ele>282.4</ele>
        <time>2017-04-20T10:42:42Z</time>
      </trkpt>
      <trkpt lat="44.03309" lon="2.14465">
        <ele>282.5</ele>
        <time>2017-04-20T10:42:44Z</time>
      </trkpt>
      <trkpt lat="44.033" lon="2.14467">
        <ele>282.3</ele>
        <time>2017-04-20T10:42:46Z</time>
      </trkpt>
      <trkpt lat="44.03291" lon="2.14468">
        <ele>282.7</ele>
        <time>2017-04-20T10:42:48Z</time>
      </trkpt>
      <trkpt lat="44.03281" lon="2.14469">
        <ele>282.7</ele>
        <time>2017-04-20T10:42:50Z</time>
      </trkpt>
      <trkpt lat="44.03271" lon="2.1447">
        <ele>282.9</ele>
        <time>2017-04-20T10:42:52Z</time>
      </trkpt>
      <trkpt lat="44.03262" lon="2.14472">
        <ele>283.2</ele>
        <time>2017-04-20T10:42:54Z</time>
      </trkpt>
      <trkpt lat="44.03253" lon="2.14473">
        <ele>283.2</ele>
        <time>2017-04-20T10:42:56Z</time>
      </trkpt>
      <trkpt lat="44.03243" lon="2.14475">
        <ele>283.2</ele>
        <time>2017-04-20T10:42:58Z</time>
      </trkpt>
      <trkpt lat="44.03233" lon="2.14477">
        <ele>283.5</ele>
        <time>2017-04-20T10:43:00Z</time>
      </trkpt>
      <trkpt lat="44.03223" lon="2.14478">
        <ele>283.6</ele>
        <time>2017-04-20T10:43:02Z</time>
      </trkpt>
      <trkpt lat="44.03213" lon="2.1448">
        <ele>283</ele>
        <time>2017-04-20T10:43:04Z</time>
      </trkpt>
      <trkpt lat="44.03202" lon="2.14481">
        <ele>283</ele>
        <time>2017-04-20T10:43:06Z</time>
      </trkpt>
      <trkpt lat="44.03193" lon="2.14482">
        <ele>283</ele>
        <time>2017-04-20T10:43:08Z</time>
      </trkpt>
      <trkpt lat="44.03183" lon="2.14484">
        <ele>283.6</ele>
        <time>2017-04-20T10:43:10Z</time>
      </trkpt>
      <trkpt lat="44.03173" lon="2.14485">
        <ele>283.3</ele>
        <time>2017-04-20T10:43:12Z</time>
      </trkpt>
      <trkpt lat="44.03163" lon="2.14487">
        <ele>283.4</ele>
        <time>2017-04-20T10:43:14Z</time>
      </trkpt>
      <trkpt lat="44.03154" lon="2.14486">
        <ele>283.7</ele>
        <time>2017-04-20T10:43:16Z</time>
      </trkpt>
      <trkpt lat="44.03145" lon="2.14485">
        <ele>284.3</ele>
        <time>2017-04-20T10:43:18Z</time>
      </trkpt>
      <trkpt lat="44.03137" lon="2.14481">
        <ele>284.9</ele>
        <time>2017-04-20T10:43:20Z</time>
      </trkpt>
      <trkpt lat="44.03129" lon="2.14477">
        <ele>285.7</ele>
        <time>2017-04-20T10:43:22Z</time>
      </trkpt>
      <trkpt lat="44.03122" lon="2.14469">
        <ele>285.9</ele>
        <time>2017-04-20T10:43:24Z</time>
      </trkpt>
      <trkpt lat="44.03116" lon="2.14461">
        <ele>286</ele>
        <time>2017-04-20T10:43:26Z</time>
      </trkpt>
      <trkpt lat="44.03111" lon="2.14451">
        <ele>286</ele>
        <time>2017-04-20T10:43:28Z</time>
      </trkpt>
      <trkpt lat="44.03105" lon="2.14442">
        <ele>286</ele>
        <time>2017-04-20T10:43:30Z</time>
      </trkpt>
      <trkpt lat="44.031" lon="2.14431">
        <ele>285.9</ele>
        <time>2017-04-20T10:43:32Z</time>
      </trkpt>
      <trkpt lat="44.03095" lon="2.14421">
        <ele>286.3</ele>
        <time>2017-04-20T10:43:34Z</time>
      </trkpt>
      <trkpt lat="44.03091" lon="2.1441">
        <ele>286.5</ele>
        <time>2017-04-20T10:43:36Z</time>
      </trkpt>
      <trkpt lat="44.03086" lon="2.14399">
        <ele>286.6</ele>
        <time>2017-04-20T10:43:38Z</time>
      </trkpt>
      <trkpt lat="44.03081" lon="2.14388">
        <ele>286.4</ele>
        <time>2017-04-20T10:43:40Z</time>
      </trkpt>
      <trkpt lat="44.03077" lon="2.14377">
        <ele>286.5</ele>
        <time>2017-04-20T10:43:42Z</time>
      </trkpt>
      <trkpt lat="44.03071" lon="2.14367">
        <ele>286.5</ele>
        <time>2017-04-20T10:43:44Z</time>
      </trkpt>
      <trkpt lat="44.03066" lon="2.14356">
        <ele>286.5</ele>
        <time>2017-04-20T10:43:46Z</time>
      </trkpt>
      <trkpt lat="44.0306" lon="2.14345">
        <ele>286.4</ele>
        <time>2017-04-20T10:43:48Z</time>
      </trkpt>
      <trkpt lat="44.03054" lon="2.14336">
        <ele>286.2</ele>
        <time>2017-04-20T10:43:50Z</time>
      </trkpt>
      <trkpt lat="44.03048" lon="2.14324">
        <ele>286.2</ele>
        <time>2017-04-20T10:43:52Z</time>
      </trkpt>
      <trkpt lat="44.03043" lon="2.14313">
        <ele>285.7</ele>
        <time>2017-04-20T10:43:54Z</time>
      </trkpt>
      <trkpt lat="44.03037" lon="2.14301">
        <ele>285.4</ele>
        <time>2017-04-20T10:43:56Z</time>
      </trkpt>
      <trkpt lat="44.0303" lon="2.14291">
        <ele>285.3</ele>
        <time>2017-04-20T10:43:58Z</time>
      </trkpt>
      <trkpt lat="44.03022" lon="2.14283">
        <ele>285.2</ele>
        <time>2017-04-20T10:44:00Z</time>
      </trkpt>
      <trkpt lat="44.03012" lon="2.14277">
        <ele>284.7</ele>
        <time>2017-04-20T10:44:02Z</time>
      </trkpt>
      <trkpt lat="44.03003" lon="2.14272">
        <ele>284.7</ele>
        <time>2017-04-20T10:44:04Z</time>
      </trkpt>
      <trkpt lat="44.02994" lon="2.14267">
        <ele>284.5</ele>
        <time>2017-04-20T10:44:06Z</time>
      </trkpt>
      <trkpt lat="44.02987" lon="2.14263">
        <ele>284.4</ele>
        <time>2017-04-20T10:44:08Z</time>
      </trkpt>
      <trkpt lat="44.0298" lon="2.14258">
        <ele>284.4</ele>
        <time>2017-04-20T10:44:10Z</time>
      </trkpt>
      <trkpt lat="44.02972" lon="2.14254">
        <ele>283.7</ele>
        <time>2017-04-20T10:44:12Z</time>
      </trkpt>
      <trkpt lat="44.02964" lon="2.14251">
        <ele>283</ele>
        <time>2017-04-20T10:44:14Z</time>
      </trkpt>
      <trkpt lat="44.02957" lon="2.14247">
        <ele>282.2</ele>
        <time>2017-04-20T10:44:16Z</time>
      </trkpt>
      <trkpt lat="44.02949" lon="2.14244">
        <ele>281.8</ele>
        <time>2017-04-20T10:44:18Z</time>
      </trkpt>
      <trkpt lat="44.02939" lon="2.1424">
        <ele>282.6</ele>
        <time>2017-04-20T10:44:21Z</time>
      </trkpt>
      <trkpt lat="44.02929" lon="2.14236">
        <ele>283.6</ele>
        <time>2017-04-20T10:44:24Z</time>
      </trkpt>
      <trkpt lat="44.02922" lon="2.14233">
        <ele>284.4</ele>
        <time>2017-04-20T10:44:26Z</time>
      </trkpt>
      <trkpt lat="44.02915" lon="2.1423">
        <ele>285.2</ele>
        <time>2017-04-20T10:44:28Z</time>
      </trkpt>
      <trkpt lat="44.02907" lon="2.14228">
        <ele>285.8</ele>
        <time>2017-04-20T10:44:30Z</time>
      </trkpt>
      <trkpt lat="44.02897" lon="2.14228">
        <ele>287</ele>
        <time>2017-04-20T10:44:33Z</time>
      </trkpt>
      <trkpt lat="44.02887" lon="2.14228">
        <ele>287.6</ele>
        <time>2017-04-20T10:44:36Z</time>
      </trkpt>
      <trkpt lat="44.02877" lon="2.14227">
        <ele>288.8</ele>
        <time>2017-04-20T10:44:39Z</time>
      </trkpt>
      <trkpt lat="44.02868" lon="2.14228">
        <ele>290.1</ele>
        <time>2017-04-20T10:44:42Z</time>
      </trkpt>
      <trkpt lat="44.02859" lon="2.14228">
        <ele>290.7</ele>
        <time>2017-04-20T10:44:45Z</time>
      </trkpt>
      <trkpt lat="44.02851" lon="2.14228">
        <ele>291.4</ele>
        <time>2017-04-20T10:44:48Z</time>
      </trkpt>
      <trkpt lat="44.02843" lon="2.14229">
        <ele>292</ele>
        <time>2017-04-20T10:44:51Z</time>
      </trkpt>
      <trkpt lat="44.02834" lon="2.14229">
        <ele>292.4</ele>
        <time>2017-04-20T10:44:54Z</time>
      </trkpt>
      <trkpt lat="44.02824" lon="2.1423">
        <ele>293</ele>
        <time>2017-04-20T10:44:57Z</time>
      </trkpt>
      <trkpt lat="44.02814" lon="2.14232">
        <ele>293.6</ele>
        <time>2017-04-20T10:45:00Z</time>
      </trkpt>
      <trkpt lat="44.02805" lon="2.14233">
        <ele>294.1</ele>
        <time>2017-04-20T10:45:03Z</time>
      </trkpt>
      <trkpt lat="44.02794" lon="2.14234">
        <ele>294.3</ele>
        <time>2017-04-20T10:45:06Z</time>
      </trkpt>
      <trkpt lat="44.02784" lon="2.14235">
        <ele>294.1</ele>
        <time>2017-04-20T10:45:09Z</time>
      </trkpt>
      <trkpt lat="44.02777" lon="2.14236">
        <ele>294</ele>
        <time>2017-04-20T10:45:11Z</time>
      </trkpt>
      <trkpt lat="44.02769" lon="2.14236">
        <ele>294.1</ele>
        <time>2017-04-20T10:45:13Z</time>
      </trkpt>
      <trkpt lat="44.02759" lon="2.14237">
        <ele>293.5</ele>
        <time>2017-04-20T10:45:15Z</time>
      </trkpt>
      <trkpt lat="44.02747" lon="2.14237">
        <ele>292.5</ele>
        <time>2017-04-20T10:45:17Z</time>
      </trkpt>
      <trkpt lat="44.02732" lon="2.14238">
        <ele>290.9</ele>
        <time>2017-04-20T10:45:19Z</time>
      </trkpt>
      <trkpt lat="44.02725" lon="2.14239">
        <ele>290.1</ele>
        <time>2017-04-20T10:45:20Z</time>
      </trkpt>
      <trkpt lat="44.02717" lon="2.1424">
        <ele>289.4</ele>
        <time>2017-04-20T10:45:21Z</time>
      </trkpt>
      <trkpt lat="44.02708" lon="2.1424">
        <ele>288.6</ele>
        <time>2017-04-20T10:45:22Z</time>
      </trkpt>
      <trkpt lat="44.02698" lon="2.1424">
        <ele>287.8</ele>
        <time>2017-04-20T10:45:23Z</time>
      </trkpt>
      <trkpt lat="44.02689" lon="2.14238">
        <ele>287.1</ele>
        <time>2017-04-20T10:45:24Z</time>
      </trkpt>
      <trkpt lat="44.02679" lon="2.14237">
        <ele>286.5</ele>
        <time>2017-04-20T10:45:25Z</time>
      </trkpt>
      <trkpt lat="44.02669" lon="2.14234">
        <ele>285.9</ele>
        <time>2017-04-20T10:45:26Z</time>
      </trkpt>
      <trkpt lat="44.02659" lon="2.1423">
        <ele>285.3</ele>
        <time>2017-04-20T10:45:27Z</time>
      </trkpt>
      <trkpt lat="44.02649" lon="2.14226">
        <ele>284.4</ele>
        <time>2017-04-20T10:45:28Z</time>
      </trkpt>
      <trkpt lat="44.02639" lon="2.14219">
        <ele>283.6</ele>
        <time>2017-04-20T10:45:29Z</time>
      </trkpt>
      <trkpt lat="44.02629" lon="2.14211">
        <ele>282.7</ele>
        <time>2017-04-20T10:45:30Z</time>
      </trkpt>
      <trkpt lat="44.0262" lon="2.14203">
        <ele>281.8</ele>
        <time>2017-04-20T10:45:32Z</time>
      </trkpt>
      <trkpt lat="44.02611" lon="2.14194">
        <ele>281.1</ele>
        <time>2017-04-20T10:45:32Z</time>
      </trkpt>
      <trkpt lat="44.02603" lon="2.14183">
        <ele>279.7</ele>
        <time>2017-04-20T10:45:33Z</time>
      </trkpt>
      <trkpt lat="44.02582" lon="2.14145">
        <ele>277</ele>
        <time>2017-04-20T10:45:37Z</time>
      </trkpt>
      <trkpt lat="44.02576" lon="2.1413">
        <ele>276</ele>
        <time>2017-04-20T10:45:37Z</time>
      </trkpt>
      <trkpt lat="44.02571" lon="2.14116">
        <ele>275.1</ele>
        <time>2017-04-20T10:45:38Z</time>
      </trkpt>
      <trkpt lat="44.02565" lon="2.14103">
        <ele>274</ele>
        <time>2017-04-20T10:45:40Z</time>
      </trkpt>
      <trkpt lat="44.02559" lon="2.14089">
        <ele>274.1</ele>
        <time>2017-04-20T10:45:40Z</time>
      </trkpt>
      <trkpt lat="44.02555" lon="2.14076">
        <ele>273.6</ele>
        <time>2017-04-20T10:45:41Z</time>
      </trkpt>
      <trkpt lat="44.0255" lon="2.14064">
        <ele>273.4</ele>
        <time>2017-04-20T10:45:42Z</time>
      </trkpt>
      <trkpt lat="44.02546" lon="2.14052">
        <ele>273.4</ele>
        <time>2017-04-20T10:45:43Z</time>
      </trkpt>
      <trkpt lat="44.02542" lon="2.14041">
        <ele>273.5</ele>
        <time>2017-04-20T10:45:44Z</time>
      </trkpt>
      <trkpt lat="44.02537" lon="2.14031">
        <ele>273.7</ele>
        <time>2017-04-20T10:45:45Z</time>
      </trkpt>
      <trkpt lat="44.02533" lon="2.14021">
        <ele>274.1</ele>
        <time>2017-04-20T10:45:46Z</time>
      </trkpt>
      <trkpt lat="44.02529" lon="2.14011">
        <ele>274.8</ele>
        <time>2017-04-20T10:45:47Z</time>
      </trkpt>
      <trkpt lat="44.02526" lon="2.14001">
        <ele>274.8</ele>
        <time>2017-04-20T10:45:48Z</time>
      </trkpt>
      <trkpt lat="44.02522" lon="2.13993">
        <ele>274.7</ele>
        <time>2017-04-20T10:45:49Z</time>
      </trkpt>
      <trkpt lat="44.02515" lon="2.13976">
        <ele>275.3</ele>
        <time>2017-04-20T10:45:51Z</time>
      </trkpt>
      <trkpt lat="44.02509" lon="2.13961">
        <ele>275.6</ele>
        <time>2017-04-20T10:45:53Z</time>
      </trkpt>
      <trkpt lat="44.02503" lon="2.13948">
        <ele>275.6</ele>
        <time>2017-04-20T10:45:55Z</time>
      </trkpt>
      <trkpt lat="44.02497" lon="2.13935">
        <ele>275.9</ele>
        <time>2017-04-20T10:45:57Z</time>
      </trkpt>
      <trkpt lat="44.02492" lon="2.13922">
        <ele>276.1</ele>
        <time>2017-04-20T10:45:59Z</time>
      </trkpt>
      <trkpt lat="44.02486" lon="2.13909">
        <ele>276</ele>
        <time>2017-04-20T10:46:01Z</time>
      </trkpt>
      <trkpt lat="44.0248" lon="2.13896">
        <ele>276.2</ele>
        <time>2017-04-20T10:46:03Z</time>
      </trkpt>
      <trkpt lat="44.02473" lon="2.13885">
        <ele>276.2</ele>
        <time>2017-04-20T10:46:05Z</time>
      </trkpt>
      <trkpt lat="44.02466" lon="2.13874">
        <ele>276.2</ele>
        <time>2017-04-20T10:46:07Z</time>
      </trkpt>
      <trkpt lat="44.02458" lon="2.13863">
        <ele>276.4</ele>
        <time>2017-04-20T10:46:09Z</time>
      </trkpt>
      <trkpt lat="44.02451" lon="2.13854">
        <ele>276.5</ele>
        <time>2017-04-20T10:46:11Z</time>
      </trkpt>
      <trkpt lat="44.02443" lon="2.13844">
        <ele>276.6</ele>
        <time>2017-04-20T10:46:13Z</time>
      </trkpt>
      <trkpt lat="44.02435" lon="2.13836">
        <ele>276.6</ele>
        <time>2017-04-20T10:46:15Z</time>
      </trkpt>
      <trkpt lat="44.02426" lon="2.13828">
        <ele>276.6</ele>
        <time>2017-04-20T10:46:17Z</time>
      </trkpt>
      <trkpt lat="44.02417" lon="2.1382">
        <ele>276.7</ele>
        <time>2017-04-20T10:46:19Z</time>
      </trkpt>
      <trkpt lat="44.02408" lon="2.13814">
        <ele>276.6</ele>
        <time>2017-04-20T10:46:21Z</time>
      </trkpt>
      <trkpt lat="44.02399" lon="2.13807">
        <ele>276.7</ele>
        <time>2017-04-20T10:46:23Z</time>
      </trkpt>
      <trkpt lat="44.0239" lon="2.138">
        <ele>276.6</ele>
        <time>2017-04-20T10:46:25Z</time>
      </trkpt>
      <trkpt lat="44.0238" lon="2.13793">
        <ele>276.6</ele>
        <time>2017-04-20T10:46:27Z</time>
      </trkpt>
      <trkpt lat="44.02371" lon="2.13787">
        <ele>276.7</ele>
        <time>2017-04-20T10:46:29Z</time>
      </trkpt>
      <trkpt lat="44.02362" lon="2.1378">
        <ele>276.7</ele>
        <time>2017-04-20T10:46:31Z</time>
      </trkpt>
      <trkpt lat="44.02353" lon="2.13774">
        <ele>276.7</ele>
        <time>2017-04-20T10:46:33Z</time>
      </trkpt>
      <trkpt lat="44.02344" lon="2.13768">
        <ele>276.7</ele>
        <time>2017-04-20T10:46:35Z</time>
      </trkpt>
      <trkpt lat="44.02336" lon="2.13761">
        <ele>276.7</ele>
        <time>2017-04-20T10:46:37Z</time>
      </trkpt>
      <trkpt lat="44.02327" lon="2.13754">
        <ele>276.7</ele>
        <time>2017-04-20T10:46:39Z</time>
      </trkpt>
      <trkpt lat="44.02317" lon="2.13748">
        <ele>276.8</ele>
        <time>2017-04-20T10:46:41Z</time>
      </trkpt>
      <trkpt lat="44.02309" lon="2.13742">
        <ele>277</ele>
        <time>2017-04-20T10:46:43Z</time>
      </trkpt>
      <trkpt lat="44.023" lon="2.13735">
        <ele>277.1</ele>
        <time>2017-04-20T10:46:45Z</time>
      </trkpt>
      <trkpt lat="44.02291" lon="2.13729">
        <ele>277.1</ele>
        <time>2017-04-20T10:46:47Z</time>
      </trkpt>
      <trkpt lat="44.02282" lon="2.13722">
        <ele>277.2</ele>
        <time>2017-04-20T10:46:49Z</time>
      </trkpt>
      <trkpt lat="44.02273" lon="2.13716">
        <ele>277.3</ele>
        <time>2017-04-20T10:46:51Z</time>
      </trkpt>
      <trkpt lat="44.02265" lon="2.13709">
        <ele>277.5</ele>
        <time>2017-04-20T10:46:53Z</time>
      </trkpt>
      <trkpt lat="44.02256" lon="2.13704">
        <ele>277.9</ele>
        <time>2017-04-20T10:46:55Z</time>
      </trkpt>
      <trkpt lat="44.02248" lon="2.13698">
        <ele>278.3</ele>
        <time>2017-04-20T10:46:57Z</time>
      </trkpt>
      <trkpt lat="44.02241" lon="2.13692">
        <ele>278.8</ele>
        <time>2017-04-20T10:46:59Z</time>
      </trkpt>
      <trkpt lat="44.02234" lon="2.13688">
        <ele>279.2</ele>
        <time>2017-04-20T10:47:01Z</time>
      </trkpt>
      <trkpt lat="44.02227" lon="2.13682">
        <ele>279.9</ele>
        <time>2017-04-20T10:47:03Z</time>
      </trkpt>
      <trkpt lat="44.0222" lon="2.13678">
        <ele>280.4</ele>
        <time>2017-04-20T10:47:05Z</time>
      </trkpt>
      <trkpt lat="44.02214" lon="2.13673">
        <ele>281</ele>
        <time>2017-04-20T10:47:07Z</time>
      </trkpt>
      <trkpt lat="44.02205" lon="2.13666">
        <ele>281.5</ele>
        <time>2017-04-20T10:47:10Z</time>
      </trkpt>
      <trkpt lat="44.02196" lon="2.13658">
        <ele>282.1</ele>
        <time>2017-04-20T10:47:13Z</time>
      </trkpt>
      <trkpt lat="44.02187" lon="2.13652">
        <ele>282.8</ele>
        <time>2017-04-20T10:47:16Z</time>
      </trkpt>
      <trkpt lat="44.02178" lon="2.13646">
        <ele>283.4</ele>
        <time>2017-04-20T10:47:19Z</time>
      </trkpt>
      <trkpt lat="44.0217" lon="2.13639">
        <ele>284</ele>
        <time>2017-04-20T10:47:22Z</time>
      </trkpt>
      <trkpt lat="44.02161" lon="2.13634">
        <ele>284.5</ele>
        <time>2017-04-20T10:47:25Z</time>
      </trkpt>
      <trkpt lat="44.02152" lon="2.13627">
        <ele>285</ele>
        <time>2017-04-20T10:47:28Z</time>
      </trkpt>
      <trkpt lat="44.02144" lon="2.13622">
        <ele>284.5</ele>
        <time>2017-04-20T10:47:31Z</time>
      </trkpt>
      <trkpt lat="44.02137" lon="2.13618">
        <ele>284.3</ele>
        <time>2017-04-20T10:47:33Z</time>
      </trkpt>
      <trkpt lat="44.02128" lon="2.1361">
        <ele>284.4</ele>
        <time>2017-04-20T10:47:36Z</time>
      </trkpt>
      <trkpt lat="44.02119" lon="2.13604">
        <ele>284.9</ele>
        <time>2017-04-20T10:47:39Z</time>
      </trkpt>
      <trkpt lat="44.0211" lon="2.13599">
        <ele>285.4</ele>
        <time>2017-04-20T10:47:42Z</time>
      </trkpt>
      <trkpt lat="44.021" lon="2.13592">
        <ele>285.9</ele>
        <time>2017-04-20T10:47:45Z</time>
      </trkpt>
      <trkpt lat="44.02093" lon="2.13588">
        <ele>286</ele>
        <time>2017-04-20T10:47:47Z</time>
      </trkpt>
      <trkpt lat="44.02086" lon="2.13583">
        <ele>286.4</ele>
        <time>2017-04-20T10:47:49Z</time>
      </trkpt>
      <trkpt lat="44.02079" lon="2.1358">
        <ele>286.4</ele>
        <time>2017-04-20T10:47:51Z</time>
      </trkpt>
      <trkpt lat="44.02071" lon="2.13576">
        <ele>286.6</ele>
        <time>2017-04-20T10:47:53Z</time>
      </trkpt>
      <trkpt lat="44.02063" lon="2.13573">
        <ele>286.7</ele>
        <time>2017-04-20T10:47:55Z</time>
      </trkpt>
      <trkpt lat="44.02055" lon="2.13571">
        <ele>286.8</ele>
        <time>2017-04-20T10:47:57Z</time>
      </trkpt>
      <trkpt lat="44.02046" lon="2.13569">
        <ele>286.7</ele>
        <time>2017-04-20T10:47:59Z</time>
      </trkpt>
      <trkpt lat="44.02037" lon="2.13568">
        <ele>286.9</ele>
        <time>2017-04-20T10:48:01Z</time>
      </trkpt>
      <trkpt lat="44.02027" lon="2.13567">
        <ele>287.1</ele>
        <time>2017-04-20T10:48:03Z</time>
      </trkpt>
      <trkpt lat="44.02018" lon="2.13567">
        <ele>287.1</ele>
        <time>2017-04-20T10:48:05Z</time>
      </trkpt>
      <trkpt lat="44.02008" lon="2.13567">
        <ele>287.2</ele>
        <time>2017-04-20T10:48:07Z</time>
      </trkpt>
      <trkpt lat="44.01999" lon="2.13568">
        <ele>287.3</ele>
        <time>2017-04-20T10:48:09Z</time>
      </trkpt>
      <trkpt lat="44.01989" lon="2.13571">
        <ele>287.3</ele>
        <time>2017-04-20T10:48:11Z</time>
      </trkpt>
      <trkpt lat="44.01979" lon="2.13573">
        <ele>287.2</ele>
        <time>2017-04-20T10:48:13Z</time>
      </trkpt>
      <trkpt lat="44.0197" lon="2.13577">
        <ele>287.1</ele>
        <time>2017-04-20T10:48:15Z</time>
      </trkpt>
      <trkpt lat="44.0196" lon="2.13582">
        <ele>286.9</ele>
        <time>2017-04-20T10:48:17Z</time>
      </trkpt>
      <trkpt lat="44.01951" lon="2.13586">
        <ele>286.6</ele>
        <time>2017-04-20T10:48:19Z</time>
      </trkpt>
      <trkpt lat="44.01942" lon="2.13591">
        <ele>286.8</ele>
        <time>2017-04-20T10:48:21Z</time>
      </trkpt>
      <trkpt lat="44.01932" lon="2.13597">
        <ele>286.9</ele>
        <time>2017-04-20T10:48:23Z</time>
      </trkpt>
      <trkpt lat="44.01923" lon="2.13602">
        <ele>286.5</ele>
        <time>2017-04-20T10:48:25Z</time>
      </trkpt>
      <trkpt lat="44.01914" lon="2.13609">
        <ele>286.9</ele>
        <time>2017-04-20T10:48:27Z</time>
      </trkpt>
      <trkpt lat="44.01905" lon="2.13615">
        <ele>287.1</ele>
        <time>2017-04-20T10:48:29Z</time>
      </trkpt>
      <trkpt lat="44.01896" lon="2.13621">
        <ele>287.2</ele>
        <time>2017-04-20T10:48:31Z</time>
      </trkpt>
      <trkpt lat="44.01887" lon="2.13627">
        <ele>287.5</ele>
        <time>2017-04-20T10:48:33Z</time>
      </trkpt>
      <trkpt lat="44.01878" lon="2.13634">
        <ele>288</ele>
        <time>2017-04-20T10:48:35Z</time>
      </trkpt>
      <trkpt lat="44.01869" lon="2.13641">
        <ele>289.2</ele>
        <time>2017-04-20T10:48:37Z</time>
      </trkpt>
      <trkpt lat="44.0186" lon="2.13646">
        <ele>289.8</ele>
        <time>2017-04-20T10:48:39Z</time>
      </trkpt>
      <trkpt lat="44.01851" lon="2.13653">
        <ele>290.4</ele>
        <time>2017-04-20T10:48:41Z</time>
      </trkpt>
      <trkpt lat="44.01843" lon="2.13658">
        <ele>290.9</ele>
        <time>2017-04-20T10:48:43Z</time>
      </trkpt>
      <trkpt lat="44.01834" lon="2.13665">
        <ele>291.1</ele>
        <time>2017-04-20T10:48:45Z</time>
      </trkpt>
      <trkpt lat="44.01825" lon="2.13672">
        <ele>291.5</ele>
        <time>2017-04-20T10:48:47Z</time>
      </trkpt>
      <trkpt lat="44.01816" lon="2.13678">
        <ele>291.9</ele>
        <time>2017-04-20T10:48:49Z</time>
      </trkpt>
      <trkpt lat="44.01808" lon="2.13685">
        <ele>291.9</ele>
        <time>2017-04-20T10:48:51Z</time>
      </trkpt>
      <trkpt lat="44.018" lon="2.13693">
        <ele>292.2</ele>
        <time>2017-04-20T10:48:53Z</time>
      </trkpt>
      <trkpt lat="44.01793" lon="2.13701">
        <ele>292.2</ele>
        <time>2017-04-20T10:48:55Z</time>
      </trkpt>
      <trkpt lat="44.01786" lon="2.1371">
        <ele>292.2</ele>
        <time>2017-04-20T10:48:57Z</time>
      </trkpt>
      <trkpt lat="44.01779" lon="2.13719">
        <ele>292.3</ele>
        <time>2017-04-20T10:48:59Z</time>
      </trkpt>
      <trkpt lat="44.01773" lon="2.1373">
        <ele>292.4</ele>
        <time>2017-04-20T10:49:01Z</time>
      </trkpt>
      <trkpt lat="44.01767" lon="2.13739">
        <ele>292.6</ele>
        <time>2017-04-20T10:49:03Z</time>
      </trkpt>
      <trkpt lat="44.01762" lon="2.13748">
        <ele>292.4</ele>
        <time>2017-04-20T10:49:05Z</time>
      </trkpt>
      <trkpt lat="44.01755" lon="2.13755">
        <ele>292.3</ele>
        <time>2017-04-20T10:49:07Z</time>
      </trkpt>
      <trkpt lat="44.01747" lon="2.13761">
        <ele>292.5</ele>
        <time>2017-04-20T10:49:09Z</time>
      </trkpt>
      <trkpt lat="44.01739" lon="2.13765">
        <ele>292.4</ele>
        <time>2017-04-20T10:49:11Z</time>
      </trkpt>
      <trkpt lat="44.01729" lon="2.13768">
        <ele>292.3</ele>
        <time>2017-04-20T10:49:13Z</time>
      </trkpt>
      <trkpt lat="44.0172" lon="2.13771">
        <ele>292.1</ele>
        <time>2017-04-20T10:49:15Z</time>
      </trkpt>
      <trkpt lat="44.01711" lon="2.13775">
        <ele>292.4</ele>
        <time>2017-04-20T10:49:17Z</time>
      </trkpt>
      <trkpt lat="44.01702" lon="2.13779">
        <ele>292.6</ele>
        <time>2017-04-20T10:49:19Z</time>
      </trkpt>
      <trkpt lat="44.01693" lon="2.13784">
        <ele>293.1</ele>
        <time>2017-04-20T10:49:21Z</time>
      </trkpt>
      <trkpt lat="44.01685" lon="2.13789">
        <ele>293.3</ele>
        <time>2017-04-20T10:49:23Z</time>
      </trkpt>
      <trkpt lat="44.01677" lon="2.13797">
        <ele>293.5</ele>
        <time>2017-04-20T10:49:25Z</time>
      </trkpt>
      <trkpt lat="44.01672" lon="2.13806">
        <ele>293.7</ele>
        <time>2017-04-20T10:49:27Z</time>
      </trkpt>
      <trkpt lat="44.01665" lon="2.13811">
        <ele>293.9</ele>
        <time>2017-04-20T10:49:29Z</time>
      </trkpt>
      <trkpt lat="44.01657" lon="2.13808">
        <ele>294.3</ele>
        <time>2017-04-20T10:49:31Z</time>
      </trkpt>
      <trkpt lat="44.01648" lon="2.13803">
        <ele>294.5</ele>
        <time>2017-04-20T10:49:33Z</time>
      </trkpt>
      <trkpt lat="44.01641" lon="2.13795">
        <ele>295</ele>
        <time>2017-04-20T10:49:35Z</time>
      </trkpt>
      <trkpt lat="44.01633" lon="2.13789">
        <ele>295.3</ele>
        <time>2017-04-20T10:49:37Z</time>
      </trkpt>
      <trkpt lat="44.01626" lon="2.13784">
        <ele>295.6</ele>
        <time>2017-04-20T10:49:39Z</time>
      </trkpt>
      <trkpt lat="44.01619" lon="2.1378">
        <ele>296</ele>
        <time>2017-04-20T10:49:41Z</time>
      </trkpt>
      <trkpt lat="44.01612" lon="2.13777">
        <ele>296.3</ele>
        <time>2017-04-20T10:49:43Z</time>
      </trkpt>
      <trkpt lat="44.01604" lon="2.13773">
        <ele>296.9</ele>
        <time>2017-04-20T10:49:45Z</time>
      </trkpt>
      <trkpt lat="44.01596" lon="2.13771">
        <ele>297.7</ele>
        <time>2017-04-20T10:49:47Z</time>
      </trkpt>
      <trkpt lat="44.01588" lon="2.1377">
        <ele>298.6</ele>
        <time>2017-04-20T10:49:49Z</time>
      </trkpt>
      <trkpt lat="44.0158" lon="2.13768">
        <ele>299.4</ele>
        <time>2017-04-20T10:49:51Z</time>
      </trkpt>
      <trkpt lat="44.01573" lon="2.13765">
        <ele>300.1</ele>
        <time>2017-04-20T10:49:53Z</time>
      </trkpt>
      <trkpt lat="44.01565" lon="2.13761">
        <ele>301.1</ele>
        <time>2017-04-20T10:49:55Z</time>
      </trkpt>
      <trkpt lat="44.01557" lon="2.13759">
        <ele>302.1</ele>
        <time>2017-04-20T10:49:57Z</time>
      </trkpt>
      <trkpt lat="44.0155" lon="2.13756">
        <ele>303.1</ele>
        <time>2017-04-20T10:49:59Z</time>
      </trkpt>
      <trkpt lat="44.01543" lon="2.13753">
        <ele>303.8</ele>
        <time>2017-04-20T10:50:01Z</time>
      </trkpt>
      <trkpt lat="44.01535" lon="2.13751">
        <ele>304.7</ele>
        <time>2017-04-20T10:50:03Z</time>
      </trkpt>
      <trkpt lat="44.01527" lon="2.13749">
        <ele>305.8</ele>
        <time>2017-04-20T10:50:05Z</time>
      </trkpt>
      <trkpt lat="44.01519" lon="2.13747">
        <ele>306.5</ele>
        <time>2017-04-20T10:50:07Z</time>
      </trkpt>
      <trkpt lat="44.01512" lon="2.13746">
        <ele>307.3</ele>
        <time>2017-04-20T10:50:09Z</time>
      </trkpt>
      <trkpt lat="44.01504" lon="2.13746">
        <ele>308.4</ele>
        <time>2017-04-20T10:50:11Z</time>
      </trkpt>
      <trkpt lat="44.01496" lon="2.13749">
        <ele>309.8</ele>
        <time>2017-04-20T10:50:13Z</time>
      </trkpt>
      <trkpt lat="44.01489" lon="2.13751">
        <ele>310.8</ele>
        <time>2017-04-20T10:50:15Z</time>
      </trkpt>
      <trkpt lat="44.0148" lon="2.13753">
        <ele>311.3</ele>
        <time>2017-04-20T10:50:17Z</time>
      </trkpt>
      <trkpt lat="44.01472" lon="2.13757">
        <ele>311.7</ele>
        <time>2017-04-20T10:50:19Z</time>
      </trkpt>
      <trkpt lat="44.01464" lon="2.13761">
        <ele>312</ele>
        <time>2017-04-20T10:50:21Z</time>
      </trkpt>
      <trkpt lat="44.01456" lon="2.13765">
        <ele>312.4</ele>
        <time>2017-04-20T10:50:23Z</time>
      </trkpt>
      <trkpt lat="44.01448" lon="2.13768">
        <ele>312.7</ele>
        <time>2017-04-20T10:50:25Z</time>
      </trkpt>
      <trkpt lat="44.0144" lon="2.13771">
        <ele>313.1</ele>
        <time>2017-04-20T10:50:27Z</time>
      </trkpt>
      <trkpt lat="44.01432" lon="2.13776">
        <ele>314.1</ele>
        <time>2017-04-20T10:50:29Z</time>
      </trkpt>
      <trkpt lat="44.01425" lon="2.1378">
        <ele>314.6</ele>
        <time>2017-04-20T10:50:31Z</time>
      </trkpt>
      <trkpt lat="44.01417" lon="2.13784">
        <ele>315.6</ele>
        <time>2017-04-20T10:50:33Z</time>
      </trkpt>
      <trkpt lat="44.0141" lon="2.13788">
        <ele>316.2</ele>
        <time>2017-04-20T10:50:35Z</time>
      </trkpt>
      <trkpt lat="44.01402" lon="2.13793">
        <ele>316.7</ele>
        <time>2017-04-20T10:50:37Z</time>
      </trkpt>
      <trkpt lat="44.01394" lon="2.13798">
        <ele>317.5</ele>
        <time>2017-04-20T10:50:39Z</time>
      </trkpt>
      <trkpt lat="44.01387" lon="2.13803">
        <ele>317.8</ele>
        <time>2017-04-20T10:50:41Z</time>
      </trkpt>
      <trkpt lat="44.01379" lon="2.13806">
        <ele>318.3</ele>
        <time>2017-04-20T10:50:43Z</time>
      </trkpt>
      <trkpt lat="44.01371" lon="2.13809">
        <ele>319.2</ele>
        <time>2017-04-20T10:50:45Z</time>
      </trkpt>
      <trkpt lat="44.01363" lon="2.13812">
        <ele>320.2</ele>
        <time>2017-04-20T10:50:47Z</time>
      </trkpt>
      <trkpt lat="44.01354" lon="2.13813">
        <ele>321.1</ele>
        <time>2017-04-20T10:50:49Z</time>
      </trkpt>
      <trkpt lat="44.01346" lon="2.13814">
        <ele>322.9</ele>
        <time>2017-04-20T10:50:51Z</time>
      </trkpt>
      <trkpt lat="44.01338" lon="2.13815">
        <ele>323.9</ele>
        <time>2017-04-20T10:50:53Z</time>
      </trkpt>
      <trkpt lat="44.0133" lon="2.13815">
        <ele>324.8</ele>
        <time>2017-04-20T10:50:55Z</time>
      </trkpt>
      <trkpt lat="44.01322" lon="2.13815">
        <ele>326</ele>
        <time>2017-04-20T10:50:57Z</time>
      </trkpt>
      <trkpt lat="44.01314" lon="2.13816">
        <ele>327</ele>
        <time>2017-04-20T10:50:59Z</time>
      </trkpt>
      <trkpt lat="44.01305" lon="2.13817">
        <ele>327.9</ele>
        <time>2017-04-20T10:51:01Z</time>
      </trkpt>
      <trkpt lat="44.01296" lon="2.13819">
        <ele>328.8</ele>
        <time>2017-04-20T10:51:03Z</time>
      </trkpt>
      <trkpt lat="44.01288" lon="2.1382">
        <ele>328.8</ele>
        <time>2017-04-20T10:51:05Z</time>
      </trkpt>
      <trkpt lat="44.0128" lon="2.1382">
        <ele>329.1</ele>
        <time>2017-04-20T10:51:07Z</time>
      </trkpt>
      <trkpt lat="44.01272" lon="2.1382">
        <ele>329.1</ele>
        <time>2017-04-20T10:51:09Z</time>
      </trkpt>
      <trkpt lat="44.01263" lon="2.13822">
        <ele>329.5</ele>
        <time>2017-04-20T10:51:11Z</time>
      </trkpt>
      <trkpt lat="44.01255" lon="2.13823">
        <ele>329.5</ele>
        <time>2017-04-20T10:51:13Z</time>
      </trkpt>
      <trkpt lat="44.01247" lon="2.13824">
        <ele>329.4</ele>
        <time>2017-04-20T10:51:15Z</time>
      </trkpt>
      <trkpt lat="44.01239" lon="2.13825">
        <ele>329.9</ele>
        <time>2017-04-20T10:51:17Z</time>
      </trkpt>
      <trkpt lat="44.01231" lon="2.13827">
        <ele>330.1</ele>
        <time>2017-04-20T10:51:19Z</time>
      </trkpt>
      <trkpt lat="44.01224" lon="2.13827">
        <ele>330</ele>
        <time>2017-04-20T10:51:21Z</time>
      </trkpt>
      <trkpt lat="44.01215" lon="2.13822">
        <ele>330.2</ele>
        <time>2017-04-20T10:51:24Z</time>
      </trkpt>
      <trkpt lat="44.01206" lon="2.1382">
        <ele>331</ele>
        <time>2017-04-20T10:51:27Z</time>
      </trkpt>
      <trkpt lat="44.01199" lon="2.13827">
        <ele>330.5</ele>
        <time>2017-04-20T10:51:30Z</time>
      </trkpt>
      <trkpt lat="44.01192" lon="2.13838">
        <ele>329</ele>
        <time>2017-04-20T10:51:33Z</time>
      </trkpt>
      <trkpt lat="44.01184" lon="2.13844">
        <ele>328.3</ele>
        <time>2017-04-20T10:51:36Z</time>
      </trkpt>
      <trkpt lat="44.01177" lon="2.13841">
        <ele>328.3</ele>
        <time>2017-04-20T10:51:39Z</time>
      </trkpt>
      <trkpt lat="44.01166" lon="2.13839">
        <ele>328.7</ele>
        <time>2017-04-20T10:51:42Z</time>
      </trkpt>
      <trkpt lat="44.01157" lon="2.13839">
        <ele>327.8</ele>
        <time>2017-04-20T10:51:44Z</time>
      </trkpt>
      <trkpt lat="44.01147" lon="2.13838">
        <ele>327.1</ele>
        <time>2017-04-20T10:51:46Z</time>
      </trkpt>
      <trkpt lat="44.01136" lon="2.13836">
        <ele>326.5</ele>
        <time>2017-04-20T10:51:48Z</time>
      </trkpt>
      <trkpt lat="44.01124" lon="2.13836">
        <ele>325.6</ele>
        <time>2017-04-20T10:51:50Z</time>
      </trkpt>
      <trkpt lat="44.01111" lon="2.13835">
        <ele>325</ele>
        <time>2017-04-20T10:51:52Z</time>
      </trkpt>
      <trkpt lat="44.01099" lon="2.13831">
        <ele>324.1</ele>
        <time>2017-04-20T10:51:54Z</time>
      </trkpt>
      <trkpt lat="44.01085" lon="2.13826">
        <ele>323.4</ele>
        <time>2017-04-20T10:51:56Z</time>
      </trkpt>
      <trkpt lat="44.01078" lon="2.13824">
        <ele>322.8</ele>
        <time>2017-04-20T10:51:57Z</time>
      </trkpt>
      <trkpt lat="44.01071" lon="2.13822">
        <ele>323</ele>
        <time>2017-04-20T10:51:58Z</time>
      </trkpt>
      <trkpt lat="44.01056" lon="2.13818">
        <ele>322.7</ele>
        <time>2017-04-20T10:52:00Z</time>
      </trkpt>
      <trkpt lat="44.01048" lon="2.13817">
        <ele>322.6</ele>
        <time>2017-04-20T10:52:01Z</time>
      </trkpt>
      <trkpt lat="44.0104" lon="2.13815">
        <ele>322.3</ele>
        <time>2017-04-20T10:52:02Z</time>
      </trkpt>
      <trkpt lat="44.01032" lon="2.13814">
        <ele>322</ele>
        <time>2017-04-20T10:52:03Z</time>
      </trkpt>
      <trkpt lat="44.01024" lon="2.13812">
        <ele>321.3</ele>
        <time>2017-04-20T10:52:04Z</time>
      </trkpt>
      <trkpt lat="44.01015" lon="2.13811">
        <ele>321.1</ele>
        <time>2017-04-20T10:52:05Z</time>
      </trkpt>
      <trkpt lat="44.01007" lon="2.13808">
        <ele>320.8</ele>
        <time>2017-04-20T10:52:06Z</time>
      </trkpt>
      <trkpt lat="44.00999" lon="2.13807">
        <ele>320.5</ele>
        <time>2017-04-20T10:52:07Z</time>
      </trkpt>
      <trkpt lat="44.0099" lon="2.13806">
        <ele>320.3</ele>
        <time>2017-04-20T10:52:08Z</time>
      </trkpt>
      <trkpt lat="44.00981" lon="2.13804">
        <ele>319.9</ele>
        <time>2017-04-20T10:52:09Z</time>
      </trkpt>
      <trkpt lat="44.00973" lon="2.13803">
        <ele>319.7</ele>
        <time>2017-04-20T10:52:10Z</time>
      </trkpt>
      <trkpt lat="44.00965" lon="2.13801">
        <ele>319.5</ele>
        <time>2017-04-20T10:52:11Z</time>
      </trkpt>
      <trkpt lat="44.00956" lon="2.138">
        <ele>319.2</ele>
        <time>2017-04-20T10:52:12Z</time>
      </trkpt>
      <trkpt lat="44.00947" lon="2.13798">
        <ele>318.9</ele>
        <time>2017-04-20T10:52:13Z</time>
      </trkpt>
      <trkpt lat="44.00938" lon="2.13797">
        <ele>318.6</ele>
        <time>2017-04-20T10:52:14Z</time>
      </trkpt>
      <trkpt lat="44.00929" lon="2.13796">
        <ele>318.2</ele>
        <time>2017-04-20T10:52:15Z</time>
      </trkpt>
      <trkpt lat="44.00921" lon="2.13794">
        <ele>317.7</ele>
        <time>2017-04-20T10:52:16Z</time>
      </trkpt>
      <trkpt lat="44.00912" lon="2.13792">
        <ele>317.3</ele>
        <time>2017-04-20T10:52:17Z</time>
      </trkpt>
      <trkpt lat="44.00904" lon="2.1379">
        <ele>316.9</ele>
        <time>2017-04-20T10:52:18Z</time>
      </trkpt>
      <trkpt lat="44.00895" lon="2.13789">
        <ele>316.5</ele>
        <time>2017-04-20T10:52:19Z</time>
      </trkpt>
      <trkpt lat="44.00886" lon="2.13787">
        <ele>316.1</ele>
        <time>2017-04-20T10:52:20Z</time>
      </trkpt>
      <trkpt lat="44.00878" lon="2.13786">
        <ele>315.7</ele>
        <time>2017-04-20T10:52:21Z</time>
      </trkpt>
      <trkpt lat="44.00869" lon="2.13784">
        <ele>315.2</ele>
        <time>2017-04-20T10:52:22Z</time>
      </trkpt>
      <trkpt lat="44.0086" lon="2.13782">
        <ele>314.7</ele>
        <time>2017-04-20T10:52:23Z</time>
      </trkpt>
      <trkpt lat="44.00851" lon="2.1378">
        <ele>314.3</ele>
        <time>2017-04-20T10:52:24Z</time>
      </trkpt>
      <trkpt lat="44.00843" lon="2.13779">
        <ele>313.9</ele>
        <time>2017-04-20T10:52:25Z</time>
      </trkpt>
      <trkpt lat="44.00834" lon="2.13777">
        <ele>313.4</ele>
        <time>2017-04-20T10:52:26Z</time>
      </trkpt>
      <trkpt lat="44.00825" lon="2.13776">
        <ele>313</ele>
        <time>2017-04-20T10:52:27Z</time>
      </trkpt>
      <trkpt lat="44.00817" lon="2.13774">
        <ele>312.7</ele>
        <time>2017-04-20T10:52:28Z</time>
      </trkpt>
      <trkpt lat="44.00808" lon="2.13773">
        <ele>312.3</ele>
        <time>2017-04-20T10:52:29Z</time>
      </trkpt>
      <trkpt lat="44.00799" lon="2.13771">
        <ele>311.8</ele>
        <time>2017-04-20T10:52:30Z</time>
      </trkpt>
      <trkpt lat="44.00791" lon="2.1377">
        <ele>311.3</ele>
        <time>2017-04-20T10:52:31Z</time>
      </trkpt>
      <trkpt lat="44.00782" lon="2.13768">
        <ele>310.9</ele>
        <time>2017-04-20T10:52:32Z</time>
      </trkpt>
      <trkpt lat="44.00774" lon="2.13766">
        <ele>310.4</ele>
        <time>2017-04-20T10:52:33Z</time>
      </trkpt>
      <trkpt lat="44.00765" lon="2.13764">
        <ele>310</ele>
        <time>2017-04-20T10:52:34Z</time>
      </trkpt>
      <trkpt lat="44.00757" lon="2.13763">
        <ele>309.6</ele>
        <time>2017-04-20T10:52:35Z</time>
      </trkpt>
      <trkpt lat="44.00748" lon="2.13762">
        <ele>309.2</ele>
        <time>2017-04-20T10:52:36Z</time>
      </trkpt>
      <trkpt lat="44.00739" lon="2.13761">
        <ele>308.8</ele>
        <time>2017-04-20T10:52:37Z</time>
      </trkpt>
      <trkpt lat="44.00731" lon="2.13759">
        <ele>308.4</ele>
        <time>2017-04-20T10:52:38Z</time>
      </trkpt>
      <trkpt lat="44.00722" lon="2.13758">
        <ele>308</ele>
        <time>2017-04-20T10:52:39Z</time>
      </trkpt>
      <trkpt lat="44.00713" lon="2.13757">
        <ele>307.5</ele>
        <time>2017-04-20T10:52:40Z</time>
      </trkpt>
      <trkpt lat="44.00704" lon="2.13756">
        <ele>307.1</ele>
        <time>2017-04-20T10:52:41Z</time>
      </trkpt>
      <trkpt lat="44.00696" lon="2.13755">
        <ele>306.8</ele>
        <time>2017-04-20T10:52:42Z</time>
      </trkpt>
      <trkpt lat="44.00687" lon="2.13754">
        <ele>306.6</ele>
        <time>2017-04-20T10:52:43Z</time>
      </trkpt>
      <trkpt lat="44.00679" lon="2.13753">
        <ele>306.3</ele>
        <time>2017-04-20T10:52:44Z</time>
      </trkpt>
      <trkpt lat="44.0067" lon="2.13752">
        <ele>306.1</ele>
        <time>2017-04-20T10:52:45Z</time>
      </trkpt>
      <trkpt lat="44.00662" lon="2.13751">
        <ele>305.9</ele>
        <time>2017-04-20T10:52:46Z</time>
      </trkpt>
      <trkpt lat="44.00655" lon="2.1375">
        <ele>305.7</ele>
        <time>2017-04-20T10:52:47Z</time>
      </trkpt>
      <trkpt lat="44.00647" lon="2.13749">
        <ele>305.6</ele>
        <time>2017-04-20T10:52:48Z</time>
      </trkpt>
      <trkpt lat="44.00634" lon="2.13748">
        <ele>305.3</ele>
        <time>2017-04-20T10:52:50Z</time>
      </trkpt>
      <trkpt lat="44.00621" lon="2.13747">
        <ele>305.2</ele>
        <time>2017-04-20T10:52:52Z</time>
      </trkpt>
      <trkpt lat="44.00607" lon="2.13746">
        <ele>305.2</ele>
        <time>2017-04-20T10:52:54Z</time>
      </trkpt>
      <trkpt lat="44.00595" lon="2.13746">
        <ele>305.1</ele>
        <time>2017-04-20T10:52:56Z</time>
      </trkpt>
      <trkpt lat="44.00582" lon="2.13744">
        <ele>304.9</ele>
        <time>2017-04-20T10:52:58Z</time>
      </trkpt>
      <trkpt lat="44.00569" lon="2.13744">
        <ele>304.9</ele>
        <time>2017-04-20T10:53:00Z</time>
      </trkpt>
      <trkpt lat="44.00556" lon="2.13743">
        <ele>304.7</ele>
        <time>2017-04-20T10:53:02Z</time>
      </trkpt>
      <trkpt lat="44.00543" lon="2.13744">
        <ele>304.7</ele>
        <time>2017-04-20T10:53:04Z</time>
      </trkpt>
      <trkpt lat="44.0053" lon="2.13744">
        <ele>304.6</ele>
        <time>2017-04-20T10:53:06Z</time>
      </trkpt>
      <trkpt lat="44.00518" lon="2.13744">
        <ele>304.6</ele>
        <time>2017-04-20T10:53:08Z</time>
      </trkpt>
      <trkpt lat="44.00506" lon="2.13744">
        <ele>304.6</ele>
        <time>2017-04-20T10:53:10Z</time>
      </trkpt>
      <trkpt lat="44.00494" lon="2.13746">
        <ele>304.8</ele>
        <time>2017-04-20T10:53:12Z</time>
      </trkpt>
      <trkpt lat="44.00483" lon="2.13746">
        <ele>305.2</ele>
        <time>2017-04-20T10:53:14Z</time>
      </trkpt>
      <trkpt lat="44.00473" lon="2.13746">
        <ele>305.5</ele>
        <time>2017-04-20T10:53:16Z</time>
      </trkpt>
      <trkpt lat="44.00463" lon="2.13746">
        <ele>306</ele>
        <time>2017-04-20T10:53:18Z</time>
      </trkpt>
      <trkpt lat="44.00454" lon="2.13744">
        <ele>306.4</ele>
        <time>2017-04-20T10:53:20Z</time>
      </trkpt>
      <trkpt lat="44.00444" lon="2.13744">
        <ele>307.6</ele>
        <time>2017-04-20T10:53:22Z</time>
      </trkpt>
      <trkpt lat="44.00435" lon="2.13745">
        <ele>308.5</ele>
        <time>2017-04-20T10:53:24Z</time>
      </trkpt>
      <trkpt lat="44.00427" lon="2.13746">
        <ele>308.5</ele>
        <time>2017-04-20T10:53:26Z</time>
      </trkpt>
      <trkpt lat="44.00418" lon="2.13746">
        <ele>308.9</ele>
        <time>2017-04-20T10:53:28Z</time>
      </trkpt>
      <trkpt lat="44.00409" lon="2.13747">
        <ele>309.1</ele>
        <time>2017-04-20T10:53:30Z</time>
      </trkpt>
      <trkpt lat="44.00399" lon="2.13747">
        <ele>309.1</ele>
        <time>2017-04-20T10:53:32Z</time>
      </trkpt>
      <trkpt lat="44.00388" lon="2.13748">
        <ele>309</ele>
        <time>2017-04-20T10:53:34Z</time>
      </trkpt>
      <trkpt lat="44.00377" lon="2.13749">
        <ele>308.9</ele>
        <time>2017-04-20T10:53:36Z</time>
      </trkpt>
      <trkpt lat="44.00364" lon="2.13749">
        <ele>308.8</ele>
        <time>2017-04-20T10:53:38Z</time>
      </trkpt>
      <trkpt lat="44.00352" lon="2.13749">
        <ele>308.6</ele>
        <time>2017-04-20T10:53:40Z</time>
      </trkpt>
      <trkpt lat="44.00339" lon="2.1375">
        <ele>308</ele>
        <time>2017-04-20T10:53:42Z</time>
      </trkpt>
      <trkpt lat="44.00326" lon="2.1375">
        <ele>307.3</ele>
        <time>2017-04-20T10:53:44Z</time>
      </trkpt>
      <trkpt lat="44.00312" lon="2.13751">
        <ele>306.6</ele>
        <time>2017-04-20T10:53:46Z</time>
      </trkpt>
      <trkpt lat="44.00304" lon="2.13751">
        <ele>306.2</ele>
        <time>2017-04-20T10:53:47Z</time>
      </trkpt>
      <trkpt lat="44.00297" lon="2.13751">
        <ele>305.8</ele>
        <time>2017-04-20T10:53:48Z</time>
      </trkpt>
      <trkpt lat="44.00289" lon="2.13751">
        <ele>305.5</ele>
        <time>2017-04-20T10:53:49Z</time>
      </trkpt>
      <trkpt lat="44.00282" lon="2.13752">
        <ele>305</ele>
        <time>2017-04-20T10:53:50Z</time>
      </trkpt>
      <trkpt lat="44.00274" lon="2.13752">
        <ele>304.7</ele>
        <time>2017-04-20T10:53:51Z</time>
      </trkpt>
      <trkpt lat="44.00266" lon="2.13752">
        <ele>304.3</ele>
        <time>2017-04-20T10:53:52Z</time>
      </trkpt>
      <trkpt lat="44.00258" lon="2.13752">
        <ele>303.8</ele>
        <time>2017-04-20T10:53:53Z</time>
      </trkpt>
      <trkpt lat="44.00249" lon="2.13752">
        <ele>303.5</ele>
        <time>2017-04-20T10:53:54Z</time>
      </trkpt>
      <trkpt lat="44.00241" lon="2.13753">
        <ele>302.7</ele>
        <time>2017-04-20T10:53:55Z</time>
      </trkpt>
      <trkpt lat="44.00233" lon="2.13754">
        <ele>302.5</ele>
        <time>2017-04-20T10:53:56Z</time>
      </trkpt>
      <trkpt lat="44.00224" lon="2.13754">
        <ele>302.1</ele>
        <time>2017-04-20T10:53:57Z</time>
      </trkpt>
      <trkpt lat="44.00216" lon="2.13754">
        <ele>301.7</ele>
        <time>2017-04-20T10:53:58Z</time>
      </trkpt>
      <trkpt lat="44.00208" lon="2.13754">
        <ele>301.4</ele>
        <time>2017-04-20T10:53:59Z</time>
      </trkpt>
      <trkpt lat="44.002" lon="2.13754">
        <ele>301</ele>
        <time>2017-04-20T10:54:00Z</time>
      </trkpt>
      <trkpt lat="44.00193" lon="2.13754">
        <ele>300.8</ele>
        <time>2017-04-20T10:54:01Z</time>
      </trkpt>
      <trkpt lat="44.00185" lon="2.13754">
        <ele>300.6</ele>
        <time>2017-04-20T10:54:02Z</time>
      </trkpt>
      <trkpt lat="44.00177" lon="2.13754">
        <ele>300.5</ele>
        <time>2017-04-20T10:54:03Z</time>
      </trkpt>
      <trkpt lat="44.0017" lon="2.13754">
        <ele>300</ele>
        <time>2017-04-20T10:54:04Z</time>
      </trkpt>
      <trkpt lat="44.00162" lon="2.13755">
        <ele>300.2</ele>
        <time>2017-04-20T10:54:05Z</time>
      </trkpt>
      <trkpt lat="44.00148" lon="2.13755">
        <ele>300.2</ele>
        <time>2017-04-20T10:54:07Z</time>
      </trkpt>
      <trkpt lat="44.00135" lon="2.13756">
        <ele>300.7</ele>
        <time>2017-04-20T10:54:09Z</time>
      </trkpt>
      <trkpt lat="44.00122" lon="2.13757">
        <ele>300.4</ele>
        <time>2017-04-20T10:54:11Z</time>
      </trkpt>
      <trkpt lat="44.0011" lon="2.13758">
        <ele>301.4</ele>
        <time>2017-04-20T10:54:13Z</time>
      </trkpt>
      <trkpt lat="44.00099" lon="2.13758">
        <ele>302.5</ele>
        <time>2017-04-20T10:54:15Z</time>
      </trkpt>
      <trkpt lat="44.00088" lon="2.13758">
        <ele>303.7</ele>
        <time>2017-04-20T10:54:17Z</time>
      </trkpt>
      <trkpt lat="44.00077" lon="2.13759">
        <ele>304.5</ele>
        <time>2017-04-20T10:54:19Z</time>
      </trkpt>
      <trkpt lat="44.00067" lon="2.13759">
        <ele>305.3</ele>
        <time>2017-04-20T10:54:21Z</time>
      </trkpt>
      <trkpt lat="44.00057" lon="2.1376">
        <ele>305.8</ele>
        <time>2017-04-20T10:54:23Z</time>
      </trkpt>
      <trkpt lat="44.00047" lon="2.13761">
        <ele>306.5</ele>
        <time>2017-04-20T10:54:25Z</time>
      </trkpt>
      <trkpt lat="44.00036" lon="2.13761">
        <ele>307</ele>
        <time>2017-04-20T10:54:27Z</time>
      </trkpt>
      <trkpt lat="44.00026" lon="2.13762">
        <ele>307.6</ele>
        <time>2017-04-20T10:54:29Z</time>
      </trkpt>
      <trkpt lat="44.00015" lon="2.13762">
        <ele>308</ele>
        <time>2017-04-20T10:54:31Z</time>
      </trkpt>
      <trkpt lat="44.00005" lon="2.13763">
        <ele>308.3</ele>
        <time>2017-04-20T10:54:33Z</time>
      </trkpt>
      <trkpt lat="43.99994" lon="2.13765">
        <ele>308.4</ele>
        <time>2017-04-20T10:54:35Z</time>
      </trkpt>
      <trkpt lat="43.99983" lon="2.13766">
        <ele>308.5</ele>
        <time>2017-04-20T10:54:37Z</time>
      </trkpt>
      <trkpt lat="43.99971" lon="2.13765">
        <ele>308.5</ele>
        <time>2017-04-20T10:54:39Z</time>
      </trkpt>
      <trkpt lat="43.99958" lon="2.13765">
        <ele>308.5</ele>
        <time>2017-04-20T10:54:41Z</time>
      </trkpt>
      <trkpt lat="43.99947" lon="2.13764">
        <ele>308.8</ele>
        <time>2017-04-20T10:54:43Z</time>
      </trkpt>
      <trkpt lat="43.99935" lon="2.13765">
        <ele>308.4</ele>
        <time>2017-04-20T10:54:45Z</time>
      </trkpt>
      <trkpt lat="43.99923" lon="2.13766">
        <ele>308.3</ele>
        <time>2017-04-20T10:54:47Z</time>
      </trkpt>
      <trkpt lat="43.99912" lon="2.13766">
        <ele>308</ele>
        <time>2017-04-20T10:54:49Z</time>
      </trkpt>
      <trkpt lat="43.999" lon="2.13768">
        <ele>307.4</ele>
        <time>2017-04-20T10:54:51Z</time>
      </trkpt>
      <trkpt lat="43.99889" lon="2.13768">
        <ele>306.9</ele>
        <time>2017-04-20T10:54:53Z</time>
      </trkpt>
      <trkpt lat="43.99877" lon="2.13768">
        <ele>307.1</ele>
        <time>2017-04-20T10:54:55Z</time>
      </trkpt>
      <trkpt lat="43.99866" lon="2.13768">
        <ele>307.9</ele>
        <time>2017-04-20T10:54:57Z</time>
      </trkpt>
      <trkpt lat="43.99855" lon="2.13769">
        <ele>308.8</ele>
        <time>2017-04-20T10:54:59Z</time>
      </trkpt>
      <trkpt lat="43.99845" lon="2.1377">
        <ele>309.5</ele>
        <time>2017-04-20T10:55:01Z</time>
      </trkpt>
      <trkpt lat="43.99834" lon="2.1377">
        <ele>309.7</ele>
        <time>2017-04-20T10:55:03Z</time>
      </trkpt>
      <trkpt lat="43.99823" lon="2.1377">
        <ele>309.8</ele>
        <time>2017-04-20T10:55:05Z</time>
      </trkpt>
      <trkpt lat="43.99811" lon="2.1377">
        <ele>309.9</ele>
        <time>2017-04-20T10:55:07Z</time>
      </trkpt>
      <trkpt lat="43.998" lon="2.13771">
        <ele>309.9</ele>
        <time>2017-04-20T10:55:09Z</time>
      </trkpt>
      <trkpt lat="43.99788" lon="2.13771">
        <ele>310</ele>
        <time>2017-04-20T10:55:11Z</time>
      </trkpt>
      <trkpt lat="43.99776" lon="2.13773">
        <ele>310</ele>
        <time>2017-04-20T10:55:13Z</time>
      </trkpt>
      <trkpt lat="43.99764" lon="2.13773">
        <ele>310</ele>
        <time>2017-04-20T10:55:15Z</time>
      </trkpt>
      <trkpt lat="43.99752" lon="2.13773">
        <ele>309.8</ele>
        <time>2017-04-20T10:55:17Z</time>
      </trkpt>
      <trkpt lat="43.99741" lon="2.13774">
        <ele>309.8</ele>
        <time>2017-04-20T10:55:19Z</time>
      </trkpt>
      <trkpt lat="43.9973" lon="2.13774">
        <ele>309.7</ele>
        <time>2017-04-20T10:55:21Z</time>
      </trkpt>
      <trkpt lat="43.99719" lon="2.13776">
        <ele>310.5</ele>
        <time>2017-04-20T10:55:23Z</time>
      </trkpt>
      <trkpt lat="43.99708" lon="2.13777">
        <ele>310.9</ele>
        <time>2017-04-20T10:55:25Z</time>
      </trkpt>
      <trkpt lat="43.99698" lon="2.13781">
        <ele>311.4</ele>
        <time>2017-04-20T10:55:27Z</time>
      </trkpt>
      <trkpt lat="43.99688" lon="2.13786">
        <ele>311.7</ele>
        <time>2017-04-20T10:55:29Z</time>
      </trkpt>
      <trkpt lat="43.9968" lon="2.13793">
        <ele>312</ele>
        <time>2017-04-20T10:55:31Z</time>
      </trkpt>
      <trkpt lat="43.99672" lon="2.13802">
        <ele>312.7</ele>
        <time>2017-04-20T10:55:33Z</time>
      </trkpt>
      <trkpt lat="43.99665" lon="2.13812">
        <ele>313.2</ele>
        <time>2017-04-20T10:55:35Z</time>
      </trkpt>
      <trkpt lat="43.99659" lon="2.1382">
        <ele>313.9</ele>
        <time>2017-04-20T10:55:37Z</time>
      </trkpt>
      <trkpt lat="43.99653" lon="2.1383">
        <ele>313.4</ele>
        <time>2017-04-20T10:55:39Z</time>
      </trkpt>
      <trkpt lat="43.99648" lon="2.13839">
        <ele>314.7</ele>
        <time>2017-04-20T10:55:41Z</time>
      </trkpt>
      <trkpt lat="43.99642" lon="2.13847">
        <ele>315.1</ele>
        <time>2017-04-20T10:55:43Z</time>
      </trkpt>
      <trkpt lat="43.99637" lon="2.13856">
        <ele>315.6</ele>
        <time>2017-04-20T10:55:45Z</time>
      </trkpt>
      <trkpt lat="43.99631" lon="2.13865">
        <ele>316.1</ele>
        <time>2017-04-20T10:55:47Z</time>
      </trkpt>
      <trkpt lat="43.99625" lon="2.13874">
        <ele>316.1</ele>
        <time>2017-04-20T10:55:49Z</time>
      </trkpt>
      <trkpt lat="43.99618" lon="2.13884">
        <ele>316.2</ele>
        <time>2017-04-20T10:55:51Z</time>
      </trkpt>
      <trkpt lat="43.99612" lon="2.13894">
        <ele>316.3</ele>
        <time>2017-04-20T10:55:53Z</time>
      </trkpt>
      <trkpt lat="43.99605" lon="2.13904">
        <ele>315.9</ele>
        <time>2017-04-20T10:55:55Z</time>
      </trkpt>
      <trkpt lat="43.99599" lon="2.13916">
        <ele>315.6</ele>
        <time>2017-04-20T10:55:57Z</time>
      </trkpt>
      <trkpt lat="43.99593" lon="2.13928">
        <ele>315.6</ele>
        <time>2017-04-20T10:55:59Z</time>
      </trkpt>
      <trkpt lat="43.99587" lon="2.13941">
        <ele>315.5</ele>
        <time>2017-04-20T10:56:01Z</time>
      </trkpt>
      <trkpt lat="43.99581" lon="2.13952">
        <ele>315.2</ele>
        <time>2017-04-20T10:56:03Z</time>
      </trkpt>
      <trkpt lat="43.99575" lon="2.13963">
        <ele>314.6</ele>
        <time>2017-04-20T10:56:05Z</time>
      </trkpt>
      <trkpt lat="43.99566" lon="2.13973">
        <ele>314.1</ele>
        <time>2017-04-20T10:56:07Z</time>
      </trkpt>
      <trkpt lat="43.99556" lon="2.13976">
        <ele>313.4</ele>
        <time>2017-04-20T10:56:09Z</time>
      </trkpt>
      <trkpt lat="43.99544" lon="2.13973">
        <ele>313</ele>
        <time>2017-04-20T10:56:11Z</time>
      </trkpt>
      <trkpt lat="43.99535" lon="2.13963">
        <ele>312</ele>
        <time>2017-04-20T10:56:13Z</time>
      </trkpt>
      <trkpt lat="43.99529" lon="2.13949">
        <ele>311.2</ele>
        <time>2017-04-20T10:56:15Z</time>
      </trkpt>
      <trkpt lat="43.99523" lon="2.13932">
        <ele>311.1</ele>
        <time>2017-04-20T10:56:17Z</time>
      </trkpt>
      <trkpt lat="43.99517" lon="2.13916">
        <ele>310</ele>
        <time>2017-04-20T10:56:19Z</time>
      </trkpt>
      <trkpt lat="43.9951" lon="2.139">
        <ele>309.2</ele>
        <time>2017-04-20T10:56:21Z</time>
      </trkpt>
      <trkpt lat="43.99501" lon="2.13885">
        <ele>308.3</ele>
        <time>2017-04-20T10:56:23Z</time>
      </trkpt>
      <trkpt lat="43.99497" lon="2.13877">
        <ele>307.8</ele>
        <time>2017-04-20T10:56:24Z</time>
      </trkpt>
      <trkpt lat="43.99492" lon="2.13869">
        <ele>307.7</ele>
        <time>2017-04-20T10:56:25Z</time>
      </trkpt>
      <trkpt lat="43.99487" lon="2.13862">
        <ele>307.4</ele>
        <time>2017-04-20T10:56:26Z</time>
      </trkpt>
      <trkpt lat="43.99482" lon="2.13854">
        <ele>306.6</ele>
        <time>2017-04-20T10:56:27Z</time>
      </trkpt>
      <trkpt lat="43.99478" lon="2.13845">
        <ele>306.3</ele>
        <time>2017-04-20T10:56:28Z</time>
      </trkpt>
      <trkpt lat="43.99474" lon="2.13836">
        <ele>305.8</ele>
        <time>2017-04-20T10:56:29Z</time>
      </trkpt>
      <trkpt lat="43.99469" lon="2.13827">
        <ele>305.5</ele>
        <time>2017-04-20T10:56:30Z</time>
      </trkpt>
      <trkpt lat="43.99464" lon="2.13819">
        <ele>305.3</ele>
        <time>2017-04-20T10:56:31Z</time>
      </trkpt>
      <trkpt lat="43.99458" lon="2.13811">
        <ele>305</ele>
        <time>2017-04-20T10:56:32Z</time>
      </trkpt>
      <trkpt lat="43.99452" lon="2.13805">
        <ele>304.8</ele>
        <time>2017-04-20T10:56:33Z</time>
      </trkpt>
      <trkpt lat="43.99445" lon="2.13799">
        <ele>304.5</ele>
        <time>2017-04-20T10:56:34Z</time>
      </trkpt>
      <trkpt lat="43.99437" lon="2.13795">
        <ele>304.3</ele>
        <time>2017-04-20T10:56:35Z</time>
      </trkpt>
      <trkpt lat="43.99429" lon="2.13792">
        <ele>303.9</ele>
        <time>2017-04-20T10:56:36Z</time>
      </trkpt>
      <trkpt lat="43.99421" lon="2.13789">
        <ele>303.6</ele>
        <time>2017-04-20T10:56:37Z</time>
      </trkpt>
      <trkpt lat="43.99413" lon="2.13789">
        <ele>303.2</ele>
        <time>2017-04-20T10:56:38Z</time>
      </trkpt>
      <trkpt lat="43.99405" lon="2.13789">
        <ele>302.8</ele>
        <time>2017-04-20T10:56:39Z</time>
      </trkpt>
      <trkpt lat="43.99398" lon="2.13791">
        <ele>302.3</ele>
        <time>2017-04-20T10:56:40Z</time>
      </trkpt>
      <trkpt lat="43.9939" lon="2.13793">
        <ele>301.8</ele>
        <time>2017-04-20T10:56:41Z</time>
      </trkpt>
      <trkpt lat="43.99382" lon="2.13797">
        <ele>301.2</ele>
        <time>2017-04-20T10:56:42Z</time>
      </trkpt>
      <trkpt lat="43.99375" lon="2.13803">
        <ele>300.9</ele>
        <time>2017-04-20T10:56:43Z</time>
      </trkpt>
      <trkpt lat="43.99369" lon="2.13811">
        <ele>300.5</ele>
        <time>2017-04-20T10:56:44Z</time>
      </trkpt>
      <trkpt lat="43.99363" lon="2.1382">
        <ele>300.2</ele>
        <time>2017-04-20T10:56:45Z</time>
      </trkpt>
      <trkpt lat="43.99358" lon="2.13829">
        <ele>299.6</ele>
        <time>2017-04-20T10:56:46Z</time>
      </trkpt>
      <trkpt lat="43.99354" lon="2.13838">
        <ele>299.3</ele>
        <time>2017-04-20T10:56:47Z</time>
      </trkpt>
      <trkpt lat="43.99349" lon="2.13847">
        <ele>298.6</ele>
        <time>2017-04-20T10:56:48Z</time>
      </trkpt>
      <trkpt lat="43.99344" lon="2.13857">
        <ele>298.2</ele>
        <time>2017-04-20T10:56:49Z</time>
      </trkpt>
      <trkpt lat="43.9934" lon="2.13867">
        <ele>297.9</ele>
        <time>2017-04-20T10:56:50Z</time>
      </trkpt>
      <trkpt lat="43.99334" lon="2.13875">
        <ele>297.6</ele>
        <time>2017-04-20T10:56:51Z</time>
      </trkpt>
      <trkpt lat="43.99328" lon="2.13882">
        <ele>297.3</ele>
        <time>2017-04-20T10:56:52Z</time>
      </trkpt>
      <trkpt lat="43.99321" lon="2.13888">
        <ele>296.9</ele>
        <time>2017-04-20T10:56:53Z</time>
      </trkpt>
      <trkpt lat="43.99313" lon="2.13893">
        <ele>296.3</ele>
        <time>2017-04-20T10:56:54Z</time>
      </trkpt>
      <trkpt lat="43.99306" lon="2.13897">
        <ele>295.7</ele>
        <time>2017-04-20T10:56:55Z</time>
      </trkpt>
      <trkpt lat="43.99297" lon="2.13901">
        <ele>295.7</ele>
        <time>2017-04-20T10:56:56Z</time>
      </trkpt>
      <trkpt lat="43.9929" lon="2.13904">
        <ele>295.4</ele>
        <time>2017-04-20T10:56:57Z</time>
      </trkpt>
      <trkpt lat="43.99281" lon="2.13906">
        <ele>294.9</ele>
        <time>2017-04-20T10:56:58Z</time>
      </trkpt>
      <trkpt lat="43.99273" lon="2.13908">
        <ele>294.4</ele>
        <time>2017-04-20T10:56:59Z</time>
      </trkpt>
      <trkpt lat="43.99264" lon="2.13908">
        <ele>293.7</ele>
        <time>2017-04-20T10:57:00Z</time>
      </trkpt>
      <trkpt lat="43.99256" lon="2.13905">
        <ele>292.8</ele>
        <time>2017-04-20T10:57:01Z</time>
      </trkpt>
      <trkpt lat="43.99249" lon="2.139">
        <ele>291.9</ele>
        <time>2017-04-20T10:57:02Z</time>
      </trkpt>
      <trkpt lat="43.99243" lon="2.13893">
        <ele>291.2</ele>
        <time>2017-04-20T10:57:03Z</time>
      </trkpt>
      <trkpt lat="43.99237" lon="2.13886">
        <ele>290.8</ele>
        <time>2017-04-20T10:57:04Z</time>
      </trkpt>
      <trkpt lat="43.99233" lon="2.13878">
        <ele>290.7</ele>
        <time>2017-04-20T10:57:05Z</time>
      </trkpt>
      <trkpt lat="43.99228" lon="2.13869">
        <ele>290.7</ele>
        <time>2017-04-20T10:57:06Z</time>
      </trkpt>
      <trkpt lat="43.99221" lon="2.13853">
        <ele>290.6</ele>
        <time>2017-04-20T10:57:08Z</time>
      </trkpt>
      <trkpt lat="43.99214" lon="2.13838">
        <ele>290.3</ele>
        <time>2017-04-20T10:57:10Z</time>
      </trkpt>
      <trkpt lat="43.99209" lon="2.13824">
        <ele>289.9</ele>
        <time>2017-04-20T10:57:12Z</time>
      </trkpt>
      <trkpt lat="43.99206" lon="2.13809">
        <ele>289.8</ele>
        <time>2017-04-20T10:57:14Z</time>
      </trkpt>
      <trkpt lat="43.99203" lon="2.13796">
        <ele>290.7</ele>
        <time>2017-04-20T10:57:16Z</time>
      </trkpt>
      <trkpt lat="43.99201" lon="2.13784">
        <ele>290.9</ele>
        <time>2017-04-20T10:57:18Z</time>
      </trkpt>
      <trkpt lat="43.99199" lon="2.13771">
        <ele>291</ele>
        <time>2017-04-20T10:57:20Z</time>
      </trkpt>
      <trkpt lat="43.99198" lon="2.13759">
        <ele>291.4</ele>
        <time>2017-04-20T10:57:22Z</time>
      </trkpt>
      <trkpt lat="43.99198" lon="2.13747">
        <ele>292</ele>
        <time>2017-04-20T10:57:24Z</time>
      </trkpt>
      <trkpt lat="43.99197" lon="2.13735">
        <ele>292</ele>
        <time>2017-04-20T10:57:26Z</time>
      </trkpt>
      <trkpt lat="43.99195" lon="2.13723">
        <ele>292.2</ele>
        <time>2017-04-20T10:57:28Z</time>
      </trkpt>
      <trkpt lat="43.99192" lon="2.13711">
        <ele>292.8</ele>
        <time>2017-04-20T10:57:30Z</time>
      </trkpt>
      <trkpt lat="43.9919" lon="2.13699">
        <ele>293.5</ele>
        <time>2017-04-20T10:57:32Z</time>
      </trkpt>
      <trkpt lat="43.99188" lon="2.13689">
        <ele>293.7</ele>
        <time>2017-04-20T10:57:34Z</time>
      </trkpt>
      <trkpt lat="43.99185" lon="2.13677">
        <ele>293.8</ele>
        <time>2017-04-20T10:57:36Z</time>
      </trkpt>
      <trkpt lat="43.99182" lon="2.13665">
        <ele>294.1</ele>
        <time>2017-04-20T10:57:38Z</time>
      </trkpt>
      <trkpt lat="43.9918" lon="2.13654">
        <ele>294.7</ele>
        <time>2017-04-20T10:57:40Z</time>
      </trkpt>
      <trkpt lat="43.99176" lon="2.13641">
        <ele>295.8</ele>
        <time>2017-04-20T10:57:43Z</time>
      </trkpt>
      <trkpt lat="43.99174" lon="2.13628">
        <ele>296.7</ele>
        <time>2017-04-20T10:57:46Z</time>
      </trkpt>
      <trkpt lat="43.99172" lon="2.13617">
        <ele>297.8</ele>
        <time>2017-04-20T10:57:49Z</time>
      </trkpt>
      <trkpt lat="43.9917" lon="2.13607">
        <ele>299.1</ele>
        <time>2017-04-20T10:57:52Z</time>
      </trkpt>
      <trkpt lat="43.99167" lon="2.13595">
        <ele>298.8</ele>
        <time>2017-04-20T10:57:55Z</time>
      </trkpt>
      <trkpt lat="43.99164" lon="2.13583">
        <ele>298.6</ele>
        <time>2017-04-20T10:57:58Z</time>
      </trkpt>
      <trkpt lat="43.9916" lon="2.1357">
        <ele>298.7</ele>
        <time>2017-04-20T10:58:01Z</time>
      </trkpt>
      <trkpt lat="43.99157" lon="2.13557">
        <ele>299.2</ele>
        <time>2017-04-20T10:58:04Z</time>
      </trkpt>
      <trkpt lat="43.99155" lon="2.13545">
        <ele>301</ele>
        <time>2017-04-20T10:58:07Z</time>
      </trkpt>
      <trkpt lat="43.99151" lon="2.13532">
        <ele>301.7</ele>
        <time>2017-04-20T10:58:11Z</time>
      </trkpt>
      <trkpt lat="43.99147" lon="2.13519">
        <ele>302.6</ele>
        <time>2017-04-20T10:58:14Z</time>
      </trkpt>
      <trkpt lat="43.99143" lon="2.13506">
        <ele>302.9</ele>
        <time>2017-04-20T10:58:17Z</time>
      </trkpt>
      <trkpt lat="43.99139" lon="2.13493">
        <ele>303</ele>
        <time>2017-04-20T10:58:20Z</time>
      </trkpt>
      <trkpt lat="43.99136" lon="2.13481">
        <ele>303.4</ele>
        <time>2017-04-20T10:58:23Z</time>
      </trkpt>
      <trkpt lat="43.99132" lon="2.13472">
        <ele>304.2</ele>
        <time>2017-04-20T10:58:26Z</time>
      </trkpt>
      <trkpt lat="43.99131" lon="2.13469">
        <ele>305.2</ele>
        <time>2017-04-20T10:58:33Z</time>
      </trkpt>
      <trkpt lat="43.99132" lon="2.13468">
        <ele>305.9</ele>
        <time>2017-04-20T10:58:55Z</time>
      </trkpt>
      <trkpt lat="43.9913" lon="2.13477">
        <ele>305.2</ele>
        <time>2017-04-20T10:59:06Z</time>
      </trkpt>
      <trkpt lat="43.99126" lon="2.13479">
        <ele>303.9</ele>
        <time>2017-04-20T10:59:13Z</time>
      </trkpt>
      <trkpt lat="43.99126" lon="2.13466">
        <ele>303.3</ele>
        <time>2017-04-20T10:59:18Z</time>
      </trkpt>
      <trkpt lat="43.99124" lon="2.13452">
        <ele>303.2</ele>
        <time>2017-04-20T10:59:22Z</time>
      </trkpt>
      <trkpt lat="43.99122" lon="2.1344">
        <ele>303.1</ele>
        <time>2017-04-20T10:59:24Z</time>
      </trkpt>
      <trkpt lat="43.9912" lon="2.13428">
        <ele>302.9</ele>
        <time>2017-04-20T10:59:26Z</time>
      </trkpt>
      <trkpt lat="43.99118" lon="2.13414">
        <ele>302.3</ele>
        <time>2017-04-20T10:59:28Z</time>
      </trkpt>
      <trkpt lat="43.99114" lon="2.13398">
        <ele>301.8</ele>
        <time>2017-04-20T10:59:30Z</time>
      </trkpt>
      <trkpt lat="43.99109" lon="2.13379">
        <ele>301</ele>
        <time>2017-04-20T10:59:32Z</time>
      </trkpt>
      <trkpt lat="43.99107" lon="2.13369">
        <ele>300.5</ele>
        <time>2017-04-20T10:59:33Z</time>
      </trkpt>
      <trkpt lat="43.99102" lon="2.1335">
        <ele>299.6</ele>
        <time>2017-04-20T10:59:35Z</time>
      </trkpt>
      <trkpt lat="43.991" lon="2.1334">
        <ele>299</ele>
        <time>2017-04-20T10:59:36Z</time>
      </trkpt>
      <trkpt lat="43.99098" lon="2.1333">
        <ele>297.9</ele>
        <time>2017-04-20T10:59:37Z</time>
      </trkpt>
      <trkpt lat="43.99096" lon="2.13319">
        <ele>297.3</ele>
        <time>2017-04-20T10:59:38Z</time>
      </trkpt>
      <trkpt lat="43.99094" lon="2.13307">
        <ele>296.6</ele>
        <time>2017-04-20T10:59:39Z</time>
      </trkpt>
      <trkpt lat="43.99092" lon="2.13296">
        <ele>295.8</ele>
        <time>2017-04-20T10:59:40Z</time>
      </trkpt>
      <trkpt lat="43.99091" lon="2.13286">
        <ele>294.4</ele>
        <time>2017-04-20T10:59:41Z</time>
      </trkpt>
      <trkpt lat="43.99089" lon="2.13277">
        <ele>293.6</ele>
        <time>2017-04-20T10:59:42Z</time>
      </trkpt>
      <trkpt lat="43.99087" lon="2.13258">
        <ele>292.4</ele>
        <time>2017-04-20T10:59:44Z</time>
      </trkpt>
      <trkpt lat="43.99085" lon="2.13242">
        <ele>291.4</ele>
        <time>2017-04-20T10:59:46Z</time>
      </trkpt>
      <trkpt lat="43.99081" lon="2.13229">
        <ele>290.6</ele>
        <time>2017-04-20T10:59:48Z</time>
      </trkpt>
      <trkpt lat="43.99079" lon="2.13215">
        <ele>289.8</ele>
        <time>2017-04-20T10:59:50Z</time>
      </trkpt>
      <trkpt lat="43.99076" lon="2.13201">
        <ele>289</ele>
        <time>2017-04-20T10:59:52Z</time>
      </trkpt>
      <trkpt lat="43.99072" lon="2.13188">
        <ele>288.3</ele>
        <time>2017-04-20T10:59:54Z</time>
      </trkpt>
      <trkpt lat="43.99068" lon="2.13174">
        <ele>287.5</ele>
        <time>2017-04-20T10:59:56Z</time>
      </trkpt>
      <trkpt lat="43.99064" lon="2.13161">
        <ele>286.6</ele>
        <time>2017-04-20T10:59:58Z</time>
      </trkpt>
      <trkpt lat="43.99062" lon="2.1315">
        <ele>287</ele>
        <time>2017-04-20T11:00:00Z</time>
      </trkpt>
      <trkpt lat="43.99058" lon="2.13137">
        <ele>286.5</ele>
        <time>2017-04-20T11:00:03Z</time>
      </trkpt>
      <trkpt lat="43.99054" lon="2.13124">
        <ele>286</ele>
        <time>2017-04-20T11:00:06Z</time>
      </trkpt>
      <trkpt lat="43.99051" lon="2.13113">
        <ele>285</ele>
        <time>2017-04-20T11:00:08Z</time>
      </trkpt>
      <trkpt lat="43.99048" lon="2.13101">
        <ele>284.2</ele>
        <time>2017-04-20T11:00:10Z</time>
      </trkpt>
      <trkpt lat="43.99045" lon="2.13087">
        <ele>282.6</ele>
        <time>2017-04-20T11:00:12Z</time>
      </trkpt>
      <trkpt lat="43.99041" lon="2.13073">
        <ele>281.1</ele>
        <time>2017-04-20T11:00:14Z</time>
      </trkpt>
      <trkpt lat="43.99037" lon="2.13059">
        <ele>279.7</ele>
        <time>2017-04-20T11:00:16Z</time>
      </trkpt>
      <trkpt lat="43.99033" lon="2.13044">
        <ele>277.5</ele>
        <time>2017-04-20T11:00:18Z</time>
      </trkpt>
      <trkpt lat="43.99027" lon="2.13028">
        <ele>276.6</ele>
        <time>2017-04-20T11:00:20Z</time>
      </trkpt>
      <trkpt lat="43.99021" lon="2.13015">
        <ele>275.7</ele>
        <time>2017-04-20T11:00:22Z</time>
      </trkpt>
      <trkpt lat="43.99014" lon="2.13004">
        <ele>274.8</ele>
        <time>2017-04-20T11:00:24Z</time>
      </trkpt>
      <trkpt lat="43.99007" lon="2.12993">
        <ele>274.1</ele>
        <time>2017-04-20T11:00:26Z</time>
      </trkpt>
      <trkpt lat="43.98998" lon="2.12983">
        <ele>273.1</ele>
        <time>2017-04-20T11:00:28Z</time>
      </trkpt>
      <trkpt lat="43.98989" lon="2.12974">
        <ele>272.4</ele>
        <time>2017-04-20T11:00:30Z</time>
      </trkpt>
      <trkpt lat="43.98978" lon="2.12969">
        <ele>271.2</ele>
        <time>2017-04-20T11:00:32Z</time>
      </trkpt>
      <trkpt lat="43.98966" lon="2.12966">
        <ele>269.9</ele>
        <time>2017-04-20T11:00:34Z</time>
      </trkpt>
      <trkpt lat="43.98954" lon="2.12968">
        <ele>268.6</ele>
        <time>2017-04-20T11:00:36Z</time>
      </trkpt>
      <trkpt lat="43.98942" lon="2.12974">
        <ele>266.6</ele>
        <time>2017-04-20T11:00:38Z</time>
      </trkpt>
      <trkpt lat="43.9893" lon="2.12986">
        <ele>265</ele>
        <time>2017-04-20T11:00:40Z</time>
      </trkpt>
      <trkpt lat="43.98925" lon="2.12993">
        <ele>264.2</ele>
        <time>2017-04-20T11:00:41Z</time>
      </trkpt>
      <trkpt lat="43.98919" lon="2.12999">
        <ele>263.3</ele>
        <time>2017-04-20T11:00:42Z</time>
      </trkpt>
      <trkpt lat="43.98913" lon="2.13008">
        <ele>262.2</ele>
        <time>2017-04-20T11:00:43Z</time>
      </trkpt>
      <trkpt lat="43.98907" lon="2.13015">
        <ele>261.3</ele>
        <time>2017-04-20T11:00:44Z</time>
      </trkpt>
      <trkpt lat="43.98901" lon="2.13023">
        <ele>260.5</ele>
        <time>2017-04-20T11:00:45Z</time>
      </trkpt>
      <trkpt lat="43.98894" lon="2.13031">
        <ele>259.7</ele>
        <time>2017-04-20T11:00:46Z</time>
      </trkpt>
      <trkpt lat="43.98887" lon="2.13038">
        <ele>259.1</ele>
        <time>2017-04-20T11:00:47Z</time>
      </trkpt>
      <trkpt lat="43.98879" lon="2.13045">
        <ele>258.6</ele>
        <time>2017-04-20T11:00:48Z</time>
      </trkpt>
      <trkpt lat="43.98872" lon="2.13052">
        <ele>258.2</ele>
        <time>2017-04-20T11:00:49Z</time>
      </trkpt>
      <trkpt lat="43.98863" lon="2.13055">
        <ele>258</ele>
        <time>2017-04-20T11:00:50Z</time>
      </trkpt>
      <trkpt lat="43.98855" lon="2.13056">
        <ele>257.8</ele>
        <time>2017-04-20T11:00:51Z</time>
      </trkpt>
      <trkpt lat="43.98848" lon="2.13055">
        <ele>258.7</ele>
        <time>2017-04-20T11:00:52Z</time>
      </trkpt>
      <trkpt lat="43.98841" lon="2.13052">
        <ele>258.5</ele>
        <time>2017-04-20T11:00:53Z</time>
      </trkpt>
      <trkpt lat="43.98834" lon="2.13046">
        <ele>258.4</ele>
        <time>2017-04-20T11:00:54Z</time>
      </trkpt>
      <trkpt lat="43.98828" lon="2.13041">
        <ele>258</ele>
        <time>2017-04-20T11:00:55Z</time>
      </trkpt>
      <trkpt lat="43.98817" lon="2.13029">
        <ele>257.4</ele>
        <time>2017-04-20T11:00:57Z</time>
      </trkpt>
      <trkpt lat="43.98807" lon="2.13017">
        <ele>257</ele>
        <time>2017-04-20T11:00:59Z</time>
      </trkpt>
      <trkpt lat="43.98798" lon="2.13005">
        <ele>257.1</ele>
        <time>2017-04-20T11:01:01Z</time>
      </trkpt>
      <trkpt lat="43.98786" lon="2.12996">
        <ele>257.1</ele>
        <time>2017-04-20T11:01:03Z</time>
      </trkpt>
      <trkpt lat="43.98774" lon="2.12991">
        <ele>257.4</ele>
        <time>2017-04-20T11:01:05Z</time>
      </trkpt>
      <trkpt lat="43.98761" lon="2.12995">
        <ele>257.3</ele>
        <time>2017-04-20T11:01:07Z</time>
      </trkpt>
      <trkpt lat="43.98749" lon="2.13005">
        <ele>256.5</ele>
        <time>2017-04-20T11:01:09Z</time>
      </trkpt>
      <trkpt lat="43.98739" lon="2.13016">
        <ele>255.9</ele>
        <time>2017-04-20T11:01:11Z</time>
      </trkpt>
      <trkpt lat="43.98728" lon="2.13026">
        <ele>255.3</ele>
        <time>2017-04-20T11:01:13Z</time>
      </trkpt>
      <trkpt lat="43.98715" lon="2.13034">
        <ele>255.1</ele>
        <time>2017-04-20T11:01:15Z</time>
      </trkpt>
      <trkpt lat="43.98703" lon="2.1304">
        <ele>255.1</ele>
        <time>2017-04-20T11:01:17Z</time>
      </trkpt>
      <trkpt lat="43.98691" lon="2.13048">
        <ele>255</ele>
        <time>2017-04-20T11:01:19Z</time>
      </trkpt>
      <trkpt lat="43.9868" lon="2.13058">
        <ele>254.7</ele>
        <time>2017-04-20T11:01:21Z</time>
      </trkpt>
      <trkpt lat="43.98668" lon="2.13066">
        <ele>254.7</ele>
        <time>2017-04-20T11:01:23Z</time>
      </trkpt>
      <trkpt lat="43.98657" lon="2.13074">
        <ele>254.7</ele>
        <time>2017-04-20T11:01:25Z</time>
      </trkpt>
      <trkpt lat="43.98646" lon="2.13082">
        <ele>254.6</ele>
        <time>2017-04-20T11:01:27Z</time>
      </trkpt>
      <trkpt lat="43.98635" lon="2.13089">
        <ele>254.8</ele>
        <time>2017-04-20T11:01:29Z</time>
      </trkpt>
      <trkpt lat="43.98625" lon="2.13096">
        <ele>254.9</ele>
        <time>2017-04-20T11:01:31Z</time>
      </trkpt>
      <trkpt lat="43.98615" lon="2.13104">
        <ele>254.9</ele>
        <time>2017-04-20T11:01:33Z</time>
      </trkpt>
      <trkpt lat="43.98604" lon="2.13111">
        <ele>254.6</ele>
        <time>2017-04-20T11:01:35Z</time>
      </trkpt>
      <trkpt lat="43.98593" lon="2.13119">
        <ele>254.4</ele>
        <time>2017-04-20T11:01:37Z</time>
      </trkpt>
      <trkpt lat="43.98583" lon="2.13127">
        <ele>254.2</ele>
        <time>2017-04-20T11:01:39Z</time>
      </trkpt>
      <trkpt lat="43.98573" lon="2.13135">
        <ele>254.3</ele>
        <time>2017-04-20T11:01:41Z</time>
      </trkpt>
      <trkpt lat="43.98563" lon="2.13144">
        <ele>254.4</ele>
        <time>2017-04-20T11:01:43Z</time>
      </trkpt>
      <trkpt lat="43.98553" lon="2.13153">
        <ele>254.7</ele>
        <time>2017-04-20T11:01:45Z</time>
      </trkpt>
      <trkpt lat="43.98543" lon="2.13161">
        <ele>254.5</ele>
        <time>2017-04-20T11:01:47Z</time>
      </trkpt>
      <trkpt lat="43.98534" lon="2.1317">
        <ele>254.5</ele>
        <time>2017-04-20T11:01:49Z</time>
      </trkpt>
      <trkpt lat="43.98524" lon="2.13177">
        <ele>254.7</ele>
        <time>2017-04-20T11:01:51Z</time>
      </trkpt>
      <trkpt lat="43.98514" lon="2.13183">
        <ele>255</ele>
        <time>2017-04-20T11:01:53Z</time>
      </trkpt>
      <trkpt lat="43.98505" lon="2.13188">
        <ele>255.5</ele>
        <time>2017-04-20T11:01:55Z</time>
      </trkpt>
      <trkpt lat="43.98496" lon="2.13194">
        <ele>255.6</ele>
        <time>2017-04-20T11:01:57Z</time>
      </trkpt>
      <trkpt lat="43.98487" lon="2.13199">
        <ele>255.5</ele>
        <time>2017-04-20T11:01:59Z</time>
      </trkpt>
      <trkpt lat="43.98478" lon="2.13204">
        <ele>255.5</ele>
        <time>2017-04-20T11:02:01Z</time>
      </trkpt>
      <trkpt lat="43.98469" lon="2.1321">
        <ele>255.4</ele>
        <time>2017-04-20T11:02:03Z</time>
      </trkpt>
      <trkpt lat="43.98459" lon="2.13214">
        <ele>255.3</ele>
        <time>2017-04-20T11:02:05Z</time>
      </trkpt>
      <trkpt lat="43.9845" lon="2.13216">
        <ele>255</ele>
        <time>2017-04-20T11:02:07Z</time>
      </trkpt>
      <trkpt lat="43.98441" lon="2.13215">
        <ele>253.8</ele>
        <time>2017-04-20T11:02:09Z</time>
      </trkpt>
      <trkpt lat="43.98431" lon="2.13212">
        <ele>253.3</ele>
        <time>2017-04-20T11:02:11Z</time>
      </trkpt>
      <trkpt lat="43.98421" lon="2.13208">
        <ele>253</ele>
        <time>2017-04-20T11:02:13Z</time>
      </trkpt>
      <trkpt lat="43.98412" lon="2.13205">
        <ele>253.8</ele>
        <time>2017-04-20T11:02:15Z</time>
      </trkpt>
      <trkpt lat="43.98403" lon="2.13205">
        <ele>253.5</ele>
        <time>2017-04-20T11:02:17Z</time>
      </trkpt>
      <trkpt lat="43.98394" lon="2.13206">
        <ele>251.3</ele>
        <time>2017-04-20T11:02:19Z</time>
      </trkpt>
      <trkpt lat="43.98384" lon="2.13206">
        <ele>249.9</ele>
        <time>2017-04-20T11:02:21Z</time>
      </trkpt>
      <trkpt lat="43.9837" lon="2.13202">
        <ele>247.8</ele>
        <time>2017-04-20T11:02:23Z</time>
      </trkpt>
      <trkpt lat="43.98364" lon="2.13197">
        <ele>246.7</ele>
        <time>2017-04-20T11:02:24Z</time>
      </trkpt>
      <trkpt lat="43.98357" lon="2.1319">
        <ele>245.8</ele>
        <time>2017-04-20T11:02:25Z</time>
      </trkpt>
      <trkpt lat="43.98351" lon="2.13183">
        <ele>245.1</ele>
        <time>2017-04-20T11:02:26Z</time>
      </trkpt>
      <trkpt lat="43.98346" lon="2.13176">
        <ele>244.1</ele>
        <time>2017-04-20T11:02:27Z</time>
      </trkpt>
      <trkpt lat="43.9834" lon="2.13161">
        <ele>242.9</ele>
        <time>2017-04-20T11:02:29Z</time>
      </trkpt>
      <trkpt lat="43.98333" lon="2.13145">
        <ele>242.4</ele>
        <time>2017-04-20T11:02:31Z</time>
      </trkpt>
      <trkpt lat="43.98325" lon="2.13131">
        <ele>242</ele>
        <time>2017-04-20T11:02:33Z</time>
      </trkpt>
      <trkpt lat="43.98321" lon="2.13116">
        <ele>241.9</ele>
        <time>2017-04-20T11:02:35Z</time>
      </trkpt>
      <trkpt lat="43.98321" lon="2.13102">
        <ele>241.8</ele>
        <time>2017-04-20T11:02:37Z</time>
      </trkpt>
      <trkpt lat="43.9832" lon="2.13088">
        <ele>240.8</ele>
        <time>2017-04-20T11:02:39Z</time>
      </trkpt>
      <trkpt lat="43.9832" lon="2.13074">
        <ele>241.7</ele>
        <time>2017-04-20T11:02:41Z</time>
      </trkpt>
      <trkpt lat="43.98322" lon="2.13061">
        <ele>240.8</ele>
        <time>2017-04-20T11:02:43Z</time>
      </trkpt>
      <trkpt lat="43.98323" lon="2.13048">
        <ele>239.9</ele>
        <time>2017-04-20T11:02:45Z</time>
      </trkpt>
      <trkpt lat="43.98322" lon="2.13033">
        <ele>239.5</ele>
        <time>2017-04-20T11:02:47Z</time>
      </trkpt>
      <trkpt lat="43.98324" lon="2.13017">
        <ele>239</ele>
        <time>2017-04-20T11:02:49Z</time>
      </trkpt>
      <trkpt lat="43.98328" lon="2.13004">
        <ele>239.1</ele>
        <time>2017-04-20T11:02:51Z</time>
      </trkpt>
      <trkpt lat="43.98333" lon="2.12993">
        <ele>238.7</ele>
        <time>2017-04-20T11:02:53Z</time>
      </trkpt>
      <trkpt lat="43.98337" lon="2.12981">
        <ele>239.1</ele>
        <time>2017-04-20T11:02:55Z</time>
      </trkpt>
      <trkpt lat="43.98339" lon="2.12969">
        <ele>239.1</ele>
        <time>2017-04-20T11:02:57Z</time>
      </trkpt>
      <trkpt lat="43.98343" lon="2.12958">
        <ele>239.3</ele>
        <time>2017-04-20T11:02:59Z</time>
      </trkpt>
      <trkpt lat="43.98347" lon="2.12945">
        <ele>239.8</ele>
        <time>2017-04-20T11:03:01Z</time>
      </trkpt>
      <trkpt lat="43.98351" lon="2.12934">
        <ele>240.3</ele>
        <time>2017-04-20T11:03:03Z</time>
      </trkpt>
      <trkpt lat="43.98355" lon="2.12921">
        <ele>239.8</ele>
        <time>2017-04-20T11:03:05Z</time>
      </trkpt>
      <trkpt lat="43.98358" lon="2.1291">
        <ele>239.3</ele>
        <time>2017-04-20T11:03:07Z</time>
      </trkpt>
      <trkpt lat="43.9836" lon="2.12897">
        <ele>239.2</ele>
        <time>2017-04-20T11:03:09Z</time>
      </trkpt>
      <trkpt lat="43.98362" lon="2.12885">
        <ele>239.2</ele>
        <time>2017-04-20T11:03:11Z</time>
      </trkpt>
      <trkpt lat="43.98364" lon="2.12871">
        <ele>238.1</ele>
        <time>2017-04-20T11:03:13Z</time>
      </trkpt>
      <trkpt lat="43.98363" lon="2.12856">
        <ele>238</ele>
        <time>2017-04-20T11:03:15Z</time>
      </trkpt>
      <trkpt lat="43.9836" lon="2.12843">
        <ele>238.3</ele>
        <time>2017-04-20T11:03:17Z</time>
      </trkpt>
      <trkpt lat="43.98356" lon="2.12829">
        <ele>238</ele>
        <time>2017-04-20T11:03:19Z</time>
      </trkpt>
      <trkpt lat="43.98353" lon="2.12815">
        <ele>237.3</ele>
        <time>2017-04-20T11:03:21Z</time>
      </trkpt>
      <trkpt lat="43.98349" lon="2.12802">
        <ele>237.2</ele>
        <time>2017-04-20T11:03:23Z</time>
      </trkpt>
      <trkpt lat="43.98346" lon="2.12791">
        <ele>237.2</ele>
        <time>2017-04-20T11:03:25Z</time>
      </trkpt>
      <trkpt lat="43.98343" lon="2.12779">
        <ele>236.5</ele>
        <time>2017-04-20T11:03:27Z</time>
      </trkpt>
      <trkpt lat="43.98343" lon="2.12767">
        <ele>235.5</ele>
        <time>2017-04-20T11:03:29Z</time>
      </trkpt>
      <trkpt lat="43.98344" lon="2.12756">
        <ele>235.6</ele>
        <time>2017-04-20T11:03:31Z</time>
      </trkpt>
      <trkpt lat="43.98343" lon="2.12741">
        <ele>235</ele>
        <time>2017-04-20T11:03:34Z</time>
      </trkpt>
      <trkpt lat="43.98343" lon="2.1273">
        <ele>234.6</ele>
        <time>2017-04-20T11:03:36Z</time>
      </trkpt>
      <trkpt lat="43.98342" lon="2.12719">
        <ele>234.9</ele>
        <time>2017-04-20T11:03:39Z</time>
      </trkpt>
      <trkpt lat="43.98343" lon="2.12706">
        <ele>234.7</ele>
        <time>2017-04-20T11:03:43Z</time>
      </trkpt>
      <trkpt lat="43.98342" lon="2.12694">
        <ele>236.4</ele>
        <time>2017-04-20T11:03:47Z</time>
      </trkpt>
      <trkpt lat="43.98338" lon="2.12685">
        <ele>239.8</ele>
        <time>2017-04-20T11:03:51Z</time>
      </trkpt>
      <trkpt lat="43.98331" lon="2.12678">
        <ele>242.2</ele>
        <time>2017-04-20T11:03:55Z</time>
      </trkpt>
      <trkpt lat="43.98324" lon="2.12681">
        <ele>243.6</ele>
        <time>2017-04-20T11:03:59Z</time>
      </trkpt>
      <trkpt lat="43.98316" lon="2.12676">
        <ele>245.2</ele>
        <time>2017-04-20T11:04:04Z</time>
      </trkpt>
      <trkpt lat="43.98309" lon="2.12668">
        <ele>245.2</ele>
        <time>2017-04-20T11:04:07Z</time>
      </trkpt>
      <trkpt lat="43.98302" lon="2.12659">
        <ele>245.6</ele>
        <time>2017-04-20T11:04:10Z</time>
      </trkpt>
      <trkpt lat="43.98295" lon="2.12654">
        <ele>246.4</ele>
        <time>2017-04-20T11:04:13Z</time>
      </trkpt>
      <trkpt lat="43.98286" lon="2.12649">
        <ele>246.7</ele>
        <time>2017-04-20T11:04:16Z</time>
      </trkpt>
      <trkpt lat="43.98278" lon="2.12648">
        <ele>246.7</ele>
        <time>2017-04-20T11:04:18Z</time>
      </trkpt>
      <trkpt lat="43.9827" lon="2.12649">
        <ele>246</ele>
        <time>2017-04-20T11:04:20Z</time>
      </trkpt>
      <trkpt lat="43.98261" lon="2.12654">
        <ele>245.5</ele>
        <time>2017-04-20T11:04:22Z</time>
      </trkpt>
      <trkpt lat="43.98253" lon="2.12659">
        <ele>245.3</ele>
        <time>2017-04-20T11:04:24Z</time>
      </trkpt>
      <trkpt lat="43.98244" lon="2.12665">
        <ele>244.9</ele>
        <time>2017-04-20T11:04:26Z</time>
      </trkpt>
      <trkpt lat="43.98235" lon="2.1267">
        <ele>244.7</ele>
        <time>2017-04-20T11:04:28Z</time>
      </trkpt>
      <trkpt lat="43.98226" lon="2.12676">
        <ele>244.2</ele>
        <time>2017-04-20T11:04:30Z</time>
      </trkpt>
      <trkpt lat="43.98217" lon="2.12681">
        <ele>244.1</ele>
        <time>2017-04-20T11:04:32Z</time>
      </trkpt>
      <trkpt lat="43.98208" lon="2.12685">
        <ele>243.6</ele>
        <time>2017-04-20T11:04:34Z</time>
      </trkpt>
      <trkpt lat="43.982" lon="2.1269">
        <ele>243.2</ele>
        <time>2017-04-20T11:04:36Z</time>
      </trkpt>
      <trkpt lat="43.9819" lon="2.12694">
        <ele>242.5</ele>
        <time>2017-04-20T11:04:38Z</time>
      </trkpt>
      <trkpt lat="43.98179" lon="2.12696">
        <ele>241.4</ele>
        <time>2017-04-20T11:04:40Z</time>
      </trkpt>
      <trkpt lat="43.98169" lon="2.12699">
        <ele>240.8</ele>
        <time>2017-04-20T11:04:42Z</time>
      </trkpt>
      <trkpt lat="43.98159" lon="2.12704">
        <ele>239.9</ele>
        <time>2017-04-20T11:04:44Z</time>
      </trkpt>
      <trkpt lat="43.98151" lon="2.12711">
        <ele>240</ele>
        <time>2017-04-20T11:04:46Z</time>
      </trkpt>
      <trkpt lat="43.98143" lon="2.12716">
        <ele>239.2</ele>
        <time>2017-04-20T11:04:48Z</time>
      </trkpt>
      <trkpt lat="43.98134" lon="2.12722">
        <ele>237.4</ele>
        <time>2017-04-20T11:04:51Z</time>
      </trkpt>
      <trkpt lat="43.98125" lon="2.12723">
        <ele>236.2</ele>
        <time>2017-04-20T11:04:54Z</time>
      </trkpt>
      <trkpt lat="43.98115" lon="2.12721">
        <ele>234.5</ele>
        <time>2017-04-20T11:04:57Z</time>
      </trkpt>
      <trkpt lat="43.98104" lon="2.1272">
        <ele>232.5</ele>
        <time>2017-04-20T11:05:00Z</time>
      </trkpt>
      <trkpt lat="43.98096" lon="2.12719">
        <ele>230.7</ele>
        <time>2017-04-20T11:05:03Z</time>
      </trkpt>
      <trkpt lat="43.98088" lon="2.12721">
        <ele>227.8</ele>
        <time>2017-04-20T11:05:07Z</time>
      </trkpt>
      <trkpt lat="43.98083" lon="2.12732">
        <ele>224.3</ele>
        <time>2017-04-20T11:05:10Z</time>
      </trkpt>
      <trkpt lat="43.98077" lon="2.12737">
        <ele>221.4</ele>
        <time>2017-04-20T11:05:14Z</time>
      </trkpt>
      <trkpt lat="43.9807" lon="2.12729">
        <ele>218.8</ele>
        <time>2017-04-20T11:05:18Z</time>
      </trkpt>
      <trkpt lat="43.98063" lon="2.1272">
        <ele>216.4</ele>
        <time>2017-04-20T11:05:21Z</time>
      </trkpt>
      <trkpt lat="43.98056" lon="2.12717">
        <ele>213.7</ele>
        <time>2017-04-20T11:05:23Z</time>
      </trkpt>
      <trkpt lat="43.98046" lon="2.1272">
        <ele>212.7</ele>
        <time>2017-04-20T11:05:25Z</time>
      </trkpt>
      <trkpt lat="43.98036" lon="2.12728">
        <ele>211.8</ele>
        <time>2017-04-20T11:05:27Z</time>
      </trkpt>
      <trkpt lat="43.98026" lon="2.12737">
        <ele>210.3</ele>
        <time>2017-04-20T11:05:29Z</time>
      </trkpt>
      <trkpt lat="43.98015" lon="2.12743">
        <ele>208.9</ele>
        <time>2017-04-20T11:05:31Z</time>
      </trkpt>
      <trkpt lat="43.98005" lon="2.12748">
        <ele>207.4</ele>
        <time>2017-04-20T11:05:33Z</time>
      </trkpt>
      <trkpt lat="43.97996" lon="2.12753">
        <ele>205.6</ele>
        <time>2017-04-20T11:05:35Z</time>
      </trkpt>
      <trkpt lat="43.97988" lon="2.12758">
        <ele>204.3</ele>
        <time>2017-04-20T11:05:37Z</time>
      </trkpt>
      <trkpt lat="43.97982" lon="2.12764">
        <ele>203.8</ele>
        <time>2017-04-20T11:05:40Z</time>
      </trkpt>
      <trkpt lat="43.97974" lon="2.12773">
        <ele>202.2</ele>
        <time>2017-04-20T11:05:43Z</time>
      </trkpt>
      <trkpt lat="43.97968" lon="2.12778">
        <ele>200.8</ele>
        <time>2017-04-20T11:05:45Z</time>
      </trkpt>
      <trkpt lat="43.9796" lon="2.12786">
        <ele>200.8</ele>
        <time>2017-04-20T11:05:48Z</time>
      </trkpt>
      <trkpt lat="43.97951" lon="2.12795">
        <ele>198.3</ele>
        <time>2017-04-20T11:05:51Z</time>
      </trkpt>
      <trkpt lat="43.97943" lon="2.12801">
        <ele>196.9</ele>
        <time>2017-04-20T11:05:53Z</time>
      </trkpt>
      <trkpt lat="43.97937" lon="2.12807">
        <ele>196.8</ele>
        <time>2017-04-20T11:05:55Z</time>
      </trkpt>
      <trkpt lat="43.97929" lon="2.1281">
        <ele>195.2</ele>
        <time>2017-04-20T11:05:57Z</time>
      </trkpt>
      <trkpt lat="43.97921" lon="2.12814">
        <ele>193.7</ele>
        <time>2017-04-20T11:05:59Z</time>
      </trkpt>
      <trkpt lat="43.97912" lon="2.12818">
        <ele>193.3</ele>
        <time>2017-04-20T11:06:01Z</time>
      </trkpt>
      <trkpt lat="43.97906" lon="2.12827">
        <ele>192.6</ele>
        <time>2017-04-20T11:06:03Z</time>
      </trkpt>
      <trkpt lat="43.97904" lon="2.12837">
        <ele>192.1</ele>
        <time>2017-04-20T11:06:05Z</time>
      </trkpt>
      <trkpt lat="43.979" lon="2.12847">
        <ele>192.6</ele>
        <time>2017-04-20T11:06:07Z</time>
      </trkpt>
      <trkpt lat="43.97894" lon="2.12858">
        <ele>192.9</ele>
        <time>2017-04-20T11:06:09Z</time>
      </trkpt>
      <trkpt lat="43.97887" lon="2.1287">
        <ele>193.9</ele>
        <time>2017-04-20T11:06:11Z</time>
      </trkpt>
      <trkpt lat="43.97882" lon="2.1288">
        <ele>192.1</ele>
        <time>2017-04-20T11:06:13Z</time>
      </trkpt>
      <trkpt lat="43.97878" lon="2.12889">
        <ele>191.3</ele>
        <time>2017-04-20T11:06:15Z</time>
      </trkpt>
      <trkpt lat="43.9787" lon="2.12898">
        <ele>191.6</ele>
        <time>2017-04-20T11:06:18Z</time>
      </trkpt>
      <trkpt lat="43.97863" lon="2.12905">
        <ele>193.1</ele>
        <time>2017-04-20T11:06:21Z</time>
      </trkpt>
      <trkpt lat="43.97854" lon="2.12911">
        <ele>192.9</ele>
        <time>2017-04-20T11:06:24Z</time>
      </trkpt>
      <trkpt lat="43.97844" lon="2.12915">
        <ele>191.1</ele>
        <time>2017-04-20T11:06:27Z</time>
      </trkpt>
      <trkpt lat="43.97837" lon="2.12919">
        <ele>191.4</ele>
        <time>2017-04-20T11:06:29Z</time>
      </trkpt>
      <trkpt lat="43.97829" lon="2.12923">
        <ele>189.6</ele>
        <time>2017-04-20T11:06:31Z</time>
      </trkpt>
      <trkpt lat="43.97819" lon="2.12926">
        <ele>191.1</ele>
        <time>2017-04-20T11:06:34Z</time>
      </trkpt>
      <trkpt lat="43.97811" lon="2.12928">
        <ele>190.4</ele>
        <time>2017-04-20T11:06:36Z</time>
      </trkpt>
      <trkpt lat="43.97801" lon="2.12928">
        <ele>190.7</ele>
        <time>2017-04-20T11:06:39Z</time>
      </trkpt>
      <trkpt lat="43.9779" lon="2.12929">
        <ele>191</ele>
        <time>2017-04-20T11:06:42Z</time>
      </trkpt>
      <trkpt lat="43.9778" lon="2.12926">
        <ele>190.2</ele>
        <time>2017-04-20T11:06:45Z</time>
      </trkpt>
      <trkpt lat="43.97772" lon="2.12925">
        <ele>190.1</ele>
        <time>2017-04-20T11:06:47Z</time>
      </trkpt>
      <trkpt lat="43.97763" lon="2.12924">
        <ele>189.7</ele>
        <time>2017-04-20T11:06:49Z</time>
      </trkpt>
      <trkpt lat="43.97754" lon="2.1292">
        <ele>189.4</ele>
        <time>2017-04-20T11:06:51Z</time>
      </trkpt>
      <trkpt lat="43.97744" lon="2.12918">
        <ele>190.2</ele>
        <time>2017-04-20T11:06:53Z</time>
      </trkpt>
      <trkpt lat="43.97735" lon="2.12914">
        <ele>189.4</ele>
        <time>2017-04-20T11:06:55Z</time>
      </trkpt>
      <trkpt lat="43.97722" lon="2.12912">
        <ele>189.2</ele>
        <time>2017-04-20T11:06:57Z</time>
      </trkpt>
      <trkpt lat="43.97709" lon="2.1291">
        <ele>188.8</ele>
        <time>2017-04-20T11:06:59Z</time>
      </trkpt>
      <trkpt lat="43.97697" lon="2.12909">
        <ele>188.8</ele>
        <time>2017-04-20T11:07:01Z</time>
      </trkpt>
      <trkpt lat="43.97685" lon="2.12909">
        <ele>188.8</ele>
        <time>2017-04-20T11:07:03Z</time>
      </trkpt>
      <trkpt lat="43.97673" lon="2.12911">
        <ele>188.3</ele>
        <time>2017-04-20T11:07:05Z</time>
      </trkpt>
      <trkpt lat="43.97662" lon="2.12913">
        <ele>187.9</ele>
        <time>2017-04-20T11:07:07Z</time>
      </trkpt>
      <trkpt lat="43.97652" lon="2.12916">
        <ele>187.1</ele>
        <time>2017-04-20T11:07:09Z</time>
      </trkpt>
      <trkpt lat="43.97645" lon="2.12918">
        <ele>187.9</ele>
        <time>2017-04-20T11:07:10Z</time>
      </trkpt>
      <trkpt lat="43.97632" lon="2.12923">
        <ele>187.1</ele>
        <time>2017-04-20T11:07:12Z</time>
      </trkpt>
      <trkpt lat="43.97619" lon="2.12926">
        <ele>186.2</ele>
        <time>2017-04-20T11:07:14Z</time>
      </trkpt>
      <trkpt lat="43.97606" lon="2.12929">
        <ele>186.1</ele>
        <time>2017-04-20T11:07:16Z</time>
      </trkpt>
      <trkpt lat="43.97594" lon="2.12932">
        <ele>185.7</ele>
        <time>2017-04-20T11:07:18Z</time>
      </trkpt>
      <trkpt lat="43.9758" lon="2.12933">
        <ele>186</ele>
        <time>2017-04-20T11:07:20Z</time>
      </trkpt>
      <trkpt lat="43.97567" lon="2.12932">
        <ele>186.3</ele>
        <time>2017-04-20T11:07:22Z</time>
      </trkpt>
      <trkpt lat="43.97554" lon="2.1293">
        <ele>187</ele>
        <time>2017-04-20T11:07:24Z</time>
      </trkpt>
      <trkpt lat="43.97542" lon="2.12928">
        <ele>187.8</ele>
        <time>2017-04-20T11:07:26Z</time>
      </trkpt>
      <trkpt lat="43.97532" lon="2.12924">
        <ele>189.9</ele>
        <time>2017-04-20T11:07:28Z</time>
      </trkpt>
      <trkpt lat="43.97522" lon="2.12919">
        <ele>190.9</ele>
        <time>2017-04-20T11:07:30Z</time>
      </trkpt>
      <trkpt lat="43.9751" lon="2.12912">
        <ele>192.2</ele>
        <time>2017-04-20T11:07:32Z</time>
      </trkpt>
      <trkpt lat="43.97497" lon="2.12908">
        <ele>193.2</ele>
        <time>2017-04-20T11:07:34Z</time>
      </trkpt>
      <trkpt lat="43.97484" lon="2.12903">
        <ele>194</ele>
        <time>2017-04-20T11:07:36Z</time>
      </trkpt>
      <trkpt lat="43.97472" lon="2.129">
        <ele>194.7</ele>
        <time>2017-04-20T11:07:38Z</time>
      </trkpt>
      <trkpt lat="43.97459" lon="2.12897">
        <ele>196.3</ele>
        <time>2017-04-20T11:07:40Z</time>
      </trkpt>
      <trkpt lat="43.97446" lon="2.12894">
        <ele>196.9</ele>
        <time>2017-04-20T11:07:42Z</time>
      </trkpt>
      <trkpt lat="43.97434" lon="2.12892">
        <ele>197.7</ele>
        <time>2017-04-20T11:07:44Z</time>
      </trkpt>
      <trkpt lat="43.97422" lon="2.1289">
        <ele>198</ele>
        <time>2017-04-20T11:07:46Z</time>
      </trkpt>
      <trkpt lat="43.9741" lon="2.1289">
        <ele>198.7</ele>
        <time>2017-04-20T11:07:48Z</time>
      </trkpt>
      <trkpt lat="43.97397" lon="2.12889">
        <ele>199.1</ele>
        <time>2017-04-20T11:07:50Z</time>
      </trkpt>
      <trkpt lat="43.97384" lon="2.12891">
        <ele>198.2</ele>
        <time>2017-04-20T11:07:52Z</time>
      </trkpt>
      <trkpt lat="43.9737" lon="2.12894">
        <ele>197.5</ele>
        <time>2017-04-20T11:07:54Z</time>
      </trkpt>
      <trkpt lat="43.97356" lon="2.12899">
        <ele>197.6</ele>
        <time>2017-04-20T11:07:56Z</time>
      </trkpt>
      <trkpt lat="43.97343" lon="2.12902">
        <ele>197.1</ele>
        <time>2017-04-20T11:07:58Z</time>
      </trkpt>
      <trkpt lat="43.97331" lon="2.12908">
        <ele>197.9</ele>
        <time>2017-04-20T11:08:00Z</time>
      </trkpt>
      <trkpt lat="43.97319" lon="2.12912">
        <ele>198.1</ele>
        <time>2017-04-20T11:08:02Z</time>
      </trkpt>
      <trkpt lat="43.97308" lon="2.12916">
        <ele>198.2</ele>
        <time>2017-04-20T11:08:04Z</time>
      </trkpt>
      <trkpt lat="43.97296" lon="2.12921">
        <ele>198.1</ele>
        <time>2017-04-20T11:08:06Z</time>
      </trkpt>
      <trkpt lat="43.97283" lon="2.12926">
        <ele>198.2</ele>
        <time>2017-04-20T11:08:08Z</time>
      </trkpt>
      <trkpt lat="43.97271" lon="2.12932">
        <ele>198.3</ele>
        <time>2017-04-20T11:08:10Z</time>
      </trkpt>
      <trkpt lat="43.97259" lon="2.1294">
        <ele>198.5</ele>
        <time>2017-04-20T11:08:12Z</time>
      </trkpt>
      <trkpt lat="43.97253" lon="2.12945">
        <ele>198.1</ele>
        <time>2017-04-20T11:08:13Z</time>
      </trkpt>
      <trkpt lat="43.97241" lon="2.12954">
        <ele>197.4</ele>
        <time>2017-04-20T11:08:15Z</time>
      </trkpt>
      <trkpt lat="43.97229" lon="2.12963">
        <ele>196.8</ele>
        <time>2017-04-20T11:08:17Z</time>
      </trkpt>
      <trkpt lat="43.97218" lon="2.12973">
        <ele>196.2</ele>
        <time>2017-04-20T11:08:19Z</time>
      </trkpt>
      <trkpt lat="43.97207" lon="2.12981">
        <ele>195.5</ele>
        <time>2017-04-20T11:08:21Z</time>
      </trkpt>
      <trkpt lat="43.97195" lon="2.12989">
        <ele>194.7</ele>
        <time>2017-04-20T11:08:23Z</time>
      </trkpt>
      <trkpt lat="43.97183" lon="2.12996">
        <ele>194.2</ele>
        <time>2017-04-20T11:08:25Z</time>
      </trkpt>
      <trkpt lat="43.9717" lon="2.13001">
        <ele>193.6</ele>
        <time>2017-04-20T11:08:27Z</time>
      </trkpt>
      <trkpt lat="43.97158" lon="2.13007">
        <ele>191.9</ele>
        <time>2017-04-20T11:08:29Z</time>
      </trkpt>
      <trkpt lat="43.97146" lon="2.13015">
        <ele>191.4</ele>
        <time>2017-04-20T11:08:31Z</time>
      </trkpt>
      <trkpt lat="43.97134" lon="2.13022">
        <ele>191.4</ele>
        <time>2017-04-20T11:08:33Z</time>
      </trkpt>
      <trkpt lat="43.97123" lon="2.13031">
        <ele>190.4</ele>
        <time>2017-04-20T11:08:35Z</time>
      </trkpt>
      <trkpt lat="43.97113" lon="2.13041">
        <ele>190.3</ele>
        <time>2017-04-20T11:08:37Z</time>
      </trkpt>
      <trkpt lat="43.97102" lon="2.1305">
        <ele>189.7</ele>
        <time>2017-04-20T11:08:39Z</time>
      </trkpt>
      <trkpt lat="43.9709" lon="2.13059">
        <ele>189.7</ele>
        <time>2017-04-20T11:08:41Z</time>
      </trkpt>
      <trkpt lat="43.97078" lon="2.13069">
        <ele>188.9</ele>
        <time>2017-04-20T11:08:43Z</time>
      </trkpt>
      <trkpt lat="43.97071" lon="2.13074">
        <ele>188.5</ele>
        <time>2017-04-20T11:08:44Z</time>
      </trkpt>
      <trkpt lat="43.97064" lon="2.13079">
        <ele>188.2</ele>
        <time>2017-04-20T11:08:45Z</time>
      </trkpt>
      <trkpt lat="43.97057" lon="2.13083">
        <ele>188</ele>
        <time>2017-04-20T11:08:46Z</time>
      </trkpt>
      <trkpt lat="43.9705" lon="2.13088">
        <ele>188.1</ele>
        <time>2017-04-20T11:08:47Z</time>
      </trkpt>
      <trkpt lat="43.97043" lon="2.13093">
        <ele>188.4</ele>
        <time>2017-04-20T11:08:48Z</time>
      </trkpt>
      <trkpt lat="43.97035" lon="2.13097">
        <ele>188.6</ele>
        <time>2017-04-20T11:08:49Z</time>
      </trkpt>
      <trkpt lat="43.97028" lon="2.13101">
        <ele>188.4</ele>
        <time>2017-04-20T11:08:50Z</time>
      </trkpt>
      <trkpt lat="43.97021" lon="2.13106">
        <ele>188.6</ele>
        <time>2017-04-20T11:08:51Z</time>
      </trkpt>
      <trkpt lat="43.97014" lon="2.1311">
        <ele>189</ele>
        <time>2017-04-20T11:08:52Z</time>
      </trkpt>
      <trkpt lat="43.97007" lon="2.13116">
        <ele>189.2</ele>
        <time>2017-04-20T11:08:53Z</time>
      </trkpt>
      <trkpt lat="43.97" lon="2.13121">
        <ele>188.8</ele>
        <time>2017-04-20T11:08:54Z</time>
      </trkpt>
      <trkpt lat="43.96993" lon="2.13125">
        <ele>188.8</ele>
        <time>2017-04-20T11:08:55Z</time>
      </trkpt>
      <trkpt lat="43.96986" lon="2.13129">
        <ele>188.6</ele>
        <time>2017-04-20T11:08:56Z</time>
      </trkpt>
      <trkpt lat="43.96979" lon="2.13132">
        <ele>188.3</ele>
        <time>2017-04-20T11:08:57Z</time>
      </trkpt>
      <trkpt lat="43.96967" lon="2.13136">
        <ele>187.9</ele>
        <time>2017-04-20T11:08:59Z</time>
      </trkpt>
      <trkpt lat="43.96954" lon="2.13141">
        <ele>186.8</ele>
        <time>2017-04-20T11:09:01Z</time>
      </trkpt>
      <trkpt lat="43.96941" lon="2.13147">
        <ele>185.9</ele>
        <time>2017-04-20T11:09:03Z</time>
      </trkpt>
      <trkpt lat="43.96928" lon="2.13152">
        <ele>184.7</ele>
        <time>2017-04-20T11:09:05Z</time>
      </trkpt>
      <trkpt lat="43.96915" lon="2.13159">
        <ele>183.5</ele>
        <time>2017-04-20T11:09:07Z</time>
      </trkpt>
      <trkpt lat="43.96903" lon="2.13165">
        <ele>182.6</ele>
        <time>2017-04-20T11:09:09Z</time>
      </trkpt>
      <trkpt lat="43.96889" lon="2.13171">
        <ele>181.8</ele>
        <time>2017-04-20T11:09:11Z</time>
      </trkpt>
      <trkpt lat="43.96882" lon="2.13175">
        <ele>181.3</ele>
        <time>2017-04-20T11:09:12Z</time>
      </trkpt>
      <trkpt lat="43.96875" lon="2.13177">
        <ele>181.1</ele>
        <time>2017-04-20T11:09:13Z</time>
      </trkpt>
      <trkpt lat="43.96868" lon="2.13179">
        <ele>180.6</ele>
        <time>2017-04-20T11:09:14Z</time>
      </trkpt>
      <trkpt lat="43.9686" lon="2.13182">
        <ele>179.7</ele>
        <time>2017-04-20T11:09:15Z</time>
      </trkpt>
      <trkpt lat="43.96852" lon="2.13185">
        <ele>179.1</ele>
        <time>2017-04-20T11:09:16Z</time>
      </trkpt>
      <trkpt lat="43.96845" lon="2.13187">
        <ele>178.6</ele>
        <time>2017-04-20T11:09:17Z</time>
      </trkpt>
      <trkpt lat="43.96832" lon="2.13194">
        <ele>177.7</ele>
        <time>2017-04-20T11:09:19Z</time>
      </trkpt>
      <trkpt lat="43.96818" lon="2.13201">
        <ele>176.5</ele>
        <time>2017-04-20T11:09:21Z</time>
      </trkpt>
      <trkpt lat="43.96804" lon="2.13206">
        <ele>175.7</ele>
        <time>2017-04-20T11:09:23Z</time>
      </trkpt>
      <trkpt lat="43.96797" lon="2.1321">
        <ele>175.3</ele>
        <time>2017-04-20T11:09:24Z</time>
      </trkpt>
      <trkpt lat="43.96784" lon="2.13217">
        <ele>174.7</ele>
        <time>2017-04-20T11:09:26Z</time>
      </trkpt>
      <trkpt lat="43.96777" lon="2.13222">
        <ele>174.3</ele>
        <time>2017-04-20T11:09:27Z</time>
      </trkpt>
      <trkpt lat="43.96764" lon="2.13229">
        <ele>174.8</ele>
        <time>2017-04-20T11:09:29Z</time>
      </trkpt>
      <trkpt lat="43.9675" lon="2.13234">
        <ele>175.1</ele>
        <time>2017-04-20T11:09:31Z</time>
      </trkpt>
      <trkpt lat="43.96742" lon="2.13237">
        <ele>174.7</ele>
        <time>2017-04-20T11:09:32Z</time>
      </trkpt>
      <trkpt lat="43.96728" lon="2.13242">
        <ele>173.9</ele>
        <time>2017-04-20T11:09:34Z</time>
      </trkpt>
      <trkpt lat="43.96716" lon="2.13249">
        <ele>173.4</ele>
        <time>2017-04-20T11:09:36Z</time>
      </trkpt>
      <trkpt lat="43.96703" lon="2.13255">
        <ele>172.9</ele>
        <time>2017-04-20T11:09:38Z</time>
      </trkpt>
      <trkpt lat="43.9669" lon="2.1326">
        <ele>171.7</ele>
        <time>2017-04-20T11:09:40Z</time>
      </trkpt>
      <trkpt lat="43.96678" lon="2.13268">
        <ele>171.6</ele>
        <time>2017-04-20T11:09:42Z</time>
      </trkpt>
      <trkpt lat="43.96665" lon="2.13274">
        <ele>170.7</ele>
        <time>2017-04-20T11:09:44Z</time>
      </trkpt>
      <trkpt lat="43.96658" lon="2.13277">
        <ele>170</ele>
        <time>2017-04-20T11:09:45Z</time>
      </trkpt>
      <trkpt lat="43.9665" lon="2.1328">
        <ele>169.5</ele>
        <time>2017-04-20T11:09:46Z</time>
      </trkpt>
      <trkpt lat="43.96638" lon="2.13286">
        <ele>168.7</ele>
        <time>2017-04-20T11:09:48Z</time>
      </trkpt>
      <trkpt lat="43.96626" lon="2.13294">
        <ele>168.1</ele>
        <time>2017-04-20T11:09:50Z</time>
      </trkpt>
      <trkpt lat="43.96613" lon="2.13302">
        <ele>167.9</ele>
        <time>2017-04-20T11:09:52Z</time>
      </trkpt>
      <trkpt lat="43.96602" lon="2.13309">
        <ele>168.1</ele>
        <time>2017-04-20T11:09:54Z</time>
      </trkpt>
      <trkpt lat="43.96592" lon="2.13315">
        <ele>168.3</ele>
        <time>2017-04-20T11:09:56Z</time>
      </trkpt>
      <trkpt lat="43.96581" lon="2.1332">
        <ele>168.1</ele>
        <time>2017-04-20T11:09:58Z</time>
      </trkpt>
      <trkpt lat="43.96571" lon="2.13326">
        <ele>168.1</ele>
        <time>2017-04-20T11:10:00Z</time>
      </trkpt>
      <trkpt lat="43.9656" lon="2.13332">
        <ele>167.5</ele>
        <time>2017-04-20T11:10:02Z</time>
      </trkpt>
      <trkpt lat="43.96549" lon="2.13339">
        <ele>167.6</ele>
        <time>2017-04-20T11:10:04Z</time>
      </trkpt>
      <trkpt lat="43.96537" lon="2.13348">
        <ele>167.3</ele>
        <time>2017-04-20T11:10:06Z</time>
      </trkpt>
      <trkpt lat="43.96531" lon="2.13353">
        <ele>166.8</ele>
        <time>2017-04-20T11:10:07Z</time>
      </trkpt>
      <trkpt lat="43.96525" lon="2.13358">
        <ele>166.3</ele>
        <time>2017-04-20T11:10:08Z</time>
      </trkpt>
      <trkpt lat="43.96513" lon="2.13368">
        <ele>165.4</ele>
        <time>2017-04-20T11:10:10Z</time>
      </trkpt>
      <trkpt lat="43.96507" lon="2.13374">
        <ele>165.1</ele>
        <time>2017-04-20T11:10:11Z</time>
      </trkpt>
      <trkpt lat="43.96501" lon="2.1338">
        <ele>164.6</ele>
        <time>2017-04-20T11:10:12Z</time>
      </trkpt>
      <trkpt lat="43.9649" lon="2.13392">
        <ele>163.3</ele>
        <time>2017-04-20T11:10:14Z</time>
      </trkpt>
      <trkpt lat="43.9648" lon="2.13404">
        <ele>162.2</ele>
        <time>2017-04-20T11:10:16Z</time>
      </trkpt>
      <trkpt lat="43.96473" lon="2.13417">
        <ele>162.5</ele>
        <time>2017-04-20T11:10:18Z</time>
      </trkpt>
      <trkpt lat="43.96464" lon="2.13428">
        <ele>162.2</ele>
        <time>2017-04-20T11:10:20Z</time>
      </trkpt>
      <trkpt lat="43.96456" lon="2.13436">
        <ele>162.8</ele>
        <time>2017-04-20T11:10:22Z</time>
      </trkpt>
      <trkpt lat="43.9645" lon="2.13444">
        <ele>163.2</ele>
        <time>2017-04-20T11:10:24Z</time>
      </trkpt>
      <trkpt lat="43.96442" lon="2.1345">
        <ele>163</ele>
        <time>2017-04-20T11:10:27Z</time>
      </trkpt>
      <trkpt lat="43.96435" lon="2.13455">
        <ele>162.7</ele>
        <time>2017-04-20T11:10:31Z</time>
      </trkpt>
      <trkpt lat="43.96428" lon="2.13465">
        <ele>162.7</ele>
        <time>2017-04-20T11:10:34Z</time>
      </trkpt>
      <trkpt lat="43.9642" lon="2.1347">
        <ele>163</ele>
        <time>2017-04-20T11:10:37Z</time>
      </trkpt>
      <trkpt lat="43.96413" lon="2.13473">
        <ele>162.9</ele>
        <time>2017-04-20T11:10:39Z</time>
      </trkpt>
      <trkpt lat="43.96403" lon="2.13476">
        <ele>163.7</ele>
        <time>2017-04-20T11:10:42Z</time>
      </trkpt>
      <trkpt lat="43.96392" lon="2.13479">
        <ele>164.7</ele>
        <time>2017-04-20T11:10:45Z</time>
      </trkpt>
      <trkpt lat="43.96382" lon="2.13481">
        <ele>165.1</ele>
        <time>2017-04-20T11:10:48Z</time>
      </trkpt>
      <trkpt lat="43.96372" lon="2.13481">
        <ele>165.1</ele>
        <time>2017-04-20T11:10:51Z</time>
      </trkpt>
      <trkpt lat="43.96361" lon="2.13479">
        <ele>166.2</ele>
        <time>2017-04-20T11:10:54Z</time>
      </trkpt>
      <trkpt lat="43.96353" lon="2.13476">
        <ele>167.3</ele>
        <time>2017-04-20T11:10:56Z</time>
      </trkpt>
      <trkpt lat="43.96347" lon="2.13474">
        <ele>167.5</ele>
        <time>2017-04-20T11:10:58Z</time>
      </trkpt>
      <trkpt lat="43.96339" lon="2.1347">
        <ele>167.6</ele>
        <time>2017-04-20T11:11:00Z</time>
      </trkpt>
      <trkpt lat="43.96332" lon="2.13465">
        <ele>166.8</ele>
        <time>2017-04-20T11:11:02Z</time>
      </trkpt>
      <trkpt lat="43.96324" lon="2.13458">
        <ele>165.5</ele>
        <time>2017-04-20T11:11:04Z</time>
      </trkpt>
      <trkpt lat="43.96318" lon="2.13452">
        <ele>165.1</ele>
        <time>2017-04-20T11:11:06Z</time>
      </trkpt>
      <trkpt lat="43.96313" lon="2.13445">
        <ele>164.7</ele>
        <time>2017-04-20T11:11:08Z</time>
      </trkpt>
      <trkpt lat="43.96307" lon="2.13437">
        <ele>163</ele>
        <time>2017-04-20T11:11:10Z</time>
      </trkpt>
      <trkpt lat="43.963" lon="2.13428">
        <ele>161.7</ele>
        <time>2017-04-20T11:11:12Z</time>
      </trkpt>
      <trkpt lat="43.96292" lon="2.13417">
        <ele>160.9</ele>
        <time>2017-04-20T11:11:14Z</time>
      </trkpt>
      <trkpt lat="43.96283" lon="2.13404">
        <ele>161.2</ele>
        <time>2017-04-20T11:11:16Z</time>
      </trkpt>
      <trkpt lat="43.96276" lon="2.13394">
        <ele>161.2</ele>
        <time>2017-04-20T11:11:18Z</time>
      </trkpt>
      <trkpt lat="43.9627" lon="2.13383">
        <ele>162.1</ele>
        <time>2017-04-20T11:11:20Z</time>
      </trkpt>
      <trkpt lat="43.96262" lon="2.13371">
        <ele>163</ele>
        <time>2017-04-20T11:11:22Z</time>
      </trkpt>
      <trkpt lat="43.96254" lon="2.13359">
        <ele>163.7</ele>
        <time>2017-04-20T11:11:24Z</time>
      </trkpt>
      <trkpt lat="43.96246" lon="2.13347">
        <ele>164.7</ele>
        <time>2017-04-20T11:11:26Z</time>
      </trkpt>
      <trkpt lat="43.96238" lon="2.13336">
        <ele>165.6</ele>
        <time>2017-04-20T11:11:28Z</time>
      </trkpt>
      <trkpt lat="43.9623" lon="2.13325">
        <ele>165.8</ele>
        <time>2017-04-20T11:11:30Z</time>
      </trkpt>
      <trkpt lat="43.96224" lon="2.13315">
        <ele>166.2</ele>
        <time>2017-04-20T11:11:32Z</time>
      </trkpt>
      <trkpt lat="43.96217" lon="2.13305">
        <ele>166.4</ele>
        <time>2017-04-20T11:11:34Z</time>
      </trkpt>
      <trkpt lat="43.9621" lon="2.13295">
        <ele>165.7</ele>
        <time>2017-04-20T11:11:36Z</time>
      </trkpt>
      <trkpt lat="43.96202" lon="2.13285">
        <ele>166.2</ele>
        <time>2017-04-20T11:11:38Z</time>
      </trkpt>
      <trkpt lat="43.96195" lon="2.13275">
        <ele>166.4</ele>
        <time>2017-04-20T11:11:40Z</time>
      </trkpt>
      <trkpt lat="43.96188" lon="2.13267">
        <ele>166.2</ele>
        <time>2017-04-20T11:11:42Z</time>
      </trkpt>
      <trkpt lat="43.96179" lon="2.13257">
        <ele>165.7</ele>
        <time>2017-04-20T11:11:44Z</time>
      </trkpt>
      <trkpt lat="43.9617" lon="2.13248">
        <ele>165.6</ele>
        <time>2017-04-20T11:11:46Z</time>
      </trkpt>
      <trkpt lat="43.96161" lon="2.1324">
        <ele>165.6</ele>
        <time>2017-04-20T11:11:48Z</time>
      </trkpt>
      <trkpt lat="43.96152" lon="2.13232">
        <ele>165.9</ele>
        <time>2017-04-20T11:11:50Z</time>
      </trkpt>
      <trkpt lat="43.96143" lon="2.13224">
        <ele>165.9</ele>
        <time>2017-04-20T11:11:52Z</time>
      </trkpt>
      <trkpt lat="43.96133" lon="2.13215">
        <ele>166</ele>
        <time>2017-04-20T11:11:54Z</time>
      </trkpt>
      <trkpt lat="43.96125" lon="2.13208">
        <ele>165.2</ele>
        <time>2017-04-20T11:11:56Z</time>
      </trkpt>
      <trkpt lat="43.96115" lon="2.13201">
        <ele>165</ele>
        <time>2017-04-20T11:11:58Z</time>
      </trkpt>
      <trkpt lat="43.96106" lon="2.13194">
        <ele>164.2</ele>
        <time>2017-04-20T11:12:00Z</time>
      </trkpt>
      <trkpt lat="43.96097" lon="2.13186">
        <ele>164</ele>
        <time>2017-04-20T11:12:02Z</time>
      </trkpt>
      <trkpt lat="43.96088" lon="2.13179">
        <ele>163.7</ele>
        <time>2017-04-20T11:12:04Z</time>
      </trkpt>
      <trkpt lat="43.96078" lon="2.13171">
        <ele>163.3</ele>
        <time>2017-04-20T11:12:06Z</time>
      </trkpt>
      <trkpt lat="43.96069" lon="2.13163">
        <ele>164.2</ele>
        <time>2017-04-20T11:12:08Z</time>
      </trkpt>
      <trkpt lat="43.96061" lon="2.13155">
        <ele>164.1</ele>
        <time>2017-04-20T11:12:10Z</time>
      </trkpt>
      <trkpt lat="43.96052" lon="2.13148">
        <ele>164.2</ele>
        <time>2017-04-20T11:12:12Z</time>
      </trkpt>
      <trkpt lat="43.96043" lon="2.1314">
        <ele>163.4</ele>
        <time>2017-04-20T11:12:14Z</time>
      </trkpt>
      <trkpt lat="43.96034" lon="2.13131">
        <ele>163.4</ele>
        <time>2017-04-20T11:12:16Z</time>
      </trkpt>
      <trkpt lat="43.96025" lon="2.13124">
        <ele>163.4</ele>
        <time>2017-04-20T11:12:18Z</time>
      </trkpt>
      <trkpt lat="43.96016" lon="2.13115">
        <ele>163.1</ele>
        <time>2017-04-20T11:12:20Z</time>
      </trkpt>
      <trkpt lat="43.96006" lon="2.13107">
        <ele>162.7</ele>
        <time>2017-04-20T11:12:22Z</time>
      </trkpt>
      <trkpt lat="43.95997" lon="2.13099">
        <ele>162.6</ele>
        <time>2017-04-20T11:12:24Z</time>
      </trkpt>
      <trkpt lat="43.95989" lon="2.1309">
        <ele>162.4</ele>
        <time>2017-04-20T11:12:26Z</time>
      </trkpt>
      <trkpt lat="43.95983" lon="2.13081">
        <ele>161.9</ele>
        <time>2017-04-20T11:12:28Z</time>
      </trkpt>
      <trkpt lat="43.95976" lon="2.13074">
        <ele>161.4</ele>
        <time>2017-04-20T11:12:30Z</time>
      </trkpt>
      <trkpt lat="43.95967" lon="2.13067">
        <ele>160.9</ele>
        <time>2017-04-20T11:12:32Z</time>
      </trkpt>
      <trkpt lat="43.95958" lon="2.13058">
        <ele>161.2</ele>
        <time>2017-04-20T11:12:34Z</time>
      </trkpt>
      <trkpt lat="43.95948" lon="2.13051">
        <ele>161.1</ele>
        <time>2017-04-20T11:12:36Z</time>
      </trkpt>
      <trkpt lat="43.95938" lon="2.13044">
        <ele>160.5</ele>
        <time>2017-04-20T11:12:38Z</time>
      </trkpt>
      <trkpt lat="43.95929" lon="2.13039">
        <ele>160.3</ele>
        <time>2017-04-20T11:12:40Z</time>
      </trkpt>
      <trkpt lat="43.95919" lon="2.13034">
        <ele>160.8</ele>
        <time>2017-04-20T11:12:42Z</time>
      </trkpt>
      <trkpt lat="43.95909" lon="2.13031">
        <ele>160.9</ele>
        <time>2017-04-20T11:12:44Z</time>
      </trkpt>
      <trkpt lat="43.95898" lon="2.13031">
        <ele>162.1</ele>
        <time>2017-04-20T11:12:46Z</time>
      </trkpt>
      <trkpt lat="43.95886" lon="2.13031">
        <ele>163.1</ele>
        <time>2017-04-20T11:12:48Z</time>
      </trkpt>
      <trkpt lat="43.95874" lon="2.13029">
        <ele>164.9</ele>
        <time>2017-04-20T11:12:50Z</time>
      </trkpt>
      <trkpt lat="43.95861" lon="2.13029">
        <ele>166.3</ele>
        <time>2017-04-20T11:12:52Z</time>
      </trkpt>
      <trkpt lat="43.95849" lon="2.13029">
        <ele>167.5</ele>
        <time>2017-04-20T11:12:54Z</time>
      </trkpt>
      <trkpt lat="43.95837" lon="2.13032">
        <ele>168.5</ele>
        <time>2017-04-20T11:12:56Z</time>
      </trkpt>
      <trkpt lat="43.95826" lon="2.13033">
        <ele>168.2</ele>
        <time>2017-04-20T11:12:58Z</time>
      </trkpt>
      <trkpt lat="43.95815" lon="2.13035">
        <ele>168.3</ele>
        <time>2017-04-20T11:13:00Z</time>
      </trkpt>
      <trkpt lat="43.95804" lon="2.13037">
        <ele>168.6</ele>
        <time>2017-04-20T11:13:02Z</time>
      </trkpt>
      <trkpt lat="43.95792" lon="2.1304">
        <ele>168.4</ele>
        <time>2017-04-20T11:13:04Z</time>
      </trkpt>
      <trkpt lat="43.95781" lon="2.13043">
        <ele>168.6</ele>
        <time>2017-04-20T11:13:06Z</time>
      </trkpt>
      <trkpt lat="43.95769" lon="2.13045">
        <ele>168.4</ele>
        <time>2017-04-20T11:13:08Z</time>
      </trkpt>
      <trkpt lat="43.95757" lon="2.13048">
        <ele>167.5</ele>
        <time>2017-04-20T11:13:10Z</time>
      </trkpt>
      <trkpt lat="43.95746" lon="2.13051">
        <ele>166.9</ele>
        <time>2017-04-20T11:13:12Z</time>
      </trkpt>
      <trkpt lat="43.95734" lon="2.13052">
        <ele>165.9</ele>
        <time>2017-04-20T11:13:14Z</time>
      </trkpt>
      <trkpt lat="43.95722" lon="2.13054">
        <ele>165.5</ele>
        <time>2017-04-20T11:13:16Z</time>
      </trkpt>
      <trkpt lat="43.95711" lon="2.13058">
        <ele>165.3</ele>
        <time>2017-04-20T11:13:18Z</time>
      </trkpt>
      <trkpt lat="43.95701" lon="2.13062">
        <ele>164.7</ele>
        <time>2017-04-20T11:13:20Z</time>
      </trkpt>
      <trkpt lat="43.9569" lon="2.13067">
        <ele>164.7</ele>
        <time>2017-04-20T11:13:22Z</time>
      </trkpt>
      <trkpt lat="43.95679" lon="2.13073">
        <ele>164.7</ele>
        <time>2017-04-20T11:13:24Z</time>
      </trkpt>
      <trkpt lat="43.95669" lon="2.1308">
        <ele>163.5</ele>
        <time>2017-04-20T11:13:26Z</time>
      </trkpt>
      <trkpt lat="43.9566" lon="2.13089">
        <ele>162.8</ele>
        <time>2017-04-20T11:13:28Z</time>
      </trkpt>
      <trkpt lat="43.95652" lon="2.131">
        <ele>162</ele>
        <time>2017-04-20T11:13:30Z</time>
      </trkpt>
      <trkpt lat="43.95645" lon="2.13112">
        <ele>160.8</ele>
        <time>2017-04-20T11:13:32Z</time>
      </trkpt>
      <trkpt lat="43.95639" lon="2.13125">
        <ele>160.4</ele>
        <time>2017-04-20T11:13:34Z</time>
      </trkpt>
      <trkpt lat="43.95634" lon="2.1314">
        <ele>159.6</ele>
        <time>2017-04-20T11:13:36Z</time>
      </trkpt>
      <trkpt lat="43.95631" lon="2.13156">
        <ele>159</ele>
        <time>2017-04-20T11:13:38Z</time>
      </trkpt>
      <trkpt lat="43.95629" lon="2.13171">
        <ele>159.1</ele>
        <time>2017-04-20T11:13:40Z</time>
      </trkpt>
      <trkpt lat="43.95629" lon="2.13188">
        <ele>158.8</ele>
        <time>2017-04-20T11:13:42Z</time>
      </trkpt>
      <trkpt lat="43.95629" lon="2.13204">
        <ele>158.6</ele>
        <time>2017-04-20T11:13:44Z</time>
      </trkpt>
      <trkpt lat="43.95631" lon="2.13222">
        <ele>158.9</ele>
        <time>2017-04-20T11:13:46Z</time>
      </trkpt>
      <trkpt lat="43.95632" lon="2.13237">
        <ele>158.9</ele>
        <time>2017-04-20T11:13:48Z</time>
      </trkpt>
      <trkpt lat="43.95633" lon="2.13254">
        <ele>159.3</ele>
        <time>2017-04-20T11:13:50Z</time>
      </trkpt>
      <trkpt lat="43.95634" lon="2.13271">
        <ele>159</ele>
        <time>2017-04-20T11:13:52Z</time>
      </trkpt>
      <trkpt lat="43.95634" lon="2.13286">
        <ele>158.8</ele>
        <time>2017-04-20T11:13:54Z</time>
      </trkpt>
      <trkpt lat="43.95633" lon="2.13303">
        <ele>158.7</ele>
        <time>2017-04-20T11:13:56Z</time>
      </trkpt>
      <trkpt lat="43.95632" lon="2.13318">
        <ele>159</ele>
        <time>2017-04-20T11:13:58Z</time>
      </trkpt>
      <trkpt lat="43.95631" lon="2.13334">
        <ele>159.1</ele>
        <time>2017-04-20T11:14:00Z</time>
      </trkpt>
      <trkpt lat="43.9563" lon="2.13349">
        <ele>158.8</ele>
        <time>2017-04-20T11:14:02Z</time>
      </trkpt>
      <trkpt lat="43.95628" lon="2.13365">
        <ele>158.7</ele>
        <time>2017-04-20T11:14:04Z</time>
      </trkpt>
      <trkpt lat="43.95627" lon="2.1338">
        <ele>158.3</ele>
        <time>2017-04-20T11:14:06Z</time>
      </trkpt>
      <trkpt lat="43.95626" lon="2.13396">
        <ele>157.4</ele>
        <time>2017-04-20T11:14:08Z</time>
      </trkpt>
      <trkpt lat="43.95625" lon="2.13412">
        <ele>156.8</ele>
        <time>2017-04-20T11:14:10Z</time>
      </trkpt>
      <trkpt lat="43.95623" lon="2.13428">
        <ele>156.3</ele>
        <time>2017-04-20T11:14:12Z</time>
      </trkpt>
      <trkpt lat="43.95621" lon="2.13444">
        <ele>155.4</ele>
        <time>2017-04-20T11:14:14Z</time>
      </trkpt>
      <trkpt lat="43.95619" lon="2.13459">
        <ele>154.6</ele>
        <time>2017-04-20T11:14:16Z</time>
      </trkpt>
      <trkpt lat="43.95618" lon="2.13475">
        <ele>154.2</ele>
        <time>2017-04-20T11:14:18Z</time>
      </trkpt>
      <trkpt lat="43.95618" lon="2.13491">
        <ele>154.2</ele>
        <time>2017-04-20T11:14:20Z</time>
      </trkpt>
      <trkpt lat="43.95617" lon="2.13506">
        <ele>153.5</ele>
        <time>2017-04-20T11:14:22Z</time>
      </trkpt>
      <trkpt lat="43.95615" lon="2.13522">
        <ele>154.8</ele>
        <time>2017-04-20T11:14:24Z</time>
      </trkpt>
      <trkpt lat="43.95611" lon="2.13536">
        <ele>154.6</ele>
        <time>2017-04-20T11:14:26Z</time>
      </trkpt>
      <trkpt lat="43.95605" lon="2.1355">
        <ele>154.3</ele>
        <time>2017-04-20T11:14:28Z</time>
      </trkpt>
      <trkpt lat="43.95598" lon="2.13563">
        <ele>154.3</ele>
        <time>2017-04-20T11:14:30Z</time>
      </trkpt>
      <trkpt lat="43.95592" lon="2.13576">
        <ele>153.5</ele>
        <time>2017-04-20T11:14:32Z</time>
      </trkpt>
      <trkpt lat="43.95585" lon="2.13589">
        <ele>153.9</ele>
        <time>2017-04-20T11:14:34Z</time>
      </trkpt>
      <trkpt lat="43.95578" lon="2.13603">
        <ele>154.7</ele>
        <time>2017-04-20T11:14:36Z</time>
      </trkpt>
      <trkpt lat="43.95573" lon="2.13618">
        <ele>156</ele>
        <time>2017-04-20T11:14:38Z</time>
      </trkpt>
      <trkpt lat="43.95568" lon="2.13633">
        <ele>156.5</ele>
        <time>2017-04-20T11:14:40Z</time>
      </trkpt>
      <trkpt lat="43.95565" lon="2.13648">
        <ele>156.9</ele>
        <time>2017-04-20T11:14:42Z</time>
      </trkpt>
      <trkpt lat="43.95563" lon="2.13663">
        <ele>158.4</ele>
        <time>2017-04-20T11:14:44Z</time>
      </trkpt>
      <trkpt lat="43.95564" lon="2.1368">
        <ele>159.8</ele>
        <time>2017-04-20T11:14:46Z</time>
      </trkpt>
      <trkpt lat="43.95565" lon="2.13694">
        <ele>159.8</ele>
        <time>2017-04-20T11:14:48Z</time>
      </trkpt>
      <trkpt lat="43.95565" lon="2.13707">
        <ele>159.3</ele>
        <time>2017-04-20T11:14:50Z</time>
      </trkpt>
      <trkpt lat="43.95567" lon="2.13719">
        <ele>158.8</ele>
        <time>2017-04-20T11:14:52Z</time>
      </trkpt>
      <trkpt lat="43.9557" lon="2.13732">
        <ele>159</ele>
        <time>2017-04-20T11:14:54Z</time>
      </trkpt>
      <trkpt lat="43.95572" lon="2.13745">
        <ele>158.2</ele>
        <time>2017-04-20T11:14:56Z</time>
      </trkpt>
      <trkpt lat="43.95573" lon="2.13759">
        <ele>157.8</ele>
        <time>2017-04-20T11:14:58Z</time>
      </trkpt>
      <trkpt lat="43.95575" lon="2.13771">
        <ele>157</ele>
        <time>2017-04-20T11:15:00Z</time>
      </trkpt>
      <trkpt lat="43.95575" lon="2.13785">
        <ele>156.3</ele>
        <time>2017-04-20T11:15:02Z</time>
      </trkpt>
      <trkpt lat="43.95575" lon="2.138">
        <ele>155.9</ele>
        <time>2017-04-20T11:15:04Z</time>
      </trkpt>
      <trkpt lat="43.95574" lon="2.13813">
        <ele>155.9</ele>
        <time>2017-04-20T11:15:06Z</time>
      </trkpt>
      <trkpt lat="43.95573" lon="2.13826">
        <ele>155.1</ele>
        <time>2017-04-20T11:15:08Z</time>
      </trkpt>
      <trkpt lat="43.95571" lon="2.13839">
        <ele>155.1</ele>
        <time>2017-04-20T11:15:10Z</time>
      </trkpt>
      <trkpt lat="43.95567" lon="2.13849">
        <ele>155.2</ele>
        <time>2017-04-20T11:15:12Z</time>
      </trkpt>
      <trkpt lat="43.95562" lon="2.13855">
        <ele>156.3</ele>
        <time>2017-04-20T11:15:16Z</time>
      </trkpt>
      <trkpt lat="43.95552" lon="2.13858">
        <ele>158.2</ele>
        <time>2017-04-20T11:15:22Z</time>
      </trkpt>
      <trkpt lat="43.95542" lon="2.1386">
        <ele>158.1</ele>
        <time>2017-04-20T11:15:25Z</time>
      </trkpt>
      <trkpt lat="43.95534" lon="2.13862">
        <ele>158.6</ele>
        <time>2017-04-20T11:15:27Z</time>
      </trkpt>
      <trkpt lat="43.95524" lon="2.13864">
        <ele>158.5</ele>
        <time>2017-04-20T11:15:29Z</time>
      </trkpt>
      <trkpt lat="43.95513" lon="2.13866">
        <ele>157.9</ele>
        <time>2017-04-20T11:15:31Z</time>
      </trkpt>
      <trkpt lat="43.95502" lon="2.13868">
        <ele>158</ele>
        <time>2017-04-20T11:15:33Z</time>
      </trkpt>
      <trkpt lat="43.9549" lon="2.13869">
        <ele>158</ele>
        <time>2017-04-20T11:15:35Z</time>
      </trkpt>
      <trkpt lat="43.95479" lon="2.13871">
        <ele>157.8</ele>
        <time>2017-04-20T11:15:37Z</time>
      </trkpt>
      <trkpt lat="43.95467" lon="2.13873">
        <ele>157.2</ele>
        <time>2017-04-20T11:15:39Z</time>
      </trkpt>
      <trkpt lat="43.95456" lon="2.13875">
        <ele>156.7</ele>
        <time>2017-04-20T11:15:41Z</time>
      </trkpt>
      <trkpt lat="43.95445" lon="2.13877">
        <ele>156.6</ele>
        <time>2017-04-20T11:15:43Z</time>
      </trkpt>
      <trkpt lat="43.95433" lon="2.13879">
        <ele>156.4</ele>
        <time>2017-04-20T11:15:45Z</time>
      </trkpt>
      <trkpt lat="43.95421" lon="2.13881">
        <ele>156.4</ele>
        <time>2017-04-20T11:15:47Z</time>
      </trkpt>
      <trkpt lat="43.95409" lon="2.13883">
        <ele>156</ele>
        <time>2017-04-20T11:15:49Z</time>
      </trkpt>
      <trkpt lat="43.95397" lon="2.13885">
        <ele>155.9</ele>
        <time>2017-04-20T11:15:51Z</time>
      </trkpt>
      <trkpt lat="43.95384" lon="2.13886">
        <ele>155.8</ele>
        <time>2017-04-20T11:15:53Z</time>
      </trkpt>
      <trkpt lat="43.95371" lon="2.13886">
        <ele>155.3</ele>
        <time>2017-04-20T11:15:55Z</time>
      </trkpt>
      <trkpt lat="43.95359" lon="2.13885">
        <ele>155</ele>
        <time>2017-04-20T11:15:57Z</time>
      </trkpt>
      <trkpt lat="43.95345" lon="2.13884">
        <ele>155.1</ele>
        <time>2017-04-20T11:15:59Z</time>
      </trkpt>
      <trkpt lat="43.95334" lon="2.13882">
        <ele>155.1</ele>
        <time>2017-04-20T11:16:01Z</time>
      </trkpt>
      <trkpt lat="43.95322" lon="2.13881">
        <ele>154.7</ele>
        <time>2017-04-20T11:16:03Z</time>
      </trkpt>
      <trkpt lat="43.95309" lon="2.13879">
        <ele>154.6</ele>
        <time>2017-04-20T11:16:05Z</time>
      </trkpt>
      <trkpt lat="43.95297" lon="2.13878">
        <ele>154.5</ele>
        <time>2017-04-20T11:16:07Z</time>
      </trkpt>
      <trkpt lat="43.95285" lon="2.13878">
        <ele>154.7</ele>
        <time>2017-04-20T11:16:09Z</time>
      </trkpt>
      <trkpt lat="43.95273" lon="2.13879">
        <ele>154.6</ele>
        <time>2017-04-20T11:16:11Z</time>
      </trkpt>
      <trkpt lat="43.95261" lon="2.13884">
        <ele>154.5</ele>
        <time>2017-04-20T11:16:13Z</time>
      </trkpt>
      <trkpt lat="43.9525" lon="2.1389">
        <ele>153.8</ele>
        <time>2017-04-20T11:16:15Z</time>
      </trkpt>
      <trkpt lat="43.95239" lon="2.13897">
        <ele>154.1</ele>
        <time>2017-04-20T11:16:17Z</time>
      </trkpt>
      <trkpt lat="43.95229" lon="2.13904">
        <ele>153.8</ele>
        <time>2017-04-20T11:16:19Z</time>
      </trkpt>
      <trkpt lat="43.95217" lon="2.1391">
        <ele>154.1</ele>
        <time>2017-04-20T11:16:21Z</time>
      </trkpt>
      <trkpt lat="43.95206" lon="2.13914">
        <ele>153.9</ele>
        <time>2017-04-20T11:16:23Z</time>
      </trkpt>
      <trkpt lat="43.95194" lon="2.13916">
        <ele>153.7</ele>
        <time>2017-04-20T11:16:25Z</time>
      </trkpt>
      <trkpt lat="43.95183" lon="2.13919">
        <ele>153.9</ele>
        <time>2017-04-20T11:16:27Z</time>
      </trkpt>
      <trkpt lat="43.95171" lon="2.13921">
        <ele>154.9</ele>
        <time>2017-04-20T11:16:29Z</time>
      </trkpt>
      <trkpt lat="43.95159" lon="2.13923">
        <ele>155.2</ele>
        <time>2017-04-20T11:16:31Z</time>
      </trkpt>
      <trkpt lat="43.95147" lon="2.13925">
        <ele>155.2</ele>
        <time>2017-04-20T11:16:33Z</time>
      </trkpt>
      <trkpt lat="43.95135" lon="2.13927">
        <ele>155.2</ele>
        <time>2017-04-20T11:16:35Z</time>
      </trkpt>
      <trkpt lat="43.95123" lon="2.13929">
        <ele>155</ele>
        <time>2017-04-20T11:16:37Z</time>
      </trkpt>
      <trkpt lat="43.95111" lon="2.13931">
        <ele>154.1</ele>
        <time>2017-04-20T11:16:39Z</time>
      </trkpt>
      <trkpt lat="43.951" lon="2.13932">
        <ele>154.2</ele>
        <time>2017-04-20T11:16:41Z</time>
      </trkpt>
      <trkpt lat="43.95089" lon="2.13935">
        <ele>154.5</ele>
        <time>2017-04-20T11:16:43Z</time>
      </trkpt>
      <trkpt lat="43.95077" lon="2.13936">
        <ele>154.7</ele>
        <time>2017-04-20T11:16:45Z</time>
      </trkpt>
      <trkpt lat="43.95066" lon="2.1394">
        <ele>154.6</ele>
        <time>2017-04-20T11:16:47Z</time>
      </trkpt>
      <trkpt lat="43.95056" lon="2.13945">
        <ele>154.2</ele>
        <time>2017-04-20T11:16:49Z</time>
      </trkpt>
      <trkpt lat="43.95045" lon="2.13949">
        <ele>153.6</ele>
        <time>2017-04-20T11:16:51Z</time>
      </trkpt>
      <trkpt lat="43.95035" lon="2.13949">
        <ele>153.2</ele>
        <time>2017-04-20T11:16:53Z</time>
      </trkpt>
      <trkpt lat="43.95024" lon="2.13949">
        <ele>152.7</ele>
        <time>2017-04-20T11:16:55Z</time>
      </trkpt>
      <trkpt lat="43.95013" lon="2.1395">
        <ele>152.2</ele>
        <time>2017-04-20T11:16:57Z</time>
      </trkpt>
      <trkpt lat="43.95002" lon="2.1395">
        <ele>152.5</ele>
        <time>2017-04-20T11:16:59Z</time>
      </trkpt>
      <trkpt lat="43.94991" lon="2.1395">
        <ele>153.2</ele>
        <time>2017-04-20T11:17:01Z</time>
      </trkpt>
      <trkpt lat="43.9498" lon="2.13948">
        <ele>153.1</ele>
        <time>2017-04-20T11:17:03Z</time>
      </trkpt>
      <trkpt lat="43.94968" lon="2.13944">
        <ele>153.9</ele>
        <time>2017-04-20T11:17:05Z</time>
      </trkpt>
      <trkpt lat="43.94955" lon="2.13941">
        <ele>154.3</ele>
        <time>2017-04-20T11:17:07Z</time>
      </trkpt>
      <trkpt lat="43.94942" lon="2.13936">
        <ele>154</ele>
        <time>2017-04-20T11:17:09Z</time>
      </trkpt>
      <trkpt lat="43.94929" lon="2.13933">
        <ele>153.6</ele>
        <time>2017-04-20T11:17:11Z</time>
      </trkpt>
      <trkpt lat="43.94916" lon="2.13932">
        <ele>153.3</ele>
        <time>2017-04-20T11:17:13Z</time>
      </trkpt>
      <trkpt lat="43.94903" lon="2.13932">
        <ele>153</ele>
        <time>2017-04-20T11:17:15Z</time>
      </trkpt>
      <trkpt lat="43.94891" lon="2.13932">
        <ele>152.9</ele>
        <time>2017-04-20T11:17:17Z</time>
      </trkpt>
      <trkpt lat="43.9488" lon="2.13931">
        <ele>152.7</ele>
        <time>2017-04-20T11:17:19Z</time>
      </trkpt>
      <trkpt lat="43.94868" lon="2.13931">
        <ele>153.6</ele>
        <time>2017-04-20T11:17:21Z</time>
      </trkpt>
      <trkpt lat="43.94857" lon="2.1393">
        <ele>154.4</ele>
        <time>2017-04-20T11:17:23Z</time>
      </trkpt>
      <trkpt lat="43.94845" lon="2.1393">
        <ele>155</ele>
        <time>2017-04-20T11:17:25Z</time>
      </trkpt>
      <trkpt lat="43.94834" lon="2.13932">
        <ele>155.7</ele>
        <time>2017-04-20T11:17:27Z</time>
      </trkpt>
      <trkpt lat="43.94823" lon="2.13936">
        <ele>156</ele>
        <time>2017-04-20T11:17:29Z</time>
      </trkpt>
      <trkpt lat="43.94813" lon="2.13941">
        <ele>156.4</ele>
        <time>2017-04-20T11:17:31Z</time>
      </trkpt>
      <trkpt lat="43.94802" lon="2.13946">
        <ele>156.3</ele>
        <time>2017-04-20T11:17:33Z</time>
      </trkpt>
      <trkpt lat="43.94791" lon="2.13951">
        <ele>156.1</ele>
        <time>2017-04-20T11:17:35Z</time>
      </trkpt>
      <trkpt lat="43.9478" lon="2.13955">
        <ele>156.2</ele>
        <time>2017-04-20T11:17:37Z</time>
      </trkpt>
      <trkpt lat="43.94769" lon="2.13959">
        <ele>156</ele>
        <time>2017-04-20T11:17:39Z</time>
      </trkpt>
      <trkpt lat="43.94759" lon="2.13963">
        <ele>154.9</ele>
        <time>2017-04-20T11:17:41Z</time>
      </trkpt>
      <trkpt lat="43.94747" lon="2.13968">
        <ele>154.6</ele>
        <time>2017-04-20T11:17:43Z</time>
      </trkpt>
      <trkpt lat="43.94737" lon="2.13974">
        <ele>154.5</ele>
        <time>2017-04-20T11:17:45Z</time>
      </trkpt>
      <trkpt lat="43.94726" lon="2.13979">
        <ele>155.4</ele>
        <time>2017-04-20T11:17:47Z</time>
      </trkpt>
      <trkpt lat="43.94716" lon="2.13986">
        <ele>155.6</ele>
        <time>2017-04-20T11:17:49Z</time>
      </trkpt>
      <trkpt lat="43.94705" lon="2.13991">
        <ele>156.3</ele>
        <time>2017-04-20T11:17:51Z</time>
      </trkpt>
      <trkpt lat="43.94694" lon="2.13998">
        <ele>156.8</ele>
        <time>2017-04-20T11:17:53Z</time>
      </trkpt>
      <trkpt lat="43.94683" lon="2.14004">
        <ele>156.7</ele>
        <time>2017-04-20T11:17:55Z</time>
      </trkpt>
      <trkpt lat="43.94673" lon="2.1401">
        <ele>156.2</ele>
        <time>2017-04-20T11:17:57Z</time>
      </trkpt>
      <trkpt lat="43.94661" lon="2.14013">
        <ele>155.7</ele>
        <time>2017-04-20T11:17:59Z</time>
      </trkpt>
      <trkpt lat="43.9465" lon="2.14018">
        <ele>155</ele>
        <time>2017-04-20T11:18:01Z</time>
      </trkpt>
      <trkpt lat="43.94639" lon="2.14023">
        <ele>154.7</ele>
        <time>2017-04-20T11:18:03Z</time>
      </trkpt>
      <trkpt lat="43.94628" lon="2.1403">
        <ele>154.4</ele>
        <time>2017-04-20T11:18:05Z</time>
      </trkpt>
      <trkpt lat="43.94617" lon="2.14037">
        <ele>153.9</ele>
        <time>2017-04-20T11:18:07Z</time>
      </trkpt>
      <trkpt lat="43.94606" lon="2.14044">
        <ele>153</ele>
        <time>2017-04-20T11:18:09Z</time>
      </trkpt>
      <trkpt lat="43.94595" lon="2.14051">
        <ele>151.9</ele>
        <time>2017-04-20T11:18:11Z</time>
      </trkpt>
      <trkpt lat="43.94583" lon="2.14059">
        <ele>152.8</ele>
        <time>2017-04-20T11:18:13Z</time>
      </trkpt>
      <trkpt lat="43.94571" lon="2.14067">
        <ele>152.3</ele>
        <time>2017-04-20T11:18:15Z</time>
      </trkpt>
      <trkpt lat="43.94559" lon="2.14073">
        <ele>152.6</ele>
        <time>2017-04-20T11:18:17Z</time>
      </trkpt>
      <trkpt lat="43.94547" lon="2.14079">
        <ele>152.5</ele>
        <time>2017-04-20T11:18:19Z</time>
      </trkpt>
      <trkpt lat="43.94536" lon="2.14085">
        <ele>152.5</ele>
        <time>2017-04-20T11:18:21Z</time>
      </trkpt>
      <trkpt lat="43.94525" lon="2.14091">
        <ele>152.4</ele>
        <time>2017-04-20T11:18:23Z</time>
      </trkpt>
      <trkpt lat="43.94514" lon="2.14097">
        <ele>152</ele>
        <time>2017-04-20T11:18:25Z</time>
      </trkpt>
      <trkpt lat="43.94504" lon="2.14103">
        <ele>151.6</ele>
        <time>2017-04-20T11:18:27Z</time>
      </trkpt>
      <trkpt lat="43.94494" lon="2.14108">
        <ele>152</ele>
        <time>2017-04-20T11:18:29Z</time>
      </trkpt>
      <trkpt lat="43.94486" lon="2.14105">
        <ele>151.9</ele>
        <time>2017-04-20T11:18:32Z</time>
      </trkpt>
      <trkpt lat="43.94485" lon="2.14094">
        <ele>151.2</ele>
        <time>2017-04-20T11:18:33Z</time>
      </trkpt>
      <trkpt lat="43.94485" lon="2.14082">
        <ele>150.9</ele>
        <time>2017-04-20T11:18:35Z</time>
      </trkpt>
      <trkpt lat="43.94485" lon="2.14071">
        <ele>150.4</ele>
        <time>2017-04-20T11:18:37Z</time>
      </trkpt>
      <trkpt lat="43.94483" lon="2.1406">
        <ele>150.3</ele>
        <time>2017-04-20T11:18:39Z</time>
      </trkpt>
      <trkpt lat="43.94482" lon="2.14049">
        <ele>150.2</ele>
        <time>2017-04-20T11:18:41Z</time>
      </trkpt>
      <trkpt lat="43.94483" lon="2.14038">
        <ele>150.1</ele>
        <time>2017-04-20T11:18:43Z</time>
      </trkpt>
      <trkpt lat="43.94482" lon="2.14024">
        <ele>150.3</ele>
        <time>2017-04-20T11:18:45Z</time>
      </trkpt>
      <trkpt lat="43.94481" lon="2.14009">
        <ele>150.6</ele>
        <time>2017-04-20T11:18:47Z</time>
      </trkpt>
      <trkpt lat="43.9448" lon="2.13994">
        <ele>150.9</ele>
        <time>2017-04-20T11:18:49Z</time>
      </trkpt>
      <trkpt lat="43.94478" lon="2.13978">
        <ele>151.2</ele>
        <time>2017-04-20T11:18:51Z</time>
      </trkpt>
      <trkpt lat="43.94477" lon="2.13963">
        <ele>151.5</ele>
        <time>2017-04-20T11:18:53Z</time>
      </trkpt>
      <trkpt lat="43.94476" lon="2.13948">
        <ele>152.1</ele>
        <time>2017-04-20T11:18:55Z</time>
      </trkpt>
      <trkpt lat="43.94475" lon="2.13932">
        <ele>152</ele>
        <time>2017-04-20T11:18:57Z</time>
      </trkpt>
      <trkpt lat="43.94474" lon="2.13916">
        <ele>152</ele>
        <time>2017-04-20T11:18:59Z</time>
      </trkpt>
      <trkpt lat="43.94476" lon="2.139">
        <ele>151.9</ele>
        <time>2017-04-20T11:19:01Z</time>
      </trkpt>
      <trkpt lat="43.94477" lon="2.13883">
        <ele>151.7</ele>
        <time>2017-04-20T11:19:03Z</time>
      </trkpt>
      <trkpt lat="43.94479" lon="2.13867">
        <ele>151.5</ele>
        <time>2017-04-20T11:19:05Z</time>
      </trkpt>
      <trkpt lat="43.9448" lon="2.13851">
        <ele>151.4</ele>
        <time>2017-04-20T11:19:07Z</time>
      </trkpt>
      <trkpt lat="43.94477" lon="2.13836">
        <ele>151.3</ele>
        <time>2017-04-20T11:19:09Z</time>
      </trkpt>
      <trkpt lat="43.94468" lon="2.13828">
        <ele>151.9</ele>
        <time>2017-04-20T11:19:11Z</time>
      </trkpt>
      <trkpt lat="43.94457" lon="2.13824">
        <ele>152.2</ele>
        <time>2017-04-20T11:19:13Z</time>
      </trkpt>
      <trkpt lat="43.94446" lon="2.13822">
        <ele>152.1</ele>
        <time>2017-04-20T11:19:15Z</time>
      </trkpt>
      <trkpt lat="43.94434" lon="2.13819">
        <ele>153.1</ele>
        <time>2017-04-20T11:19:17Z</time>
      </trkpt>
      <trkpt lat="43.94424" lon="2.13815">
        <ele>152.9</ele>
        <time>2017-04-20T11:19:19Z</time>
      </trkpt>
      <trkpt lat="43.94414" lon="2.13813">
        <ele>153.8</ele>
        <time>2017-04-20T11:19:21Z</time>
      </trkpt>
      <trkpt lat="43.94405" lon="2.13811">
        <ele>154.2</ele>
        <time>2017-04-20T11:19:23Z</time>
      </trkpt>
      <trkpt lat="43.94396" lon="2.13808">
        <ele>154.5</ele>
        <time>2017-04-20T11:19:25Z</time>
      </trkpt>
      <trkpt lat="43.94386" lon="2.13805">
        <ele>154.9</ele>
        <time>2017-04-20T11:19:27Z</time>
      </trkpt>
      <trkpt lat="43.94377" lon="2.13803">
        <ele>154.8</ele>
        <time>2017-04-20T11:19:29Z</time>
      </trkpt>
      <trkpt lat="43.94367" lon="2.13801">
        <ele>154</ele>
        <time>2017-04-20T11:19:31Z</time>
      </trkpt>
      <trkpt lat="43.94357" lon="2.138">
        <ele>153.7</ele>
        <time>2017-04-20T11:19:33Z</time>
      </trkpt>
      <trkpt lat="43.94347" lon="2.138">
        <ele>153.6</ele>
        <time>2017-04-20T11:19:35Z</time>
      </trkpt>
      <trkpt lat="43.94337" lon="2.138">
        <ele>153.7</ele>
        <time>2017-04-20T11:19:37Z</time>
      </trkpt>
      <trkpt lat="43.94327" lon="2.138">
        <ele>153.4</ele>
        <time>2017-04-20T11:19:39Z</time>
      </trkpt>
      <trkpt lat="43.94316" lon="2.13801">
        <ele>153.1</ele>
        <time>2017-04-20T11:19:41Z</time>
      </trkpt>
      <trkpt lat="43.94306" lon="2.13802">
        <ele>153.1</ele>
        <time>2017-04-20T11:19:43Z</time>
      </trkpt>
      <trkpt lat="43.94295" lon="2.13804">
        <ele>153.4</ele>
        <time>2017-04-20T11:19:45Z</time>
      </trkpt>
      <trkpt lat="43.94284" lon="2.13805">
        <ele>153.1</ele>
        <time>2017-04-20T11:19:47Z</time>
      </trkpt>
      <trkpt lat="43.94274" lon="2.13806">
        <ele>152.7</ele>
        <time>2017-04-20T11:19:49Z</time>
      </trkpt>
      <trkpt lat="43.94264" lon="2.13806">
        <ele>152.6</ele>
        <time>2017-04-20T11:19:51Z</time>
      </trkpt>
      <trkpt lat="43.94253" lon="2.13806">
        <ele>152.6</ele>
        <time>2017-04-20T11:19:53Z</time>
      </trkpt>
      <trkpt lat="43.94243" lon="2.13806">
        <ele>152.4</ele>
        <time>2017-04-20T11:19:55Z</time>
      </trkpt>
      <trkpt lat="43.94232" lon="2.13805">
        <ele>152.8</ele>
        <time>2017-04-20T11:19:57Z</time>
      </trkpt>
      <trkpt lat="43.94223" lon="2.13805">
        <ele>153</ele>
        <time>2017-04-20T11:19:59Z</time>
      </trkpt>
      <trkpt lat="43.94213" lon="2.13804">
        <ele>152.7</ele>
        <time>2017-04-20T11:20:01Z</time>
      </trkpt>
      <trkpt lat="43.94202" lon="2.13801">
        <ele>153.1</ele>
        <time>2017-04-20T11:20:03Z</time>
      </trkpt>
      <trkpt lat="43.94193" lon="2.13799">
        <ele>152.6</ele>
        <time>2017-04-20T11:20:05Z</time>
      </trkpt>
      <trkpt lat="43.94183" lon="2.13798">
        <ele>153.1</ele>
        <time>2017-04-20T11:20:07Z</time>
      </trkpt>
      <trkpt lat="43.94173" lon="2.13796">
        <ele>153.5</ele>
        <time>2017-04-20T11:20:09Z</time>
      </trkpt>
      <trkpt lat="43.94163" lon="2.13795">
        <ele>154.8</ele>
        <time>2017-04-20T11:20:11Z</time>
      </trkpt>
      <trkpt lat="43.94156" lon="2.13792">
        <ele>155.9</ele>
        <time>2017-04-20T11:20:13Z</time>
      </trkpt>
      <trkpt lat="43.94149" lon="2.13787">
        <ele>155.9</ele>
        <time>2017-04-20T11:20:18Z</time>
      </trkpt>
      <trkpt lat="43.94139" lon="2.13783">
        <ele>156.1</ele>
        <time>2017-04-20T11:20:22Z</time>
      </trkpt>
      <trkpt lat="43.94131" lon="2.13781">
        <ele>156.1</ele>
        <time>2017-04-20T11:20:24Z</time>
      </trkpt>
      <trkpt lat="43.94122" lon="2.13778">
        <ele>157.3</ele>
        <time>2017-04-20T11:20:26Z</time>
      </trkpt>
      <trkpt lat="43.94112" lon="2.13774">
        <ele>157.8</ele>
        <time>2017-04-20T11:20:28Z</time>
      </trkpt>
      <trkpt lat="43.94102" lon="2.13771">
        <ele>157.3</ele>
        <time>2017-04-20T11:20:30Z</time>
      </trkpt>
      <trkpt lat="43.94092" lon="2.13768">
        <ele>157.3</ele>
        <time>2017-04-20T11:20:32Z</time>
      </trkpt>
      <trkpt lat="43.94082" lon="2.13765">
        <ele>157.2</ele>
        <time>2017-04-20T11:20:34Z</time>
      </trkpt>
      <trkpt lat="43.94072" lon="2.13762">
        <ele>157.2</ele>
        <time>2017-04-20T11:20:36Z</time>
      </trkpt>
      <trkpt lat="43.94061" lon="2.13759">
        <ele>156.9</ele>
        <time>2017-04-20T11:20:38Z</time>
      </trkpt>
      <trkpt lat="43.94049" lon="2.13755">
        <ele>157.2</ele>
        <time>2017-04-20T11:20:40Z</time>
      </trkpt>
      <trkpt lat="43.94038" lon="2.13752">
        <ele>156.9</ele>
        <time>2017-04-20T11:20:42Z</time>
      </trkpt>
      <trkpt lat="43.94027" lon="2.13748">
        <ele>156.6</ele>
        <time>2017-04-20T11:20:44Z</time>
      </trkpt>
      <trkpt lat="43.94016" lon="2.13744">
        <ele>156.5</ele>
        <time>2017-04-20T11:20:46Z</time>
      </trkpt>
      <trkpt lat="43.94009" lon="2.13736">
        <ele>156.4</ele>
        <time>2017-04-20T11:20:48Z</time>
      </trkpt>
      <trkpt lat="43.94001" lon="2.13728">
        <ele>156.3</ele>
        <time>2017-04-20T11:20:51Z</time>
      </trkpt>
      <trkpt lat="43.93991" lon="2.13732">
        <ele>156</ele>
        <time>2017-04-20T11:20:54Z</time>
      </trkpt>
      <trkpt lat="43.93983" lon="2.13736">
        <ele>155.1</ele>
        <time>2017-04-20T11:20:56Z</time>
      </trkpt>
      <trkpt lat="43.93973" lon="2.13742">
        <ele>154.8</ele>
        <time>2017-04-20T11:20:58Z</time>
      </trkpt>
      <trkpt lat="43.93962" lon="2.13749">
        <ele>154.2</ele>
        <time>2017-04-20T11:21:00Z</time>
      </trkpt>
      <trkpt lat="43.93952" lon="2.13755">
        <ele>153.5</ele>
        <time>2017-04-20T11:21:02Z</time>
      </trkpt>
      <trkpt lat="43.9394" lon="2.13761">
        <ele>153.1</ele>
        <time>2017-04-20T11:21:04Z</time>
      </trkpt>
      <trkpt lat="43.93928" lon="2.13766">
        <ele>152.4</ele>
        <time>2017-04-20T11:21:06Z</time>
      </trkpt>
      <trkpt lat="43.93917" lon="2.13772">
        <ele>152</ele>
        <time>2017-04-20T11:21:08Z</time>
      </trkpt>
      <trkpt lat="43.93905" lon="2.13778">
        <ele>152.2</ele>
        <time>2017-04-20T11:21:10Z</time>
      </trkpt>
      <trkpt lat="43.93893" lon="2.13783">
        <ele>151.6</ele>
        <time>2017-04-20T11:21:12Z</time>
      </trkpt>
      <trkpt lat="43.93881" lon="2.13788">
        <ele>150.3</ele>
        <time>2017-04-20T11:21:14Z</time>
      </trkpt>
      <trkpt lat="43.93869" lon="2.13792">
        <ele>149.5</ele>
        <time>2017-04-20T11:21:16Z</time>
      </trkpt>
      <trkpt lat="43.93857" lon="2.13796">
        <ele>148.9</ele>
        <time>2017-04-20T11:21:18Z</time>
      </trkpt>
      <trkpt lat="43.93844" lon="2.13801">
        <ele>148.1</ele>
        <time>2017-04-20T11:21:20Z</time>
      </trkpt>
      <trkpt lat="43.93832" lon="2.13806">
        <ele>147.8</ele>
        <time>2017-04-20T11:21:22Z</time>
      </trkpt>
      <trkpt lat="43.9382" lon="2.13811">
        <ele>147</ele>
        <time>2017-04-20T11:21:24Z</time>
      </trkpt>
      <trkpt lat="43.93808" lon="2.13815">
        <ele>146</ele>
        <time>2017-04-20T11:21:26Z</time>
      </trkpt>
      <trkpt lat="43.93797" lon="2.13819">
        <ele>147</ele>
        <time>2017-04-20T11:21:28Z</time>
      </trkpt>
      <trkpt lat="43.93785" lon="2.13824">
        <ele>146.5</ele>
        <time>2017-04-20T11:21:30Z</time>
      </trkpt>
      <trkpt lat="43.93773" lon="2.13828">
        <ele>145.7</ele>
        <time>2017-04-20T11:21:32Z</time>
      </trkpt>
      <trkpt lat="43.93761" lon="2.13833">
        <ele>145.3</ele>
        <time>2017-04-20T11:21:34Z</time>
      </trkpt>
      <trkpt lat="43.93749" lon="2.13836">
        <ele>144.9</ele>
        <time>2017-04-20T11:21:36Z</time>
      </trkpt>
      <trkpt lat="43.93737" lon="2.13841">
        <ele>144.7</ele>
        <time>2017-04-20T11:21:38Z</time>
      </trkpt>
      <trkpt lat="43.93724" lon="2.13844">
        <ele>145.2</ele>
        <time>2017-04-20T11:21:40Z</time>
      </trkpt>
      <trkpt lat="43.93711" lon="2.13847">
        <ele>145.1</ele>
        <time>2017-04-20T11:21:42Z</time>
      </trkpt>
      <trkpt lat="43.937" lon="2.1385">
        <ele>145.3</ele>
        <time>2017-04-20T11:21:44Z</time>
      </trkpt>
      <trkpt lat="43.93689" lon="2.13853">
        <ele>145.3</ele>
        <time>2017-04-20T11:21:46Z</time>
      </trkpt>
      <trkpt lat="43.93678" lon="2.13857">
        <ele>145.1</ele>
        <time>2017-04-20T11:21:48Z</time>
      </trkpt>
      <trkpt lat="43.93667" lon="2.1386">
        <ele>144.7</ele>
        <time>2017-04-20T11:21:50Z</time>
      </trkpt>
      <trkpt lat="43.93655" lon="2.13863">
        <ele>144.6</ele>
        <time>2017-04-20T11:21:52Z</time>
      </trkpt>
      <trkpt lat="43.93644" lon="2.13867">
        <ele>144.4</ele>
        <time>2017-04-20T11:21:54Z</time>
      </trkpt>
      <trkpt lat="43.93634" lon="2.13871">
        <ele>146.8</ele>
        <time>2017-04-20T11:21:56Z</time>
      </trkpt>
      <trkpt lat="43.93626" lon="2.1387">
        <ele>149.4</ele>
        <time>2017-04-20T11:21:58Z</time>
      </trkpt>
      <trkpt lat="43.93623" lon="2.13859">
        <ele>149.5</ele>
        <time>2017-04-20T11:22:00Z</time>
      </trkpt>
      <trkpt lat="43.93621" lon="2.13845">
        <ele>148.9</ele>
        <time>2017-04-20T11:22:02Z</time>
      </trkpt>
      <trkpt lat="43.93617" lon="2.13833">
        <ele>148.6</ele>
        <time>2017-04-20T11:22:04Z</time>
      </trkpt>
      <trkpt lat="43.93612" lon="2.13817">
        <ele>148.7</ele>
        <time>2017-04-20T11:22:06Z</time>
      </trkpt>
      <trkpt lat="43.93606" lon="2.138">
        <ele>148.7</ele>
        <time>2017-04-20T11:22:08Z</time>
      </trkpt>
      <trkpt lat="43.93603" lon="2.13792">
        <ele>148.1</ele>
        <time>2017-04-20T11:22:09Z</time>
      </trkpt>
      <trkpt lat="43.936" lon="2.13781">
        <ele>147.6</ele>
        <time>2017-04-20T11:22:10Z</time>
      </trkpt>
      <trkpt lat="43.93596" lon="2.13771">
        <ele>147.1</ele>
        <time>2017-04-20T11:22:11Z</time>
      </trkpt>
      <trkpt lat="43.93593" lon="2.13762">
        <ele>146.6</ele>
        <time>2017-04-20T11:22:12Z</time>
      </trkpt>
      <trkpt lat="43.9359" lon="2.13751">
        <ele>146.2</ele>
        <time>2017-04-20T11:22:13Z</time>
      </trkpt>
      <trkpt lat="43.93586" lon="2.1374">
        <ele>145.3</ele>
        <time>2017-04-20T11:22:14Z</time>
      </trkpt>
      <trkpt lat="43.93583" lon="2.13728">
        <ele>144.6</ele>
        <time>2017-04-20T11:22:15Z</time>
      </trkpt>
      <trkpt lat="43.93579" lon="2.13717">
        <ele>144.1</ele>
        <time>2017-04-20T11:22:16Z</time>
      </trkpt>
      <trkpt lat="43.93576" lon="2.13705">
        <ele>143.5</ele>
        <time>2017-04-20T11:22:17Z</time>
      </trkpt>
      <trkpt lat="43.93572" lon="2.13693">
        <ele>142.9</ele>
        <time>2017-04-20T11:22:18Z</time>
      </trkpt>
      <trkpt lat="43.93568" lon="2.13681">
        <ele>142.3</ele>
        <time>2017-04-20T11:22:19Z</time>
      </trkpt>
      <trkpt lat="43.93564" lon="2.13669">
        <ele>141.9</ele>
        <time>2017-04-20T11:22:20Z</time>
      </trkpt>
      <trkpt lat="43.9356" lon="2.13657">
        <ele>141.6</ele>
        <time>2017-04-20T11:22:21Z</time>
      </trkpt>
      <trkpt lat="43.93556" lon="2.13645">
        <ele>141.4</ele>
        <time>2017-04-20T11:22:22Z</time>
      </trkpt>
      <trkpt lat="43.93552" lon="2.13633">
        <ele>141.8</ele>
        <time>2017-04-20T11:22:23Z</time>
      </trkpt>
      <trkpt lat="43.93549" lon="2.13621">
        <ele>141.8</ele>
        <time>2017-04-20T11:22:24Z</time>
      </trkpt>
      <trkpt lat="43.93545" lon="2.1361">
        <ele>141.8</ele>
        <time>2017-04-20T11:22:25Z</time>
      </trkpt>
      <trkpt lat="43.93541" lon="2.136">
        <ele>141.7</ele>
        <time>2017-04-20T11:22:26Z</time>
      </trkpt>
      <trkpt lat="43.93536" lon="2.1359">
        <ele>141.6</ele>
        <time>2017-04-20T11:22:27Z</time>
      </trkpt>
      <trkpt lat="43.93531" lon="2.13581">
        <ele>141.5</ele>
        <time>2017-04-20T11:22:28Z</time>
      </trkpt>
      <trkpt lat="43.93526" lon="2.13572">
        <ele>141.3</ele>
        <time>2017-04-20T11:22:29Z</time>
      </trkpt>
      <trkpt lat="43.93522" lon="2.13554">
        <ele>140.4</ele>
        <time>2017-04-20T11:22:31Z</time>
      </trkpt>
      <trkpt lat="43.93523" lon="2.13536">
        <ele>139.8</ele>
        <time>2017-04-20T11:22:33Z</time>
      </trkpt>
      <trkpt lat="43.93525" lon="2.13519">
        <ele>139.3</ele>
        <time>2017-04-20T11:22:35Z</time>
      </trkpt>
      <trkpt lat="43.93526" lon="2.13501">
        <ele>138.5</ele>
        <time>2017-04-20T11:22:37Z</time>
      </trkpt>
      <trkpt lat="43.93522" lon="2.13485">
        <ele>138.3</ele>
        <time>2017-04-20T11:22:39Z</time>
      </trkpt>
      <trkpt lat="43.93511" lon="2.13475">
        <ele>138.1</ele>
        <time>2017-04-20T11:22:41Z</time>
      </trkpt>
      <trkpt lat="43.93502" lon="2.13466">
        <ele>138</ele>
        <time>2017-04-20T11:22:43Z</time>
      </trkpt>
      <trkpt lat="43.93492" lon="2.13458">
        <ele>137.7</ele>
        <time>2017-04-20T11:22:45Z</time>
      </trkpt>
      <trkpt lat="43.93482" lon="2.1345">
        <ele>137.4</ele>
        <time>2017-04-20T11:22:47Z</time>
      </trkpt>
      <trkpt lat="43.93473" lon="2.13442">
        <ele>137.5</ele>
        <time>2017-04-20T11:22:49Z</time>
      </trkpt>
      <trkpt lat="43.93464" lon="2.13434">
        <ele>137.5</ele>
        <time>2017-04-20T11:22:51Z</time>
      </trkpt>
      <trkpt lat="43.93457" lon="2.13426">
        <ele>138.2</ele>
        <time>2017-04-20T11:22:53Z</time>
      </trkpt>
      <trkpt lat="43.9345" lon="2.1342">
        <ele>138</ele>
        <time>2017-04-20T11:22:55Z</time>
      </trkpt>
      <trkpt lat="43.93444" lon="2.13415">
        <ele>138.2</ele>
        <time>2017-04-20T11:22:57Z</time>
      </trkpt>
      <trkpt lat="43.93436" lon="2.13407">
        <ele>137.8</ele>
        <time>2017-04-20T11:23:00Z</time>
      </trkpt>
      <trkpt lat="43.9343" lon="2.13401">
        <ele>137.3</ele>
        <time>2017-04-20T11:23:02Z</time>
      </trkpt>
      <trkpt lat="43.93424" lon="2.13394">
        <ele>136.5</ele>
        <time>2017-04-20T11:23:04Z</time>
      </trkpt>
      <trkpt lat="43.93418" lon="2.13387">
        <ele>136.4</ele>
        <time>2017-04-20T11:23:06Z</time>
      </trkpt>
      <trkpt lat="43.93411" lon="2.1338">
        <ele>136.1</ele>
        <time>2017-04-20T11:23:08Z</time>
      </trkpt>
      <trkpt lat="43.93404" lon="2.13375">
        <ele>136.8</ele>
        <time>2017-04-20T11:23:10Z</time>
      </trkpt>
      <trkpt lat="43.93397" lon="2.13372">
        <ele>137.2</ele>
        <time>2017-04-20T11:23:12Z</time>
      </trkpt>
      <trkpt lat="43.93387" lon="2.13375">
        <ele>136.9</ele>
        <time>2017-04-20T11:23:15Z</time>
      </trkpt>
      <trkpt lat="43.93382" lon="2.13385">
        <ele>136.6</ele>
        <time>2017-04-20T11:23:18Z</time>
      </trkpt>
      <trkpt lat="43.93379" lon="2.13398">
        <ele>136.3</ele>
        <time>2017-04-20T11:23:21Z</time>
      </trkpt>
      <trkpt lat="43.93377" lon="2.13412">
        <ele>135.8</ele>
        <time>2017-04-20T11:23:24Z</time>
      </trkpt>
      <trkpt lat="43.93376" lon="2.13426">
        <ele>135.9</ele>
        <time>2017-04-20T11:23:27Z</time>
      </trkpt>
      <trkpt lat="43.9337" lon="2.13432">
        <ele>135.8</ele>
        <time>2017-04-20T11:23:30Z</time>
      </trkpt>
      <trkpt lat="43.93361" lon="2.13433">
        <ele>136.8</ele>
        <time>2017-04-20T11:23:34Z</time>
      </trkpt>
      <trkpt lat="43.93358" lon="2.13422">
        <ele>138.1</ele>
        <time>2017-04-20T11:23:39Z</time>
      </trkpt>
      <trkpt lat="43.93352" lon="2.13412">
        <ele>138.7</ele>
        <time>2017-04-20T11:23:42Z</time>
      </trkpt>
      <trkpt lat="43.93345" lon="2.13407">
        <ele>138.9</ele>
        <time>2017-04-20T11:23:44Z</time>
      </trkpt>
      <trkpt lat="43.93337" lon="2.13406">
        <ele>138.9</ele>
        <time>2017-04-20T11:23:46Z</time>
      </trkpt>
      <trkpt lat="43.93328" lon="2.13404">
        <ele>138.6</ele>
        <time>2017-04-20T11:23:48Z</time>
      </trkpt>
      <trkpt lat="43.93319" lon="2.13402">
        <ele>138.4</ele>
        <time>2017-04-20T11:23:50Z</time>
      </trkpt>
      <trkpt lat="43.9331" lon="2.13399">
        <ele>138.1</ele>
        <time>2017-04-20T11:23:52Z</time>
      </trkpt>
      <trkpt lat="43.93301" lon="2.13398">
        <ele>138.3</ele>
        <time>2017-04-20T11:23:54Z</time>
      </trkpt>
      <trkpt lat="43.93292" lon="2.13398">
        <ele>138.2</ele>
        <time>2017-04-20T11:23:56Z</time>
      </trkpt>
      <trkpt lat="43.93284" lon="2.13399">
        <ele>137.9</ele>
        <time>2017-04-20T11:23:58Z</time>
      </trkpt>
      <trkpt lat="43.93274" lon="2.13402">
        <ele>137.3</ele>
        <time>2017-04-20T11:24:01Z</time>
      </trkpt>
      <trkpt lat="43.93265" lon="2.13404">
        <ele>137.1</ele>
        <time>2017-04-20T11:24:04Z</time>
      </trkpt>
      <trkpt lat="43.93257" lon="2.13406">
        <ele>137.2</ele>
        <time>2017-04-20T11:24:09Z</time>
      </trkpt>
      <trkpt lat="43.93255" lon="2.13414">
        <ele>135.3</ele>
        <time>2017-04-20T11:24:16Z</time>
      </trkpt>
      <trkpt lat="43.93258" lon="2.13425">
        <ele>134.4</ele>
        <time>2017-04-20T11:24:20Z</time>
      </trkpt>
      <trkpt lat="43.93254" lon="2.13436">
        <ele>133.4</ele>
        <time>2017-04-20T11:24:24Z</time>
      </trkpt>
      <trkpt lat="43.93251" lon="2.13445">
        <ele>132.8</ele>
        <time>2017-04-20T11:24:27Z</time>
      </trkpt>
      <trkpt lat="43.93247" lon="2.13454">
        <ele>131.6</ele>
        <time>2017-04-20T11:24:30Z</time>
      </trkpt>
      <trkpt lat="43.93246" lon="2.13466">
        <ele>129.7</ele>
        <time>2017-04-20T11:24:34Z</time>
      </trkpt>
      <trkpt lat="43.93244" lon="2.13476">
        <ele>129.8</ele>
        <time>2017-04-20T11:24:38Z</time>
      </trkpt>
      <trkpt lat="43.93238" lon="2.13484">
        <ele>130.6</ele>
        <time>2017-04-20T11:24:42Z</time>
      </trkpt>
      <trkpt lat="43.93233" lon="2.13491">
        <ele>131.9</ele>
        <time>2017-04-20T11:24:46Z</time>
      </trkpt>
      <trkpt lat="43.93237" lon="2.13499">
        <ele>133.6</ele>
        <time>2017-04-20T11:24:50Z</time>
      </trkpt>
      <trkpt lat="43.93243" lon="2.13492">
        <ele>135.3</ele>
        <time>2017-04-20T11:24:55Z</time>
      </trkpt>
      <trkpt lat="43.93246" lon="2.13481">
        <ele>136.2</ele>
        <time>2017-04-20T11:25:00Z</time>
      </trkpt>
      <trkpt lat="43.93247" lon="2.13469">
        <ele>137.7</ele>
        <time>2017-04-20T11:25:04Z</time>
      </trkpt>
      <trkpt lat="43.93247" lon="2.13457">
        <ele>139</ele>
        <time>2017-04-20T11:25:08Z</time>
      </trkpt>
      <trkpt lat="43.9325" lon="2.13448">
        <ele>138.1</ele>
        <time>2017-04-20T11:25:12Z</time>
      </trkpt>
      <trkpt lat="43.93254" lon="2.13438">
        <ele>135.7</ele>
        <time>2017-04-20T11:25:16Z</time>
      </trkpt>
      <trkpt lat="43.93256" lon="2.13427">
        <ele>135.5</ele>
        <time>2017-04-20T11:25:18Z</time>
      </trkpt>
      <trkpt lat="43.93255" lon="2.13415">
        <ele>135.2</ele>
        <time>2017-04-20T11:25:20Z</time>
      </trkpt>
      <trkpt lat="43.93258" lon="2.13403">
        <ele>133.9</ele>
        <time>2017-04-20T11:25:23Z</time>
      </trkpt>
      <trkpt lat="43.93262" lon="2.13395">
        <ele>132.9</ele>
        <time>2017-04-20T11:25:26Z</time>
      </trkpt>
      <trkpt lat="43.93268" lon="2.13384">
        <ele>131.5</ele>
        <time>2017-04-20T11:25:30Z</time>
      </trkpt>
      <trkpt lat="43.93271" lon="2.13373">
        <ele>130.9</ele>
        <time>2017-04-20T11:25:32Z</time>
      </trkpt>
      <trkpt lat="43.93273" lon="2.13361">
        <ele>130.3</ele>
        <time>2017-04-20T11:25:34Z</time>
      </trkpt>
      <trkpt lat="43.93273" lon="2.1335">
        <ele>129.3</ele>
        <time>2017-04-20T11:25:36Z</time>
      </trkpt>
      <trkpt lat="43.93271" lon="2.13337">
        <ele>129.3</ele>
        <time>2017-04-20T11:25:39Z</time>
      </trkpt>
      <trkpt lat="43.9327" lon="2.13326">
        <ele>129.1</ele>
        <time>2017-04-20T11:25:42Z</time>
      </trkpt>
      <trkpt lat="43.93268" lon="2.13313">
        <ele>129.1</ele>
        <time>2017-04-20T11:25:45Z</time>
      </trkpt>
      <trkpt lat="43.93266" lon="2.13303">
        <ele>127.4</ele>
        <time>2017-04-20T11:25:47Z</time>
      </trkpt>
      <trkpt lat="43.93266" lon="2.13291">
        <ele>128</ele>
        <time>2017-04-20T11:25:49Z</time>
      </trkpt>
      <trkpt lat="43.93266" lon="2.13279">
        <ele>129.2</ele>
        <time>2017-04-20T11:25:51Z</time>
      </trkpt>
      <trkpt lat="43.93265" lon="2.13268">
        <ele>129.9</ele>
        <time>2017-04-20T11:25:53Z</time>
      </trkpt>
      <trkpt lat="43.93264" lon="2.13257">
        <ele>130.5</ele>
        <time>2017-04-20T11:25:55Z</time>
      </trkpt>
      <trkpt lat="43.93264" lon="2.13244">
        <ele>131.7</ele>
        <time>2017-04-20T11:25:57Z</time>
      </trkpt>
      <trkpt lat="43.93263" lon="2.13231">
        <ele>132.9</ele>
        <time>2017-04-20T11:25:59Z</time>
      </trkpt>
      <trkpt lat="43.93261" lon="2.1322">
        <ele>134.4</ele>
        <time>2017-04-20T11:26:01Z</time>
      </trkpt>
      <trkpt lat="43.93255" lon="2.13212">
        <ele>134.7</ele>
        <time>2017-04-20T11:26:03Z</time>
      </trkpt>
      <trkpt lat="43.93249" lon="2.13205">
        <ele>134.8</ele>
        <time>2017-04-20T11:26:05Z</time>
      </trkpt>
      <trkpt lat="43.9324" lon="2.13197">
        <ele>134.2</ele>
        <time>2017-04-20T11:26:08Z</time>
      </trkpt>
      <trkpt lat="43.93233" lon="2.13191">
        <ele>133.9</ele>
        <time>2017-04-20T11:26:10Z</time>
      </trkpt>
      <trkpt lat="43.93227" lon="2.13187">
        <ele>133.2</ele>
        <time>2017-04-20T11:26:12Z</time>
      </trkpt>
      <trkpt lat="43.93219" lon="2.13182">
        <ele>134.1</ele>
        <time>2017-04-20T11:26:14Z</time>
      </trkpt>
      <trkpt lat="43.93211" lon="2.13177">
        <ele>133.8</ele>
        <time>2017-04-20T11:26:16Z</time>
      </trkpt>
      <trkpt lat="43.93203" lon="2.13171">
        <ele>134.4</ele>
        <time>2017-04-20T11:26:18Z</time>
      </trkpt>
      <trkpt lat="43.93195" lon="2.13168">
        <ele>134.8</ele>
        <time>2017-04-20T11:26:20Z</time>
      </trkpt>
      <trkpt lat="43.93186" lon="2.13164">
        <ele>135</ele>
        <time>2017-04-20T11:26:22Z</time>
      </trkpt>
      <trkpt lat="43.93178" lon="2.1316">
        <ele>135.8</ele>
        <time>2017-04-20T11:26:24Z</time>
      </trkpt>
      <trkpt lat="43.93168" lon="2.13157">
        <ele>135.7</ele>
        <time>2017-04-20T11:26:26Z</time>
      </trkpt>
      <trkpt lat="43.93158" lon="2.13155">
        <ele>136</ele>
        <time>2017-04-20T11:26:28Z</time>
      </trkpt>
      <trkpt lat="43.93149" lon="2.13153">
        <ele>136.6</ele>
        <time>2017-04-20T11:26:30Z</time>
      </trkpt>
      <trkpt lat="43.9314" lon="2.13155">
        <ele>135.9</ele>
        <time>2017-04-20T11:26:32Z</time>
      </trkpt>
      <trkpt lat="43.93133" lon="2.13158">
        <ele>135.2</ele>
        <time>2017-04-20T11:26:34Z</time>
      </trkpt>
      <trkpt lat="43.93125" lon="2.13161">
        <ele>134.1</ele>
        <time>2017-04-20T11:26:36Z</time>
      </trkpt>
      <trkpt lat="43.93119" lon="2.13166">
        <ele>135.2</ele>
        <time>2017-04-20T11:26:38Z</time>
      </trkpt>
      <trkpt lat="43.93112" lon="2.13171">
        <ele>135.5</ele>
        <time>2017-04-20T11:26:40Z</time>
      </trkpt>
      <trkpt lat="43.93106" lon="2.13177">
        <ele>135.4</ele>
        <time>2017-04-20T11:26:42Z</time>
      </trkpt>
      <trkpt lat="43.93098" lon="2.13182">
        <ele>135.6</ele>
        <time>2017-04-20T11:26:44Z</time>
      </trkpt>
      <trkpt lat="43.9309" lon="2.13185">
        <ele>135.4</ele>
        <time>2017-04-20T11:26:46Z</time>
      </trkpt>
      <trkpt lat="43.93081" lon="2.13186">
        <ele>135.4</ele>
        <time>2017-04-20T11:26:48Z</time>
      </trkpt>
      <trkpt lat="43.93074" lon="2.13187">
        <ele>135.3</ele>
        <time>2017-04-20T11:26:50Z</time>
      </trkpt>
      <trkpt lat="43.93066" lon="2.13188">
        <ele>135.3</ele>
        <time>2017-04-20T11:26:52Z</time>
      </trkpt>
      <trkpt lat="43.93059" lon="2.1319">
        <ele>136.1</ele>
        <time>2017-04-20T11:26:54Z</time>
      </trkpt>
      <trkpt lat="43.93052" lon="2.13196">
        <ele>137.6</ele>
        <time>2017-04-20T11:26:56Z</time>
      </trkpt>
      <trkpt lat="43.93044" lon="2.13202">
        <ele>137.2</ele>
        <time>2017-04-20T11:26:58Z</time>
      </trkpt>
      <trkpt lat="43.93037" lon="2.13207">
        <ele>136.7</ele>
        <time>2017-04-20T11:27:00Z</time>
      </trkpt>
      <trkpt lat="43.9303" lon="2.13214">
        <ele>136.8</ele>
        <time>2017-04-20T11:27:02Z</time>
      </trkpt>
      <trkpt lat="43.93024" lon="2.13221">
        <ele>136.8</ele>
        <time>2017-04-20T11:27:04Z</time>
      </trkpt>
      <trkpt lat="43.93017" lon="2.13232">
        <ele>136.4</ele>
        <time>2017-04-20T11:27:07Z</time>
      </trkpt>
      <trkpt lat="43.93012" lon="2.13241">
        <ele>136</ele>
        <time>2017-04-20T11:27:09Z</time>
      </trkpt>
      <trkpt lat="43.93009" lon="2.1325">
        <ele>136.2</ele>
        <time>2017-04-20T11:27:11Z</time>
      </trkpt>
      <trkpt lat="43.93004" lon="2.13261">
        <ele>135.9</ele>
        <time>2017-04-20T11:27:14Z</time>
      </trkpt>
      <trkpt lat="43.92998" lon="2.13271">
        <ele>135.8</ele>
        <time>2017-04-20T11:27:17Z</time>
      </trkpt>
      <trkpt lat="43.92994" lon="2.1328">
        <ele>132.1</ele>
        <time>2017-04-20T11:27:20Z</time>
      </trkpt>
      <trkpt lat="43.92991" lon="2.13293">
        <ele>129.2</ele>
        <time>2017-04-20T11:27:24Z</time>
      </trkpt>
      <trkpt lat="43.92985" lon="2.13305">
        <ele>129.1</ele>
        <time>2017-04-20T11:27:27Z</time>
      </trkpt>
      <trkpt lat="43.9298" lon="2.13313">
        <ele>129.9</ele>
        <time>2017-04-20T11:27:30Z</time>
      </trkpt>
      <trkpt lat="43.92972" lon="2.13317">
        <ele>128.7</ele>
        <time>2017-04-20T11:27:34Z</time>
      </trkpt>
      <trkpt lat="43.92966" lon="2.13325">
        <ele>126.6</ele>
        <time>2017-04-20T11:27:38Z</time>
      </trkpt>
      <trkpt lat="43.92961" lon="2.13334">
        <ele>125.4</ele>
        <time>2017-04-20T11:27:40Z</time>
      </trkpt>
      <trkpt lat="43.92956" lon="2.13342">
        <ele>124.4</ele>
        <time>2017-04-20T11:27:42Z</time>
      </trkpt>
      <trkpt lat="43.92947" lon="2.13346">
        <ele>126.2</ele>
        <time>2017-04-20T11:27:45Z</time>
      </trkpt>
      <trkpt lat="43.9294" lon="2.13353">
        <ele>126.3</ele>
        <time>2017-04-20T11:27:48Z</time>
      </trkpt>
      <trkpt lat="43.92939" lon="2.13365">
        <ele>125</ele>
        <time>2017-04-20T11:27:51Z</time>
      </trkpt>
      <trkpt lat="43.92938" lon="2.13379">
        <ele>125.1</ele>
        <time>2017-04-20T11:27:54Z</time>
      </trkpt>
      <trkpt lat="43.92936" lon="2.13389">
        <ele>126.2</ele>
        <time>2017-04-20T11:27:56Z</time>
      </trkpt>
      <trkpt lat="43.92933" lon="2.13399">
        <ele>126.7</ele>
        <time>2017-04-20T11:27:58Z</time>
      </trkpt>
      <trkpt lat="43.9293" lon="2.13412">
        <ele>127.6</ele>
        <time>2017-04-20T11:28:01Z</time>
      </trkpt>
      <trkpt lat="43.92927" lon="2.13426">
        <ele>128.3</ele>
        <time>2017-04-20T11:28:04Z</time>
      </trkpt>
      <trkpt lat="43.92924" lon="2.13439">
        <ele>128.1</ele>
        <time>2017-04-20T11:28:07Z</time>
      </trkpt>
      <trkpt lat="43.9292" lon="2.13448">
        <ele>128.8</ele>
        <time>2017-04-20T11:28:11Z</time>
      </trkpt>
      <trkpt lat="43.92918" lon="2.13449">
        <ele>129.3</ele>
        <time>2017-04-20T11:28:18Z</time>
      </trkpt>
      <trkpt lat="43.92916" lon="2.13461">
        <ele>130.2</ele>
        <time>2017-04-20T11:28:27Z</time>
      </trkpt>
      <trkpt lat="43.92915" lon="2.13472">
        <ele>130.2</ele>
        <time>2017-04-20T11:28:30Z</time>
      </trkpt>
      <trkpt lat="43.92914" lon="2.13484">
        <ele>130.8</ele>
        <time>2017-04-20T11:28:34Z</time>
      </trkpt>
      <trkpt lat="43.92914" lon="2.13499">
        <ele>132.4</ele>
        <time>2017-04-20T11:28:37Z</time>
      </trkpt>
      <trkpt lat="43.92915" lon="2.13513">
        <ele>132.5</ele>
        <time>2017-04-20T11:28:40Z</time>
      </trkpt>
      <trkpt lat="43.92916" lon="2.13526">
        <ele>132.6</ele>
        <time>2017-04-20T11:28:43Z</time>
      </trkpt>
      <trkpt lat="43.92918" lon="2.13538">
        <ele>134.4</ele>
        <time>2017-04-20T11:28:46Z</time>
      </trkpt>
      <trkpt lat="43.92919" lon="2.13551">
        <ele>136.4</ele>
        <time>2017-04-20T11:28:49Z</time>
      </trkpt>
      <trkpt lat="43.92921" lon="2.13563">
        <ele>137.9</ele>
        <time>2017-04-20T11:28:52Z</time>
      </trkpt>
      <trkpt lat="43.92924" lon="2.13572">
        <ele>139.2</ele>
        <time>2017-04-20T11:28:55Z</time>
      </trkpt>
      <trkpt lat="43.92927" lon="2.13582">
        <ele>142.2</ele>
        <time>2017-04-20T11:28:58Z</time>
      </trkpt>
      <trkpt lat="43.9293" lon="2.13594">
        <ele>144.6</ele>
        <time>2017-04-20T11:29:01Z</time>
      </trkpt>
      <trkpt lat="43.92933" lon="2.13607">
        <ele>145.9</ele>
        <time>2017-04-20T11:29:04Z</time>
      </trkpt>
      <trkpt lat="43.92937" lon="2.13619">
        <ele>145.9</ele>
        <time>2017-04-20T11:29:07Z</time>
      </trkpt>
      <trkpt lat="43.9294" lon="2.13631">
        <ele>145.3</ele>
        <time>2017-04-20T11:29:10Z</time>
      </trkpt>
      <trkpt lat="43.92943" lon="2.13643">
        <ele>144.4</ele>
        <time>2017-04-20T11:29:13Z</time>
      </trkpt>
      <trkpt lat="43.92945" lon="2.13658">
        <ele>147.1</ele>
        <time>2017-04-20T11:29:16Z</time>
      </trkpt>
      <trkpt lat="43.92947" lon="2.13671">
        <ele>149.1</ele>
        <time>2017-04-20T11:29:19Z</time>
      </trkpt>
      <trkpt lat="43.9295" lon="2.13681">
        <ele>150.5</ele>
        <time>2017-04-20T11:29:22Z</time>
      </trkpt>
      <trkpt lat="43.92955" lon="2.13691">
        <ele>149.8</ele>
        <time>2017-04-20T11:29:25Z</time>
      </trkpt>
      <trkpt lat="43.9296" lon="2.13702">
        <ele>149.8</ele>
        <time>2017-04-20T11:29:28Z</time>
      </trkpt>
      <trkpt lat="43.92965" lon="2.13714">
        <ele>151.3</ele>
        <time>2017-04-20T11:29:31Z</time>
      </trkpt>
      <trkpt lat="43.92969" lon="2.13723">
        <ele>151.5</ele>
        <time>2017-04-20T11:29:33Z</time>
      </trkpt>
      <trkpt lat="43.92971" lon="2.13734">
        <ele>151.1</ele>
        <time>2017-04-20T11:29:35Z</time>
      </trkpt>
      <trkpt lat="43.92974" lon="2.13743">
        <ele>150.6</ele>
        <time>2017-04-20T11:29:37Z</time>
      </trkpt>
      <trkpt lat="43.92975" lon="2.13753">
        <ele>150.7</ele>
        <time>2017-04-20T11:29:39Z</time>
      </trkpt>
      <trkpt lat="43.92977" lon="2.13763">
        <ele>150.1</ele>
        <time>2017-04-20T11:29:41Z</time>
      </trkpt>
      <trkpt lat="43.92979" lon="2.13774">
        <ele>149.9</ele>
        <time>2017-04-20T11:29:43Z</time>
      </trkpt>
      <trkpt lat="43.92981" lon="2.13785">
        <ele>148.9</ele>
        <time>2017-04-20T11:29:45Z</time>
      </trkpt>
      <trkpt lat="43.92982" lon="2.13796">
        <ele>147.8</ele>
        <time>2017-04-20T11:29:47Z</time>
      </trkpt>
      <trkpt lat="43.92986" lon="2.13806">
        <ele>147</ele>
        <time>2017-04-20T11:29:49Z</time>
      </trkpt>
      <trkpt lat="43.92989" lon="2.13815">
        <ele>147.2</ele>
        <time>2017-04-20T11:29:51Z</time>
      </trkpt>
      <trkpt lat="43.92993" lon="2.13826">
        <ele>147.5</ele>
        <time>2017-04-20T11:29:53Z</time>
      </trkpt>
      <trkpt lat="43.92997" lon="2.13836">
        <ele>147.4</ele>
        <time>2017-04-20T11:29:55Z</time>
      </trkpt>
      <trkpt lat="43.93002" lon="2.13847">
        <ele>147.5</ele>
        <time>2017-04-20T11:29:57Z</time>
      </trkpt>
      <trkpt lat="43.93007" lon="2.13857">
        <ele>147.6</ele>
        <time>2017-04-20T11:29:59Z</time>
      </trkpt>
      <trkpt lat="43.93015" lon="2.13866">
        <ele>149.2</ele>
        <time>2017-04-20T11:30:01Z</time>
      </trkpt>
      <trkpt lat="43.93022" lon="2.13874">
        <ele>148.5</ele>
        <time>2017-04-20T11:30:03Z</time>
      </trkpt>
      <trkpt lat="43.93031" lon="2.13882">
        <ele>150</ele>
        <time>2017-04-20T11:30:05Z</time>
      </trkpt>
      <trkpt lat="43.93038" lon="2.1389">
        <ele>150.2</ele>
        <time>2017-04-20T11:30:07Z</time>
      </trkpt>
      <trkpt lat="43.93046" lon="2.13898">
        <ele>150.8</ele>
        <time>2017-04-20T11:30:09Z</time>
      </trkpt>
      <trkpt lat="43.93054" lon="2.13906">
        <ele>151.4</ele>
        <time>2017-04-20T11:30:11Z</time>
      </trkpt>
      <trkpt lat="43.93062" lon="2.13914">
        <ele>152.2</ele>
        <time>2017-04-20T11:30:13Z</time>
      </trkpt>
      <trkpt lat="43.93069" lon="2.13923">
        <ele>152.9</ele>
        <time>2017-04-20T11:30:15Z</time>
      </trkpt>
      <trkpt lat="43.93075" lon="2.13933">
        <ele>153.4</ele>
        <time>2017-04-20T11:30:17Z</time>
      </trkpt>
      <trkpt lat="43.93081" lon="2.13946">
        <ele>153.7</ele>
        <time>2017-04-20T11:30:19Z</time>
      </trkpt>
      <trkpt lat="43.93086" lon="2.13957">
        <ele>154.1</ele>
        <time>2017-04-20T11:30:21Z</time>
      </trkpt>
      <trkpt lat="43.93093" lon="2.13969">
        <ele>153.9</ele>
        <time>2017-04-20T11:30:23Z</time>
      </trkpt>
      <trkpt lat="43.931" lon="2.1398">
        <ele>154.2</ele>
        <time>2017-04-20T11:30:25Z</time>
      </trkpt>
      <trkpt lat="43.93107" lon="2.1399">
        <ele>154.9</ele>
        <time>2017-04-20T11:30:27Z</time>
      </trkpt>
      <trkpt lat="43.93114" lon="2.14002">
        <ele>155.3</ele>
        <time>2017-04-20T11:30:29Z</time>
      </trkpt>
      <trkpt lat="43.9312" lon="2.14012">
        <ele>155.3</ele>
        <time>2017-04-20T11:30:31Z</time>
      </trkpt>
      <trkpt lat="43.93127" lon="2.14023">
        <ele>155.5</ele>
        <time>2017-04-20T11:30:33Z</time>
      </trkpt>
      <trkpt lat="43.93133" lon="2.14033">
        <ele>155.7</ele>
        <time>2017-04-20T11:30:35Z</time>
      </trkpt>
      <trkpt lat="43.9314" lon="2.14043">
        <ele>156.2</ele>
        <time>2017-04-20T11:30:37Z</time>
      </trkpt>
      <trkpt lat="43.93147" lon="2.14054">
        <ele>156.5</ele>
        <time>2017-04-20T11:30:39Z</time>
      </trkpt>
      <trkpt lat="43.93154" lon="2.14064">
        <ele>156.7</ele>
        <time>2017-04-20T11:30:41Z</time>
      </trkpt>
      <trkpt lat="43.93161" lon="2.14075">
        <ele>157.1</ele>
        <time>2017-04-20T11:30:43Z</time>
      </trkpt>
      <trkpt lat="43.93169" lon="2.14086">
        <ele>156.9</ele>
        <time>2017-04-20T11:30:45Z</time>
      </trkpt>
      <trkpt lat="43.93176" lon="2.14097">
        <ele>157.3</ele>
        <time>2017-04-20T11:30:47Z</time>
      </trkpt>
      <trkpt lat="43.93183" lon="2.1411">
        <ele>157.6</ele>
        <time>2017-04-20T11:30:49Z</time>
      </trkpt>
      <trkpt lat="43.93189" lon="2.14124">
        <ele>157.6</ele>
        <time>2017-04-20T11:30:51Z</time>
      </trkpt>
      <trkpt lat="43.93195" lon="2.14137">
        <ele>157.7</ele>
        <time>2017-04-20T11:30:53Z</time>
      </trkpt>
      <trkpt lat="43.93199" lon="2.1415">
        <ele>157.5</ele>
        <time>2017-04-20T11:30:55Z</time>
      </trkpt>
      <trkpt lat="43.93204" lon="2.14163">
        <ele>157.2</ele>
        <time>2017-04-20T11:30:57Z</time>
      </trkpt>
      <trkpt lat="43.93209" lon="2.14174">
        <ele>157.2</ele>
        <time>2017-04-20T11:30:59Z</time>
      </trkpt>
      <trkpt lat="43.93215" lon="2.14186">
        <ele>156.8</ele>
        <time>2017-04-20T11:31:01Z</time>
      </trkpt>
      <trkpt lat="43.93221" lon="2.14199">
        <ele>156.1</ele>
        <time>2017-04-20T11:31:03Z</time>
      </trkpt>
      <trkpt lat="43.93226" lon="2.1421">
        <ele>156.4</ele>
        <time>2017-04-20T11:31:05Z</time>
      </trkpt>
      <trkpt lat="43.93231" lon="2.14219">
        <ele>156.6</ele>
        <time>2017-04-20T11:31:08Z</time>
      </trkpt>
      <trkpt lat="43.93231" lon="2.14229">
        <ele>154.5</ele>
        <time>2017-04-20T11:31:10Z</time>
      </trkpt>
      <trkpt lat="43.93229" lon="2.14244">
        <ele>154</ele>
        <time>2017-04-20T11:31:12Z</time>
      </trkpt>
      <trkpt lat="43.93224" lon="2.14262">
        <ele>152.6</ele>
        <time>2017-04-20T11:31:14Z</time>
      </trkpt>
      <trkpt lat="43.93222" lon="2.14272">
        <ele>152.3</ele>
        <time>2017-04-20T11:31:15Z</time>
      </trkpt>
      <trkpt lat="43.9322" lon="2.14282">
        <ele>151.8</ele>
        <time>2017-04-20T11:31:16Z</time>
      </trkpt>
      <trkpt lat="43.93216" lon="2.14292">
        <ele>151.4</ele>
        <time>2017-04-20T11:31:17Z</time>
      </trkpt>
      <trkpt lat="43.93213" lon="2.14305">
        <ele>151</ele>
        <time>2017-04-20T11:31:18Z</time>
      </trkpt>
      <trkpt lat="43.93209" lon="2.14316">
        <ele>150.5</ele>
        <time>2017-04-20T11:31:19Z</time>
      </trkpt>
      <trkpt lat="43.93206" lon="2.14328">
        <ele>149.9</ele>
        <time>2017-04-20T11:31:20Z</time>
      </trkpt>
      <trkpt lat="43.93204" lon="2.14341">
        <ele>149.2</ele>
        <time>2017-04-20T11:31:21Z</time>
      </trkpt>
      <trkpt lat="43.93201" lon="2.14352">
        <ele>148.8</ele>
        <time>2017-04-20T11:31:22Z</time>
      </trkpt>
      <trkpt lat="43.93198" lon="2.14364">
        <ele>148.3</ele>
        <time>2017-04-20T11:31:23Z</time>
      </trkpt>
      <trkpt lat="43.93195" lon="2.14377">
        <ele>148</ele>
        <time>2017-04-20T11:31:24Z</time>
      </trkpt>
      <trkpt lat="43.93191" lon="2.14389">
        <ele>147.7</ele>
        <time>2017-04-20T11:31:25Z</time>
      </trkpt>
      <trkpt lat="43.93185" lon="2.14402">
        <ele>148.3</ele>
        <time>2017-04-20T11:31:26Z</time>
      </trkpt>
      <trkpt lat="43.93176" lon="2.1441">
        <ele>148.8</ele>
        <time>2017-04-20T11:31:27Z</time>
      </trkpt>
      <trkpt lat="43.93168" lon="2.14417">
        <ele>149.2</ele>
        <time>2017-04-20T11:31:28Z</time>
      </trkpt>
      <trkpt lat="43.9316" lon="2.14424">
        <ele>149.5</ele>
        <time>2017-04-20T11:31:29Z</time>
      </trkpt>
      <trkpt lat="43.93152" lon="2.1443">
        <ele>150.1</ele>
        <time>2017-04-20T11:31:30Z</time>
      </trkpt>
      <trkpt lat="43.93145" lon="2.14435">
        <ele>150.4</ele>
        <time>2017-04-20T11:31:31Z</time>
      </trkpt>
      <trkpt lat="43.93138" lon="2.14441">
        <ele>150.5</ele>
        <time>2017-04-20T11:31:32Z</time>
      </trkpt>
      <trkpt lat="43.93132" lon="2.14446">
        <ele>150.6</ele>
        <time>2017-04-20T11:31:33Z</time>
      </trkpt>
      <trkpt lat="43.93125" lon="2.14452">
        <ele>150.6</ele>
        <time>2017-04-20T11:31:34Z</time>
      </trkpt>
      <trkpt lat="43.93114" lon="2.14461">
        <ele>150.4</ele>
        <time>2017-04-20T11:31:36Z</time>
      </trkpt>
      <trkpt lat="43.93102" lon="2.1447">
        <ele>150.7</ele>
        <time>2017-04-20T11:31:38Z</time>
      </trkpt>
      <trkpt lat="43.93092" lon="2.14478">
        <ele>150.7</ele>
        <time>2017-04-20T11:31:40Z</time>
      </trkpt>
      <trkpt lat="43.93081" lon="2.14486">
        <ele>150.5</ele>
        <time>2017-04-20T11:31:42Z</time>
      </trkpt>
      <trkpt lat="43.93072" lon="2.14492">
        <ele>150.5</ele>
        <time>2017-04-20T11:31:44Z</time>
      </trkpt>
      <trkpt lat="43.93063" lon="2.14498">
        <ele>150.5</ele>
        <time>2017-04-20T11:31:46Z</time>
      </trkpt>
      <trkpt lat="43.93057" lon="2.14507">
        <ele>150.5</ele>
        <time>2017-04-20T11:31:49Z</time>
      </trkpt>
      <trkpt lat="43.93059" lon="2.1452">
        <ele>150</ele>
        <time>2017-04-20T11:31:52Z</time>
      </trkpt>
      <trkpt lat="43.93061" lon="2.14531">
        <ele>148.9</ele>
        <time>2017-04-20T11:31:54Z</time>
      </trkpt>
      <trkpt lat="43.93064" lon="2.14541">
        <ele>147.3</ele>
        <time>2017-04-20T11:31:56Z</time>
      </trkpt>
      <trkpt lat="43.93067" lon="2.14551">
        <ele>145.4</ele>
        <time>2017-04-20T11:31:58Z</time>
      </trkpt>
      <trkpt lat="43.9307" lon="2.14565">
        <ele>143.3</ele>
        <time>2017-04-20T11:32:01Z</time>
      </trkpt>
      <trkpt lat="43.93075" lon="2.14578">
        <ele>142.3</ele>
        <time>2017-04-20T11:32:04Z</time>
      </trkpt>
      <trkpt lat="43.93081" lon="2.14587">
        <ele>140.9</ele>
        <time>2017-04-20T11:32:07Z</time>
      </trkpt>
      <trkpt lat="43.9308" lon="2.14576">
        <ele>139.3</ele>
        <time>2017-04-20T11:32:12Z</time>
      </trkpt>
      <trkpt lat="43.93074" lon="2.14563">
        <ele>139</ele>
        <time>2017-04-20T11:32:15Z</time>
      </trkpt>
      <trkpt lat="43.93071" lon="2.14551">
        <ele>137.7</ele>
        <time>2017-04-20T11:32:17Z</time>
      </trkpt>
      <trkpt lat="43.93067" lon="2.14541">
        <ele>136.5</ele>
        <time>2017-04-20T11:32:19Z</time>
      </trkpt>
      <trkpt lat="43.93063" lon="2.14529">
        <ele>136</ele>
        <time>2017-04-20T11:32:21Z</time>
      </trkpt>
      <trkpt lat="43.93061" lon="2.14517">
        <ele>135.5</ele>
        <time>2017-04-20T11:32:23Z</time>
      </trkpt>
      <trkpt lat="43.93058" lon="2.14506">
        <ele>135.2</ele>
        <time>2017-04-20T11:32:25Z</time>
      </trkpt>
      <trkpt lat="43.93054" lon="2.14497">
        <ele>135.9</ele>
        <time>2017-04-20T11:32:27Z</time>
      </trkpt>
      <trkpt lat="43.9305" lon="2.14487">
        <ele>134.7</ele>
        <time>2017-04-20T11:32:29Z</time>
      </trkpt>
      <trkpt lat="43.93046" lon="2.14477">
        <ele>134.1</ele>
        <time>2017-04-20T11:32:31Z</time>
      </trkpt>
      <trkpt lat="43.93043" lon="2.14467">
        <ele>132.5</ele>
        <time>2017-04-20T11:32:33Z</time>
      </trkpt>
      <trkpt lat="43.93039" lon="2.14453">
        <ele>131.6</ele>
        <time>2017-04-20T11:32:36Z</time>
      </trkpt>
      <trkpt lat="43.93035" lon="2.14441">
        <ele>130.9</ele>
        <time>2017-04-20T11:32:39Z</time>
      </trkpt>
      <trkpt lat="43.93032" lon="2.14428">
        <ele>131.3</ele>
        <time>2017-04-20T11:32:42Z</time>
      </trkpt>
      <trkpt lat="43.93028" lon="2.14416">
        <ele>130.5</ele>
        <time>2017-04-20T11:32:45Z</time>
      </trkpt>
      <trkpt lat="43.93023" lon="2.14403">
        <ele>130.8</ele>
        <time>2017-04-20T11:32:48Z</time>
      </trkpt>
      <trkpt lat="43.9302" lon="2.14392">
        <ele>131</ele>
        <time>2017-04-20T11:32:50Z</time>
      </trkpt>
      <trkpt lat="43.93017" lon="2.14383">
        <ele>129.2</ele>
        <time>2017-04-20T11:32:52Z</time>
      </trkpt>
      <trkpt lat="43.93014" lon="2.14373">
        <ele>128.4</ele>
        <time>2017-04-20T11:32:54Z</time>
      </trkpt>
      <trkpt lat="43.9301" lon="2.14363">
        <ele>127.5</ele>
        <time>2017-04-20T11:32:56Z</time>
      </trkpt>
      <trkpt lat="43.93007" lon="2.14354">
        <ele>126.2</ele>
        <time>2017-04-20T11:32:58Z</time>
      </trkpt>
      <trkpt lat="43.93004" lon="2.14344">
        <ele>125.5</ele>
        <time>2017-04-20T11:33:00Z</time>
      </trkpt>
      <trkpt lat="43.93" lon="2.14333">
        <ele>125.1</ele>
        <time>2017-04-20T11:33:02Z</time>
      </trkpt>
      <trkpt lat="43.92997" lon="2.14322">
        <ele>124.6</ele>
        <time>2017-04-20T11:33:04Z</time>
      </trkpt>
      <trkpt lat="43.92994" lon="2.1431">
        <ele>124.3</ele>
        <time>2017-04-20T11:33:06Z</time>
      </trkpt>
      <trkpt lat="43.92992" lon="2.143">
        <ele>123.9</ele>
        <time>2017-04-20T11:33:08Z</time>
      </trkpt>
      <trkpt lat="43.9299" lon="2.14289">
        <ele>123.5</ele>
        <time>2017-04-20T11:33:10Z</time>
      </trkpt>
      <trkpt lat="43.92987" lon="2.14279">
        <ele>123.1</ele>
        <time>2017-04-20T11:33:12Z</time>
      </trkpt>
      <trkpt lat="43.92985" lon="2.14268">
        <ele>122.4</ele>
        <time>2017-04-20T11:33:14Z</time>
      </trkpt>
      <trkpt lat="43.92982" lon="2.14255">
        <ele>122.2</ele>
        <time>2017-04-20T11:33:17Z</time>
      </trkpt>
      <trkpt lat="43.92987" lon="2.14251">
        <ele>121.8</ele>
        <time>2017-04-20T11:33:24Z</time>
      </trkpt>
      <trkpt lat="43.92993" lon="2.14253">
        <ele>121.5</ele>
        <time>2017-04-20T11:33:31Z</time>
      </trkpt>
      <trkpt lat="43.92995" lon="2.14246">
        <ele>121.5</ele>
        <time>2017-04-20T11:33:52Z</time>
      </trkpt>
      <trkpt lat="43.92996" lon="2.14246">
        <ele>121</ele>
        <time>2017-04-20T11:33:59Z</time>
      </trkpt>
      <trkpt lat="43.92993" lon="2.14256">
        <ele>121.1</ele>
        <time>2017-04-20T11:34:15Z</time>
      </trkpt>
      <trkpt lat="43.92984" lon="2.14254">
        <ele>131.6</ele>
        <time>2017-04-20T11:34:22Z</time>
      </trkpt>
      <trkpt lat="43.9298" lon="2.14245">
        <ele>130.8</ele>
        <time>2017-04-20T11:34:26Z</time>
      </trkpt>
      <trkpt lat="43.9298" lon="2.14234">
        <ele>131</ele>
        <time>2017-04-20T11:34:29Z</time>
      </trkpt>
      <trkpt lat="43.92979" lon="2.14224">
        <ele>130</ele>
        <time>2017-04-20T11:34:32Z</time>
      </trkpt>
      <trkpt lat="43.92977" lon="2.14212">
        <ele>128.8</ele>
        <time>2017-04-20T11:34:35Z</time>
      </trkpt>
      <trkpt lat="43.9297" lon="2.14203">
        <ele>126.5</ele>
        <time>2017-04-20T11:34:38Z</time>
      </trkpt>
      <trkpt lat="43.92964" lon="2.14194">
        <ele>125.5</ele>
        <time>2017-04-20T11:34:41Z</time>
      </trkpt>
      <trkpt lat="43.92959" lon="2.14186">
        <ele>124.9</ele>
        <time>2017-04-20T11:34:44Z</time>
      </trkpt>
      <trkpt lat="43.92954" lon="2.14178">
        <ele>124.4</ele>
        <time>2017-04-20T11:34:47Z</time>
      </trkpt>
      <trkpt lat="43.92947" lon="2.14166">
        <ele>123.3</ele>
        <time>2017-04-20T11:34:50Z</time>
      </trkpt>
      <trkpt lat="43.92942" lon="2.14158">
        <ele>122.5</ele>
        <time>2017-04-20T11:34:52Z</time>
      </trkpt>
      <trkpt lat="43.92938" lon="2.14149">
        <ele>121.6</ele>
        <time>2017-04-20T11:34:54Z</time>
      </trkpt>
      <trkpt lat="43.92933" lon="2.14139">
        <ele>120.9</ele>
        <time>2017-04-20T11:34:56Z</time>
      </trkpt>
      <trkpt lat="43.92929" lon="2.1413">
        <ele>120.1</ele>
        <time>2017-04-20T11:34:58Z</time>
      </trkpt>
      <trkpt lat="43.92924" lon="2.14117">
        <ele>120</ele>
        <time>2017-04-20T11:35:01Z</time>
      </trkpt>
      <trkpt lat="43.9292" lon="2.14106">
        <ele>119.7</ele>
        <time>2017-04-20T11:35:03Z</time>
      </trkpt>
      <trkpt lat="43.92914" lon="2.14094">
        <ele>119.7</ele>
        <time>2017-04-20T11:35:05Z</time>
      </trkpt>
      <trkpt lat="43.92909" lon="2.14084">
        <ele>119.5</ele>
        <time>2017-04-20T11:35:07Z</time>
      </trkpt>
      <trkpt lat="43.92904" lon="2.14074">
        <ele>118.9</ele>
        <time>2017-04-20T11:35:09Z</time>
      </trkpt>
      <trkpt lat="43.929" lon="2.14064">
        <ele>118.1</ele>
        <time>2017-04-20T11:35:11Z</time>
      </trkpt>
      <trkpt lat="43.92896" lon="2.14055">
        <ele>117.7</ele>
        <time>2017-04-20T11:35:13Z</time>
      </trkpt>
      <trkpt lat="43.92893" lon="2.14046">
        <ele>118.1</ele>
        <time>2017-04-20T11:35:15Z</time>
      </trkpt>
      <trkpt lat="43.92888" lon="2.14035">
        <ele>117.4</ele>
        <time>2017-04-20T11:35:18Z</time>
      </trkpt>
      <trkpt lat="43.92884" lon="2.14025">
        <ele>115.7</ele>
        <time>2017-04-20T11:35:21Z</time>
      </trkpt>
      <trkpt lat="43.9288" lon="2.14014">
        <ele>115</ele>
        <time>2017-04-20T11:35:24Z</time>
      </trkpt>
      <trkpt lat="43.92875" lon="2.14002">
        <ele>114.7</ele>
        <time>2017-04-20T11:35:27Z</time>
      </trkpt>
      <trkpt lat="43.9287" lon="2.13987">
        <ele>116.8</ele>
        <time>2017-04-20T11:35:30Z</time>
      </trkpt>
      <trkpt lat="43.92867" lon="2.13975">
        <ele>119.1</ele>
        <time>2017-04-20T11:35:32Z</time>
      </trkpt>
      <trkpt lat="43.92864" lon="2.1396">
        <ele>120.8</ele>
        <time>2017-04-20T11:35:35Z</time>
      </trkpt>
      <trkpt lat="43.92861" lon="2.13951">
        <ele>121.3</ele>
        <time>2017-04-20T11:35:37Z</time>
      </trkpt>
      <trkpt lat="43.92859" lon="2.1394">
        <ele>122.8</ele>
        <time>2017-04-20T11:35:39Z</time>
      </trkpt>
      <trkpt lat="43.92858" lon="2.13926">
        <ele>124.3</ele>
        <time>2017-04-20T11:35:42Z</time>
      </trkpt>
      <trkpt lat="43.92852" lon="2.13916">
        <ele>125</ele>
        <time>2017-04-20T11:35:45Z</time>
      </trkpt>
      <trkpt lat="43.92848" lon="2.13908">
        <ele>125.9</ele>
        <time>2017-04-20T11:35:48Z</time>
      </trkpt>
      <trkpt lat="43.92843" lon="2.13898">
        <ele>125.4</ele>
        <time>2017-04-20T11:35:51Z</time>
      </trkpt>
      <trkpt lat="43.92837" lon="2.13888">
        <ele>125.1</ele>
        <time>2017-04-20T11:35:54Z</time>
      </trkpt>
      <trkpt lat="43.92833" lon="2.13879">
        <ele>124.7</ele>
        <time>2017-04-20T11:35:57Z</time>
      </trkpt>
      <trkpt lat="43.92827" lon="2.13869">
        <ele>125.2</ele>
        <time>2017-04-20T11:36:00Z</time>
      </trkpt>
      <trkpt lat="43.9282" lon="2.13866">
        <ele>126.2</ele>
        <time>2017-04-20T11:36:03Z</time>
      </trkpt>
      <trkpt lat="43.9281" lon="2.13867">
        <ele>127</ele>
        <time>2017-04-20T11:36:07Z</time>
      </trkpt>
      <trkpt lat="43.92801" lon="2.13869">
        <ele>126.8</ele>
        <time>2017-04-20T11:36:10Z</time>
      </trkpt>
      <trkpt lat="43.92793" lon="2.13876">
        <ele>125.8</ele>
        <time>2017-04-20T11:36:13Z</time>
      </trkpt>
      <trkpt lat="43.92788" lon="2.13887">
        <ele>125.3</ele>
        <time>2017-04-20T11:36:17Z</time>
      </trkpt>
      <trkpt lat="43.92783" lon="2.13896">
        <ele>125.5</ele>
        <time>2017-04-20T11:36:22Z</time>
      </trkpt>
      <trkpt lat="43.92777" lon="2.1389">
        <ele>126.7</ele>
        <time>2017-04-20T11:36:25Z</time>
      </trkpt>
      <trkpt lat="43.92769" lon="2.13885">
        <ele>128.4</ele>
        <time>2017-04-20T11:36:28Z</time>
      </trkpt>
      <trkpt lat="43.9276" lon="2.13881">
        <ele>130.1</ele>
        <time>2017-04-20T11:36:32Z</time>
      </trkpt>
      <trkpt lat="43.92751" lon="2.1388">
        <ele>130.8</ele>
        <time>2017-04-20T11:36:37Z</time>
      </trkpt>
      <trkpt lat="43.92745" lon="2.13888">
        <ele>130.7</ele>
        <time>2017-04-20T11:36:42Z</time>
      </trkpt>
      <trkpt lat="43.92739" lon="2.13897">
        <ele>129.9</ele>
        <time>2017-04-20T11:36:47Z</time>
      </trkpt>
      <trkpt lat="43.92736" lon="2.13906">
        <ele>130.4</ele>
        <time>2017-04-20T11:36:51Z</time>
      </trkpt>
      <trkpt lat="43.92732" lon="2.13915">
        <ele>131.1</ele>
        <time>2017-04-20T11:36:54Z</time>
      </trkpt>
      <trkpt lat="43.92725" lon="2.13923">
        <ele>131.4</ele>
        <time>2017-04-20T11:36:57Z</time>
      </trkpt>
      <trkpt lat="43.92718" lon="2.13927">
        <ele>131.8</ele>
        <time>2017-04-20T11:37:00Z</time>
      </trkpt>
      <trkpt lat="43.92708" lon="2.13928">
        <ele>132.2</ele>
        <time>2017-04-20T11:37:03Z</time>
      </trkpt>
      <trkpt lat="43.92697" lon="2.13924">
        <ele>131.5</ele>
        <time>2017-04-20T11:37:06Z</time>
      </trkpt>
      <trkpt lat="43.9269" lon="2.13921">
        <ele>131.5</ele>
        <time>2017-04-20T11:37:08Z</time>
      </trkpt>
      <trkpt lat="43.92685" lon="2.13912">
        <ele>134.3</ele>
        <time>2017-04-20T11:37:11Z</time>
      </trkpt>
      <trkpt lat="43.92689" lon="2.13901">
        <ele>135.3</ele>
        <time>2017-04-20T11:37:14Z</time>
      </trkpt>
      <trkpt lat="43.92697" lon="2.13892">
        <ele>136.2</ele>
        <time>2017-04-20T11:37:17Z</time>
      </trkpt>
      <trkpt lat="43.92706" lon="2.13884">
        <ele>136.9</ele>
        <time>2017-04-20T11:37:20Z</time>
      </trkpt>
      <trkpt lat="43.92714" lon="2.13879">
        <ele>137.4</ele>
        <time>2017-04-20T11:37:22Z</time>
      </trkpt>
      <trkpt lat="43.92722" lon="2.13876">
        <ele>141.7</ele>
        <time>2017-04-20T11:37:25Z</time>
      </trkpt>
      <trkpt lat="43.92727" lon="2.13868">
        <ele>144</ele>
        <time>2017-04-20T11:37:29Z</time>
      </trkpt>
      <trkpt lat="43.92723" lon="2.13856">
        <ele>144.1</ele>
        <time>2017-04-20T11:37:33Z</time>
      </trkpt>
      <trkpt lat="43.92718" lon="2.13849">
        <ele>143.8</ele>
        <time>2017-04-20T11:37:35Z</time>
      </trkpt>
      <trkpt lat="43.92712" lon="2.13841">
        <ele>143.8</ele>
        <time>2017-04-20T11:37:37Z</time>
      </trkpt>
      <trkpt lat="43.92706" lon="2.13834">
        <ele>144</ele>
        <time>2017-04-20T11:37:40Z</time>
      </trkpt>
      <trkpt lat="43.92701" lon="2.13824">
        <ele>145.6</ele>
        <time>2017-04-20T11:37:42Z</time>
      </trkpt>
      <trkpt lat="43.927" lon="2.13812">
        <ele>143.8</ele>
        <time>2017-04-20T11:37:45Z</time>
      </trkpt>
      <trkpt lat="43.92701" lon="2.138">
        <ele>142.5</ele>
        <time>2017-04-20T11:37:48Z</time>
      </trkpt>
      <trkpt lat="43.92703" lon="2.13788">
        <ele>140.5</ele>
        <time>2017-04-20T11:37:51Z</time>
      </trkpt>
      <trkpt lat="43.92706" lon="2.13776">
        <ele>138.7</ele>
        <time>2017-04-20T11:37:54Z</time>
      </trkpt>
      <trkpt lat="43.92708" lon="2.13761">
        <ele>137.7</ele>
        <time>2017-04-20T11:37:57Z</time>
      </trkpt>
      <trkpt lat="43.92711" lon="2.13746">
        <ele>137.9</ele>
        <time>2017-04-20T11:38:00Z</time>
      </trkpt>
      <trkpt lat="43.92711" lon="2.13734">
        <ele>137.9</ele>
        <time>2017-04-20T11:38:03Z</time>
      </trkpt>
      <trkpt lat="43.92713" lon="2.13719">
        <ele>140.3</ele>
        <time>2017-04-20T11:38:06Z</time>
      </trkpt>
      <trkpt lat="43.92713" lon="2.13708">
        <ele>142.7</ele>
        <time>2017-04-20T11:38:08Z</time>
      </trkpt>
      <trkpt lat="43.92712" lon="2.13698">
        <ele>144.3</ele>
        <time>2017-04-20T11:38:10Z</time>
      </trkpt>
      <trkpt lat="43.92714" lon="2.13688">
        <ele>145.1</ele>
        <time>2017-04-20T11:38:14Z</time>
      </trkpt>
      <trkpt lat="43.92724" lon="2.13682">
        <ele>145.7</ele>
        <time>2017-04-20T11:38:17Z</time>
      </trkpt>
      <trkpt lat="43.92731" lon="2.13678">
        <ele>146.1</ele>
        <time>2017-04-20T11:38:19Z</time>
      </trkpt>
      <trkpt lat="43.92737" lon="2.13672">
        <ele>146.2</ele>
        <time>2017-04-20T11:38:21Z</time>
      </trkpt>
      <trkpt lat="43.92742" lon="2.13663">
        <ele>147.1</ele>
        <time>2017-04-20T11:38:23Z</time>
      </trkpt>
      <trkpt lat="43.92746" lon="2.13652">
        <ele>149.1</ele>
        <time>2017-04-20T11:38:25Z</time>
      </trkpt>
      <trkpt lat="43.92751" lon="2.13641">
        <ele>150.5</ele>
        <time>2017-04-20T11:38:27Z</time>
      </trkpt>
      <trkpt lat="43.92755" lon="2.13628">
        <ele>151.7</ele>
        <time>2017-04-20T11:38:29Z</time>
      </trkpt>
      <trkpt lat="43.92758" lon="2.13612">
        <ele>154</ele>
        <time>2017-04-20T11:38:31Z</time>
      </trkpt>
      <trkpt lat="43.92759" lon="2.13596">
        <ele>155.8</ele>
        <time>2017-04-20T11:38:33Z</time>
      </trkpt>
      <trkpt lat="43.9276" lon="2.13581">
        <ele>158.1</ele>
        <time>2017-04-20T11:38:35Z</time>
      </trkpt>
      <trkpt lat="43.92759" lon="2.13565">
        <ele>159.4</ele>
        <time>2017-04-20T11:38:37Z</time>
      </trkpt>
      <trkpt lat="43.92758" lon="2.1355">
        <ele>160.4</ele>
        <time>2017-04-20T11:38:39Z</time>
      </trkpt>
      <trkpt lat="43.92758" lon="2.13535">
        <ele>160.3</ele>
        <time>2017-04-20T11:38:41Z</time>
      </trkpt>
      <trkpt lat="43.92758" lon="2.1352">
        <ele>159.3</ele>
        <time>2017-04-20T11:38:43Z</time>
      </trkpt>
      <trkpt lat="43.92758" lon="2.13505">
        <ele>159.1</ele>
        <time>2017-04-20T11:38:45Z</time>
      </trkpt>
      <trkpt lat="43.92758" lon="2.1349">
        <ele>158.7</ele>
        <time>2017-04-20T11:38:47Z</time>
      </trkpt>
      <trkpt lat="43.92759" lon="2.13474">
        <ele>160.9</ele>
        <time>2017-04-20T11:38:49Z</time>
      </trkpt>
      <trkpt lat="43.9276" lon="2.13457">
        <ele>162.5</ele>
        <time>2017-04-20T11:38:51Z</time>
      </trkpt>
      <trkpt lat="43.9276" lon="2.13442">
        <ele>162.5</ele>
        <time>2017-04-20T11:38:53Z</time>
      </trkpt>
      <trkpt lat="43.9276" lon="2.13427">
        <ele>163</ele>
        <time>2017-04-20T11:38:55Z</time>
      </trkpt>
      <trkpt lat="43.92761" lon="2.13411">
        <ele>163.3</ele>
        <time>2017-04-20T11:38:57Z</time>
      </trkpt>
      <trkpt lat="43.92763" lon="2.13395">
        <ele>164</ele>
        <time>2017-04-20T11:38:59Z</time>
      </trkpt>
      <trkpt lat="43.92763" lon="2.1338">
        <ele>164.4</ele>
        <time>2017-04-20T11:39:01Z</time>
      </trkpt>
      <trkpt lat="43.92766" lon="2.13367">
        <ele>164</ele>
        <time>2017-04-20T11:39:03Z</time>
      </trkpt>
      <trkpt lat="43.92771" lon="2.13354">
        <ele>163.8</ele>
        <time>2017-04-20T11:39:05Z</time>
      </trkpt>
      <trkpt lat="43.92776" lon="2.13341">
        <ele>163.1</ele>
        <time>2017-04-20T11:39:07Z</time>
      </trkpt>
      <trkpt lat="43.9278" lon="2.13329">
        <ele>162.3</ele>
        <time>2017-04-20T11:39:09Z</time>
      </trkpt>
      <trkpt lat="43.92784" lon="2.13315">
        <ele>161.9</ele>
        <time>2017-04-20T11:39:11Z</time>
      </trkpt>
      <trkpt lat="43.92788" lon="2.13302">
        <ele>162</ele>
        <time>2017-04-20T11:39:13Z</time>
      </trkpt>
      <trkpt lat="43.92792" lon="2.13288">
        <ele>162.5</ele>
        <time>2017-04-20T11:39:15Z</time>
      </trkpt>
      <trkpt lat="43.92796" lon="2.13275">
        <ele>162.4</ele>
        <time>2017-04-20T11:39:17Z</time>
      </trkpt>
      <trkpt lat="43.92799" lon="2.1326">
        <ele>163.1</ele>
        <time>2017-04-20T11:39:19Z</time>
      </trkpt>
      <trkpt lat="43.92804" lon="2.13247">
        <ele>164.6</ele>
        <time>2017-04-20T11:39:21Z</time>
      </trkpt>
      <trkpt lat="43.9281" lon="2.13233">
        <ele>165.2</ele>
        <time>2017-04-20T11:39:23Z</time>
      </trkpt>
      <trkpt lat="43.92815" lon="2.1322">
        <ele>164.8</ele>
        <time>2017-04-20T11:39:25Z</time>
      </trkpt>
      <trkpt lat="43.9282" lon="2.13206">
        <ele>164.4</ele>
        <time>2017-04-20T11:39:27Z</time>
      </trkpt>
      <trkpt lat="43.92825" lon="2.1319">
        <ele>164.6</ele>
        <time>2017-04-20T11:39:29Z</time>
      </trkpt>
      <trkpt lat="43.9283" lon="2.13177">
        <ele>164.8</ele>
        <time>2017-04-20T11:39:31Z</time>
      </trkpt>
      <trkpt lat="43.92834" lon="2.13162">
        <ele>164.9</ele>
        <time>2017-04-20T11:39:33Z</time>
      </trkpt>
      <trkpt lat="43.92838" lon="2.13147">
        <ele>164.9</ele>
        <time>2017-04-20T11:39:35Z</time>
      </trkpt>
      <trkpt lat="43.92843" lon="2.13132">
        <ele>165.1</ele>
        <time>2017-04-20T11:39:37Z</time>
      </trkpt>
      <trkpt lat="43.92847" lon="2.13117">
        <ele>165.1</ele>
        <time>2017-04-20T11:39:39Z</time>
      </trkpt>
      <trkpt lat="43.92848" lon="2.13101">
        <ele>165.4</ele>
        <time>2017-04-20T11:39:41Z</time>
      </trkpt>
      <trkpt lat="43.92843" lon="2.13087">
        <ele>165.4</ele>
        <time>2017-04-20T11:39:43Z</time>
      </trkpt>
      <trkpt lat="43.92835" lon="2.13075">
        <ele>165.4</ele>
        <time>2017-04-20T11:39:45Z</time>
      </trkpt>
      <trkpt lat="43.92828" lon="2.13062">
        <ele>165.2</ele>
        <time>2017-04-20T11:39:47Z</time>
      </trkpt>
      <trkpt lat="43.92826" lon="2.13045">
        <ele>165.1</ele>
        <time>2017-04-20T11:39:49Z</time>
      </trkpt>
      <trkpt lat="43.9283" lon="2.13029">
        <ele>165</ele>
        <time>2017-04-20T11:39:51Z</time>
      </trkpt>
      <trkpt lat="43.92837" lon="2.13017">
        <ele>164.8</ele>
        <time>2017-04-20T11:39:53Z</time>
      </trkpt>
      <trkpt lat="43.92845" lon="2.13005">
        <ele>164.7</ele>
        <time>2017-04-20T11:39:55Z</time>
      </trkpt>
      <trkpt lat="43.92852" lon="2.12994">
        <ele>164.3</ele>
        <time>2017-04-20T11:39:57Z</time>
      </trkpt>
      <trkpt lat="43.92858" lon="2.12986">
        <ele>163.8</ele>
        <time>2017-04-20T11:39:59Z</time>
      </trkpt>
      <trkpt lat="43.92863" lon="2.12978">
        <ele>163.5</ele>
        <time>2017-04-20T11:40:01Z</time>
      </trkpt>
      <trkpt lat="43.92867" lon="2.12969">
        <ele>163</ele>
        <time>2017-04-20T11:40:03Z</time>
      </trkpt>
      <trkpt lat="43.9287" lon="2.12959">
        <ele>164</ele>
        <time>2017-04-20T11:40:05Z</time>
      </trkpt>
      <trkpt lat="43.92875" lon="2.12947">
        <ele>164.6</ele>
        <time>2017-04-20T11:40:08Z</time>
      </trkpt>
      <trkpt lat="43.92883" lon="2.1294">
        <ele>164.5</ele>
        <time>2017-04-20T11:40:11Z</time>
      </trkpt>
      <trkpt lat="43.92891" lon="2.12936">
        <ele>164.5</ele>
        <time>2017-04-20T11:40:13Z</time>
      </trkpt>
      <trkpt lat="43.929" lon="2.12932">
        <ele>164.6</ele>
        <time>2017-04-20T11:40:15Z</time>
      </trkpt>
      <trkpt lat="43.92911" lon="2.12926">
        <ele>164.6</ele>
        <time>2017-04-20T11:40:17Z</time>
      </trkpt>
      <trkpt lat="43.92923" lon="2.1292">
        <ele>164.6</ele>
        <time>2017-04-20T11:40:19Z</time>
      </trkpt>
      <trkpt lat="43.92935" lon="2.12916">
        <ele>164.3</ele>
        <time>2017-04-20T11:40:21Z</time>
      </trkpt>
      <trkpt lat="43.92946" lon="2.1291">
        <ele>163.6</ele>
        <time>2017-04-20T11:40:23Z</time>
      </trkpt>
      <trkpt lat="43.92957" lon="2.12905">
        <ele>163.8</ele>
        <time>2017-04-20T11:40:25Z</time>
      </trkpt>
      <trkpt lat="43.92968" lon="2.12899">
        <ele>164</ele>
        <time>2017-04-20T11:40:27Z</time>
      </trkpt>
      <trkpt lat="43.92981" lon="2.12895">
        <ele>164.1</ele>
        <time>2017-04-20T11:40:29Z</time>
      </trkpt>
      <trkpt lat="43.92993" lon="2.12891">
        <ele>164</ele>
        <time>2017-04-20T11:40:31Z</time>
      </trkpt>
      <trkpt lat="43.93005" lon="2.12885">
        <ele>163.2</ele>
        <time>2017-04-20T11:40:33Z</time>
      </trkpt>
      <trkpt lat="43.93016" lon="2.12882">
        <ele>163</ele>
        <time>2017-04-20T11:40:35Z</time>
      </trkpt>
      <trkpt lat="43.93029" lon="2.12878">
        <ele>163.8</ele>
        <time>2017-04-20T11:40:37Z</time>
      </trkpt>
      <trkpt lat="43.9304" lon="2.12875">
        <ele>163.9</ele>
        <time>2017-04-20T11:40:39Z</time>
      </trkpt>
      <trkpt lat="43.93053" lon="2.12874">
        <ele>164.3</ele>
        <time>2017-04-20T11:40:41Z</time>
      </trkpt>
      <trkpt lat="43.93064" lon="2.12874">
        <ele>164.6</ele>
        <time>2017-04-20T11:40:43Z</time>
      </trkpt>
      <trkpt lat="43.93077" lon="2.12874">
        <ele>164.4</ele>
        <time>2017-04-20T11:40:45Z</time>
      </trkpt>
      <trkpt lat="43.93088" lon="2.12875">
        <ele>164.2</ele>
        <time>2017-04-20T11:40:47Z</time>
      </trkpt>
      <trkpt lat="43.931" lon="2.12876">
        <ele>164.5</ele>
        <time>2017-04-20T11:40:49Z</time>
      </trkpt>
      <trkpt lat="43.93112" lon="2.12873">
        <ele>164</ele>
        <time>2017-04-20T11:40:51Z</time>
      </trkpt>
      <trkpt lat="43.93121" lon="2.12863">
        <ele>163.1</ele>
        <time>2017-04-20T11:40:53Z</time>
      </trkpt>
      <trkpt lat="43.93127" lon="2.12849">
        <ele>162.1</ele>
        <time>2017-04-20T11:40:55Z</time>
      </trkpt>
      <trkpt lat="43.93135" lon="2.12834">
        <ele>160.8</ele>
        <time>2017-04-20T11:40:57Z</time>
      </trkpt>
      <trkpt lat="43.93143" lon="2.12817">
        <ele>159.5</ele>
        <time>2017-04-20T11:40:59Z</time>
      </trkpt>
      <trkpt lat="43.93147" lon="2.12809">
        <ele>158.9</ele>
        <time>2017-04-20T11:41:00Z</time>
      </trkpt>
      <trkpt lat="43.93152" lon="2.12801">
        <ele>158.1</ele>
        <time>2017-04-20T11:41:01Z</time>
      </trkpt>
      <trkpt lat="43.93157" lon="2.12793">
        <ele>157.6</ele>
        <time>2017-04-20T11:41:02Z</time>
      </trkpt>
      <trkpt lat="43.93164" lon="2.12784">
        <ele>156.8</ele>
        <time>2017-04-20T11:41:03Z</time>
      </trkpt>
      <trkpt lat="43.9317" lon="2.12775">
        <ele>156.3</ele>
        <time>2017-04-20T11:41:04Z</time>
      </trkpt>
      <trkpt lat="43.93175" lon="2.12768">
        <ele>156.3</ele>
        <time>2017-04-20T11:41:05Z</time>
      </trkpt>
      <trkpt lat="43.93185" lon="2.12756">
        <ele>155.4</ele>
        <time>2017-04-20T11:41:07Z</time>
      </trkpt>
      <trkpt lat="43.93194" lon="2.12747">
        <ele>154.9</ele>
        <time>2017-04-20T11:41:09Z</time>
      </trkpt>
      <trkpt lat="43.93205" lon="2.12745">
        <ele>155.3</ele>
        <time>2017-04-20T11:41:11Z</time>
      </trkpt>
      <trkpt lat="43.93212" lon="2.12749">
        <ele>155.6</ele>
        <time>2017-04-20T11:41:13Z</time>
      </trkpt>
      <trkpt lat="43.93219" lon="2.12756">
        <ele>155.7</ele>
        <time>2017-04-20T11:41:15Z</time>
      </trkpt>
      <trkpt lat="43.93225" lon="2.12761">
        <ele>156.2</ele>
        <time>2017-04-20T11:41:17Z</time>
      </trkpt>
      <trkpt lat="43.93232" lon="2.12766">
        <ele>156.2</ele>
        <time>2017-04-20T11:41:19Z</time>
      </trkpt>
      <trkpt lat="43.9324" lon="2.12772">
        <ele>156.1</ele>
        <time>2017-04-20T11:41:21Z</time>
      </trkpt>
      <trkpt lat="43.93247" lon="2.12777">
        <ele>155.8</ele>
        <time>2017-04-20T11:41:23Z</time>
      </trkpt>
      <trkpt lat="43.93254" lon="2.12783">
        <ele>155.4</ele>
        <time>2017-04-20T11:41:25Z</time>
      </trkpt>
      <trkpt lat="43.93261" lon="2.12788">
        <ele>155.6</ele>
        <time>2017-04-20T11:41:27Z</time>
      </trkpt>
      <trkpt lat="43.93269" lon="2.12796">
        <ele>155.7</ele>
        <time>2017-04-20T11:41:30Z</time>
      </trkpt>
      <trkpt lat="43.93277" lon="2.12802">
        <ele>155.3</ele>
        <time>2017-04-20T11:41:33Z</time>
      </trkpt>
      <trkpt lat="43.93285" lon="2.12807">
        <ele>154.7</ele>
        <time>2017-04-20T11:41:36Z</time>
      </trkpt>
      <trkpt lat="43.93287" lon="2.12816">
        <ele>153.8</ele>
        <time>2017-04-20T11:41:42Z</time>
      </trkpt>
      <trkpt lat="43.93284" lon="2.12817">
        <ele>152.4</ele>
        <time>2017-04-20T11:41:49Z</time>
      </trkpt>
      <trkpt lat="43.93282" lon="2.12818">
        <ele>152</ele>
        <time>2017-04-20T11:41:56Z</time>
      </trkpt>
      <trkpt lat="43.93282" lon="2.12807">
        <ele>152.1</ele>
        <time>2017-04-20T11:45:38Z</time>
      </trkpt>
      <trkpt lat="43.93277" lon="2.12799">
        <ele>151.5</ele>
        <time>2017-04-20T11:45:43Z</time>
      </trkpt>
      <trkpt lat="43.93269" lon="2.12792">
        <ele>150.7</ele>
        <time>2017-04-20T11:45:47Z</time>
      </trkpt>
      <trkpt lat="43.93261" lon="2.12786">
        <ele>150.2</ele>
        <time>2017-04-20T11:45:50Z</time>
      </trkpt>
      <trkpt lat="43.93251" lon="2.1278">
        <ele>149.7</ele>
        <time>2017-04-20T11:45:53Z</time>
      </trkpt>
      <trkpt lat="43.93245" lon="2.12775">
        <ele>150.5</ele>
        <time>2017-04-20T11:45:55Z</time>
      </trkpt>
      <trkpt lat="43.93235" lon="2.12769">
        <ele>152</ele>
        <time>2017-04-20T11:45:58Z</time>
      </trkpt>
      <trkpt lat="43.93229" lon="2.12764">
        <ele>152.4</ele>
        <time>2017-04-20T11:46:00Z</time>
      </trkpt>
      <trkpt lat="43.93222" lon="2.12759">
        <ele>152.7</ele>
        <time>2017-04-20T11:46:02Z</time>
      </trkpt>
      <trkpt lat="43.93215" lon="2.12754">
        <ele>153.3</ele>
        <time>2017-04-20T11:46:04Z</time>
      </trkpt>
      <trkpt lat="43.93209" lon="2.12748">
        <ele>153.8</ele>
        <time>2017-04-20T11:46:06Z</time>
      </trkpt>
      <trkpt lat="43.93203" lon="2.12743">
        <ele>154.3</ele>
        <time>2017-04-20T11:46:09Z</time>
      </trkpt>
      <trkpt lat="43.93208" lon="2.12734">
        <ele>154.1</ele>
        <time>2017-04-20T11:46:13Z</time>
      </trkpt>
      <trkpt lat="43.93216" lon="2.12723">
        <ele>154</ele>
        <time>2017-04-20T11:46:16Z</time>
      </trkpt>
      <trkpt lat="43.93222" lon="2.12716">
        <ele>153.9</ele>
        <time>2017-04-20T11:46:18Z</time>
      </trkpt>
      <trkpt lat="43.93228" lon="2.12709">
        <ele>154</ele>
        <time>2017-04-20T11:46:20Z</time>
      </trkpt>
      <trkpt lat="43.93235" lon="2.127">
        <ele>153.9</ele>
        <time>2017-04-20T11:46:22Z</time>
      </trkpt>
      <trkpt lat="43.93242" lon="2.12691">
        <ele>153.5</ele>
        <time>2017-04-20T11:46:24Z</time>
      </trkpt>
      <trkpt lat="43.9325" lon="2.12682">
        <ele>153.4</ele>
        <time>2017-04-20T11:46:26Z</time>
      </trkpt>
      <trkpt lat="43.93257" lon="2.12673">
        <ele>153.5</ele>
        <time>2017-04-20T11:46:28Z</time>
      </trkpt>
      <trkpt lat="43.93264" lon="2.12663">
        <ele>153.1</ele>
        <time>2017-04-20T11:46:30Z</time>
      </trkpt>
      <trkpt lat="43.93271" lon="2.12653">
        <ele>153.1</ele>
        <time>2017-04-20T11:46:32Z</time>
      </trkpt>
      <trkpt lat="43.93277" lon="2.12643">
        <ele>153.3</ele>
        <time>2017-04-20T11:46:34Z</time>
      </trkpt>
      <trkpt lat="43.93284" lon="2.12634">
        <ele>154.2</ele>
        <time>2017-04-20T11:46:36Z</time>
      </trkpt>
      <trkpt lat="43.93292" lon="2.12624">
        <ele>154.3</ele>
        <time>2017-04-20T11:46:38Z</time>
      </trkpt>
      <trkpt lat="43.93298" lon="2.12614">
        <ele>154.2</ele>
        <time>2017-04-20T11:46:40Z</time>
      </trkpt>
      <trkpt lat="43.93305" lon="2.12605">
        <ele>154</ele>
        <time>2017-04-20T11:46:42Z</time>
      </trkpt>
      <trkpt lat="43.93311" lon="2.12594">
        <ele>153.8</ele>
        <time>2017-04-20T11:46:44Z</time>
      </trkpt>
      <trkpt lat="43.93316" lon="2.12584">
        <ele>153.1</ele>
        <time>2017-04-20T11:46:46Z</time>
      </trkpt>
      <trkpt lat="43.93323" lon="2.12573">
        <ele>152.8</ele>
        <time>2017-04-20T11:46:48Z</time>
      </trkpt>
      <trkpt lat="43.9333" lon="2.1256">
        <ele>152.8</ele>
        <time>2017-04-20T11:46:50Z</time>
      </trkpt>
      <trkpt lat="43.93337" lon="2.12546">
        <ele>152.2</ele>
        <time>2017-04-20T11:46:52Z</time>
      </trkpt>
      <trkpt lat="43.93345" lon="2.12532">
        <ele>151.9</ele>
        <time>2017-04-20T11:46:54Z</time>
      </trkpt>
      <trkpt lat="43.93352" lon="2.12516">
        <ele>151.8</ele>
        <time>2017-04-20T11:46:56Z</time>
      </trkpt>
      <trkpt lat="43.93351" lon="2.12498">
        <ele>152</ele>
        <time>2017-04-20T11:46:58Z</time>
      </trkpt>
      <trkpt lat="43.93342" lon="2.12484">
        <ele>151.9</ele>
        <time>2017-04-20T11:47:00Z</time>
      </trkpt>
      <trkpt lat="43.93329" lon="2.12476">
        <ele>151.3</ele>
        <time>2017-04-20T11:47:02Z</time>
      </trkpt>
      <trkpt lat="43.93316" lon="2.12469">
        <ele>151.5</ele>
        <time>2017-04-20T11:47:04Z</time>
      </trkpt>
      <trkpt lat="43.93304" lon="2.12463">
        <ele>151.3</ele>
        <time>2017-04-20T11:47:06Z</time>
      </trkpt>
      <trkpt lat="43.93293" lon="2.12458">
        <ele>151.1</ele>
        <time>2017-04-20T11:47:08Z</time>
      </trkpt>
      <trkpt lat="43.93283" lon="2.12453">
        <ele>151</ele>
        <time>2017-04-20T11:47:10Z</time>
      </trkpt>
      <trkpt lat="43.93274" lon="2.12449">
        <ele>150.8</ele>
        <time>2017-04-20T11:47:12Z</time>
      </trkpt>
      <trkpt lat="43.93265" lon="2.12445">
        <ele>150.9</ele>
        <time>2017-04-20T11:47:14Z</time>
      </trkpt>
      <trkpt lat="43.93256" lon="2.12442">
        <ele>151.2</ele>
        <time>2017-04-20T11:47:16Z</time>
      </trkpt>
      <trkpt lat="43.93247" lon="2.12437">
        <ele>150.9</ele>
        <time>2017-04-20T11:47:18Z</time>
      </trkpt>
      <trkpt lat="43.93238" lon="2.12433">
        <ele>150.8</ele>
        <time>2017-04-20T11:47:20Z</time>
      </trkpt>
      <trkpt lat="43.93229" lon="2.1243">
        <ele>150.9</ele>
        <time>2017-04-20T11:47:22Z</time>
      </trkpt>
      <trkpt lat="43.93219" lon="2.12426">
        <ele>151.1</ele>
        <time>2017-04-20T11:47:24Z</time>
      </trkpt>
      <trkpt lat="43.93209" lon="2.12422">
        <ele>150.8</ele>
        <time>2017-04-20T11:47:26Z</time>
      </trkpt>
      <trkpt lat="43.932" lon="2.12418">
        <ele>150.7</ele>
        <time>2017-04-20T11:47:28Z</time>
      </trkpt>
      <trkpt lat="43.9319" lon="2.12414">
        <ele>150.6</ele>
        <time>2017-04-20T11:47:30Z</time>
      </trkpt>
      <trkpt lat="43.9318" lon="2.1241">
        <ele>150.7</ele>
        <time>2017-04-20T11:47:32Z</time>
      </trkpt>
      <trkpt lat="43.9317" lon="2.12406">
        <ele>150.8</ele>
        <time>2017-04-20T11:47:34Z</time>
      </trkpt>
      <trkpt lat="43.93161" lon="2.12402">
        <ele>151.1</ele>
        <time>2017-04-20T11:47:36Z</time>
      </trkpt>
      <trkpt lat="43.93153" lon="2.12397">
        <ele>151.4</ele>
        <time>2017-04-20T11:47:38Z</time>
      </trkpt>
      <trkpt lat="43.93146" lon="2.12391">
        <ele>151.7</ele>
        <time>2017-04-20T11:47:40Z</time>
      </trkpt>
      <trkpt lat="43.93141" lon="2.12381">
        <ele>151.9</ele>
        <time>2017-04-20T11:47:42Z</time>
      </trkpt>
      <trkpt lat="43.9314" lon="2.12369">
        <ele>151.7</ele>
        <time>2017-04-20T11:47:44Z</time>
      </trkpt>
      <trkpt lat="43.93141" lon="2.12354">
        <ele>151.4</ele>
        <time>2017-04-20T11:47:46Z</time>
      </trkpt>
      <trkpt lat="43.93143" lon="2.1234">
        <ele>151.6</ele>
        <time>2017-04-20T11:47:48Z</time>
      </trkpt>
      <trkpt lat="43.93143" lon="2.12325">
        <ele>151.9</ele>
        <time>2017-04-20T11:47:50Z</time>
      </trkpt>
      <trkpt lat="43.93142" lon="2.12309">
        <ele>152.1</ele>
        <time>2017-04-20T11:47:52Z</time>
      </trkpt>
      <trkpt lat="43.93139" lon="2.12295">
        <ele>151.9</ele>
        <time>2017-04-20T11:47:54Z</time>
      </trkpt>
      <trkpt lat="43.93134" lon="2.1228">
        <ele>151.8</ele>
        <time>2017-04-20T11:47:56Z</time>
      </trkpt>
      <trkpt lat="43.93131" lon="2.12265">
        <ele>151.7</ele>
        <time>2017-04-20T11:47:58Z</time>
      </trkpt>
      <trkpt lat="43.93129" lon="2.12251">
        <ele>151.3</ele>
        <time>2017-04-20T11:48:00Z</time>
      </trkpt>
      <trkpt lat="43.93128" lon="2.12236">
        <ele>151.3</ele>
        <time>2017-04-20T11:48:02Z</time>
      </trkpt>
      <trkpt lat="43.93128" lon="2.12221">
        <ele>151.3</ele>
        <time>2017-04-20T11:48:04Z</time>
      </trkpt>
      <trkpt lat="43.93128" lon="2.12206">
        <ele>150.9</ele>
        <time>2017-04-20T11:48:06Z</time>
      </trkpt>
      <trkpt lat="43.9313" lon="2.12191">
        <ele>150.5</ele>
        <time>2017-04-20T11:48:08Z</time>
      </trkpt>
      <trkpt lat="43.9313" lon="2.12176">
        <ele>150</ele>
        <time>2017-04-20T11:48:10Z</time>
      </trkpt>
      <trkpt lat="43.93132" lon="2.1216">
        <ele>149.5</ele>
        <time>2017-04-20T11:48:12Z</time>
      </trkpt>
      <trkpt lat="43.93133" lon="2.12146">
        <ele>149.3</ele>
        <time>2017-04-20T11:48:14Z</time>
      </trkpt>
      <trkpt lat="43.93135" lon="2.1213">
        <ele>148.8</ele>
        <time>2017-04-20T11:48:16Z</time>
      </trkpt>
      <trkpt lat="43.93137" lon="2.12113">
        <ele>149</ele>
        <time>2017-04-20T11:48:18Z</time>
      </trkpt>
      <trkpt lat="43.93139" lon="2.12099">
        <ele>149</ele>
        <time>2017-04-20T11:48:20Z</time>
      </trkpt>
      <trkpt lat="43.93141" lon="2.12084">
        <ele>148.9</ele>
        <time>2017-04-20T11:48:22Z</time>
      </trkpt>
      <trkpt lat="43.93143" lon="2.12071">
        <ele>148.7</ele>
        <time>2017-04-20T11:48:24Z</time>
      </trkpt>
      <trkpt lat="43.93145" lon="2.12057">
        <ele>148.6</ele>
        <time>2017-04-20T11:48:26Z</time>
      </trkpt>
      <trkpt lat="43.93146" lon="2.12045">
        <ele>148.8</ele>
        <time>2017-04-20T11:48:28Z</time>
      </trkpt>
      <trkpt lat="43.93148" lon="2.12032">
        <ele>148.7</ele>
        <time>2017-04-20T11:48:30Z</time>
      </trkpt>
      <trkpt lat="43.93145" lon="2.12021">
        <ele>148.8</ele>
        <time>2017-04-20T11:48:32Z</time>
      </trkpt>
      <trkpt lat="43.9314" lon="2.12011">
        <ele>148.5</ele>
        <time>2017-04-20T11:48:34Z</time>
      </trkpt>
      <trkpt lat="43.93133" lon="2.12005">
        <ele>148.2</ele>
        <time>2017-04-20T11:48:36Z</time>
      </trkpt>
      <trkpt lat="43.93126" lon="2.12">
        <ele>148.3</ele>
        <time>2017-04-20T11:48:38Z</time>
      </trkpt>
      <trkpt lat="43.93119" lon="2.11994">
        <ele>148.3</ele>
        <time>2017-04-20T11:48:40Z</time>
      </trkpt>
      <trkpt lat="43.93112" lon="2.11987">
        <ele>148.2</ele>
        <time>2017-04-20T11:48:42Z</time>
      </trkpt>
      <trkpt lat="43.93104" lon="2.11981">
        <ele>148.1</ele>
        <time>2017-04-20T11:48:44Z</time>
      </trkpt>
      <trkpt lat="43.93098" lon="2.11975">
        <ele>148.2</ele>
        <time>2017-04-20T11:48:46Z</time>
      </trkpt>
      <trkpt lat="43.93088" lon="2.11968">
        <ele>148</ele>
        <time>2017-04-20T11:48:49Z</time>
      </trkpt>
      <trkpt lat="43.93081" lon="2.1197">
        <ele>147.8</ele>
        <time>2017-04-20T11:48:52Z</time>
      </trkpt>
      <trkpt lat="43.93074" lon="2.11971">
        <ele>146.3</ele>
        <time>2017-04-20T11:48:57Z</time>
      </trkpt>
      <trkpt lat="43.93072" lon="2.11979">
        <ele>144.9</ele>
        <time>2017-04-20T11:49:04Z</time>
      </trkpt>
      <trkpt lat="43.9307" lon="2.11984">
        <ele>143</ele>
        <time>2017-04-20T11:49:11Z</time>
      </trkpt>
      <trkpt lat="43.93074" lon="2.11979">
        <ele>140.6</ele>
        <time>2017-04-20T11:49:37Z</time>
      </trkpt>
      <trkpt lat="43.93073" lon="2.11971">
        <ele>139.1</ele>
        <time>2017-04-20T11:49:44Z</time>
      </trkpt>
      <trkpt lat="43.93067" lon="2.11964">
        <ele>137.8</ele>
        <time>2017-04-20T11:49:51Z</time>
      </trkpt>
      <trkpt lat="43.93061" lon="2.1196">
        <ele>135.7</ele>
        <time>2017-04-20T11:49:58Z</time>
      </trkpt>
      <trkpt lat="43.93057" lon="2.11963">
        <ele>135.7</ele>
        <time>2017-04-20T11:50:13Z</time>
      </trkpt>
      <trkpt lat="43.93064" lon="2.11968">
        <ele>134.6</ele>
        <time>2017-04-20T11:50:45Z</time>
      </trkpt>
      <trkpt lat="43.93059" lon="2.11962">
        <ele>150.3</ele>
        <time>2017-04-20T11:52:14Z</time>
      </trkpt>
      <trkpt lat="43.93057" lon="2.11959">
        <ele>148.4</ele>
        <time>2017-04-20T11:52:21Z</time>
      </trkpt>
      <trkpt lat="43.93064" lon="2.1196">
        <ele>144.9</ele>
        <time>2017-04-20T11:57:33Z</time>
      </trkpt>
      <trkpt lat="43.93071" lon="2.11967">
        <ele>143.2</ele>
        <time>2017-04-20T11:57:39Z</time>
      </trkpt>
      <trkpt lat="43.93079" lon="2.11967">
        <ele>142.7</ele>
        <time>2017-04-20T11:57:44Z</time>
      </trkpt>
      <trkpt lat="43.9308" lon="2.11956">
        <ele>142</ele>
        <time>2017-04-20T11:57:48Z</time>
      </trkpt>
      <trkpt lat="43.93076" lon="2.11944">
        <ele>141.3</ele>
        <time>2017-04-20T11:57:51Z</time>
      </trkpt>
      <trkpt lat="43.93069" lon="2.11939">
        <ele>141.5</ele>
        <time>2017-04-20T11:57:53Z</time>
      </trkpt>
      <trkpt lat="43.93062" lon="2.11935">
        <ele>141.1</ele>
        <time>2017-04-20T11:57:55Z</time>
      </trkpt>
      <trkpt lat="43.93055" lon="2.11936">
        <ele>140.6</ele>
        <time>2017-04-20T11:57:57Z</time>
      </trkpt>
      <trkpt lat="43.93048" lon="2.1194">
        <ele>140.2</ele>
        <time>2017-04-20T11:57:59Z</time>
      </trkpt>
      <trkpt lat="43.9304" lon="2.1194">
        <ele>140.5</ele>
        <time>2017-04-20T11:58:01Z</time>
      </trkpt>
      <trkpt lat="43.93033" lon="2.1194">
        <ele>139.8</ele>
        <time>2017-04-20T11:58:03Z</time>
      </trkpt>
      <trkpt lat="43.93026" lon="2.11937">
        <ele>139.7</ele>
        <time>2017-04-20T11:58:05Z</time>
      </trkpt>
      <trkpt lat="43.93019" lon="2.11934">
        <ele>140.5</ele>
        <time>2017-04-20T11:58:07Z</time>
      </trkpt>
      <trkpt lat="43.93012" lon="2.1193">
        <ele>141</ele>
        <time>2017-04-20T11:58:09Z</time>
      </trkpt>
      <trkpt lat="43.93005" lon="2.11924">
        <ele>141.3</ele>
        <time>2017-04-20T11:58:11Z</time>
      </trkpt>
      <trkpt lat="43.92997" lon="2.11916">
        <ele>143.6</ele>
        <time>2017-04-20T11:58:14Z</time>
      </trkpt>
      <trkpt lat="43.9299" lon="2.11909">
        <ele>144.3</ele>
        <time>2017-04-20T11:58:16Z</time>
      </trkpt>
      <trkpt lat="43.92984" lon="2.11901">
        <ele>145</ele>
        <time>2017-04-20T11:58:18Z</time>
      </trkpt>
      <trkpt lat="43.92978" lon="2.11894">
        <ele>145.5</ele>
        <time>2017-04-20T11:58:20Z</time>
      </trkpt>
      <trkpt lat="43.92971" lon="2.11885">
        <ele>146.3</ele>
        <time>2017-04-20T11:58:22Z</time>
      </trkpt>
      <trkpt lat="43.92965" lon="2.11876">
        <ele>146.8</ele>
        <time>2017-04-20T11:58:24Z</time>
      </trkpt>
      <trkpt lat="43.92959" lon="2.11865">
        <ele>147.2</ele>
        <time>2017-04-20T11:58:26Z</time>
      </trkpt>
      <trkpt lat="43.92954" lon="2.11855">
        <ele>147.4</ele>
        <time>2017-04-20T11:58:28Z</time>
      </trkpt>
      <trkpt lat="43.92948" lon="2.11844">
        <ele>147.7</ele>
        <time>2017-04-20T11:58:30Z</time>
      </trkpt>
      <trkpt lat="43.92942" lon="2.11834">
        <ele>147.9</ele>
        <time>2017-04-20T11:58:32Z</time>
      </trkpt>
      <trkpt lat="43.92936" lon="2.11825">
        <ele>148.2</ele>
        <time>2017-04-20T11:58:34Z</time>
      </trkpt>
      <trkpt lat="43.92929" lon="2.11815">
        <ele>148.1</ele>
        <time>2017-04-20T11:58:36Z</time>
      </trkpt>
      <trkpt lat="43.92922" lon="2.11808">
        <ele>148.3</ele>
        <time>2017-04-20T11:58:38Z</time>
      </trkpt>
      <trkpt lat="43.92914" lon="2.11801">
        <ele>148.2</ele>
        <time>2017-04-20T11:58:40Z</time>
      </trkpt>
      <trkpt lat="43.92905" lon="2.11795">
        <ele>148</ele>
        <time>2017-04-20T11:58:42Z</time>
      </trkpt>
      <trkpt lat="43.92895" lon="2.11788">
        <ele>147.9</ele>
        <time>2017-04-20T11:58:44Z</time>
      </trkpt>
      <trkpt lat="43.92886" lon="2.11783">
        <ele>147.8</ele>
        <time>2017-04-20T11:58:46Z</time>
      </trkpt>
      <trkpt lat="43.92876" lon="2.11777">
        <ele>148.3</ele>
        <time>2017-04-20T11:58:48Z</time>
      </trkpt>
      <trkpt lat="43.92868" lon="2.1177">
        <ele>148.6</ele>
        <time>2017-04-20T11:58:50Z</time>
      </trkpt>
      <trkpt lat="43.92862" lon="2.11761">
        <ele>148.7</ele>
        <time>2017-04-20T11:58:52Z</time>
      </trkpt>
      <trkpt lat="43.92855" lon="2.11751">
        <ele>148.6</ele>
        <time>2017-04-20T11:58:54Z</time>
      </trkpt>
      <trkpt lat="43.92848" lon="2.11741">
        <ele>149.5</ele>
        <time>2017-04-20T11:58:56Z</time>
      </trkpt>
      <trkpt lat="43.92842" lon="2.11733">
        <ele>149.5</ele>
        <time>2017-04-20T11:58:58Z</time>
      </trkpt>
      <trkpt lat="43.92836" lon="2.11724">
        <ele>149.5</ele>
        <time>2017-04-20T11:59:00Z</time>
      </trkpt>
      <trkpt lat="43.92832" lon="2.11715">
        <ele>149.8</ele>
        <time>2017-04-20T11:59:02Z</time>
      </trkpt>
      <trkpt lat="43.92828" lon="2.11705">
        <ele>149.6</ele>
        <time>2017-04-20T11:59:04Z</time>
      </trkpt>
      <trkpt lat="43.92825" lon="2.11695">
        <ele>149.9</ele>
        <time>2017-04-20T11:59:06Z</time>
      </trkpt>
      <trkpt lat="43.92823" lon="2.11685">
        <ele>149.7</ele>
        <time>2017-04-20T11:59:08Z</time>
      </trkpt>
      <trkpt lat="43.92822" lon="2.11674">
        <ele>150</ele>
        <time>2017-04-20T11:59:10Z</time>
      </trkpt>
      <trkpt lat="43.92821" lon="2.11663">
        <ele>149.3</ele>
        <time>2017-04-20T11:59:12Z</time>
      </trkpt>
      <trkpt lat="43.92822" lon="2.11652">
        <ele>147.8</ele>
        <time>2017-04-20T11:59:14Z</time>
      </trkpt>
      <trkpt lat="43.92822" lon="2.11639">
        <ele>147.4</ele>
        <time>2017-04-20T11:59:16Z</time>
      </trkpt>
      <trkpt lat="43.92823" lon="2.11627">
        <ele>147.1</ele>
        <time>2017-04-20T11:59:18Z</time>
      </trkpt>
      <trkpt lat="43.92823" lon="2.11614">
        <ele>145.9</ele>
        <time>2017-04-20T11:59:20Z</time>
      </trkpt>
      <trkpt lat="43.92824" lon="2.11602">
        <ele>146.2</ele>
        <time>2017-04-20T11:59:22Z</time>
      </trkpt>
      <trkpt lat="43.92824" lon="2.1159">
        <ele>146.1</ele>
        <time>2017-04-20T11:59:24Z</time>
      </trkpt>
      <trkpt lat="43.92825" lon="2.11579">
        <ele>146.3</ele>
        <time>2017-04-20T11:59:26Z</time>
      </trkpt>
      <trkpt lat="43.92826" lon="2.11563">
        <ele>148.3</ele>
        <time>2017-04-20T11:59:28Z</time>
      </trkpt>
      <trkpt lat="43.92828" lon="2.11543">
        <ele>148.9</ele>
        <time>2017-04-20T11:59:31Z</time>
      </trkpt>
      <trkpt lat="43.9283" lon="2.11529">
        <ele>149.4</ele>
        <time>2017-04-20T11:59:33Z</time>
      </trkpt>
      <trkpt lat="43.92831" lon="2.11514">
        <ele>149.7</ele>
        <time>2017-04-20T11:59:35Z</time>
      </trkpt>
      <trkpt lat="43.9283" lon="2.115">
        <ele>150.5</ele>
        <time>2017-04-20T11:59:37Z</time>
      </trkpt>
      <trkpt lat="43.92825" lon="2.1149">
        <ele>151.3</ele>
        <time>2017-04-20T11:59:39Z</time>
      </trkpt>
      <trkpt lat="43.92818" lon="2.11483">
        <ele>152</ele>
        <time>2017-04-20T11:59:41Z</time>
      </trkpt>
      <trkpt lat="43.92811" lon="2.11479">
        <ele>152.9</ele>
        <time>2017-04-20T11:59:43Z</time>
      </trkpt>
      <trkpt lat="43.92803" lon="2.11477">
        <ele>154.2</ele>
        <time>2017-04-20T11:59:45Z</time>
      </trkpt>
      <trkpt lat="43.92794" lon="2.11478">
        <ele>154.7</ele>
        <time>2017-04-20T11:59:48Z</time>
      </trkpt>
      <trkpt lat="43.92788" lon="2.11487">
        <ele>154.6</ele>
        <time>2017-04-20T11:59:51Z</time>
      </trkpt>
      <trkpt lat="43.92784" lon="2.11496">
        <ele>154.8</ele>
        <time>2017-04-20T11:59:53Z</time>
      </trkpt>
      <trkpt lat="43.92781" lon="2.11509">
        <ele>155</ele>
        <time>2017-04-20T11:59:55Z</time>
      </trkpt>
      <trkpt lat="43.92778" lon="2.1152">
        <ele>155.6</ele>
        <time>2017-04-20T11:59:57Z</time>
      </trkpt>
      <trkpt lat="43.92775" lon="2.11534">
        <ele>155.8</ele>
        <time>2017-04-20T11:59:59Z</time>
      </trkpt>
      <trkpt lat="43.92772" lon="2.11547">
        <ele>156.2</ele>
        <time>2017-04-20T12:00:01Z</time>
      </trkpt>
      <trkpt lat="43.9277" lon="2.11561">
        <ele>156.4</ele>
        <time>2017-04-20T12:00:03Z</time>
      </trkpt>
      <trkpt lat="43.92767" lon="2.11576">
        <ele>157</ele>
        <time>2017-04-20T12:00:05Z</time>
      </trkpt>
      <trkpt lat="43.92763" lon="2.11589">
        <ele>157.4</ele>
        <time>2017-04-20T12:00:07Z</time>
      </trkpt>
      <trkpt lat="43.9276" lon="2.11603">
        <ele>158.3</ele>
        <time>2017-04-20T12:00:09Z</time>
      </trkpt>
      <trkpt lat="43.92757" lon="2.11616">
        <ele>159.1</ele>
        <time>2017-04-20T12:00:11Z</time>
      </trkpt>
      <trkpt lat="43.92754" lon="2.1163">
        <ele>159.9</ele>
        <time>2017-04-20T12:00:13Z</time>
      </trkpt>
      <trkpt lat="43.92751" lon="2.11642">
        <ele>160.3</ele>
        <time>2017-04-20T12:00:15Z</time>
      </trkpt>
      <trkpt lat="43.92748" lon="2.11654">
        <ele>160.8</ele>
        <time>2017-04-20T12:00:17Z</time>
      </trkpt>
      <trkpt lat="43.92745" lon="2.11667">
        <ele>161.4</ele>
        <time>2017-04-20T12:00:19Z</time>
      </trkpt>
      <trkpt lat="43.92743" lon="2.11681">
        <ele>162.7</ele>
        <time>2017-04-20T12:00:21Z</time>
      </trkpt>
      <trkpt lat="43.9274" lon="2.11695">
        <ele>163</ele>
        <time>2017-04-20T12:00:23Z</time>
      </trkpt>
      <trkpt lat="43.92737" lon="2.11709">
        <ele>162.8</ele>
        <time>2017-04-20T12:00:25Z</time>
      </trkpt>
      <trkpt lat="43.92734" lon="2.11722">
        <ele>162.9</ele>
        <time>2017-04-20T12:00:27Z</time>
      </trkpt>
      <trkpt lat="43.92732" lon="2.11735">
        <ele>163</ele>
        <time>2017-04-20T12:00:29Z</time>
      </trkpt>
      <trkpt lat="43.9273" lon="2.11747">
        <ele>164.1</ele>
        <time>2017-04-20T12:00:31Z</time>
      </trkpt>
      <trkpt lat="43.92727" lon="2.11761">
        <ele>164.3</ele>
        <time>2017-04-20T12:00:33Z</time>
      </trkpt>
      <trkpt lat="43.92724" lon="2.11775">
        <ele>164.4</ele>
        <time>2017-04-20T12:00:35Z</time>
      </trkpt>
      <trkpt lat="43.92722" lon="2.11788">
        <ele>164.5</ele>
        <time>2017-04-20T12:00:37Z</time>
      </trkpt>
      <trkpt lat="43.92719" lon="2.11803">
        <ele>164.8</ele>
        <time>2017-04-20T12:00:39Z</time>
      </trkpt>
      <trkpt lat="43.92716" lon="2.11815">
        <ele>164.6</ele>
        <time>2017-04-20T12:00:41Z</time>
      </trkpt>
      <trkpt lat="43.92714" lon="2.1183">
        <ele>164.3</ele>
        <time>2017-04-20T12:00:43Z</time>
      </trkpt>
      <trkpt lat="43.92711" lon="2.11844">
        <ele>163.8</ele>
        <time>2017-04-20T12:00:45Z</time>
      </trkpt>
      <trkpt lat="43.92708" lon="2.1186">
        <ele>163.3</ele>
        <time>2017-04-20T12:00:47Z</time>
      </trkpt>
      <trkpt lat="43.92705" lon="2.11876">
        <ele>163</ele>
        <time>2017-04-20T12:00:49Z</time>
      </trkpt>
      <trkpt lat="43.92701" lon="2.1189">
        <ele>162.8</ele>
        <time>2017-04-20T12:00:51Z</time>
      </trkpt>
      <trkpt lat="43.92698" lon="2.11906">
        <ele>162.4</ele>
        <time>2017-04-20T12:00:53Z</time>
      </trkpt>
      <trkpt lat="43.92696" lon="2.11921">
        <ele>161.9</ele>
        <time>2017-04-20T12:00:55Z</time>
      </trkpt>
      <trkpt lat="43.92693" lon="2.11936">
        <ele>162</ele>
        <time>2017-04-20T12:00:57Z</time>
      </trkpt>
      <trkpt lat="43.92692" lon="2.11951">
        <ele>162.4</ele>
        <time>2017-04-20T12:00:59Z</time>
      </trkpt>
      <trkpt lat="43.92691" lon="2.11966">
        <ele>162.3</ele>
        <time>2017-04-20T12:01:01Z</time>
      </trkpt>
      <trkpt lat="43.92689" lon="2.11981">
        <ele>161.6</ele>
        <time>2017-04-20T12:01:03Z</time>
      </trkpt>
      <trkpt lat="43.92687" lon="2.11997">
        <ele>161.5</ele>
        <time>2017-04-20T12:01:05Z</time>
      </trkpt>
      <trkpt lat="43.92685" lon="2.12013">
        <ele>161.5</ele>
        <time>2017-04-20T12:01:07Z</time>
      </trkpt>
      <trkpt lat="43.92684" lon="2.12028">
        <ele>161.9</ele>
        <time>2017-04-20T12:01:09Z</time>
      </trkpt>
      <trkpt lat="43.92682" lon="2.12044">
        <ele>162.4</ele>
        <time>2017-04-20T12:01:11Z</time>
      </trkpt>
      <trkpt lat="43.9268" lon="2.12059">
        <ele>162.5</ele>
        <time>2017-04-20T12:01:13Z</time>
      </trkpt>
      <trkpt lat="43.92678" lon="2.12074">
        <ele>162.4</ele>
        <time>2017-04-20T12:01:15Z</time>
      </trkpt>
      <trkpt lat="43.92676" lon="2.12089">
        <ele>162.4</ele>
        <time>2017-04-20T12:01:17Z</time>
      </trkpt>
      <trkpt lat="43.92673" lon="2.12103">
        <ele>162.1</ele>
        <time>2017-04-20T12:01:19Z</time>
      </trkpt>
      <trkpt lat="43.9267" lon="2.12118">
        <ele>162</ele>
        <time>2017-04-20T12:01:21Z</time>
      </trkpt>
      <trkpt lat="43.92668" lon="2.12132">
        <ele>161.6</ele>
        <time>2017-04-20T12:01:23Z</time>
      </trkpt>
      <trkpt lat="43.92666" lon="2.12147">
        <ele>161.2</ele>
        <time>2017-04-20T12:01:25Z</time>
      </trkpt>
      <trkpt lat="43.92663" lon="2.12161">
        <ele>161.2</ele>
        <time>2017-04-20T12:01:27Z</time>
      </trkpt>
      <trkpt lat="43.9266" lon="2.12175">
        <ele>161.2</ele>
        <time>2017-04-20T12:01:29Z</time>
      </trkpt>
      <trkpt lat="43.92659" lon="2.12189">
        <ele>161.7</ele>
        <time>2017-04-20T12:01:31Z</time>
      </trkpt>
      <trkpt lat="43.92656" lon="2.12205">
        <ele>161.6</ele>
        <time>2017-04-20T12:01:33Z</time>
      </trkpt>
      <trkpt lat="43.92653" lon="2.12219">
        <ele>161.8</ele>
        <time>2017-04-20T12:01:35Z</time>
      </trkpt>
      <trkpt lat="43.92651" lon="2.12234">
        <ele>162.2</ele>
        <time>2017-04-20T12:01:37Z</time>
      </trkpt>
      <trkpt lat="43.92649" lon="2.12249">
        <ele>162.1</ele>
        <time>2017-04-20T12:01:39Z</time>
      </trkpt>
      <trkpt lat="43.92647" lon="2.12264">
        <ele>162.7</ele>
        <time>2017-04-20T12:01:41Z</time>
      </trkpt>
      <trkpt lat="43.92644" lon="2.12278">
        <ele>162.7</ele>
        <time>2017-04-20T12:01:43Z</time>
      </trkpt>
      <trkpt lat="43.92642" lon="2.12292">
        <ele>163</ele>
        <time>2017-04-20T12:01:45Z</time>
      </trkpt>
      <trkpt lat="43.9264" lon="2.12307">
        <ele>163.1</ele>
        <time>2017-04-20T12:01:47Z</time>
      </trkpt>
      <trkpt lat="43.92638" lon="2.12321">
        <ele>163</ele>
        <time>2017-04-20T12:01:49Z</time>
      </trkpt>
      <trkpt lat="43.92636" lon="2.12334">
        <ele>163.1</ele>
        <time>2017-04-20T12:01:51Z</time>
      </trkpt>
      <trkpt lat="43.92632" lon="2.12345">
        <ele>163.2</ele>
        <time>2017-04-20T12:01:53Z</time>
      </trkpt>
      <trkpt lat="43.92625" lon="2.12353">
        <ele>163.6</ele>
        <time>2017-04-20T12:01:55Z</time>
      </trkpt>
      <trkpt lat="43.92617" lon="2.1236">
        <ele>164.5</ele>
        <time>2017-04-20T12:01:58Z</time>
      </trkpt>
      <trkpt lat="43.92616" lon="2.12375">
        <ele>164.4</ele>
        <time>2017-04-20T12:02:01Z</time>
      </trkpt>
      <trkpt lat="43.92615" lon="2.12388">
        <ele>163.5</ele>
        <time>2017-04-20T12:02:03Z</time>
      </trkpt>
      <trkpt lat="43.92615" lon="2.124">
        <ele>163.4</ele>
        <time>2017-04-20T12:02:05Z</time>
      </trkpt>
      <trkpt lat="43.92614" lon="2.12415">
        <ele>163.6</ele>
        <time>2017-04-20T12:02:07Z</time>
      </trkpt>
      <trkpt lat="43.92614" lon="2.12431">
        <ele>163.4</ele>
        <time>2017-04-20T12:02:09Z</time>
      </trkpt>
      <trkpt lat="43.92614" lon="2.12446">
        <ele>163.3</ele>
        <time>2017-04-20T12:02:11Z</time>
      </trkpt>
      <trkpt lat="43.92614" lon="2.12462">
        <ele>162.9</ele>
        <time>2017-04-20T12:02:13Z</time>
      </trkpt>
      <trkpt lat="43.92613" lon="2.12478">
        <ele>162.7</ele>
        <time>2017-04-20T12:02:15Z</time>
      </trkpt>
      <trkpt lat="43.92614" lon="2.12494">
        <ele>162.7</ele>
        <time>2017-04-20T12:02:17Z</time>
      </trkpt>
      <trkpt lat="43.92614" lon="2.1251">
        <ele>162.8</ele>
        <time>2017-04-20T12:02:19Z</time>
      </trkpt>
      <trkpt lat="43.92613" lon="2.12526">
        <ele>162.4</ele>
        <time>2017-04-20T12:02:21Z</time>
      </trkpt>
      <trkpt lat="43.92613" lon="2.12542">
        <ele>161.4</ele>
        <time>2017-04-20T12:02:23Z</time>
      </trkpt>
      <trkpt lat="43.92613" lon="2.12559">
        <ele>161.7</ele>
        <time>2017-04-20T12:02:25Z</time>
      </trkpt>
      <trkpt lat="43.92613" lon="2.12575">
        <ele>161.2</ele>
        <time>2017-04-20T12:02:27Z</time>
      </trkpt>
      <trkpt lat="43.92612" lon="2.12591">
        <ele>160.8</ele>
        <time>2017-04-20T12:02:29Z</time>
      </trkpt>
      <trkpt lat="43.92612" lon="2.12606">
        <ele>160.8</ele>
        <time>2017-04-20T12:02:31Z</time>
      </trkpt>
      <trkpt lat="43.92611" lon="2.12623">
        <ele>160.2</ele>
        <time>2017-04-20T12:02:33Z</time>
      </trkpt>
      <trkpt lat="43.9261" lon="2.12639">
        <ele>159.9</ele>
        <time>2017-04-20T12:02:35Z</time>
      </trkpt>
      <trkpt lat="43.92608" lon="2.12656">
        <ele>159.9</ele>
        <time>2017-04-20T12:02:37Z</time>
      </trkpt>
      <trkpt lat="43.92608" lon="2.12673">
        <ele>159.3</ele>
        <time>2017-04-20T12:02:39Z</time>
      </trkpt>
      <trkpt lat="43.92607" lon="2.1269">
        <ele>158.8</ele>
        <time>2017-04-20T12:02:41Z</time>
      </trkpt>
      <trkpt lat="43.92607" lon="2.12707">
        <ele>158.6</ele>
        <time>2017-04-20T12:02:43Z</time>
      </trkpt>
      <trkpt lat="43.92606" lon="2.12723">
        <ele>158.4</ele>
        <time>2017-04-20T12:02:45Z</time>
      </trkpt>
      <trkpt lat="43.92606" lon="2.12739">
        <ele>158.5</ele>
        <time>2017-04-20T12:02:47Z</time>
      </trkpt>
      <trkpt lat="43.92606" lon="2.12754">
        <ele>158.5</ele>
        <time>2017-04-20T12:02:49Z</time>
      </trkpt>
      <trkpt lat="43.92606" lon="2.12769">
        <ele>158.8</ele>
        <time>2017-04-20T12:02:51Z</time>
      </trkpt>
      <trkpt lat="43.92608" lon="2.12785">
        <ele>158.9</ele>
        <time>2017-04-20T12:02:53Z</time>
      </trkpt>
      <trkpt lat="43.92609" lon="2.12801">
        <ele>158.7</ele>
        <time>2017-04-20T12:02:55Z</time>
      </trkpt>
      <trkpt lat="43.9261" lon="2.12816">
        <ele>158.7</ele>
        <time>2017-04-20T12:02:57Z</time>
      </trkpt>
      <trkpt lat="43.92611" lon="2.12831">
        <ele>159.1</ele>
        <time>2017-04-20T12:02:59Z</time>
      </trkpt>
      <trkpt lat="43.92613" lon="2.12846">
        <ele>159</ele>
        <time>2017-04-20T12:03:01Z</time>
      </trkpt>
      <trkpt lat="43.92614" lon="2.12861">
        <ele>159.2</ele>
        <time>2017-04-20T12:03:03Z</time>
      </trkpt>
      <trkpt lat="43.92614" lon="2.12877">
        <ele>159</ele>
        <time>2017-04-20T12:03:05Z</time>
      </trkpt>
      <trkpt lat="43.92615" lon="2.12893">
        <ele>158.9</ele>
        <time>2017-04-20T12:03:07Z</time>
      </trkpt>
      <trkpt lat="43.92614" lon="2.12909">
        <ele>158.7</ele>
        <time>2017-04-20T12:03:09Z</time>
      </trkpt>
      <trkpt lat="43.92615" lon="2.12924">
        <ele>159</ele>
        <time>2017-04-20T12:03:11Z</time>
      </trkpt>
      <trkpt lat="43.92618" lon="2.12938">
        <ele>160.3</ele>
        <time>2017-04-20T12:03:13Z</time>
      </trkpt>
      <trkpt lat="43.92619" lon="2.12953">
        <ele>160.9</ele>
        <time>2017-04-20T12:03:15Z</time>
      </trkpt>
      <trkpt lat="43.92618" lon="2.12967">
        <ele>161</ele>
        <time>2017-04-20T12:03:17Z</time>
      </trkpt>
      <trkpt lat="43.92618" lon="2.12981">
        <ele>161.8</ele>
        <time>2017-04-20T12:03:19Z</time>
      </trkpt>
      <trkpt lat="43.92618" lon="2.12996">
        <ele>162.5</ele>
        <time>2017-04-20T12:03:21Z</time>
      </trkpt>
      <trkpt lat="43.92618" lon="2.13009">
        <ele>163.1</ele>
        <time>2017-04-20T12:03:23Z</time>
      </trkpt>
      <trkpt lat="43.92622" lon="2.1302">
        <ele>166.5</ele>
        <time>2017-04-20T12:03:25Z</time>
      </trkpt>
      <trkpt lat="43.92623" lon="2.13029">
        <ele>166.8</ele>
        <time>2017-04-20T12:03:27Z</time>
      </trkpt>
      <trkpt lat="43.92623" lon="2.13043">
        <ele>167.1</ele>
        <time>2017-04-20T12:03:30Z</time>
      </trkpt>
      <trkpt lat="43.92616" lon="2.13053">
        <ele>165.1</ele>
        <time>2017-04-20T12:03:33Z</time>
      </trkpt>
      <trkpt lat="43.92611" lon="2.13061">
        <ele>164.9</ele>
        <time>2017-04-20T12:03:35Z</time>
      </trkpt>
      <trkpt lat="43.92607" lon="2.13069">
        <ele>164.5</ele>
        <time>2017-04-20T12:03:37Z</time>
      </trkpt>
      <trkpt lat="43.92602" lon="2.1308">
        <ele>165.1</ele>
        <time>2017-04-20T12:03:40Z</time>
      </trkpt>
      <trkpt lat="43.92595" lon="2.13088">
        <ele>164.5</ele>
        <time>2017-04-20T12:03:42Z</time>
      </trkpt>
      <trkpt lat="43.92589" lon="2.13097">
        <ele>164.8</ele>
        <time>2017-04-20T12:03:44Z</time>
      </trkpt>
      <trkpt lat="43.92584" lon="2.13105">
        <ele>164.6</ele>
        <time>2017-04-20T12:03:46Z</time>
      </trkpt>
      <trkpt lat="43.92578" lon="2.13115">
        <ele>163.6</ele>
        <time>2017-04-20T12:03:48Z</time>
      </trkpt>
      <trkpt lat="43.92573" lon="2.13125">
        <ele>163.2</ele>
        <time>2017-04-20T12:03:50Z</time>
      </trkpt>
      <trkpt lat="43.92568" lon="2.13136">
        <ele>161.9</ele>
        <time>2017-04-20T12:03:52Z</time>
      </trkpt>
      <trkpt lat="43.92563" lon="2.13145">
        <ele>161.8</ele>
        <time>2017-04-20T12:03:54Z</time>
      </trkpt>
      <trkpt lat="43.92557" lon="2.13155">
        <ele>162</ele>
        <time>2017-04-20T12:03:56Z</time>
      </trkpt>
      <trkpt lat="43.92551" lon="2.13164">
        <ele>162.1</ele>
        <time>2017-04-20T12:03:58Z</time>
      </trkpt>
      <trkpt lat="43.92545" lon="2.13176">
        <ele>162.9</ele>
        <time>2017-04-20T12:04:00Z</time>
      </trkpt>
      <trkpt lat="43.92538" lon="2.13186">
        <ele>164.3</ele>
        <time>2017-04-20T12:04:02Z</time>
      </trkpt>
      <trkpt lat="43.92531" lon="2.13196">
        <ele>164.4</ele>
        <time>2017-04-20T12:04:04Z</time>
      </trkpt>
      <trkpt lat="43.92525" lon="2.13206">
        <ele>164.3</ele>
        <time>2017-04-20T12:04:06Z</time>
      </trkpt>
      <trkpt lat="43.92518" lon="2.13217">
        <ele>164.3</ele>
        <time>2017-04-20T12:04:08Z</time>
      </trkpt>
      <trkpt lat="43.92512" lon="2.13229">
        <ele>164.1</ele>
        <time>2017-04-20T12:04:10Z</time>
      </trkpt>
      <trkpt lat="43.92507" lon="2.13242">
        <ele>163.6</ele>
        <time>2017-04-20T12:04:12Z</time>
      </trkpt>
      <trkpt lat="43.92502" lon="2.13255">
        <ele>163.3</ele>
        <time>2017-04-20T12:04:14Z</time>
      </trkpt>
      <trkpt lat="43.92497" lon="2.13268">
        <ele>163.2</ele>
        <time>2017-04-20T12:04:16Z</time>
      </trkpt>
      <trkpt lat="43.92493" lon="2.1328">
        <ele>163.6</ele>
        <time>2017-04-20T12:04:18Z</time>
      </trkpt>
      <trkpt lat="43.92488" lon="2.13293">
        <ele>163.9</ele>
        <time>2017-04-20T12:04:20Z</time>
      </trkpt>
      <trkpt lat="43.92483" lon="2.13304">
        <ele>164.8</ele>
        <time>2017-04-20T12:04:22Z</time>
      </trkpt>
      <trkpt lat="43.92479" lon="2.13316">
        <ele>165</ele>
        <time>2017-04-20T12:04:24Z</time>
      </trkpt>
      <trkpt lat="43.92476" lon="2.1333">
        <ele>164.8</ele>
        <time>2017-04-20T12:04:26Z</time>
      </trkpt>
      <trkpt lat="43.92473" lon="2.13341">
        <ele>165.2</ele>
        <time>2017-04-20T12:04:28Z</time>
      </trkpt>
      <trkpt lat="43.9247" lon="2.13353">
        <ele>165.8</ele>
        <time>2017-04-20T12:04:30Z</time>
      </trkpt>
      <trkpt lat="43.92468" lon="2.13364">
        <ele>166</ele>
        <time>2017-04-20T12:04:32Z</time>
      </trkpt>
      <trkpt lat="43.92464" lon="2.13376">
        <ele>165.5</ele>
        <time>2017-04-20T12:04:34Z</time>
      </trkpt>
      <trkpt lat="43.92461" lon="2.13387">
        <ele>165.2</ele>
        <time>2017-04-20T12:04:36Z</time>
      </trkpt>
      <trkpt lat="43.92456" lon="2.13399">
        <ele>165.5</ele>
        <time>2017-04-20T12:04:38Z</time>
      </trkpt>
      <trkpt lat="43.92453" lon="2.13412">
        <ele>165.5</ele>
        <time>2017-04-20T12:04:40Z</time>
      </trkpt>
      <trkpt lat="43.9245" lon="2.13424">
        <ele>165</ele>
        <time>2017-04-20T12:04:42Z</time>
      </trkpt>
      <trkpt lat="43.92448" lon="2.13437">
        <ele>165.1</ele>
        <time>2017-04-20T12:04:44Z</time>
      </trkpt>
      <trkpt lat="43.92446" lon="2.13451">
        <ele>165.2</ele>
        <time>2017-04-20T12:04:46Z</time>
      </trkpt>
      <trkpt lat="43.92445" lon="2.13465">
        <ele>164.9</ele>
        <time>2017-04-20T12:04:48Z</time>
      </trkpt>
      <trkpt lat="43.92444" lon="2.13477">
        <ele>164.5</ele>
        <time>2017-04-20T12:04:50Z</time>
      </trkpt>
      <trkpt lat="43.92443" lon="2.13491">
        <ele>164.6</ele>
        <time>2017-04-20T12:04:52Z</time>
      </trkpt>
      <trkpt lat="43.92441" lon="2.13504">
        <ele>164.7</ele>
        <time>2017-04-20T12:04:54Z</time>
      </trkpt>
      <trkpt lat="43.9244" lon="2.13517">
        <ele>164.8</ele>
        <time>2017-04-20T12:04:56Z</time>
      </trkpt>
      <trkpt lat="43.92439" lon="2.13529">
        <ele>164.6</ele>
        <time>2017-04-20T12:04:58Z</time>
      </trkpt>
      <trkpt lat="43.92436" lon="2.13542">
        <ele>164.3</ele>
        <time>2017-04-20T12:05:00Z</time>
      </trkpt>
      <trkpt lat="43.92432" lon="2.13554">
        <ele>163.9</ele>
        <time>2017-04-20T12:05:02Z</time>
      </trkpt>
      <trkpt lat="43.9243" lon="2.13566">
        <ele>163.4</ele>
        <time>2017-04-20T12:05:04Z</time>
      </trkpt>
      <trkpt lat="43.92428" lon="2.13579">
        <ele>162.7</ele>
        <time>2017-04-20T12:05:06Z</time>
      </trkpt>
      <trkpt lat="43.92424" lon="2.13591">
        <ele>162.1</ele>
        <time>2017-04-20T12:05:08Z</time>
      </trkpt>
      <trkpt lat="43.92419" lon="2.13604">
        <ele>161.3</ele>
        <time>2017-04-20T12:05:10Z</time>
      </trkpt>
      <trkpt lat="43.92417" lon="2.13616">
        <ele>160.2</ele>
        <time>2017-04-20T12:05:12Z</time>
      </trkpt>
      <trkpt lat="43.92415" lon="2.13628">
        <ele>159.3</ele>
        <time>2017-04-20T12:05:14Z</time>
      </trkpt>
      <trkpt lat="43.92411" lon="2.13641">
        <ele>158.3</ele>
        <time>2017-04-20T12:05:16Z</time>
      </trkpt>
      <trkpt lat="43.92406" lon="2.13654">
        <ele>157.2</ele>
        <time>2017-04-20T12:05:18Z</time>
      </trkpt>
      <trkpt lat="43.92404" lon="2.13666">
        <ele>156.1</ele>
        <time>2017-04-20T12:05:20Z</time>
      </trkpt>
      <trkpt lat="43.92403" lon="2.13681">
        <ele>155.4</ele>
        <time>2017-04-20T12:05:22Z</time>
      </trkpt>
      <trkpt lat="43.92403" lon="2.13693">
        <ele>155.5</ele>
        <time>2017-04-20T12:05:24Z</time>
      </trkpt>
      <trkpt lat="43.92401" lon="2.13708">
        <ele>155.3</ele>
        <time>2017-04-20T12:05:26Z</time>
      </trkpt>
      <trkpt lat="43.92401" lon="2.13722">
        <ele>156</ele>
        <time>2017-04-20T12:05:28Z</time>
      </trkpt>
      <trkpt lat="43.92398" lon="2.13734">
        <ele>156.4</ele>
        <time>2017-04-20T12:05:30Z</time>
      </trkpt>
      <trkpt lat="43.92398" lon="2.13747">
        <ele>157.4</ele>
        <time>2017-04-20T12:05:32Z</time>
      </trkpt>
      <trkpt lat="43.92399" lon="2.13759">
        <ele>158.6</ele>
        <time>2017-04-20T12:05:34Z</time>
      </trkpt>
      <trkpt lat="43.92401" lon="2.1377">
        <ele>158.9</ele>
        <time>2017-04-20T12:05:36Z</time>
      </trkpt>
      <trkpt lat="43.92404" lon="2.1378">
        <ele>158.9</ele>
        <time>2017-04-20T12:05:38Z</time>
      </trkpt>
      <trkpt lat="43.92409" lon="2.13789">
        <ele>159.1</ele>
        <time>2017-04-20T12:05:40Z</time>
      </trkpt>
      <trkpt lat="43.92414" lon="2.13799">
        <ele>159.4</ele>
        <time>2017-04-20T12:05:42Z</time>
      </trkpt>
      <trkpt lat="43.92421" lon="2.13808">
        <ele>159.6</ele>
        <time>2017-04-20T12:05:44Z</time>
      </trkpt>
      <trkpt lat="43.92427" lon="2.13817">
        <ele>159.8</ele>
        <time>2017-04-20T12:05:46Z</time>
      </trkpt>
      <trkpt lat="43.9243" lon="2.13828">
        <ele>159.4</ele>
        <time>2017-04-20T12:05:48Z</time>
      </trkpt>
      <trkpt lat="43.9243" lon="2.1384">
        <ele>159.8</ele>
        <time>2017-04-20T12:05:50Z</time>
      </trkpt>
      <trkpt lat="43.92428" lon="2.13852">
        <ele>159.9</ele>
        <time>2017-04-20T12:05:52Z</time>
      </trkpt>
      <trkpt lat="43.92426" lon="2.13864">
        <ele>160.1</ele>
        <time>2017-04-20T12:05:54Z</time>
      </trkpt>
      <trkpt lat="43.92425" lon="2.13876">
        <ele>160</ele>
        <time>2017-04-20T12:05:56Z</time>
      </trkpt>
      <trkpt lat="43.92423" lon="2.13888">
        <ele>160.2</ele>
        <time>2017-04-20T12:05:58Z</time>
      </trkpt>
      <trkpt lat="43.9242" lon="2.13901">
        <ele>160.7</ele>
        <time>2017-04-20T12:06:00Z</time>
      </trkpt>
      <trkpt lat="43.92417" lon="2.13913">
        <ele>161.6</ele>
        <time>2017-04-20T12:06:02Z</time>
      </trkpt>
      <trkpt lat="43.92414" lon="2.13924">
        <ele>162.4</ele>
        <time>2017-04-20T12:06:04Z</time>
      </trkpt>
      <trkpt lat="43.92412" lon="2.13936">
        <ele>163.2</ele>
        <time>2017-04-20T12:06:06Z</time>
      </trkpt>
      <trkpt lat="43.92409" lon="2.13948">
        <ele>165.1</ele>
        <time>2017-04-20T12:06:08Z</time>
      </trkpt>
      <trkpt lat="43.92404" lon="2.13958">
        <ele>166.6</ele>
        <time>2017-04-20T12:06:10Z</time>
      </trkpt>
      <trkpt lat="43.92401" lon="2.1397">
        <ele>167</ele>
        <time>2017-04-20T12:06:12Z</time>
      </trkpt>
      <trkpt lat="43.92396" lon="2.13979">
        <ele>167.5</ele>
        <time>2017-04-20T12:06:14Z</time>
      </trkpt>
      <trkpt lat="43.92387" lon="2.13983">
        <ele>168</ele>
        <time>2017-04-20T12:06:16Z</time>
      </trkpt>
      <trkpt lat="43.92378" lon="2.1398">
        <ele>168.3</ele>
        <time>2017-04-20T12:06:18Z</time>
      </trkpt>
      <trkpt lat="43.92369" lon="2.13975">
        <ele>168.6</ele>
        <time>2017-04-20T12:06:20Z</time>
      </trkpt>
      <trkpt lat="43.9236" lon="2.1397">
        <ele>168.7</ele>
        <time>2017-04-20T12:06:22Z</time>
      </trkpt>
      <trkpt lat="43.92351" lon="2.13967">
        <ele>168.9</ele>
        <time>2017-04-20T12:06:24Z</time>
      </trkpt>
      <trkpt lat="43.92342" lon="2.13963">
        <ele>169.1</ele>
        <time>2017-04-20T12:06:26Z</time>
      </trkpt>
      <trkpt lat="43.92334" lon="2.13961">
        <ele>169.4</ele>
        <time>2017-04-20T12:06:28Z</time>
      </trkpt>
      <trkpt lat="43.92324" lon="2.1396">
        <ele>170.1</ele>
        <time>2017-04-20T12:06:30Z</time>
      </trkpt>
      <trkpt lat="43.92314" lon="2.13954">
        <ele>170.3</ele>
        <time>2017-04-20T12:06:32Z</time>
      </trkpt>
      <trkpt lat="43.92304" lon="2.13948">
        <ele>170.8</ele>
        <time>2017-04-20T12:06:34Z</time>
      </trkpt>
      <trkpt lat="43.92295" lon="2.1394">
        <ele>172.5</ele>
        <time>2017-04-20T12:06:36Z</time>
      </trkpt>
      <trkpt lat="43.92287" lon="2.13935">
        <ele>172.6</ele>
        <time>2017-04-20T12:06:38Z</time>
      </trkpt>
      <trkpt lat="43.92279" lon="2.13931">
        <ele>171.8</ele>
        <time>2017-04-20T12:06:40Z</time>
      </trkpt>
      <trkpt lat="43.9227" lon="2.13927">
        <ele>171.8</ele>
        <time>2017-04-20T12:06:43Z</time>
      </trkpt>
      <trkpt lat="43.92262" lon="2.13923">
        <ele>172.1</ele>
        <time>2017-04-20T12:06:46Z</time>
      </trkpt>
      <trkpt lat="43.92255" lon="2.13917">
        <ele>172</ele>
        <time>2017-04-20T12:06:48Z</time>
      </trkpt>
      <trkpt lat="43.92249" lon="2.13908">
        <ele>172</ele>
        <time>2017-04-20T12:06:50Z</time>
      </trkpt>
      <trkpt lat="43.92244" lon="2.13898">
        <ele>172.1</ele>
        <time>2017-04-20T12:06:52Z</time>
      </trkpt>
      <trkpt lat="43.92239" lon="2.13888">
        <ele>171.8</ele>
        <time>2017-04-20T12:06:54Z</time>
      </trkpt>
      <trkpt lat="43.92235" lon="2.13878">
        <ele>171.5</ele>
        <time>2017-04-20T12:06:56Z</time>
      </trkpt>
      <trkpt lat="43.9223" lon="2.13869">
        <ele>171.2</ele>
        <time>2017-04-20T12:06:58Z</time>
      </trkpt>
      <trkpt lat="43.92224" lon="2.13859">
        <ele>170.5</ele>
        <time>2017-04-20T12:07:00Z</time>
      </trkpt>
      <trkpt lat="43.9222" lon="2.1385">
        <ele>170</ele>
        <time>2017-04-20T12:07:02Z</time>
      </trkpt>
      <trkpt lat="43.92215" lon="2.1384">
        <ele>169.7</ele>
        <time>2017-04-20T12:07:04Z</time>
      </trkpt>
      <trkpt lat="43.9221" lon="2.13831">
        <ele>169.2</ele>
        <time>2017-04-20T12:07:06Z</time>
      </trkpt>
      <trkpt lat="43.92204" lon="2.1382">
        <ele>169.4</ele>
        <time>2017-04-20T12:07:09Z</time>
      </trkpt>
      <trkpt lat="43.92198" lon="2.13814">
        <ele>169.3</ele>
        <time>2017-04-20T12:07:12Z</time>
      </trkpt>
      <trkpt lat="43.92191" lon="2.13813">
        <ele>168.1</ele>
        <time>2017-04-20T12:07:19Z</time>
      </trkpt>
      <trkpt lat="43.92186" lon="2.13821">
        <ele>167.8</ele>
        <time>2017-04-20T12:07:22Z</time>
      </trkpt>
      <trkpt lat="43.92179" lon="2.13831">
        <ele>168</ele>
        <time>2017-04-20T12:07:25Z</time>
      </trkpt>
      <trkpt lat="43.92171" lon="2.13835">
        <ele>168</ele>
        <time>2017-04-20T12:07:27Z</time>
      </trkpt>
      <trkpt lat="43.92163" lon="2.1384">
        <ele>167.5</ele>
        <time>2017-04-20T12:07:29Z</time>
      </trkpt>
      <trkpt lat="43.92155" lon="2.13843">
        <ele>166.7</ele>
        <time>2017-04-20T12:07:31Z</time>
      </trkpt>
      <trkpt lat="43.92146" lon="2.13846">
        <ele>166</ele>
        <time>2017-04-20T12:07:33Z</time>
      </trkpt>
      <trkpt lat="43.92137" lon="2.13849">
        <ele>165.2</ele>
        <time>2017-04-20T12:07:35Z</time>
      </trkpt>
      <trkpt lat="43.92129" lon="2.13852">
        <ele>164.1</ele>
        <time>2017-04-20T12:07:37Z</time>
      </trkpt>
      <trkpt lat="43.92119" lon="2.13859">
        <ele>161.8</ele>
        <time>2017-04-20T12:07:40Z</time>
      </trkpt>
      <trkpt lat="43.9211" lon="2.13863">
        <ele>159.9</ele>
        <time>2017-04-20T12:07:43Z</time>
      </trkpt>
      <trkpt lat="43.92102" lon="2.13869">
        <ele>156.7</ele>
        <time>2017-04-20T12:07:47Z</time>
      </trkpt>
      <trkpt lat="43.92096" lon="2.13875">
        <ele>157.7</ele>
        <time>2017-04-20T12:07:50Z</time>
      </trkpt>
      <trkpt lat="43.92089" lon="2.13874">
        <ele>158.7</ele>
        <time>2017-04-20T12:07:57Z</time>
      </trkpt>
      <trkpt lat="43.92085" lon="2.1388">
        <ele>160.3</ele>
        <time>2017-04-20T12:08:34Z</time>
      </trkpt>
      <trkpt lat="43.92094" lon="2.13878">
        <ele>160</ele>
        <time>2017-04-20T12:08:51Z</time>
      </trkpt>
      <trkpt lat="43.92094" lon="2.13877">
        <ele>160</ele>
        <time>2017-04-20T12:08:58Z</time>
      </trkpt>
      <trkpt lat="43.92096" lon="2.13866">
        <ele>159.9</ele>
        <time>2017-04-20T12:09:30Z</time>
      </trkpt>
      <trkpt lat="43.92091" lon="2.13878">
        <ele>160.7</ele>
        <time>2017-04-20T12:09:31Z</time>
      </trkpt>
      <trkpt lat="43.92091" lon="2.1389">
        <ele>161.6</ele>
        <time>2017-04-20T12:09:34Z</time>
      </trkpt>
      <trkpt lat="43.92108" lon="2.13885">
        <ele>165.4</ele>
        <time>2017-04-20T12:11:33Z</time>
      </trkpt>
      <trkpt lat="43.92109" lon="2.13884">
        <ele>165.4</ele>
        <time>2017-04-20T12:11:40Z</time>
      </trkpt>
      <trkpt lat="43.92088" lon="2.13887">
        <ele>166.2</ele>
        <time>2017-04-20T12:13:56Z</time>
      </trkpt>
      <trkpt lat="43.92094" lon="2.13881">
        <ele>167.1</ele>
        <time>2017-04-20T12:14:35Z</time>
      </trkpt>
      <trkpt lat="43.921" lon="2.1389">
        <ele>167.1</ele>
        <time>2017-04-20T12:14:37Z</time>
      </trkpt>
      <trkpt lat="43.92091" lon="2.13863">
        <ele>202.4</ele>
        <time>2017-04-20T12:15:30Z</time>
      </trkpt>
      <trkpt lat="43.92096" lon="2.13875">
        <ele>194.2</ele>
        <time>2017-04-20T12:15:35Z</time>
      </trkpt>
      <trkpt lat="43.92097" lon="2.13879">
        <ele>183.2</ele>
        <time>2017-04-20T12:17:30Z</time>
      </trkpt>
      <trkpt lat="43.92098" lon="2.13876">
        <ele>183.4</ele>
        <time>2017-04-20T12:17:37Z</time>
      </trkpt>
      <trkpt lat="43.9209" lon="2.13886">
        <ele>180.6</ele>
        <time>2017-04-20T12:19:49Z</time>
      </trkpt>
      <trkpt lat="43.92083" lon="2.13887">
        <ele>177.7</ele>
        <time>2017-04-20T12:20:33Z</time>
      </trkpt>
      <trkpt lat="43.92075" lon="2.13893">
        <ele>177.1</ele>
        <time>2017-04-20T12:20:37Z</time>
      </trkpt>
      <trkpt lat="43.92067" lon="2.13896">
        <ele>176.5</ele>
        <time>2017-04-20T12:20:41Z</time>
      </trkpt>
      <trkpt lat="43.92059" lon="2.139">
        <ele>176.4</ele>
        <time>2017-04-20T12:20:45Z</time>
      </trkpt>
      <trkpt lat="43.9205" lon="2.13904">
        <ele>175.5</ele>
        <time>2017-04-20T12:20:49Z</time>
      </trkpt>
      <trkpt lat="43.92043" lon="2.13908">
        <ele>175.4</ele>
        <time>2017-04-20T12:20:53Z</time>
      </trkpt>
      <trkpt lat="43.92038" lon="2.13915">
        <ele>174.5</ele>
        <time>2017-04-20T12:20:57Z</time>
      </trkpt>
      <trkpt lat="43.92033" lon="2.13924">
        <ele>173.7</ele>
        <time>2017-04-20T12:21:01Z</time>
      </trkpt>
      <trkpt lat="43.92032" lon="2.13931">
        <ele>170.4</ele>
        <time>2017-04-20T12:21:08Z</time>
      </trkpt>
      <trkpt lat="43.92034" lon="2.13944">
        <ele>168.6</ele>
        <time>2017-04-20T12:21:13Z</time>
      </trkpt>
      <trkpt lat="43.92038" lon="2.13954">
        <ele>166.8</ele>
        <time>2017-04-20T12:21:15Z</time>
      </trkpt>
      <trkpt lat="43.92041" lon="2.13963">
        <ele>164.3</ele>
        <time>2017-04-20T12:21:17Z</time>
      </trkpt>
      <trkpt lat="43.92045" lon="2.13972">
        <ele>162.3</ele>
        <time>2017-04-20T12:21:19Z</time>
      </trkpt>
      <trkpt lat="43.92049" lon="2.13982">
        <ele>161.4</ele>
        <time>2017-04-20T12:21:21Z</time>
      </trkpt>
      <trkpt lat="43.92055" lon="2.1399">
        <ele>160.2</ele>
        <time>2017-04-20T12:21:23Z</time>
      </trkpt>
      <trkpt lat="43.9206" lon="2.13997">
        <ele>159.4</ele>
        <time>2017-04-20T12:21:25Z</time>
      </trkpt>
      <trkpt lat="43.92065" lon="2.14005">
        <ele>158.9</ele>
        <time>2017-04-20T12:21:27Z</time>
      </trkpt>
      <trkpt lat="43.92071" lon="2.14014">
        <ele>158.2</ele>
        <time>2017-04-20T12:21:29Z</time>
      </trkpt>
      <trkpt lat="43.92077" lon="2.14024">
        <ele>158.3</ele>
        <time>2017-04-20T12:21:31Z</time>
      </trkpt>
      <trkpt lat="43.92082" lon="2.14034">
        <ele>156.7</ele>
        <time>2017-04-20T12:21:33Z</time>
      </trkpt>
      <trkpt lat="43.92087" lon="2.14042">
        <ele>155.8</ele>
        <time>2017-04-20T12:21:35Z</time>
      </trkpt>
      <trkpt lat="43.92093" lon="2.1405">
        <ele>154.4</ele>
        <time>2017-04-20T12:21:37Z</time>
      </trkpt>
      <trkpt lat="43.92099" lon="2.1406">
        <ele>153.4</ele>
        <time>2017-04-20T12:21:39Z</time>
      </trkpt>
      <trkpt lat="43.92105" lon="2.14069">
        <ele>152.2</ele>
        <time>2017-04-20T12:21:41Z</time>
      </trkpt>
      <trkpt lat="43.92112" lon="2.14078">
        <ele>151.5</ele>
        <time>2017-04-20T12:21:43Z</time>
      </trkpt>
      <trkpt lat="43.92119" lon="2.14087">
        <ele>150.6</ele>
        <time>2017-04-20T12:21:45Z</time>
      </trkpt>
      <trkpt lat="43.92125" lon="2.14099">
        <ele>149.5</ele>
        <time>2017-04-20T12:21:47Z</time>
      </trkpt>
      <trkpt lat="43.92131" lon="2.14111">
        <ele>148.7</ele>
        <time>2017-04-20T12:21:49Z</time>
      </trkpt>
      <trkpt lat="43.92138" lon="2.14124">
        <ele>147.9</ele>
        <time>2017-04-20T12:21:51Z</time>
      </trkpt>
      <trkpt lat="43.92145" lon="2.14135">
        <ele>147</ele>
        <time>2017-04-20T12:21:53Z</time>
      </trkpt>
      <trkpt lat="43.92152" lon="2.14146">
        <ele>146.3</ele>
        <time>2017-04-20T12:21:55Z</time>
      </trkpt>
      <trkpt lat="43.92159" lon="2.14156">
        <ele>145.7</ele>
        <time>2017-04-20T12:21:57Z</time>
      </trkpt>
      <trkpt lat="43.92167" lon="2.14166">
        <ele>145.5</ele>
        <time>2017-04-20T12:21:59Z</time>
      </trkpt>
      <trkpt lat="43.92177" lon="2.14174">
        <ele>144.9</ele>
        <time>2017-04-20T12:22:01Z</time>
      </trkpt>
      <trkpt lat="43.92185" lon="2.14184">
        <ele>144.6</ele>
        <time>2017-04-20T12:22:03Z</time>
      </trkpt>
      <trkpt lat="43.92193" lon="2.14195">
        <ele>144.5</ele>
        <time>2017-04-20T12:22:05Z</time>
      </trkpt>
      <trkpt lat="43.92201" lon="2.14206">
        <ele>144.7</ele>
        <time>2017-04-20T12:22:07Z</time>
      </trkpt>
      <trkpt lat="43.92211" lon="2.1421">
        <ele>145.7</ele>
        <time>2017-04-20T12:22:09Z</time>
      </trkpt>
      <trkpt lat="43.9222" lon="2.14216">
        <ele>146.7</ele>
        <time>2017-04-20T12:22:12Z</time>
      </trkpt>
      <trkpt lat="43.92233" lon="2.14219">
        <ele>149.2</ele>
        <time>2017-04-20T12:22:14Z</time>
      </trkpt>
      <trkpt lat="43.9224" lon="2.1423">
        <ele>150.8</ele>
        <time>2017-04-20T12:22:16Z</time>
      </trkpt>
      <trkpt lat="43.92248" lon="2.14244">
        <ele>152.5</ele>
        <time>2017-04-20T12:22:18Z</time>
      </trkpt>
      <trkpt lat="43.9226" lon="2.14253">
        <ele>153.8</ele>
        <time>2017-04-20T12:22:20Z</time>
      </trkpt>
      <trkpt lat="43.92267" lon="2.14255">
        <ele>154.4</ele>
        <time>2017-04-20T12:22:21Z</time>
      </trkpt>
      <trkpt lat="43.92274" lon="2.14258">
        <ele>155.7</ele>
        <time>2017-04-20T12:22:22Z</time>
      </trkpt>
      <trkpt lat="43.92286" lon="2.14266">
        <ele>156.8</ele>
        <time>2017-04-20T12:22:24Z</time>
      </trkpt>
      <trkpt lat="43.92295" lon="2.14278">
        <ele>156.2</ele>
        <time>2017-04-20T12:22:26Z</time>
      </trkpt>
      <trkpt lat="43.92305" lon="2.14289">
        <ele>156.1</ele>
        <time>2017-04-20T12:22:28Z</time>
      </trkpt>
      <trkpt lat="43.92315" lon="2.143">
        <ele>155.9</ele>
        <time>2017-04-20T12:22:30Z</time>
      </trkpt>
      <trkpt lat="43.92325" lon="2.14311">
        <ele>155.6</ele>
        <time>2017-04-20T12:22:32Z</time>
      </trkpt>
      <trkpt lat="43.92334" lon="2.14324">
        <ele>155.6</ele>
        <time>2017-04-20T12:22:34Z</time>
      </trkpt>
      <trkpt lat="43.92344" lon="2.14336">
        <ele>156.1</ele>
        <time>2017-04-20T12:22:36Z</time>
      </trkpt>
      <trkpt lat="43.92353" lon="2.14348">
        <ele>156.3</ele>
        <time>2017-04-20T12:22:38Z</time>
      </trkpt>
      <trkpt lat="43.92362" lon="2.14359">
        <ele>156.5</ele>
        <time>2017-04-20T12:22:40Z</time>
      </trkpt>
      <trkpt lat="43.92371" lon="2.1437">
        <ele>156.9</ele>
        <time>2017-04-20T12:22:42Z</time>
      </trkpt>
      <trkpt lat="43.9238" lon="2.14381">
        <ele>156.9</ele>
        <time>2017-04-20T12:22:44Z</time>
      </trkpt>
      <trkpt lat="43.92389" lon="2.14392">
        <ele>157.4</ele>
        <time>2017-04-20T12:22:46Z</time>
      </trkpt>
      <trkpt lat="43.92398" lon="2.14405">
        <ele>157.7</ele>
        <time>2017-04-20T12:22:48Z</time>
      </trkpt>
      <trkpt lat="43.92407" lon="2.14417">
        <ele>157.7</ele>
        <time>2017-04-20T12:22:50Z</time>
      </trkpt>
      <trkpt lat="43.92416" lon="2.1443">
        <ele>157.3</ele>
        <time>2017-04-20T12:22:52Z</time>
      </trkpt>
      <trkpt lat="43.92425" lon="2.14443">
        <ele>157.3</ele>
        <time>2017-04-20T12:22:54Z</time>
      </trkpt>
      <trkpt lat="43.92434" lon="2.14454">
        <ele>156.9</ele>
        <time>2017-04-20T12:22:56Z</time>
      </trkpt>
      <trkpt lat="43.92444" lon="2.14465">
        <ele>156.8</ele>
        <time>2017-04-20T12:22:58Z</time>
      </trkpt>
      <trkpt lat="43.92452" lon="2.14478">
        <ele>156.4</ele>
        <time>2017-04-20T12:23:00Z</time>
      </trkpt>
      <trkpt lat="43.9246" lon="2.14488">
        <ele>156.2</ele>
        <time>2017-04-20T12:23:02Z</time>
      </trkpt>
      <trkpt lat="43.92469" lon="2.14497">
        <ele>156.4</ele>
        <time>2017-04-20T12:23:04Z</time>
      </trkpt>
      <trkpt lat="43.92477" lon="2.14505">
        <ele>156.5</ele>
        <time>2017-04-20T12:23:06Z</time>
      </trkpt>
      <trkpt lat="43.92485" lon="2.14513">
        <ele>156.5</ele>
        <time>2017-04-20T12:23:08Z</time>
      </trkpt>
      <trkpt lat="43.92491" lon="2.14521">
        <ele>156.1</ele>
        <time>2017-04-20T12:23:10Z</time>
      </trkpt>
      <trkpt lat="43.92499" lon="2.14529">
        <ele>155.9</ele>
        <time>2017-04-20T12:23:12Z</time>
      </trkpt>
      <trkpt lat="43.92508" lon="2.14538">
        <ele>156.4</ele>
        <time>2017-04-20T12:23:14Z</time>
      </trkpt>
      <trkpt lat="43.92516" lon="2.14546">
        <ele>156.7</ele>
        <time>2017-04-20T12:23:16Z</time>
      </trkpt>
      <trkpt lat="43.92524" lon="2.14553">
        <ele>156.9</ele>
        <time>2017-04-20T12:23:18Z</time>
      </trkpt>
      <trkpt lat="43.92532" lon="2.1456">
        <ele>157.5</ele>
        <time>2017-04-20T12:23:20Z</time>
      </trkpt>
      <trkpt lat="43.92542" lon="2.14562">
        <ele>158.4</ele>
        <time>2017-04-20T12:23:22Z</time>
      </trkpt>
      <trkpt lat="43.92551" lon="2.14561">
        <ele>158.9</ele>
        <time>2017-04-20T12:23:24Z</time>
      </trkpt>
      <trkpt lat="43.92557" lon="2.14567">
        <ele>159.7</ele>
        <time>2017-04-20T12:23:26Z</time>
      </trkpt>
      <trkpt lat="43.92557" lon="2.14581">
        <ele>160.4</ele>
        <time>2017-04-20T12:23:29Z</time>
      </trkpt>
      <trkpt lat="43.92553" lon="2.14593">
        <ele>161.7</ele>
        <time>2017-04-20T12:23:32Z</time>
      </trkpt>
      <trkpt lat="43.92549" lon="2.14607">
        <ele>164</ele>
        <time>2017-04-20T12:23:35Z</time>
      </trkpt>
      <trkpt lat="43.92548" lon="2.1462">
        <ele>164.4</ele>
        <time>2017-04-20T12:23:37Z</time>
      </trkpt>
      <trkpt lat="43.92548" lon="2.14633">
        <ele>163.9</ele>
        <time>2017-04-20T12:23:39Z</time>
      </trkpt>
      <trkpt lat="43.92549" lon="2.14647">
        <ele>164.8</ele>
        <time>2017-04-20T12:23:41Z</time>
      </trkpt>
      <trkpt lat="43.92549" lon="2.14658">
        <ele>165.2</ele>
        <time>2017-04-20T12:23:43Z</time>
      </trkpt>
      <trkpt lat="43.92549" lon="2.14669">
        <ele>165.8</ele>
        <time>2017-04-20T12:23:48Z</time>
      </trkpt>
      <trkpt lat="43.92549" lon="2.14684">
        <ele>165.4</ele>
        <time>2017-04-20T12:23:51Z</time>
      </trkpt>
      <trkpt lat="43.92549" lon="2.14696">
        <ele>164.4</ele>
        <time>2017-04-20T12:23:53Z</time>
      </trkpt>
      <trkpt lat="43.92548" lon="2.1471">
        <ele>164</ele>
        <time>2017-04-20T12:23:55Z</time>
      </trkpt>
      <trkpt lat="43.9255" lon="2.14721">
        <ele>162.6</ele>
        <time>2017-04-20T12:23:57Z</time>
      </trkpt>
      <trkpt lat="43.92553" lon="2.14732">
        <ele>161.5</ele>
        <time>2017-04-20T12:23:59Z</time>
      </trkpt>
      <trkpt lat="43.92555" lon="2.14747">
        <ele>160.5</ele>
        <time>2017-04-20T12:24:02Z</time>
      </trkpt>
      <trkpt lat="43.92555" lon="2.14757">
        <ele>160.3</ele>
        <time>2017-04-20T12:24:04Z</time>
      </trkpt>
      <trkpt lat="43.92557" lon="2.14768">
        <ele>159.6</ele>
        <time>2017-04-20T12:24:06Z</time>
      </trkpt>
      <trkpt lat="43.92558" lon="2.14781">
        <ele>158.8</ele>
        <time>2017-04-20T12:24:08Z</time>
      </trkpt>
      <trkpt lat="43.92559" lon="2.14795">
        <ele>158.4</ele>
        <time>2017-04-20T12:24:10Z</time>
      </trkpt>
      <trkpt lat="43.9256" lon="2.14808">
        <ele>158.5</ele>
        <time>2017-04-20T12:24:12Z</time>
      </trkpt>
      <trkpt lat="43.92562" lon="2.14819">
        <ele>159.2</ele>
        <time>2017-04-20T12:24:14Z</time>
      </trkpt>
      <trkpt lat="43.92569" lon="2.14826">
        <ele>160</ele>
        <time>2017-04-20T12:24:16Z</time>
      </trkpt>
      <trkpt lat="43.92579" lon="2.1483">
        <ele>160.1</ele>
        <time>2017-04-20T12:24:19Z</time>
      </trkpt>
      <trkpt lat="43.92587" lon="2.14831">
        <ele>161</ele>
        <time>2017-04-20T12:24:21Z</time>
      </trkpt>
      <trkpt lat="43.92597" lon="2.14831">
        <ele>161.9</ele>
        <time>2017-04-20T12:24:23Z</time>
      </trkpt>
      <trkpt lat="43.92606" lon="2.14829">
        <ele>162.6</ele>
        <time>2017-04-20T12:24:25Z</time>
      </trkpt>
      <trkpt lat="43.92615" lon="2.14827">
        <ele>163.3</ele>
        <time>2017-04-20T12:24:27Z</time>
      </trkpt>
      <trkpt lat="43.92625" lon="2.14826">
        <ele>163.9</ele>
        <time>2017-04-20T12:24:29Z</time>
      </trkpt>
      <trkpt lat="43.92635" lon="2.14823">
        <ele>164.6</ele>
        <time>2017-04-20T12:24:31Z</time>
      </trkpt>
      <trkpt lat="43.92644" lon="2.1482">
        <ele>164.6</ele>
        <time>2017-04-20T12:24:33Z</time>
      </trkpt>
      <trkpt lat="43.92653" lon="2.14818">
        <ele>164.8</ele>
        <time>2017-04-20T12:24:35Z</time>
      </trkpt>
      <trkpt lat="43.92661" lon="2.14813">
        <ele>165.2</ele>
        <time>2017-04-20T12:24:37Z</time>
      </trkpt>
      <trkpt lat="43.9267" lon="2.1481">
        <ele>165.3</ele>
        <time>2017-04-20T12:24:41Z</time>
      </trkpt>
      <trkpt lat="43.92681" lon="2.1481">
        <ele>165.7</ele>
        <time>2017-04-20T12:24:44Z</time>
      </trkpt>
      <trkpt lat="43.9269" lon="2.14809">
        <ele>166</ele>
        <time>2017-04-20T12:24:46Z</time>
      </trkpt>
      <trkpt lat="43.92698" lon="2.14804">
        <ele>167.1</ele>
        <time>2017-04-20T12:24:48Z</time>
      </trkpt>
      <trkpt lat="43.92706" lon="2.148">
        <ele>167.6</ele>
        <time>2017-04-20T12:24:50Z</time>
      </trkpt>
      <trkpt lat="43.92714" lon="2.14797">
        <ele>168.1</ele>
        <time>2017-04-20T12:24:52Z</time>
      </trkpt>
      <trkpt lat="43.92722" lon="2.14799">
        <ele>168.2</ele>
        <time>2017-04-20T12:24:54Z</time>
      </trkpt>
      <trkpt lat="43.9273" lon="2.14801">
        <ele>168.7</ele>
        <time>2017-04-20T12:24:56Z</time>
      </trkpt>
      <trkpt lat="43.92739" lon="2.148">
        <ele>169.5</ele>
        <time>2017-04-20T12:24:58Z</time>
      </trkpt>
      <trkpt lat="43.92746" lon="2.14797">
        <ele>168.9</ele>
        <time>2017-04-20T12:25:00Z</time>
      </trkpt>
      <trkpt lat="43.92755" lon="2.14794">
        <ele>168.8</ele>
        <time>2017-04-20T12:25:02Z</time>
      </trkpt>
      <trkpt lat="43.92763" lon="2.14794">
        <ele>169</ele>
        <time>2017-04-20T12:25:04Z</time>
      </trkpt>
      <trkpt lat="43.92773" lon="2.14794">
        <ele>168.4</ele>
        <time>2017-04-20T12:25:07Z</time>
      </trkpt>
      <trkpt lat="43.92782" lon="2.14793">
        <ele>166.6</ele>
        <time>2017-04-20T12:25:10Z</time>
      </trkpt>
      <trkpt lat="43.92789" lon="2.14792">
        <ele>166.5</ele>
        <time>2017-04-20T12:25:12Z</time>
      </trkpt>
      <trkpt lat="43.92796" lon="2.1479">
        <ele>166.6</ele>
        <time>2017-04-20T12:25:14Z</time>
      </trkpt>
      <trkpt lat="43.92805" lon="2.14785">
        <ele>166.9</ele>
        <time>2017-04-20T12:25:17Z</time>
      </trkpt>
      <trkpt lat="43.92812" lon="2.14782">
        <ele>166</ele>
        <time>2017-04-20T12:25:20Z</time>
      </trkpt>
      <trkpt lat="43.9282" lon="2.14777">
        <ele>169.5</ele>
        <time>2017-04-20T12:25:22Z</time>
      </trkpt>
      <trkpt lat="43.9283" lon="2.14774">
        <ele>169.6</ele>
        <time>2017-04-20T12:25:24Z</time>
      </trkpt>
      <trkpt lat="43.9284" lon="2.14771">
        <ele>171.1</ele>
        <time>2017-04-20T12:25:26Z</time>
      </trkpt>
      <trkpt lat="43.9285" lon="2.14769">
        <ele>171.5</ele>
        <time>2017-04-20T12:25:28Z</time>
      </trkpt>
      <trkpt lat="43.9286" lon="2.14767">
        <ele>171.9</ele>
        <time>2017-04-20T12:25:30Z</time>
      </trkpt>
      <trkpt lat="43.9287" lon="2.14766">
        <ele>172.3</ele>
        <time>2017-04-20T12:25:32Z</time>
      </trkpt>
      <trkpt lat="43.92881" lon="2.14765">
        <ele>171.2</ele>
        <time>2017-04-20T12:25:35Z</time>
      </trkpt>
      <trkpt lat="43.92888" lon="2.14763">
        <ele>171.3</ele>
        <time>2017-04-20T12:25:37Z</time>
      </trkpt>
      <trkpt lat="43.92896" lon="2.14762">
        <ele>170.7</ele>
        <time>2017-04-20T12:25:39Z</time>
      </trkpt>
      <trkpt lat="43.92903" lon="2.14761">
        <ele>171</ele>
        <time>2017-04-20T12:25:41Z</time>
      </trkpt>
      <trkpt lat="43.92911" lon="2.14761">
        <ele>170.3</ele>
        <time>2017-04-20T12:25:43Z</time>
      </trkpt>
      <trkpt lat="43.92919" lon="2.14759">
        <ele>169.1</ele>
        <time>2017-04-20T12:25:45Z</time>
      </trkpt>
      <trkpt lat="43.92928" lon="2.14756">
        <ele>168.2</ele>
        <time>2017-04-20T12:25:47Z</time>
      </trkpt>
      <trkpt lat="43.92936" lon="2.14755">
        <ele>167.4</ele>
        <time>2017-04-20T12:25:49Z</time>
      </trkpt>
      <trkpt lat="43.92944" lon="2.14754">
        <ele>165.4</ele>
        <time>2017-04-20T12:25:51Z</time>
      </trkpt>
      <trkpt lat="43.92952" lon="2.14753">
        <ele>164.1</ele>
        <time>2017-04-20T12:25:53Z</time>
      </trkpt>
      <trkpt lat="43.92962" lon="2.14754">
        <ele>164.1</ele>
        <time>2017-04-20T12:25:56Z</time>
      </trkpt>
      <trkpt lat="43.92967" lon="2.14755">
        <ele>164.6</ele>
        <time>2017-04-20T12:26:03Z</time>
      </trkpt>
      <trkpt lat="43.92974" lon="2.14762">
        <ele>168.3</ele>
        <time>2017-04-20T12:26:16Z</time>
      </trkpt>
      <trkpt lat="43.92976" lon="2.14764">
        <ele>168.4</ele>
        <time>2017-04-20T12:26:23Z</time>
      </trkpt>
      <trkpt lat="43.92987" lon="2.14766">
        <ele>168.3</ele>
        <time>2017-04-20T12:26:26Z</time>
      </trkpt>
      <trkpt lat="43.92996" lon="2.14766">
        <ele>168.1</ele>
        <time>2017-04-20T12:26:28Z</time>
      </trkpt>
      <trkpt lat="43.9301" lon="2.14762">
        <ele>168.4</ele>
        <time>2017-04-20T12:26:30Z</time>
      </trkpt>
      <trkpt lat="43.93018" lon="2.14758">
        <ele>168.2</ele>
        <time>2017-04-20T12:26:31Z</time>
      </trkpt>
      <trkpt lat="43.93025" lon="2.14756">
        <ele>167.6</ele>
        <time>2017-04-20T12:26:32Z</time>
      </trkpt>
      <trkpt lat="43.93033" lon="2.14754">
        <ele>167.3</ele>
        <time>2017-04-20T12:26:33Z</time>
      </trkpt>
      <trkpt lat="43.93041" lon="2.14751">
        <ele>167.4</ele>
        <time>2017-04-20T12:26:34Z</time>
      </trkpt>
      <trkpt lat="43.93049" lon="2.14748">
        <ele>167.1</ele>
        <time>2017-04-20T12:26:35Z</time>
      </trkpt>
      <trkpt lat="43.93057" lon="2.14746">
        <ele>166.6</ele>
        <time>2017-04-20T12:26:36Z</time>
      </trkpt>
      <trkpt lat="43.93065" lon="2.14743">
        <ele>166</ele>
        <time>2017-04-20T12:26:37Z</time>
      </trkpt>
      <trkpt lat="43.93073" lon="2.14741">
        <ele>165.4</ele>
        <time>2017-04-20T12:26:38Z</time>
      </trkpt>
      <trkpt lat="43.93081" lon="2.14739">
        <ele>165.4</ele>
        <time>2017-04-20T12:26:39Z</time>
      </trkpt>
      <trkpt lat="43.93089" lon="2.14738">
        <ele>164.1</ele>
        <time>2017-04-20T12:26:40Z</time>
      </trkpt>
      <trkpt lat="43.93097" lon="2.14737">
        <ele>161.4</ele>
        <time>2017-04-20T12:26:41Z</time>
      </trkpt>
      <trkpt lat="43.93105" lon="2.14734">
        <ele>160.3</ele>
        <time>2017-04-20T12:26:42Z</time>
      </trkpt>
      <trkpt lat="43.93118" lon="2.14729">
        <ele>160.3</ele>
        <time>2017-04-20T12:26:44Z</time>
      </trkpt>
      <trkpt lat="43.93132" lon="2.14723">
        <ele>159.8</ele>
        <time>2017-04-20T12:26:46Z</time>
      </trkpt>
      <trkpt lat="43.9314" lon="2.14721">
        <ele>159.7</ele>
        <time>2017-04-20T12:26:47Z</time>
      </trkpt>
      <trkpt lat="43.93147" lon="2.14719">
        <ele>159.8</ele>
        <time>2017-04-20T12:26:48Z</time>
      </trkpt>
      <trkpt lat="43.93155" lon="2.14717">
        <ele>159.3</ele>
        <time>2017-04-20T12:26:49Z</time>
      </trkpt>
      <trkpt lat="43.93162" lon="2.14715">
        <ele>158.9</ele>
        <time>2017-04-20T12:26:50Z</time>
      </trkpt>
      <trkpt lat="43.9317" lon="2.14713">
        <ele>158.7</ele>
        <time>2017-04-20T12:26:51Z</time>
      </trkpt>
      <trkpt lat="43.93178" lon="2.14711">
        <ele>158.7</ele>
        <time>2017-04-20T12:26:52Z</time>
      </trkpt>
      <trkpt lat="43.93186" lon="2.14709">
        <ele>158.5</ele>
        <time>2017-04-20T12:26:53Z</time>
      </trkpt>
      <trkpt lat="43.93193" lon="2.14708">
        <ele>158.3</ele>
        <time>2017-04-20T12:26:54Z</time>
      </trkpt>
      <trkpt lat="43.93201" lon="2.14705">
        <ele>158.2</ele>
        <time>2017-04-20T12:26:55Z</time>
      </trkpt>
      <trkpt lat="43.93209" lon="2.14703">
        <ele>157.9</ele>
        <time>2017-04-20T12:26:56Z</time>
      </trkpt>
      <trkpt lat="43.93216" lon="2.14702">
        <ele>157.6</ele>
        <time>2017-04-20T12:26:57Z</time>
      </trkpt>
      <trkpt lat="43.93224" lon="2.147">
        <ele>157.4</ele>
        <time>2017-04-20T12:26:58Z</time>
      </trkpt>
      <trkpt lat="43.93232" lon="2.14698">
        <ele>157.3</ele>
        <time>2017-04-20T12:26:59Z</time>
      </trkpt>
      <trkpt lat="43.9324" lon="2.14696">
        <ele>157.2</ele>
        <time>2017-04-20T12:27:00Z</time>
      </trkpt>
      <trkpt lat="43.93247" lon="2.14695">
        <ele>157.1</ele>
        <time>2017-04-20T12:27:01Z</time>
      </trkpt>
      <trkpt lat="43.93256" lon="2.14693">
        <ele>156.8</ele>
        <time>2017-04-20T12:27:02Z</time>
      </trkpt>
      <trkpt lat="43.93264" lon="2.14691">
        <ele>156.7</ele>
        <time>2017-04-20T12:27:03Z</time>
      </trkpt>
      <trkpt lat="43.93271" lon="2.14689">
        <ele>156.5</ele>
        <time>2017-04-20T12:27:04Z</time>
      </trkpt>
      <trkpt lat="43.9328" lon="2.14687">
        <ele>156.3</ele>
        <time>2017-04-20T12:27:05Z</time>
      </trkpt>
      <trkpt lat="43.93287" lon="2.14685">
        <ele>156.1</ele>
        <time>2017-04-20T12:27:06Z</time>
      </trkpt>
      <trkpt lat="43.93295" lon="2.14684">
        <ele>155.7</ele>
        <time>2017-04-20T12:27:07Z</time>
      </trkpt>
      <trkpt lat="43.93303" lon="2.14682">
        <ele>155.3</ele>
        <time>2017-04-20T12:27:08Z</time>
      </trkpt>
      <trkpt lat="43.93312" lon="2.14681">
        <ele>155</ele>
        <time>2017-04-20T12:27:09Z</time>
      </trkpt>
      <trkpt lat="43.9332" lon="2.1468">
        <ele>154.8</ele>
        <time>2017-04-20T12:27:10Z</time>
      </trkpt>
      <trkpt lat="43.93328" lon="2.14677">
        <ele>154.5</ele>
        <time>2017-04-20T12:27:11Z</time>
      </trkpt>
      <trkpt lat="43.93336" lon="2.14675">
        <ele>154.7</ele>
        <time>2017-04-20T12:27:12Z</time>
      </trkpt>
      <trkpt lat="43.93343" lon="2.14674">
        <ele>154.6</ele>
        <time>2017-04-20T12:27:13Z</time>
      </trkpt>
      <trkpt lat="43.93351" lon="2.14672">
        <ele>154.5</ele>
        <time>2017-04-20T12:27:14Z</time>
      </trkpt>
      <trkpt lat="43.93358" lon="2.1467">
        <ele>154.2</ele>
        <time>2017-04-20T12:27:15Z</time>
      </trkpt>
      <trkpt lat="43.93365" lon="2.14669">
        <ele>154</ele>
        <time>2017-04-20T12:27:16Z</time>
      </trkpt>
      <trkpt lat="43.93372" lon="2.14667">
        <ele>154</ele>
        <time>2017-04-20T12:27:17Z</time>
      </trkpt>
      <trkpt lat="43.93386" lon="2.14664">
        <ele>154.3</ele>
        <time>2017-04-20T12:27:19Z</time>
      </trkpt>
      <trkpt lat="43.93398" lon="2.14661">
        <ele>153.1</ele>
        <time>2017-04-20T12:27:21Z</time>
      </trkpt>
      <trkpt lat="43.93409" lon="2.14659">
        <ele>153.1</ele>
        <time>2017-04-20T12:27:23Z</time>
      </trkpt>
      <trkpt lat="43.93417" lon="2.14658">
        <ele>152.2</ele>
        <time>2017-04-20T12:27:25Z</time>
      </trkpt>
      <trkpt lat="43.93426" lon="2.14655">
        <ele>152.2</ele>
        <time>2017-04-20T12:27:27Z</time>
      </trkpt>
      <trkpt lat="43.93436" lon="2.14653">
        <ele>151.5</ele>
        <time>2017-04-20T12:27:29Z</time>
      </trkpt>
      <trkpt lat="43.93444" lon="2.1465">
        <ele>152</ele>
        <time>2017-04-20T12:27:31Z</time>
      </trkpt>
      <trkpt lat="43.93454" lon="2.14647">
        <ele>153.3</ele>
        <time>2017-04-20T12:27:33Z</time>
      </trkpt>
      <trkpt lat="43.93465" lon="2.14644">
        <ele>153.3</ele>
        <time>2017-04-20T12:27:35Z</time>
      </trkpt>
      <trkpt lat="43.93475" lon="2.14642">
        <ele>153</ele>
        <time>2017-04-20T12:27:37Z</time>
      </trkpt>
      <trkpt lat="43.93487" lon="2.1464">
        <ele>152.7</ele>
        <time>2017-04-20T12:27:39Z</time>
      </trkpt>
      <trkpt lat="43.93499" lon="2.14638">
        <ele>151.9</ele>
        <time>2017-04-20T12:27:41Z</time>
      </trkpt>
      <trkpt lat="43.9351" lon="2.14635">
        <ele>152.1</ele>
        <time>2017-04-20T12:27:43Z</time>
      </trkpt>
      <trkpt lat="43.93518" lon="2.14634">
        <ele>151.7</ele>
        <time>2017-04-20T12:27:45Z</time>
      </trkpt>
      <trkpt lat="43.93527" lon="2.14634">
        <ele>149.7</ele>
        <time>2017-04-20T12:27:48Z</time>
      </trkpt>
      <trkpt lat="43.93534" lon="2.14631">
        <ele>152.4</ele>
        <time>2017-04-20T12:27:50Z</time>
      </trkpt>
      <trkpt lat="43.93543" lon="2.1463">
        <ele>154.3</ele>
        <time>2017-04-20T12:27:52Z</time>
      </trkpt>
      <trkpt lat="43.93554" lon="2.14632">
        <ele>153.7</ele>
        <time>2017-04-20T12:27:54Z</time>
      </trkpt>
      <trkpt lat="43.93565" lon="2.14637">
        <ele>153.7</ele>
        <time>2017-04-20T12:27:56Z</time>
      </trkpt>
      <trkpt lat="43.93575" lon="2.14642">
        <ele>154.5</ele>
        <time>2017-04-20T12:27:58Z</time>
      </trkpt>
      <trkpt lat="43.93586" lon="2.14649">
        <ele>154.5</ele>
        <time>2017-04-20T12:28:00Z</time>
      </trkpt>
      <trkpt lat="43.93599" lon="2.14654">
        <ele>154.5</ele>
        <time>2017-04-20T12:28:02Z</time>
      </trkpt>
      <trkpt lat="43.93612" lon="2.14661">
        <ele>154.3</ele>
        <time>2017-04-20T12:28:04Z</time>
      </trkpt>
      <trkpt lat="43.93624" lon="2.14666">
        <ele>153.8</ele>
        <time>2017-04-20T12:28:06Z</time>
      </trkpt>
      <trkpt lat="43.93637" lon="2.14672">
        <ele>154.1</ele>
        <time>2017-04-20T12:28:08Z</time>
      </trkpt>
      <trkpt lat="43.93649" lon="2.14678">
        <ele>154.3</ele>
        <time>2017-04-20T12:28:10Z</time>
      </trkpt>
      <trkpt lat="43.93661" lon="2.14684">
        <ele>154.8</ele>
        <time>2017-04-20T12:28:12Z</time>
      </trkpt>
      <trkpt lat="43.93673" lon="2.14689">
        <ele>155.6</ele>
        <time>2017-04-20T12:28:14Z</time>
      </trkpt>
      <trkpt lat="43.93684" lon="2.14696">
        <ele>155.5</ele>
        <time>2017-04-20T12:28:16Z</time>
      </trkpt>
      <trkpt lat="43.93696" lon="2.14702">
        <ele>155.3</ele>
        <time>2017-04-20T12:28:18Z</time>
      </trkpt>
      <trkpt lat="43.93708" lon="2.14709">
        <ele>155.4</ele>
        <time>2017-04-20T12:28:20Z</time>
      </trkpt>
      <trkpt lat="43.9372" lon="2.14715">
        <ele>155.1</ele>
        <time>2017-04-20T12:28:22Z</time>
      </trkpt>
      <trkpt lat="43.93732" lon="2.14719">
        <ele>154.7</ele>
        <time>2017-04-20T12:28:24Z</time>
      </trkpt>
      <trkpt lat="43.93743" lon="2.14723">
        <ele>155</ele>
        <time>2017-04-20T12:28:26Z</time>
      </trkpt>
      <trkpt lat="43.93754" lon="2.14728">
        <ele>155.3</ele>
        <time>2017-04-20T12:28:28Z</time>
      </trkpt>
      <trkpt lat="43.93765" lon="2.14733">
        <ele>155.7</ele>
        <time>2017-04-20T12:28:30Z</time>
      </trkpt>
      <trkpt lat="43.93774" lon="2.14739">
        <ele>156.3</ele>
        <time>2017-04-20T12:28:32Z</time>
      </trkpt>
      <trkpt lat="43.93784" lon="2.14744">
        <ele>156.9</ele>
        <time>2017-04-20T12:28:34Z</time>
      </trkpt>
      <trkpt lat="43.93792" lon="2.1475">
        <ele>156.8</ele>
        <time>2017-04-20T12:28:36Z</time>
      </trkpt>
      <trkpt lat="43.93801" lon="2.14755">
        <ele>157.2</ele>
        <time>2017-04-20T12:28:38Z</time>
      </trkpt>
      <trkpt lat="43.93811" lon="2.14759">
        <ele>157</ele>
        <time>2017-04-20T12:28:40Z</time>
      </trkpt>
      <trkpt lat="43.93821" lon="2.14765">
        <ele>156.6</ele>
        <time>2017-04-20T12:28:42Z</time>
      </trkpt>
      <trkpt lat="43.93831" lon="2.14769">
        <ele>156.3</ele>
        <time>2017-04-20T12:28:44Z</time>
      </trkpt>
      <trkpt lat="43.93842" lon="2.14775">
        <ele>156.4</ele>
        <time>2017-04-20T12:28:46Z</time>
      </trkpt>
      <trkpt lat="43.93852" lon="2.14781">
        <ele>156.2</ele>
        <time>2017-04-20T12:28:48Z</time>
      </trkpt>
      <trkpt lat="43.93862" lon="2.14785">
        <ele>156.1</ele>
        <time>2017-04-20T12:28:50Z</time>
      </trkpt>
      <trkpt lat="43.93873" lon="2.14791">
        <ele>156.3</ele>
        <time>2017-04-20T12:28:52Z</time>
      </trkpt>
      <trkpt lat="43.93882" lon="2.14796">
        <ele>156.3</ele>
        <time>2017-04-20T12:28:54Z</time>
      </trkpt>
      <trkpt lat="43.9389" lon="2.14802">
        <ele>155.8</ele>
        <time>2017-04-20T12:28:56Z</time>
      </trkpt>
      <trkpt lat="43.93898" lon="2.1481">
        <ele>154.3</ele>
        <time>2017-04-20T12:28:59Z</time>
      </trkpt>
      <trkpt lat="43.93907" lon="2.14814">
        <ele>153.9</ele>
        <time>2017-04-20T12:29:01Z</time>
      </trkpt>
      <trkpt lat="43.93917" lon="2.14819">
        <ele>153.1</ele>
        <time>2017-04-20T12:29:03Z</time>
      </trkpt>
      <trkpt lat="43.93926" lon="2.14822">
        <ele>152.4</ele>
        <time>2017-04-20T12:29:05Z</time>
      </trkpt>
      <trkpt lat="43.93934" lon="2.14824">
        <ele>151.3</ele>
        <time>2017-04-20T12:29:07Z</time>
      </trkpt>
      <trkpt lat="43.9394" lon="2.14815">
        <ele>149.8</ele>
        <time>2017-04-20T12:29:10Z</time>
      </trkpt>
      <trkpt lat="43.93941" lon="2.14799">
        <ele>148.3</ele>
        <time>2017-04-20T12:29:12Z</time>
      </trkpt>
      <trkpt lat="43.93944" lon="2.14781">
        <ele>148.5</ele>
        <time>2017-04-20T12:29:14Z</time>
      </trkpt>
      <trkpt lat="43.93947" lon="2.14765">
        <ele>148.3</ele>
        <time>2017-04-20T12:29:16Z</time>
      </trkpt>
      <trkpt lat="43.93948" lon="2.14746">
        <ele>150.1</ele>
        <time>2017-04-20T12:29:18Z</time>
      </trkpt>
      <trkpt lat="43.9395" lon="2.14729">
        <ele>150.5</ele>
        <time>2017-04-20T12:29:20Z</time>
      </trkpt>
      <trkpt lat="43.93951" lon="2.14712">
        <ele>150.4</ele>
        <time>2017-04-20T12:29:22Z</time>
      </trkpt>
      <trkpt lat="43.93952" lon="2.14695">
        <ele>150.5</ele>
        <time>2017-04-20T12:29:24Z</time>
      </trkpt>
      <trkpt lat="43.93952" lon="2.14677">
        <ele>150.9</ele>
        <time>2017-04-20T12:29:26Z</time>
      </trkpt>
      <trkpt lat="43.9395" lon="2.14661">
        <ele>151.1</ele>
        <time>2017-04-20T12:29:28Z</time>
      </trkpt>
      <trkpt lat="43.93949" lon="2.14643">
        <ele>151.7</ele>
        <time>2017-04-20T12:29:30Z</time>
      </trkpt>
      <trkpt lat="43.93947" lon="2.14626">
        <ele>151.7</ele>
        <time>2017-04-20T12:29:32Z</time>
      </trkpt>
      <trkpt lat="43.93945" lon="2.14609">
        <ele>152</ele>
        <time>2017-04-20T12:29:34Z</time>
      </trkpt>
      <trkpt lat="43.93944" lon="2.14592">
        <ele>151.5</ele>
        <time>2017-04-20T12:29:36Z</time>
      </trkpt>
      <trkpt lat="43.93943" lon="2.14575">
        <ele>151.6</ele>
        <time>2017-04-20T12:29:38Z</time>
      </trkpt>
      <trkpt lat="43.93943" lon="2.14557">
        <ele>151.5</ele>
        <time>2017-04-20T12:29:40Z</time>
      </trkpt>
      <trkpt lat="43.93943" lon="2.1454">
        <ele>151.7</ele>
        <time>2017-04-20T12:29:42Z</time>
      </trkpt>
      <trkpt lat="43.93943" lon="2.14522">
        <ele>151.6</ele>
        <time>2017-04-20T12:29:44Z</time>
      </trkpt>
      <trkpt lat="43.93942" lon="2.14505">
        <ele>151.5</ele>
        <time>2017-04-20T12:29:46Z</time>
      </trkpt>
      <trkpt lat="43.93942" lon="2.14487">
        <ele>151.4</ele>
        <time>2017-04-20T12:29:48Z</time>
      </trkpt>
      <trkpt lat="43.93942" lon="2.1447">
        <ele>151.5</ele>
        <time>2017-04-20T12:29:50Z</time>
      </trkpt>
      <trkpt lat="43.93941" lon="2.14452">
        <ele>151.8</ele>
        <time>2017-04-20T12:29:52Z</time>
      </trkpt>
      <trkpt lat="43.93941" lon="2.14436">
        <ele>151.7</ele>
        <time>2017-04-20T12:29:54Z</time>
      </trkpt>
      <trkpt lat="43.93941" lon="2.14419">
        <ele>151.5</ele>
        <time>2017-04-20T12:29:56Z</time>
      </trkpt>
      <trkpt lat="43.9394" lon="2.14403">
        <ele>151.4</ele>
        <time>2017-04-20T12:29:58Z</time>
      </trkpt>
      <trkpt lat="43.9394" lon="2.14387">
        <ele>151.1</ele>
        <time>2017-04-20T12:30:00Z</time>
      </trkpt>
      <trkpt lat="43.93939" lon="2.14371">
        <ele>151.2</ele>
        <time>2017-04-20T12:30:02Z</time>
      </trkpt>
      <trkpt lat="43.93939" lon="2.14356">
        <ele>150.8</ele>
        <time>2017-04-20T12:30:04Z</time>
      </trkpt>
      <trkpt lat="43.93938" lon="2.1434">
        <ele>151.2</ele>
        <time>2017-04-20T12:30:06Z</time>
      </trkpt>
      <trkpt lat="43.93937" lon="2.14325">
        <ele>151.2</ele>
        <time>2017-04-20T12:30:08Z</time>
      </trkpt>
      <trkpt lat="43.93936" lon="2.14309">
        <ele>151.6</ele>
        <time>2017-04-20T12:30:10Z</time>
      </trkpt>
      <trkpt lat="43.93935" lon="2.14296">
        <ele>151.5</ele>
        <time>2017-04-20T12:30:12Z</time>
      </trkpt>
      <trkpt lat="43.93935" lon="2.14283">
        <ele>151.2</ele>
        <time>2017-04-20T12:30:14Z</time>
      </trkpt>
      <trkpt lat="43.93933" lon="2.1427">
        <ele>151.2</ele>
        <time>2017-04-20T12:30:16Z</time>
      </trkpt>
      <trkpt lat="43.93932" lon="2.14257">
        <ele>151.4</ele>
        <time>2017-04-20T12:30:18Z</time>
      </trkpt>
      <trkpt lat="43.93931" lon="2.14246">
        <ele>151</ele>
        <time>2017-04-20T12:30:20Z</time>
      </trkpt>
      <trkpt lat="43.93929" lon="2.14234">
        <ele>151</ele>
        <time>2017-04-20T12:30:22Z</time>
      </trkpt>
      <trkpt lat="43.93929" lon="2.14222">
        <ele>150.9</ele>
        <time>2017-04-20T12:30:25Z</time>
      </trkpt>
      <trkpt lat="43.93937" lon="2.14217">
        <ele>151.7</ele>
        <time>2017-04-20T12:30:29Z</time>
      </trkpt>
      <trkpt lat="43.93946" lon="2.14216">
        <ele>152.4</ele>
        <time>2017-04-20T12:30:32Z</time>
      </trkpt>
      <trkpt lat="43.93956" lon="2.14217">
        <ele>152.3</ele>
        <time>2017-04-20T12:30:35Z</time>
      </trkpt>
      <trkpt lat="43.93964" lon="2.14216">
        <ele>151.6</ele>
        <time>2017-04-20T12:30:38Z</time>
      </trkpt>
      <trkpt lat="43.93973" lon="2.14215">
        <ele>151.2</ele>
        <time>2017-04-20T12:30:41Z</time>
      </trkpt>
      <trkpt lat="43.9398" lon="2.14216">
        <ele>149.7</ele>
        <time>2017-04-20T12:30:44Z</time>
      </trkpt>
      <trkpt lat="43.9399" lon="2.14215">
        <ele>148.8</ele>
        <time>2017-04-20T12:30:47Z</time>
      </trkpt>
      <trkpt lat="43.94001" lon="2.14215">
        <ele>148.2</ele>
        <time>2017-04-20T12:30:50Z</time>
      </trkpt>
      <trkpt lat="43.94009" lon="2.14216">
        <ele>147.4</ele>
        <time>2017-04-20T12:30:52Z</time>
      </trkpt>
      <trkpt lat="43.94018" lon="2.14215">
        <ele>147.7</ele>
        <time>2017-04-20T12:30:54Z</time>
      </trkpt>
      <trkpt lat="43.94025" lon="2.14214">
        <ele>148.4</ele>
        <time>2017-04-20T12:30:56Z</time>
      </trkpt>
      <trkpt lat="43.94034" lon="2.14212">
        <ele>149.4</ele>
        <time>2017-04-20T12:30:58Z</time>
      </trkpt>
      <trkpt lat="43.94044" lon="2.14211">
        <ele>149.3</ele>
        <time>2017-04-20T12:31:00Z</time>
      </trkpt>
      <trkpt lat="43.94054" lon="2.14211">
        <ele>149.2</ele>
        <time>2017-04-20T12:31:02Z</time>
      </trkpt>
      <trkpt lat="43.94064" lon="2.1421">
        <ele>149.2</ele>
        <time>2017-04-20T12:31:04Z</time>
      </trkpt>
      <trkpt lat="43.94073" lon="2.14209">
        <ele>150.1</ele>
        <time>2017-04-20T12:31:06Z</time>
      </trkpt>
      <trkpt lat="43.94082" lon="2.14208">
        <ele>150.9</ele>
        <time>2017-04-20T12:31:08Z</time>
      </trkpt>
      <trkpt lat="43.94093" lon="2.14207">
        <ele>152.8</ele>
        <time>2017-04-20T12:31:10Z</time>
      </trkpt>
      <trkpt lat="43.94104" lon="2.14207">
        <ele>152.1</ele>
        <time>2017-04-20T12:31:12Z</time>
      </trkpt>
      <trkpt lat="43.94114" lon="2.14206">
        <ele>151.2</ele>
        <time>2017-04-20T12:31:14Z</time>
      </trkpt>
      <trkpt lat="43.94125" lon="2.14205">
        <ele>151.1</ele>
        <time>2017-04-20T12:31:16Z</time>
      </trkpt>
      <trkpt lat="43.94136" lon="2.14204">
        <ele>150.8</ele>
        <time>2017-04-20T12:31:18Z</time>
      </trkpt>
      <trkpt lat="43.94147" lon="2.14202">
        <ele>153</ele>
        <time>2017-04-20T12:31:20Z</time>
      </trkpt>
      <trkpt lat="43.94158" lon="2.142">
        <ele>153.4</ele>
        <time>2017-04-20T12:31:22Z</time>
      </trkpt>
      <trkpt lat="43.9417" lon="2.142">
        <ele>154.6</ele>
        <time>2017-04-20T12:31:24Z</time>
      </trkpt>
      <trkpt lat="43.94181" lon="2.14199">
        <ele>154.7</ele>
        <time>2017-04-20T12:31:26Z</time>
      </trkpt>
      <trkpt lat="43.94192" lon="2.14196">
        <ele>155.1</ele>
        <time>2017-04-20T12:31:28Z</time>
      </trkpt>
      <trkpt lat="43.94203" lon="2.14194">
        <ele>156.3</ele>
        <time>2017-04-20T12:31:30Z</time>
      </trkpt>
      <trkpt lat="43.94214" lon="2.14191">
        <ele>158.3</ele>
        <time>2017-04-20T12:31:32Z</time>
      </trkpt>
      <trkpt lat="43.94225" lon="2.14189">
        <ele>159.3</ele>
        <time>2017-04-20T12:31:34Z</time>
      </trkpt>
      <trkpt lat="43.94236" lon="2.14186">
        <ele>159.4</ele>
        <time>2017-04-20T12:31:36Z</time>
      </trkpt>
      <trkpt lat="43.94247" lon="2.14183">
        <ele>160.6</ele>
        <time>2017-04-20T12:31:38Z</time>
      </trkpt>
      <trkpt lat="43.94259" lon="2.14182">
        <ele>161.3</ele>
        <time>2017-04-20T12:31:40Z</time>
      </trkpt>
      <trkpt lat="43.9427" lon="2.14179">
        <ele>161.6</ele>
        <time>2017-04-20T12:31:42Z</time>
      </trkpt>
      <trkpt lat="43.94282" lon="2.14176">
        <ele>162.1</ele>
        <time>2017-04-20T12:31:44Z</time>
      </trkpt>
      <trkpt lat="43.94293" lon="2.14173">
        <ele>162.8</ele>
        <time>2017-04-20T12:31:46Z</time>
      </trkpt>
      <trkpt lat="43.94305" lon="2.14168">
        <ele>162.8</ele>
        <time>2017-04-20T12:31:48Z</time>
      </trkpt>
      <trkpt lat="43.94316" lon="2.14165">
        <ele>161.9</ele>
        <time>2017-04-20T12:31:50Z</time>
      </trkpt>
      <trkpt lat="43.94328" lon="2.14165">
        <ele>160.8</ele>
        <time>2017-04-20T12:31:52Z</time>
      </trkpt>
      <trkpt lat="43.94339" lon="2.14162">
        <ele>160.7</ele>
        <time>2017-04-20T12:31:54Z</time>
      </trkpt>
      <trkpt lat="43.94351" lon="2.1416">
        <ele>160.8</ele>
        <time>2017-04-20T12:31:56Z</time>
      </trkpt>
      <trkpt lat="43.9436" lon="2.14158">
        <ele>160.4</ele>
        <time>2017-04-20T12:31:58Z</time>
      </trkpt>
      <trkpt lat="43.94371" lon="2.14156">
        <ele>160</ele>
        <time>2017-04-20T12:32:00Z</time>
      </trkpt>
      <trkpt lat="43.9438" lon="2.14154">
        <ele>159.2</ele>
        <time>2017-04-20T12:32:02Z</time>
      </trkpt>
      <trkpt lat="43.9439" lon="2.14152">
        <ele>158.3</ele>
        <time>2017-04-20T12:32:04Z</time>
      </trkpt>
      <trkpt lat="43.94401" lon="2.14148">
        <ele>157.5</ele>
        <time>2017-04-20T12:32:06Z</time>
      </trkpt>
      <trkpt lat="43.94413" lon="2.14144">
        <ele>157</ele>
        <time>2017-04-20T12:32:08Z</time>
      </trkpt>
      <trkpt lat="43.94425" lon="2.14139">
        <ele>155.9</ele>
        <time>2017-04-20T12:32:10Z</time>
      </trkpt>
      <trkpt lat="43.94439" lon="2.14135">
        <ele>155.4</ele>
        <time>2017-04-20T12:32:12Z</time>
      </trkpt>
      <trkpt lat="43.94452" lon="2.1413">
        <ele>155</ele>
        <time>2017-04-20T12:32:14Z</time>
      </trkpt>
      <trkpt lat="43.94465" lon="2.14125">
        <ele>154.9</ele>
        <time>2017-04-20T12:32:16Z</time>
      </trkpt>
      <trkpt lat="43.94478" lon="2.14121">
        <ele>154.9</ele>
        <time>2017-04-20T12:32:18Z</time>
      </trkpt>
      <trkpt lat="43.94491" lon="2.14116">
        <ele>154.7</ele>
        <time>2017-04-20T12:32:20Z</time>
      </trkpt>
      <trkpt lat="43.94502" lon="2.1411">
        <ele>155</ele>
        <time>2017-04-20T12:32:22Z</time>
      </trkpt>
      <trkpt lat="43.94514" lon="2.14104">
        <ele>155.1</ele>
        <time>2017-04-20T12:32:24Z</time>
      </trkpt>
      <trkpt lat="43.94525" lon="2.14098">
        <ele>155.2</ele>
        <time>2017-04-20T12:32:26Z</time>
      </trkpt>
      <trkpt lat="43.94536" lon="2.14093">
        <ele>155</ele>
        <time>2017-04-20T12:32:28Z</time>
      </trkpt>
      <trkpt lat="43.94546" lon="2.14087">
        <ele>154.4</ele>
        <time>2017-04-20T12:32:30Z</time>
      </trkpt>
      <trkpt lat="43.94557" lon="2.14081">
        <ele>154.2</ele>
        <time>2017-04-20T12:32:32Z</time>
      </trkpt>
      <trkpt lat="43.94568" lon="2.14076">
        <ele>154</ele>
        <time>2017-04-20T12:32:34Z</time>
      </trkpt>
      <trkpt lat="43.94578" lon="2.1407">
        <ele>153.9</ele>
        <time>2017-04-20T12:32:36Z</time>
      </trkpt>
      <trkpt lat="43.94588" lon="2.14064">
        <ele>153.8</ele>
        <time>2017-04-20T12:32:38Z</time>
      </trkpt>
      <trkpt lat="43.94599" lon="2.14058">
        <ele>153.8</ele>
        <time>2017-04-20T12:32:40Z</time>
      </trkpt>
      <trkpt lat="43.94609" lon="2.14051">
        <ele>153.6</ele>
        <time>2017-04-20T12:32:42Z</time>
      </trkpt>
      <trkpt lat="43.94619" lon="2.14045">
        <ele>153.3</ele>
        <time>2017-04-20T12:32:44Z</time>
      </trkpt>
      <trkpt lat="43.94629" lon="2.14039">
        <ele>153.3</ele>
        <time>2017-04-20T12:32:46Z</time>
      </trkpt>
      <trkpt lat="43.94639" lon="2.14032">
        <ele>153.3</ele>
        <time>2017-04-20T12:32:48Z</time>
      </trkpt>
      <trkpt lat="43.9465" lon="2.14025">
        <ele>154</ele>
        <time>2017-04-20T12:32:50Z</time>
      </trkpt>
      <trkpt lat="43.94661" lon="2.14022">
        <ele>154.1</ele>
        <time>2017-04-20T12:32:52Z</time>
      </trkpt>
      <trkpt lat="43.94671" lon="2.14019">
        <ele>154.3</ele>
        <time>2017-04-20T12:32:54Z</time>
      </trkpt>
      <trkpt lat="43.94683" lon="2.14014">
        <ele>154.3</ele>
        <time>2017-04-20T12:32:56Z</time>
      </trkpt>
      <trkpt lat="43.94693" lon="2.14009">
        <ele>154.6</ele>
        <time>2017-04-20T12:32:58Z</time>
      </trkpt>
      <trkpt lat="43.94703" lon="2.14003">
        <ele>154.9</ele>
        <time>2017-04-20T12:33:00Z</time>
      </trkpt>
      <trkpt lat="43.94713" lon="2.13997">
        <ele>155</ele>
        <time>2017-04-20T12:33:02Z</time>
      </trkpt>
      <trkpt lat="43.94724" lon="2.1399">
        <ele>154.9</ele>
        <time>2017-04-20T12:33:04Z</time>
      </trkpt>
      <trkpt lat="43.94735" lon="2.13986">
        <ele>154.6</ele>
        <time>2017-04-20T12:33:06Z</time>
      </trkpt>
      <trkpt lat="43.94745" lon="2.1398">
        <ele>154.6</ele>
        <time>2017-04-20T12:33:08Z</time>
      </trkpt>
      <trkpt lat="43.94755" lon="2.13975">
        <ele>155</ele>
        <time>2017-04-20T12:33:10Z</time>
      </trkpt>
      <trkpt lat="43.94766" lon="2.13969">
        <ele>154.9</ele>
        <time>2017-04-20T12:33:12Z</time>
      </trkpt>
      <trkpt lat="43.94777" lon="2.13964">
        <ele>154.8</ele>
        <time>2017-04-20T12:33:14Z</time>
      </trkpt>
      <trkpt lat="43.94788" lon="2.13959">
        <ele>154.6</ele>
        <time>2017-04-20T12:33:16Z</time>
      </trkpt>
      <trkpt lat="43.94798" lon="2.13954">
        <ele>154.7</ele>
        <time>2017-04-20T12:33:18Z</time>
      </trkpt>
      <trkpt lat="43.94809" lon="2.13949">
        <ele>154.9</ele>
        <time>2017-04-20T12:33:20Z</time>
      </trkpt>
      <trkpt lat="43.94821" lon="2.13944">
        <ele>154.3</ele>
        <time>2017-04-20T12:33:22Z</time>
      </trkpt>
      <trkpt lat="43.94832" lon="2.13939">
        <ele>154.9</ele>
        <time>2017-04-20T12:33:24Z</time>
      </trkpt>
      <trkpt lat="43.94844" lon="2.13935">
        <ele>154.5</ele>
        <time>2017-04-20T12:33:26Z</time>
      </trkpt>
      <trkpt lat="43.94856" lon="2.13935">
        <ele>154.6</ele>
        <time>2017-04-20T12:33:28Z</time>
      </trkpt>
      <trkpt lat="43.94868" lon="2.13936">
        <ele>155.3</ele>
        <time>2017-04-20T12:33:30Z</time>
      </trkpt>
      <trkpt lat="43.9488" lon="2.13936">
        <ele>154.9</ele>
        <time>2017-04-20T12:33:32Z</time>
      </trkpt>
      <trkpt lat="43.94892" lon="2.13938">
        <ele>155.3</ele>
        <time>2017-04-20T12:33:34Z</time>
      </trkpt>
      <trkpt lat="43.94904" lon="2.13939">
        <ele>154.9</ele>
        <time>2017-04-20T12:33:36Z</time>
      </trkpt>
      <trkpt lat="43.94916" lon="2.13939">
        <ele>155.5</ele>
        <time>2017-04-20T12:33:38Z</time>
      </trkpt>
      <trkpt lat="43.94927" lon="2.13939">
        <ele>156</ele>
        <time>2017-04-20T12:33:40Z</time>
      </trkpt>
      <trkpt lat="43.94939" lon="2.1394">
        <ele>155.7</ele>
        <time>2017-04-20T12:33:42Z</time>
      </trkpt>
      <trkpt lat="43.94949" lon="2.13944">
        <ele>155.4</ele>
        <time>2017-04-20T12:33:44Z</time>
      </trkpt>
      <trkpt lat="43.9496" lon="2.13948">
        <ele>155.6</ele>
        <time>2017-04-20T12:33:46Z</time>
      </trkpt>
      <trkpt lat="43.9497" lon="2.13952">
        <ele>155.5</ele>
        <time>2017-04-20T12:33:48Z</time>
      </trkpt>
      <trkpt lat="43.94979" lon="2.13955">
        <ele>155.5</ele>
        <time>2017-04-20T12:33:50Z</time>
      </trkpt>
      <trkpt lat="43.94988" lon="2.13958">
        <ele>155.2</ele>
        <time>2017-04-20T12:33:52Z</time>
      </trkpt>
      <trkpt lat="43.94998" lon="2.13959">
        <ele>155.4</ele>
        <time>2017-04-20T12:33:54Z</time>
      </trkpt>
      <trkpt lat="43.95007" lon="2.13958">
        <ele>156.7</ele>
        <time>2017-04-20T12:33:56Z</time>
      </trkpt>
      <trkpt lat="43.95017" lon="2.13958">
        <ele>157.1</ele>
        <time>2017-04-20T12:33:58Z</time>
      </trkpt>
      <trkpt lat="43.95027" lon="2.13956">
        <ele>157.4</ele>
        <time>2017-04-20T12:34:00Z</time>
      </trkpt>
      <trkpt lat="43.95039" lon="2.13956">
        <ele>158.1</ele>
        <time>2017-04-20T12:34:02Z</time>
      </trkpt>
      <trkpt lat="43.95049" lon="2.13956">
        <ele>157.2</ele>
        <time>2017-04-20T12:34:04Z</time>
      </trkpt>
      <trkpt lat="43.9506" lon="2.13952">
        <ele>157.6</ele>
        <time>2017-04-20T12:34:06Z</time>
      </trkpt>
      <trkpt lat="43.95071" lon="2.13946">
        <ele>157.1</ele>
        <time>2017-04-20T12:34:08Z</time>
      </trkpt>
      <trkpt lat="43.95082" lon="2.13943">
        <ele>156.9</ele>
        <time>2017-04-20T12:34:10Z</time>
      </trkpt>
      <trkpt lat="43.95092" lon="2.13941">
        <ele>156.9</ele>
        <time>2017-04-20T12:34:12Z</time>
      </trkpt>
      <trkpt lat="43.95102" lon="2.13941">
        <ele>156.9</ele>
        <time>2017-04-20T12:34:14Z</time>
      </trkpt>
      <trkpt lat="43.95113" lon="2.13939">
        <ele>156.8</ele>
        <time>2017-04-20T12:34:16Z</time>
      </trkpt>
      <trkpt lat="43.95124" lon="2.13937">
        <ele>156.6</ele>
        <time>2017-04-20T12:34:18Z</time>
      </trkpt>
      <trkpt lat="43.95136" lon="2.13935">
        <ele>156.7</ele>
        <time>2017-04-20T12:34:20Z</time>
      </trkpt>
      <trkpt lat="43.95147" lon="2.13932">
        <ele>156.2</ele>
        <time>2017-04-20T12:34:22Z</time>
      </trkpt>
      <trkpt lat="43.95158" lon="2.13931">
        <ele>156.3</ele>
        <time>2017-04-20T12:34:24Z</time>
      </trkpt>
      <trkpt lat="43.9517" lon="2.13929">
        <ele>156.2</ele>
        <time>2017-04-20T12:34:26Z</time>
      </trkpt>
      <trkpt lat="43.95181" lon="2.13928">
        <ele>156</ele>
        <time>2017-04-20T12:34:28Z</time>
      </trkpt>
      <trkpt lat="43.95192" lon="2.13925">
        <ele>156.5</ele>
        <time>2017-04-20T12:34:30Z</time>
      </trkpt>
      <trkpt lat="43.95203" lon="2.13923">
        <ele>157.2</ele>
        <time>2017-04-20T12:34:32Z</time>
      </trkpt>
      <trkpt lat="43.95214" lon="2.13921">
        <ele>157.3</ele>
        <time>2017-04-20T12:34:34Z</time>
      </trkpt>
      <trkpt lat="43.95224" lon="2.13916">
        <ele>156.4</ele>
        <time>2017-04-20T12:34:36Z</time>
      </trkpt>
      <trkpt lat="43.95234" lon="2.1391">
        <ele>157.2</ele>
        <time>2017-04-20T12:34:38Z</time>
      </trkpt>
      <trkpt lat="43.95244" lon="2.13904">
        <ele>158</ele>
        <time>2017-04-20T12:34:40Z</time>
      </trkpt>
      <trkpt lat="43.95253" lon="2.13897">
        <ele>159.1</ele>
        <time>2017-04-20T12:34:42Z</time>
      </trkpt>
      <trkpt lat="43.95262" lon="2.13892">
        <ele>159</ele>
        <time>2017-04-20T12:34:44Z</time>
      </trkpt>
      <trkpt lat="43.95272" lon="2.13887">
        <ele>158.8</ele>
        <time>2017-04-20T12:34:46Z</time>
      </trkpt>
      <trkpt lat="43.95283" lon="2.13885">
        <ele>158.3</ele>
        <time>2017-04-20T12:34:48Z</time>
      </trkpt>
      <trkpt lat="43.95293" lon="2.13885">
        <ele>158.2</ele>
        <time>2017-04-20T12:34:50Z</time>
      </trkpt>
      <trkpt lat="43.95304" lon="2.13886">
        <ele>157.9</ele>
        <time>2017-04-20T12:34:52Z</time>
      </trkpt>
      <trkpt lat="43.95314" lon="2.13887">
        <ele>157.1</ele>
        <time>2017-04-20T12:34:54Z</time>
      </trkpt>
      <trkpt lat="43.95325" lon="2.13888">
        <ele>156.8</ele>
        <time>2017-04-20T12:34:56Z</time>
      </trkpt>
      <trkpt lat="43.95335" lon="2.1389">
        <ele>156.2</ele>
        <time>2017-04-20T12:34:58Z</time>
      </trkpt>
      <trkpt lat="43.95345" lon="2.1389">
        <ele>156.2</ele>
        <time>2017-04-20T12:35:00Z</time>
      </trkpt>
      <trkpt lat="43.95355" lon="2.13892">
        <ele>155.6</ele>
        <time>2017-04-20T12:35:02Z</time>
      </trkpt>
      <trkpt lat="43.95365" lon="2.13893">
        <ele>155.8</ele>
        <time>2017-04-20T12:35:04Z</time>
      </trkpt>
      <trkpt lat="43.95376" lon="2.13895">
        <ele>155.3</ele>
        <time>2017-04-20T12:35:06Z</time>
      </trkpt>
      <trkpt lat="43.95387" lon="2.13894">
        <ele>155.4</ele>
        <time>2017-04-20T12:35:08Z</time>
      </trkpt>
      <trkpt lat="43.95398" lon="2.13893">
        <ele>155.3</ele>
        <time>2017-04-20T12:35:10Z</time>
      </trkpt>
      <trkpt lat="43.95408" lon="2.13892">
        <ele>155.7</ele>
        <time>2017-04-20T12:35:12Z</time>
      </trkpt>
      <trkpt lat="43.95418" lon="2.1389">
        <ele>156.1</ele>
        <time>2017-04-20T12:35:14Z</time>
      </trkpt>
      <trkpt lat="43.95428" lon="2.13888">
        <ele>156.3</ele>
        <time>2017-04-20T12:35:16Z</time>
      </trkpt>
      <trkpt lat="43.95438" lon="2.13887">
        <ele>156.5</ele>
        <time>2017-04-20T12:35:18Z</time>
      </trkpt>
      <trkpt lat="43.95448" lon="2.13885">
        <ele>157</ele>
        <time>2017-04-20T12:35:20Z</time>
      </trkpt>
      <trkpt lat="43.95457" lon="2.13883">
        <ele>157.5</ele>
        <time>2017-04-20T12:35:22Z</time>
      </trkpt>
      <trkpt lat="43.95466" lon="2.13881">
        <ele>158</ele>
        <time>2017-04-20T12:35:24Z</time>
      </trkpt>
      <trkpt lat="43.95476" lon="2.13879">
        <ele>158.5</ele>
        <time>2017-04-20T12:35:26Z</time>
      </trkpt>
      <trkpt lat="43.95485" lon="2.13878">
        <ele>158</ele>
        <time>2017-04-20T12:35:28Z</time>
      </trkpt>
      <trkpt lat="43.95495" lon="2.13877">
        <ele>158.5</ele>
        <time>2017-04-20T12:35:30Z</time>
      </trkpt>
      <trkpt lat="43.95504" lon="2.13875">
        <ele>158.7</ele>
        <time>2017-04-20T12:35:32Z</time>
      </trkpt>
      <trkpt lat="43.95514" lon="2.13873">
        <ele>158.7</ele>
        <time>2017-04-20T12:35:34Z</time>
      </trkpt>
      <trkpt lat="43.95524" lon="2.13871">
        <ele>158.8</ele>
        <time>2017-04-20T12:35:36Z</time>
      </trkpt>
      <trkpt lat="43.95532" lon="2.13869">
        <ele>159.6</ele>
        <time>2017-04-20T12:35:38Z</time>
      </trkpt>
      <trkpt lat="43.95542" lon="2.13868">
        <ele>160.1</ele>
        <time>2017-04-20T12:35:40Z</time>
      </trkpt>
      <trkpt lat="43.95552" lon="2.13865">
        <ele>164.4</ele>
        <time>2017-04-20T12:35:43Z</time>
      </trkpt>
      <trkpt lat="43.95559" lon="2.13866">
        <ele>164.5</ele>
        <time>2017-04-20T12:35:46Z</time>
      </trkpt>
      <trkpt lat="43.95566" lon="2.13863">
        <ele>164.5</ele>
        <time>2017-04-20T12:35:50Z</time>
      </trkpt>
      <trkpt lat="43.95571" lon="2.13854">
        <ele>164.2</ele>
        <time>2017-04-20T12:35:54Z</time>
      </trkpt>
      <trkpt lat="43.95574" lon="2.13844">
        <ele>164</ele>
        <time>2017-04-20T12:35:57Z</time>
      </trkpt>
      <trkpt lat="43.95577" lon="2.13832">
        <ele>164.3</ele>
        <time>2017-04-20T12:36:00Z</time>
      </trkpt>
      <trkpt lat="43.95579" lon="2.13821">
        <ele>164.5</ele>
        <time>2017-04-20T12:36:02Z</time>
      </trkpt>
      <trkpt lat="43.9558" lon="2.1381">
        <ele>164.4</ele>
        <time>2017-04-20T12:36:04Z</time>
      </trkpt>
      <trkpt lat="43.9558" lon="2.13799">
        <ele>164.5</ele>
        <time>2017-04-20T12:36:06Z</time>
      </trkpt>
      <trkpt lat="43.9558" lon="2.13788">
        <ele>164.1</ele>
        <time>2017-04-20T12:36:08Z</time>
      </trkpt>
      <trkpt lat="43.9558" lon="2.13777">
        <ele>163.7</ele>
        <time>2017-04-20T12:36:10Z</time>
      </trkpt>
      <trkpt lat="43.9558" lon="2.13765">
        <ele>163.7</ele>
        <time>2017-04-20T12:36:12Z</time>
      </trkpt>
      <trkpt lat="43.95578" lon="2.13752">
        <ele>163.7</ele>
        <time>2017-04-20T12:36:14Z</time>
      </trkpt>
      <trkpt lat="43.95576" lon="2.13742">
        <ele>163.2</ele>
        <time>2017-04-20T12:36:16Z</time>
      </trkpt>
      <trkpt lat="43.95573" lon="2.1373">
        <ele>162.6</ele>
        <time>2017-04-20T12:36:18Z</time>
      </trkpt>
      <trkpt lat="43.95571" lon="2.13719">
        <ele>162.8</ele>
        <time>2017-04-20T12:36:20Z</time>
      </trkpt>
      <trkpt lat="43.95571" lon="2.13707">
        <ele>162.1</ele>
        <time>2017-04-20T12:36:22Z</time>
      </trkpt>
      <trkpt lat="43.9557" lon="2.13693">
        <ele>161.8</ele>
        <time>2017-04-20T12:36:24Z</time>
      </trkpt>
      <trkpt lat="43.95569" lon="2.1368">
        <ele>162.2</ele>
        <time>2017-04-20T12:36:26Z</time>
      </trkpt>
      <trkpt lat="43.95569" lon="2.13666">
        <ele>163</ele>
        <time>2017-04-20T12:36:28Z</time>
      </trkpt>
      <trkpt lat="43.95571" lon="2.13653">
        <ele>163.2</ele>
        <time>2017-04-20T12:36:30Z</time>
      </trkpt>
      <trkpt lat="43.95574" lon="2.13639">
        <ele>163.4</ele>
        <time>2017-04-20T12:36:32Z</time>
      </trkpt>
      <trkpt lat="43.95577" lon="2.13627">
        <ele>163.6</ele>
        <time>2017-04-20T12:36:34Z</time>
      </trkpt>
      <trkpt lat="43.95582" lon="2.13615">
        <ele>163.7</ele>
        <time>2017-04-20T12:36:36Z</time>
      </trkpt>
      <trkpt lat="43.95586" lon="2.13603">
        <ele>164.2</ele>
        <time>2017-04-20T12:36:38Z</time>
      </trkpt>
      <trkpt lat="43.95591" lon="2.13592">
        <ele>165.5</ele>
        <time>2017-04-20T12:36:40Z</time>
      </trkpt>
      <trkpt lat="43.95597" lon="2.13581">
        <ele>166</ele>
        <time>2017-04-20T12:36:42Z</time>
      </trkpt>
      <trkpt lat="43.95602" lon="2.13569">
        <ele>165.7</ele>
        <time>2017-04-20T12:36:44Z</time>
      </trkpt>
      <trkpt lat="43.95607" lon="2.13557">
        <ele>164.8</ele>
        <time>2017-04-20T12:36:46Z</time>
      </trkpt>
      <trkpt lat="43.95611" lon="2.13545">
        <ele>164.8</ele>
        <time>2017-04-20T12:36:48Z</time>
      </trkpt>
      <trkpt lat="43.95616" lon="2.13531">
        <ele>164.3</ele>
        <time>2017-04-20T12:36:50Z</time>
      </trkpt>
      <trkpt lat="43.95619" lon="2.13516">
        <ele>164.7</ele>
        <time>2017-04-20T12:36:52Z</time>
      </trkpt>
      <trkpt lat="43.95621" lon="2.13502">
        <ele>164.4</ele>
        <time>2017-04-20T12:36:54Z</time>
      </trkpt>
      <trkpt lat="43.95623" lon="2.13487">
        <ele>164.3</ele>
        <time>2017-04-20T12:36:56Z</time>
      </trkpt>
      <trkpt lat="43.95625" lon="2.13471">
        <ele>164.2</ele>
        <time>2017-04-20T12:36:58Z</time>
      </trkpt>
      <trkpt lat="43.95626" lon="2.13456">
        <ele>163.9</ele>
        <time>2017-04-20T12:37:00Z</time>
      </trkpt>
      <trkpt lat="43.95628" lon="2.13442">
        <ele>162.7</ele>
        <time>2017-04-20T12:37:02Z</time>
      </trkpt>
      <trkpt lat="43.9563" lon="2.13427">
        <ele>162.3</ele>
        <time>2017-04-20T12:37:04Z</time>
      </trkpt>
      <trkpt lat="43.95631" lon="2.13412">
        <ele>162</ele>
        <time>2017-04-20T12:37:06Z</time>
      </trkpt>
      <trkpt lat="43.95633" lon="2.13397">
        <ele>161.7</ele>
        <time>2017-04-20T12:37:08Z</time>
      </trkpt>
      <trkpt lat="43.95634" lon="2.13382">
        <ele>161.5</ele>
        <time>2017-04-20T12:37:10Z</time>
      </trkpt>
      <trkpt lat="43.95635" lon="2.13367">
        <ele>161.6</ele>
        <time>2017-04-20T12:37:12Z</time>
      </trkpt>
      <trkpt lat="43.95636" lon="2.13352">
        <ele>162.2</ele>
        <time>2017-04-20T12:37:14Z</time>
      </trkpt>
      <trkpt lat="43.95637" lon="2.13337">
        <ele>162.3</ele>
        <time>2017-04-20T12:37:16Z</time>
      </trkpt>
      <trkpt lat="43.95638" lon="2.13323">
        <ele>162.4</ele>
        <time>2017-04-20T12:37:18Z</time>
      </trkpt>
      <trkpt lat="43.9564" lon="2.13309">
        <ele>162.1</ele>
        <time>2017-04-20T12:37:20Z</time>
      </trkpt>
      <trkpt lat="43.95639" lon="2.13293">
        <ele>163.6</ele>
        <time>2017-04-20T12:37:22Z</time>
      </trkpt>
      <trkpt lat="43.95638" lon="2.13277">
        <ele>164.2</ele>
        <time>2017-04-20T12:37:24Z</time>
      </trkpt>
      <trkpt lat="43.95637" lon="2.1326">
        <ele>164.6</ele>
        <time>2017-04-20T12:37:26Z</time>
      </trkpt>
      <trkpt lat="43.95636" lon="2.13244">
        <ele>164.9</ele>
        <time>2017-04-20T12:37:28Z</time>
      </trkpt>
      <trkpt lat="43.95635" lon="2.1323">
        <ele>165.4</ele>
        <time>2017-04-20T12:37:30Z</time>
      </trkpt>
      <trkpt lat="43.95634" lon="2.13215">
        <ele>165.8</ele>
        <time>2017-04-20T12:37:32Z</time>
      </trkpt>
      <trkpt lat="43.95633" lon="2.132">
        <ele>165.3</ele>
        <time>2017-04-20T12:37:34Z</time>
      </trkpt>
      <trkpt lat="43.95633" lon="2.13186">
        <ele>165</ele>
        <time>2017-04-20T12:37:36Z</time>
      </trkpt>
      <trkpt lat="43.95633" lon="2.1317">
        <ele>165.6</ele>
        <time>2017-04-20T12:37:38Z</time>
      </trkpt>
      <trkpt lat="43.95634" lon="2.13155">
        <ele>166.1</ele>
        <time>2017-04-20T12:37:40Z</time>
      </trkpt>
      <trkpt lat="43.95637" lon="2.1314">
        <ele>165.6</ele>
        <time>2017-04-20T12:37:42Z</time>
      </trkpt>
      <trkpt lat="43.95642" lon="2.13125">
        <ele>165.7</ele>
        <time>2017-04-20T12:37:44Z</time>
      </trkpt>
      <trkpt lat="43.95648" lon="2.13112">
        <ele>165.9</ele>
        <time>2017-04-20T12:37:46Z</time>
      </trkpt>
      <trkpt lat="43.95655" lon="2.13101">
        <ele>165.1</ele>
        <time>2017-04-20T12:37:48Z</time>
      </trkpt>
      <trkpt lat="43.95665" lon="2.13091">
        <ele>164.8</ele>
        <time>2017-04-20T12:37:50Z</time>
      </trkpt>
      <trkpt lat="43.95676" lon="2.13084">
        <ele>163.9</ele>
        <time>2017-04-20T12:37:52Z</time>
      </trkpt>
      <trkpt lat="43.95686" lon="2.13078">
        <ele>163</ele>
        <time>2017-04-20T12:37:54Z</time>
      </trkpt>
      <trkpt lat="43.95698" lon="2.13072">
        <ele>162.4</ele>
        <time>2017-04-20T12:37:56Z</time>
      </trkpt>
      <trkpt lat="43.95709" lon="2.13068">
        <ele>163.2</ele>
        <time>2017-04-20T12:37:58Z</time>
      </trkpt>
      <trkpt lat="43.9572" lon="2.13065">
        <ele>163</ele>
        <time>2017-04-20T12:38:00Z</time>
      </trkpt>
      <trkpt lat="43.95729" lon="2.1306">
        <ele>163.1</ele>
        <time>2017-04-20T12:38:02Z</time>
      </trkpt>
      <trkpt lat="43.95739" lon="2.13055">
        <ele>163.2</ele>
        <time>2017-04-20T12:38:04Z</time>
      </trkpt>
      <trkpt lat="43.95747" lon="2.13053">
        <ele>163.8</ele>
        <time>2017-04-20T12:38:06Z</time>
      </trkpt>
      <trkpt lat="43.95759" lon="2.1305">
        <ele>164.7</ele>
        <time>2017-04-20T12:38:08Z</time>
      </trkpt>
      <trkpt lat="43.95769" lon="2.13047">
        <ele>164.5</ele>
        <time>2017-04-20T12:38:10Z</time>
      </trkpt>
      <trkpt lat="43.9578" lon="2.13045">
        <ele>164.3</ele>
        <time>2017-04-20T12:38:12Z</time>
      </trkpt>
      <trkpt lat="43.95792" lon="2.13044">
        <ele>163.7</ele>
        <time>2017-04-20T12:38:14Z</time>
      </trkpt>
      <trkpt lat="43.95804" lon="2.13041">
        <ele>163.1</ele>
        <time>2017-04-20T12:38:16Z</time>
      </trkpt>
      <trkpt lat="43.95815" lon="2.13039">
        <ele>163.3</ele>
        <time>2017-04-20T12:38:18Z</time>
      </trkpt>
      <trkpt lat="43.95827" lon="2.13035">
        <ele>163.5</ele>
        <time>2017-04-20T12:38:20Z</time>
      </trkpt>
      <trkpt lat="43.95839" lon="2.13032">
        <ele>163.9</ele>
        <time>2017-04-20T12:38:22Z</time>
      </trkpt>
      <trkpt lat="43.95851" lon="2.13029">
        <ele>163.6</ele>
        <time>2017-04-20T12:38:24Z</time>
      </trkpt>
      <trkpt lat="43.95863" lon="2.13026">
        <ele>163.5</ele>
        <time>2017-04-20T12:38:26Z</time>
      </trkpt>
      <trkpt lat="43.95874" lon="2.13024">
        <ele>163.6</ele>
        <time>2017-04-20T12:38:28Z</time>
      </trkpt>
      <trkpt lat="43.95885" lon="2.13021">
        <ele>163.8</ele>
        <time>2017-04-20T12:38:30Z</time>
      </trkpt>
      <trkpt lat="43.95897" lon="2.13022">
        <ele>164</ele>
        <time>2017-04-20T12:38:32Z</time>
      </trkpt>
      <trkpt lat="43.95908" lon="2.13024">
        <ele>163.5</ele>
        <time>2017-04-20T12:38:34Z</time>
      </trkpt>
      <trkpt lat="43.95918" lon="2.13026">
        <ele>163.9</ele>
        <time>2017-04-20T12:38:36Z</time>
      </trkpt>
      <trkpt lat="43.95927" lon="2.1303">
        <ele>163.8</ele>
        <time>2017-04-20T12:38:38Z</time>
      </trkpt>
      <trkpt lat="43.95936" lon="2.13034">
        <ele>164.2</ele>
        <time>2017-04-20T12:38:40Z</time>
      </trkpt>
      <trkpt lat="43.95946" lon="2.1304">
        <ele>165</ele>
        <time>2017-04-20T12:38:42Z</time>
      </trkpt>
      <trkpt lat="43.95956" lon="2.13047">
        <ele>164.5</ele>
        <time>2017-04-20T12:38:44Z</time>
      </trkpt>
      <trkpt lat="43.95965" lon="2.13056">
        <ele>162.9</ele>
        <time>2017-04-20T12:38:46Z</time>
      </trkpt>
      <trkpt lat="43.95974" lon="2.13064">
        <ele>161.8</ele>
        <time>2017-04-20T12:38:48Z</time>
      </trkpt>
      <trkpt lat="43.95982" lon="2.13075">
        <ele>160.4</ele>
        <time>2017-04-20T12:38:50Z</time>
      </trkpt>
      <trkpt lat="43.95991" lon="2.13087">
        <ele>159.7</ele>
        <time>2017-04-20T12:38:52Z</time>
      </trkpt>
      <trkpt lat="43.96" lon="2.13097">
        <ele>158.9</ele>
        <time>2017-04-20T12:38:54Z</time>
      </trkpt>
      <trkpt lat="43.96009" lon="2.13106">
        <ele>158.5</ele>
        <time>2017-04-20T12:38:56Z</time>
      </trkpt>
      <trkpt lat="43.96017" lon="2.13114">
        <ele>157.9</ele>
        <time>2017-04-20T12:38:58Z</time>
      </trkpt>
      <trkpt lat="43.96026" lon="2.13123">
        <ele>157.4</ele>
        <time>2017-04-20T12:39:00Z</time>
      </trkpt>
      <trkpt lat="43.96036" lon="2.13131">
        <ele>157.8</ele>
        <time>2017-04-20T12:39:02Z</time>
      </trkpt>
      <trkpt lat="43.96044" lon="2.13139">
        <ele>157.9</ele>
        <time>2017-04-20T12:39:04Z</time>
      </trkpt>
      <trkpt lat="43.96053" lon="2.13147">
        <ele>158</ele>
        <time>2017-04-20T12:39:06Z</time>
      </trkpt>
      <trkpt lat="43.96064" lon="2.13155">
        <ele>159</ele>
        <time>2017-04-20T12:39:08Z</time>
      </trkpt>
      <trkpt lat="43.96073" lon="2.13163">
        <ele>160.1</ele>
        <time>2017-04-20T12:39:10Z</time>
      </trkpt>
      <trkpt lat="43.96083" lon="2.13171">
        <ele>160.9</ele>
        <time>2017-04-20T12:39:12Z</time>
      </trkpt>
      <trkpt lat="43.96093" lon="2.13179">
        <ele>161.5</ele>
        <time>2017-04-20T12:39:14Z</time>
      </trkpt>
      <trkpt lat="43.96103" lon="2.13188">
        <ele>161.8</ele>
        <time>2017-04-20T12:39:16Z</time>
      </trkpt>
      <trkpt lat="43.96112" lon="2.13196">
        <ele>162</ele>
        <time>2017-04-20T12:39:18Z</time>
      </trkpt>
      <trkpt lat="43.96122" lon="2.13204">
        <ele>162.3</ele>
        <time>2017-04-20T12:39:20Z</time>
      </trkpt>
      <trkpt lat="43.96132" lon="2.13212">
        <ele>163.3</ele>
        <time>2017-04-20T12:39:22Z</time>
      </trkpt>
      <trkpt lat="43.96142" lon="2.13221">
        <ele>164</ele>
        <time>2017-04-20T12:39:24Z</time>
      </trkpt>
      <trkpt lat="43.96153" lon="2.1323">
        <ele>164.1</ele>
        <time>2017-04-20T12:39:26Z</time>
      </trkpt>
      <trkpt lat="43.96163" lon="2.13239">
        <ele>164.7</ele>
        <time>2017-04-20T12:39:28Z</time>
      </trkpt>
      <trkpt lat="43.96173" lon="2.13249">
        <ele>165</ele>
        <time>2017-04-20T12:39:30Z</time>
      </trkpt>
      <trkpt lat="43.96183" lon="2.13258">
        <ele>165.2</ele>
        <time>2017-04-20T12:39:32Z</time>
      </trkpt>
      <trkpt lat="43.96193" lon="2.13268">
        <ele>165.4</ele>
        <time>2017-04-20T12:39:34Z</time>
      </trkpt>
      <trkpt lat="43.96202" lon="2.13278">
        <ele>165.4</ele>
        <time>2017-04-20T12:39:36Z</time>
      </trkpt>
      <trkpt lat="43.96211" lon="2.1329">
        <ele>165.6</ele>
        <time>2017-04-20T12:39:38Z</time>
      </trkpt>
      <trkpt lat="43.96219" lon="2.13302">
        <ele>165.9</ele>
        <time>2017-04-20T12:39:40Z</time>
      </trkpt>
      <trkpt lat="43.96226" lon="2.13314">
        <ele>166.7</ele>
        <time>2017-04-20T12:39:42Z</time>
      </trkpt>
      <trkpt lat="43.96233" lon="2.13326">
        <ele>167.2</ele>
        <time>2017-04-20T12:39:44Z</time>
      </trkpt>
      <trkpt lat="43.96241" lon="2.13337">
        <ele>167.2</ele>
        <time>2017-04-20T12:39:46Z</time>
      </trkpt>
      <trkpt lat="43.96249" lon="2.13349">
        <ele>166.9</ele>
        <time>2017-04-20T12:39:48Z</time>
      </trkpt>
      <trkpt lat="43.96257" lon="2.13359">
        <ele>166.8</ele>
        <time>2017-04-20T12:39:50Z</time>
      </trkpt>
      <trkpt lat="43.96265" lon="2.1337">
        <ele>166.7</ele>
        <time>2017-04-20T12:39:52Z</time>
      </trkpt>
      <trkpt lat="43.96272" lon="2.13382">
        <ele>166.6</ele>
        <time>2017-04-20T12:39:54Z</time>
      </trkpt>
      <trkpt lat="43.9628" lon="2.13393">
        <ele>166.4</ele>
        <time>2017-04-20T12:39:56Z</time>
      </trkpt>
      <trkpt lat="43.96288" lon="2.13405">
        <ele>166.4</ele>
        <time>2017-04-20T12:39:58Z</time>
      </trkpt>
      <trkpt lat="43.96297" lon="2.13417">
        <ele>166.5</ele>
        <time>2017-04-20T12:40:00Z</time>
      </trkpt>
      <trkpt lat="43.96305" lon="2.13428">
        <ele>166.5</ele>
        <time>2017-04-20T12:40:02Z</time>
      </trkpt>
      <trkpt lat="43.96313" lon="2.13441">
        <ele>166.3</ele>
        <time>2017-04-20T12:40:04Z</time>
      </trkpt>
      <trkpt lat="43.96321" lon="2.13452">
        <ele>166.5</ele>
        <time>2017-04-20T12:40:06Z</time>
      </trkpt>
      <trkpt lat="43.9633" lon="2.13461">
        <ele>166.9</ele>
        <time>2017-04-20T12:40:08Z</time>
      </trkpt>
      <trkpt lat="43.9634" lon="2.13469">
        <ele>167.2</ele>
        <time>2017-04-20T12:40:10Z</time>
      </trkpt>
      <trkpt lat="43.96349" lon="2.13475">
        <ele>167.3</ele>
        <time>2017-04-20T12:40:12Z</time>
      </trkpt>
      <trkpt lat="43.96359" lon="2.13479">
        <ele>167.6</ele>
        <time>2017-04-20T12:40:14Z</time>
      </trkpt>
      <trkpt lat="43.96369" lon="2.13481">
        <ele>167.1</ele>
        <time>2017-04-20T12:40:16Z</time>
      </trkpt>
      <trkpt lat="43.96381" lon="2.13482">
        <ele>166.2</ele>
        <time>2017-04-20T12:40:18Z</time>
      </trkpt>
      <trkpt lat="43.96391" lon="2.13483">
        <ele>164.9</ele>
        <time>2017-04-20T12:40:20Z</time>
      </trkpt>
      <trkpt lat="43.964" lon="2.1348">
        <ele>163.7</ele>
        <time>2017-04-20T12:40:22Z</time>
      </trkpt>
      <trkpt lat="43.96408" lon="2.13477">
        <ele>162.1</ele>
        <time>2017-04-20T12:40:24Z</time>
      </trkpt>
      <trkpt lat="43.96417" lon="2.13475">
        <ele>161.2</ele>
        <time>2017-04-20T12:40:26Z</time>
      </trkpt>
      <trkpt lat="43.96425" lon="2.1347">
        <ele>161.4</ele>
        <time>2017-04-20T12:40:28Z</time>
      </trkpt>
      <trkpt lat="43.96432" lon="2.13466">
        <ele>161.4</ele>
        <time>2017-04-20T12:40:30Z</time>
      </trkpt>
      <trkpt lat="43.96441" lon="2.13459">
        <ele>162.3</ele>
        <time>2017-04-20T12:40:33Z</time>
      </trkpt>
      <trkpt lat="43.96449" lon="2.13448">
        <ele>163.2</ele>
        <time>2017-04-20T12:40:36Z</time>
      </trkpt>
      <trkpt lat="43.96455" lon="2.13442">
        <ele>163.8</ele>
        <time>2017-04-20T12:40:38Z</time>
      </trkpt>
      <trkpt lat="43.96464" lon="2.13434">
        <ele>163.7</ele>
        <time>2017-04-20T12:40:41Z</time>
      </trkpt>
      <trkpt lat="43.9647" lon="2.13427">
        <ele>164.6</ele>
        <time>2017-04-20T12:40:43Z</time>
      </trkpt>
      <trkpt lat="43.96476" lon="2.1342">
        <ele>165</ele>
        <time>2017-04-20T12:40:45Z</time>
      </trkpt>
      <trkpt lat="43.96483" lon="2.13412">
        <ele>166.2</ele>
        <time>2017-04-20T12:40:47Z</time>
      </trkpt>
      <trkpt lat="43.9649" lon="2.13403">
        <ele>167.3</ele>
        <time>2017-04-20T12:40:49Z</time>
      </trkpt>
      <trkpt lat="43.96497" lon="2.13395">
        <ele>168</ele>
        <time>2017-04-20T12:40:51Z</time>
      </trkpt>
      <trkpt lat="43.96504" lon="2.13387">
        <ele>168.1</ele>
        <time>2017-04-20T12:40:53Z</time>
      </trkpt>
      <trkpt lat="43.96511" lon="2.1338">
        <ele>168.4</ele>
        <time>2017-04-20T12:40:55Z</time>
      </trkpt>
      <trkpt lat="43.96518" lon="2.13373">
        <ele>169.1</ele>
        <time>2017-04-20T12:40:57Z</time>
      </trkpt>
      <trkpt lat="43.96525" lon="2.13367">
        <ele>169.7</ele>
        <time>2017-04-20T12:40:59Z</time>
      </trkpt>
      <trkpt lat="43.96532" lon="2.1336">
        <ele>170.2</ele>
        <time>2017-04-20T12:41:01Z</time>
      </trkpt>
      <trkpt lat="43.96539" lon="2.13354">
        <ele>170.3</ele>
        <time>2017-04-20T12:41:03Z</time>
      </trkpt>
      <trkpt lat="43.96545" lon="2.13349">
        <ele>170.5</ele>
        <time>2017-04-20T12:41:05Z</time>
      </trkpt>
      <trkpt lat="43.96555" lon="2.13341">
        <ele>171.5</ele>
        <time>2017-04-20T12:41:08Z</time>
      </trkpt>
      <trkpt lat="43.96563" lon="2.13338">
        <ele>172.2</ele>
        <time>2017-04-20T12:41:10Z</time>
      </trkpt>
      <trkpt lat="43.96571" lon="2.13334">
        <ele>172.6</ele>
        <time>2017-04-20T12:41:12Z</time>
      </trkpt>
      <trkpt lat="43.9658" lon="2.1333">
        <ele>173.1</ele>
        <time>2017-04-20T12:41:14Z</time>
      </trkpt>
      <trkpt lat="43.96588" lon="2.13326">
        <ele>173.3</ele>
        <time>2017-04-20T12:41:16Z</time>
      </trkpt>
      <trkpt lat="43.96598" lon="2.13321">
        <ele>173.9</ele>
        <time>2017-04-20T12:41:18Z</time>
      </trkpt>
      <trkpt lat="43.96607" lon="2.13315">
        <ele>174.7</ele>
        <time>2017-04-20T12:41:20Z</time>
      </trkpt>
      <trkpt lat="43.96615" lon="2.1331">
        <ele>174.9</ele>
        <time>2017-04-20T12:41:22Z</time>
      </trkpt>
      <trkpt lat="43.96624" lon="2.13304">
        <ele>175.6</ele>
        <time>2017-04-20T12:41:24Z</time>
      </trkpt>
      <trkpt lat="43.96633" lon="2.13299">
        <ele>177.1</ele>
        <time>2017-04-20T12:41:26Z</time>
      </trkpt>
      <trkpt lat="43.96641" lon="2.13295">
        <ele>177.2</ele>
        <time>2017-04-20T12:41:28Z</time>
      </trkpt>
      <trkpt lat="43.96651" lon="2.1329">
        <ele>177.2</ele>
        <time>2017-04-20T12:41:30Z</time>
      </trkpt>
      <trkpt lat="43.96662" lon="2.13286">
        <ele>176.9</ele>
        <time>2017-04-20T12:41:32Z</time>
      </trkpt>
      <trkpt lat="43.9667" lon="2.1328">
        <ele>177</ele>
        <time>2017-04-20T12:41:34Z</time>
      </trkpt>
      <trkpt lat="43.96679" lon="2.13276">
        <ele>177.9</ele>
        <time>2017-04-20T12:41:36Z</time>
      </trkpt>
      <trkpt lat="43.96687" lon="2.13272">
        <ele>177.6</ele>
        <time>2017-04-20T12:41:38Z</time>
      </trkpt>
      <trkpt lat="43.96695" lon="2.13268">
        <ele>177.5</ele>
        <time>2017-04-20T12:41:40Z</time>
      </trkpt>
      <trkpt lat="43.96703" lon="2.13264">
        <ele>177</ele>
        <time>2017-04-20T12:41:42Z</time>
      </trkpt>
      <trkpt lat="43.96714" lon="2.1326">
        <ele>177</ele>
        <time>2017-04-20T12:41:44Z</time>
      </trkpt>
      <trkpt lat="43.96723" lon="2.13256">
        <ele>176.8</ele>
        <time>2017-04-20T12:41:46Z</time>
      </trkpt>
      <trkpt lat="43.96734" lon="2.13251">
        <ele>176.7</ele>
        <time>2017-04-20T12:41:48Z</time>
      </trkpt>
      <trkpt lat="43.96745" lon="2.13245">
        <ele>176.4</ele>
        <time>2017-04-20T12:41:50Z</time>
      </trkpt>
      <trkpt lat="43.96755" lon="2.13241">
        <ele>176.3</ele>
        <time>2017-04-20T12:41:52Z</time>
      </trkpt>
      <trkpt lat="43.96765" lon="2.13236">
        <ele>176.3</ele>
        <time>2017-04-20T12:41:54Z</time>
      </trkpt>
      <trkpt lat="43.96776" lon="2.1323">
        <ele>175.7</ele>
        <time>2017-04-20T12:41:56Z</time>
      </trkpt>
      <trkpt lat="43.96788" lon="2.13225">
        <ele>175.3</ele>
        <time>2017-04-20T12:41:58Z</time>
      </trkpt>
      <trkpt lat="43.96799" lon="2.1322">
        <ele>175.4</ele>
        <time>2017-04-20T12:42:00Z</time>
      </trkpt>
      <trkpt lat="43.96809" lon="2.13215">
        <ele>175.8</ele>
        <time>2017-04-20T12:42:02Z</time>
      </trkpt>
      <trkpt lat="43.9682" lon="2.1321">
        <ele>175.8</ele>
        <time>2017-04-20T12:42:04Z</time>
      </trkpt>
      <trkpt lat="43.96831" lon="2.13206">
        <ele>176.3</ele>
        <time>2017-04-20T12:42:06Z</time>
      </trkpt>
      <trkpt lat="43.96842" lon="2.13202">
        <ele>176.2</ele>
        <time>2017-04-20T12:42:08Z</time>
      </trkpt>
      <trkpt lat="43.96852" lon="2.13197">
        <ele>176.3</ele>
        <time>2017-04-20T12:42:10Z</time>
      </trkpt>
      <trkpt lat="43.96862" lon="2.1319">
        <ele>177.2</ele>
        <time>2017-04-20T12:42:12Z</time>
      </trkpt>
      <trkpt lat="43.96872" lon="2.13186">
        <ele>178.3</ele>
        <time>2017-04-20T12:42:14Z</time>
      </trkpt>
      <trkpt lat="43.96883" lon="2.13181">
        <ele>178.8</ele>
        <time>2017-04-20T12:42:16Z</time>
      </trkpt>
      <trkpt lat="43.96895" lon="2.13176">
        <ele>179.1</ele>
        <time>2017-04-20T12:42:18Z</time>
      </trkpt>
      <trkpt lat="43.96905" lon="2.1317">
        <ele>179.7</ele>
        <time>2017-04-20T12:42:20Z</time>
      </trkpt>
      <trkpt lat="43.96915" lon="2.13163">
        <ele>180.4</ele>
        <time>2017-04-20T12:42:22Z</time>
      </trkpt>
      <trkpt lat="43.96926" lon="2.13156">
        <ele>180.4</ele>
        <time>2017-04-20T12:42:24Z</time>
      </trkpt>
      <trkpt lat="43.96938" lon="2.13152">
        <ele>181.1</ele>
        <time>2017-04-20T12:42:26Z</time>
      </trkpt>
      <trkpt lat="43.96949" lon="2.13147">
        <ele>181.5</ele>
        <time>2017-04-20T12:42:28Z</time>
      </trkpt>
      <trkpt lat="43.96959" lon="2.13142">
        <ele>181.6</ele>
        <time>2017-04-20T12:42:30Z</time>
      </trkpt>
      <trkpt lat="43.96972" lon="2.13138">
        <ele>182</ele>
        <time>2017-04-20T12:42:32Z</time>
      </trkpt>
      <trkpt lat="43.96984" lon="2.13133">
        <ele>182.1</ele>
        <time>2017-04-20T12:42:34Z</time>
      </trkpt>
      <trkpt lat="43.96996" lon="2.13127">
        <ele>182.3</ele>
        <time>2017-04-20T12:42:36Z</time>
      </trkpt>
      <trkpt lat="43.97007" lon="2.13121">
        <ele>182.6</ele>
        <time>2017-04-20T12:42:38Z</time>
      </trkpt>
      <trkpt lat="43.97018" lon="2.13117">
        <ele>182.1</ele>
        <time>2017-04-20T12:42:40Z</time>
      </trkpt>
      <trkpt lat="43.97028" lon="2.13111">
        <ele>181.3</ele>
        <time>2017-04-20T12:42:42Z</time>
      </trkpt>
      <trkpt lat="43.97038" lon="2.13106">
        <ele>181.4</ele>
        <time>2017-04-20T12:42:44Z</time>
      </trkpt>
      <trkpt lat="43.97049" lon="2.13101">
        <ele>181.2</ele>
        <time>2017-04-20T12:42:46Z</time>
      </trkpt>
      <trkpt lat="43.97059" lon="2.13094">
        <ele>181.1</ele>
        <time>2017-04-20T12:42:48Z</time>
      </trkpt>
      <trkpt lat="43.97069" lon="2.13088">
        <ele>181.2</ele>
        <time>2017-04-20T12:42:50Z</time>
      </trkpt>
      <trkpt lat="43.97079" lon="2.13081">
        <ele>181.2</ele>
        <time>2017-04-20T12:42:52Z</time>
      </trkpt>
      <trkpt lat="43.97088" lon="2.13072">
        <ele>181.3</ele>
        <time>2017-04-20T12:42:54Z</time>
      </trkpt>
      <trkpt lat="43.97097" lon="2.13063">
        <ele>182.6</ele>
        <time>2017-04-20T12:42:56Z</time>
      </trkpt>
      <trkpt lat="43.97107" lon="2.13054">
        <ele>183.1</ele>
        <time>2017-04-20T12:42:58Z</time>
      </trkpt>
      <trkpt lat="43.97116" lon="2.13044">
        <ele>184.9</ele>
        <time>2017-04-20T12:43:00Z</time>
      </trkpt>
      <trkpt lat="43.97126" lon="2.13036">
        <ele>185.5</ele>
        <time>2017-04-20T12:43:02Z</time>
      </trkpt>
      <trkpt lat="43.97135" lon="2.13029">
        <ele>186.1</ele>
        <time>2017-04-20T12:43:04Z</time>
      </trkpt>
      <trkpt lat="43.97146" lon="2.13022">
        <ele>186.5</ele>
        <time>2017-04-20T12:43:06Z</time>
      </trkpt>
      <trkpt lat="43.97156" lon="2.13016">
        <ele>187.2</ele>
        <time>2017-04-20T12:43:08Z</time>
      </trkpt>
      <trkpt lat="43.97168" lon="2.13009">
        <ele>188.1</ele>
        <time>2017-04-20T12:43:10Z</time>
      </trkpt>
      <trkpt lat="43.97179" lon="2.13004">
        <ele>188.9</ele>
        <time>2017-04-20T12:43:12Z</time>
      </trkpt>
      <trkpt lat="43.9719" lon="2.12998">
        <ele>190.2</ele>
        <time>2017-04-20T12:43:14Z</time>
      </trkpt>
      <trkpt lat="43.97201" lon="2.12991">
        <ele>191.2</ele>
        <time>2017-04-20T12:43:16Z</time>
      </trkpt>
      <trkpt lat="43.97211" lon="2.12985">
        <ele>191.9</ele>
        <time>2017-04-20T12:43:18Z</time>
      </trkpt>
      <trkpt lat="43.97221" lon="2.12978">
        <ele>193</ele>
        <time>2017-04-20T12:43:20Z</time>
      </trkpt>
      <trkpt lat="43.9723" lon="2.12969">
        <ele>193.7</ele>
        <time>2017-04-20T12:43:22Z</time>
      </trkpt>
      <trkpt lat="43.97239" lon="2.12963">
        <ele>193.9</ele>
        <time>2017-04-20T12:43:24Z</time>
      </trkpt>
      <trkpt lat="43.97248" lon="2.12956">
        <ele>194.3</ele>
        <time>2017-04-20T12:43:26Z</time>
      </trkpt>
      <trkpt lat="43.97257" lon="2.1295">
        <ele>194.7</ele>
        <time>2017-04-20T12:43:28Z</time>
      </trkpt>
      <trkpt lat="43.97266" lon="2.12945">
        <ele>194.4</ele>
        <time>2017-04-20T12:43:30Z</time>
      </trkpt>
      <trkpt lat="43.97275" lon="2.12939">
        <ele>194.6</ele>
        <time>2017-04-20T12:43:32Z</time>
      </trkpt>
      <trkpt lat="43.97286" lon="2.12935">
        <ele>194.4</ele>
        <time>2017-04-20T12:43:34Z</time>
      </trkpt>
      <trkpt lat="43.97297" lon="2.12931">
        <ele>194.8</ele>
        <time>2017-04-20T12:43:36Z</time>
      </trkpt>
      <trkpt lat="43.97308" lon="2.12926">
        <ele>195.4</ele>
        <time>2017-04-20T12:43:38Z</time>
      </trkpt>
      <trkpt lat="43.97318" lon="2.1292">
        <ele>196</ele>
        <time>2017-04-20T12:43:40Z</time>
      </trkpt>
      <trkpt lat="43.9733" lon="2.12916">
        <ele>196.5</ele>
        <time>2017-04-20T12:43:42Z</time>
      </trkpt>
      <trkpt lat="43.97341" lon="2.12912">
        <ele>197.1</ele>
        <time>2017-04-20T12:43:44Z</time>
      </trkpt>
      <trkpt lat="43.97352" lon="2.12908">
        <ele>196.9</ele>
        <time>2017-04-20T12:43:46Z</time>
      </trkpt>
      <trkpt lat="43.97363" lon="2.12905">
        <ele>196.4</ele>
        <time>2017-04-20T12:43:48Z</time>
      </trkpt>
      <trkpt lat="43.97375" lon="2.12902">
        <ele>196</ele>
        <time>2017-04-20T12:43:50Z</time>
      </trkpt>
      <trkpt lat="43.97386" lon="2.12901">
        <ele>195.9</ele>
        <time>2017-04-20T12:43:52Z</time>
      </trkpt>
      <trkpt lat="43.97397" lon="2.129">
        <ele>195.8</ele>
        <time>2017-04-20T12:43:54Z</time>
      </trkpt>
      <trkpt lat="43.97407" lon="2.12899">
        <ele>196.1</ele>
        <time>2017-04-20T12:43:56Z</time>
      </trkpt>
      <trkpt lat="43.97416" lon="2.12899">
        <ele>195</ele>
        <time>2017-04-20T12:43:58Z</time>
      </trkpt>
      <trkpt lat="43.97426" lon="2.12899">
        <ele>194.3</ele>
        <time>2017-04-20T12:44:00Z</time>
      </trkpt>
      <trkpt lat="43.97434" lon="2.12899">
        <ele>194.2</ele>
        <time>2017-04-20T12:44:02Z</time>
      </trkpt>
      <trkpt lat="43.97443" lon="2.12901">
        <ele>195.1</ele>
        <time>2017-04-20T12:44:04Z</time>
      </trkpt>
      <trkpt lat="43.97452" lon="2.12901">
        <ele>195.6</ele>
        <time>2017-04-20T12:44:06Z</time>
      </trkpt>
      <trkpt lat="43.97461" lon="2.12904">
        <ele>195.9</ele>
        <time>2017-04-20T12:44:08Z</time>
      </trkpt>
      <trkpt lat="43.97469" lon="2.12905">
        <ele>197.2</ele>
        <time>2017-04-20T12:44:10Z</time>
      </trkpt>
      <trkpt lat="43.97476" lon="2.12907">
        <ele>197.9</ele>
        <time>2017-04-20T12:44:12Z</time>
      </trkpt>
      <trkpt lat="43.97484" lon="2.12909">
        <ele>198.9</ele>
        <time>2017-04-20T12:44:14Z</time>
      </trkpt>
      <trkpt lat="43.97494" lon="2.12912">
        <ele>200.2</ele>
        <time>2017-04-20T12:44:16Z</time>
      </trkpt>
      <trkpt lat="43.97502" lon="2.12915">
        <ele>201</ele>
        <time>2017-04-20T12:44:18Z</time>
      </trkpt>
      <trkpt lat="43.9751" lon="2.12918">
        <ele>202.1</ele>
        <time>2017-04-20T12:44:20Z</time>
      </trkpt>
      <trkpt lat="43.97517" lon="2.12921">
        <ele>202.8</ele>
        <time>2017-04-20T12:44:22Z</time>
      </trkpt>
      <trkpt lat="43.97525" lon="2.12926">
        <ele>203.1</ele>
        <time>2017-04-20T12:44:24Z</time>
      </trkpt>
      <trkpt lat="43.97533" lon="2.12929">
        <ele>204.2</ele>
        <time>2017-04-20T12:44:26Z</time>
      </trkpt>
      <trkpt lat="43.9754" lon="2.12932">
        <ele>204.9</ele>
        <time>2017-04-20T12:44:28Z</time>
      </trkpt>
      <trkpt lat="43.97549" lon="2.12936">
        <ele>205.3</ele>
        <time>2017-04-20T12:44:30Z</time>
      </trkpt>
      <trkpt lat="43.9756" lon="2.12937">
        <ele>205.1</ele>
        <time>2017-04-20T12:44:32Z</time>
      </trkpt>
      <trkpt lat="43.9757" lon="2.12936">
        <ele>204.9</ele>
        <time>2017-04-20T12:44:34Z</time>
      </trkpt>
      <trkpt lat="43.97579" lon="2.12935">
        <ele>205.9</ele>
        <time>2017-04-20T12:44:36Z</time>
      </trkpt>
      <trkpt lat="43.97587" lon="2.12934">
        <ele>204.4</ele>
        <time>2017-04-20T12:44:38Z</time>
      </trkpt>
      <trkpt lat="43.97595" lon="2.12931">
        <ele>204.8</ele>
        <time>2017-04-20T12:44:40Z</time>
      </trkpt>
      <trkpt lat="43.97603" lon="2.12929">
        <ele>204.3</ele>
        <time>2017-04-20T12:44:42Z</time>
      </trkpt>
      <trkpt lat="43.97612" lon="2.12926">
        <ele>204.9</ele>
        <time>2017-04-20T12:44:44Z</time>
      </trkpt>
      <trkpt lat="43.9762" lon="2.12925">
        <ele>205.3</ele>
        <time>2017-04-20T12:44:46Z</time>
      </trkpt>
      <trkpt lat="43.97629" lon="2.12924">
        <ele>204.5</ele>
        <time>2017-04-20T12:44:48Z</time>
      </trkpt>
      <trkpt lat="43.97637" lon="2.12922">
        <ele>204.8</ele>
        <time>2017-04-20T12:44:50Z</time>
      </trkpt>
      <trkpt lat="43.97646" lon="2.1292">
        <ele>204.7</ele>
        <time>2017-04-20T12:44:52Z</time>
      </trkpt>
      <trkpt lat="43.97654" lon="2.1292">
        <ele>204.9</ele>
        <time>2017-04-20T12:44:54Z</time>
      </trkpt>
      <trkpt lat="43.97662" lon="2.12919">
        <ele>204.1</ele>
        <time>2017-04-20T12:44:56Z</time>
      </trkpt>
      <trkpt lat="43.9767" lon="2.12918">
        <ele>204</ele>
        <time>2017-04-20T12:44:58Z</time>
      </trkpt>
      <trkpt lat="43.97679" lon="2.12918">
        <ele>203.7</ele>
        <time>2017-04-20T12:45:00Z</time>
      </trkpt>
      <trkpt lat="43.97688" lon="2.12919">
        <ele>203.1</ele>
        <time>2017-04-20T12:45:02Z</time>
      </trkpt>
      <trkpt lat="43.97696" lon="2.1292">
        <ele>203.1</ele>
        <time>2017-04-20T12:45:04Z</time>
      </trkpt>
      <trkpt lat="43.97704" lon="2.1292">
        <ele>202.5</ele>
        <time>2017-04-20T12:45:06Z</time>
      </trkpt>
      <trkpt lat="43.97712" lon="2.12922">
        <ele>203</ele>
        <time>2017-04-20T12:45:08Z</time>
      </trkpt>
      <trkpt lat="43.97719" lon="2.12925">
        <ele>203.7</ele>
        <time>2017-04-20T12:45:10Z</time>
      </trkpt>
      <trkpt lat="43.9773" lon="2.12928">
        <ele>204.8</ele>
        <time>2017-04-20T12:45:13Z</time>
      </trkpt>
      <trkpt lat="43.97737" lon="2.12929">
        <ele>204.8</ele>
        <time>2017-04-20T12:45:15Z</time>
      </trkpt>
      <trkpt lat="43.97744" lon="2.12929">
        <ele>205.8</ele>
        <time>2017-04-20T12:45:17Z</time>
      </trkpt>
      <trkpt lat="43.97752" lon="2.12932">
        <ele>206.5</ele>
        <time>2017-04-20T12:45:19Z</time>
      </trkpt>
      <trkpt lat="43.97763" lon="2.12934">
        <ele>207.3</ele>
        <time>2017-04-20T12:45:22Z</time>
      </trkpt>
      <trkpt lat="43.9777" lon="2.12936">
        <ele>208.4</ele>
        <time>2017-04-20T12:45:24Z</time>
      </trkpt>
      <trkpt lat="43.97781" lon="2.12939">
        <ele>210.3</ele>
        <time>2017-04-20T12:45:27Z</time>
      </trkpt>
      <trkpt lat="43.97789" lon="2.12939">
        <ele>211.4</ele>
        <time>2017-04-20T12:45:29Z</time>
      </trkpt>
      <trkpt lat="43.97797" lon="2.12939">
        <ele>211.9</ele>
        <time>2017-04-20T12:45:31Z</time>
      </trkpt>
      <trkpt lat="43.97805" lon="2.12937">
        <ele>212.2</ele>
        <time>2017-04-20T12:45:33Z</time>
      </trkpt>
      <trkpt lat="43.97813" lon="2.12935">
        <ele>211.5</ele>
        <time>2017-04-20T12:45:35Z</time>
      </trkpt>
      <trkpt lat="43.9782" lon="2.12932">
        <ele>211.6</ele>
        <time>2017-04-20T12:45:37Z</time>
      </trkpt>
      <trkpt lat="43.97827" lon="2.1293">
        <ele>211.7</ele>
        <time>2017-04-20T12:45:39Z</time>
      </trkpt>
      <trkpt lat="43.97837" lon="2.12926">
        <ele>211.9</ele>
        <time>2017-04-20T12:45:42Z</time>
      </trkpt>
      <trkpt lat="43.97847" lon="2.1292">
        <ele>211.3</ele>
        <time>2017-04-20T12:45:45Z</time>
      </trkpt>
      <trkpt lat="43.97854" lon="2.12917">
        <ele>211.4</ele>
        <time>2017-04-20T12:45:47Z</time>
      </trkpt>
      <trkpt lat="43.97861" lon="2.12913">
        <ele>211.7</ele>
        <time>2017-04-20T12:45:49Z</time>
      </trkpt>
      <trkpt lat="43.97869" lon="2.12906">
        <ele>211.4</ele>
        <time>2017-04-20T12:45:52Z</time>
      </trkpt>
      <trkpt lat="43.97878" lon="2.12897">
        <ele>211.6</ele>
        <time>2017-04-20T12:45:55Z</time>
      </trkpt>
      <trkpt lat="43.97885" lon="2.1289">
        <ele>210.7</ele>
        <time>2017-04-20T12:45:58Z</time>
      </trkpt>
      <trkpt lat="43.97892" lon="2.12881">
        <ele>210.3</ele>
        <time>2017-04-20T12:46:01Z</time>
      </trkpt>
      <trkpt lat="43.97899" lon="2.12872">
        <ele>209.9</ele>
        <time>2017-04-20T12:46:04Z</time>
      </trkpt>
      <trkpt lat="43.97905" lon="2.12865">
        <ele>209.1</ele>
        <time>2017-04-20T12:46:06Z</time>
      </trkpt>
      <trkpt lat="43.97914" lon="2.12856">
        <ele>210.5</ele>
        <time>2017-04-20T12:46:09Z</time>
      </trkpt>
      <trkpt lat="43.9792" lon="2.12851">
        <ele>210.6</ele>
        <time>2017-04-20T12:46:11Z</time>
      </trkpt>
      <trkpt lat="43.97929" lon="2.12843">
        <ele>210.7</ele>
        <time>2017-04-20T12:46:14Z</time>
      </trkpt>
      <trkpt lat="43.97936" lon="2.12836">
        <ele>209.4</ele>
        <time>2017-04-20T12:46:17Z</time>
      </trkpt>
      <trkpt lat="43.97942" lon="2.12827">
        <ele>208.4</ele>
        <time>2017-04-20T12:46:20Z</time>
      </trkpt>
      <trkpt lat="43.97948" lon="2.12821">
        <ele>207.7</ele>
        <time>2017-04-20T12:46:22Z</time>
      </trkpt>
      <trkpt lat="43.97955" lon="2.12815">
        <ele>207.3</ele>
        <time>2017-04-20T12:46:24Z</time>
      </trkpt>
      <trkpt lat="43.97963" lon="2.12807">
        <ele>207.4</ele>
        <time>2017-04-20T12:46:27Z</time>
      </trkpt>
      <trkpt lat="43.97971" lon="2.12799">
        <ele>205.7</ele>
        <time>2017-04-20T12:46:30Z</time>
      </trkpt>
      <trkpt lat="43.9798" lon="2.12792">
        <ele>204.9</ele>
        <time>2017-04-20T12:46:33Z</time>
      </trkpt>
      <trkpt lat="43.97986" lon="2.12785">
        <ele>204.4</ele>
        <time>2017-04-20T12:46:35Z</time>
      </trkpt>
      <trkpt lat="43.97992" lon="2.12779">
        <ele>204.6</ele>
        <time>2017-04-20T12:46:37Z</time>
      </trkpt>
      <trkpt lat="43.98001" lon="2.12772">
        <ele>203.6</ele>
        <time>2017-04-20T12:46:40Z</time>
      </trkpt>
      <trkpt lat="43.98008" lon="2.12766">
        <ele>202.9</ele>
        <time>2017-04-20T12:46:43Z</time>
      </trkpt>
      <trkpt lat="43.98014" lon="2.12758">
        <ele>203.8</ele>
        <time>2017-04-20T12:46:45Z</time>
      </trkpt>
      <trkpt lat="43.9802" lon="2.12752">
        <ele>204.8</ele>
        <time>2017-04-20T12:46:47Z</time>
      </trkpt>
      <trkpt lat="43.98027" lon="2.12745">
        <ele>205.3</ele>
        <time>2017-04-20T12:46:49Z</time>
      </trkpt>
      <trkpt lat="43.98033" lon="2.12739">
        <ele>206.2</ele>
        <time>2017-04-20T12:46:51Z</time>
      </trkpt>
      <trkpt lat="43.98041" lon="2.1273">
        <ele>207.3</ele>
        <time>2017-04-20T12:46:54Z</time>
      </trkpt>
      <trkpt lat="43.98049" lon="2.12724">
        <ele>205.9</ele>
        <time>2017-04-20T12:46:57Z</time>
      </trkpt>
      <trkpt lat="43.98057" lon="2.12725">
        <ele>206</ele>
        <time>2017-04-20T12:47:00Z</time>
      </trkpt>
      <trkpt lat="43.98064" lon="2.1273">
        <ele>209.3</ele>
        <time>2017-04-20T12:47:03Z</time>
      </trkpt>
      <trkpt lat="43.98068" lon="2.12739">
        <ele>212</ele>
        <time>2017-04-20T12:47:06Z</time>
      </trkpt>
      <trkpt lat="43.98076" lon="2.12746">
        <ele>215.1</ele>
        <time>2017-04-20T12:47:10Z</time>
      </trkpt>
      <trkpt lat="43.98083" lon="2.12743">
        <ele>217.2</ele>
        <time>2017-04-20T12:47:13Z</time>
      </trkpt>
      <trkpt lat="43.98089" lon="2.12731">
        <ele>220.8</ele>
        <time>2017-04-20T12:47:16Z</time>
      </trkpt>
      <trkpt lat="43.98095" lon="2.12724">
        <ele>224</ele>
        <time>2017-04-20T12:47:19Z</time>
      </trkpt>
      <trkpt lat="43.98104" lon="2.12722">
        <ele>227.7</ele>
        <time>2017-04-20T12:47:22Z</time>
      </trkpt>
      <trkpt lat="43.98113" lon="2.12724">
        <ele>230</ele>
        <time>2017-04-20T12:47:25Z</time>
      </trkpt>
      <trkpt lat="43.98122" lon="2.12726">
        <ele>233.2</ele>
        <time>2017-04-20T12:47:28Z</time>
      </trkpt>
      <trkpt lat="43.98131" lon="2.12728">
        <ele>235.8</ele>
        <time>2017-04-20T12:47:31Z</time>
      </trkpt>
      <trkpt lat="43.98139" lon="2.12723">
        <ele>236.3</ele>
        <time>2017-04-20T12:47:34Z</time>
      </trkpt>
      <trkpt lat="43.98146" lon="2.12719">
        <ele>237.1</ele>
        <time>2017-04-20T12:47:37Z</time>
      </trkpt>
      <trkpt lat="43.98153" lon="2.12714">
        <ele>237.8</ele>
        <time>2017-04-20T12:47:40Z</time>
      </trkpt>
      <trkpt lat="43.98162" lon="2.12711">
        <ele>238.3</ele>
        <time>2017-04-20T12:47:43Z</time>
      </trkpt>
      <trkpt lat="43.98171" lon="2.12709">
        <ele>238.9</ele>
        <time>2017-04-20T12:47:46Z</time>
      </trkpt>
      <trkpt lat="43.98179" lon="2.12704">
        <ele>239.6</ele>
        <time>2017-04-20T12:47:49Z</time>
      </trkpt>
      <trkpt lat="43.98189" lon="2.12701">
        <ele>240</ele>
        <time>2017-04-20T12:47:52Z</time>
      </trkpt>
      <trkpt lat="43.98196" lon="2.12698">
        <ele>240.3</ele>
        <time>2017-04-20T12:47:54Z</time>
      </trkpt>
      <trkpt lat="43.98203" lon="2.12694">
        <ele>240.6</ele>
        <time>2017-04-20T12:47:56Z</time>
      </trkpt>
      <trkpt lat="43.98212" lon="2.12689">
        <ele>241.3</ele>
        <time>2017-04-20T12:47:59Z</time>
      </trkpt>
      <trkpt lat="43.98219" lon="2.12685">
        <ele>241.5</ele>
        <time>2017-04-20T12:48:01Z</time>
      </trkpt>
      <trkpt lat="43.98225" lon="2.1268">
        <ele>241.9</ele>
        <time>2017-04-20T12:48:03Z</time>
      </trkpt>
      <trkpt lat="43.98232" lon="2.12675">
        <ele>242.2</ele>
        <time>2017-04-20T12:48:05Z</time>
      </trkpt>
      <trkpt lat="43.98239" lon="2.12671">
        <ele>242.2</ele>
        <time>2017-04-20T12:48:07Z</time>
      </trkpt>
      <trkpt lat="43.98247" lon="2.12666">
        <ele>242.5</ele>
        <time>2017-04-20T12:48:09Z</time>
      </trkpt>
      <trkpt lat="43.98255" lon="2.12661">
        <ele>242.7</ele>
        <time>2017-04-20T12:48:11Z</time>
      </trkpt>
      <trkpt lat="43.98263" lon="2.12657">
        <ele>243</ele>
        <time>2017-04-20T12:48:13Z</time>
      </trkpt>
      <trkpt lat="43.9827" lon="2.12653">
        <ele>243.3</ele>
        <time>2017-04-20T12:48:15Z</time>
      </trkpt>
      <trkpt lat="43.98278" lon="2.1265">
        <ele>244</ele>
        <time>2017-04-20T12:48:17Z</time>
      </trkpt>
      <trkpt lat="43.98285" lon="2.1265">
        <ele>244.4</ele>
        <time>2017-04-20T12:48:19Z</time>
      </trkpt>
      <trkpt lat="43.98293" lon="2.12654">
        <ele>244.6</ele>
        <time>2017-04-20T12:48:21Z</time>
      </trkpt>
      <trkpt lat="43.983" lon="2.12659">
        <ele>244.5</ele>
        <time>2017-04-20T12:48:23Z</time>
      </trkpt>
      <trkpt lat="43.98307" lon="2.12664">
        <ele>244.3</ele>
        <time>2017-04-20T12:48:25Z</time>
      </trkpt>
      <trkpt lat="43.98313" lon="2.1267">
        <ele>244.2</ele>
        <time>2017-04-20T12:48:27Z</time>
      </trkpt>
      <trkpt lat="43.98321" lon="2.1268">
        <ele>243.9</ele>
        <time>2017-04-20T12:48:30Z</time>
      </trkpt>
      <trkpt lat="43.98328" lon="2.1269">
        <ele>243.5</ele>
        <time>2017-04-20T12:48:33Z</time>
      </trkpt>
      <trkpt lat="43.98331" lon="2.127">
        <ele>243.5</ele>
        <time>2017-04-20T12:48:36Z</time>
      </trkpt>
      <trkpt lat="43.98337" lon="2.12704">
        <ele>242.7</ele>
        <time>2017-04-20T12:48:43Z</time>
      </trkpt>
      <trkpt lat="43.98342" lon="2.12695">
        <ele>241.7</ele>
        <time>2017-04-20T12:48:48Z</time>
      </trkpt>
      <trkpt lat="43.98348" lon="2.12702">
        <ele>239.7</ele>
        <time>2017-04-20T12:48:55Z</time>
      </trkpt>
      <trkpt lat="43.98346" lon="2.12715">
        <ele>239.5</ele>
        <time>2017-04-20T12:48:58Z</time>
      </trkpt>
      <trkpt lat="43.98346" lon="2.12726">
        <ele>239.9</ele>
        <time>2017-04-20T12:49:01Z</time>
      </trkpt>
      <trkpt lat="43.98346" lon="2.12738">
        <ele>239.9</ele>
        <time>2017-04-20T12:49:05Z</time>
      </trkpt>
      <trkpt lat="43.98346" lon="2.12751">
        <ele>239</ele>
        <time>2017-04-20T12:49:09Z</time>
      </trkpt>
      <trkpt lat="43.98346" lon="2.12763">
        <ele>237.5</ele>
        <time>2017-04-20T12:49:12Z</time>
      </trkpt>
      <trkpt lat="43.98345" lon="2.12777">
        <ele>236.4</ele>
        <time>2017-04-20T12:49:15Z</time>
      </trkpt>
      <trkpt lat="43.98349" lon="2.12788">
        <ele>237</ele>
        <time>2017-04-20T12:49:17Z</time>
      </trkpt>
      <trkpt lat="43.98352" lon="2.12799">
        <ele>237.4</ele>
        <time>2017-04-20T12:49:19Z</time>
      </trkpt>
      <trkpt lat="43.98355" lon="2.12809">
        <ele>238.1</ele>
        <time>2017-04-20T12:49:21Z</time>
      </trkpt>
      <trkpt lat="43.98358" lon="2.1282">
        <ele>238.6</ele>
        <time>2017-04-20T12:49:23Z</time>
      </trkpt>
      <trkpt lat="43.98361" lon="2.12831">
        <ele>239</ele>
        <time>2017-04-20T12:49:25Z</time>
      </trkpt>
      <trkpt lat="43.98364" lon="2.12842">
        <ele>240.2</ele>
        <time>2017-04-20T12:49:27Z</time>
      </trkpt>
      <trkpt lat="43.98366" lon="2.12852">
        <ele>240.8</ele>
        <time>2017-04-20T12:49:29Z</time>
      </trkpt>
      <trkpt lat="43.98367" lon="2.12863">
        <ele>241.9</ele>
        <time>2017-04-20T12:49:31Z</time>
      </trkpt>
      <trkpt lat="43.98367" lon="2.12874">
        <ele>242.4</ele>
        <time>2017-04-20T12:49:33Z</time>
      </trkpt>
      <trkpt lat="43.98366" lon="2.12885">
        <ele>242.7</ele>
        <time>2017-04-20T12:49:35Z</time>
      </trkpt>
      <trkpt lat="43.98364" lon="2.12897">
        <ele>242.7</ele>
        <time>2017-04-20T12:49:37Z</time>
      </trkpt>
      <trkpt lat="43.98362" lon="2.12909">
        <ele>242.9</ele>
        <time>2017-04-20T12:49:39Z</time>
      </trkpt>
      <trkpt lat="43.9836" lon="2.12921">
        <ele>242.9</ele>
        <time>2017-04-20T12:49:41Z</time>
      </trkpt>
      <trkpt lat="43.98356" lon="2.12934">
        <ele>242.5</ele>
        <time>2017-04-20T12:49:43Z</time>
      </trkpt>
      <trkpt lat="43.98352" lon="2.12946">
        <ele>242.7</ele>
        <time>2017-04-20T12:49:45Z</time>
      </trkpt>
      <trkpt lat="43.98347" lon="2.12958">
        <ele>242.3</ele>
        <time>2017-04-20T12:49:47Z</time>
      </trkpt>
      <trkpt lat="43.98342" lon="2.1297">
        <ele>241.8</ele>
        <time>2017-04-20T12:49:49Z</time>
      </trkpt>
      <trkpt lat="43.98338" lon="2.12982">
        <ele>242.5</ele>
        <time>2017-04-20T12:49:51Z</time>
      </trkpt>
      <trkpt lat="43.98334" lon="2.12993">
        <ele>242.3</ele>
        <time>2017-04-20T12:49:53Z</time>
      </trkpt>
      <trkpt lat="43.98328" lon="2.13003">
        <ele>242</ele>
        <time>2017-04-20T12:49:55Z</time>
      </trkpt>
      <trkpt lat="43.98324" lon="2.13016">
        <ele>242.6</ele>
        <time>2017-04-20T12:49:57Z</time>
      </trkpt>
      <trkpt lat="43.98324" lon="2.13026">
        <ele>243.2</ele>
        <time>2017-04-20T12:49:59Z</time>
      </trkpt>
      <trkpt lat="43.98324" lon="2.13036">
        <ele>243.6</ele>
        <time>2017-04-20T12:50:01Z</time>
      </trkpt>
      <trkpt lat="43.98323" lon="2.13048">
        <ele>243.9</ele>
        <time>2017-04-20T12:50:03Z</time>
      </trkpt>
      <trkpt lat="43.98322" lon="2.13062">
        <ele>244.2</ele>
        <time>2017-04-20T12:50:05Z</time>
      </trkpt>
      <trkpt lat="43.98321" lon="2.13073">
        <ele>244.4</ele>
        <time>2017-04-20T12:50:07Z</time>
      </trkpt>
      <trkpt lat="43.98322" lon="2.13084">
        <ele>244.5</ele>
        <time>2017-04-20T12:50:09Z</time>
      </trkpt>
      <trkpt lat="43.98322" lon="2.13096">
        <ele>244.7</ele>
        <time>2017-04-20T12:50:11Z</time>
      </trkpt>
      <trkpt lat="43.98322" lon="2.13108">
        <ele>244.7</ele>
        <time>2017-04-20T12:50:13Z</time>
      </trkpt>
      <trkpt lat="43.98324" lon="2.1312">
        <ele>244</ele>
        <time>2017-04-20T12:50:15Z</time>
      </trkpt>
      <trkpt lat="43.98329" lon="2.13132">
        <ele>243.6</ele>
        <time>2017-04-20T12:50:17Z</time>
      </trkpt>
      <trkpt lat="43.98335" lon="2.13142">
        <ele>243.7</ele>
        <time>2017-04-20T12:50:19Z</time>
      </trkpt>
      <trkpt lat="43.98341" lon="2.13152">
        <ele>244.1</ele>
        <time>2017-04-20T12:50:21Z</time>
      </trkpt>
      <trkpt lat="43.98345" lon="2.13163">
        <ele>245.2</ele>
        <time>2017-04-20T12:50:23Z</time>
      </trkpt>
      <trkpt lat="43.9835" lon="2.13175">
        <ele>245.8</ele>
        <time>2017-04-20T12:50:25Z</time>
      </trkpt>
      <trkpt lat="43.98357" lon="2.13183">
        <ele>246.4</ele>
        <time>2017-04-20T12:50:27Z</time>
      </trkpt>
      <trkpt lat="43.98364" lon="2.13192">
        <ele>247</ele>
        <time>2017-04-20T12:50:29Z</time>
      </trkpt>
      <trkpt lat="43.98372" lon="2.13199">
        <ele>248.1</ele>
        <time>2017-04-20T12:50:31Z</time>
      </trkpt>
      <trkpt lat="43.98379" lon="2.13203">
        <ele>249.4</ele>
        <time>2017-04-20T12:50:33Z</time>
      </trkpt>
      <trkpt lat="43.98387" lon="2.13205">
        <ele>250.8</ele>
        <time>2017-04-20T12:50:35Z</time>
      </trkpt>
      <trkpt lat="43.98394" lon="2.13206">
        <ele>252.1</ele>
        <time>2017-04-20T12:50:37Z</time>
      </trkpt>
      <trkpt lat="43.98402" lon="2.13206">
        <ele>253.3</ele>
        <time>2017-04-20T12:50:39Z</time>
      </trkpt>
      <trkpt lat="43.98412" lon="2.13205">
        <ele>254</ele>
        <time>2017-04-20T12:50:42Z</time>
      </trkpt>
      <trkpt lat="43.98419" lon="2.13204">
        <ele>253.5</ele>
        <time>2017-04-20T12:50:49Z</time>
      </trkpt>
      <trkpt lat="43.98426" lon="2.13206">
        <ele>253.2</ele>
        <time>2017-04-20T12:50:52Z</time>
      </trkpt>
      <trkpt lat="43.98435" lon="2.13212">
        <ele>253.4</ele>
        <time>2017-04-20T12:50:55Z</time>
      </trkpt>
      <trkpt lat="43.98442" lon="2.13214">
        <ele>253.6</ele>
        <time>2017-04-20T12:50:57Z</time>
      </trkpt>
      <trkpt lat="43.98452" lon="2.13217">
        <ele>254.2</ele>
        <time>2017-04-20T12:51:00Z</time>
      </trkpt>
      <trkpt lat="43.9846" lon="2.13216">
        <ele>254.4</ele>
        <time>2017-04-20T12:51:02Z</time>
      </trkpt>
      <trkpt lat="43.98468" lon="2.13214">
        <ele>254.3</ele>
        <time>2017-04-20T12:51:04Z</time>
      </trkpt>
      <trkpt lat="43.98476" lon="2.1321">
        <ele>254.1</ele>
        <time>2017-04-20T12:51:06Z</time>
      </trkpt>
      <trkpt lat="43.98485" lon="2.13206">
        <ele>254</ele>
        <time>2017-04-20T12:51:08Z</time>
      </trkpt>
      <trkpt lat="43.98493" lon="2.13201">
        <ele>253.8</ele>
        <time>2017-04-20T12:51:10Z</time>
      </trkpt>
      <trkpt lat="43.98502" lon="2.13195">
        <ele>253.2</ele>
        <time>2017-04-20T12:51:12Z</time>
      </trkpt>
      <trkpt lat="43.98512" lon="2.13188">
        <ele>252.2</ele>
        <time>2017-04-20T12:51:14Z</time>
      </trkpt>
      <trkpt lat="43.98523" lon="2.13182">
        <ele>251.2</ele>
        <time>2017-04-20T12:51:16Z</time>
      </trkpt>
      <trkpt lat="43.98535" lon="2.13174">
        <ele>250.6</ele>
        <time>2017-04-20T12:51:18Z</time>
      </trkpt>
      <trkpt lat="43.98546" lon="2.13164">
        <ele>250.4</ele>
        <time>2017-04-20T12:51:20Z</time>
      </trkpt>
      <trkpt lat="43.98557" lon="2.13155">
        <ele>250.4</ele>
        <time>2017-04-20T12:51:22Z</time>
      </trkpt>
      <trkpt lat="43.98568" lon="2.13145">
        <ele>250.3</ele>
        <time>2017-04-20T12:51:24Z</time>
      </trkpt>
      <trkpt lat="43.98579" lon="2.13136">
        <ele>250.5</ele>
        <time>2017-04-20T12:51:26Z</time>
      </trkpt>
      <trkpt lat="43.98589" lon="2.13127">
        <ele>250.5</ele>
        <time>2017-04-20T12:51:28Z</time>
      </trkpt>
      <trkpt lat="43.986" lon="2.13119">
        <ele>250.8</ele>
        <time>2017-04-20T12:51:30Z</time>
      </trkpt>
      <trkpt lat="43.9861" lon="2.13112">
        <ele>251</ele>
        <time>2017-04-20T12:51:32Z</time>
      </trkpt>
      <trkpt lat="43.9862" lon="2.13105">
        <ele>251.3</ele>
        <time>2017-04-20T12:51:34Z</time>
      </trkpt>
      <trkpt lat="43.9863" lon="2.13098">
        <ele>251.5</ele>
        <time>2017-04-20T12:51:36Z</time>
      </trkpt>
      <trkpt lat="43.98639" lon="2.13091">
        <ele>251.6</ele>
        <time>2017-04-20T12:51:38Z</time>
      </trkpt>
      <trkpt lat="43.98648" lon="2.13085">
        <ele>251.6</ele>
        <time>2017-04-20T12:51:40Z</time>
      </trkpt>
      <trkpt lat="43.98657" lon="2.13079">
        <ele>251.4</ele>
        <time>2017-04-20T12:51:42Z</time>
      </trkpt>
      <trkpt lat="43.98666" lon="2.13072">
        <ele>251.6</ele>
        <time>2017-04-20T12:51:44Z</time>
      </trkpt>
      <trkpt lat="43.98676" lon="2.13066">
        <ele>251.7</ele>
        <time>2017-04-20T12:51:46Z</time>
      </trkpt>
      <trkpt lat="43.98685" lon="2.13059">
        <ele>251.6</ele>
        <time>2017-04-20T12:51:48Z</time>
      </trkpt>
      <trkpt lat="43.98695" lon="2.13052">
        <ele>251.6</ele>
        <time>2017-04-20T12:51:50Z</time>
      </trkpt>
      <trkpt lat="43.98704" lon="2.13044">
        <ele>251.6</ele>
        <time>2017-04-20T12:51:52Z</time>
      </trkpt>
      <trkpt lat="43.98713" lon="2.13039">
        <ele>251.6</ele>
        <time>2017-04-20T12:51:54Z</time>
      </trkpt>
      <trkpt lat="43.98723" lon="2.13033">
        <ele>251.7</ele>
        <time>2017-04-20T12:51:56Z</time>
      </trkpt>
      <trkpt lat="43.98732" lon="2.13027">
        <ele>251.7</ele>
        <time>2017-04-20T12:51:58Z</time>
      </trkpt>
      <trkpt lat="43.98741" lon="2.13021">
        <ele>251.8</ele>
        <time>2017-04-20T12:52:00Z</time>
      </trkpt>
      <trkpt lat="43.9875" lon="2.13013">
        <ele>252.1</ele>
        <time>2017-04-20T12:52:02Z</time>
      </trkpt>
      <trkpt lat="43.98758" lon="2.13005">
        <ele>252.4</ele>
        <time>2017-04-20T12:52:04Z</time>
      </trkpt>
      <trkpt lat="43.98767" lon="2.12998">
        <ele>252.6</ele>
        <time>2017-04-20T12:52:06Z</time>
      </trkpt>
      <trkpt lat="43.98775" lon="2.12993">
        <ele>252.7</ele>
        <time>2017-04-20T12:52:08Z</time>
      </trkpt>
      <trkpt lat="43.98785" lon="2.12993">
        <ele>253</ele>
        <time>2017-04-20T12:52:10Z</time>
      </trkpt>
      <trkpt lat="43.98794" lon="2.12996">
        <ele>253.3</ele>
        <time>2017-04-20T12:52:12Z</time>
      </trkpt>
      <trkpt lat="43.98801" lon="2.13004">
        <ele>253.6</ele>
        <time>2017-04-20T12:52:14Z</time>
      </trkpt>
      <trkpt lat="43.98808" lon="2.13013">
        <ele>253.9</ele>
        <time>2017-04-20T12:52:16Z</time>
      </trkpt>
      <trkpt lat="43.98816" lon="2.13023">
        <ele>254.2</ele>
        <time>2017-04-20T12:52:18Z</time>
      </trkpt>
      <trkpt lat="43.98823" lon="2.13033">
        <ele>254.5</ele>
        <time>2017-04-20T12:52:20Z</time>
      </trkpt>
      <trkpt lat="43.98831" lon="2.13041">
        <ele>254.9</ele>
        <time>2017-04-20T12:52:22Z</time>
      </trkpt>
      <trkpt lat="43.9884" lon="2.13049">
        <ele>255</ele>
        <time>2017-04-20T12:52:24Z</time>
      </trkpt>
      <trkpt lat="43.9885" lon="2.13055">
        <ele>255</ele>
        <time>2017-04-20T12:52:26Z</time>
      </trkpt>
      <trkpt lat="43.9886" lon="2.13059">
        <ele>255</ele>
        <time>2017-04-20T12:52:28Z</time>
      </trkpt>
      <trkpt lat="43.9887" lon="2.13057">
        <ele>255</ele>
        <time>2017-04-20T12:52:30Z</time>
      </trkpt>
      <trkpt lat="43.9888" lon="2.1305">
        <ele>254.8</ele>
        <time>2017-04-20T12:52:32Z</time>
      </trkpt>
      <trkpt lat="43.9889" lon="2.13041">
        <ele>254.8</ele>
        <time>2017-04-20T12:52:34Z</time>
      </trkpt>
      <trkpt lat="43.989" lon="2.13031">
        <ele>255.5</ele>
        <time>2017-04-20T12:52:36Z</time>
      </trkpt>
      <trkpt lat="43.98908" lon="2.13021">
        <ele>256.8</ele>
        <time>2017-04-20T12:52:38Z</time>
      </trkpt>
      <trkpt lat="43.98917" lon="2.13011">
        <ele>258.1</ele>
        <time>2017-04-20T12:52:40Z</time>
      </trkpt>
      <trkpt lat="43.98925" lon="2.13">
        <ele>259.3</ele>
        <time>2017-04-20T12:52:42Z</time>
      </trkpt>
      <trkpt lat="43.98933" lon="2.1299">
        <ele>260.4</ele>
        <time>2017-04-20T12:52:44Z</time>
      </trkpt>
      <trkpt lat="43.98941" lon="2.12981">
        <ele>261.4</ele>
        <time>2017-04-20T12:52:46Z</time>
      </trkpt>
      <trkpt lat="43.98951" lon="2.12973">
        <ele>262.6</ele>
        <time>2017-04-20T12:52:48Z</time>
      </trkpt>
      <trkpt lat="43.98962" lon="2.12969">
        <ele>263.7</ele>
        <time>2017-04-20T12:52:50Z</time>
      </trkpt>
      <trkpt lat="43.98972" lon="2.12969">
        <ele>264.7</ele>
        <time>2017-04-20T12:52:52Z</time>
      </trkpt>
      <trkpt lat="43.98983" lon="2.12972">
        <ele>266.1</ele>
        <time>2017-04-20T12:52:54Z</time>
      </trkpt>
      <trkpt lat="43.98993" lon="2.12977">
        <ele>267.4</ele>
        <time>2017-04-20T12:52:56Z</time>
      </trkpt>
      <trkpt lat="43.99003" lon="2.12984">
        <ele>268.9</ele>
        <time>2017-04-20T12:52:58Z</time>
      </trkpt>
      <trkpt lat="43.99011" lon="2.12993">
        <ele>270.3</ele>
        <time>2017-04-20T12:53:00Z</time>
      </trkpt>
      <trkpt lat="43.99019" lon="2.13004">
        <ele>271.7</ele>
        <time>2017-04-20T12:53:02Z</time>
      </trkpt>
      <trkpt lat="43.99026" lon="2.13015">
        <ele>273.1</ele>
        <time>2017-04-20T12:53:04Z</time>
      </trkpt>
      <trkpt lat="43.99031" lon="2.13027">
        <ele>274.4</ele>
        <time>2017-04-20T12:53:06Z</time>
      </trkpt>
      <trkpt lat="43.99036" lon="2.1304">
        <ele>276</ele>
        <time>2017-04-20T12:53:08Z</time>
      </trkpt>
      <trkpt lat="43.9904" lon="2.13053">
        <ele>277.6</ele>
        <time>2017-04-20T12:53:10Z</time>
      </trkpt>
      <trkpt lat="43.99043" lon="2.13066">
        <ele>279.1</ele>
        <time>2017-04-20T12:53:12Z</time>
      </trkpt>
      <trkpt lat="43.99046" lon="2.13079">
        <ele>280.6</ele>
        <time>2017-04-20T12:53:14Z</time>
      </trkpt>
      <trkpt lat="43.99049" lon="2.13092">
        <ele>281.9</ele>
        <time>2017-04-20T12:53:16Z</time>
      </trkpt>
      <trkpt lat="43.99053" lon="2.13106">
        <ele>283.1</ele>
        <time>2017-04-20T12:53:18Z</time>
      </trkpt>
      <trkpt lat="43.99056" lon="2.13119">
        <ele>284.6</ele>
        <time>2017-04-20T12:53:20Z</time>
      </trkpt>
      <trkpt lat="43.99059" lon="2.13131">
        <ele>286.1</ele>
        <time>2017-04-20T12:53:22Z</time>
      </trkpt>
      <trkpt lat="43.99062" lon="2.13143">
        <ele>287.1</ele>
        <time>2017-04-20T12:53:24Z</time>
      </trkpt>
      <trkpt lat="43.99065" lon="2.13154">
        <ele>287.3</ele>
        <time>2017-04-20T12:53:26Z</time>
      </trkpt>
      <trkpt lat="43.99068" lon="2.13165">
        <ele>287.6</ele>
        <time>2017-04-20T12:53:28Z</time>
      </trkpt>
      <trkpt lat="43.99071" lon="2.13177">
        <ele>287.7</ele>
        <time>2017-04-20T12:53:30Z</time>
      </trkpt>
      <trkpt lat="43.99074" lon="2.1319">
        <ele>288</ele>
        <time>2017-04-20T12:53:32Z</time>
      </trkpt>
      <trkpt lat="43.99078" lon="2.13202">
        <ele>288.2</ele>
        <time>2017-04-20T12:53:34Z</time>
      </trkpt>
      <trkpt lat="43.99081" lon="2.13215">
        <ele>288.5</ele>
        <time>2017-04-20T12:53:36Z</time>
      </trkpt>
      <trkpt lat="43.99086" lon="2.13235">
        <ele>288.7</ele>
        <time>2017-04-20T12:53:40Z</time>
      </trkpt>
      <trkpt lat="43.99087" lon="2.13248">
        <ele>289</ele>
        <time>2017-04-20T12:53:41Z</time>
      </trkpt>
      <trkpt lat="43.99088" lon="2.13262">
        <ele>290.2</ele>
        <time>2017-04-20T12:53:43Z</time>
      </trkpt>
      <trkpt lat="43.9909" lon="2.13277">
        <ele>291.4</ele>
        <time>2017-04-20T12:53:45Z</time>
      </trkpt>
      <trkpt lat="43.99093" lon="2.13292">
        <ele>293.5</ele>
        <time>2017-04-20T12:53:47Z</time>
      </trkpt>
      <trkpt lat="43.99096" lon="2.13306">
        <ele>295.6</ele>
        <time>2017-04-20T12:53:49Z</time>
      </trkpt>
      <trkpt lat="43.99099" lon="2.13321">
        <ele>297</ele>
        <time>2017-04-20T12:53:51Z</time>
      </trkpt>
      <trkpt lat="43.99101" lon="2.13334">
        <ele>298</ele>
        <time>2017-04-20T12:53:53Z</time>
      </trkpt>
      <trkpt lat="43.99105" lon="2.13348">
        <ele>299.2</ele>
        <time>2017-04-20T12:53:55Z</time>
      </trkpt>
      <trkpt lat="43.99108" lon="2.13361">
        <ele>300.2</ele>
        <time>2017-04-20T12:53:57Z</time>
      </trkpt>
      <trkpt lat="43.99111" lon="2.13374">
        <ele>301.4</ele>
        <time>2017-04-20T12:53:59Z</time>
      </trkpt>
      <trkpt lat="43.99114" lon="2.13388">
        <ele>302.2</ele>
        <time>2017-04-20T12:54:01Z</time>
      </trkpt>
      <trkpt lat="43.99118" lon="2.13403">
        <ele>303.8</ele>
        <time>2017-04-20T12:54:03Z</time>
      </trkpt>
      <trkpt lat="43.99122" lon="2.13419">
        <ele>305.1</ele>
        <time>2017-04-20T12:54:05Z</time>
      </trkpt>
      <trkpt lat="43.99125" lon="2.13434">
        <ele>306</ele>
        <time>2017-04-20T12:54:07Z</time>
      </trkpt>
      <trkpt lat="43.99129" lon="2.13448">
        <ele>306.7</ele>
        <time>2017-04-20T12:54:09Z</time>
      </trkpt>
      <trkpt lat="43.99133" lon="2.13464">
        <ele>306.9</ele>
        <time>2017-04-20T12:54:11Z</time>
      </trkpt>
      <trkpt lat="43.99138" lon="2.13479">
        <ele>306.8</ele>
        <time>2017-04-20T12:54:13Z</time>
      </trkpt>
      <trkpt lat="43.99142" lon="2.13493">
        <ele>307</ele>
        <time>2017-04-20T12:54:15Z</time>
      </trkpt>
      <trkpt lat="43.99145" lon="2.13506">
        <ele>306.7</ele>
        <time>2017-04-20T12:54:17Z</time>
      </trkpt>
      <trkpt lat="43.99149" lon="2.1352">
        <ele>306.7</ele>
        <time>2017-04-20T12:54:19Z</time>
      </trkpt>
      <trkpt lat="43.99152" lon="2.13532">
        <ele>306.8</ele>
        <time>2017-04-20T12:54:21Z</time>
      </trkpt>
      <trkpt lat="43.99155" lon="2.13546">
        <ele>306.8</ele>
        <time>2017-04-20T12:54:23Z</time>
      </trkpt>
      <trkpt lat="43.9916" lon="2.1356">
        <ele>305.8</ele>
        <time>2017-04-20T12:54:25Z</time>
      </trkpt>
      <trkpt lat="43.99164" lon="2.13576">
        <ele>305.4</ele>
        <time>2017-04-20T12:54:27Z</time>
      </trkpt>
      <trkpt lat="43.9917" lon="2.13593">
        <ele>303.8</ele>
        <time>2017-04-20T12:54:29Z</time>
      </trkpt>
      <trkpt lat="43.99172" lon="2.13603">
        <ele>303.2</ele>
        <time>2017-04-20T12:54:30Z</time>
      </trkpt>
      <trkpt lat="43.99175" lon="2.13615">
        <ele>302.6</ele>
        <time>2017-04-20T12:54:31Z</time>
      </trkpt>
      <trkpt lat="43.99179" lon="2.13626">
        <ele>301.7</ele>
        <time>2017-04-20T12:54:32Z</time>
      </trkpt>
      <trkpt lat="43.99181" lon="2.13639">
        <ele>300.6</ele>
        <time>2017-04-20T12:54:33Z</time>
      </trkpt>
      <trkpt lat="43.99185" lon="2.13653">
        <ele>300.1</ele>
        <time>2017-04-20T12:54:34Z</time>
      </trkpt>
      <trkpt lat="43.99188" lon="2.13666">
        <ele>299.4</ele>
        <time>2017-04-20T12:54:35Z</time>
      </trkpt>
      <trkpt lat="43.99192" lon="2.13681">
        <ele>299.2</ele>
        <time>2017-04-20T12:54:36Z</time>
      </trkpt>
      <trkpt lat="43.99195" lon="2.13693">
        <ele>299</ele>
        <time>2017-04-20T12:54:37Z</time>
      </trkpt>
      <trkpt lat="43.99197" lon="2.13707">
        <ele>298.7</ele>
        <time>2017-04-20T12:54:38Z</time>
      </trkpt>
      <trkpt lat="43.99199" lon="2.13719">
        <ele>298.2</ele>
        <time>2017-04-20T12:54:39Z</time>
      </trkpt>
      <trkpt lat="43.99201" lon="2.13732">
        <ele>297.7</ele>
        <time>2017-04-20T12:54:40Z</time>
      </trkpt>
      <trkpt lat="43.99204" lon="2.13744">
        <ele>297.7</ele>
        <time>2017-04-20T12:54:41Z</time>
      </trkpt>
      <trkpt lat="43.99205" lon="2.13758">
        <ele>297.4</ele>
        <time>2017-04-20T12:54:42Z</time>
      </trkpt>
      <trkpt lat="43.99206" lon="2.1377">
        <ele>297</ele>
        <time>2017-04-20T12:54:43Z</time>
      </trkpt>
      <trkpt lat="43.99207" lon="2.13781">
        <ele>296.8</ele>
        <time>2017-04-20T12:54:44Z</time>
      </trkpt>
      <trkpt lat="43.99209" lon="2.13793">
        <ele>296.4</ele>
        <time>2017-04-20T12:54:45Z</time>
      </trkpt>
      <trkpt lat="43.99211" lon="2.13804">
        <ele>296.3</ele>
        <time>2017-04-20T12:54:46Z</time>
      </trkpt>
      <trkpt lat="43.99214" lon="2.13814">
        <ele>296.2</ele>
        <time>2017-04-20T12:54:47Z</time>
      </trkpt>
      <trkpt lat="43.99217" lon="2.13824">
        <ele>296.1</ele>
        <time>2017-04-20T12:54:48Z</time>
      </trkpt>
      <trkpt lat="43.99219" lon="2.13834">
        <ele>295.8</ele>
        <time>2017-04-20T12:54:49Z</time>
      </trkpt>
      <trkpt lat="43.99223" lon="2.13843">
        <ele>295.8</ele>
        <time>2017-04-20T12:54:50Z</time>
      </trkpt>
      <trkpt lat="43.99227" lon="2.13852">
        <ele>295.9</ele>
        <time>2017-04-20T12:54:51Z</time>
      </trkpt>
      <trkpt lat="43.99232" lon="2.1386">
        <ele>296.3</ele>
        <time>2017-04-20T12:54:52Z</time>
      </trkpt>
      <trkpt lat="43.9924" lon="2.13875">
        <ele>296.2</ele>
        <time>2017-04-20T12:54:54Z</time>
      </trkpt>
      <trkpt lat="43.99248" lon="2.13887">
        <ele>295.9</ele>
        <time>2017-04-20T12:54:56Z</time>
      </trkpt>
      <trkpt lat="43.99257" lon="2.13899">
        <ele>295.6</ele>
        <time>2017-04-20T12:54:58Z</time>
      </trkpt>
      <trkpt lat="43.99265" lon="2.13908">
        <ele>295.6</ele>
        <time>2017-04-20T12:55:00Z</time>
      </trkpt>
      <trkpt lat="43.99274" lon="2.13911">
        <ele>295.7</ele>
        <time>2017-04-20T12:55:02Z</time>
      </trkpt>
      <trkpt lat="43.99282" lon="2.13909">
        <ele>295.7</ele>
        <time>2017-04-20T12:55:04Z</time>
      </trkpt>
      <trkpt lat="43.99289" lon="2.13908">
        <ele>295.6</ele>
        <time>2017-04-20T12:55:06Z</time>
      </trkpt>
      <trkpt lat="43.99297" lon="2.13906">
        <ele>295.3</ele>
        <time>2017-04-20T12:55:08Z</time>
      </trkpt>
      <trkpt lat="43.99304" lon="2.13904">
        <ele>295</ele>
        <time>2017-04-20T12:55:10Z</time>
      </trkpt>
      <trkpt lat="43.99312" lon="2.139">
        <ele>295.2</ele>
        <time>2017-04-20T12:55:12Z</time>
      </trkpt>
      <trkpt lat="43.99321" lon="2.13895">
        <ele>295.8</ele>
        <time>2017-04-20T12:55:14Z</time>
      </trkpt>
      <trkpt lat="43.9933" lon="2.13888">
        <ele>296.3</ele>
        <time>2017-04-20T12:55:16Z</time>
      </trkpt>
      <trkpt lat="43.99339" lon="2.13879">
        <ele>296.6</ele>
        <time>2017-04-20T12:55:18Z</time>
      </trkpt>
      <trkpt lat="43.99345" lon="2.13869">
        <ele>297.1</ele>
        <time>2017-04-20T12:55:20Z</time>
      </trkpt>
      <trkpt lat="43.99351" lon="2.13857">
        <ele>297.4</ele>
        <time>2017-04-20T12:55:22Z</time>
      </trkpt>
      <trkpt lat="43.99357" lon="2.13844">
        <ele>297.8</ele>
        <time>2017-04-20T12:55:24Z</time>
      </trkpt>
      <trkpt lat="43.99362" lon="2.13833">
        <ele>297.8</ele>
        <time>2017-04-20T12:55:26Z</time>
      </trkpt>
      <trkpt lat="43.99368" lon="2.13821">
        <ele>298.6</ele>
        <time>2017-04-20T12:55:28Z</time>
      </trkpt>
      <trkpt lat="43.99375" lon="2.1381">
        <ele>299.1</ele>
        <time>2017-04-20T12:55:30Z</time>
      </trkpt>
      <trkpt lat="43.99383" lon="2.138">
        <ele>299.6</ele>
        <time>2017-04-20T12:55:32Z</time>
      </trkpt>
      <trkpt lat="43.99392" lon="2.13795">
        <ele>300</ele>
        <time>2017-04-20T12:55:34Z</time>
      </trkpt>
      <trkpt lat="43.99402" lon="2.13793">
        <ele>300.5</ele>
        <time>2017-04-20T12:55:36Z</time>
      </trkpt>
      <trkpt lat="43.99412" lon="2.13792">
        <ele>300.7</ele>
        <time>2017-04-20T12:55:38Z</time>
      </trkpt>
      <trkpt lat="43.99422" lon="2.13793">
        <ele>301.2</ele>
        <time>2017-04-20T12:55:40Z</time>
      </trkpt>
      <trkpt lat="43.99432" lon="2.13796">
        <ele>302</ele>
        <time>2017-04-20T12:55:42Z</time>
      </trkpt>
      <trkpt lat="43.99442" lon="2.138">
        <ele>302.4</ele>
        <time>2017-04-20T12:55:44Z</time>
      </trkpt>
      <trkpt lat="43.99451" lon="2.13806">
        <ele>302.7</ele>
        <time>2017-04-20T12:55:46Z</time>
      </trkpt>
      <trkpt lat="43.9946" lon="2.13813">
        <ele>302.6</ele>
        <time>2017-04-20T12:55:48Z</time>
      </trkpt>
      <trkpt lat="43.99468" lon="2.13822">
        <ele>303.2</ele>
        <time>2017-04-20T12:55:50Z</time>
      </trkpt>
      <trkpt lat="43.99474" lon="2.13834">
        <ele>303.8</ele>
        <time>2017-04-20T12:55:52Z</time>
      </trkpt>
      <trkpt lat="43.9948" lon="2.13846">
        <ele>304.6</ele>
        <time>2017-04-20T12:55:54Z</time>
      </trkpt>
      <trkpt lat="43.99487" lon="2.13858">
        <ele>305</ele>
        <time>2017-04-20T12:55:56Z</time>
      </trkpt>
      <trkpt lat="43.99494" lon="2.13869">
        <ele>305.7</ele>
        <time>2017-04-20T12:55:58Z</time>
      </trkpt>
      <trkpt lat="43.99501" lon="2.13879">
        <ele>306.2</ele>
        <time>2017-04-20T12:56:00Z</time>
      </trkpt>
      <trkpt lat="43.99508" lon="2.1389">
        <ele>306.7</ele>
        <time>2017-04-20T12:56:02Z</time>
      </trkpt>
      <trkpt lat="43.99513" lon="2.13902">
        <ele>306.9</ele>
        <time>2017-04-20T12:56:04Z</time>
      </trkpt>
      <trkpt lat="43.99517" lon="2.13914">
        <ele>307.2</ele>
        <time>2017-04-20T12:56:06Z</time>
      </trkpt>
      <trkpt lat="43.99522" lon="2.13927">
        <ele>307.7</ele>
        <time>2017-04-20T12:56:08Z</time>
      </trkpt>
      <trkpt lat="43.99527" lon="2.1394">
        <ele>308.3</ele>
        <time>2017-04-20T12:56:10Z</time>
      </trkpt>
      <trkpt lat="43.99532" lon="2.13952">
        <ele>308.9</ele>
        <time>2017-04-20T12:56:12Z</time>
      </trkpt>
      <trkpt lat="43.99538" lon="2.13965">
        <ele>309.6</ele>
        <time>2017-04-20T12:56:14Z</time>
      </trkpt>
      <trkpt lat="43.99546" lon="2.13974">
        <ele>310.3</ele>
        <time>2017-04-20T12:56:16Z</time>
      </trkpt>
      <trkpt lat="43.99557" lon="2.13976">
        <ele>310.4</ele>
        <time>2017-04-20T12:56:18Z</time>
      </trkpt>
      <trkpt lat="43.99567" lon="2.13974">
        <ele>310.6</ele>
        <time>2017-04-20T12:56:20Z</time>
      </trkpt>
      <trkpt lat="43.99576" lon="2.13967">
        <ele>310.9</ele>
        <time>2017-04-20T12:56:22Z</time>
      </trkpt>
      <trkpt lat="43.99583" lon="2.13956">
        <ele>311.2</ele>
        <time>2017-04-20T12:56:24Z</time>
      </trkpt>
      <trkpt lat="43.99589" lon="2.13943">
        <ele>311.5</ele>
        <time>2017-04-20T12:56:26Z</time>
      </trkpt>
      <trkpt lat="43.99595" lon="2.13931">
        <ele>311.8</ele>
        <time>2017-04-20T12:56:28Z</time>
      </trkpt>
      <trkpt lat="43.99601" lon="2.13919">
        <ele>311.9</ele>
        <time>2017-04-20T12:56:30Z</time>
      </trkpt>
      <trkpt lat="43.99607" lon="2.13907">
        <ele>311.9</ele>
        <time>2017-04-20T12:56:32Z</time>
      </trkpt>
      <trkpt lat="43.99613" lon="2.13896">
        <ele>311.9</ele>
        <time>2017-04-20T12:56:34Z</time>
      </trkpt>
      <trkpt lat="43.9962" lon="2.13884">
        <ele>311.9</ele>
        <time>2017-04-20T12:56:36Z</time>
      </trkpt>
      <trkpt lat="43.99627" lon="2.13873">
        <ele>311.8</ele>
        <time>2017-04-20T12:56:38Z</time>
      </trkpt>
      <trkpt lat="43.99635" lon="2.13862">
        <ele>311.7</ele>
        <time>2017-04-20T12:56:40Z</time>
      </trkpt>
      <trkpt lat="43.99642" lon="2.1385">
        <ele>311.6</ele>
        <time>2017-04-20T12:56:42Z</time>
      </trkpt>
      <trkpt lat="43.99649" lon="2.13839">
        <ele>311.4</ele>
        <time>2017-04-20T12:56:44Z</time>
      </trkpt>
      <trkpt lat="43.99657" lon="2.13828">
        <ele>311.2</ele>
        <time>2017-04-20T12:56:46Z</time>
      </trkpt>
      <trkpt lat="43.99667" lon="2.13823">
        <ele>310.9</ele>
        <time>2017-04-20T12:56:48Z</time>
      </trkpt>
      <trkpt lat="43.99677" lon="2.13819">
        <ele>310.3</ele>
        <time>2017-04-20T12:56:50Z</time>
      </trkpt>
      <trkpt lat="43.99684" lon="2.13809">
        <ele>309.7</ele>
        <time>2017-04-20T12:56:52Z</time>
      </trkpt>
      <trkpt lat="43.99692" lon="2.138">
        <ele>309.4</ele>
        <time>2017-04-20T12:56:54Z</time>
      </trkpt>
      <trkpt lat="43.99701" lon="2.13799">
        <ele>308.1</ele>
        <time>2017-04-20T12:56:56Z</time>
      </trkpt>
      <trkpt lat="43.99712" lon="2.13799">
        <ele>306.9</ele>
        <time>2017-04-20T12:56:58Z</time>
      </trkpt>
      <trkpt lat="43.99721" lon="2.13793">
        <ele>306.3</ele>
        <time>2017-04-20T12:57:00Z</time>
      </trkpt>
      <trkpt lat="43.99729" lon="2.13788">
        <ele>305.9</ele>
        <time>2017-04-20T12:57:02Z</time>
      </trkpt>
      <trkpt lat="43.99738" lon="2.13786">
        <ele>305.8</ele>
        <time>2017-04-20T12:57:04Z</time>
      </trkpt>
      <trkpt lat="43.99749" lon="2.13787">
        <ele>305.8</ele>
        <time>2017-04-20T12:57:06Z</time>
      </trkpt>
      <trkpt lat="43.99761" lon="2.13786">
        <ele>305.5</ele>
        <time>2017-04-20T12:57:08Z</time>
      </trkpt>
      <trkpt lat="43.99772" lon="2.13786">
        <ele>305.2</ele>
        <time>2017-04-20T12:57:10Z</time>
      </trkpt>
      <trkpt lat="43.99784" lon="2.13786">
        <ele>304.9</ele>
        <time>2017-04-20T12:57:12Z</time>
      </trkpt>
      <trkpt lat="43.99795" lon="2.13785">
        <ele>305</ele>
        <time>2017-04-20T12:57:14Z</time>
      </trkpt>
      <trkpt lat="43.99807" lon="2.13785">
        <ele>305</ele>
        <time>2017-04-20T12:57:16Z</time>
      </trkpt>
      <trkpt lat="43.99817" lon="2.13784">
        <ele>305.5</ele>
        <time>2017-04-20T12:57:18Z</time>
      </trkpt>
      <trkpt lat="43.99829" lon="2.13784">
        <ele>305.8</ele>
        <time>2017-04-20T12:57:20Z</time>
      </trkpt>
      <trkpt lat="43.99839" lon="2.13784">
        <ele>305.8</ele>
        <time>2017-04-20T12:57:22Z</time>
      </trkpt>
      <trkpt lat="43.99851" lon="2.13784">
        <ele>305.3</ele>
        <time>2017-04-20T12:57:24Z</time>
      </trkpt>
      <trkpt lat="43.99862" lon="2.13784">
        <ele>304.6</ele>
        <time>2017-04-20T12:57:26Z</time>
      </trkpt>
      <trkpt lat="43.99874" lon="2.13782">
        <ele>304.2</ele>
        <time>2017-04-20T12:57:28Z</time>
      </trkpt>
      <trkpt lat="43.99886" lon="2.13782">
        <ele>303.6</ele>
        <time>2017-04-20T12:57:30Z</time>
      </trkpt>
      <trkpt lat="43.99898" lon="2.13781">
        <ele>303.2</ele>
        <time>2017-04-20T12:57:32Z</time>
      </trkpt>
      <trkpt lat="43.9991" lon="2.13781">
        <ele>302.5</ele>
        <time>2017-04-20T12:57:34Z</time>
      </trkpt>
      <trkpt lat="43.99922" lon="2.1378">
        <ele>302.4</ele>
        <time>2017-04-20T12:57:36Z</time>
      </trkpt>
      <trkpt lat="43.99934" lon="2.13779">
        <ele>302.6</ele>
        <time>2017-04-20T12:57:38Z</time>
      </trkpt>
      <trkpt lat="43.99945" lon="2.13778">
        <ele>302.5</ele>
        <time>2017-04-20T12:57:40Z</time>
      </trkpt>
      <trkpt lat="43.99958" lon="2.13778">
        <ele>302.8</ele>
        <time>2017-04-20T12:57:42Z</time>
      </trkpt>
      <trkpt lat="43.99969" lon="2.13777">
        <ele>303</ele>
        <time>2017-04-20T12:57:44Z</time>
      </trkpt>
      <trkpt lat="43.99982" lon="2.13777">
        <ele>302.9</ele>
        <time>2017-04-20T12:57:46Z</time>
      </trkpt>
      <trkpt lat="43.99994" lon="2.13777">
        <ele>302.6</ele>
        <time>2017-04-20T12:57:48Z</time>
      </trkpt>
      <trkpt lat="44.00005" lon="2.13777">
        <ele>302.7</ele>
        <time>2017-04-20T12:57:50Z</time>
      </trkpt>
      <trkpt lat="44.00016" lon="2.13776">
        <ele>302.9</ele>
        <time>2017-04-20T12:57:52Z</time>
      </trkpt>
      <trkpt lat="44.00027" lon="2.13775">
        <ele>303.1</ele>
        <time>2017-04-20T12:57:54Z</time>
      </trkpt>
      <trkpt lat="44.00039" lon="2.13774">
        <ele>303.5</ele>
        <time>2017-04-20T12:57:56Z</time>
      </trkpt>
      <trkpt lat="44.0005" lon="2.13773">
        <ele>303.4</ele>
        <time>2017-04-20T12:57:58Z</time>
      </trkpt>
      <trkpt lat="44.00062" lon="2.13773">
        <ele>302.7</ele>
        <time>2017-04-20T12:58:00Z</time>
      </trkpt>
      <trkpt lat="44.00075" lon="2.13773">
        <ele>301.8</ele>
        <time>2017-04-20T12:58:02Z</time>
      </trkpt>
      <trkpt lat="44.00087" lon="2.13772">
        <ele>301.2</ele>
        <time>2017-04-20T12:58:04Z</time>
      </trkpt>
      <trkpt lat="44.001" lon="2.13771">
        <ele>300.2</ele>
        <time>2017-04-20T12:58:06Z</time>
      </trkpt>
      <trkpt lat="44.00114" lon="2.1377">
        <ele>299</ele>
        <time>2017-04-20T12:58:08Z</time>
      </trkpt>
      <trkpt lat="44.00128" lon="2.1377">
        <ele>298.1</ele>
        <time>2017-04-20T12:58:10Z</time>
      </trkpt>
      <trkpt lat="44.00142" lon="2.1377">
        <ele>297.2</ele>
        <time>2017-04-20T12:58:12Z</time>
      </trkpt>
      <trkpt lat="44.00155" lon="2.1377">
        <ele>296.7</ele>
        <time>2017-04-20T12:58:14Z</time>
      </trkpt>
      <trkpt lat="44.00167" lon="2.13769">
        <ele>297.3</ele>
        <time>2017-04-20T12:58:16Z</time>
      </trkpt>
      <trkpt lat="44.0018" lon="2.13768">
        <ele>297.9</ele>
        <time>2017-04-20T12:58:18Z</time>
      </trkpt>
      <trkpt lat="44.00192" lon="2.13769">
        <ele>297.7</ele>
        <time>2017-04-20T12:58:20Z</time>
      </trkpt>
      <trkpt lat="44.00204" lon="2.13768">
        <ele>298.5</ele>
        <time>2017-04-20T12:58:22Z</time>
      </trkpt>
      <trkpt lat="44.00216" lon="2.13768">
        <ele>299.2</ele>
        <time>2017-04-20T12:58:24Z</time>
      </trkpt>
      <trkpt lat="44.00228" lon="2.13767">
        <ele>299.7</ele>
        <time>2017-04-20T12:58:26Z</time>
      </trkpt>
      <trkpt lat="44.0024" lon="2.13766">
        <ele>300</ele>
        <time>2017-04-20T12:58:28Z</time>
      </trkpt>
      <trkpt lat="44.00251" lon="2.13766">
        <ele>300.3</ele>
        <time>2017-04-20T12:58:30Z</time>
      </trkpt>
      <trkpt lat="44.00262" lon="2.13769">
        <ele>299.9</ele>
        <time>2017-04-20T12:58:32Z</time>
      </trkpt>
      <trkpt lat="44.00267" lon="2.13779">
        <ele>300.3</ele>
        <time>2017-04-20T12:58:34Z</time>
      </trkpt>
      <trkpt lat="44.00269" lon="2.13793">
        <ele>300.8</ele>
        <time>2017-04-20T12:58:37Z</time>
      </trkpt>
      <trkpt lat="44.00271" lon="2.13805">
        <ele>301.2</ele>
        <time>2017-04-20T12:58:40Z</time>
      </trkpt>
      <trkpt lat="44.00274" lon="2.13818">
        <ele>301.5</ele>
        <time>2017-04-20T12:58:43Z</time>
      </trkpt>
      <trkpt lat="44.00276" lon="2.13829">
        <ele>302</ele>
        <time>2017-04-20T12:58:46Z</time>
      </trkpt>
      <trkpt lat="44.00285" lon="2.13838">
        <ele>302.5</ele>
        <time>2017-04-20T12:58:49Z</time>
      </trkpt>
      <trkpt lat="44.00291" lon="2.13842">
        <ele>303.3</ele>
        <time>2017-04-20T12:58:51Z</time>
      </trkpt>
      <trkpt lat="44.00298" lon="2.13849">
        <ele>303.8</ele>
        <time>2017-04-20T12:58:53Z</time>
      </trkpt>
      <trkpt lat="44.00305" lon="2.13854">
        <ele>304.7</ele>
        <time>2017-04-20T12:58:55Z</time>
      </trkpt>
      <trkpt lat="44.00313" lon="2.13857">
        <ele>305.5</ele>
        <time>2017-04-20T12:58:57Z</time>
      </trkpt>
      <trkpt lat="44.00322" lon="2.13858">
        <ele>305.5</ele>
        <time>2017-04-20T12:58:59Z</time>
      </trkpt>
      <trkpt lat="44.0033" lon="2.13856">
        <ele>305.1</ele>
        <time>2017-04-20T12:59:01Z</time>
      </trkpt>
      <trkpt lat="44.00337" lon="2.13854">
        <ele>304.9</ele>
        <time>2017-04-20T12:59:03Z</time>
      </trkpt>
      <trkpt lat="44.00345" lon="2.13852">
        <ele>304.5</ele>
        <time>2017-04-20T12:59:05Z</time>
      </trkpt>
      <trkpt lat="44.00353" lon="2.13852">
        <ele>304</ele>
        <time>2017-04-20T12:59:07Z</time>
      </trkpt>
      <trkpt lat="44.00363" lon="2.13851">
        <ele>304.2</ele>
        <time>2017-04-20T12:59:10Z</time>
      </trkpt>
      <trkpt lat="44.00373" lon="2.13851">
        <ele>304.3</ele>
        <time>2017-04-20T12:59:14Z</time>
      </trkpt>
      <trkpt lat="44.00382" lon="2.13851">
        <ele>304.8</ele>
        <time>2017-04-20T12:59:17Z</time>
      </trkpt>
      <trkpt lat="44.0039" lon="2.13848">
        <ele>305.4</ele>
        <time>2017-04-20T12:59:21Z</time>
      </trkpt>
      <trkpt lat="44.00399" lon="2.13842">
        <ele>306.4</ele>
        <time>2017-04-20T12:59:24Z</time>
      </trkpt>
      <trkpt lat="44.00404" lon="2.13833">
        <ele>306.5</ele>
        <time>2017-04-20T12:59:26Z</time>
      </trkpt>
      <trkpt lat="44.00406" lon="2.13822">
        <ele>306.6</ele>
        <time>2017-04-20T12:59:28Z</time>
      </trkpt>
      <trkpt lat="44.00409" lon="2.1381">
        <ele>306.6</ele>
        <time>2017-04-20T12:59:30Z</time>
      </trkpt>
      <trkpt lat="44.00413" lon="2.13799">
        <ele>306.1</ele>
        <time>2017-04-20T12:59:32Z</time>
      </trkpt>
      <trkpt lat="44.00417" lon="2.13789">
        <ele>306</ele>
        <time>2017-04-20T12:59:34Z</time>
      </trkpt>
      <trkpt lat="44.00425" lon="2.13784">
        <ele>306</ele>
        <time>2017-04-20T12:59:36Z</time>
      </trkpt>
      <trkpt lat="44.00434" lon="2.1378">
        <ele>305.6</ele>
        <time>2017-04-20T12:59:38Z</time>
      </trkpt>
      <trkpt lat="44.00443" lon="2.13778">
        <ele>305.4</ele>
        <time>2017-04-20T12:59:40Z</time>
      </trkpt>
      <trkpt lat="44.00453" lon="2.13771">
        <ele>304.8</ele>
        <time>2017-04-20T12:59:42Z</time>
      </trkpt>
      <trkpt lat="44.00464" lon="2.13766">
        <ele>303.9</ele>
        <time>2017-04-20T12:59:44Z</time>
      </trkpt>
      <trkpt lat="44.00477" lon="2.13763">
        <ele>302.7</ele>
        <time>2017-04-20T12:59:46Z</time>
      </trkpt>
      <trkpt lat="44.00491" lon="2.13762">
        <ele>301.3</ele>
        <time>2017-04-20T12:59:48Z</time>
      </trkpt>
      <trkpt lat="44.00498" lon="2.13762">
        <ele>300.9</ele>
        <time>2017-04-20T12:59:49Z</time>
      </trkpt>
      <trkpt lat="44.00513" lon="2.1376">
        <ele>300.6</ele>
        <time>2017-04-20T12:59:51Z</time>
      </trkpt>
      <trkpt lat="44.00527" lon="2.1376">
        <ele>300.8</ele>
        <time>2017-04-20T12:59:53Z</time>
      </trkpt>
      <trkpt lat="44.0054" lon="2.13759">
        <ele>300.8</ele>
        <time>2017-04-20T12:59:55Z</time>
      </trkpt>
      <trkpt lat="44.00553" lon="2.13759">
        <ele>300.7</ele>
        <time>2017-04-20T12:59:57Z</time>
      </trkpt>
      <trkpt lat="44.00565" lon="2.1376">
        <ele>300.8</ele>
        <time>2017-04-20T12:59:59Z</time>
      </trkpt>
      <trkpt lat="44.00578" lon="2.1376">
        <ele>300.9</ele>
        <time>2017-04-20T13:00:01Z</time>
      </trkpt>
      <trkpt lat="44.00591" lon="2.13761">
        <ele>301.1</ele>
        <time>2017-04-20T13:00:03Z</time>
      </trkpt>
      <trkpt lat="44.00602" lon="2.13762">
        <ele>301.6</ele>
        <time>2017-04-20T13:00:05Z</time>
      </trkpt>
      <trkpt lat="44.00613" lon="2.13762">
        <ele>301.6</ele>
        <time>2017-04-20T13:00:07Z</time>
      </trkpt>
      <trkpt lat="44.00624" lon="2.13762">
        <ele>301.6</ele>
        <time>2017-04-20T13:00:09Z</time>
      </trkpt>
      <trkpt lat="44.00634" lon="2.13764">
        <ele>301.4</ele>
        <time>2017-04-20T13:00:11Z</time>
      </trkpt>
      <trkpt lat="44.00646" lon="2.13765">
        <ele>301.5</ele>
        <time>2017-04-20T13:00:13Z</time>
      </trkpt>
      <trkpt lat="44.00656" lon="2.13766">
        <ele>301.2</ele>
        <time>2017-04-20T13:00:15Z</time>
      </trkpt>
      <trkpt lat="44.00668" lon="2.13766">
        <ele>301.4</ele>
        <time>2017-04-20T13:00:17Z</time>
      </trkpt>
      <trkpt lat="44.00678" lon="2.1377">
        <ele>301.1</ele>
        <time>2017-04-20T13:00:19Z</time>
      </trkpt>
      <trkpt lat="44.00685" lon="2.13777">
        <ele>300.7</ele>
        <time>2017-04-20T13:00:21Z</time>
      </trkpt>
      <trkpt lat="44.00696" lon="2.13771">
        <ele>301.1</ele>
        <time>2017-04-20T13:00:24Z</time>
      </trkpt>
      <trkpt lat="44.00705" lon="2.13769">
        <ele>300.2</ele>
        <time>2017-04-20T13:00:26Z</time>
      </trkpt>
      <trkpt lat="44.00716" lon="2.1377">
        <ele>301.2</ele>
        <time>2017-04-20T13:00:28Z</time>
      </trkpt>
      <trkpt lat="44.00726" lon="2.13771">
        <ele>301.6</ele>
        <time>2017-04-20T13:00:30Z</time>
      </trkpt>
      <trkpt lat="44.00736" lon="2.13774">
        <ele>302.4</ele>
        <time>2017-04-20T13:00:32Z</time>
      </trkpt>
      <trkpt lat="44.00746" lon="2.1378">
        <ele>303.4</ele>
        <time>2017-04-20T13:00:34Z</time>
      </trkpt>
      <trkpt lat="44.00756" lon="2.13784">
        <ele>305</ele>
        <time>2017-04-20T13:00:36Z</time>
      </trkpt>
      <trkpt lat="44.00765" lon="2.13787">
        <ele>305.2</ele>
        <time>2017-04-20T13:00:38Z</time>
      </trkpt>
      <trkpt lat="44.00773" lon="2.13793">
        <ele>306.1</ele>
        <time>2017-04-20T13:00:40Z</time>
      </trkpt>
      <trkpt lat="44.00779" lon="2.13799">
        <ele>306.9</ele>
        <time>2017-04-20T13:00:42Z</time>
      </trkpt>
      <trkpt lat="44.00786" lon="2.13803">
        <ele>306.6</ele>
        <time>2017-04-20T13:00:44Z</time>
      </trkpt>
      <trkpt lat="44.00794" lon="2.13804">
        <ele>306.3</ele>
        <time>2017-04-20T13:00:46Z</time>
      </trkpt>
      <trkpt lat="44.00802" lon="2.13803">
        <ele>305.5</ele>
        <time>2017-04-20T13:00:48Z</time>
      </trkpt>
      <trkpt lat="44.00811" lon="2.13804">
        <ele>304.5</ele>
        <time>2017-04-20T13:00:50Z</time>
      </trkpt>
      <trkpt lat="44.00818" lon="2.13807">
        <ele>305.6</ele>
        <time>2017-04-20T13:00:52Z</time>
      </trkpt>
      <trkpt lat="44.00826" lon="2.13811">
        <ele>306</ele>
        <time>2017-04-20T13:00:54Z</time>
      </trkpt>
      <trkpt lat="44.00834" lon="2.13812">
        <ele>305.6</ele>
        <time>2017-04-20T13:00:56Z</time>
      </trkpt>
      <trkpt lat="44.00843" lon="2.1381">
        <ele>305.4</ele>
        <time>2017-04-20T13:00:58Z</time>
      </trkpt>
      <trkpt lat="44.00851" lon="2.13808">
        <ele>304.9</ele>
        <time>2017-04-20T13:01:00Z</time>
      </trkpt>
      <trkpt lat="44.0086" lon="2.13807">
        <ele>304.8</ele>
        <time>2017-04-20T13:01:02Z</time>
      </trkpt>
      <trkpt lat="44.00869" lon="2.13805">
        <ele>304.6</ele>
        <time>2017-04-20T13:01:04Z</time>
      </trkpt>
      <trkpt lat="44.00878" lon="2.13801">
        <ele>304.7</ele>
        <time>2017-04-20T13:01:06Z</time>
      </trkpt>
      <trkpt lat="44.00887" lon="2.13801">
        <ele>305.5</ele>
        <time>2017-04-20T13:01:08Z</time>
      </trkpt>
      <trkpt lat="44.00897" lon="2.13804">
        <ele>306.2</ele>
        <time>2017-04-20T13:01:10Z</time>
      </trkpt>
      <trkpt lat="44.00906" lon="2.13806">
        <ele>306.6</ele>
        <time>2017-04-20T13:01:12Z</time>
      </trkpt>
      <trkpt lat="44.00916" lon="2.13807">
        <ele>307.2</ele>
        <time>2017-04-20T13:01:14Z</time>
      </trkpt>
      <trkpt lat="44.00925" lon="2.13809">
        <ele>307.9</ele>
        <time>2017-04-20T13:01:16Z</time>
      </trkpt>
      <trkpt lat="44.00934" lon="2.13811">
        <ele>308.5</ele>
        <time>2017-04-20T13:01:18Z</time>
      </trkpt>
      <trkpt lat="44.00944" lon="2.13813">
        <ele>308.5</ele>
        <time>2017-04-20T13:01:20Z</time>
      </trkpt>
      <trkpt lat="44.00952" lon="2.13815">
        <ele>309</ele>
        <time>2017-04-20T13:01:22Z</time>
      </trkpt>
      <trkpt lat="44.00961" lon="2.13819">
        <ele>310.5</ele>
        <time>2017-04-20T13:01:24Z</time>
      </trkpt>
      <trkpt lat="44.00969" lon="2.13822">
        <ele>311.8</ele>
        <time>2017-04-20T13:01:26Z</time>
      </trkpt>
      <trkpt lat="44.00978" lon="2.13825">
        <ele>313.4</ele>
        <time>2017-04-20T13:01:29Z</time>
      </trkpt>
      <trkpt lat="44.00988" lon="2.13826">
        <ele>313.6</ele>
        <time>2017-04-20T13:01:32Z</time>
      </trkpt>
      <trkpt lat="44.00996" lon="2.13827">
        <ele>313.7</ele>
        <time>2017-04-20T13:01:34Z</time>
      </trkpt>
      <trkpt lat="44.01006" lon="2.13828">
        <ele>314.1</ele>
        <time>2017-04-20T13:01:37Z</time>
      </trkpt>
      <trkpt lat="44.01017" lon="2.1383">
        <ele>314.5</ele>
        <time>2017-04-20T13:01:40Z</time>
      </trkpt>
      <trkpt lat="44.01027" lon="2.13831">
        <ele>314.7</ele>
        <time>2017-04-20T13:01:43Z</time>
      </trkpt>
      <trkpt lat="44.01038" lon="2.13833">
        <ele>315.1</ele>
        <time>2017-04-20T13:01:46Z</time>
      </trkpt>
      <trkpt lat="44.01046" lon="2.13835">
        <ele>316.8</ele>
        <time>2017-04-20T13:01:49Z</time>
      </trkpt>
      <trkpt lat="44.01053" lon="2.13841">
        <ele>317.7</ele>
        <time>2017-04-20T13:01:52Z</time>
      </trkpt>
      <trkpt lat="44.01046" lon="2.13848">
        <ele>319.1</ele>
        <time>2017-04-20T13:01:55Z</time>
      </trkpt>
      <trkpt lat="44.01035" lon="2.13849">
        <ele>319.2</ele>
        <time>2017-04-20T13:01:58Z</time>
      </trkpt>
      <trkpt lat="44.01028" lon="2.13848">
        <ele>319.3</ele>
        <time>2017-04-20T13:02:00Z</time>
      </trkpt>
      <trkpt lat="44.01021" lon="2.13847">
        <ele>319.1</ele>
        <time>2017-04-20T13:02:02Z</time>
      </trkpt>
      <trkpt lat="44.01012" lon="2.13846">
        <ele>318.9</ele>
        <time>2017-04-20T13:02:04Z</time>
      </trkpt>
      <trkpt lat="44.01004" lon="2.13846">
        <ele>319</ele>
        <time>2017-04-20T13:02:06Z</time>
      </trkpt>
      <trkpt lat="44.00996" lon="2.13844">
        <ele>319</ele>
        <time>2017-04-20T13:02:08Z</time>
      </trkpt>
      <trkpt lat="44.00989" lon="2.13846">
        <ele>319.2</ele>
        <time>2017-04-20T13:02:10Z</time>
      </trkpt>
      <trkpt lat="44.00991" lon="2.13858">
        <ele>319.8</ele>
        <time>2017-04-20T13:02:13Z</time>
      </trkpt>
      <trkpt lat="44.00999" lon="2.13861">
        <ele>320.3</ele>
        <time>2017-04-20T13:02:15Z</time>
      </trkpt>
      <trkpt lat="44.01007" lon="2.13865">
        <ele>321.2</ele>
        <time>2017-04-20T13:02:17Z</time>
      </trkpt>
      <trkpt lat="44.01015" lon="2.13868">
        <ele>321.8</ele>
        <time>2017-04-20T13:02:19Z</time>
      </trkpt>
      <trkpt lat="44.01023" lon="2.13871">
        <ele>322.7</ele>
        <time>2017-04-20T13:02:21Z</time>
      </trkpt>
      <trkpt lat="44.01031" lon="2.13875">
        <ele>323.1</ele>
        <time>2017-04-20T13:02:23Z</time>
      </trkpt>
      <trkpt lat="44.01039" lon="2.13877">
        <ele>323.8</ele>
        <time>2017-04-20T13:02:25Z</time>
      </trkpt>
      <trkpt lat="44.01047" lon="2.13878">
        <ele>324.3</ele>
        <time>2017-04-20T13:02:27Z</time>
      </trkpt>
      <trkpt lat="44.01055" lon="2.1388">
        <ele>324.9</ele>
        <time>2017-04-20T13:02:29Z</time>
      </trkpt>
      <trkpt lat="44.01064" lon="2.13883">
        <ele>325.3</ele>
        <time>2017-04-20T13:02:31Z</time>
      </trkpt>
      <trkpt lat="44.01072" lon="2.13885">
        <ele>325.9</ele>
        <time>2017-04-20T13:02:33Z</time>
      </trkpt>
      <trkpt lat="44.0108" lon="2.13887">
        <ele>326.4</ele>
        <time>2017-04-20T13:02:35Z</time>
      </trkpt>
      <trkpt lat="44.01089" lon="2.13888">
        <ele>327.1</ele>
        <time>2017-04-20T13:02:37Z</time>
      </trkpt>
      <trkpt lat="44.01097" lon="2.1389">
        <ele>327.6</ele>
        <time>2017-04-20T13:02:39Z</time>
      </trkpt>
      <trkpt lat="44.01104" lon="2.13896">
        <ele>328.4</ele>
        <time>2017-04-20T13:02:41Z</time>
      </trkpt>
      <trkpt lat="44.0111" lon="2.13905">
        <ele>329.1</ele>
        <time>2017-04-20T13:02:43Z</time>
      </trkpt>
      <trkpt lat="44.01111" lon="2.13917">
        <ele>329.7</ele>
        <time>2017-04-20T13:02:45Z</time>
      </trkpt>
      <trkpt lat="44.0111" lon="2.13929">
        <ele>330.1</ele>
        <time>2017-04-20T13:02:47Z</time>
      </trkpt>
      <trkpt lat="44.01107" lon="2.1394">
        <ele>330.6</ele>
        <time>2017-04-20T13:02:49Z</time>
      </trkpt>
      <trkpt lat="44.01103" lon="2.13951">
        <ele>330.8</ele>
        <time>2017-04-20T13:02:51Z</time>
      </trkpt>
      <trkpt lat="44.01097" lon="2.1396">
        <ele>331</ele>
        <time>2017-04-20T13:02:53Z</time>
      </trkpt>
      <trkpt lat="44.01088" lon="2.13963">
        <ele>330.4</ele>
        <time>2017-04-20T13:02:55Z</time>
      </trkpt>
      <trkpt lat="44.0108" lon="2.13956">
        <ele>330.7</ele>
        <time>2017-04-20T13:02:57Z</time>
      </trkpt>
      <trkpt lat="44.01074" lon="2.13948">
        <ele>331.8</ele>
        <time>2017-04-20T13:02:59Z</time>
      </trkpt>
      <trkpt lat="44.01066" lon="2.13941">
        <ele>333.7</ele>
        <time>2017-04-20T13:03:01Z</time>
      </trkpt>
      <trkpt lat="44.01056" lon="2.13937">
        <ele>335.5</ele>
        <time>2017-04-20T13:03:03Z</time>
      </trkpt>
      <trkpt lat="44.01045" lon="2.13935">
        <ele>336.9</ele>
        <time>2017-04-20T13:03:05Z</time>
      </trkpt>
      <trkpt lat="44.01035" lon="2.13933">
        <ele>338.3</ele>
        <time>2017-04-20T13:03:07Z</time>
      </trkpt>
      <trkpt lat="44.01025" lon="2.13929">
        <ele>339.5</ele>
        <time>2017-04-20T13:03:09Z</time>
      </trkpt>
      <trkpt lat="44.01015" lon="2.13924">
        <ele>340.5</ele>
        <time>2017-04-20T13:03:11Z</time>
      </trkpt>
      <trkpt lat="44.01004" lon="2.1392">
        <ele>341.1</ele>
        <time>2017-04-20T13:03:13Z</time>
      </trkpt>
      <trkpt lat="44.00994" lon="2.13916">
        <ele>341.6</ele>
        <time>2017-04-20T13:03:15Z</time>
      </trkpt>
      <trkpt lat="44.00983" lon="2.13913">
        <ele>342.3</ele>
        <time>2017-04-20T13:03:17Z</time>
      </trkpt>
      <trkpt lat="44.00973" lon="2.13911">
        <ele>343.6</ele>
        <time>2017-04-20T13:03:19Z</time>
      </trkpt>
      <trkpt lat="44.00963" lon="2.13909">
        <ele>344.6</ele>
        <time>2017-04-20T13:03:21Z</time>
      </trkpt>
      <trkpt lat="44.00952" lon="2.13906">
        <ele>345.8</ele>
        <time>2017-04-20T13:03:23Z</time>
      </trkpt>
      <trkpt lat="44.00942" lon="2.13903">
        <ele>347</ele>
        <time>2017-04-20T13:03:25Z</time>
      </trkpt>
      <trkpt lat="44.00932" lon="2.13901">
        <ele>348</ele>
        <time>2017-04-20T13:03:27Z</time>
      </trkpt>
      <trkpt lat="44.00921" lon="2.13898">
        <ele>348.9</ele>
        <time>2017-04-20T13:03:29Z</time>
      </trkpt>
      <trkpt lat="44.00909" lon="2.13898">
        <ele>349.8</ele>
        <time>2017-04-20T13:03:31Z</time>
      </trkpt>
      <trkpt lat="44.00897" lon="2.13903">
        <ele>350.8</ele>
        <time>2017-04-20T13:03:33Z</time>
      </trkpt>
      <trkpt lat="44.00887" lon="2.13911">
        <ele>351.6</ele>
        <time>2017-04-20T13:03:35Z</time>
      </trkpt>
      <trkpt lat="44.00877" lon="2.13916">
        <ele>351.9</ele>
        <time>2017-04-20T13:03:37Z</time>
      </trkpt>
      <trkpt lat="44.00867" lon="2.1392">
        <ele>351.5</ele>
        <time>2017-04-20T13:03:39Z</time>
      </trkpt>
      <trkpt lat="44.00857" lon="2.13923">
        <ele>351.4</ele>
        <time>2017-04-20T13:03:41Z</time>
      </trkpt>
      <trkpt lat="44.00847" lon="2.13924">
        <ele>351.5</ele>
        <time>2017-04-20T13:03:43Z</time>
      </trkpt>
      <trkpt lat="44.00837" lon="2.13927">
        <ele>351.8</ele>
        <time>2017-04-20T13:03:45Z</time>
      </trkpt>
      <trkpt lat="44.00828" lon="2.13932">
        <ele>352.2</ele>
        <time>2017-04-20T13:03:47Z</time>
      </trkpt>
      <trkpt lat="44.00819" lon="2.13938">
        <ele>352.1</ele>
        <time>2017-04-20T13:03:49Z</time>
      </trkpt>
      <trkpt lat="44.0081" lon="2.13944">
        <ele>352.3</ele>
        <time>2017-04-20T13:03:51Z</time>
      </trkpt>
      <trkpt lat="44.008" lon="2.1395">
        <ele>351.5</ele>
        <time>2017-04-20T13:03:53Z</time>
      </trkpt>
      <trkpt lat="44.0079" lon="2.13957">
        <ele>351</ele>
        <time>2017-04-20T13:03:55Z</time>
      </trkpt>
      <trkpt lat="44.00779" lon="2.13963">
        <ele>350.5</ele>
        <time>2017-04-20T13:03:57Z</time>
      </trkpt>
      <trkpt lat="44.00767" lon="2.13968">
        <ele>350.9</ele>
        <time>2017-04-20T13:03:59Z</time>
      </trkpt>
      <trkpt lat="44.00755" lon="2.13971">
        <ele>351.1</ele>
        <time>2017-04-20T13:04:01Z</time>
      </trkpt>
      <trkpt lat="44.00743" lon="2.13973">
        <ele>351.4</ele>
        <time>2017-04-20T13:04:03Z</time>
      </trkpt>
      <trkpt lat="44.0073" lon="2.13975">
        <ele>351.4</ele>
        <time>2017-04-20T13:04:05Z</time>
      </trkpt>
      <trkpt lat="44.00718" lon="2.13977">
        <ele>351.4</ele>
        <time>2017-04-20T13:04:07Z</time>
      </trkpt>
      <trkpt lat="44.00706" lon="2.1398">
        <ele>351.7</ele>
        <time>2017-04-20T13:04:09Z</time>
      </trkpt>
      <trkpt lat="44.00694" lon="2.13983">
        <ele>351.8</ele>
        <time>2017-04-20T13:04:11Z</time>
      </trkpt>
      <trkpt lat="44.00682" lon="2.13986">
        <ele>351.8</ele>
        <time>2017-04-20T13:04:13Z</time>
      </trkpt>
      <trkpt lat="44.0067" lon="2.13989">
        <ele>351.8</ele>
        <time>2017-04-20T13:04:15Z</time>
      </trkpt>
      <trkpt lat="44.00658" lon="2.13992">
        <ele>351.8</ele>
        <time>2017-04-20T13:04:17Z</time>
      </trkpt>
      <trkpt lat="44.00646" lon="2.13994">
        <ele>351.9</ele>
        <time>2017-04-20T13:04:19Z</time>
      </trkpt>
      <trkpt lat="44.00633" lon="2.13997">
        <ele>351.9</ele>
        <time>2017-04-20T13:04:21Z</time>
      </trkpt>
      <trkpt lat="44.00621" lon="2.14001">
        <ele>351.8</ele>
        <time>2017-04-20T13:04:23Z</time>
      </trkpt>
      <trkpt lat="44.00608" lon="2.14005">
        <ele>351.8</ele>
        <time>2017-04-20T13:04:25Z</time>
      </trkpt>
      <trkpt lat="44.00595" lon="2.14009">
        <ele>351.8</ele>
        <time>2017-04-20T13:04:27Z</time>
      </trkpt>
      <trkpt lat="44.00583" lon="2.14013">
        <ele>351.7</ele>
        <time>2017-04-20T13:04:29Z</time>
      </trkpt>
      <trkpt lat="44.00569" lon="2.14017">
        <ele>351.6</ele>
        <time>2017-04-20T13:04:31Z</time>
      </trkpt>
      <trkpt lat="44.00556" lon="2.14022">
        <ele>351.5</ele>
        <time>2017-04-20T13:04:33Z</time>
      </trkpt>
      <trkpt lat="44.00542" lon="2.14027">
        <ele>351.5</ele>
        <time>2017-04-20T13:04:35Z</time>
      </trkpt>
      <trkpt lat="44.00529" lon="2.14031">
        <ele>351.4</ele>
        <time>2017-04-20T13:04:37Z</time>
      </trkpt>
      <trkpt lat="44.00516" lon="2.14035">
        <ele>351.8</ele>
        <time>2017-04-20T13:04:39Z</time>
      </trkpt>
      <trkpt lat="44.00503" lon="2.14039">
        <ele>351.8</ele>
        <time>2017-04-20T13:04:41Z</time>
      </trkpt>
      <trkpt lat="44.0049" lon="2.14043">
        <ele>351.9</ele>
        <time>2017-04-20T13:04:43Z</time>
      </trkpt>
      <trkpt lat="44.00478" lon="2.14047">
        <ele>352.1</ele>
        <time>2017-04-20T13:04:45Z</time>
      </trkpt>
      <trkpt lat="44.00465" lon="2.14051">
        <ele>352.3</ele>
        <time>2017-04-20T13:04:47Z</time>
      </trkpt>
      <trkpt lat="44.00452" lon="2.14055">
        <ele>352.3</ele>
        <time>2017-04-20T13:04:49Z</time>
      </trkpt>
      <trkpt lat="44.0044" lon="2.14059">
        <ele>352.1</ele>
        <time>2017-04-20T13:04:51Z</time>
      </trkpt>
      <trkpt lat="44.00427" lon="2.14063">
        <ele>352.2</ele>
        <time>2017-04-20T13:04:53Z</time>
      </trkpt>
      <trkpt lat="44.00415" lon="2.14067">
        <ele>352.4</ele>
        <time>2017-04-20T13:04:55Z</time>
      </trkpt>
      <trkpt lat="44.00402" lon="2.1407">
        <ele>352.4</ele>
        <time>2017-04-20T13:04:57Z</time>
      </trkpt>
      <trkpt lat="44.0039" lon="2.14074">
        <ele>352.3</ele>
        <time>2017-04-20T13:04:59Z</time>
      </trkpt>
      <trkpt lat="44.00377" lon="2.14076">
        <ele>352.3</ele>
        <time>2017-04-20T13:05:01Z</time>
      </trkpt>
      <trkpt lat="44.00365" lon="2.14079">
        <ele>352.1</ele>
        <time>2017-04-20T13:05:03Z</time>
      </trkpt>
      <trkpt lat="44.00353" lon="2.14081">
        <ele>352.2</ele>
        <time>2017-04-20T13:05:05Z</time>
      </trkpt>
      <trkpt lat="44.00341" lon="2.14083">
        <ele>352.3</ele>
        <time>2017-04-20T13:05:07Z</time>
      </trkpt>
      <trkpt lat="44.00329" lon="2.14085">
        <ele>352.5</ele>
        <time>2017-04-20T13:05:09Z</time>
      </trkpt>
      <trkpt lat="44.00316" lon="2.14086">
        <ele>352.7</ele>
        <time>2017-04-20T13:05:11Z</time>
      </trkpt>
      <trkpt lat="44.00305" lon="2.14089">
        <ele>353.1</ele>
        <time>2017-04-20T13:05:13Z</time>
      </trkpt>
      <trkpt lat="44.00292" lon="2.1409">
        <ele>353.6</ele>
        <time>2017-04-20T13:05:15Z</time>
      </trkpt>
      <trkpt lat="44.0028" lon="2.14092">
        <ele>353.6</ele>
        <time>2017-04-20T13:05:17Z</time>
      </trkpt>
      <trkpt lat="44.00268" lon="2.14094">
        <ele>353.7</ele>
        <time>2017-04-20T13:05:19Z</time>
      </trkpt>
      <trkpt lat="44.00256" lon="2.14095">
        <ele>353.7</ele>
        <time>2017-04-20T13:05:21Z</time>
      </trkpt>
      <trkpt lat="44.00244" lon="2.14098">
        <ele>353.7</ele>
        <time>2017-04-20T13:05:23Z</time>
      </trkpt>
      <trkpt lat="44.00231" lon="2.14099">
        <ele>354</ele>
        <time>2017-04-20T13:05:25Z</time>
      </trkpt>
      <trkpt lat="44.00219" lon="2.14101">
        <ele>354</ele>
        <time>2017-04-20T13:05:27Z</time>
      </trkpt>
      <trkpt lat="44.00207" lon="2.14103">
        <ele>354</ele>
        <time>2017-04-20T13:05:29Z</time>
      </trkpt>
      <trkpt lat="44.00195" lon="2.14105">
        <ele>354.2</ele>
        <time>2017-04-20T13:05:31Z</time>
      </trkpt>
      <trkpt lat="44.00183" lon="2.14107">
        <ele>354.5</ele>
        <time>2017-04-20T13:05:33Z</time>
      </trkpt>
      <trkpt lat="44.00171" lon="2.14109">
        <ele>354.9</ele>
        <time>2017-04-20T13:05:35Z</time>
      </trkpt>
      <trkpt lat="44.0016" lon="2.14111">
        <ele>355.3</ele>
        <time>2017-04-20T13:05:37Z</time>
      </trkpt>
      <trkpt lat="44.00148" lon="2.14113">
        <ele>355.8</ele>
        <time>2017-04-20T13:05:39Z</time>
      </trkpt>
      <trkpt lat="44.00136" lon="2.14114">
        <ele>356</ele>
        <time>2017-04-20T13:05:41Z</time>
      </trkpt>
      <trkpt lat="44.00124" lon="2.14116">
        <ele>356</ele>
        <time>2017-04-20T13:05:43Z</time>
      </trkpt>
      <trkpt lat="44.00112" lon="2.14118">
        <ele>356.1</ele>
        <time>2017-04-20T13:05:45Z</time>
      </trkpt>
      <trkpt lat="44.00099" lon="2.1412">
        <ele>356.2</ele>
        <time>2017-04-20T13:05:47Z</time>
      </trkpt>
      <trkpt lat="44.00086" lon="2.1412">
        <ele>356.3</ele>
        <time>2017-04-20T13:05:49Z</time>
      </trkpt>
      <trkpt lat="44.00074" lon="2.1412">
        <ele>356.5</ele>
        <time>2017-04-20T13:05:51Z</time>
      </trkpt>
      <trkpt lat="44.00061" lon="2.14121">
        <ele>356.7</ele>
        <time>2017-04-20T13:05:53Z</time>
      </trkpt>
      <trkpt lat="44.00048" lon="2.14121">
        <ele>356.9</ele>
        <time>2017-04-20T13:05:55Z</time>
      </trkpt>
      <trkpt lat="44.00036" lon="2.1412">
        <ele>357</ele>
        <time>2017-04-20T13:05:57Z</time>
      </trkpt>
      <trkpt lat="44.00023" lon="2.1412">
        <ele>357.7</ele>
        <time>2017-04-20T13:05:59Z</time>
      </trkpt>
      <trkpt lat="44.00011" lon="2.1412">
        <ele>358.2</ele>
        <time>2017-04-20T13:06:01Z</time>
      </trkpt>
      <trkpt lat="44" lon="2.14118">
        <ele>358.6</ele>
        <time>2017-04-20T13:06:03Z</time>
      </trkpt>
      <trkpt lat="43.99988" lon="2.14113">
        <ele>358.8</ele>
        <time>2017-04-20T13:06:05Z</time>
      </trkpt>
      <trkpt lat="43.99978" lon="2.14105">
        <ele>359.2</ele>
        <time>2017-04-20T13:06:07Z</time>
      </trkpt>
      <trkpt lat="43.99969" lon="2.14094">
        <ele>359.5</ele>
        <time>2017-04-20T13:06:09Z</time>
      </trkpt>
      <trkpt lat="43.9996" lon="2.14084">
        <ele>359.9</ele>
        <time>2017-04-20T13:06:11Z</time>
      </trkpt>
      <trkpt lat="43.99951" lon="2.14072">
        <ele>360.2</ele>
        <time>2017-04-20T13:06:13Z</time>
      </trkpt>
      <trkpt lat="43.99942" lon="2.14061">
        <ele>360.4</ele>
        <time>2017-04-20T13:06:15Z</time>
      </trkpt>
      <trkpt lat="43.99934" lon="2.14051">
        <ele>360.5</ele>
        <time>2017-04-20T13:06:17Z</time>
      </trkpt>
      <trkpt lat="43.99926" lon="2.14042">
        <ele>360.8</ele>
        <time>2017-04-20T13:06:19Z</time>
      </trkpt>
      <trkpt lat="43.99919" lon="2.14035">
        <ele>360.7</ele>
        <time>2017-04-20T13:06:21Z</time>
      </trkpt>
      <trkpt lat="43.99913" lon="2.14029">
        <ele>360.7</ele>
        <time>2017-04-20T13:06:23Z</time>
      </trkpt>
      <trkpt lat="43.99903" lon="2.14031">
        <ele>361.1</ele>
        <time>2017-04-20T13:06:26Z</time>
      </trkpt>
      <trkpt lat="43.99902" lon="2.14045">
        <ele>361.2</ele>
        <time>2017-04-20T13:06:29Z</time>
      </trkpt>
      <trkpt lat="43.99905" lon="2.14058">
        <ele>361.2</ele>
        <time>2017-04-20T13:06:32Z</time>
      </trkpt>
      <trkpt lat="43.9991" lon="2.14071">
        <ele>361.5</ele>
        <time>2017-04-20T13:06:35Z</time>
      </trkpt>
      <trkpt lat="43.99913" lon="2.14083">
        <ele>361.7</ele>
        <time>2017-04-20T13:06:38Z</time>
      </trkpt>
      <trkpt lat="43.99918" lon="2.14097">
        <ele>362</ele>
        <time>2017-04-20T13:06:41Z</time>
      </trkpt>
      <trkpt lat="43.99921" lon="2.14107">
        <ele>362.1</ele>
        <time>2017-04-20T13:06:43Z</time>
      </trkpt>
      <trkpt lat="43.99924" lon="2.1412">
        <ele>362.2</ele>
        <time>2017-04-20T13:06:45Z</time>
      </trkpt>
      <trkpt lat="43.99928" lon="2.14132">
        <ele>362.3</ele>
        <time>2017-04-20T13:06:47Z</time>
      </trkpt>
      <trkpt lat="43.99932" lon="2.14145">
        <ele>362.4</ele>
        <time>2017-04-20T13:06:49Z</time>
      </trkpt>
      <trkpt lat="43.99936" lon="2.14159">
        <ele>362.4</ele>
        <time>2017-04-20T13:06:51Z</time>
      </trkpt>
      <trkpt lat="43.9994" lon="2.14173">
        <ele>362.5</ele>
        <time>2017-04-20T13:06:53Z</time>
      </trkpt>
      <trkpt lat="43.99944" lon="2.14188">
        <ele>362.5</ele>
        <time>2017-04-20T13:06:55Z</time>
      </trkpt>
      <trkpt lat="43.99949" lon="2.14202">
        <ele>362.4</ele>
        <time>2017-04-20T13:06:57Z</time>
      </trkpt>
      <trkpt lat="43.99953" lon="2.14217">
        <ele>362.3</ele>
        <time>2017-04-20T13:06:59Z</time>
      </trkpt>
      <trkpt lat="43.99956" lon="2.14232">
        <ele>362.3</ele>
        <time>2017-04-20T13:07:01Z</time>
      </trkpt>
      <trkpt lat="43.99958" lon="2.14247">
        <ele>362.2</ele>
        <time>2017-04-20T13:07:03Z</time>
      </trkpt>
      <trkpt lat="43.99958" lon="2.14263">
        <ele>362.3</ele>
        <time>2017-04-20T13:07:05Z</time>
      </trkpt>
      <trkpt lat="43.99958" lon="2.1428">
        <ele>362.3</ele>
        <time>2017-04-20T13:07:07Z</time>
      </trkpt>
      <trkpt lat="43.99958" lon="2.14295">
        <ele>362.2</ele>
        <time>2017-04-20T13:07:09Z</time>
      </trkpt>
      <trkpt lat="43.99958" lon="2.14312">
        <ele>362.3</ele>
        <time>2017-04-20T13:07:11Z</time>
      </trkpt>
      <trkpt lat="43.99961" lon="2.14328">
        <ele>362.4</ele>
        <time>2017-04-20T13:07:13Z</time>
      </trkpt>
      <trkpt lat="43.99965" lon="2.14343">
        <ele>362.5</ele>
        <time>2017-04-20T13:07:15Z</time>
      </trkpt>
      <trkpt lat="43.99969" lon="2.14358">
        <ele>362.7</ele>
        <time>2017-04-20T13:07:17Z</time>
      </trkpt>
      <trkpt lat="43.99976" lon="2.14372">
        <ele>362.7</ele>
        <time>2017-04-20T13:07:19Z</time>
      </trkpt>
      <trkpt lat="43.99983" lon="2.14384">
        <ele>362.8</ele>
        <time>2017-04-20T13:07:21Z</time>
      </trkpt>
      <trkpt lat="43.99992" lon="2.14396">
        <ele>362.7</ele>
        <time>2017-04-20T13:07:23Z</time>
      </trkpt>
      <trkpt lat="44.00002" lon="2.14406">
        <ele>362.5</ele>
        <time>2017-04-20T13:07:25Z</time>
      </trkpt>
      <trkpt lat="44.00012" lon="2.14415">
        <ele>362.5</ele>
        <time>2017-04-20T13:07:27Z</time>
      </trkpt>
      <trkpt lat="44.00024" lon="2.14422">
        <ele>362.4</ele>
        <time>2017-04-20T13:07:29Z</time>
      </trkpt>
      <trkpt lat="44.00036" lon="2.14426">
        <ele>362.3</ele>
        <time>2017-04-20T13:07:31Z</time>
      </trkpt>
      <trkpt lat="44.00048" lon="2.1443">
        <ele>362.2</ele>
        <time>2017-04-20T13:07:33Z</time>
      </trkpt>
      <trkpt lat="44.0006" lon="2.14432">
        <ele>362.1</ele>
        <time>2017-04-20T13:07:35Z</time>
      </trkpt>
      <trkpt lat="44.00072" lon="2.14434">
        <ele>362.1</ele>
        <time>2017-04-20T13:07:37Z</time>
      </trkpt>
      <trkpt lat="44.00084" lon="2.14435">
        <ele>362</ele>
        <time>2017-04-20T13:07:39Z</time>
      </trkpt>
      <trkpt lat="44.00095" lon="2.14438">
        <ele>361.9</ele>
        <time>2017-04-20T13:07:41Z</time>
      </trkpt>
      <trkpt lat="44.00107" lon="2.14441">
        <ele>361.8</ele>
        <time>2017-04-20T13:07:43Z</time>
      </trkpt>
      <trkpt lat="44.00119" lon="2.14444">
        <ele>361.8</ele>
        <time>2017-04-20T13:07:45Z</time>
      </trkpt>
      <trkpt lat="44.0013" lon="2.14448">
        <ele>361.7</ele>
        <time>2017-04-20T13:07:47Z</time>
      </trkpt>
      <trkpt lat="44.00142" lon="2.14452">
        <ele>361.5</ele>
        <time>2017-04-20T13:07:49Z</time>
      </trkpt>
      <trkpt lat="44.00154" lon="2.14458">
        <ele>361.4</ele>
        <time>2017-04-20T13:07:51Z</time>
      </trkpt>
      <trkpt lat="44.00165" lon="2.14464">
        <ele>361.4</ele>
        <time>2017-04-20T13:07:53Z</time>
      </trkpt>
      <trkpt lat="44.00176" lon="2.14471">
        <ele>361.2</ele>
        <time>2017-04-20T13:07:55Z</time>
      </trkpt>
      <trkpt lat="44.00186" lon="2.14478">
        <ele>361.4</ele>
        <time>2017-04-20T13:07:57Z</time>
      </trkpt>
      <trkpt lat="44.00197" lon="2.14485">
        <ele>361.5</ele>
        <time>2017-04-20T13:07:59Z</time>
      </trkpt>
      <trkpt lat="44.00207" lon="2.14491">
        <ele>361.6</ele>
        <time>2017-04-20T13:08:01Z</time>
      </trkpt>
      <trkpt lat="44.00216" lon="2.145">
        <ele>361.7</ele>
        <time>2017-04-20T13:08:03Z</time>
      </trkpt>
      <trkpt lat="44.00226" lon="2.14508">
        <ele>361.7</ele>
        <time>2017-04-20T13:08:05Z</time>
      </trkpt>
      <trkpt lat="44.00236" lon="2.14516">
        <ele>361.8</ele>
        <time>2017-04-20T13:08:07Z</time>
      </trkpt>
      <trkpt lat="44.00245" lon="2.14525">
        <ele>361.6</ele>
        <time>2017-04-20T13:08:09Z</time>
      </trkpt>
      <trkpt lat="44.00254" lon="2.14533">
        <ele>361.6</ele>
        <time>2017-04-20T13:08:11Z</time>
      </trkpt>
      <trkpt lat="44.00265" lon="2.14542">
        <ele>361.4</ele>
        <time>2017-04-20T13:08:13Z</time>
      </trkpt>
      <trkpt lat="44.00274" lon="2.14551">
        <ele>361.4</ele>
        <time>2017-04-20T13:08:15Z</time>
      </trkpt>
      <trkpt lat="44.00284" lon="2.1456">
        <ele>361.4</ele>
        <time>2017-04-20T13:08:17Z</time>
      </trkpt>
      <trkpt lat="44.00293" lon="2.14569">
        <ele>361.5</ele>
        <time>2017-04-20T13:08:19Z</time>
      </trkpt>
      <trkpt lat="44.00303" lon="2.14577">
        <ele>361.5</ele>
        <time>2017-04-20T13:08:21Z</time>
      </trkpt>
      <trkpt lat="44.00313" lon="2.14586">
        <ele>361.5</ele>
        <time>2017-04-20T13:08:23Z</time>
      </trkpt>
      <trkpt lat="44.00322" lon="2.14595">
        <ele>361.4</ele>
        <time>2017-04-20T13:08:25Z</time>
      </trkpt>
      <trkpt lat="44.00332" lon="2.14604">
        <ele>361.2</ele>
        <time>2017-04-20T13:08:27Z</time>
      </trkpt>
      <trkpt lat="44.00341" lon="2.14613">
        <ele>360.9</ele>
        <time>2017-04-20T13:08:29Z</time>
      </trkpt>
      <trkpt lat="44.00351" lon="2.14622">
        <ele>360.4</ele>
        <time>2017-04-20T13:08:31Z</time>
      </trkpt>
      <trkpt lat="44.00361" lon="2.14632">
        <ele>359.8</ele>
        <time>2017-04-20T13:08:33Z</time>
      </trkpt>
      <trkpt lat="44.00371" lon="2.14643">
        <ele>359.2</ele>
        <time>2017-04-20T13:08:35Z</time>
      </trkpt>
      <trkpt lat="44.00382" lon="2.14654">
        <ele>358.7</ele>
        <time>2017-04-20T13:08:37Z</time>
      </trkpt>
      <trkpt lat="44.00392" lon="2.14666">
        <ele>358.3</ele>
        <time>2017-04-20T13:08:39Z</time>
      </trkpt>
      <trkpt lat="44.00403" lon="2.14676">
        <ele>358</ele>
        <time>2017-04-20T13:08:41Z</time>
      </trkpt>
      <trkpt lat="44.00412" lon="2.14687">
        <ele>357.8</ele>
        <time>2017-04-20T13:08:43Z</time>
      </trkpt>
      <trkpt lat="44.00421" lon="2.14697">
        <ele>357.5</ele>
        <time>2017-04-20T13:08:45Z</time>
      </trkpt>
      <trkpt lat="44.00431" lon="2.14708">
        <ele>357.3</ele>
        <time>2017-04-20T13:08:47Z</time>
      </trkpt>
      <trkpt lat="44.0044" lon="2.14717">
        <ele>357.1</ele>
        <time>2017-04-20T13:08:49Z</time>
      </trkpt>
      <trkpt lat="44.00449" lon="2.14727">
        <ele>356.8</ele>
        <time>2017-04-20T13:08:51Z</time>
      </trkpt>
      <trkpt lat="44.00458" lon="2.14736">
        <ele>356.7</ele>
        <time>2017-04-20T13:08:53Z</time>
      </trkpt>
      <trkpt lat="44.00467" lon="2.14745">
        <ele>356.4</ele>
        <time>2017-04-20T13:08:55Z</time>
      </trkpt>
      <trkpt lat="44.00476" lon="2.14753">
        <ele>356.2</ele>
        <time>2017-04-20T13:08:57Z</time>
      </trkpt>
      <trkpt lat="44.00483" lon="2.14758">
        <ele>356</ele>
        <time>2017-04-20T13:08:59Z</time>
      </trkpt>
      <trkpt lat="44.00485" lon="2.14769">
        <ele>356</ele>
        <time>2017-04-20T13:09:02Z</time>
      </trkpt>
      <trkpt lat="44.00478" lon="2.14767">
        <ele>354.7</ele>
        <time>2017-04-20T13:09:09Z</time>
      </trkpt>
      <trkpt lat="44.0047" lon="2.14767">
        <ele>354.1</ele>
        <time>2017-04-20T13:09:15Z</time>
      </trkpt>
      <trkpt lat="44.00461" lon="2.14763">
        <ele>353</ele>
        <time>2017-04-20T13:09:18Z</time>
      </trkpt>
      <trkpt lat="44.00451" lon="2.1476">
        <ele>352</ele>
        <time>2017-04-20T13:09:20Z</time>
      </trkpt>
      <trkpt lat="44.00437" lon="2.14757">
        <ele>350.7</ele>
        <time>2017-04-20T13:09:22Z</time>
      </trkpt>
      <trkpt lat="44.00429" lon="2.14756">
        <ele>350</ele>
        <time>2017-04-20T13:09:23Z</time>
      </trkpt>
      <trkpt lat="44.0042" lon="2.14755">
        <ele>349.2</ele>
        <time>2017-04-20T13:09:24Z</time>
      </trkpt>
      <trkpt lat="44.00411" lon="2.14753">
        <ele>348.1</ele>
        <time>2017-04-20T13:09:25Z</time>
      </trkpt>
      <trkpt lat="44.00401" lon="2.14751">
        <ele>347</ele>
        <time>2017-04-20T13:09:26Z</time>
      </trkpt>
      <trkpt lat="44.0039" lon="2.14748">
        <ele>345.3</ele>
        <time>2017-04-20T13:09:27Z</time>
      </trkpt>
      <trkpt lat="44.00379" lon="2.14746">
        <ele>343.8</ele>
        <time>2017-04-20T13:09:28Z</time>
      </trkpt>
      <trkpt lat="44.00368" lon="2.14742">
        <ele>342.4</ele>
        <time>2017-04-20T13:09:29Z</time>
      </trkpt>
      <trkpt lat="44.00357" lon="2.14737">
        <ele>341.1</ele>
        <time>2017-04-20T13:09:30Z</time>
      </trkpt>
      <trkpt lat="44.00346" lon="2.14731">
        <ele>340.4</ele>
        <time>2017-04-20T13:09:31Z</time>
      </trkpt>
      <trkpt lat="44.00336" lon="2.14725">
        <ele>339.7</ele>
        <time>2017-04-20T13:09:32Z</time>
      </trkpt>
      <trkpt lat="44.00326" lon="2.14718">
        <ele>339</ele>
        <time>2017-04-20T13:09:33Z</time>
      </trkpt>
      <trkpt lat="44.00317" lon="2.14712">
        <ele>338.6</ele>
        <time>2017-04-20T13:09:34Z</time>
      </trkpt>
      <trkpt lat="44.00307" lon="2.14706">
        <ele>338.2</ele>
        <time>2017-04-20T13:09:35Z</time>
      </trkpt>
      <trkpt lat="44.00299" lon="2.147">
        <ele>337.9</ele>
        <time>2017-04-20T13:09:36Z</time>
      </trkpt>
      <trkpt lat="44.0029" lon="2.14695">
        <ele>337.8</ele>
        <time>2017-04-20T13:09:37Z</time>
      </trkpt>
      <trkpt lat="44.00283" lon="2.14689">
        <ele>337.6</ele>
        <time>2017-04-20T13:09:38Z</time>
      </trkpt>
      <trkpt lat="44.00275" lon="2.14684">
        <ele>337.3</ele>
        <time>2017-04-20T13:09:39Z</time>
      </trkpt>
      <trkpt lat="44.00267" lon="2.14679">
        <ele>337.1</ele>
        <time>2017-04-20T13:09:40Z</time>
      </trkpt>
      <trkpt lat="44.0026" lon="2.14674">
        <ele>336.7</ele>
        <time>2017-04-20T13:09:41Z</time>
      </trkpt>
      <trkpt lat="44.00253" lon="2.14668">
        <ele>336.6</ele>
        <time>2017-04-20T13:09:42Z</time>
      </trkpt>
      <trkpt lat="44.00246" lon="2.14663">
        <ele>336.7</ele>
        <time>2017-04-20T13:09:43Z</time>
      </trkpt>
      <trkpt lat="44.00239" lon="2.14658">
        <ele>336.9</ele>
        <time>2017-04-20T13:09:44Z</time>
      </trkpt>
      <trkpt lat="44.00233" lon="2.14654">
        <ele>337.5</ele>
        <time>2017-04-20T13:09:45Z</time>
      </trkpt>
      <trkpt lat="44.00226" lon="2.14649">
        <ele>337.5</ele>
        <time>2017-04-20T13:09:46Z</time>
      </trkpt>
      <trkpt lat="44.00214" lon="2.14641">
        <ele>337.7</ele>
        <time>2017-04-20T13:09:48Z</time>
      </trkpt>
      <trkpt lat="44.00202" lon="2.14632">
        <ele>337.9</ele>
        <time>2017-04-20T13:09:50Z</time>
      </trkpt>
      <trkpt lat="44.0019" lon="2.14624">
        <ele>338.4</ele>
        <time>2017-04-20T13:09:52Z</time>
      </trkpt>
      <trkpt lat="44.00178" lon="2.14616">
        <ele>338.4</ele>
        <time>2017-04-20T13:09:54Z</time>
      </trkpt>
      <trkpt lat="44.00167" lon="2.1461">
        <ele>338.4</ele>
        <time>2017-04-20T13:09:56Z</time>
      </trkpt>
      <trkpt lat="44.00155" lon="2.14604">
        <ele>338.3</ele>
        <time>2017-04-20T13:09:58Z</time>
      </trkpt>
      <trkpt lat="44.00142" lon="2.14598">
        <ele>338.4</ele>
        <time>2017-04-20T13:10:00Z</time>
      </trkpt>
      <trkpt lat="44.00129" lon="2.14592">
        <ele>338.3</ele>
        <time>2017-04-20T13:10:02Z</time>
      </trkpt>
      <trkpt lat="44.00116" lon="2.14587">
        <ele>338.5</ele>
        <time>2017-04-20T13:10:04Z</time>
      </trkpt>
      <trkpt lat="44.00102" lon="2.14583">
        <ele>338.4</ele>
        <time>2017-04-20T13:10:06Z</time>
      </trkpt>
      <trkpt lat="44.00088" lon="2.14578">
        <ele>338.2</ele>
        <time>2017-04-20T13:10:08Z</time>
      </trkpt>
      <trkpt lat="44.00074" lon="2.14574">
        <ele>337.8</ele>
        <time>2017-04-20T13:10:10Z</time>
      </trkpt>
      <trkpt lat="44.0006" lon="2.1457">
        <ele>337.3</ele>
        <time>2017-04-20T13:10:12Z</time>
      </trkpt>
      <trkpt lat="44.00046" lon="2.14567">
        <ele>337.1</ele>
        <time>2017-04-20T13:10:14Z</time>
      </trkpt>
      <trkpt lat="44.00033" lon="2.14564">
        <ele>336.8</ele>
        <time>2017-04-20T13:10:16Z</time>
      </trkpt>
      <trkpt lat="44.0002" lon="2.1456">
        <ele>336.3</ele>
        <time>2017-04-20T13:10:18Z</time>
      </trkpt>
      <trkpt lat="44.00007" lon="2.14554">
        <ele>336.2</ele>
        <time>2017-04-20T13:10:20Z</time>
      </trkpt>
      <trkpt lat="43.99995" lon="2.1455">
        <ele>336</ele>
        <time>2017-04-20T13:10:22Z</time>
      </trkpt>
      <trkpt lat="43.99982" lon="2.14543">
        <ele>336.7</ele>
        <time>2017-04-20T13:10:24Z</time>
      </trkpt>
      <trkpt lat="43.99968" lon="2.14538">
        <ele>336.8</ele>
        <time>2017-04-20T13:10:26Z</time>
      </trkpt>
      <trkpt lat="43.99954" lon="2.14534">
        <ele>336.6</ele>
        <time>2017-04-20T13:10:28Z</time>
      </trkpt>
      <trkpt lat="43.9994" lon="2.14534">
        <ele>335.7</ele>
        <time>2017-04-20T13:10:30Z</time>
      </trkpt>
      <trkpt lat="43.99933" lon="2.14535">
        <ele>335.6</ele>
        <time>2017-04-20T13:10:31Z</time>
      </trkpt>
      <trkpt lat="43.99926" lon="2.14537">
        <ele>335.1</ele>
        <time>2017-04-20T13:10:32Z</time>
      </trkpt>
      <trkpt lat="43.99912" lon="2.14539">
        <ele>334.6</ele>
        <time>2017-04-20T13:10:34Z</time>
      </trkpt>
      <trkpt lat="43.99899" lon="2.14542">
        <ele>334.3</ele>
        <time>2017-04-20T13:10:36Z</time>
      </trkpt>
      <trkpt lat="43.99888" lon="2.14546">
        <ele>334.3</ele>
        <time>2017-04-20T13:10:38Z</time>
      </trkpt>
      <trkpt lat="43.99877" lon="2.14548">
        <ele>334.3</ele>
        <time>2017-04-20T13:10:40Z</time>
      </trkpt>
      <trkpt lat="43.99868" lon="2.14542">
        <ele>334.2</ele>
        <time>2017-04-20T13:10:42Z</time>
      </trkpt>
      <trkpt lat="43.99866" lon="2.14529">
        <ele>334.3</ele>
        <time>2017-04-20T13:10:44Z</time>
      </trkpt>
      <trkpt lat="43.99873" lon="2.14518">
        <ele>334.7</ele>
        <time>2017-04-20T13:10:46Z</time>
      </trkpt>
      <trkpt lat="43.99883" lon="2.14507">
        <ele>335.1</ele>
        <time>2017-04-20T13:10:48Z</time>
      </trkpt>
      <trkpt lat="43.99892" lon="2.14497">
        <ele>335.7</ele>
        <time>2017-04-20T13:10:50Z</time>
      </trkpt>
      <trkpt lat="43.999" lon="2.14487">
        <ele>336.5</ele>
        <time>2017-04-20T13:10:52Z</time>
      </trkpt>
      <trkpt lat="43.99907" lon="2.14477">
        <ele>337.5</ele>
        <time>2017-04-20T13:10:54Z</time>
      </trkpt>
      <trkpt lat="43.99914" lon="2.14466">
        <ele>339.1</ele>
        <time>2017-04-20T13:10:56Z</time>
      </trkpt>
      <trkpt lat="43.99919" lon="2.14456">
        <ele>341.2</ele>
        <time>2017-04-20T13:10:58Z</time>
      </trkpt>
      <trkpt lat="43.99926" lon="2.14445">
        <ele>342.6</ele>
        <time>2017-04-20T13:11:00Z</time>
      </trkpt>
      <trkpt lat="43.99931" lon="2.14434">
        <ele>343.9</ele>
        <time>2017-04-20T13:11:02Z</time>
      </trkpt>
      <trkpt lat="43.99934" lon="2.14423">
        <ele>344.5</ele>
        <time>2017-04-20T13:11:04Z</time>
      </trkpt>
      <trkpt lat="43.99931" lon="2.14413">
        <ele>345.4</ele>
        <time>2017-04-20T13:11:06Z</time>
      </trkpt>
      <trkpt lat="43.99922" lon="2.1441">
        <ele>346.4</ele>
        <time>2017-04-20T13:11:08Z</time>
      </trkpt>
      <trkpt lat="43.99911" lon="2.14414">
        <ele>346.9</ele>
        <time>2017-04-20T13:11:10Z</time>
      </trkpt>
      <trkpt lat="43.999" lon="2.14419">
        <ele>347.1</ele>
        <time>2017-04-20T13:11:12Z</time>
      </trkpt>
      <trkpt lat="43.99889" lon="2.14425">
        <ele>347.2</ele>
        <time>2017-04-20T13:11:14Z</time>
      </trkpt>
      <trkpt lat="43.99877" lon="2.14432">
        <ele>347.4</ele>
        <time>2017-04-20T13:11:16Z</time>
      </trkpt>
      <trkpt lat="43.99865" lon="2.14437">
        <ele>347.3</ele>
        <time>2017-04-20T13:11:18Z</time>
      </trkpt>
      <trkpt lat="43.99853" lon="2.14442">
        <ele>347.1</ele>
        <time>2017-04-20T13:11:20Z</time>
      </trkpt>
      <trkpt lat="43.99841" lon="2.14443">
        <ele>346.7</ele>
        <time>2017-04-20T13:11:22Z</time>
      </trkpt>
      <trkpt lat="43.9983" lon="2.14439">
        <ele>346.4</ele>
        <time>2017-04-20T13:11:24Z</time>
      </trkpt>
      <trkpt lat="43.99819" lon="2.14433">
        <ele>346.1</ele>
        <time>2017-04-20T13:11:26Z</time>
      </trkpt>
      <trkpt lat="43.9981" lon="2.14422">
        <ele>345.5</ele>
        <time>2017-04-20T13:11:28Z</time>
      </trkpt>
      <trkpt lat="43.99803" lon="2.14408">
        <ele>345.3</ele>
        <time>2017-04-20T13:11:30Z</time>
      </trkpt>
      <trkpt lat="43.99798" lon="2.14392">
        <ele>345</ele>
        <time>2017-04-20T13:11:32Z</time>
      </trkpt>
      <trkpt lat="43.99793" lon="2.14376">
        <ele>344.8</ele>
        <time>2017-04-20T13:11:34Z</time>
      </trkpt>
      <trkpt lat="43.9979" lon="2.1436">
        <ele>344.9</ele>
        <time>2017-04-20T13:11:36Z</time>
      </trkpt>
      <trkpt lat="43.99786" lon="2.14343">
        <ele>344.7</ele>
        <time>2017-04-20T13:11:38Z</time>
      </trkpt>
      <trkpt lat="43.99782" lon="2.14326">
        <ele>344.8</ele>
        <time>2017-04-20T13:11:40Z</time>
      </trkpt>
      <trkpt lat="43.99779" lon="2.1431">
        <ele>345</ele>
        <time>2017-04-20T13:11:42Z</time>
      </trkpt>
      <trkpt lat="43.99776" lon="2.14294">
        <ele>345.2</ele>
        <time>2017-04-20T13:11:44Z</time>
      </trkpt>
      <trkpt lat="43.99773" lon="2.14278">
        <ele>345.3</ele>
        <time>2017-04-20T13:11:46Z</time>
      </trkpt>
      <trkpt lat="43.9977" lon="2.14261">
        <ele>345.4</ele>
        <time>2017-04-20T13:11:48Z</time>
      </trkpt>
      <trkpt lat="43.99768" lon="2.14244">
        <ele>345.5</ele>
        <time>2017-04-20T13:11:50Z</time>
      </trkpt>
      <trkpt lat="43.99766" lon="2.14228">
        <ele>345.7</ele>
        <time>2017-04-20T13:11:52Z</time>
      </trkpt>
      <trkpt lat="43.99763" lon="2.1421">
        <ele>345.8</ele>
        <time>2017-04-20T13:11:54Z</time>
      </trkpt>
      <trkpt lat="43.99761" lon="2.14193">
        <ele>346.1</ele>
        <time>2017-04-20T13:11:56Z</time>
      </trkpt>
      <trkpt lat="43.99759" lon="2.14176">
        <ele>346.3</ele>
        <time>2017-04-20T13:11:58Z</time>
      </trkpt>
      <trkpt lat="43.99757" lon="2.14159">
        <ele>346.6</ele>
        <time>2017-04-20T13:12:00Z</time>
      </trkpt>
      <trkpt lat="43.99755" lon="2.14143">
        <ele>346.6</ele>
        <time>2017-04-20T13:12:02Z</time>
      </trkpt>
      <trkpt lat="43.99751" lon="2.14126">
        <ele>346.5</ele>
        <time>2017-04-20T13:12:04Z</time>
      </trkpt>
      <trkpt lat="43.99748" lon="2.1411">
        <ele>346.5</ele>
        <time>2017-04-20T13:12:06Z</time>
      </trkpt>
      <trkpt lat="43.99743" lon="2.14094">
        <ele>346.5</ele>
        <time>2017-04-20T13:12:08Z</time>
      </trkpt>
      <trkpt lat="43.99739" lon="2.14079">
        <ele>346.7</ele>
        <time>2017-04-20T13:12:10Z</time>
      </trkpt>
      <trkpt lat="43.99734" lon="2.14066">
        <ele>346.8</ele>
        <time>2017-04-20T13:12:12Z</time>
      </trkpt>
      <trkpt lat="43.9973" lon="2.14053">
        <ele>346.5</ele>
        <time>2017-04-20T13:12:14Z</time>
      </trkpt>
      <trkpt lat="43.99727" lon="2.1404">
        <ele>346.3</ele>
        <time>2017-04-20T13:12:16Z</time>
      </trkpt>
      <trkpt lat="43.99725" lon="2.14024">
        <ele>346.2</ele>
        <time>2017-04-20T13:12:18Z</time>
      </trkpt>
      <trkpt lat="43.99728" lon="2.1401">
        <ele>346.2</ele>
        <time>2017-04-20T13:12:20Z</time>
      </trkpt>
      <trkpt lat="43.99734" lon="2.13998">
        <ele>346.1</ele>
        <time>2017-04-20T13:12:22Z</time>
      </trkpt>
      <trkpt lat="43.99743" lon="2.1399">
        <ele>346.4</ele>
        <time>2017-04-20T13:12:24Z</time>
      </trkpt>
      <trkpt lat="43.99755" lon="2.13987">
        <ele>346.7</ele>
        <time>2017-04-20T13:12:26Z</time>
      </trkpt>
      <trkpt lat="43.99766" lon="2.13986">
        <ele>346.7</ele>
        <time>2017-04-20T13:12:28Z</time>
      </trkpt>
      <trkpt lat="43.99778" lon="2.13986">
        <ele>346.6</ele>
        <time>2017-04-20T13:12:30Z</time>
      </trkpt>
      <trkpt lat="43.99789" lon="2.13985">
        <ele>346.5</ele>
        <time>2017-04-20T13:12:32Z</time>
      </trkpt>
      <trkpt lat="43.99801" lon="2.13983">
        <ele>346.4</ele>
        <time>2017-04-20T13:12:34Z</time>
      </trkpt>
      <trkpt lat="43.99812" lon="2.13982">
        <ele>346.3</ele>
        <time>2017-04-20T13:12:36Z</time>
      </trkpt>
      <trkpt lat="43.99822" lon="2.13981">
        <ele>346.3</ele>
        <time>2017-04-20T13:12:38Z</time>
      </trkpt>
      <trkpt lat="43.99832" lon="2.13978">
        <ele>346.1</ele>
        <time>2017-04-20T13:12:40Z</time>
      </trkpt>
      <trkpt lat="43.99843" lon="2.13976">
        <ele>346.3</ele>
        <time>2017-04-20T13:12:42Z</time>
      </trkpt>
      <trkpt lat="43.99854" lon="2.13973">
        <ele>346.6</ele>
        <time>2017-04-20T13:12:44Z</time>
      </trkpt>
      <trkpt lat="43.99865" lon="2.1397">
        <ele>346.7</ele>
        <time>2017-04-20T13:12:46Z</time>
      </trkpt>
      <trkpt lat="43.99876" lon="2.13969">
        <ele>346.6</ele>
        <time>2017-04-20T13:12:48Z</time>
      </trkpt>
      <trkpt lat="43.99887" lon="2.13969">
        <ele>346.6</ele>
        <time>2017-04-20T13:12:50Z</time>
      </trkpt>
      <trkpt lat="43.99899" lon="2.13969">
        <ele>346.5</ele>
        <time>2017-04-20T13:12:52Z</time>
      </trkpt>
      <trkpt lat="43.99911" lon="2.13969">
        <ele>346.9</ele>
        <time>2017-04-20T13:12:54Z</time>
      </trkpt>
      <trkpt lat="43.99923" lon="2.1397">
        <ele>347</ele>
        <time>2017-04-20T13:12:56Z</time>
      </trkpt>
      <trkpt lat="43.99935" lon="2.13973">
        <ele>347.2</ele>
        <time>2017-04-20T13:12:58Z</time>
      </trkpt>
      <trkpt lat="43.99946" lon="2.13978">
        <ele>347.3</ele>
        <time>2017-04-20T13:13:00Z</time>
      </trkpt>
      <trkpt lat="43.99957" lon="2.13986">
        <ele>347.3</ele>
        <time>2017-04-20T13:13:02Z</time>
      </trkpt>
      <trkpt lat="43.99967" lon="2.13995">
        <ele>347.2</ele>
        <time>2017-04-20T13:13:04Z</time>
      </trkpt>
      <trkpt lat="43.99976" lon="2.14006">
        <ele>347.1</ele>
        <time>2017-04-20T13:13:06Z</time>
      </trkpt>
      <trkpt lat="43.99986" lon="2.14014">
        <ele>346.7</ele>
        <time>2017-04-20T13:13:08Z</time>
      </trkpt>
      <trkpt lat="43.99998" lon="2.14019">
        <ele>346.5</ele>
        <time>2017-04-20T13:13:10Z</time>
      </trkpt>
      <trkpt lat="44.00011" lon="2.14017">
        <ele>346.8</ele>
        <time>2017-04-20T13:13:12Z</time>
      </trkpt>
      <trkpt lat="44.00023" lon="2.14013">
        <ele>347.1</ele>
        <time>2017-04-20T13:13:14Z</time>
      </trkpt>
      <trkpt lat="44.00034" lon="2.14009">
        <ele>347.8</ele>
        <time>2017-04-20T13:13:16Z</time>
      </trkpt>
      <trkpt lat="44.00046" lon="2.14005">
        <ele>348.3</ele>
        <time>2017-04-20T13:13:18Z</time>
      </trkpt>
      <trkpt lat="44.00057" lon="2.14002">
        <ele>348.9</ele>
        <time>2017-04-20T13:13:20Z</time>
      </trkpt>
      <trkpt lat="44.00069" lon="2.13999">
        <ele>348.9</ele>
        <time>2017-04-20T13:13:22Z</time>
      </trkpt>
      <trkpt lat="44.00081" lon="2.13998">
        <ele>348.9</ele>
        <time>2017-04-20T13:13:24Z</time>
      </trkpt>
      <trkpt lat="44.00094" lon="2.13995">
        <ele>349.1</ele>
        <time>2017-04-20T13:13:26Z</time>
      </trkpt>
      <trkpt lat="44.00105" lon="2.13994">
        <ele>349.8</ele>
        <time>2017-04-20T13:13:28Z</time>
      </trkpt>
      <trkpt lat="44.00117" lon="2.13992">
        <ele>350.2</ele>
        <time>2017-04-20T13:13:30Z</time>
      </trkpt>
      <trkpt lat="44.00128" lon="2.1399">
        <ele>350.6</ele>
        <time>2017-04-20T13:13:32Z</time>
      </trkpt>
      <trkpt lat="44.0014" lon="2.13987">
        <ele>350.4</ele>
        <time>2017-04-20T13:13:34Z</time>
      </trkpt>
      <trkpt lat="44.0015" lon="2.13985">
        <ele>350.5</ele>
        <time>2017-04-20T13:13:36Z</time>
      </trkpt>
      <trkpt lat="44.00163" lon="2.13983">
        <ele>350.1</ele>
        <time>2017-04-20T13:13:38Z</time>
      </trkpt>
      <trkpt lat="44.00175" lon="2.13981">
        <ele>349.8</ele>
        <time>2017-04-20T13:13:40Z</time>
      </trkpt>
      <trkpt lat="44.00187" lon="2.13978">
        <ele>349.9</ele>
        <time>2017-04-20T13:13:42Z</time>
      </trkpt>
      <trkpt lat="44.00199" lon="2.13978">
        <ele>350</ele>
        <time>2017-04-20T13:13:44Z</time>
      </trkpt>
      <trkpt lat="44.00211" lon="2.13978">
        <ele>349.8</ele>
        <time>2017-04-20T13:13:46Z</time>
      </trkpt>
      <trkpt lat="44.00222" lon="2.13977">
        <ele>349.4</ele>
        <time>2017-04-20T13:13:48Z</time>
      </trkpt>
      <trkpt lat="44.00234" lon="2.13977">
        <ele>349</ele>
        <time>2017-04-20T13:13:50Z</time>
      </trkpt>
      <trkpt lat="44.00246" lon="2.13978">
        <ele>348.5</ele>
        <time>2017-04-20T13:13:52Z</time>
      </trkpt>
      <trkpt lat="44.00258" lon="2.13979">
        <ele>349.1</ele>
        <time>2017-04-20T13:13:54Z</time>
      </trkpt>
      <trkpt lat="44.00269" lon="2.1398">
        <ele>349.3</ele>
        <time>2017-04-20T13:13:56Z</time>
      </trkpt>
      <trkpt lat="44.0028" lon="2.13981">
        <ele>349.1</ele>
        <time>2017-04-20T13:13:58Z</time>
      </trkpt>
      <trkpt lat="44.00292" lon="2.13981">
        <ele>349.1</ele>
        <time>2017-04-20T13:14:00Z</time>
      </trkpt>
      <trkpt lat="44.00303" lon="2.13981">
        <ele>348.8</ele>
        <time>2017-04-20T13:14:02Z</time>
      </trkpt>
      <trkpt lat="44.00315" lon="2.13982">
        <ele>348.9</ele>
        <time>2017-04-20T13:14:04Z</time>
      </trkpt>
      <trkpt lat="44.00326" lon="2.13982">
        <ele>348.4</ele>
        <time>2017-04-20T13:14:06Z</time>
      </trkpt>
      <trkpt lat="44.00338" lon="2.13983">
        <ele>348.1</ele>
        <time>2017-04-20T13:14:08Z</time>
      </trkpt>
      <trkpt lat="44.0035" lon="2.13983">
        <ele>347.9</ele>
        <time>2017-04-20T13:14:10Z</time>
      </trkpt>
      <trkpt lat="44.00361" lon="2.13983">
        <ele>347.9</ele>
        <time>2017-04-20T13:14:12Z</time>
      </trkpt>
      <trkpt lat="44.00373" lon="2.13983">
        <ele>347.5</ele>
        <time>2017-04-20T13:14:14Z</time>
      </trkpt>
      <trkpt lat="44.00384" lon="2.13984">
        <ele>347.6</ele>
        <time>2017-04-20T13:14:16Z</time>
      </trkpt>
      <trkpt lat="44.00396" lon="2.13984">
        <ele>347.5</ele>
        <time>2017-04-20T13:14:18Z</time>
      </trkpt>
      <trkpt lat="44.00408" lon="2.13983">
        <ele>347.8</ele>
        <time>2017-04-20T13:14:20Z</time>
      </trkpt>
      <trkpt lat="44.00419" lon="2.13983">
        <ele>348.3</ele>
        <time>2017-04-20T13:14:22Z</time>
      </trkpt>
      <trkpt lat="44.00431" lon="2.13982">
        <ele>348</ele>
        <time>2017-04-20T13:14:24Z</time>
      </trkpt>
      <trkpt lat="44.00443" lon="2.13981">
        <ele>348.3</ele>
        <time>2017-04-20T13:14:26Z</time>
      </trkpt>
      <trkpt lat="44.00455" lon="2.13981">
        <ele>348.3</ele>
        <time>2017-04-20T13:14:28Z</time>
      </trkpt>
      <trkpt lat="44.00466" lon="2.13982">
        <ele>348.4</ele>
        <time>2017-04-20T13:14:30Z</time>
      </trkpt>
      <trkpt lat="44.00478" lon="2.13981">
        <ele>348.5</ele>
        <time>2017-04-20T13:14:32Z</time>
      </trkpt>
      <trkpt lat="44.00489" lon="2.13981">
        <ele>348.1</ele>
        <time>2017-04-20T13:14:34Z</time>
      </trkpt>
      <trkpt lat="44.00501" lon="2.13979">
        <ele>348.3</ele>
        <time>2017-04-20T13:14:36Z</time>
      </trkpt>
      <trkpt lat="44.00513" lon="2.13978">
        <ele>348.3</ele>
        <time>2017-04-20T13:14:38Z</time>
      </trkpt>
      <trkpt lat="44.00524" lon="2.13977">
        <ele>348.3</ele>
        <time>2017-04-20T13:14:40Z</time>
      </trkpt>
      <trkpt lat="44.00536" lon="2.13977">
        <ele>348.6</ele>
        <time>2017-04-20T13:14:42Z</time>
      </trkpt>
      <trkpt lat="44.00547" lon="2.13975">
        <ele>348.7</ele>
        <time>2017-04-20T13:14:44Z</time>
      </trkpt>
      <trkpt lat="44.00558" lon="2.13974">
        <ele>348.8</ele>
        <time>2017-04-20T13:14:46Z</time>
      </trkpt>
      <trkpt lat="44.0057" lon="2.13971">
        <ele>348.7</ele>
        <time>2017-04-20T13:14:48Z</time>
      </trkpt>
      <trkpt lat="44.00582" lon="2.13969">
        <ele>349</ele>
        <time>2017-04-20T13:14:50Z</time>
      </trkpt>
      <trkpt lat="44.00593" lon="2.13967">
        <ele>349.2</ele>
        <time>2017-04-20T13:14:52Z</time>
      </trkpt>
      <trkpt lat="44.00605" lon="2.13964">
        <ele>349.1</ele>
        <time>2017-04-20T13:14:54Z</time>
      </trkpt>
      <trkpt lat="44.00616" lon="2.13962">
        <ele>348.9</ele>
        <time>2017-04-20T13:14:56Z</time>
      </trkpt>
      <trkpt lat="44.00628" lon="2.13959">
        <ele>349</ele>
        <time>2017-04-20T13:14:58Z</time>
      </trkpt>
      <trkpt lat="44.0064" lon="2.13958">
        <ele>349.2</ele>
        <time>2017-04-20T13:15:00Z</time>
      </trkpt>
      <trkpt lat="44.00652" lon="2.13957">
        <ele>349.6</ele>
        <time>2017-04-20T13:15:02Z</time>
      </trkpt>
      <trkpt lat="44.00663" lon="2.13958">
        <ele>350.8</ele>
        <time>2017-04-20T13:15:04Z</time>
      </trkpt>
      <trkpt lat="44.00673" lon="2.13958">
        <ele>351.6</ele>
        <time>2017-04-20T13:15:06Z</time>
      </trkpt>
      <trkpt lat="44.00683" lon="2.13959">
        <ele>352.4</ele>
        <time>2017-04-20T13:15:08Z</time>
      </trkpt>
      <trkpt lat="44.00693" lon="2.1396">
        <ele>353.2</ele>
        <time>2017-04-20T13:15:10Z</time>
      </trkpt>
      <trkpt lat="44.00701" lon="2.13961">
        <ele>353.9</ele>
        <time>2017-04-20T13:15:12Z</time>
      </trkpt>
      <trkpt lat="44.0071" lon="2.13962">
        <ele>354.6</ele>
        <time>2017-04-20T13:15:14Z</time>
      </trkpt>
      <trkpt lat="44.00719" lon="2.13963">
        <ele>355.1</ele>
        <time>2017-04-20T13:15:16Z</time>
      </trkpt>
      <trkpt lat="44.00727" lon="2.13963">
        <ele>355.5</ele>
        <time>2017-04-20T13:15:18Z</time>
      </trkpt>
      <trkpt lat="44.00736" lon="2.13965">
        <ele>355.7</ele>
        <time>2017-04-20T13:15:20Z</time>
      </trkpt>
      <trkpt lat="44.00746" lon="2.13966">
        <ele>355.6</ele>
        <time>2017-04-20T13:15:22Z</time>
      </trkpt>
      <trkpt lat="44.00757" lon="2.13967">
        <ele>355.5</ele>
        <time>2017-04-20T13:15:24Z</time>
      </trkpt>
      <trkpt lat="44.00767" lon="2.13968">
        <ele>355.4</ele>
        <time>2017-04-20T13:15:26Z</time>
      </trkpt>
      <trkpt lat="44.00778" lon="2.13965">
        <ele>355.3</ele>
        <time>2017-04-20T13:15:28Z</time>
      </trkpt>
      <trkpt lat="44.00789" lon="2.1396">
        <ele>355.4</ele>
        <time>2017-04-20T13:15:30Z</time>
      </trkpt>
      <trkpt lat="44.00799" lon="2.13956">
        <ele>355.3</ele>
        <time>2017-04-20T13:15:32Z</time>
      </trkpt>
      <trkpt lat="44.00807" lon="2.13951">
        <ele>356.1</ele>
        <time>2017-04-20T13:15:34Z</time>
      </trkpt>
      <trkpt lat="44.00815" lon="2.13947">
        <ele>355.9</ele>
        <time>2017-04-20T13:15:36Z</time>
      </trkpt>
      <trkpt lat="44.00822" lon="2.13944">
        <ele>355.4</ele>
        <time>2017-04-20T13:15:38Z</time>
      </trkpt>
      <trkpt lat="44.0083" lon="2.1394">
        <ele>355.1</ele>
        <time>2017-04-20T13:15:40Z</time>
      </trkpt>
      <trkpt lat="44.00839" lon="2.13936">
        <ele>354.6</ele>
        <time>2017-04-20T13:15:42Z</time>
      </trkpt>
      <trkpt lat="44.00849" lon="2.13934">
        <ele>354.2</ele>
        <time>2017-04-20T13:15:44Z</time>
      </trkpt>
      <trkpt lat="44.00859" lon="2.13931">
        <ele>353.8</ele>
        <time>2017-04-20T13:15:46Z</time>
      </trkpt>
      <trkpt lat="44.00869" lon="2.13928">
        <ele>353.7</ele>
        <time>2017-04-20T13:15:48Z</time>
      </trkpt>
      <trkpt lat="44.00878" lon="2.13925">
        <ele>353.6</ele>
        <time>2017-04-20T13:15:50Z</time>
      </trkpt>
      <trkpt lat="44.00886" lon="2.13922">
        <ele>353.4</ele>
        <time>2017-04-20T13:15:52Z</time>
      </trkpt>
      <trkpt lat="44.00895" lon="2.13916">
        <ele>353.5</ele>
        <time>2017-04-20T13:15:54Z</time>
      </trkpt>
      <trkpt lat="44.00903" lon="2.13912">
        <ele>353.3</ele>
        <time>2017-04-20T13:15:56Z</time>
      </trkpt>
      <trkpt lat="44.00911" lon="2.13919">
        <ele>351.6</ele>
        <time>2017-04-20T13:15:58Z</time>
      </trkpt>
      <trkpt lat="44.00909" lon="2.13932">
        <ele>351</ele>
        <time>2017-04-20T13:16:00Z</time>
      </trkpt>
      <trkpt lat="44.00916" lon="2.1394">
        <ele>351.3</ele>
        <time>2017-04-20T13:16:03Z</time>
      </trkpt>
      <trkpt lat="44.00923" lon="2.13932">
        <ele>350.9</ele>
        <time>2017-04-20T13:16:05Z</time>
      </trkpt>
      <trkpt lat="44.0093" lon="2.13923">
        <ele>350.2</ele>
        <time>2017-04-20T13:16:07Z</time>
      </trkpt>
      <trkpt lat="44.00938" lon="2.13926">
        <ele>348.5</ele>
        <time>2017-04-20T13:16:10Z</time>
      </trkpt>
      <trkpt lat="44.00933" lon="2.13935">
        <ele>348.1</ele>
        <time>2017-04-20T13:16:12Z</time>
      </trkpt>
      <trkpt lat="44.00938" lon="2.13942">
        <ele>347.9</ele>
        <time>2017-04-20T13:16:15Z</time>
      </trkpt>
      <trkpt lat="44.00945" lon="2.13934">
        <ele>347.6</ele>
        <time>2017-04-20T13:16:17Z</time>
      </trkpt>
      <trkpt lat="44.00952" lon="2.13928">
        <ele>346.9</ele>
        <time>2017-04-20T13:16:19Z</time>
      </trkpt>
      <trkpt lat="44.00955" lon="2.13939">
        <ele>344.5</ele>
        <time>2017-04-20T13:16:22Z</time>
      </trkpt>
      <trkpt lat="44.00961" lon="2.13947">
        <ele>343.2</ele>
        <time>2017-04-20T13:16:25Z</time>
      </trkpt>
      <trkpt lat="44.00968" lon="2.13939">
        <ele>342.6</ele>
        <time>2017-04-20T13:16:27Z</time>
      </trkpt>
      <trkpt lat="44.00974" lon="2.1393">
        <ele>342.5</ele>
        <time>2017-04-20T13:16:29Z</time>
      </trkpt>
      <trkpt lat="44.00982" lon="2.13936">
        <ele>341.6</ele>
        <time>2017-04-20T13:16:32Z</time>
      </trkpt>
      <trkpt lat="44.00979" lon="2.13947">
        <ele>341.3</ele>
        <time>2017-04-20T13:16:34Z</time>
      </trkpt>
      <trkpt lat="44.00986" lon="2.13951">
        <ele>341</ele>
        <time>2017-04-20T13:16:37Z</time>
      </trkpt>
      <trkpt lat="44.00994" lon="2.13945">
        <ele>340.3</ele>
        <time>2017-04-20T13:16:39Z</time>
      </trkpt>
      <trkpt lat="44.01002" lon="2.13938">
        <ele>339.8</ele>
        <time>2017-04-20T13:16:41Z</time>
      </trkpt>
      <trkpt lat="44.01003" lon="2.13951">
        <ele>338.4</ele>
        <time>2017-04-20T13:16:45Z</time>
      </trkpt>
      <trkpt lat="44.00996" lon="2.13958">
        <ele>338.1</ele>
        <time>2017-04-20T13:16:47Z</time>
      </trkpt>
      <trkpt lat="44.00991" lon="2.13968">
        <ele>337.9</ele>
        <time>2017-04-20T13:16:49Z</time>
      </trkpt>
      <trkpt lat="44.00989" lon="2.13981">
        <ele>337.6</ele>
        <time>2017-04-20T13:16:51Z</time>
      </trkpt>
      <trkpt lat="44.00989" lon="2.13995">
        <ele>337.6</ele>
        <time>2017-04-20T13:16:53Z</time>
      </trkpt>
      <trkpt lat="44.00986" lon="2.14008">
        <ele>336.8</ele>
        <time>2017-04-20T13:16:55Z</time>
      </trkpt>
      <trkpt lat="44.00993" lon="2.14013">
        <ele>336</ele>
        <time>2017-04-20T13:16:58Z</time>
      </trkpt>
      <trkpt lat="44.01001" lon="2.14005">
        <ele>335.5</ele>
        <time>2017-04-20T13:17:00Z</time>
      </trkpt>
      <trkpt lat="44.01009" lon="2.13996">
        <ele>334.8</ele>
        <time>2017-04-20T13:17:02Z</time>
      </trkpt>
      <trkpt lat="44.01017" lon="2.13986">
        <ele>334.3</ele>
        <time>2017-04-20T13:17:04Z</time>
      </trkpt>
      <trkpt lat="44.01028" lon="2.13974">
        <ele>333.8</ele>
        <time>2017-04-20T13:17:06Z</time>
      </trkpt>
      <trkpt lat="44.01041" lon="2.13966">
        <ele>332.8</ele>
        <time>2017-04-20T13:17:08Z</time>
      </trkpt>
      <trkpt lat="44.01048" lon="2.13964">
        <ele>332.2</ele>
        <time>2017-04-20T13:17:09Z</time>
      </trkpt>
      <trkpt lat="44.01063" lon="2.13963">
        <ele>331.8</ele>
        <time>2017-04-20T13:17:11Z</time>
      </trkpt>
      <trkpt lat="44.01077" lon="2.13963">
        <ele>331.5</ele>
        <time>2017-04-20T13:17:13Z</time>
      </trkpt>
      <trkpt lat="44.01089" lon="2.13961">
        <ele>331.3</ele>
        <time>2017-04-20T13:17:15Z</time>
      </trkpt>
      <trkpt lat="44.01099" lon="2.13951">
        <ele>330.7</ele>
        <time>2017-04-20T13:17:17Z</time>
      </trkpt>
      <trkpt lat="44.01106" lon="2.13938">
        <ele>330.3</ele>
        <time>2017-04-20T13:17:19Z</time>
      </trkpt>
      <trkpt lat="44.01111" lon="2.13923">
        <ele>329.8</ele>
        <time>2017-04-20T13:17:21Z</time>
      </trkpt>
      <trkpt lat="44.01111" lon="2.13906">
        <ele>329.5</ele>
        <time>2017-04-20T13:17:23Z</time>
      </trkpt>
      <trkpt lat="44.01108" lon="2.13892">
        <ele>328.9</ele>
        <time>2017-04-20T13:17:25Z</time>
      </trkpt>
      <trkpt lat="44.01102" lon="2.13878">
        <ele>328.2</ele>
        <time>2017-04-20T13:17:27Z</time>
      </trkpt>
      <trkpt lat="44.01101" lon="2.13867">
        <ele>327.8</ele>
        <time>2017-04-20T13:17:29Z</time>
      </trkpt>
      <trkpt lat="44.01102" lon="2.13857">
        <ele>327.2</ele>
        <time>2017-04-20T13:17:31Z</time>
      </trkpt>
      <trkpt lat="44.01111" lon="2.13851">
        <ele>326.4</ele>
        <time>2017-04-20T13:17:34Z</time>
      </trkpt>
      <trkpt lat="44.01119" lon="2.13851">
        <ele>326.2</ele>
        <time>2017-04-20T13:17:36Z</time>
      </trkpt>
      <trkpt lat="44.01128" lon="2.1385">
        <ele>326.1</ele>
        <time>2017-04-20T13:17:38Z</time>
      </trkpt>
      <trkpt lat="44.01137" lon="2.1385">
        <ele>325.8</ele>
        <time>2017-04-20T13:17:40Z</time>
      </trkpt>
      <trkpt lat="44.01148" lon="2.13849">
        <ele>325</ele>
        <time>2017-04-20T13:17:43Z</time>
      </trkpt>
      <trkpt lat="44.01158" lon="2.13848">
        <ele>325.2</ele>
        <time>2017-04-20T13:17:46Z</time>
      </trkpt>
      <trkpt lat="44.01166" lon="2.13847">
        <ele>325</ele>
        <time>2017-04-20T13:17:48Z</time>
      </trkpt>
      <trkpt lat="44.01173" lon="2.13847">
        <ele>326</ele>
        <time>2017-04-20T13:17:50Z</time>
      </trkpt>
      <trkpt lat="44.0118" lon="2.1385">
        <ele>325.9</ele>
        <time>2017-04-20T13:17:52Z</time>
      </trkpt>
      <trkpt lat="44.01191" lon="2.13851">
        <ele>324.1</ele>
        <time>2017-04-20T13:17:55Z</time>
      </trkpt>
      <trkpt lat="44.01199" lon="2.13852">
        <ele>323.9</ele>
        <time>2017-04-20T13:17:57Z</time>
      </trkpt>
      <trkpt lat="44.01208" lon="2.13854">
        <ele>323.1</ele>
        <time>2017-04-20T13:17:59Z</time>
      </trkpt>
      <trkpt lat="44.01218" lon="2.13851">
        <ele>322.1</ele>
        <time>2017-04-20T13:18:01Z</time>
      </trkpt>
      <trkpt lat="44.01228" lon="2.13854">
        <ele>321.9</ele>
        <time>2017-04-20T13:18:03Z</time>
      </trkpt>
      <trkpt lat="44.01238" lon="2.13858">
        <ele>321.3</ele>
        <time>2017-04-20T13:18:06Z</time>
      </trkpt>
      <trkpt lat="44.01249" lon="2.1386">
        <ele>320.5</ele>
        <time>2017-04-20T13:18:07Z</time>
      </trkpt>
      <trkpt lat="44.01262" lon="2.13862">
        <ele>319.4</ele>
        <time>2017-04-20T13:18:09Z</time>
      </trkpt>
      <trkpt lat="44.01276" lon="2.13863">
        <ele>318.5</ele>
        <time>2017-04-20T13:18:11Z</time>
      </trkpt>
      <trkpt lat="44.01283" lon="2.13864">
        <ele>317.8</ele>
        <time>2017-04-20T13:18:12Z</time>
      </trkpt>
      <trkpt lat="44.01291" lon="2.13865">
        <ele>317.3</ele>
        <time>2017-04-20T13:18:13Z</time>
      </trkpt>
      <trkpt lat="44.01298" lon="2.13865">
        <ele>316.8</ele>
        <time>2017-04-20T13:18:14Z</time>
      </trkpt>
      <trkpt lat="44.01306" lon="2.13865">
        <ele>316.4</ele>
        <time>2017-04-20T13:18:15Z</time>
      </trkpt>
      <trkpt lat="44.01314" lon="2.13866">
        <ele>316</ele>
        <time>2017-04-20T13:18:16Z</time>
      </trkpt>
      <trkpt lat="44.01327" lon="2.13867">
        <ele>315.4</ele>
        <time>2017-04-20T13:18:18Z</time>
      </trkpt>
      <trkpt lat="44.01339" lon="2.13869">
        <ele>314.5</ele>
        <time>2017-04-20T13:18:20Z</time>
      </trkpt>
      <trkpt lat="44.01351" lon="2.13878">
        <ele>314</ele>
        <time>2017-04-20T13:18:22Z</time>
      </trkpt>
      <trkpt lat="44.01361" lon="2.1389">
        <ele>313.3</ele>
        <time>2017-04-20T13:18:24Z</time>
      </trkpt>
      <trkpt lat="44.0137" lon="2.13901">
        <ele>312.1</ele>
        <time>2017-04-20T13:18:26Z</time>
      </trkpt>
      <trkpt lat="44.01379" lon="2.1391">
        <ele>310.9</ele>
        <time>2017-04-20T13:18:28Z</time>
      </trkpt>
      <trkpt lat="44.01385" lon="2.13921">
        <ele>310.2</ele>
        <time>2017-04-20T13:18:30Z</time>
      </trkpt>
      <trkpt lat="44.01384" lon="2.13933">
        <ele>309.8</ele>
        <time>2017-04-20T13:18:32Z</time>
      </trkpt>
      <trkpt lat="44.01379" lon="2.13942">
        <ele>309.9</ele>
        <time>2017-04-20T13:18:34Z</time>
      </trkpt>
      <trkpt lat="44.01375" lon="2.13955">
        <ele>309.8</ele>
        <time>2017-04-20T13:18:37Z</time>
      </trkpt>
      <trkpt lat="44.01374" lon="2.13966">
        <ele>309.9</ele>
        <time>2017-04-20T13:18:40Z</time>
      </trkpt>
      <trkpt lat="44.01375" lon="2.13976">
        <ele>310</ele>
        <time>2017-04-20T13:18:43Z</time>
      </trkpt>
      <trkpt lat="44.01375" lon="2.13989">
        <ele>310.3</ele>
        <time>2017-04-20T13:18:46Z</time>
      </trkpt>
      <trkpt lat="44.01373" lon="2.14003">
        <ele>310.7</ele>
        <time>2017-04-20T13:18:49Z</time>
      </trkpt>
      <trkpt lat="44.01371" lon="2.14013">
        <ele>311</ele>
        <time>2017-04-20T13:18:51Z</time>
      </trkpt>
      <trkpt lat="44.01368" lon="2.14024">
        <ele>311.2</ele>
        <time>2017-04-20T13:18:53Z</time>
      </trkpt>
      <trkpt lat="44.01365" lon="2.14033">
        <ele>311.1</ele>
        <time>2017-04-20T13:18:55Z</time>
      </trkpt>
      <trkpt lat="44.01365" lon="2.14046">
        <ele>311.4</ele>
        <time>2017-04-20T13:18:58Z</time>
      </trkpt>
      <trkpt lat="44.01374" lon="2.14055">
        <ele>311</ele>
        <time>2017-04-20T13:19:01Z</time>
      </trkpt>
      <trkpt lat="44.01382" lon="2.14058">
        <ele>310.6</ele>
        <time>2017-04-20T13:19:03Z</time>
      </trkpt>
      <trkpt lat="44.01389" lon="2.14059">
        <ele>310</ele>
        <time>2017-04-20T13:19:05Z</time>
      </trkpt>
      <trkpt lat="44.01396" lon="2.14064">
        <ele>309.3</ele>
        <time>2017-04-20T13:19:10Z</time>
      </trkpt>
      <trkpt lat="44.01402" lon="2.14071">
        <ele>309</ele>
        <time>2017-04-20T13:19:15Z</time>
      </trkpt>
      <trkpt lat="44.01409" lon="2.14075">
        <ele>306.2</ele>
        <time>2017-04-20T13:19:19Z</time>
      </trkpt>
      <trkpt lat="44.01418" lon="2.14079">
        <ele>302.2</ele>
        <time>2017-04-20T13:19:23Z</time>
      </trkpt>
      <trkpt lat="44.01427" lon="2.14083">
        <ele>298.8</ele>
        <time>2017-04-20T13:19:27Z</time>
      </trkpt>
      <trkpt lat="44.01435" lon="2.14077">
        <ele>297.9</ele>
        <time>2017-04-20T13:19:30Z</time>
      </trkpt>
      <trkpt lat="44.01439" lon="2.14067">
        <ele>297.2</ele>
        <time>2017-04-20T13:19:34Z</time>
      </trkpt>
      <trkpt lat="44.01439" lon="2.14057">
        <ele>296.1</ele>
        <time>2017-04-20T13:19:38Z</time>
      </trkpt>
      <trkpt lat="44.01438" lon="2.14046">
        <ele>296.3</ele>
        <time>2017-04-20T13:19:42Z</time>
      </trkpt>
      <trkpt lat="44.01436" lon="2.14036">
        <ele>296.6</ele>
        <time>2017-04-20T13:19:45Z</time>
      </trkpt>
      <trkpt lat="44.01433" lon="2.14024">
        <ele>297.8</ele>
        <time>2017-04-20T13:19:48Z</time>
      </trkpt>
      <trkpt lat="44.01433" lon="2.14012">
        <ele>297.8</ele>
        <time>2017-04-20T13:19:51Z</time>
      </trkpt>
      <trkpt lat="44.01435" lon="2.13998">
        <ele>297.6</ele>
        <time>2017-04-20T13:19:54Z</time>
      </trkpt>
      <trkpt lat="44.01436" lon="2.13985">
        <ele>298.3</ele>
        <time>2017-04-20T13:19:57Z</time>
      </trkpt>
      <trkpt lat="44.01438" lon="2.13975">
        <ele>298.6</ele>
        <time>2017-04-20T13:19:59Z</time>
      </trkpt>
      <trkpt lat="44.01439" lon="2.13963">
        <ele>299.1</ele>
        <time>2017-04-20T13:20:01Z</time>
      </trkpt>
      <trkpt lat="44.01441" lon="2.13952">
        <ele>299.8</ele>
        <time>2017-04-20T13:20:03Z</time>
      </trkpt>
      <trkpt lat="44.01444" lon="2.13942">
        <ele>300.5</ele>
        <time>2017-04-20T13:20:05Z</time>
      </trkpt>
      <trkpt lat="44.01447" lon="2.13932">
        <ele>300.9</ele>
        <time>2017-04-20T13:20:07Z</time>
      </trkpt>
      <trkpt lat="44.0145" lon="2.13918">
        <ele>300.3</ele>
        <time>2017-04-20T13:20:10Z</time>
      </trkpt>
      <trkpt lat="44.01453" lon="2.13909">
        <ele>299</ele>
        <time>2017-04-20T13:20:14Z</time>
      </trkpt>
      <trkpt lat="44.01461" lon="2.13909">
        <ele>297.7</ele>
        <time>2017-04-20T13:20:17Z</time>
      </trkpt>
      <trkpt lat="44.01469" lon="2.13906">
        <ele>296.7</ele>
        <time>2017-04-20T13:20:20Z</time>
      </trkpt>
      <trkpt lat="44.01472" lon="2.13895">
        <ele>297</ele>
        <time>2017-04-20T13:20:24Z</time>
      </trkpt>
      <trkpt lat="44.0148" lon="2.1389">
        <ele>295.8</ele>
        <time>2017-04-20T13:20:28Z</time>
      </trkpt>
      <trkpt lat="44.01491" lon="2.13892">
        <ele>294.1</ele>
        <time>2017-04-20T13:20:31Z</time>
      </trkpt>
      <trkpt lat="44.01499" lon="2.13894">
        <ele>293.1</ele>
        <time>2017-04-20T13:20:33Z</time>
      </trkpt>
      <trkpt lat="44.01507" lon="2.13896">
        <ele>292</ele>
        <time>2017-04-20T13:20:35Z</time>
      </trkpt>
      <trkpt lat="44.01516" lon="2.13902">
        <ele>290.4</ele>
        <time>2017-04-20T13:20:38Z</time>
      </trkpt>
      <trkpt lat="44.01524" lon="2.13909">
        <ele>289.1</ele>
        <time>2017-04-20T13:20:41Z</time>
      </trkpt>
      <trkpt lat="44.01529" lon="2.1392">
        <ele>288.2</ele>
        <time>2017-04-20T13:20:44Z</time>
      </trkpt>
      <trkpt lat="44.01536" lon="2.13929">
        <ele>287.8</ele>
        <time>2017-04-20T13:20:47Z</time>
      </trkpt>
      <trkpt lat="44.01543" lon="2.13938">
        <ele>287.7</ele>
        <time>2017-04-20T13:20:50Z</time>
      </trkpt>
      <trkpt lat="44.01549" lon="2.13943">
        <ele>286.8</ele>
        <time>2017-04-20T13:20:52Z</time>
      </trkpt>
      <trkpt lat="44.01555" lon="2.1395">
        <ele>285.2</ele>
        <time>2017-04-20T13:20:54Z</time>
      </trkpt>
      <trkpt lat="44.01558" lon="2.1396">
        <ele>284.3</ele>
        <time>2017-04-20T13:20:56Z</time>
      </trkpt>
      <trkpt lat="44.01558" lon="2.13971">
        <ele>283.8</ele>
        <time>2017-04-20T13:20:58Z</time>
      </trkpt>
      <trkpt lat="44.01557" lon="2.13981">
        <ele>283.5</ele>
        <time>2017-04-20T13:21:00Z</time>
      </trkpt>
      <trkpt lat="44.01552" lon="2.13994">
        <ele>282.8</ele>
        <time>2017-04-20T13:21:03Z</time>
      </trkpt>
      <trkpt lat="44.01547" lon="2.14005">
        <ele>282.3</ele>
        <time>2017-04-20T13:21:06Z</time>
      </trkpt>
      <trkpt lat="44.01544" lon="2.14016">
        <ele>282.9</ele>
        <time>2017-04-20T13:21:08Z</time>
      </trkpt>
      <trkpt lat="44.01542" lon="2.14025">
        <ele>283.3</ele>
        <time>2017-04-20T13:21:10Z</time>
      </trkpt>
      <trkpt lat="44.01538" lon="2.14034">
        <ele>282.9</ele>
        <time>2017-04-20T13:21:12Z</time>
      </trkpt>
      <trkpt lat="44.01535" lon="2.14044">
        <ele>283.1</ele>
        <time>2017-04-20T13:21:14Z</time>
      </trkpt>
      <trkpt lat="44.01534" lon="2.14055">
        <ele>282.8</ele>
        <time>2017-04-20T13:21:16Z</time>
      </trkpt>
      <trkpt lat="44.01533" lon="2.14067">
        <ele>282.8</ele>
        <time>2017-04-20T13:21:18Z</time>
      </trkpt>
      <trkpt lat="44.01533" lon="2.14077">
        <ele>282.3</ele>
        <time>2017-04-20T13:21:20Z</time>
      </trkpt>
      <trkpt lat="44.01534" lon="2.14087">
        <ele>282</ele>
        <time>2017-04-20T13:21:22Z</time>
      </trkpt>
      <trkpt lat="44.01535" lon="2.14098">
        <ele>281.8</ele>
        <time>2017-04-20T13:21:24Z</time>
      </trkpt>
      <trkpt lat="44.01536" lon="2.14112">
        <ele>281.8</ele>
        <time>2017-04-20T13:21:27Z</time>
      </trkpt>
      <trkpt lat="44.01536" lon="2.14122">
        <ele>281.9</ele>
        <time>2017-04-20T13:21:29Z</time>
      </trkpt>
      <trkpt lat="44.01532" lon="2.14131">
        <ele>281.8</ele>
        <time>2017-04-20T13:21:31Z</time>
      </trkpt>
      <trkpt lat="44.01524" lon="2.14135">
        <ele>282.3</ele>
        <time>2017-04-20T13:21:33Z</time>
      </trkpt>
      <trkpt lat="44.01515" lon="2.14135">
        <ele>283</ele>
        <time>2017-04-20T13:21:35Z</time>
      </trkpt>
      <trkpt lat="44.01506" lon="2.14135">
        <ele>283.7</ele>
        <time>2017-04-20T13:21:37Z</time>
      </trkpt>
      <trkpt lat="44.01501" lon="2.14141">
        <ele>285</ele>
        <time>2017-04-20T13:21:39Z</time>
      </trkpt>
      <trkpt lat="44.01499" lon="2.14153">
        <ele>285.3</ele>
        <time>2017-04-20T13:21:41Z</time>
      </trkpt>
      <trkpt lat="44.01498" lon="2.14166">
        <ele>285.6</ele>
        <time>2017-04-20T13:21:43Z</time>
      </trkpt>
      <trkpt lat="44.01497" lon="2.14178">
        <ele>286</ele>
        <time>2017-04-20T13:21:45Z</time>
      </trkpt>
      <trkpt lat="44.01497" lon="2.1419">
        <ele>286.5</ele>
        <time>2017-04-20T13:21:47Z</time>
      </trkpt>
      <trkpt lat="44.01496" lon="2.14201">
        <ele>286.6</ele>
        <time>2017-04-20T13:21:49Z</time>
      </trkpt>
      <trkpt lat="44.01496" lon="2.14214">
        <ele>286.5</ele>
        <time>2017-04-20T13:21:51Z</time>
      </trkpt>
      <trkpt lat="44.01496" lon="2.14226">
        <ele>286.2</ele>
        <time>2017-04-20T13:21:53Z</time>
      </trkpt>
      <trkpt lat="44.01497" lon="2.14238">
        <ele>286.2</ele>
        <time>2017-04-20T13:21:55Z</time>
      </trkpt>
      <trkpt lat="44.01502" lon="2.14247">
        <ele>285.4</ele>
        <time>2017-04-20T13:21:57Z</time>
      </trkpt>
      <trkpt lat="44.01509" lon="2.14252">
        <ele>284</ele>
        <time>2017-04-20T13:21:59Z</time>
      </trkpt>
      <trkpt lat="44.01519" lon="2.14254">
        <ele>282</ele>
        <time>2017-04-20T13:22:02Z</time>
      </trkpt>
      <trkpt lat="44.01525" lon="2.14246">
        <ele>281</ele>
        <time>2017-04-20T13:22:04Z</time>
      </trkpt>
      <trkpt lat="44.01531" lon="2.1424">
        <ele>280.2</ele>
        <time>2017-04-20T13:22:06Z</time>
      </trkpt>
      <trkpt lat="44.01537" lon="2.14234">
        <ele>278.7</ele>
        <time>2017-04-20T13:22:08Z</time>
      </trkpt>
      <trkpt lat="44.01542" lon="2.14225">
        <ele>278.8</ele>
        <time>2017-04-20T13:22:10Z</time>
      </trkpt>
      <trkpt lat="44.01547" lon="2.14214">
        <ele>278.1</ele>
        <time>2017-04-20T13:22:12Z</time>
      </trkpt>
      <trkpt lat="44.01551" lon="2.14202">
        <ele>277.4</ele>
        <time>2017-04-20T13:22:14Z</time>
      </trkpt>
      <trkpt lat="44.01557" lon="2.14194">
        <ele>277.3</ele>
        <time>2017-04-20T13:22:16Z</time>
      </trkpt>
      <trkpt lat="44.01563" lon="2.14184">
        <ele>277.3</ele>
        <time>2017-04-20T13:22:18Z</time>
      </trkpt>
      <trkpt lat="44.01565" lon="2.14174">
        <ele>277.4</ele>
        <time>2017-04-20T13:22:20Z</time>
      </trkpt>
      <trkpt lat="44.01564" lon="2.14161">
        <ele>278.8</ele>
        <time>2017-04-20T13:22:23Z</time>
      </trkpt>
      <trkpt lat="44.01563" lon="2.14147">
        <ele>278.9</ele>
        <time>2017-04-20T13:22:26Z</time>
      </trkpt>
      <trkpt lat="44.0156" lon="2.14138">
        <ele>280</ele>
        <time>2017-04-20T13:22:28Z</time>
      </trkpt>
      <trkpt lat="44.01555" lon="2.14128">
        <ele>280.7</ele>
        <time>2017-04-20T13:22:30Z</time>
      </trkpt>
      <trkpt lat="44.01553" lon="2.14119">
        <ele>281.3</ele>
        <time>2017-04-20T13:22:32Z</time>
      </trkpt>
      <trkpt lat="44.01553" lon="2.14108">
        <ele>282.4</ele>
        <time>2017-04-20T13:22:34Z</time>
      </trkpt>
      <trkpt lat="44.01553" lon="2.14097">
        <ele>282.7</ele>
        <time>2017-04-20T13:22:36Z</time>
      </trkpt>
      <trkpt lat="44.01554" lon="2.14086">
        <ele>283.1</ele>
        <time>2017-04-20T13:22:38Z</time>
      </trkpt>
      <trkpt lat="44.01555" lon="2.14076">
        <ele>283.1</ele>
        <time>2017-04-20T13:22:40Z</time>
      </trkpt>
      <trkpt lat="44.01557" lon="2.14065">
        <ele>283.4</ele>
        <time>2017-04-20T13:22:42Z</time>
      </trkpt>
      <trkpt lat="44.0156" lon="2.14052">
        <ele>283</ele>
        <time>2017-04-20T13:22:45Z</time>
      </trkpt>
      <trkpt lat="44.01564" lon="2.1404">
        <ele>282.2</ele>
        <time>2017-04-20T13:22:48Z</time>
      </trkpt>
      <trkpt lat="44.01567" lon="2.14032">
        <ele>281.9</ele>
        <time>2017-04-20T13:22:50Z</time>
      </trkpt>
      <trkpt lat="44.01573" lon="2.1402">
        <ele>281.6</ele>
        <time>2017-04-20T13:22:53Z</time>
      </trkpt>
      <trkpt lat="44.01578" lon="2.1401">
        <ele>282.1</ele>
        <time>2017-04-20T13:22:56Z</time>
      </trkpt>
      <trkpt lat="44.01584" lon="2.14002">
        <ele>282.1</ele>
        <time>2017-04-20T13:22:59Z</time>
      </trkpt>
      <trkpt lat="44.01591" lon="2.13995">
        <ele>282.1</ele>
        <time>2017-04-20T13:23:02Z</time>
      </trkpt>
      <trkpt lat="44.016" lon="2.13991">
        <ele>282.3</ele>
        <time>2017-04-20T13:23:05Z</time>
      </trkpt>
      <trkpt lat="44.01609" lon="2.13987">
        <ele>281.5</ele>
        <time>2017-04-20T13:23:09Z</time>
      </trkpt>
      <trkpt lat="44.01618" lon="2.13982">
        <ele>281.6</ele>
        <time>2017-04-20T13:23:12Z</time>
      </trkpt>
      <trkpt lat="44.01626" lon="2.13976">
        <ele>282.6</ele>
        <time>2017-04-20T13:23:15Z</time>
      </trkpt>
      <trkpt lat="44.01632" lon="2.13969">
        <ele>282.5</ele>
        <time>2017-04-20T13:23:18Z</time>
      </trkpt>
      <trkpt lat="44.01639" lon="2.13963">
        <ele>282.9</ele>
        <time>2017-04-20T13:23:21Z</time>
      </trkpt>
      <trkpt lat="44.01645" lon="2.13955">
        <ele>284</ele>
        <time>2017-04-20T13:23:24Z</time>
      </trkpt>
      <trkpt lat="44.0165" lon="2.13946">
        <ele>284.8</ele>
        <time>2017-04-20T13:23:27Z</time>
      </trkpt>
      <trkpt lat="44.01656" lon="2.1394">
        <ele>285.3</ele>
        <time>2017-04-20T13:23:31Z</time>
      </trkpt>
      <trkpt lat="44.01664" lon="2.1394">
        <ele>285.7</ele>
        <time>2017-04-20T13:23:37Z</time>
      </trkpt>
      <trkpt lat="44.01671" lon="2.1394">
        <ele>286.2</ele>
        <time>2017-04-20T13:23:42Z</time>
      </trkpt>
      <trkpt lat="44.01671" lon="2.13944">
        <ele>286.5</ele>
        <time>2017-04-20T13:23:49Z</time>
      </trkpt>
      <trkpt lat="44.01664" lon="2.1394">
        <ele>286.8</ele>
        <time>2017-04-20T13:23:53Z</time>
      </trkpt>
      <trkpt lat="44.01657" lon="2.13933">
        <ele>286.6</ele>
        <time>2017-04-20T13:23:57Z</time>
      </trkpt>
      <trkpt lat="44.0165" lon="2.13924">
        <ele>286.7</ele>
        <time>2017-04-20T13:24:01Z</time>
      </trkpt>
      <trkpt lat="44.01649" lon="2.13912">
        <ele>287.5</ele>
        <time>2017-04-20T13:24:05Z</time>
      </trkpt>
      <trkpt lat="44.0165" lon="2.13901">
        <ele>286.8</ele>
        <time>2017-04-20T13:24:08Z</time>
      </trkpt>
      <trkpt lat="44.01652" lon="2.13887">
        <ele>286.3</ele>
        <time>2017-04-20T13:24:11Z</time>
      </trkpt>
      <trkpt lat="44.01655" lon="2.13878">
        <ele>286</ele>
        <time>2017-04-20T13:24:13Z</time>
      </trkpt>
      <trkpt lat="44.01661" lon="2.13869">
        <ele>286.2</ele>
        <time>2017-04-20T13:24:15Z</time>
      </trkpt>
      <trkpt lat="44.01665" lon="2.13858">
        <ele>286.3</ele>
        <time>2017-04-20T13:24:18Z</time>
      </trkpt>
      <trkpt lat="44.01667" lon="2.13844">
        <ele>286.8</ele>
        <time>2017-04-20T13:24:21Z</time>
      </trkpt>
      <trkpt lat="44.0167" lon="2.13832">
        <ele>287.2</ele>
        <time>2017-04-20T13:24:24Z</time>
      </trkpt>
      <trkpt lat="44.01672" lon="2.1382">
        <ele>287.7</ele>
        <time>2017-04-20T13:24:28Z</time>
      </trkpt>
      <trkpt lat="44.01678" lon="2.13809">
        <ele>286.7</ele>
        <time>2017-04-20T13:24:31Z</time>
      </trkpt>
      <trkpt lat="44.01684" lon="2.138">
        <ele>286.1</ele>
        <time>2017-04-20T13:24:34Z</time>
      </trkpt>
      <trkpt lat="44.0169" lon="2.13789">
        <ele>285.2</ele>
        <time>2017-04-20T13:24:37Z</time>
      </trkpt>
      <trkpt lat="44.01695" lon="2.13781">
        <ele>284.9</ele>
        <time>2017-04-20T13:24:39Z</time>
      </trkpt>
      <trkpt lat="44.01701" lon="2.13771">
        <ele>284.9</ele>
        <time>2017-04-20T13:24:41Z</time>
      </trkpt>
      <trkpt lat="44.01705" lon="2.13759">
        <ele>285.2</ele>
        <time>2017-04-20T13:24:43Z</time>
      </trkpt>
      <trkpt lat="44.01709" lon="2.13747">
        <ele>285.9</ele>
        <time>2017-04-20T13:24:45Z</time>
      </trkpt>
      <trkpt lat="44.01715" lon="2.13738">
        <ele>286.5</ele>
        <time>2017-04-20T13:24:47Z</time>
      </trkpt>
      <trkpt lat="44.0172" lon="2.13726">
        <ele>287.6</ele>
        <time>2017-04-20T13:24:49Z</time>
      </trkpt>
      <trkpt lat="44.01722" lon="2.13714">
        <ele>287.2</ele>
        <time>2017-04-20T13:24:51Z</time>
      </trkpt>
      <trkpt lat="44.01722" lon="2.137">
        <ele>287.8</ele>
        <time>2017-04-20T13:24:53Z</time>
      </trkpt>
      <trkpt lat="44.0172" lon="2.13686">
        <ele>288.9</ele>
        <time>2017-04-20T13:24:56Z</time>
      </trkpt>
      <trkpt lat="44.01718" lon="2.13672">
        <ele>290.8</ele>
        <time>2017-04-20T13:24:57Z</time>
      </trkpt>
      <trkpt lat="44.01715" lon="2.13662">
        <ele>292.9</ele>
        <time>2017-04-20T13:24:59Z</time>
      </trkpt>
      <trkpt lat="44.01708" lon="2.13654">
        <ele>294.9</ele>
        <time>2017-04-20T13:25:01Z</time>
      </trkpt>
      <trkpt lat="44.01701" lon="2.13649">
        <ele>296.5</ele>
        <time>2017-04-20T13:25:03Z</time>
      </trkpt>
      <trkpt lat="44.01693" lon="2.13647">
        <ele>296.5</ele>
        <time>2017-04-20T13:25:05Z</time>
      </trkpt>
      <trkpt lat="44.01685" lon="2.13642">
        <ele>297.2</ele>
        <time>2017-04-20T13:25:07Z</time>
      </trkpt>
      <trkpt lat="44.01679" lon="2.13635">
        <ele>298.6</ele>
        <time>2017-04-20T13:25:09Z</time>
      </trkpt>
      <trkpt lat="44.01675" lon="2.13627">
        <ele>299.2</ele>
        <time>2017-04-20T13:25:11Z</time>
      </trkpt>
      <trkpt lat="44.01673" lon="2.13615">
        <ele>301.2</ele>
        <time>2017-04-20T13:25:14Z</time>
      </trkpt>
      <trkpt lat="44.0167" lon="2.13604">
        <ele>302.8</ele>
        <time>2017-04-20T13:25:17Z</time>
      </trkpt>
      <trkpt lat="44.01663" lon="2.13608">
        <ele>304.9</ele>
        <time>2017-04-20T13:25:20Z</time>
      </trkpt>
      <trkpt lat="44.01656" lon="2.13614">
        <ele>306.2</ele>
        <time>2017-04-20T13:25:22Z</time>
      </trkpt>
      <trkpt lat="44.01646" lon="2.13618">
        <ele>307.4</ele>
        <time>2017-04-20T13:25:24Z</time>
      </trkpt>
      <trkpt lat="44.01636" lon="2.13618">
        <ele>308.6</ele>
        <time>2017-04-20T13:25:27Z</time>
      </trkpt>
      <trkpt lat="44.01626" lon="2.13622">
        <ele>309.5</ele>
        <time>2017-04-20T13:25:28Z</time>
      </trkpt>
      <trkpt lat="44.01617" lon="2.13627">
        <ele>310.3</ele>
        <time>2017-04-20T13:25:30Z</time>
      </trkpt>
      <trkpt lat="44.01608" lon="2.13631">
        <ele>311.2</ele>
        <time>2017-04-20T13:25:32Z</time>
      </trkpt>
      <trkpt lat="44.01598" lon="2.13634">
        <ele>312.2</ele>
        <time>2017-04-20T13:25:34Z</time>
      </trkpt>
      <trkpt lat="44.01588" lon="2.13636">
        <ele>313.1</ele>
        <time>2017-04-20T13:25:36Z</time>
      </trkpt>
      <trkpt lat="44.01578" lon="2.13636">
        <ele>313.9</ele>
        <time>2017-04-20T13:25:38Z</time>
      </trkpt>
      <trkpt lat="44.01568" lon="2.13634">
        <ele>314.9</ele>
        <time>2017-04-20T13:25:40Z</time>
      </trkpt>
      <trkpt lat="44.01557" lon="2.13631">
        <ele>315.5</ele>
        <time>2017-04-20T13:25:42Z</time>
      </trkpt>
      <trkpt lat="44.01548" lon="2.13631">
        <ele>316.5</ele>
        <time>2017-04-20T13:25:44Z</time>
      </trkpt>
      <trkpt lat="44.01538" lon="2.13635">
        <ele>319.5</ele>
        <time>2017-04-20T13:25:46Z</time>
      </trkpt>
      <trkpt lat="44.01529" lon="2.13639">
        <ele>320.7</ele>
        <time>2017-04-20T13:25:48Z</time>
      </trkpt>
      <trkpt lat="44.01519" lon="2.13643">
        <ele>321.8</ele>
        <time>2017-04-20T13:25:50Z</time>
      </trkpt>
      <trkpt lat="44.01509" lon="2.13645">
        <ele>323.3</ele>
        <time>2017-04-20T13:25:52Z</time>
      </trkpt>
      <trkpt lat="44.015" lon="2.13646">
        <ele>324</ele>
        <time>2017-04-20T13:25:54Z</time>
      </trkpt>
      <trkpt lat="44.01492" lon="2.13643">
        <ele>324.2</ele>
        <time>2017-04-20T13:25:56Z</time>
      </trkpt>
      <trkpt lat="44.01489" lon="2.13633">
        <ele>325.4</ele>
        <time>2017-04-20T13:25:58Z</time>
      </trkpt>
      <trkpt lat="44.01488" lon="2.13622">
        <ele>326.6</ele>
        <time>2017-04-20T13:26:00Z</time>
      </trkpt>
      <trkpt lat="44.01492" lon="2.13611">
        <ele>328.6</ele>
        <time>2017-04-20T13:26:04Z</time>
      </trkpt>
      <trkpt lat="44.015" lon="2.13608">
        <ele>328</ele>
        <time>2017-04-20T13:26:06Z</time>
      </trkpt>
      <trkpt lat="44.0151" lon="2.13603">
        <ele>328.4</ele>
        <time>2017-04-20T13:26:08Z</time>
      </trkpt>
      <trkpt lat="44.01519" lon="2.13598">
        <ele>328.4</ele>
        <time>2017-04-20T13:26:11Z</time>
      </trkpt>
      <trkpt lat="44.01529" lon="2.13592">
        <ele>328.5</ele>
        <time>2017-04-20T13:26:12Z</time>
      </trkpt>
      <trkpt lat="44.01539" lon="2.13585">
        <ele>328.6</ele>
        <time>2017-04-20T13:26:14Z</time>
      </trkpt>
      <trkpt lat="44.01548" lon="2.13578">
        <ele>329</ele>
        <time>2017-04-20T13:26:16Z</time>
      </trkpt>
      <trkpt lat="44.01557" lon="2.1357">
        <ele>328.9</ele>
        <time>2017-04-20T13:26:18Z</time>
      </trkpt>
      <trkpt lat="44.01567" lon="2.13562">
        <ele>328.7</ele>
        <time>2017-04-20T13:26:21Z</time>
      </trkpt>
      <trkpt lat="44.01576" lon="2.13554">
        <ele>328.9</ele>
        <time>2017-04-20T13:26:22Z</time>
      </trkpt>
      <trkpt lat="44.01586" lon="2.13546">
        <ele>329.3</ele>
        <time>2017-04-20T13:26:24Z</time>
      </trkpt>
      <trkpt lat="44.01594" lon="2.13535">
        <ele>329.9</ele>
        <time>2017-04-20T13:26:26Z</time>
      </trkpt>
      <trkpt lat="44.016" lon="2.13523">
        <ele>330.6</ele>
        <time>2017-04-20T13:26:28Z</time>
      </trkpt>
      <trkpt lat="44.01605" lon="2.13511">
        <ele>330.7</ele>
        <time>2017-04-20T13:26:30Z</time>
      </trkpt>
      <trkpt lat="44.01609" lon="2.13499">
        <ele>331.5</ele>
        <time>2017-04-20T13:26:32Z</time>
      </trkpt>
      <trkpt lat="44.01618" lon="2.13491">
        <ele>332.2</ele>
        <time>2017-04-20T13:26:34Z</time>
      </trkpt>
      <trkpt lat="44.01626" lon="2.13479">
        <ele>332.7</ele>
        <time>2017-04-20T13:26:36Z</time>
      </trkpt>
      <trkpt lat="44.01632" lon="2.13466">
        <ele>335</ele>
        <time>2017-04-20T13:26:38Z</time>
      </trkpt>
      <trkpt lat="44.01637" lon="2.13452">
        <ele>335.4</ele>
        <time>2017-04-20T13:26:40Z</time>
      </trkpt>
      <trkpt lat="44.01642" lon="2.13438">
        <ele>335.8</ele>
        <time>2017-04-20T13:26:42Z</time>
      </trkpt>
      <trkpt lat="44.01647" lon="2.13424">
        <ele>336</ele>
        <time>2017-04-20T13:26:44Z</time>
      </trkpt>
      <trkpt lat="44.01651" lon="2.13411">
        <ele>336.4</ele>
        <time>2017-04-20T13:26:46Z</time>
      </trkpt>
      <trkpt lat="44.01656" lon="2.134">
        <ele>337</ele>
        <time>2017-04-20T13:26:49Z</time>
      </trkpt>
      <trkpt lat="44.01659" lon="2.13387">
        <ele>337.2</ele>
        <time>2017-04-20T13:26:51Z</time>
      </trkpt>
      <trkpt lat="44.01657" lon="2.13375">
        <ele>336.7</ele>
        <time>2017-04-20T13:26:55Z</time>
      </trkpt>
      <trkpt lat="44.0165" lon="2.13367">
        <ele>336.9</ele>
        <time>2017-04-20T13:26:58Z</time>
      </trkpt>
      <trkpt lat="44.01641" lon="2.13361">
        <ele>336.7</ele>
        <time>2017-04-20T13:27:01Z</time>
      </trkpt>
      <trkpt lat="44.01634" lon="2.13356">
        <ele>336.5</ele>
        <time>2017-04-20T13:27:03Z</time>
      </trkpt>
      <trkpt lat="44.01626" lon="2.13347">
        <ele>336.3</ele>
        <time>2017-04-20T13:27:06Z</time>
      </trkpt>
      <trkpt lat="44.0162" lon="2.1334">
        <ele>336.2</ele>
        <time>2017-04-20T13:27:08Z</time>
      </trkpt>
      <trkpt lat="44.01614" lon="2.13332">
        <ele>336</ele>
        <time>2017-04-20T13:27:10Z</time>
      </trkpt>
      <trkpt lat="44.01609" lon="2.13326">
        <ele>335.9</ele>
        <time>2017-04-20T13:27:13Z</time>
      </trkpt>
      <trkpt lat="44.01602" lon="2.13315">
        <ele>335.4</ele>
        <time>2017-04-20T13:27:15Z</time>
      </trkpt>
      <trkpt lat="44.01595" lon="2.13307">
        <ele>335.6</ele>
        <time>2017-04-20T13:27:19Z</time>
      </trkpt>
      <trkpt lat="44.01588" lon="2.13299">
        <ele>335.4</ele>
        <time>2017-04-20T13:27:22Z</time>
      </trkpt>
      <trkpt lat="44.01582" lon="2.13294">
        <ele>334.9</ele>
        <time>2017-04-20T13:27:26Z</time>
      </trkpt>
      <trkpt lat="44.01584" lon="2.13298">
        <ele>334.2</ele>
        <time>2017-04-20T13:27:32Z</time>
      </trkpt>
      <trkpt lat="44.01589" lon="2.13288">
        <ele>333.5</ele>
        <time>2017-04-20T13:27:35Z</time>
      </trkpt>
      <trkpt lat="44.01597" lon="2.13278">
        <ele>333</ele>
        <time>2017-04-20T13:27:38Z</time>
      </trkpt>
      <trkpt lat="44.01603" lon="2.13269">
        <ele>332.9</ele>
        <time>2017-04-20T13:27:41Z</time>
      </trkpt>
      <trkpt lat="44.01611" lon="2.13262">
        <ele>332.8</ele>
        <time>2017-04-20T13:27:42Z</time>
      </trkpt>
      <trkpt lat="44.01619" lon="2.13254">
        <ele>333</ele>
        <time>2017-04-20T13:27:44Z</time>
      </trkpt>
      <trkpt lat="44.01627" lon="2.13245">
        <ele>333.3</ele>
        <time>2017-04-20T13:27:46Z</time>
      </trkpt>
      <trkpt lat="44.01636" lon="2.13236">
        <ele>333.4</ele>
        <time>2017-04-20T13:27:48Z</time>
      </trkpt>
      <trkpt lat="44.01645" lon="2.13225">
        <ele>333.5</ele>
        <time>2017-04-20T13:27:50Z</time>
      </trkpt>
      <trkpt lat="44.01654" lon="2.13215">
        <ele>333.2</ele>
        <time>2017-04-20T13:27:52Z</time>
      </trkpt>
      <trkpt lat="44.01664" lon="2.13205">
        <ele>333.5</ele>
        <time>2017-04-20T13:27:54Z</time>
      </trkpt>
      <trkpt lat="44.01673" lon="2.13194">
        <ele>333.7</ele>
        <time>2017-04-20T13:27:56Z</time>
      </trkpt>
      <trkpt lat="44.01681" lon="2.13182">
        <ele>334</ele>
        <time>2017-04-20T13:27:58Z</time>
      </trkpt>
      <trkpt lat="44.01691" lon="2.13171">
        <ele>334.2</ele>
        <time>2017-04-20T13:28:00Z</time>
      </trkpt>
      <trkpt lat="44.01701" lon="2.13161">
        <ele>334.5</ele>
        <time>2017-04-20T13:28:02Z</time>
      </trkpt>
      <trkpt lat="44.01709" lon="2.13152">
        <ele>334.8</ele>
        <time>2017-04-20T13:28:04Z</time>
      </trkpt>
      <trkpt lat="44.01717" lon="2.13145">
        <ele>335.4</ele>
        <time>2017-04-20T13:28:06Z</time>
      </trkpt>
      <trkpt lat="44.01725" lon="2.1314">
        <ele>335.7</ele>
        <time>2017-04-20T13:28:08Z</time>
      </trkpt>
      <trkpt lat="44.01731" lon="2.13132">
        <ele>335.9</ele>
        <time>2017-04-20T13:28:10Z</time>
      </trkpt>
      <trkpt lat="44.01734" lon="2.13122">
        <ele>335.9</ele>
        <time>2017-04-20T13:28:12Z</time>
      </trkpt>
      <trkpt lat="44.01736" lon="2.1311">
        <ele>335.1</ele>
        <time>2017-04-20T13:28:14Z</time>
      </trkpt>
      <trkpt lat="44.01742" lon="2.131">
        <ele>335.2</ele>
        <time>2017-04-20T13:28:16Z</time>
      </trkpt>
      <trkpt lat="44.01746" lon="2.13091">
        <ele>335.1</ele>
        <time>2017-04-20T13:28:18Z</time>
      </trkpt>
      <trkpt lat="44.01751" lon="2.13081">
        <ele>335</ele>
        <time>2017-04-20T13:28:20Z</time>
      </trkpt>
      <trkpt lat="44.01756" lon="2.13071">
        <ele>335.2</ele>
        <time>2017-04-20T13:28:22Z</time>
      </trkpt>
      <trkpt lat="44.01762" lon="2.13063">
        <ele>335.2</ele>
        <time>2017-04-20T13:28:24Z</time>
      </trkpt>
      <trkpt lat="44.01769" lon="2.13056">
        <ele>334.9</ele>
        <time>2017-04-20T13:28:26Z</time>
      </trkpt>
      <trkpt lat="44.01775" lon="2.13048">
        <ele>335.1</ele>
        <time>2017-04-20T13:28:28Z</time>
      </trkpt>
      <trkpt lat="44.01781" lon="2.13039">
        <ele>335</ele>
        <time>2017-04-20T13:28:30Z</time>
      </trkpt>
      <trkpt lat="44.01789" lon="2.13031">
        <ele>334.4</ele>
        <time>2017-04-20T13:28:32Z</time>
      </trkpt>
      <trkpt lat="44.018" lon="2.13032">
        <ele>333.1</ele>
        <time>2017-04-20T13:28:34Z</time>
      </trkpt>
      <trkpt lat="44.01812" lon="2.13031">
        <ele>332.1</ele>
        <time>2017-04-20T13:28:36Z</time>
      </trkpt>
      <trkpt lat="44.01821" lon="2.13026">
        <ele>331.5</ele>
        <time>2017-04-20T13:28:38Z</time>
      </trkpt>
      <trkpt lat="44.01833" lon="2.13022">
        <ele>330.6</ele>
        <time>2017-04-20T13:28:40Z</time>
      </trkpt>
      <trkpt lat="44.01844" lon="2.13016">
        <ele>329.7</ele>
        <time>2017-04-20T13:28:42Z</time>
      </trkpt>
      <trkpt lat="44.01853" lon="2.13008">
        <ele>329</ele>
        <time>2017-04-20T13:28:44Z</time>
      </trkpt>
      <trkpt lat="44.01861" lon="2.12999">
        <ele>328.2</ele>
        <time>2017-04-20T13:28:46Z</time>
      </trkpt>
      <trkpt lat="44.01868" lon="2.12992">
        <ele>328</ele>
        <time>2017-04-20T13:28:48Z</time>
      </trkpt>
      <trkpt lat="44.01875" lon="2.12988">
        <ele>328.1</ele>
        <time>2017-04-20T13:28:50Z</time>
      </trkpt>
      <trkpt lat="44.01884" lon="2.12985">
        <ele>327.9</ele>
        <time>2017-04-20T13:28:53Z</time>
      </trkpt>
      <trkpt lat="44.01892" lon="2.12983">
        <ele>327.4</ele>
        <time>2017-04-20T13:28:56Z</time>
      </trkpt>
      <trkpt lat="44.01901" lon="2.12981">
        <ele>327.3</ele>
        <time>2017-04-20T13:28:59Z</time>
      </trkpt>
      <trkpt lat="44.0191" lon="2.12979">
        <ele>326.2</ele>
        <time>2017-04-20T13:29:03Z</time>
      </trkpt>
      <trkpt lat="44.01916" lon="2.12973">
        <ele>325.6</ele>
        <time>2017-04-20T13:29:06Z</time>
      </trkpt>
      <trkpt lat="44.01926" lon="2.12968">
        <ele>325.6</ele>
        <time>2017-04-20T13:29:09Z</time>
      </trkpt>
      <trkpt lat="44.01936" lon="2.12963">
        <ele>326</ele>
        <time>2017-04-20T13:29:12Z</time>
      </trkpt>
      <trkpt lat="44.01944" lon="2.12959">
        <ele>326.1</ele>
        <time>2017-04-20T13:29:15Z</time>
      </trkpt>
      <trkpt lat="44.01954" lon="2.12954">
        <ele>326.4</ele>
        <time>2017-04-20T13:29:18Z</time>
      </trkpt>
      <trkpt lat="44.01963" lon="2.12951">
        <ele>326.9</ele>
        <time>2017-04-20T13:29:20Z</time>
      </trkpt>
      <trkpt lat="44.01972" lon="2.12946">
        <ele>326.6</ele>
        <time>2017-04-20T13:29:22Z</time>
      </trkpt>
      <trkpt lat="44.01979" lon="2.12944">
        <ele>327.4</ele>
        <time>2017-04-20T13:29:24Z</time>
      </trkpt>
      <trkpt lat="44.01986" lon="2.12941">
        <ele>328.6</ele>
        <time>2017-04-20T13:29:26Z</time>
      </trkpt>
      <trkpt lat="44.01995" lon="2.12937">
        <ele>328.4</ele>
        <time>2017-04-20T13:29:28Z</time>
      </trkpt>
      <trkpt lat="44.02006" lon="2.12934">
        <ele>328.6</ele>
        <time>2017-04-20T13:29:30Z</time>
      </trkpt>
      <trkpt lat="44.02015" lon="2.1293">
        <ele>328.7</ele>
        <time>2017-04-20T13:29:32Z</time>
      </trkpt>
      <trkpt lat="44.02022" lon="2.12932">
        <ele>329.4</ele>
        <time>2017-04-20T13:29:34Z</time>
      </trkpt>
      <trkpt lat="44.02023" lon="2.12945">
        <ele>330</ele>
        <time>2017-04-20T13:29:38Z</time>
      </trkpt>
      <trkpt lat="44.02023" lon="2.12955">
        <ele>331</ele>
        <time>2017-04-20T13:29:41Z</time>
      </trkpt>
      <trkpt lat="44.02031" lon="2.12958">
        <ele>331.8</ele>
        <time>2017-04-20T13:29:44Z</time>
      </trkpt>
      <trkpt lat="44.0204" lon="2.12956">
        <ele>331.9</ele>
        <time>2017-04-20T13:29:46Z</time>
      </trkpt>
      <trkpt lat="44.02049" lon="2.12954">
        <ele>332</ele>
        <time>2017-04-20T13:29:48Z</time>
      </trkpt>
      <trkpt lat="44.02058" lon="2.12948">
        <ele>331.7</ele>
        <time>2017-04-20T13:29:50Z</time>
      </trkpt>
      <trkpt lat="44.02067" lon="2.12942">
        <ele>331.4</ele>
        <time>2017-04-20T13:29:52Z</time>
      </trkpt>
      <trkpt lat="44.02073" lon="2.12935">
        <ele>331.4</ele>
        <time>2017-04-20T13:29:54Z</time>
      </trkpt>
      <trkpt lat="44.02079" lon="2.12926">
        <ele>331.3</ele>
        <time>2017-04-20T13:29:57Z</time>
      </trkpt>
      <trkpt lat="44.02086" lon="2.12915">
        <ele>330.8</ele>
        <time>2017-04-20T13:30:00Z</time>
      </trkpt>
      <trkpt lat="44.02092" lon="2.12908">
        <ele>329.7</ele>
        <time>2017-04-20T13:30:02Z</time>
      </trkpt>
      <trkpt lat="44.021" lon="2.12897">
        <ele>329.3</ele>
        <time>2017-04-20T13:30:04Z</time>
      </trkpt>
      <trkpt lat="44.02109" lon="2.12889">
        <ele>328.4</ele>
        <time>2017-04-20T13:30:06Z</time>
      </trkpt>
      <trkpt lat="44.02118" lon="2.12886">
        <ele>328.6</ele>
        <time>2017-04-20T13:30:08Z</time>
      </trkpt>
      <trkpt lat="44.02128" lon="2.1289">
        <ele>329.4</ele>
        <time>2017-04-20T13:30:10Z</time>
      </trkpt>
      <trkpt lat="44.02136" lon="2.12898">
        <ele>329.1</ele>
        <time>2017-04-20T13:30:12Z</time>
      </trkpt>
      <trkpt lat="44.02143" lon="2.12905">
        <ele>329.5</ele>
        <time>2017-04-20T13:30:14Z</time>
      </trkpt>
      <trkpt lat="44.02151" lon="2.12906">
        <ele>329.9</ele>
        <time>2017-04-20T13:30:16Z</time>
      </trkpt>
      <trkpt lat="44.0216" lon="2.12902">
        <ele>329.4</ele>
        <time>2017-04-20T13:30:18Z</time>
      </trkpt>
      <trkpt lat="44.02171" lon="2.12895">
        <ele>329.1</ele>
        <time>2017-04-20T13:30:20Z</time>
      </trkpt>
      <trkpt lat="44.0218" lon="2.12885">
        <ele>329.1</ele>
        <time>2017-04-20T13:30:22Z</time>
      </trkpt>
      <trkpt lat="44.02186" lon="2.12874">
        <ele>328.2</ele>
        <time>2017-04-20T13:30:24Z</time>
      </trkpt>
      <trkpt lat="44.0219" lon="2.12864">
        <ele>327.8</ele>
        <time>2017-04-20T13:30:26Z</time>
      </trkpt>
      <trkpt lat="44.02198" lon="2.12856">
        <ele>328.6</ele>
        <time>2017-04-20T13:30:29Z</time>
      </trkpt>
      <trkpt lat="44.02205" lon="2.12859">
        <ele>330.1</ele>
        <time>2017-04-20T13:30:32Z</time>
      </trkpt>
      <trkpt lat="44.02207" lon="2.12869">
        <ele>331.1</ele>
        <time>2017-04-20T13:30:35Z</time>
      </trkpt>
      <trkpt lat="44.02207" lon="2.1288">
        <ele>330.9</ele>
        <time>2017-04-20T13:30:37Z</time>
      </trkpt>
      <trkpt lat="44.02206" lon="2.12891">
        <ele>331.3</ele>
        <time>2017-04-20T13:30:39Z</time>
      </trkpt>
      <trkpt lat="44.02205" lon="2.12901">
        <ele>331.5</ele>
        <time>2017-04-20T13:30:41Z</time>
      </trkpt>
      <trkpt lat="44.02209" lon="2.12916">
        <ele>331.6</ele>
        <time>2017-04-20T13:30:44Z</time>
      </trkpt>
      <trkpt lat="44.0221" lon="2.12928">
        <ele>332.6</ele>
        <time>2017-04-20T13:30:46Z</time>
      </trkpt>
      <trkpt lat="44.02217" lon="2.12937">
        <ele>333.7</ele>
        <time>2017-04-20T13:30:49Z</time>
      </trkpt>
      <trkpt lat="44.02228" lon="2.12937">
        <ele>334.1</ele>
        <time>2017-04-20T13:30:52Z</time>
      </trkpt>
      <trkpt lat="44.02239" lon="2.12937">
        <ele>334.8</ele>
        <time>2017-04-20T13:30:55Z</time>
      </trkpt>
      <trkpt lat="44.02248" lon="2.12938">
        <ele>335</ele>
        <time>2017-04-20T13:30:57Z</time>
      </trkpt>
      <trkpt lat="44.02255" lon="2.12937">
        <ele>335.4</ele>
        <time>2017-04-20T13:30:59Z</time>
      </trkpt>
      <trkpt lat="44.02264" lon="2.12933">
        <ele>335.2</ele>
        <time>2017-04-20T13:31:01Z</time>
      </trkpt>
      <trkpt lat="44.02274" lon="2.12928">
        <ele>335.2</ele>
        <time>2017-04-20T13:31:03Z</time>
      </trkpt>
      <trkpt lat="44.02286" lon="2.12921">
        <ele>335.5</ele>
        <time>2017-04-20T13:31:05Z</time>
      </trkpt>
      <trkpt lat="44.02297" lon="2.12916">
        <ele>335.8</ele>
        <time>2017-04-20T13:31:07Z</time>
      </trkpt>
      <trkpt lat="44.02309" lon="2.1291">
        <ele>335.8</ele>
        <time>2017-04-20T13:31:09Z</time>
      </trkpt>
      <trkpt lat="44.02321" lon="2.12904">
        <ele>336.1</ele>
        <time>2017-04-20T13:31:11Z</time>
      </trkpt>
      <trkpt lat="44.02333" lon="2.12898">
        <ele>336.4</ele>
        <time>2017-04-20T13:31:13Z</time>
      </trkpt>
      <trkpt lat="44.02345" lon="2.12892">
        <ele>336.2</ele>
        <time>2017-04-20T13:31:15Z</time>
      </trkpt>
      <trkpt lat="44.02356" lon="2.12888">
        <ele>336</ele>
        <time>2017-04-20T13:31:17Z</time>
      </trkpt>
      <trkpt lat="44.02368" lon="2.12885">
        <ele>335.2</ele>
        <time>2017-04-20T13:31:19Z</time>
      </trkpt>
      <trkpt lat="44.0238" lon="2.12883">
        <ele>334.9</ele>
        <time>2017-04-20T13:31:21Z</time>
      </trkpt>
      <trkpt lat="44.02391" lon="2.12881">
        <ele>334.4</ele>
        <time>2017-04-20T13:31:23Z</time>
      </trkpt>
      <trkpt lat="44.02403" lon="2.12879">
        <ele>334.2</ele>
        <time>2017-04-20T13:31:25Z</time>
      </trkpt>
      <trkpt lat="44.02414" lon="2.12878">
        <ele>333.9</ele>
        <time>2017-04-20T13:31:27Z</time>
      </trkpt>
      <trkpt lat="44.02426" lon="2.12877">
        <ele>333.7</ele>
        <time>2017-04-20T13:31:29Z</time>
      </trkpt>
      <trkpt lat="44.02437" lon="2.12875">
        <ele>333.3</ele>
        <time>2017-04-20T13:31:31Z</time>
      </trkpt>
      <trkpt lat="44.02448" lon="2.12874">
        <ele>333.5</ele>
        <time>2017-04-20T13:31:33Z</time>
      </trkpt>
      <trkpt lat="44.02459" lon="2.12874">
        <ele>333.5</ele>
        <time>2017-04-20T13:31:35Z</time>
      </trkpt>
      <trkpt lat="44.02471" lon="2.12877">
        <ele>333.4</ele>
        <time>2017-04-20T13:31:37Z</time>
      </trkpt>
      <trkpt lat="44.02482" lon="2.12882">
        <ele>333.2</ele>
        <time>2017-04-20T13:31:39Z</time>
      </trkpt>
      <trkpt lat="44.02492" lon="2.12889">
        <ele>333.1</ele>
        <time>2017-04-20T13:31:41Z</time>
      </trkpt>
      <trkpt lat="44.02502" lon="2.12898">
        <ele>332.6</ele>
        <time>2017-04-20T13:31:43Z</time>
      </trkpt>
      <trkpt lat="44.02511" lon="2.12909">
        <ele>332.4</ele>
        <time>2017-04-20T13:31:45Z</time>
      </trkpt>
      <trkpt lat="44.02516" lon="2.12922">
        <ele>332</ele>
        <time>2017-04-20T13:31:47Z</time>
      </trkpt>
      <trkpt lat="44.02513" lon="2.12936">
        <ele>331.8</ele>
        <time>2017-04-20T13:31:49Z</time>
      </trkpt>
      <trkpt lat="44.02512" lon="2.12952">
        <ele>331.6</ele>
        <time>2017-04-20T13:31:51Z</time>
      </trkpt>
      <trkpt lat="44.02514" lon="2.12967">
        <ele>331.2</ele>
        <time>2017-04-20T13:31:53Z</time>
      </trkpt>
      <trkpt lat="44.02516" lon="2.12984">
        <ele>331</ele>
        <time>2017-04-20T13:31:55Z</time>
      </trkpt>
      <trkpt lat="44.02519" lon="2.13">
        <ele>331.5</ele>
        <time>2017-04-20T13:31:57Z</time>
      </trkpt>
      <trkpt lat="44.02521" lon="2.13016">
        <ele>331.7</ele>
        <time>2017-04-20T13:32:00Z</time>
      </trkpt>
      <trkpt lat="44.02523" lon="2.13031">
        <ele>331.9</ele>
        <time>2017-04-20T13:32:01Z</time>
      </trkpt>
      <trkpt lat="44.02525" lon="2.13046">
        <ele>331.8</ele>
        <time>2017-04-20T13:32:03Z</time>
      </trkpt>
      <trkpt lat="44.02526" lon="2.13062">
        <ele>332</ele>
        <time>2017-04-20T13:32:05Z</time>
      </trkpt>
      <trkpt lat="44.02528" lon="2.13077">
        <ele>332</ele>
        <time>2017-04-20T13:32:07Z</time>
      </trkpt>
      <trkpt lat="44.02531" lon="2.13092">
        <ele>331.7</ele>
        <time>2017-04-20T13:32:09Z</time>
      </trkpt>
      <trkpt lat="44.02533" lon="2.13106">
        <ele>331.2</ele>
        <time>2017-04-20T13:32:11Z</time>
      </trkpt>
      <trkpt lat="44.02534" lon="2.1312">
        <ele>330.4</ele>
        <time>2017-04-20T13:32:13Z</time>
      </trkpt>
      <trkpt lat="44.02536" lon="2.13133">
        <ele>330.3</ele>
        <time>2017-04-20T13:32:15Z</time>
      </trkpt>
      <trkpt lat="44.02538" lon="2.13144">
        <ele>330</ele>
        <time>2017-04-20T13:32:17Z</time>
      </trkpt>
      <trkpt lat="44.0254" lon="2.13156">
        <ele>330</ele>
        <time>2017-04-20T13:32:19Z</time>
      </trkpt>
      <trkpt lat="44.02541" lon="2.13167">
        <ele>331.1</ele>
        <time>2017-04-20T13:32:21Z</time>
      </trkpt>
      <trkpt lat="44.02542" lon="2.13179">
        <ele>331.5</ele>
        <time>2017-04-20T13:32:23Z</time>
      </trkpt>
      <trkpt lat="44.0254" lon="2.1319">
        <ele>331.5</ele>
        <time>2017-04-20T13:32:25Z</time>
      </trkpt>
      <trkpt lat="44.02535" lon="2.132">
        <ele>331.4</ele>
        <time>2017-04-20T13:32:27Z</time>
      </trkpt>
      <trkpt lat="44.02528" lon="2.13207">
        <ele>331.5</ele>
        <time>2017-04-20T13:32:29Z</time>
      </trkpt>
      <trkpt lat="44.02522" lon="2.13213">
        <ele>331.6</ele>
        <time>2017-04-20T13:32:31Z</time>
      </trkpt>
      <trkpt lat="44.02514" lon="2.13215">
        <ele>331.3</ele>
        <time>2017-04-20T13:32:33Z</time>
      </trkpt>
      <trkpt lat="44.02505" lon="2.13218">
        <ele>331.4</ele>
        <time>2017-04-20T13:32:35Z</time>
      </trkpt>
      <trkpt lat="44.02497" lon="2.13221">
        <ele>331.2</ele>
        <time>2017-04-20T13:32:37Z</time>
      </trkpt>
      <trkpt lat="44.02488" lon="2.13224">
        <ele>331</ele>
        <time>2017-04-20T13:32:39Z</time>
      </trkpt>
      <trkpt lat="44.02479" lon="2.13226">
        <ele>330.7</ele>
        <time>2017-04-20T13:32:41Z</time>
      </trkpt>
      <trkpt lat="44.02469" lon="2.13228">
        <ele>330.8</ele>
        <time>2017-04-20T13:32:43Z</time>
      </trkpt>
      <trkpt lat="44.02458" lon="2.13231">
        <ele>331.2</ele>
        <time>2017-04-20T13:32:45Z</time>
      </trkpt>
      <trkpt lat="44.02447" lon="2.13232">
        <ele>330.8</ele>
        <time>2017-04-20T13:32:47Z</time>
      </trkpt>
      <trkpt lat="44.02436" lon="2.13234">
        <ele>330.9</ele>
        <time>2017-04-20T13:32:49Z</time>
      </trkpt>
      <trkpt lat="44.02424" lon="2.13237">
        <ele>330.6</ele>
        <time>2017-04-20T13:32:51Z</time>
      </trkpt>
      <trkpt lat="44.02413" lon="2.1324">
        <ele>330.5</ele>
        <time>2017-04-20T13:32:53Z</time>
      </trkpt>
      <trkpt lat="44.02401" lon="2.13244">
        <ele>331</ele>
        <time>2017-04-20T13:32:55Z</time>
      </trkpt>
      <trkpt lat="44.02391" lon="2.13251">
        <ele>331.5</ele>
        <time>2017-04-20T13:32:57Z</time>
      </trkpt>
      <trkpt lat="44.0238" lon="2.13259">
        <ele>331.8</ele>
        <time>2017-04-20T13:32:59Z</time>
      </trkpt>
      <trkpt lat="44.02371" lon="2.13268">
        <ele>331.7</ele>
        <time>2017-04-20T13:33:01Z</time>
      </trkpt>
      <trkpt lat="44.02363" lon="2.13279">
        <ele>331.2</ele>
        <time>2017-04-20T13:33:03Z</time>
      </trkpt>
      <trkpt lat="44.02355" lon="2.1329">
        <ele>330.7</ele>
        <time>2017-04-20T13:33:05Z</time>
      </trkpt>
      <trkpt lat="44.02347" lon="2.133">
        <ele>330.2</ele>
        <time>2017-04-20T13:33:07Z</time>
      </trkpt>
      <trkpt lat="44.0234" lon="2.13311">
        <ele>330</ele>
        <time>2017-04-20T13:33:09Z</time>
      </trkpt>
      <trkpt lat="44.02331" lon="2.13321">
        <ele>329.4</ele>
        <time>2017-04-20T13:33:11Z</time>
      </trkpt>
      <trkpt lat="44.02324" lon="2.13332">
        <ele>329.6</ele>
        <time>2017-04-20T13:33:13Z</time>
      </trkpt>
      <trkpt lat="44.02317" lon="2.13345">
        <ele>329.8</ele>
        <time>2017-04-20T13:33:15Z</time>
      </trkpt>
      <trkpt lat="44.02312" lon="2.13359">
        <ele>330</ele>
        <time>2017-04-20T13:33:17Z</time>
      </trkpt>
      <trkpt lat="44.02306" lon="2.13374">
        <ele>330.7</ele>
        <time>2017-04-20T13:33:19Z</time>
      </trkpt>
      <trkpt lat="44.02301" lon="2.13388">
        <ele>331.3</ele>
        <time>2017-04-20T13:33:21Z</time>
      </trkpt>
      <trkpt lat="44.02296" lon="2.13403">
        <ele>331.8</ele>
        <time>2017-04-20T13:33:23Z</time>
      </trkpt>
      <trkpt lat="44.0229" lon="2.13418">
        <ele>332.2</ele>
        <time>2017-04-20T13:33:25Z</time>
      </trkpt>
      <trkpt lat="44.02283" lon="2.1343">
        <ele>332.1</ele>
        <time>2017-04-20T13:33:27Z</time>
      </trkpt>
      <trkpt lat="44.02271" lon="2.13434">
        <ele>331.9</ele>
        <time>2017-04-20T13:33:29Z</time>
      </trkpt>
      <trkpt lat="44.02259" lon="2.13431">
        <ele>332</ele>
        <time>2017-04-20T13:33:31Z</time>
      </trkpt>
      <trkpt lat="44.02248" lon="2.13427">
        <ele>332.1</ele>
        <time>2017-04-20T13:33:33Z</time>
      </trkpt>
      <trkpt lat="44.02236" lon="2.13423">
        <ele>332.4</ele>
        <time>2017-04-20T13:33:35Z</time>
      </trkpt>
      <trkpt lat="44.02225" lon="2.1342">
        <ele>332.3</ele>
        <time>2017-04-20T13:33:37Z</time>
      </trkpt>
      <trkpt lat="44.02214" lon="2.13417">
        <ele>332.6</ele>
        <time>2017-04-20T13:33:39Z</time>
      </trkpt>
      <trkpt lat="44.02202" lon="2.13415">
        <ele>332.9</ele>
        <time>2017-04-20T13:33:41Z</time>
      </trkpt>
      <trkpt lat="44.02192" lon="2.13412">
        <ele>333.2</ele>
        <time>2017-04-20T13:33:43Z</time>
      </trkpt>
      <trkpt lat="44.02181" lon="2.13409">
        <ele>333.6</ele>
        <time>2017-04-20T13:33:45Z</time>
      </trkpt>
      <trkpt lat="44.02171" lon="2.13405">
        <ele>333.9</ele>
        <time>2017-04-20T13:33:47Z</time>
      </trkpt>
      <trkpt lat="44.02162" lon="2.134">
        <ele>333.4</ele>
        <time>2017-04-20T13:33:49Z</time>
      </trkpt>
      <trkpt lat="44.02152" lon="2.13394">
        <ele>333.4</ele>
        <time>2017-04-20T13:33:51Z</time>
      </trkpt>
      <trkpt lat="44.02143" lon="2.13389">
        <ele>333.3</ele>
        <time>2017-04-20T13:33:53Z</time>
      </trkpt>
      <trkpt lat="44.02133" lon="2.13386">
        <ele>333.2</ele>
        <time>2017-04-20T13:33:55Z</time>
      </trkpt>
      <trkpt lat="44.02124" lon="2.13383">
        <ele>333.1</ele>
        <time>2017-04-20T13:33:57Z</time>
      </trkpt>
      <trkpt lat="44.02114" lon="2.13381">
        <ele>332.8</ele>
        <time>2017-04-20T13:33:59Z</time>
      </trkpt>
      <trkpt lat="44.02104" lon="2.13379">
        <ele>332.7</ele>
        <time>2017-04-20T13:34:01Z</time>
      </trkpt>
      <trkpt lat="44.02094" lon="2.13377">
        <ele>332.6</ele>
        <time>2017-04-20T13:34:03Z</time>
      </trkpt>
      <trkpt lat="44.02083" lon="2.13375">
        <ele>331.9</ele>
        <time>2017-04-20T13:34:05Z</time>
      </trkpt>
      <trkpt lat="44.02073" lon="2.13371">
        <ele>331.7</ele>
        <time>2017-04-20T13:34:07Z</time>
      </trkpt>
      <trkpt lat="44.02063" lon="2.13368">
        <ele>331.6</ele>
        <time>2017-04-20T13:34:09Z</time>
      </trkpt>
      <trkpt lat="44.02053" lon="2.13365">
        <ele>332.1</ele>
        <time>2017-04-20T13:34:11Z</time>
      </trkpt>
      <trkpt lat="44.02043" lon="2.13363">
        <ele>332.2</ele>
        <time>2017-04-20T13:34:13Z</time>
      </trkpt>
      <trkpt lat="44.02033" lon="2.1336">
        <ele>332.2</ele>
        <time>2017-04-20T13:34:15Z</time>
      </trkpt>
      <trkpt lat="44.02023" lon="2.13359">
        <ele>332.1</ele>
        <time>2017-04-20T13:34:17Z</time>
      </trkpt>
      <trkpt lat="44.02013" lon="2.13359">
        <ele>332.2</ele>
        <time>2017-04-20T13:34:19Z</time>
      </trkpt>
      <trkpt lat="44.02001" lon="2.1336">
        <ele>332.3</ele>
        <time>2017-04-20T13:34:21Z</time>
      </trkpt>
      <trkpt lat="44.0199" lon="2.13364">
        <ele>332.3</ele>
        <time>2017-04-20T13:34:23Z</time>
      </trkpt>
      <trkpt lat="44.01979" lon="2.13367">
        <ele>332.3</ele>
        <time>2017-04-20T13:34:25Z</time>
      </trkpt>
      <trkpt lat="44.01967" lon="2.1337">
        <ele>332.3</ele>
        <time>2017-04-20T13:34:27Z</time>
      </trkpt>
      <trkpt lat="44.01956" lon="2.13374">
        <ele>332.2</ele>
        <time>2017-04-20T13:34:29Z</time>
      </trkpt>
      <trkpt lat="44.01945" lon="2.13379">
        <ele>332.2</ele>
        <time>2017-04-20T13:34:31Z</time>
      </trkpt>
      <trkpt lat="44.01934" lon="2.13383">
        <ele>332.2</ele>
        <time>2017-04-20T13:34:33Z</time>
      </trkpt>
      <trkpt lat="44.01923" lon="2.13387">
        <ele>332.4</ele>
        <time>2017-04-20T13:34:35Z</time>
      </trkpt>
      <trkpt lat="44.01913" lon="2.13392">
        <ele>332.6</ele>
        <time>2017-04-20T13:34:37Z</time>
      </trkpt>
      <trkpt lat="44.01903" lon="2.13395">
        <ele>332.8</ele>
        <time>2017-04-20T13:34:39Z</time>
      </trkpt>
      <trkpt lat="44.01892" lon="2.134">
        <ele>332.8</ele>
        <time>2017-04-20T13:34:41Z</time>
      </trkpt>
      <trkpt lat="44.01882" lon="2.13403">
        <ele>332.9</ele>
        <time>2017-04-20T13:34:43Z</time>
      </trkpt>
      <trkpt lat="44.01872" lon="2.13407">
        <ele>333</ele>
        <time>2017-04-20T13:34:45Z</time>
      </trkpt>
      <trkpt lat="44.01862" lon="2.13411">
        <ele>333</ele>
        <time>2017-04-20T13:34:47Z</time>
      </trkpt>
      <trkpt lat="44.01853" lon="2.13414">
        <ele>333.1</ele>
        <time>2017-04-20T13:34:49Z</time>
      </trkpt>
      <trkpt lat="44.01843" lon="2.13418">
        <ele>333.3</ele>
        <time>2017-04-20T13:34:51Z</time>
      </trkpt>
      <trkpt lat="44.01833" lon="2.13422">
        <ele>333.4</ele>
        <time>2017-04-20T13:34:53Z</time>
      </trkpt>
      <trkpt lat="44.01822" lon="2.13425">
        <ele>333.5</ele>
        <time>2017-04-20T13:34:55Z</time>
      </trkpt>
      <trkpt lat="44.01812" lon="2.13428">
        <ele>333.6</ele>
        <time>2017-04-20T13:34:57Z</time>
      </trkpt>
      <trkpt lat="44.01802" lon="2.13427">
        <ele>333.9</ele>
        <time>2017-04-20T13:34:59Z</time>
      </trkpt>
      <trkpt lat="44.01792" lon="2.13421">
        <ele>334.4</ele>
        <time>2017-04-20T13:35:01Z</time>
      </trkpt>
      <trkpt lat="44.01785" lon="2.13412">
        <ele>334.6</ele>
        <time>2017-04-20T13:35:03Z</time>
      </trkpt>
      <trkpt lat="44.01778" lon="2.13402">
        <ele>334.4</ele>
        <time>2017-04-20T13:35:05Z</time>
      </trkpt>
      <trkpt lat="44.01775" lon="2.13389">
        <ele>334.6</ele>
        <time>2017-04-20T13:35:07Z</time>
      </trkpt>
      <trkpt lat="44.01768" lon="2.13379">
        <ele>334.7</ele>
        <time>2017-04-20T13:35:09Z</time>
      </trkpt>
      <trkpt lat="44.01758" lon="2.1338">
        <ele>335</ele>
        <time>2017-04-20T13:35:11Z</time>
      </trkpt>
      <trkpt lat="44.01746" lon="2.13384">
        <ele>335.3</ele>
        <time>2017-04-20T13:35:13Z</time>
      </trkpt>
      <trkpt lat="44.01735" lon="2.13387">
        <ele>335.2</ele>
        <time>2017-04-20T13:35:15Z</time>
      </trkpt>
      <trkpt lat="44.01724" lon="2.13388">
        <ele>335</ele>
        <time>2017-04-20T13:35:17Z</time>
      </trkpt>
      <trkpt lat="44.01713" lon="2.13388">
        <ele>334.8</ele>
        <time>2017-04-20T13:35:19Z</time>
      </trkpt>
      <trkpt lat="44.01702" lon="2.13387">
        <ele>334.7</ele>
        <time>2017-04-20T13:35:21Z</time>
      </trkpt>
      <trkpt lat="44.0169" lon="2.13384">
        <ele>334.6</ele>
        <time>2017-04-20T13:35:23Z</time>
      </trkpt>
      <trkpt lat="44.01678" lon="2.1338">
        <ele>334.5</ele>
        <time>2017-04-20T13:35:25Z</time>
      </trkpt>
      <trkpt lat="44.01667" lon="2.13376">
        <ele>334.3</ele>
        <time>2017-04-20T13:35:27Z</time>
      </trkpt>
      <trkpt lat="44.01656" lon="2.1337">
        <ele>334.1</ele>
        <time>2017-04-20T13:35:29Z</time>
      </trkpt>
      <trkpt lat="44.01644" lon="2.13363">
        <ele>333.9</ele>
        <time>2017-04-20T13:35:31Z</time>
      </trkpt>
      <trkpt lat="44.01633" lon="2.13355">
        <ele>333.7</ele>
        <time>2017-04-20T13:35:33Z</time>
      </trkpt>
      <trkpt lat="44.01626" lon="2.13345">
        <ele>333.3</ele>
        <time>2017-04-20T13:35:35Z</time>
      </trkpt>
      <trkpt lat="44.01618" lon="2.13336">
        <ele>332.6</ele>
        <time>2017-04-20T13:35:37Z</time>
      </trkpt>
      <trkpt lat="44.01612" lon="2.13328">
        <ele>332.3</ele>
        <time>2017-04-20T13:35:39Z</time>
      </trkpt>
      <trkpt lat="44.01606" lon="2.13321">
        <ele>332.3</ele>
        <time>2017-04-20T13:35:41Z</time>
      </trkpt>
      <trkpt lat="44.016" lon="2.13311">
        <ele>332.4</ele>
        <time>2017-04-20T13:35:44Z</time>
      </trkpt>
      <trkpt lat="44.01593" lon="2.13304">
        <ele>332.3</ele>
        <time>2017-04-20T13:35:49Z</time>
      </trkpt>
      <trkpt lat="44.01592" lon="2.13296">
        <ele>332</ele>
        <time>2017-04-20T13:35:56Z</time>
      </trkpt>
      <trkpt lat="44.01592" lon="2.13291">
        <ele>323.8</ele>
        <time>2017-04-20T13:37:25Z</time>
      </trkpt>
      <trkpt lat="44.01597" lon="2.13283">
        <ele>323.7</ele>
        <time>2017-04-20T13:37:28Z</time>
      </trkpt>
      <trkpt lat="44.01603" lon="2.13271">
        <ele>323.8</ele>
        <time>2017-04-20T13:37:31Z</time>
      </trkpt>
      <trkpt lat="44.01609" lon="2.13262">
        <ele>323.8</ele>
        <time>2017-04-20T13:37:33Z</time>
      </trkpt>
      <trkpt lat="44.01616" lon="2.13253">
        <ele>324.1</ele>
        <time>2017-04-20T13:37:35Z</time>
      </trkpt>
      <trkpt lat="44.01623" lon="2.13244">
        <ele>324.1</ele>
        <time>2017-04-20T13:37:37Z</time>
      </trkpt>
      <trkpt lat="44.01631" lon="2.13237">
        <ele>324.2</ele>
        <time>2017-04-20T13:37:39Z</time>
      </trkpt>
      <trkpt lat="44.01639" lon="2.13229">
        <ele>324.3</ele>
        <time>2017-04-20T13:37:41Z</time>
      </trkpt>
      <trkpt lat="44.01648" lon="2.13219">
        <ele>324.4</ele>
        <time>2017-04-20T13:37:43Z</time>
      </trkpt>
      <trkpt lat="44.01657" lon="2.13207">
        <ele>324.9</ele>
        <time>2017-04-20T13:37:45Z</time>
      </trkpt>
      <trkpt lat="44.01667" lon="2.13201">
        <ele>325.3</ele>
        <time>2017-04-20T13:37:47Z</time>
      </trkpt>
      <trkpt lat="44.01677" lon="2.13193">
        <ele>325.5</ele>
        <time>2017-04-20T13:37:49Z</time>
      </trkpt>
      <trkpt lat="44.01686" lon="2.13183">
        <ele>325.5</ele>
        <time>2017-04-20T13:37:51Z</time>
      </trkpt>
      <trkpt lat="44.01695" lon="2.13173">
        <ele>326</ele>
        <time>2017-04-20T13:37:53Z</time>
      </trkpt>
      <trkpt lat="44.01705" lon="2.13163">
        <ele>326.4</ele>
        <time>2017-04-20T13:37:55Z</time>
      </trkpt>
      <trkpt lat="44.01714" lon="2.13155">
        <ele>326.9</ele>
        <time>2017-04-20T13:37:57Z</time>
      </trkpt>
      <trkpt lat="44.01724" lon="2.13148">
        <ele>327.5</ele>
        <time>2017-04-20T13:37:59Z</time>
      </trkpt>
      <trkpt lat="44.01734" lon="2.13141">
        <ele>328.1</ele>
        <time>2017-04-20T13:38:01Z</time>
      </trkpt>
      <trkpt lat="44.01744" lon="2.13133">
        <ele>328.2</ele>
        <time>2017-04-20T13:38:03Z</time>
      </trkpt>
      <trkpt lat="44.01755" lon="2.13125">
        <ele>328.2</ele>
        <time>2017-04-20T13:38:05Z</time>
      </trkpt>
      <trkpt lat="44.01766" lon="2.13116">
        <ele>328.3</ele>
        <time>2017-04-20T13:38:07Z</time>
      </trkpt>
      <trkpt lat="44.01776" lon="2.13107">
        <ele>328.8</ele>
        <time>2017-04-20T13:38:09Z</time>
      </trkpt>
      <trkpt lat="44.01787" lon="2.13099">
        <ele>328.6</ele>
        <time>2017-04-20T13:38:11Z</time>
      </trkpt>
      <trkpt lat="44.01798" lon="2.13091">
        <ele>329</ele>
        <time>2017-04-20T13:38:13Z</time>
      </trkpt>
      <trkpt lat="44.01809" lon="2.13083">
        <ele>329</ele>
        <time>2017-04-20T13:38:15Z</time>
      </trkpt>
      <trkpt lat="44.0182" lon="2.13075">
        <ele>329.1</ele>
        <time>2017-04-20T13:38:17Z</time>
      </trkpt>
      <trkpt lat="44.0183" lon="2.13067">
        <ele>328.9</ele>
        <time>2017-04-20T13:38:19Z</time>
      </trkpt>
      <trkpt lat="44.01842" lon="2.13059">
        <ele>328.8</ele>
        <time>2017-04-20T13:38:21Z</time>
      </trkpt>
      <trkpt lat="44.01853" lon="2.13051">
        <ele>328.7</ele>
        <time>2017-04-20T13:38:23Z</time>
      </trkpt>
      <trkpt lat="44.01864" lon="2.13044">
        <ele>328.5</ele>
        <time>2017-04-20T13:38:25Z</time>
      </trkpt>
      <trkpt lat="44.01876" lon="2.13038">
        <ele>328.7</ele>
        <time>2017-04-20T13:38:27Z</time>
      </trkpt>
      <trkpt lat="44.01889" lon="2.13035">
        <ele>328.8</ele>
        <time>2017-04-20T13:38:29Z</time>
      </trkpt>
      <trkpt lat="44.01902" lon="2.13033">
        <ele>328.5</ele>
        <time>2017-04-20T13:38:31Z</time>
      </trkpt>
      <trkpt lat="44.01914" lon="2.13032">
        <ele>328.3</ele>
        <time>2017-04-20T13:38:33Z</time>
      </trkpt>
      <trkpt lat="44.01928" lon="2.1303">
        <ele>328.2</ele>
        <time>2017-04-20T13:38:35Z</time>
      </trkpt>
      <trkpt lat="44.0194" lon="2.13029">
        <ele>328</ele>
        <time>2017-04-20T13:38:37Z</time>
      </trkpt>
      <trkpt lat="44.01952" lon="2.13029">
        <ele>328.8</ele>
        <time>2017-04-20T13:38:39Z</time>
      </trkpt>
      <trkpt lat="44.01965" lon="2.13028">
        <ele>328.9</ele>
        <time>2017-04-20T13:38:41Z</time>
      </trkpt>
      <trkpt lat="44.01977" lon="2.13026">
        <ele>328.9</ele>
        <time>2017-04-20T13:38:43Z</time>
      </trkpt>
      <trkpt lat="44.01989" lon="2.13025">
        <ele>329</ele>
        <time>2017-04-20T13:38:45Z</time>
      </trkpt>
      <trkpt lat="44.02" lon="2.13022">
        <ele>328.6</ele>
        <time>2017-04-20T13:38:47Z</time>
      </trkpt>
      <trkpt lat="44.02012" lon="2.13019">
        <ele>328.1</ele>
        <time>2017-04-20T13:38:49Z</time>
      </trkpt>
      <trkpt lat="44.02024" lon="2.13017">
        <ele>328.1</ele>
        <time>2017-04-20T13:38:51Z</time>
      </trkpt>
      <trkpt lat="44.02036" lon="2.13014">
        <ele>327.9</ele>
        <time>2017-04-20T13:38:53Z</time>
      </trkpt>
      <trkpt lat="44.02048" lon="2.13014">
        <ele>328.3</ele>
        <time>2017-04-20T13:38:55Z</time>
      </trkpt>
      <trkpt lat="44.02059" lon="2.13017">
        <ele>327.3</ele>
        <time>2017-04-20T13:38:57Z</time>
      </trkpt>
      <trkpt lat="44.0207" lon="2.13023">
        <ele>327.7</ele>
        <time>2017-04-20T13:38:59Z</time>
      </trkpt>
      <trkpt lat="44.0208" lon="2.13028">
        <ele>328.3</ele>
        <time>2017-04-20T13:39:01Z</time>
      </trkpt>
      <trkpt lat="44.02091" lon="2.13034">
        <ele>328.7</ele>
        <time>2017-04-20T13:39:03Z</time>
      </trkpt>
      <trkpt lat="44.02102" lon="2.1304">
        <ele>329.1</ele>
        <time>2017-04-20T13:39:05Z</time>
      </trkpt>
      <trkpt lat="44.02113" lon="2.13046">
        <ele>329.4</ele>
        <time>2017-04-20T13:39:07Z</time>
      </trkpt>
      <trkpt lat="44.02123" lon="2.13051">
        <ele>329.7</ele>
        <time>2017-04-20T13:39:09Z</time>
      </trkpt>
      <trkpt lat="44.02134" lon="2.13056">
        <ele>330.2</ele>
        <time>2017-04-20T13:39:11Z</time>
      </trkpt>
      <trkpt lat="44.02144" lon="2.13061">
        <ele>330.6</ele>
        <time>2017-04-20T13:39:13Z</time>
      </trkpt>
      <trkpt lat="44.02154" lon="2.13064">
        <ele>330.8</ele>
        <time>2017-04-20T13:39:15Z</time>
      </trkpt>
      <trkpt lat="44.02164" lon="2.1306">
        <ele>330.5</ele>
        <time>2017-04-20T13:39:17Z</time>
      </trkpt>
      <trkpt lat="44.02172" lon="2.13051">
        <ele>330.6</ele>
        <time>2017-04-20T13:39:19Z</time>
      </trkpt>
      <trkpt lat="44.02179" lon="2.13039">
        <ele>330.6</ele>
        <time>2017-04-20T13:39:21Z</time>
      </trkpt>
      <trkpt lat="44.02184" lon="2.13024">
        <ele>330.5</ele>
        <time>2017-04-20T13:39:23Z</time>
      </trkpt>
      <trkpt lat="44.02189" lon="2.13009">
        <ele>330.2</ele>
        <time>2017-04-20T13:39:25Z</time>
      </trkpt>
      <trkpt lat="44.02194" lon="2.12993">
        <ele>330.2</ele>
        <time>2017-04-20T13:39:27Z</time>
      </trkpt>
      <trkpt lat="44.022" lon="2.12979">
        <ele>329.9</ele>
        <time>2017-04-20T13:39:30Z</time>
      </trkpt>
      <trkpt lat="44.02205" lon="2.12964">
        <ele>329.7</ele>
        <time>2017-04-20T13:39:31Z</time>
      </trkpt>
      <trkpt lat="44.02213" lon="2.12953">
        <ele>329.9</ele>
        <time>2017-04-20T13:39:33Z</time>
      </trkpt>
      <trkpt lat="44.02222" lon="2.12947">
        <ele>329.7</ele>
        <time>2017-04-20T13:39:35Z</time>
      </trkpt>
      <trkpt lat="44.02231" lon="2.12942">
        <ele>329.6</ele>
        <time>2017-04-20T13:39:37Z</time>
      </trkpt>
      <trkpt lat="44.0224" lon="2.12939">
        <ele>329.2</ele>
        <time>2017-04-20T13:39:39Z</time>
      </trkpt>
      <trkpt lat="44.0225" lon="2.12937">
        <ele>329</ele>
        <time>2017-04-20T13:39:41Z</time>
      </trkpt>
      <trkpt lat="44.02259" lon="2.12933">
        <ele>328.9</ele>
        <time>2017-04-20T13:39:43Z</time>
      </trkpt>
      <trkpt lat="44.02269" lon="2.12928">
        <ele>329.1</ele>
        <time>2017-04-20T13:39:45Z</time>
      </trkpt>
      <trkpt lat="44.02278" lon="2.12925">
        <ele>329.1</ele>
        <time>2017-04-20T13:39:47Z</time>
      </trkpt>
      <trkpt lat="44.02287" lon="2.1292">
        <ele>329.3</ele>
        <time>2017-04-20T13:39:49Z</time>
      </trkpt>
      <trkpt lat="44.02297" lon="2.12916">
        <ele>329.3</ele>
        <time>2017-04-20T13:39:51Z</time>
      </trkpt>
      <trkpt lat="44.02306" lon="2.12911">
        <ele>329.4</ele>
        <time>2017-04-20T13:39:53Z</time>
      </trkpt>
      <trkpt lat="44.02315" lon="2.12906">
        <ele>329.7</ele>
        <time>2017-04-20T13:39:55Z</time>
      </trkpt>
      <trkpt lat="44.02326" lon="2.12902">
        <ele>329.9</ele>
        <time>2017-04-20T13:39:57Z</time>
      </trkpt>
      <trkpt lat="44.02335" lon="2.12898">
        <ele>329.9</ele>
        <time>2017-04-20T13:39:59Z</time>
      </trkpt>
      <trkpt lat="44.02345" lon="2.12893">
        <ele>329.8</ele>
        <time>2017-04-20T13:40:01Z</time>
      </trkpt>
      <trkpt lat="44.02355" lon="2.12889">
        <ele>329.6</ele>
        <time>2017-04-20T13:40:03Z</time>
      </trkpt>
      <trkpt lat="44.02366" lon="2.12885">
        <ele>329.4</ele>
        <time>2017-04-20T13:40:05Z</time>
      </trkpt>
      <trkpt lat="44.02376" lon="2.12882">
        <ele>329.4</ele>
        <time>2017-04-20T13:40:07Z</time>
      </trkpt>
      <trkpt lat="44.02388" lon="2.1288">
        <ele>329.3</ele>
        <time>2017-04-20T13:40:09Z</time>
      </trkpt>
      <trkpt lat="44.02398" lon="2.12878">
        <ele>329.2</ele>
        <time>2017-04-20T13:40:11Z</time>
      </trkpt>
      <trkpt lat="44.02409" lon="2.12877">
        <ele>329.2</ele>
        <time>2017-04-20T13:40:13Z</time>
      </trkpt>
      <trkpt lat="44.0242" lon="2.12877">
        <ele>329.2</ele>
        <time>2017-04-20T13:40:15Z</time>
      </trkpt>
      <trkpt lat="44.02431" lon="2.12875">
        <ele>329.1</ele>
        <time>2017-04-20T13:40:17Z</time>
      </trkpt>
      <trkpt lat="44.02442" lon="2.12874">
        <ele>329.1</ele>
        <time>2017-04-20T13:40:19Z</time>
      </trkpt>
      <trkpt lat="44.02453" lon="2.12874">
        <ele>329.4</ele>
        <time>2017-04-20T13:40:21Z</time>
      </trkpt>
      <trkpt lat="44.02464" lon="2.12874">
        <ele>329.8</ele>
        <time>2017-04-20T13:40:23Z</time>
      </trkpt>
      <trkpt lat="44.02475" lon="2.12878">
        <ele>329.9</ele>
        <time>2017-04-20T13:40:25Z</time>
      </trkpt>
      <trkpt lat="44.02485" lon="2.12884">
        <ele>330</ele>
        <time>2017-04-20T13:40:27Z</time>
      </trkpt>
      <trkpt lat="44.02496" lon="2.12893">
        <ele>329.9</ele>
        <time>2017-04-20T13:40:29Z</time>
      </trkpt>
      <trkpt lat="44.02505" lon="2.12902">
        <ele>329.9</ele>
        <time>2017-04-20T13:40:31Z</time>
      </trkpt>
      <trkpt lat="44.02512" lon="2.12912">
        <ele>329.5</ele>
        <time>2017-04-20T13:40:33Z</time>
      </trkpt>
      <trkpt lat="44.02513" lon="2.12926">
        <ele>329.2</ele>
        <time>2017-04-20T13:40:35Z</time>
      </trkpt>
      <trkpt lat="44.02511" lon="2.12939">
        <ele>329.3</ele>
        <time>2017-04-20T13:40:37Z</time>
      </trkpt>
      <trkpt lat="44.02511" lon="2.12954">
        <ele>329.5</ele>
        <time>2017-04-20T13:40:39Z</time>
      </trkpt>
      <trkpt lat="44.02512" lon="2.1297">
        <ele>329</ele>
        <time>2017-04-20T13:40:41Z</time>
      </trkpt>
      <trkpt lat="44.02513" lon="2.12986">
        <ele>328.9</ele>
        <time>2017-04-20T13:40:43Z</time>
      </trkpt>
      <trkpt lat="44.02516" lon="2.13009">
        <ele>329</ele>
        <time>2017-04-20T13:40:46Z</time>
      </trkpt>
      <trkpt lat="44.02518" lon="2.13024">
        <ele>329</ele>
        <time>2017-04-20T13:40:48Z</time>
      </trkpt>
      <trkpt lat="44.02521" lon="2.13039">
        <ele>328.9</ele>
        <time>2017-04-20T13:40:50Z</time>
      </trkpt>
      <trkpt lat="44.02522" lon="2.13054">
        <ele>328.9</ele>
        <time>2017-04-20T13:40:52Z</time>
      </trkpt>
      <trkpt lat="44.02524" lon="2.13069">
        <ele>328.9</ele>
        <time>2017-04-20T13:40:54Z</time>
      </trkpt>
      <trkpt lat="44.02526" lon="2.13083">
        <ele>328.9</ele>
        <time>2017-04-20T13:40:56Z</time>
      </trkpt>
      <trkpt lat="44.02528" lon="2.13098">
        <ele>328.9</ele>
        <time>2017-04-20T13:40:58Z</time>
      </trkpt>
      <trkpt lat="44.02531" lon="2.13112">
        <ele>328.4</ele>
        <time>2017-04-20T13:41:00Z</time>
      </trkpt>
      <trkpt lat="44.02533" lon="2.13127">
        <ele>328.4</ele>
        <time>2017-04-20T13:41:02Z</time>
      </trkpt>
      <trkpt lat="44.02535" lon="2.13142">
        <ele>328.4</ele>
        <time>2017-04-20T13:41:04Z</time>
      </trkpt>
      <trkpt lat="44.02537" lon="2.13157">
        <ele>328.6</ele>
        <time>2017-04-20T13:41:06Z</time>
      </trkpt>
      <trkpt lat="44.02538" lon="2.13172">
        <ele>328.8</ele>
        <time>2017-04-20T13:41:08Z</time>
      </trkpt>
      <trkpt lat="44.02537" lon="2.13187">
        <ele>329</ele>
        <time>2017-04-20T13:41:10Z</time>
      </trkpt>
      <trkpt lat="44.02532" lon="2.13199">
        <ele>329.1</ele>
        <time>2017-04-20T13:41:12Z</time>
      </trkpt>
      <trkpt lat="44.02524" lon="2.13207">
        <ele>329</ele>
        <time>2017-04-20T13:41:14Z</time>
      </trkpt>
      <trkpt lat="44.02514" lon="2.13211">
        <ele>328.6</ele>
        <time>2017-04-20T13:41:16Z</time>
      </trkpt>
      <trkpt lat="44.02502" lon="2.13213">
        <ele>328.5</ele>
        <time>2017-04-20T13:41:18Z</time>
      </trkpt>
      <trkpt lat="44.02492" lon="2.13216">
        <ele>329</ele>
        <time>2017-04-20T13:41:20Z</time>
      </trkpt>
      <trkpt lat="44.02481" lon="2.13222">
        <ele>329.1</ele>
        <time>2017-04-20T13:41:22Z</time>
      </trkpt>
      <trkpt lat="44.0247" lon="2.13226">
        <ele>328.9</ele>
        <time>2017-04-20T13:41:24Z</time>
      </trkpt>
      <trkpt lat="44.02458" lon="2.1323">
        <ele>328.8</ele>
        <time>2017-04-20T13:41:27Z</time>
      </trkpt>
      <trkpt lat="44.02447" lon="2.13232">
        <ele>329</ele>
        <time>2017-04-20T13:41:28Z</time>
      </trkpt>
      <trkpt lat="44.02434" lon="2.13233">
        <ele>328.8</ele>
        <time>2017-04-20T13:41:30Z</time>
      </trkpt>
      <trkpt lat="44.02421" lon="2.13237">
        <ele>328.5</ele>
        <time>2017-04-20T13:41:32Z</time>
      </trkpt>
      <trkpt lat="44.02409" lon="2.1324">
        <ele>328.1</ele>
        <time>2017-04-20T13:41:34Z</time>
      </trkpt>
      <trkpt lat="44.02397" lon="2.13245">
        <ele>328.3</ele>
        <time>2017-04-20T13:41:36Z</time>
      </trkpt>
      <trkpt lat="44.02386" lon="2.13254">
        <ele>328.2</ele>
        <time>2017-04-20T13:41:38Z</time>
      </trkpt>
      <trkpt lat="44.02376" lon="2.13264">
        <ele>328.2</ele>
        <time>2017-04-20T13:41:40Z</time>
      </trkpt>
      <trkpt lat="44.02366" lon="2.13275">
        <ele>328.1</ele>
        <time>2017-04-20T13:41:42Z</time>
      </trkpt>
      <trkpt lat="44.02356" lon="2.13288">
        <ele>327.6</ele>
        <time>2017-04-20T13:41:44Z</time>
      </trkpt>
      <trkpt lat="44.02347" lon="2.13301">
        <ele>327.4</ele>
        <time>2017-04-20T13:41:46Z</time>
      </trkpt>
      <trkpt lat="44.02338" lon="2.13313">
        <ele>327.5</ele>
        <time>2017-04-20T13:41:48Z</time>
      </trkpt>
      <trkpt lat="44.02328" lon="2.13325">
        <ele>327.3</ele>
        <time>2017-04-20T13:41:50Z</time>
      </trkpt>
      <trkpt lat="44.02319" lon="2.13339">
        <ele>327.2</ele>
        <time>2017-04-20T13:41:52Z</time>
      </trkpt>
      <trkpt lat="44.02311" lon="2.13354">
        <ele>327.2</ele>
        <time>2017-04-20T13:41:54Z</time>
      </trkpt>
      <trkpt lat="44.02304" lon="2.13371">
        <ele>327.8</ele>
        <time>2017-04-20T13:41:56Z</time>
      </trkpt>
      <trkpt lat="44.02298" lon="2.13388">
        <ele>327.5</ele>
        <time>2017-04-20T13:41:58Z</time>
      </trkpt>
      <trkpt lat="44.02292" lon="2.13405">
        <ele>327.8</ele>
        <time>2017-04-20T13:42:00Z</time>
      </trkpt>
      <trkpt lat="44.02286" lon="2.13421">
        <ele>327.7</ele>
        <time>2017-04-20T13:42:02Z</time>
      </trkpt>
      <trkpt lat="44.02275" lon="2.13433">
        <ele>326.7</ele>
        <time>2017-04-20T13:42:04Z</time>
      </trkpt>
      <trkpt lat="44.02262" lon="2.13434">
        <ele>326.7</ele>
        <time>2017-04-20T13:42:06Z</time>
      </trkpt>
      <trkpt lat="44.02248" lon="2.1343">
        <ele>327.1</ele>
        <time>2017-04-20T13:42:08Z</time>
      </trkpt>
      <trkpt lat="44.02236" lon="2.13425">
        <ele>327.3</ele>
        <time>2017-04-20T13:42:10Z</time>
      </trkpt>
      <trkpt lat="44.02223" lon="2.13421">
        <ele>327.7</ele>
        <time>2017-04-20T13:42:12Z</time>
      </trkpt>
      <trkpt lat="44.0221" lon="2.13418">
        <ele>328</ele>
        <time>2017-04-20T13:42:14Z</time>
      </trkpt>
      <trkpt lat="44.02198" lon="2.13415">
        <ele>328.4</ele>
        <time>2017-04-20T13:42:16Z</time>
      </trkpt>
      <trkpt lat="44.02186" lon="2.13412">
        <ele>328.8</ele>
        <time>2017-04-20T13:42:18Z</time>
      </trkpt>
      <trkpt lat="44.02174" lon="2.13407">
        <ele>328.7</ele>
        <time>2017-04-20T13:42:20Z</time>
      </trkpt>
      <trkpt lat="44.02163" lon="2.134">
        <ele>328.6</ele>
        <time>2017-04-20T13:42:22Z</time>
      </trkpt>
      <trkpt lat="44.02152" lon="2.13392">
        <ele>328.3</ele>
        <time>2017-04-20T13:42:24Z</time>
      </trkpt>
      <trkpt lat="44.02141" lon="2.13385">
        <ele>328.3</ele>
        <time>2017-04-20T13:42:26Z</time>
      </trkpt>
      <trkpt lat="44.02129" lon="2.13382">
        <ele>328.4</ele>
        <time>2017-04-20T13:42:28Z</time>
      </trkpt>
      <trkpt lat="44.02117" lon="2.13378">
        <ele>328.5</ele>
        <time>2017-04-20T13:42:30Z</time>
      </trkpt>
      <trkpt lat="44.02103" lon="2.13375">
        <ele>328.7</ele>
        <time>2017-04-20T13:42:32Z</time>
      </trkpt>
      <trkpt lat="44.02091" lon="2.13372">
        <ele>328.9</ele>
        <time>2017-04-20T13:42:34Z</time>
      </trkpt>
      <trkpt lat="44.02079" lon="2.13368">
        <ele>329</ele>
        <time>2017-04-20T13:42:36Z</time>
      </trkpt>
      <trkpt lat="44.02066" lon="2.13365">
        <ele>329</ele>
        <time>2017-04-20T13:42:38Z</time>
      </trkpt>
      <trkpt lat="44.02054" lon="2.13361">
        <ele>329.3</ele>
        <time>2017-04-20T13:42:40Z</time>
      </trkpt>
      <trkpt lat="44.02042" lon="2.13357">
        <ele>329.6</ele>
        <time>2017-04-20T13:42:42Z</time>
      </trkpt>
      <trkpt lat="44.02029" lon="2.13356">
        <ele>329.8</ele>
        <time>2017-04-20T13:42:44Z</time>
      </trkpt>
      <trkpt lat="44.02016" lon="2.13357">
        <ele>329.7</ele>
        <time>2017-04-20T13:42:46Z</time>
      </trkpt>
      <trkpt lat="44.02003" lon="2.13358">
        <ele>329.8</ele>
        <time>2017-04-20T13:42:48Z</time>
      </trkpt>
      <trkpt lat="44.0199" lon="2.13361">
        <ele>329.8</ele>
        <time>2017-04-20T13:42:50Z</time>
      </trkpt>
      <trkpt lat="44.01976" lon="2.13365">
        <ele>329.7</ele>
        <time>2017-04-20T13:42:52Z</time>
      </trkpt>
      <trkpt lat="44.01963" lon="2.13369">
        <ele>329.6</ele>
        <time>2017-04-20T13:42:54Z</time>
      </trkpt>
      <trkpt lat="44.01949" lon="2.13374">
        <ele>329.7</ele>
        <time>2017-04-20T13:42:56Z</time>
      </trkpt>
      <trkpt lat="44.01941" lon="2.13377">
        <ele>329.7</ele>
        <time>2017-04-20T13:42:57Z</time>
      </trkpt>
      <trkpt lat="44.01934" lon="2.1338">
        <ele>329.7</ele>
        <time>2017-04-20T13:42:58Z</time>
      </trkpt>
      <trkpt lat="44.01927" lon="2.13383">
        <ele>329.8</ele>
        <time>2017-04-20T13:42:59Z</time>
      </trkpt>
      <trkpt lat="44.0192" lon="2.13385">
        <ele>329.9</ele>
        <time>2017-04-20T13:43:00Z</time>
      </trkpt>
      <trkpt lat="44.01913" lon="2.13389">
        <ele>330</ele>
        <time>2017-04-20T13:43:01Z</time>
      </trkpt>
      <trkpt lat="44.01906" lon="2.13392">
        <ele>330.2</ele>
        <time>2017-04-20T13:43:02Z</time>
      </trkpt>
      <trkpt lat="44.01899" lon="2.13394">
        <ele>330.3</ele>
        <time>2017-04-20T13:43:03Z</time>
      </trkpt>
      <trkpt lat="44.01885" lon="2.134">
        <ele>330.6</ele>
        <time>2017-04-20T13:43:05Z</time>
      </trkpt>
      <trkpt lat="44.01872" lon="2.13406">
        <ele>331</ele>
        <time>2017-04-20T13:43:07Z</time>
      </trkpt>
      <trkpt lat="44.01859" lon="2.13411">
        <ele>331.4</ele>
        <time>2017-04-20T13:43:09Z</time>
      </trkpt>
      <trkpt lat="44.01846" lon="2.13416">
        <ele>331.2</ele>
        <time>2017-04-20T13:43:11Z</time>
      </trkpt>
      <trkpt lat="44.01833" lon="2.13421">
        <ele>331.5</ele>
        <time>2017-04-20T13:43:13Z</time>
      </trkpt>
      <trkpt lat="44.01821" lon="2.13425">
        <ele>331.9</ele>
        <time>2017-04-20T13:43:15Z</time>
      </trkpt>
      <trkpt lat="44.01808" lon="2.13428">
        <ele>332.2</ele>
        <time>2017-04-20T13:43:17Z</time>
      </trkpt>
      <trkpt lat="44.01796" lon="2.13426">
        <ele>332.2</ele>
        <time>2017-04-20T13:43:19Z</time>
      </trkpt>
      <trkpt lat="44.01785" lon="2.13419">
        <ele>332.5</ele>
        <time>2017-04-20T13:43:21Z</time>
      </trkpt>
      <trkpt lat="44.01778" lon="2.13407">
        <ele>332.6</ele>
        <time>2017-04-20T13:43:23Z</time>
      </trkpt>
      <trkpt lat="44.01772" lon="2.13392">
        <ele>332.9</ele>
        <time>2017-04-20T13:43:25Z</time>
      </trkpt>
      <trkpt lat="44.01764" lon="2.13381">
        <ele>333.2</ele>
        <time>2017-04-20T13:43:27Z</time>
      </trkpt>
      <trkpt lat="44.01751" lon="2.13383">
        <ele>333.6</ele>
        <time>2017-04-20T13:43:29Z</time>
      </trkpt>
      <trkpt lat="44.01738" lon="2.13387">
        <ele>333.6</ele>
        <time>2017-04-20T13:43:31Z</time>
      </trkpt>
      <trkpt lat="44.01724" lon="2.13389">
        <ele>333.4</ele>
        <time>2017-04-20T13:43:33Z</time>
      </trkpt>
      <trkpt lat="44.01709" lon="2.13389">
        <ele>333.7</ele>
        <time>2017-04-20T13:43:35Z</time>
      </trkpt>
      <trkpt lat="44.01702" lon="2.13388">
        <ele>333.6</ele>
        <time>2017-04-20T13:43:36Z</time>
      </trkpt>
      <trkpt lat="44.01695" lon="2.13387">
        <ele>333.2</ele>
        <time>2017-04-20T13:43:37Z</time>
      </trkpt>
      <trkpt lat="44.01687" lon="2.13385">
        <ele>333</ele>
        <time>2017-04-20T13:43:38Z</time>
      </trkpt>
      <trkpt lat="44.01679" lon="2.13383">
        <ele>332.8</ele>
        <time>2017-04-20T13:43:39Z</time>
      </trkpt>
      <trkpt lat="44.01672" lon="2.1338">
        <ele>332.7</ele>
        <time>2017-04-20T13:43:40Z</time>
      </trkpt>
      <trkpt lat="44.01666" lon="2.13377">
        <ele>332.7</ele>
        <time>2017-04-20T13:43:41Z</time>
      </trkpt>
      <trkpt lat="44.01652" lon="2.13371">
        <ele>332.3</ele>
        <time>2017-04-20T13:43:43Z</time>
      </trkpt>
      <trkpt lat="44.0164" lon="2.13363">
        <ele>331.2</ele>
        <time>2017-04-20T13:43:45Z</time>
      </trkpt>
      <trkpt lat="44.0163" lon="2.13353">
        <ele>330.5</ele>
        <time>2017-04-20T13:43:47Z</time>
      </trkpt>
      <trkpt lat="44.01621" lon="2.13341">
        <ele>330.9</ele>
        <time>2017-04-20T13:43:49Z</time>
      </trkpt>
      <trkpt lat="44.01612" lon="2.13331">
        <ele>330.8</ele>
        <time>2017-04-20T13:43:51Z</time>
      </trkpt>
      <trkpt lat="44.01605" lon="2.13322">
        <ele>330.7</ele>
        <time>2017-04-20T13:43:53Z</time>
      </trkpt>
      <trkpt lat="44.016" lon="2.13311">
        <ele>330.9</ele>
        <time>2017-04-20T13:43:56Z</time>
      </trkpt>
      <trkpt lat="44.01593" lon="2.13305">
        <ele>330.3</ele>
        <time>2017-04-20T13:43:59Z</time>
      </trkpt>
      <trkpt lat="44.0159" lon="2.13293">
        <ele>331</ele>
        <time>2017-04-20T13:44:02Z</time>
      </trkpt>
      <trkpt lat="44.01591" lon="2.13281">
        <ele>331.3</ele>
        <time>2017-04-20T13:44:05Z</time>
      </trkpt>
      <trkpt lat="44.01597" lon="2.13271">
        <ele>331.5</ele>
        <time>2017-04-20T13:44:07Z</time>
      </trkpt>
      <trkpt lat="44.01603" lon="2.1326">
        <ele>331.6</ele>
        <time>2017-04-20T13:44:09Z</time>
      </trkpt>
      <trkpt lat="44.01612" lon="2.1325">
        <ele>331.7</ele>
        <time>2017-04-20T13:44:11Z</time>
      </trkpt>
      <trkpt lat="44.01621" lon="2.13241">
        <ele>331.8</ele>
        <time>2017-04-20T13:44:13Z</time>
      </trkpt>
      <trkpt lat="44.01632" lon="2.13233">
        <ele>331.7</ele>
        <time>2017-04-20T13:44:15Z</time>
      </trkpt>
      <trkpt lat="44.01643" lon="2.13224">
        <ele>331.8</ele>
        <time>2017-04-20T13:44:17Z</time>
      </trkpt>
      <trkpt lat="44.01653" lon="2.13214">
        <ele>331.7</ele>
        <time>2017-04-20T13:44:19Z</time>
      </trkpt>
      <trkpt lat="44.01663" lon="2.13204">
        <ele>331.8</ele>
        <time>2017-04-20T13:44:21Z</time>
      </trkpt>
      <trkpt lat="44.01672" lon="2.13194">
        <ele>331.9</ele>
        <time>2017-04-20T13:44:23Z</time>
      </trkpt>
      <trkpt lat="44.01682" lon="2.13185">
        <ele>332</ele>
        <time>2017-04-20T13:44:25Z</time>
      </trkpt>
      <trkpt lat="44.01692" lon="2.13176">
        <ele>332.1</ele>
        <time>2017-04-20T13:44:27Z</time>
      </trkpt>
      <trkpt lat="44.01701" lon="2.13166">
        <ele>332.1</ele>
        <time>2017-04-20T13:44:29Z</time>
      </trkpt>
      <trkpt lat="44.0171" lon="2.13156">
        <ele>332.2</ele>
        <time>2017-04-20T13:44:31Z</time>
      </trkpt>
      <trkpt lat="44.01719" lon="2.13147">
        <ele>332.3</ele>
        <time>2017-04-20T13:44:33Z</time>
      </trkpt>
      <trkpt lat="44.01729" lon="2.13139">
        <ele>332.3</ele>
        <time>2017-04-20T13:44:35Z</time>
      </trkpt>
      <trkpt lat="44.0174" lon="2.13132">
        <ele>332.2</ele>
        <time>2017-04-20T13:44:37Z</time>
      </trkpt>
      <trkpt lat="44.0175" lon="2.13125">
        <ele>332</ele>
        <time>2017-04-20T13:44:39Z</time>
      </trkpt>
      <trkpt lat="44.01761" lon="2.13117">
        <ele>331.8</ele>
        <time>2017-04-20T13:44:41Z</time>
      </trkpt>
      <trkpt lat="44.01771" lon="2.13109">
        <ele>331.6</ele>
        <time>2017-04-20T13:44:43Z</time>
      </trkpt>
      <trkpt lat="44.01782" lon="2.13101">
        <ele>331.4</ele>
        <time>2017-04-20T13:44:45Z</time>
      </trkpt>
      <trkpt lat="44.01793" lon="2.13093">
        <ele>331.2</ele>
        <time>2017-04-20T13:44:47Z</time>
      </trkpt>
      <trkpt lat="44.01803" lon="2.13085">
        <ele>331.4</ele>
        <time>2017-04-20T13:44:49Z</time>
      </trkpt>
      <trkpt lat="44.01814" lon="2.13075">
        <ele>331.1</ele>
        <time>2017-04-20T13:44:51Z</time>
      </trkpt>
      <trkpt lat="44.01825" lon="2.13067">
        <ele>330.8</ele>
        <time>2017-04-20T13:44:53Z</time>
      </trkpt>
      <trkpt lat="44.01836" lon="2.1306">
        <ele>330.4</ele>
        <time>2017-04-20T13:44:55Z</time>
      </trkpt>
      <trkpt lat="44.01848" lon="2.13053">
        <ele>329.9</ele>
        <time>2017-04-20T13:44:57Z</time>
      </trkpt>
      <trkpt lat="44.0186" lon="2.13044">
        <ele>329.4</ele>
        <time>2017-04-20T13:44:59Z</time>
      </trkpt>
      <trkpt lat="44.01873" lon="2.13039">
        <ele>328.8</ele>
        <time>2017-04-20T13:45:01Z</time>
      </trkpt>
      <trkpt lat="44.01886" lon="2.13034">
        <ele>328.3</ele>
        <time>2017-04-20T13:45:03Z</time>
      </trkpt>
      <trkpt lat="44.01899" lon="2.13029">
        <ele>327.6</ele>
        <time>2017-04-20T13:45:05Z</time>
      </trkpt>
      <trkpt lat="44.01914" lon="2.13026">
        <ele>328</ele>
        <time>2017-04-20T13:45:07Z</time>
      </trkpt>
      <trkpt lat="44.01921" lon="2.13025">
        <ele>328</ele>
        <time>2017-04-20T13:45:08Z</time>
      </trkpt>
      <trkpt lat="44.01929" lon="2.13024">
        <ele>328.6</ele>
        <time>2017-04-20T13:45:09Z</time>
      </trkpt>
      <trkpt lat="44.01942" lon="2.13024">
        <ele>329</ele>
        <time>2017-04-20T13:45:11Z</time>
      </trkpt>
      <trkpt lat="44.01956" lon="2.13023">
        <ele>329</ele>
        <time>2017-04-20T13:45:13Z</time>
      </trkpt>
      <trkpt lat="44.01971" lon="2.13023">
        <ele>329.1</ele>
        <time>2017-04-20T13:45:15Z</time>
      </trkpt>
      <trkpt lat="44.01985" lon="2.13021">
        <ele>329.1</ele>
        <time>2017-04-20T13:45:17Z</time>
      </trkpt>
      <trkpt lat="44.01992" lon="2.1302">
        <ele>329.3</ele>
        <time>2017-04-20T13:45:18Z</time>
      </trkpt>
      <trkpt lat="44.02" lon="2.13019">
        <ele>329.5</ele>
        <time>2017-04-20T13:45:19Z</time>
      </trkpt>
      <trkpt lat="44.02006" lon="2.13017">
        <ele>329.5</ele>
        <time>2017-04-20T13:45:20Z</time>
      </trkpt>
      <trkpt lat="44.0202" lon="2.13014">
        <ele>329.2</ele>
        <time>2017-04-20T13:45:22Z</time>
      </trkpt>
      <trkpt lat="44.02034" lon="2.13012">
        <ele>329.3</ele>
        <time>2017-04-20T13:45:24Z</time>
      </trkpt>
      <trkpt lat="44.02048" lon="2.13013">
        <ele>329.6</ele>
        <time>2017-04-20T13:45:26Z</time>
      </trkpt>
      <trkpt lat="44.02061" lon="2.13016">
        <ele>330.1</ele>
        <time>2017-04-20T13:45:28Z</time>
      </trkpt>
      <trkpt lat="44.02074" lon="2.13022">
        <ele>330.5</ele>
        <time>2017-04-20T13:45:30Z</time>
      </trkpt>
      <trkpt lat="44.02086" lon="2.13028">
        <ele>330.9</ele>
        <time>2017-04-20T13:45:32Z</time>
      </trkpt>
      <trkpt lat="44.02099" lon="2.13035">
        <ele>331.3</ele>
        <time>2017-04-20T13:45:34Z</time>
      </trkpt>
      <trkpt lat="44.0211" lon="2.13043">
        <ele>331.5</ele>
        <time>2017-04-20T13:45:36Z</time>
      </trkpt>
      <trkpt lat="44.02122" lon="2.13049">
        <ele>331.8</ele>
        <time>2017-04-20T13:45:38Z</time>
      </trkpt>
      <trkpt lat="44.02134" lon="2.13055">
        <ele>332.1</ele>
        <time>2017-04-20T13:45:40Z</time>
      </trkpt>
      <trkpt lat="44.02146" lon="2.1306">
        <ele>332.1</ele>
        <time>2017-04-20T13:45:42Z</time>
      </trkpt>
      <trkpt lat="44.02157" lon="2.13061">
        <ele>332.3</ele>
        <time>2017-04-20T13:45:44Z</time>
      </trkpt>
      <trkpt lat="44.02165" lon="2.13055">
        <ele>332</ele>
        <time>2017-04-20T13:45:46Z</time>
      </trkpt>
      <trkpt lat="44.02172" lon="2.13045">
        <ele>331.6</ele>
        <time>2017-04-20T13:45:48Z</time>
      </trkpt>
      <trkpt lat="44.0218" lon="2.13032">
        <ele>330.6</ele>
        <time>2017-04-20T13:45:50Z</time>
      </trkpt>
      <trkpt lat="44.02187" lon="2.13017">
        <ele>330.4</ele>
        <time>2017-04-20T13:45:52Z</time>
      </trkpt>
      <trkpt lat="44.02194" lon="2.13">
        <ele>330.1</ele>
        <time>2017-04-20T13:45:54Z</time>
      </trkpt>
      <trkpt lat="44.02199" lon="2.12983">
        <ele>329.7</ele>
        <time>2017-04-20T13:45:56Z</time>
      </trkpt>
      <trkpt lat="44.02204" lon="2.12966">
        <ele>329.5</ele>
        <time>2017-04-20T13:45:58Z</time>
      </trkpt>
      <trkpt lat="44.02213" lon="2.12953">
        <ele>329.6</ele>
        <time>2017-04-20T13:46:00Z</time>
      </trkpt>
      <trkpt lat="44.02224" lon="2.12945">
        <ele>329.7</ele>
        <time>2017-04-20T13:46:02Z</time>
      </trkpt>
      <trkpt lat="44.02234" lon="2.1294">
        <ele>329.5</ele>
        <time>2017-04-20T13:46:04Z</time>
      </trkpt>
      <trkpt lat="44.02244" lon="2.12936">
        <ele>329.8</ele>
        <time>2017-04-20T13:46:06Z</time>
      </trkpt>
      <trkpt lat="44.02255" lon="2.12934">
        <ele>329.7</ele>
        <time>2017-04-20T13:46:08Z</time>
      </trkpt>
      <trkpt lat="44.02267" lon="2.12928">
        <ele>329.6</ele>
        <time>2017-04-20T13:46:10Z</time>
      </trkpt>
      <trkpt lat="44.02279" lon="2.12923">
        <ele>329.3</ele>
        <time>2017-04-20T13:46:12Z</time>
      </trkpt>
      <trkpt lat="44.0229" lon="2.12918">
        <ele>329.2</ele>
        <time>2017-04-20T13:46:14Z</time>
      </trkpt>
      <trkpt lat="44.02301" lon="2.12912">
        <ele>329.2</ele>
        <time>2017-04-20T13:46:16Z</time>
      </trkpt>
      <trkpt lat="44.02313" lon="2.12907">
        <ele>329.2</ele>
        <time>2017-04-20T13:46:18Z</time>
      </trkpt>
      <trkpt lat="44.02324" lon="2.12901">
        <ele>329.2</ele>
        <time>2017-04-20T13:46:20Z</time>
      </trkpt>
      <trkpt lat="44.02336" lon="2.12896">
        <ele>329.1</ele>
        <time>2017-04-20T13:46:22Z</time>
      </trkpt>
      <trkpt lat="44.02347" lon="2.12891">
        <ele>328.9</ele>
        <time>2017-04-20T13:46:24Z</time>
      </trkpt>
      <trkpt lat="44.02359" lon="2.12885">
        <ele>328.8</ele>
        <time>2017-04-20T13:46:26Z</time>
      </trkpt>
      <trkpt lat="44.02372" lon="2.12882">
        <ele>328.7</ele>
        <time>2017-04-20T13:46:28Z</time>
      </trkpt>
      <trkpt lat="44.02384" lon="2.12879">
        <ele>328.6</ele>
        <time>2017-04-20T13:46:30Z</time>
      </trkpt>
      <trkpt lat="44.02397" lon="2.12877">
        <ele>328.7</ele>
        <time>2017-04-20T13:46:32Z</time>
      </trkpt>
      <trkpt lat="44.0241" lon="2.12875">
        <ele>328.7</ele>
        <time>2017-04-20T13:46:34Z</time>
      </trkpt>
      <trkpt lat="44.02422" lon="2.12874">
        <ele>328.7</ele>
        <time>2017-04-20T13:46:36Z</time>
      </trkpt>
      <trkpt lat="44.02435" lon="2.12874">
        <ele>328.6</ele>
        <time>2017-04-20T13:46:38Z</time>
      </trkpt>
      <trkpt lat="44.02447" lon="2.12873">
        <ele>328.7</ele>
        <time>2017-04-20T13:46:40Z</time>
      </trkpt>
      <trkpt lat="44.02459" lon="2.12872">
        <ele>328.6</ele>
        <time>2017-04-20T13:46:42Z</time>
      </trkpt>
      <trkpt lat="44.02472" lon="2.12874">
        <ele>328.7</ele>
        <time>2017-04-20T13:46:44Z</time>
      </trkpt>
      <trkpt lat="44.02483" lon="2.1288">
        <ele>328.8</ele>
        <time>2017-04-20T13:46:46Z</time>
      </trkpt>
      <trkpt lat="44.02493" lon="2.12889">
        <ele>329</ele>
        <time>2017-04-20T13:46:48Z</time>
      </trkpt>
      <trkpt lat="44.02503" lon="2.12899">
        <ele>329.1</ele>
        <time>2017-04-20T13:46:50Z</time>
      </trkpt>
      <trkpt lat="44.02512" lon="2.1291">
        <ele>328.5</ele>
        <time>2017-04-20T13:46:52Z</time>
      </trkpt>
      <trkpt lat="44.02515" lon="2.12925">
        <ele>328.1</ele>
        <time>2017-04-20T13:46:54Z</time>
      </trkpt>
      <trkpt lat="44.02512" lon="2.12942">
        <ele>328.1</ele>
        <time>2017-04-20T13:46:56Z</time>
      </trkpt>
      <trkpt lat="44.02512" lon="2.1296">
        <ele>328.1</ele>
        <time>2017-04-20T13:46:58Z</time>
      </trkpt>
      <trkpt lat="44.02514" lon="2.12979">
        <ele>328.1</ele>
        <time>2017-04-20T13:47:00Z</time>
      </trkpt>
      <trkpt lat="44.02517" lon="2.12998">
        <ele>328.9</ele>
        <time>2017-04-20T13:47:02Z</time>
      </trkpt>
      <trkpt lat="44.0252" lon="2.13016">
        <ele>329</ele>
        <time>2017-04-20T13:47:04Z</time>
      </trkpt>
      <trkpt lat="44.02521" lon="2.13034">
        <ele>329.1</ele>
        <time>2017-04-20T13:47:06Z</time>
      </trkpt>
      <trkpt lat="44.02524" lon="2.13052">
        <ele>329</ele>
        <time>2017-04-20T13:47:08Z</time>
      </trkpt>
      <trkpt lat="44.02526" lon="2.13069">
        <ele>329</ele>
        <time>2017-04-20T13:47:10Z</time>
      </trkpt>
      <trkpt lat="44.02528" lon="2.13085">
        <ele>328.9</ele>
        <time>2017-04-20T13:47:12Z</time>
      </trkpt>
      <trkpt lat="44.02531" lon="2.13102">
        <ele>329.1</ele>
        <time>2017-04-20T13:47:14Z</time>
      </trkpt>
      <trkpt lat="44.02534" lon="2.13118">
        <ele>329.2</ele>
        <time>2017-04-20T13:47:16Z</time>
      </trkpt>
      <trkpt lat="44.02535" lon="2.13136">
        <ele>328.5</ele>
        <time>2017-04-20T13:47:18Z</time>
      </trkpt>
      <trkpt lat="44.02538" lon="2.13153">
        <ele>328.2</ele>
        <time>2017-04-20T13:47:20Z</time>
      </trkpt>
      <trkpt lat="44.0254" lon="2.1317">
        <ele>328.2</ele>
        <time>2017-04-20T13:47:22Z</time>
      </trkpt>
      <trkpt lat="44.02539" lon="2.13187">
        <ele>328.2</ele>
        <time>2017-04-20T13:47:24Z</time>
      </trkpt>
      <trkpt lat="44.02531" lon="2.13201">
        <ele>328.1</ele>
        <time>2017-04-20T13:47:26Z</time>
      </trkpt>
      <trkpt lat="44.0252" lon="2.1321">
        <ele>328.2</ele>
        <time>2017-04-20T13:47:28Z</time>
      </trkpt>
      <trkpt lat="44.02509" lon="2.13214">
        <ele>328.5</ele>
        <time>2017-04-20T13:47:30Z</time>
      </trkpt>
      <trkpt lat="44.02496" lon="2.13218">
        <ele>328.8</ele>
        <time>2017-04-20T13:47:32Z</time>
      </trkpt>
      <trkpt lat="44.02484" lon="2.13223">
        <ele>328.9</ele>
        <time>2017-04-20T13:47:34Z</time>
      </trkpt>
      <trkpt lat="44.02471" lon="2.13226">
        <ele>328.9</ele>
        <time>2017-04-20T13:47:36Z</time>
      </trkpt>
      <trkpt lat="44.02458" lon="2.13229">
        <ele>328.9</ele>
        <time>2017-04-20T13:47:38Z</time>
      </trkpt>
      <trkpt lat="44.02445" lon="2.13232">
        <ele>329.1</ele>
        <time>2017-04-20T13:47:40Z</time>
      </trkpt>
      <trkpt lat="44.02432" lon="2.13234">
        <ele>329.3</ele>
        <time>2017-04-20T13:47:42Z</time>
      </trkpt>
      <trkpt lat="44.02419" lon="2.13237">
        <ele>329.7</ele>
        <time>2017-04-20T13:47:44Z</time>
      </trkpt>
      <trkpt lat="44.02406" lon="2.13241">
        <ele>329.9</ele>
        <time>2017-04-20T13:47:46Z</time>
      </trkpt>
      <trkpt lat="44.02394" lon="2.13248">
        <ele>330.3</ele>
        <time>2017-04-20T13:47:48Z</time>
      </trkpt>
      <trkpt lat="44.02383" lon="2.13255">
        <ele>330.4</ele>
        <time>2017-04-20T13:47:50Z</time>
      </trkpt>
      <trkpt lat="44.02373" lon="2.13264">
        <ele>330.4</ele>
        <time>2017-04-20T13:47:52Z</time>
      </trkpt>
      <trkpt lat="44.02363" lon="2.13276">
        <ele>330.3</ele>
        <time>2017-04-20T13:47:54Z</time>
      </trkpt>
      <trkpt lat="44.02354" lon="2.13287">
        <ele>330.4</ele>
        <time>2017-04-20T13:47:56Z</time>
      </trkpt>
      <trkpt lat="44.02345" lon="2.133">
        <ele>330.4</ele>
        <time>2017-04-20T13:47:58Z</time>
      </trkpt>
      <trkpt lat="44.02337" lon="2.13313">
        <ele>330.3</ele>
        <time>2017-04-20T13:48:00Z</time>
      </trkpt>
      <trkpt lat="44.02328" lon="2.13325">
        <ele>330.3</ele>
        <time>2017-04-20T13:48:02Z</time>
      </trkpt>
      <trkpt lat="44.0232" lon="2.13339">
        <ele>330.1</ele>
        <time>2017-04-20T13:48:04Z</time>
      </trkpt>
      <trkpt lat="44.02312" lon="2.13355">
        <ele>330</ele>
        <time>2017-04-20T13:48:06Z</time>
      </trkpt>
      <trkpt lat="44.02304" lon="2.13372">
        <ele>330</ele>
        <time>2017-04-20T13:48:08Z</time>
      </trkpt>
      <trkpt lat="44.023" lon="2.13381">
        <ele>329.8</ele>
        <time>2017-04-20T13:48:09Z</time>
      </trkpt>
      <trkpt lat="44.02297" lon="2.1339">
        <ele>329.6</ele>
        <time>2017-04-20T13:48:10Z</time>
      </trkpt>
      <trkpt lat="44.02293" lon="2.13399">
        <ele>329.7</ele>
        <time>2017-04-20T13:48:11Z</time>
      </trkpt>
      <trkpt lat="44.0229" lon="2.13409">
        <ele>329.7</ele>
        <time>2017-04-20T13:48:12Z</time>
      </trkpt>
      <trkpt lat="44.02286" lon="2.13418">
        <ele>329.7</ele>
        <time>2017-04-20T13:48:13Z</time>
      </trkpt>
      <trkpt lat="44.02282" lon="2.13427">
        <ele>329.7</ele>
        <time>2017-04-20T13:48:14Z</time>
      </trkpt>
      <trkpt lat="44.02277" lon="2.13433">
        <ele>330</ele>
        <time>2017-04-20T13:48:15Z</time>
      </trkpt>
      <trkpt lat="44.02262" lon="2.13436">
        <ele>329.8</ele>
        <time>2017-04-20T13:48:17Z</time>
      </trkpt>
      <trkpt lat="44.02255" lon="2.13433">
        <ele>329.6</ele>
        <time>2017-04-20T13:48:18Z</time>
      </trkpt>
      <trkpt lat="44.02248" lon="2.1343">
        <ele>329.6</ele>
        <time>2017-04-20T13:48:19Z</time>
      </trkpt>
      <trkpt lat="44.02234" lon="2.13426">
        <ele>329.3</ele>
        <time>2017-04-20T13:48:21Z</time>
      </trkpt>
      <trkpt lat="44.02221" lon="2.13421">
        <ele>329.1</ele>
        <time>2017-04-20T13:48:23Z</time>
      </trkpt>
      <trkpt lat="44.02207" lon="2.13419">
        <ele>329</ele>
        <time>2017-04-20T13:48:25Z</time>
      </trkpt>
      <trkpt lat="44.02194" lon="2.13415">
        <ele>329</ele>
        <time>2017-04-20T13:48:27Z</time>
      </trkpt>
      <trkpt lat="44.02182" lon="2.13411">
        <ele>329.4</ele>
        <time>2017-04-20T13:48:29Z</time>
      </trkpt>
      <trkpt lat="44.02171" lon="2.13404">
        <ele>329.6</ele>
        <time>2017-04-20T13:48:31Z</time>
      </trkpt>
      <trkpt lat="44.02159" lon="2.13399">
        <ele>331.2</ele>
        <time>2017-04-20T13:48:33Z</time>
      </trkpt>
      <trkpt lat="44.02147" lon="2.134">
        <ele>331.2</ele>
        <time>2017-04-20T13:48:35Z</time>
      </trkpt>
      <trkpt lat="44.02135" lon="2.13399">
        <ele>331</ele>
        <time>2017-04-20T13:48:37Z</time>
      </trkpt>
      <trkpt lat="44.02123" lon="2.13395">
        <ele>331.2</ele>
        <time>2017-04-20T13:48:39Z</time>
      </trkpt>
      <trkpt lat="44.02111" lon="2.13393">
        <ele>331.1</ele>
        <time>2017-04-20T13:48:41Z</time>
      </trkpt>
      <trkpt lat="44.02099" lon="2.13391">
        <ele>330.9</ele>
        <time>2017-04-20T13:48:43Z</time>
      </trkpt>
      <trkpt lat="44.02087" lon="2.1339">
        <ele>330.9</ele>
        <time>2017-04-20T13:48:45Z</time>
      </trkpt>
      <trkpt lat="44.02075" lon="2.13391">
        <ele>330.6</ele>
        <time>2017-04-20T13:48:47Z</time>
      </trkpt>
      <trkpt lat="44.02064" lon="2.13393">
        <ele>329.5</ele>
        <time>2017-04-20T13:48:49Z</time>
      </trkpt>
      <trkpt lat="44.02051" lon="2.13394">
        <ele>328.2</ele>
        <time>2017-04-20T13:48:51Z</time>
      </trkpt>
      <trkpt lat="44.02039" lon="2.13395">
        <ele>325.5</ele>
        <time>2017-04-20T13:48:53Z</time>
      </trkpt>
      <trkpt lat="44.02027" lon="2.13397">
        <ele>324.2</ele>
        <time>2017-04-20T13:48:55Z</time>
      </trkpt>
      <trkpt lat="44.02015" lon="2.13399">
        <ele>322.7</ele>
        <time>2017-04-20T13:48:57Z</time>
      </trkpt>
      <trkpt lat="44.02004" lon="2.13402">
        <ele>321.4</ele>
        <time>2017-04-20T13:48:59Z</time>
      </trkpt>
      <trkpt lat="44.01991" lon="2.13404">
        <ele>320.1</ele>
        <time>2017-04-20T13:49:01Z</time>
      </trkpt>
      <trkpt lat="44.01982" lon="2.13409">
        <ele>319</ele>
        <time>2017-04-20T13:49:03Z</time>
      </trkpt>
      <trkpt lat="44.01976" lon="2.13415">
        <ele>317.8</ele>
        <time>2017-04-20T13:49:05Z</time>
      </trkpt>
      <trkpt lat="44.01974" lon="2.13426">
        <ele>316.5</ele>
        <time>2017-04-20T13:49:07Z</time>
      </trkpt>
      <trkpt lat="44.01976" lon="2.13437">
        <ele>315.7</ele>
        <time>2017-04-20T13:49:09Z</time>
      </trkpt>
      <trkpt lat="44.01983" lon="2.13441">
        <ele>314.4</ele>
        <time>2017-04-20T13:49:11Z</time>
      </trkpt>
      <trkpt lat="44.01992" lon="2.13439">
        <ele>314</ele>
        <time>2017-04-20T13:49:13Z</time>
      </trkpt>
      <trkpt lat="44.02" lon="2.13439">
        <ele>314.7</ele>
        <time>2017-04-20T13:49:15Z</time>
      </trkpt>
      <trkpt lat="44.02011" lon="2.1344">
        <ele>314.6</ele>
        <time>2017-04-20T13:49:17Z</time>
      </trkpt>
      <trkpt lat="44.02023" lon="2.13441">
        <ele>314.7</ele>
        <time>2017-04-20T13:49:19Z</time>
      </trkpt>
      <trkpt lat="44.02035" lon="2.13441">
        <ele>314.7</ele>
        <time>2017-04-20T13:49:21Z</time>
      </trkpt>
      <trkpt lat="44.02048" lon="2.13441">
        <ele>315.1</ele>
        <time>2017-04-20T13:49:23Z</time>
      </trkpt>
      <trkpt lat="44.0206" lon="2.13442">
        <ele>315.6</ele>
        <time>2017-04-20T13:49:25Z</time>
      </trkpt>
      <trkpt lat="44.02071" lon="2.13445">
        <ele>315.9</ele>
        <time>2017-04-20T13:49:27Z</time>
      </trkpt>
      <trkpt lat="44.02084" lon="2.13448">
        <ele>316.1</ele>
        <time>2017-04-20T13:49:29Z</time>
      </trkpt>
      <trkpt lat="44.02096" lon="2.13449">
        <ele>316.3</ele>
        <time>2017-04-20T13:49:31Z</time>
      </trkpt>
      <trkpt lat="44.0211" lon="2.13452">
        <ele>316.4</ele>
        <time>2017-04-20T13:49:33Z</time>
      </trkpt>
      <trkpt lat="44.02123" lon="2.13455">
        <ele>316.5</ele>
        <time>2017-04-20T13:49:35Z</time>
      </trkpt>
      <trkpt lat="44.02136" lon="2.1346">
        <ele>316.9</ele>
        <time>2017-04-20T13:49:37Z</time>
      </trkpt>
      <trkpt lat="44.02148" lon="2.13465">
        <ele>317.2</ele>
        <time>2017-04-20T13:49:39Z</time>
      </trkpt>
      <trkpt lat="44.0216" lon="2.13469">
        <ele>317.5</ele>
        <time>2017-04-20T13:49:41Z</time>
      </trkpt>
      <trkpt lat="44.02172" lon="2.13475">
        <ele>317.5</ele>
        <time>2017-04-20T13:49:43Z</time>
      </trkpt>
      <trkpt lat="44.02184" lon="2.13481">
        <ele>317.8</ele>
        <time>2017-04-20T13:49:45Z</time>
      </trkpt>
      <trkpt lat="44.02196" lon="2.13485">
        <ele>317.7</ele>
        <time>2017-04-20T13:49:47Z</time>
      </trkpt>
      <trkpt lat="44.02208" lon="2.1349">
        <ele>317.5</ele>
        <time>2017-04-20T13:49:49Z</time>
      </trkpt>
      <trkpt lat="44.02221" lon="2.13495">
        <ele>317.1</ele>
        <time>2017-04-20T13:49:51Z</time>
      </trkpt>
      <trkpt lat="44.02234" lon="2.13501">
        <ele>316.8</ele>
        <time>2017-04-20T13:49:53Z</time>
      </trkpt>
      <trkpt lat="44.02248" lon="2.13507">
        <ele>316.5</ele>
        <time>2017-04-20T13:49:55Z</time>
      </trkpt>
      <trkpt lat="44.02261" lon="2.13513">
        <ele>316.2</ele>
        <time>2017-04-20T13:49:57Z</time>
      </trkpt>
      <trkpt lat="44.02274" lon="2.13519">
        <ele>315.9</ele>
        <time>2017-04-20T13:49:59Z</time>
      </trkpt>
      <trkpt lat="44.02286" lon="2.13526">
        <ele>315.2</ele>
        <time>2017-04-20T13:50:01Z</time>
      </trkpt>
      <trkpt lat="44.02297" lon="2.13529">
        <ele>314.9</ele>
        <time>2017-04-20T13:50:03Z</time>
      </trkpt>
      <trkpt lat="44.02302" lon="2.13537">
        <ele>313.7</ele>
        <time>2017-04-20T13:50:06Z</time>
      </trkpt>
      <trkpt lat="44.02292" lon="2.13537">
        <ele>311.9</ele>
        <time>2017-04-20T13:50:10Z</time>
      </trkpt>
      <trkpt lat="44.02284" lon="2.13534">
        <ele>310.1</ele>
        <time>2017-04-20T13:50:12Z</time>
      </trkpt>
      <trkpt lat="44.02274" lon="2.13531">
        <ele>309.2</ele>
        <time>2017-04-20T13:50:14Z</time>
      </trkpt>
      <trkpt lat="44.02262" lon="2.13528">
        <ele>308</ele>
        <time>2017-04-20T13:50:16Z</time>
      </trkpt>
      <trkpt lat="44.02251" lon="2.13525">
        <ele>306.3</ele>
        <time>2017-04-20T13:50:18Z</time>
      </trkpt>
      <trkpt lat="44.02239" lon="2.13522">
        <ele>305.9</ele>
        <time>2017-04-20T13:50:20Z</time>
      </trkpt>
      <trkpt lat="44.02228" lon="2.1352">
        <ele>305.7</ele>
        <time>2017-04-20T13:50:22Z</time>
      </trkpt>
      <trkpt lat="44.02216" lon="2.1352">
        <ele>305.8</ele>
        <time>2017-04-20T13:50:24Z</time>
      </trkpt>
      <trkpt lat="44.02205" lon="2.13517">
        <ele>305.3</ele>
        <time>2017-04-20T13:50:26Z</time>
      </trkpt>
      <trkpt lat="44.02194" lon="2.13514">
        <ele>304.4</ele>
        <time>2017-04-20T13:50:28Z</time>
      </trkpt>
      <trkpt lat="44.02183" lon="2.13512">
        <ele>304.1</ele>
        <time>2017-04-20T13:50:30Z</time>
      </trkpt>
      <trkpt lat="44.02172" lon="2.13511">
        <ele>303.5</ele>
        <time>2017-04-20T13:50:32Z</time>
      </trkpt>
      <trkpt lat="44.02162" lon="2.13508">
        <ele>302.9</ele>
        <time>2017-04-20T13:50:34Z</time>
      </trkpt>
      <trkpt lat="44.02152" lon="2.13505">
        <ele>301.9</ele>
        <time>2017-04-20T13:50:36Z</time>
      </trkpt>
      <trkpt lat="44.02141" lon="2.13504">
        <ele>301.5</ele>
        <time>2017-04-20T13:50:38Z</time>
      </trkpt>
      <trkpt lat="44.02131" lon="2.13509">
        <ele>300.9</ele>
        <time>2017-04-20T13:50:40Z</time>
      </trkpt>
      <trkpt lat="44.0212" lon="2.13508">
        <ele>301.1</ele>
        <time>2017-04-20T13:50:42Z</time>
      </trkpt>
      <trkpt lat="44.02111" lon="2.13506">
        <ele>301.3</ele>
        <time>2017-04-20T13:50:45Z</time>
      </trkpt>
      <trkpt lat="44.02101" lon="2.13504">
        <ele>301.4</ele>
        <time>2017-04-20T13:50:46Z</time>
      </trkpt>
      <trkpt lat="44.0209" lon="2.13503">
        <ele>301.7</ele>
        <time>2017-04-20T13:50:48Z</time>
      </trkpt>
      <trkpt lat="44.02079" lon="2.13503">
        <ele>302.1</ele>
        <time>2017-04-20T13:50:50Z</time>
      </trkpt>
      <trkpt lat="44.02069" lon="2.13506">
        <ele>302.3</ele>
        <time>2017-04-20T13:50:52Z</time>
      </trkpt>
      <trkpt lat="44.02061" lon="2.13508">
        <ele>302.2</ele>
        <time>2017-04-20T13:50:54Z</time>
      </trkpt>
      <trkpt lat="44.02054" lon="2.13511">
        <ele>302.1</ele>
        <time>2017-04-20T13:50:56Z</time>
      </trkpt>
      <trkpt lat="44.02045" lon="2.13514">
        <ele>301.8</ele>
        <time>2017-04-20T13:50:58Z</time>
      </trkpt>
      <trkpt lat="44.02036" lon="2.13516">
        <ele>301.6</ele>
        <time>2017-04-20T13:51:00Z</time>
      </trkpt>
      <trkpt lat="44.02028" lon="2.13517">
        <ele>302.4</ele>
        <time>2017-04-20T13:51:02Z</time>
      </trkpt>
      <trkpt lat="44.0202" lon="2.13518">
        <ele>303.3</ele>
        <time>2017-04-20T13:51:04Z</time>
      </trkpt>
      <trkpt lat="44.0202" lon="2.13528">
        <ele>303</ele>
        <time>2017-04-20T13:51:09Z</time>
      </trkpt>
      <trkpt lat="44.02026" lon="2.13533">
        <ele>301.4</ele>
        <time>2017-04-20T13:51:12Z</time>
      </trkpt>
      <trkpt lat="44.02035" lon="2.13536">
        <ele>299.9</ele>
        <time>2017-04-20T13:51:15Z</time>
      </trkpt>
      <trkpt lat="44.02045" lon="2.13542">
        <ele>298</ele>
        <time>2017-04-20T13:51:18Z</time>
      </trkpt>
      <trkpt lat="44.02053" lon="2.13545">
        <ele>296.1</ele>
        <time>2017-04-20T13:51:20Z</time>
      </trkpt>
      <trkpt lat="44.02063" lon="2.13548">
        <ele>293.8</ele>
        <time>2017-04-20T13:51:22Z</time>
      </trkpt>
      <trkpt lat="44.02075" lon="2.13553">
        <ele>291.5</ele>
        <time>2017-04-20T13:51:24Z</time>
      </trkpt>
      <trkpt lat="44.02087" lon="2.13558">
        <ele>288.7</ele>
        <time>2017-04-20T13:51:26Z</time>
      </trkpt>
      <trkpt lat="44.02093" lon="2.13562">
        <ele>288.2</ele>
        <time>2017-04-20T13:51:27Z</time>
      </trkpt>
      <trkpt lat="44.021" lon="2.13568">
        <ele>287.9</ele>
        <time>2017-04-20T13:51:28Z</time>
      </trkpt>
      <trkpt lat="44.02106" lon="2.13574">
        <ele>287.4</ele>
        <time>2017-04-20T13:51:29Z</time>
      </trkpt>
      <trkpt lat="44.02113" lon="2.1358">
        <ele>287.5</ele>
        <time>2017-04-20T13:51:30Z</time>
      </trkpt>
      <trkpt lat="44.02118" lon="2.13587">
        <ele>287</ele>
        <time>2017-04-20T13:51:31Z</time>
      </trkpt>
      <trkpt lat="44.02124" lon="2.13594">
        <ele>286.2</ele>
        <time>2017-04-20T13:51:32Z</time>
      </trkpt>
      <trkpt lat="44.02129" lon="2.13602">
        <ele>285.5</ele>
        <time>2017-04-20T13:51:33Z</time>
      </trkpt>
      <trkpt lat="44.02134" lon="2.13611">
        <ele>285.1</ele>
        <time>2017-04-20T13:51:34Z</time>
      </trkpt>
      <trkpt lat="44.02141" lon="2.13618">
        <ele>285.1</ele>
        <time>2017-04-20T13:51:35Z</time>
      </trkpt>
      <trkpt lat="44.02147" lon="2.13625">
        <ele>284.7</ele>
        <time>2017-04-20T13:51:36Z</time>
      </trkpt>
      <trkpt lat="44.02154" lon="2.13629">
        <ele>284.3</ele>
        <time>2017-04-20T13:51:37Z</time>
      </trkpt>
      <trkpt lat="44.02162" lon="2.13634">
        <ele>283.8</ele>
        <time>2017-04-20T13:51:38Z</time>
      </trkpt>
      <trkpt lat="44.02169" lon="2.13639">
        <ele>283.3</ele>
        <time>2017-04-20T13:51:39Z</time>
      </trkpt>
      <trkpt lat="44.02177" lon="2.13644">
        <ele>282.7</ele>
        <time>2017-04-20T13:51:40Z</time>
      </trkpt>
      <trkpt lat="44.02185" lon="2.1365">
        <ele>282.3</ele>
        <time>2017-04-20T13:51:41Z</time>
      </trkpt>
      <trkpt lat="44.02193" lon="2.13655">
        <ele>281.4</ele>
        <time>2017-04-20T13:51:42Z</time>
      </trkpt>
      <trkpt lat="44.02201" lon="2.13662">
        <ele>280.9</ele>
        <time>2017-04-20T13:51:43Z</time>
      </trkpt>
      <trkpt lat="44.02209" lon="2.13668">
        <ele>280.3</ele>
        <time>2017-04-20T13:51:44Z</time>
      </trkpt>
      <trkpt lat="44.02217" lon="2.13674">
        <ele>279.8</ele>
        <time>2017-04-20T13:51:45Z</time>
      </trkpt>
      <trkpt lat="44.02226" lon="2.13681">
        <ele>279.3</ele>
        <time>2017-04-20T13:51:46Z</time>
      </trkpt>
      <trkpt lat="44.02235" lon="2.13687">
        <ele>278.7</ele>
        <time>2017-04-20T13:51:47Z</time>
      </trkpt>
      <trkpt lat="44.02244" lon="2.13694">
        <ele>278.1</ele>
        <time>2017-04-20T13:51:48Z</time>
      </trkpt>
      <trkpt lat="44.02254" lon="2.13701">
        <ele>277.7</ele>
        <time>2017-04-20T13:51:49Z</time>
      </trkpt>
      <trkpt lat="44.02263" lon="2.13708">
        <ele>277.2</ele>
        <time>2017-04-20T13:51:50Z</time>
      </trkpt>
      <trkpt lat="44.02273" lon="2.13715">
        <ele>276.6</ele>
        <time>2017-04-20T13:51:51Z</time>
      </trkpt>
      <trkpt lat="44.02282" lon="2.13722">
        <ele>276</ele>
        <time>2017-04-20T13:51:52Z</time>
      </trkpt>
      <trkpt lat="44.02291" lon="2.13728">
        <ele>275.8</ele>
        <time>2017-04-20T13:51:53Z</time>
      </trkpt>
      <trkpt lat="44.023" lon="2.13735">
        <ele>275.6</ele>
        <time>2017-04-20T13:51:54Z</time>
      </trkpt>
      <trkpt lat="44.02309" lon="2.13743">
        <ele>275.8</ele>
        <time>2017-04-20T13:51:55Z</time>
      </trkpt>
      <trkpt lat="44.02317" lon="2.1375">
        <ele>275.7</ele>
        <time>2017-04-20T13:51:56Z</time>
      </trkpt>
      <trkpt lat="44.02326" lon="2.13757">
        <ele>275.8</ele>
        <time>2017-04-20T13:51:57Z</time>
      </trkpt>
      <trkpt lat="44.02333" lon="2.13764">
        <ele>275.9</ele>
        <time>2017-04-20T13:51:58Z</time>
      </trkpt>
      <trkpt lat="44.02342" lon="2.13771">
        <ele>275.9</ele>
        <time>2017-04-20T13:51:59Z</time>
      </trkpt>
      <trkpt lat="44.02349" lon="2.13779">
        <ele>275.8</ele>
        <time>2017-04-20T13:52:00Z</time>
      </trkpt>
      <trkpt lat="44.02357" lon="2.13786">
        <ele>275.8</ele>
        <time>2017-04-20T13:52:01Z</time>
      </trkpt>
      <trkpt lat="44.02364" lon="2.13794">
        <ele>275.8</ele>
        <time>2017-04-20T13:52:02Z</time>
      </trkpt>
      <trkpt lat="44.02371" lon="2.13801">
        <ele>275.6</ele>
        <time>2017-04-20T13:52:03Z</time>
      </trkpt>
      <trkpt lat="44.02378" lon="2.1381">
        <ele>275.5</ele>
        <time>2017-04-20T13:52:04Z</time>
      </trkpt>
      <trkpt lat="44.02385" lon="2.13819">
        <ele>275.2</ele>
        <time>2017-04-20T13:52:05Z</time>
      </trkpt>
      <trkpt lat="44.02391" lon="2.13827">
        <ele>274.7</ele>
        <time>2017-04-20T13:52:06Z</time>
      </trkpt>
      <trkpt lat="44.02398" lon="2.13838">
        <ele>274.2</ele>
        <time>2017-04-20T13:52:07Z</time>
      </trkpt>
      <trkpt lat="44.02403" lon="2.1385">
        <ele>273.4</ele>
        <time>2017-04-20T13:52:08Z</time>
      </trkpt>
      <trkpt lat="44.02406" lon="2.13862">
        <ele>272.7</ele>
        <time>2017-04-20T13:52:09Z</time>
      </trkpt>
      <trkpt lat="44.02408" lon="2.13875">
        <ele>271.8</ele>
        <time>2017-04-20T13:52:10Z</time>
      </trkpt>
      <trkpt lat="44.0241" lon="2.13889">
        <ele>271.4</ele>
        <time>2017-04-20T13:52:11Z</time>
      </trkpt>
      <trkpt lat="44.02412" lon="2.13902">
        <ele>271</ele>
        <time>2017-04-20T13:52:12Z</time>
      </trkpt>
      <trkpt lat="44.02416" lon="2.13915">
        <ele>270.7</ele>
        <time>2017-04-20T13:52:13Z</time>
      </trkpt>
      <trkpt lat="44.0242" lon="2.13928">
        <ele>270.4</ele>
        <time>2017-04-20T13:52:14Z</time>
      </trkpt>
      <trkpt lat="44.02426" lon="2.13939">
        <ele>269.9</ele>
        <time>2017-04-20T13:52:15Z</time>
      </trkpt>
      <trkpt lat="44.02431" lon="2.13951">
        <ele>269.6</ele>
        <time>2017-04-20T13:52:16Z</time>
      </trkpt>
      <trkpt lat="44.02436" lon="2.13962">
        <ele>269.2</ele>
        <time>2017-04-20T13:52:17Z</time>
      </trkpt>
      <trkpt lat="44.02442" lon="2.13973">
        <ele>268.7</ele>
        <time>2017-04-20T13:52:18Z</time>
      </trkpt>
      <trkpt lat="44.02448" lon="2.13984">
        <ele>268.3</ele>
        <time>2017-04-20T13:52:19Z</time>
      </trkpt>
      <trkpt lat="44.02453" lon="2.13994">
        <ele>267.8</ele>
        <time>2017-04-20T13:52:20Z</time>
      </trkpt>
      <trkpt lat="44.02459" lon="2.14005">
        <ele>267.2</ele>
        <time>2017-04-20T13:52:21Z</time>
      </trkpt>
      <trkpt lat="44.02466" lon="2.14015">
        <ele>266.6</ele>
        <time>2017-04-20T13:52:22Z</time>
      </trkpt>
      <trkpt lat="44.02472" lon="2.14024">
        <ele>266</ele>
        <time>2017-04-20T13:52:23Z</time>
      </trkpt>
      <trkpt lat="44.02479" lon="2.14034">
        <ele>265.5</ele>
        <time>2017-04-20T13:52:24Z</time>
      </trkpt>
      <trkpt lat="44.02485" lon="2.14043">
        <ele>265.3</ele>
        <time>2017-04-20T13:52:25Z</time>
      </trkpt>
      <trkpt lat="44.02491" lon="2.14054">
        <ele>264.8</ele>
        <time>2017-04-20T13:52:26Z</time>
      </trkpt>
      <trkpt lat="44.02496" lon="2.14065">
        <ele>264</ele>
        <time>2017-04-20T13:52:27Z</time>
      </trkpt>
      <trkpt lat="44.025" lon="2.14077">
        <ele>263.2</ele>
        <time>2017-04-20T13:52:28Z</time>
      </trkpt>
      <trkpt lat="44.02502" lon="2.1409">
        <ele>262.3</ele>
        <time>2017-04-20T13:52:29Z</time>
      </trkpt>
      <trkpt lat="44.02503" lon="2.14103">
        <ele>261.5</ele>
        <time>2017-04-20T13:52:30Z</time>
      </trkpt>
      <trkpt lat="44.02503" lon="2.14117">
        <ele>260.6</ele>
        <time>2017-04-20T13:52:31Z</time>
      </trkpt>
      <trkpt lat="44.02504" lon="2.1413">
        <ele>259.7</ele>
        <time>2017-04-20T13:52:32Z</time>
      </trkpt>
      <trkpt lat="44.02505" lon="2.14144">
        <ele>258.9</ele>
        <time>2017-04-20T13:52:33Z</time>
      </trkpt>
      <trkpt lat="44.02505" lon="2.14157">
        <ele>258</ele>
        <time>2017-04-20T13:52:34Z</time>
      </trkpt>
      <trkpt lat="44.02507" lon="2.14171">
        <ele>257.3</ele>
        <time>2017-04-20T13:52:35Z</time>
      </trkpt>
      <trkpt lat="44.02508" lon="2.14185">
        <ele>256.6</ele>
        <time>2017-04-20T13:52:36Z</time>
      </trkpt>
      <trkpt lat="44.02509" lon="2.14199">
        <ele>255.8</ele>
        <time>2017-04-20T13:52:37Z</time>
      </trkpt>
      <trkpt lat="44.02511" lon="2.14213">
        <ele>255</ele>
        <time>2017-04-20T13:52:38Z</time>
      </trkpt>
      <trkpt lat="44.02511" lon="2.14227">
        <ele>254.2</ele>
        <time>2017-04-20T13:52:39Z</time>
      </trkpt>
      <trkpt lat="44.02511" lon="2.1424">
        <ele>253.6</ele>
        <time>2017-04-20T13:52:40Z</time>
      </trkpt>
      <trkpt lat="44.02511" lon="2.14254">
        <ele>252.6</ele>
        <time>2017-04-20T13:52:41Z</time>
      </trkpt>
      <trkpt lat="44.02511" lon="2.14268">
        <ele>251.9</ele>
        <time>2017-04-20T13:52:42Z</time>
      </trkpt>
      <trkpt lat="44.02511" lon="2.14282">
        <ele>250.8</ele>
        <time>2017-04-20T13:52:43Z</time>
      </trkpt>
      <trkpt lat="44.0251" lon="2.14295">
        <ele>249.9</ele>
        <time>2017-04-20T13:52:44Z</time>
      </trkpt>
      <trkpt lat="44.0251" lon="2.14309">
        <ele>249.1</ele>
        <time>2017-04-20T13:52:45Z</time>
      </trkpt>
      <trkpt lat="44.0251" lon="2.14324">
        <ele>248.4</ele>
        <time>2017-04-20T13:52:46Z</time>
      </trkpt>
      <trkpt lat="44.02511" lon="2.14338">
        <ele>247.7</ele>
        <time>2017-04-20T13:52:47Z</time>
      </trkpt>
      <trkpt lat="44.02511" lon="2.14353">
        <ele>246.9</ele>
        <time>2017-04-20T13:52:48Z</time>
      </trkpt>
      <trkpt lat="44.02512" lon="2.14367">
        <ele>246.2</ele>
        <time>2017-04-20T13:52:49Z</time>
      </trkpt>
      <trkpt lat="44.02513" lon="2.14381">
        <ele>245.5</ele>
        <time>2017-04-20T13:52:50Z</time>
      </trkpt>
      <trkpt lat="44.02514" lon="2.14397">
        <ele>245.1</ele>
        <time>2017-04-20T13:52:51Z</time>
      </trkpt>
      <trkpt lat="44.02514" lon="2.14411">
        <ele>244.8</ele>
        <time>2017-04-20T13:52:52Z</time>
      </trkpt>
      <trkpt lat="44.02515" lon="2.14425">
        <ele>244.2</ele>
        <time>2017-04-20T13:52:53Z</time>
      </trkpt>
      <trkpt lat="44.02515" lon="2.14439">
        <ele>243.4</ele>
        <time>2017-04-20T13:52:54Z</time>
      </trkpt>
      <trkpt lat="44.02516" lon="2.14453">
        <ele>242.6</ele>
        <time>2017-04-20T13:52:55Z</time>
      </trkpt>
      <trkpt lat="44.02516" lon="2.14468">
        <ele>241.8</ele>
        <time>2017-04-20T13:52:56Z</time>
      </trkpt>
      <trkpt lat="44.02517" lon="2.14483">
        <ele>241.2</ele>
        <time>2017-04-20T13:52:57Z</time>
      </trkpt>
      <trkpt lat="44.02517" lon="2.14497">
        <ele>240.6</ele>
        <time>2017-04-20T13:52:58Z</time>
      </trkpt>
      <trkpt lat="44.02518" lon="2.14511">
        <ele>240</ele>
        <time>2017-04-20T13:52:59Z</time>
      </trkpt>
      <trkpt lat="44.02517" lon="2.14525">
        <ele>239.5</ele>
        <time>2017-04-20T13:53:00Z</time>
      </trkpt>
      <trkpt lat="44.02517" lon="2.14539">
        <ele>239.1</ele>
        <time>2017-04-20T13:53:01Z</time>
      </trkpt>
      <trkpt lat="44.02517" lon="2.14553">
        <ele>238.5</ele>
        <time>2017-04-20T13:53:02Z</time>
      </trkpt>
      <trkpt lat="44.02516" lon="2.14567">
        <ele>238.1</ele>
        <time>2017-04-20T13:53:03Z</time>
      </trkpt>
      <trkpt lat="44.02516" lon="2.14581">
        <ele>237.6</ele>
        <time>2017-04-20T13:53:04Z</time>
      </trkpt>
      <trkpt lat="44.02515" lon="2.14595">
        <ele>236.9</ele>
        <time>2017-04-20T13:53:05Z</time>
      </trkpt>
      <trkpt lat="44.02514" lon="2.14608">
        <ele>236.1</ele>
        <time>2017-04-20T13:53:06Z</time>
      </trkpt>
      <trkpt lat="44.02513" lon="2.14622">
        <ele>235.6</ele>
        <time>2017-04-20T13:53:07Z</time>
      </trkpt>
      <trkpt lat="44.02512" lon="2.14635">
        <ele>235</ele>
        <time>2017-04-20T13:53:08Z</time>
      </trkpt>
      <trkpt lat="44.02512" lon="2.14649">
        <ele>234.2</ele>
        <time>2017-04-20T13:53:09Z</time>
      </trkpt>
      <trkpt lat="44.02511" lon="2.14662">
        <ele>233.6</ele>
        <time>2017-04-20T13:53:10Z</time>
      </trkpt>
      <trkpt lat="44.02509" lon="2.14675">
        <ele>233</ele>
        <time>2017-04-20T13:53:11Z</time>
      </trkpt>
      <trkpt lat="44.02508" lon="2.14688">
        <ele>232.5</ele>
        <time>2017-04-20T13:53:12Z</time>
      </trkpt>
      <trkpt lat="44.02507" lon="2.14701">
        <ele>232</ele>
        <time>2017-04-20T13:53:13Z</time>
      </trkpt>
      <trkpt lat="44.02506" lon="2.14713">
        <ele>231.6</ele>
        <time>2017-04-20T13:53:14Z</time>
      </trkpt>
      <trkpt lat="44.02504" lon="2.14726">
        <ele>231</ele>
        <time>2017-04-20T13:53:15Z</time>
      </trkpt>
      <trkpt lat="44.02503" lon="2.14738">
        <ele>230.6</ele>
        <time>2017-04-20T13:53:16Z</time>
      </trkpt>
      <trkpt lat="44.02501" lon="2.14749">
        <ele>230.3</ele>
        <time>2017-04-20T13:53:17Z</time>
      </trkpt>
      <trkpt lat="44.02498" lon="2.14761">
        <ele>229.8</ele>
        <time>2017-04-20T13:53:18Z</time>
      </trkpt>
      <trkpt lat="44.02496" lon="2.14772">
        <ele>229.3</ele>
        <time>2017-04-20T13:53:19Z</time>
      </trkpt>
      <trkpt lat="44.02491" lon="2.14782">
        <ele>229</ele>
        <time>2017-04-20T13:53:20Z</time>
      </trkpt>
      <trkpt lat="44.02487" lon="2.14793">
        <ele>228.7</ele>
        <time>2017-04-20T13:53:21Z</time>
      </trkpt>
      <trkpt lat="44.02483" lon="2.14803">
        <ele>228.7</ele>
        <time>2017-04-20T13:53:22Z</time>
      </trkpt>
      <trkpt lat="44.02479" lon="2.14812">
        <ele>228.5</ele>
        <time>2017-04-20T13:53:23Z</time>
      </trkpt>
      <trkpt lat="44.02473" lon="2.14821">
        <ele>228.7</ele>
        <time>2017-04-20T13:53:24Z</time>
      </trkpt>
      <trkpt lat="44.02467" lon="2.14829">
        <ele>228.8</ele>
        <time>2017-04-20T13:53:25Z</time>
      </trkpt>
      <trkpt lat="44.02461" lon="2.14838">
        <ele>229.1</ele>
        <time>2017-04-20T13:53:26Z</time>
      </trkpt>
      <trkpt lat="44.02454" lon="2.14847">
        <ele>228.9</ele>
        <time>2017-04-20T13:53:27Z</time>
      </trkpt>
      <trkpt lat="44.02448" lon="2.14855">
        <ele>229</ele>
        <time>2017-04-20T13:53:28Z</time>
      </trkpt>
      <trkpt lat="44.02443" lon="2.14864">
        <ele>229.1</ele>
        <time>2017-04-20T13:53:29Z</time>
      </trkpt>
      <trkpt lat="44.02436" lon="2.14872">
        <ele>229</ele>
        <time>2017-04-20T13:53:30Z</time>
      </trkpt>
      <trkpt lat="44.02429" lon="2.14878">
        <ele>229.1</ele>
        <time>2017-04-20T13:53:31Z</time>
      </trkpt>
      <trkpt lat="44.02421" lon="2.14885">
        <ele>228.9</ele>
        <time>2017-04-20T13:53:32Z</time>
      </trkpt>
      <trkpt lat="44.02414" lon="2.14891">
        <ele>228.8</ele>
        <time>2017-04-20T13:53:33Z</time>
      </trkpt>
      <trkpt lat="44.02407" lon="2.14896">
        <ele>228.7</ele>
        <time>2017-04-20T13:53:34Z</time>
      </trkpt>
      <trkpt lat="44.024" lon="2.14901">
        <ele>228.4</ele>
        <time>2017-04-20T13:53:35Z</time>
      </trkpt>
      <trkpt lat="44.02392" lon="2.14906">
        <ele>228.7</ele>
        <time>2017-04-20T13:53:36Z</time>
      </trkpt>
      <trkpt lat="44.02384" lon="2.1491">
        <ele>228.9</ele>
        <time>2017-04-20T13:53:37Z</time>
      </trkpt>
      <trkpt lat="44.02376" lon="2.14914">
        <ele>228.9</ele>
        <time>2017-04-20T13:53:38Z</time>
      </trkpt>
      <trkpt lat="44.02369" lon="2.14917">
        <ele>228.8</ele>
        <time>2017-04-20T13:53:39Z</time>
      </trkpt>
      <trkpt lat="44.02361" lon="2.1492">
        <ele>228.6</ele>
        <time>2017-04-20T13:53:40Z</time>
      </trkpt>
      <trkpt lat="44.02353" lon="2.14922">
        <ele>228.7</ele>
        <time>2017-04-20T13:53:41Z</time>
      </trkpt>
      <trkpt lat="44.02345" lon="2.14924">
        <ele>228.6</ele>
        <time>2017-04-20T13:53:42Z</time>
      </trkpt>
      <trkpt lat="44.02338" lon="2.14925">
        <ele>228.4</ele>
        <time>2017-04-20T13:53:43Z</time>
      </trkpt>
      <trkpt lat="44.02325" lon="2.1493">
        <ele>228.5</ele>
        <time>2017-04-20T13:53:45Z</time>
      </trkpt>
      <trkpt lat="44.02313" lon="2.14936">
        <ele>228.9</ele>
        <time>2017-04-20T13:53:47Z</time>
      </trkpt>
      <trkpt lat="44.02301" lon="2.1494">
        <ele>228.7</ele>
        <time>2017-04-20T13:53:49Z</time>
      </trkpt>
      <trkpt lat="44.0229" lon="2.14945">
        <ele>229.3</ele>
        <time>2017-04-20T13:53:51Z</time>
      </trkpt>
      <trkpt lat="44.02279" lon="2.1495">
        <ele>230.4</ele>
        <time>2017-04-20T13:53:53Z</time>
      </trkpt>
      <trkpt lat="44.02269" lon="2.14955">
        <ele>231.1</ele>
        <time>2017-04-20T13:53:55Z</time>
      </trkpt>
      <trkpt lat="44.02258" lon="2.1496">
        <ele>231.7</ele>
        <time>2017-04-20T13:53:57Z</time>
      </trkpt>
      <trkpt lat="44.02247" lon="2.14965">
        <ele>231.4</ele>
        <time>2017-04-20T13:53:59Z</time>
      </trkpt>
      <trkpt lat="44.02235" lon="2.14968">
        <ele>231.3</ele>
        <time>2017-04-20T13:54:01Z</time>
      </trkpt>
      <trkpt lat="44.02224" lon="2.1497">
        <ele>231.2</ele>
        <time>2017-04-20T13:54:03Z</time>
      </trkpt>
      <trkpt lat="44.02212" lon="2.14973">
        <ele>232.6</ele>
        <time>2017-04-20T13:54:05Z</time>
      </trkpt>
      <trkpt lat="44.022" lon="2.14974">
        <ele>233</ele>
        <time>2017-04-20T13:54:07Z</time>
      </trkpt>
      <trkpt lat="44.02188" lon="2.14973">
        <ele>234</ele>
        <time>2017-04-20T13:54:09Z</time>
      </trkpt>
      <trkpt lat="44.02175" lon="2.14971">
        <ele>234.4</ele>
        <time>2017-04-20T13:54:11Z</time>
      </trkpt>
      <trkpt lat="44.02163" lon="2.14967">
        <ele>234.5</ele>
        <time>2017-04-20T13:54:13Z</time>
      </trkpt>
      <trkpt lat="44.02152" lon="2.14961">
        <ele>234.5</ele>
        <time>2017-04-20T13:54:15Z</time>
      </trkpt>
      <trkpt lat="44.0214" lon="2.14956">
        <ele>234.2</ele>
        <time>2017-04-20T13:54:17Z</time>
      </trkpt>
      <trkpt lat="44.02128" lon="2.14952">
        <ele>233.9</ele>
        <time>2017-04-20T13:54:19Z</time>
      </trkpt>
      <trkpt lat="44.02116" lon="2.14947">
        <ele>233.4</ele>
        <time>2017-04-20T13:54:21Z</time>
      </trkpt>
      <trkpt lat="44.02103" lon="2.14944">
        <ele>233.2</ele>
        <time>2017-04-20T13:54:23Z</time>
      </trkpt>
      <trkpt lat="44.02091" lon="2.1494">
        <ele>233.2</ele>
        <time>2017-04-20T13:54:25Z</time>
      </trkpt>
      <trkpt lat="44.02079" lon="2.14937">
        <ele>234.4</ele>
        <time>2017-04-20T13:54:27Z</time>
      </trkpt>
      <trkpt lat="44.02066" lon="2.14932">
        <ele>235.1</ele>
        <time>2017-04-20T13:54:29Z</time>
      </trkpt>
      <trkpt lat="44.02054" lon="2.14928">
        <ele>235.4</ele>
        <time>2017-04-20T13:54:31Z</time>
      </trkpt>
      <trkpt lat="44.02041" lon="2.14925">
        <ele>235.9</ele>
        <time>2017-04-20T13:54:33Z</time>
      </trkpt>
      <trkpt lat="44.02029" lon="2.1492">
        <ele>236</ele>
        <time>2017-04-20T13:54:35Z</time>
      </trkpt>
      <trkpt lat="44.02017" lon="2.14916">
        <ele>236.1</ele>
        <time>2017-04-20T13:54:37Z</time>
      </trkpt>
      <trkpt lat="44.02005" lon="2.14912">
        <ele>236.5</ele>
        <time>2017-04-20T13:54:39Z</time>
      </trkpt>
      <trkpt lat="44.01993" lon="2.14908">
        <ele>236.8</ele>
        <time>2017-04-20T13:54:41Z</time>
      </trkpt>
      <trkpt lat="44.01981" lon="2.14904">
        <ele>237</ele>
        <time>2017-04-20T13:54:43Z</time>
      </trkpt>
      <trkpt lat="44.0197" lon="2.149">
        <ele>236.4</ele>
        <time>2017-04-20T13:54:45Z</time>
      </trkpt>
      <trkpt lat="44.01958" lon="2.14897">
        <ele>237.1</ele>
        <time>2017-04-20T13:54:47Z</time>
      </trkpt>
      <trkpt lat="44.01945" lon="2.14893">
        <ele>237</ele>
        <time>2017-04-20T13:54:49Z</time>
      </trkpt>
      <trkpt lat="44.01933" lon="2.14889">
        <ele>237.2</ele>
        <time>2017-04-20T13:54:51Z</time>
      </trkpt>
      <trkpt lat="44.0192" lon="2.14885">
        <ele>238.2</ele>
        <time>2017-04-20T13:54:53Z</time>
      </trkpt>
      <trkpt lat="44.01909" lon="2.14881">
        <ele>238.5</ele>
        <time>2017-04-20T13:54:55Z</time>
      </trkpt>
      <trkpt lat="44.01897" lon="2.14878">
        <ele>238.8</ele>
        <time>2017-04-20T13:54:57Z</time>
      </trkpt>
      <trkpt lat="44.01885" lon="2.14874">
        <ele>238.7</ele>
        <time>2017-04-20T13:54:59Z</time>
      </trkpt>
      <trkpt lat="44.01874" lon="2.14871">
        <ele>238.9</ele>
        <time>2017-04-20T13:55:01Z</time>
      </trkpt>
      <trkpt lat="44.01862" lon="2.14868">
        <ele>239.5</ele>
        <time>2017-04-20T13:55:03Z</time>
      </trkpt>
      <trkpt lat="44.01851" lon="2.14865">
        <ele>240.8</ele>
        <time>2017-04-20T13:55:05Z</time>
      </trkpt>
      <trkpt lat="44.01839" lon="2.14863">
        <ele>241.7</ele>
        <time>2017-04-20T13:55:07Z</time>
      </trkpt>
      <trkpt lat="44.01828" lon="2.1486">
        <ele>242.4</ele>
        <time>2017-04-20T13:55:09Z</time>
      </trkpt>
      <trkpt lat="44.01817" lon="2.14858">
        <ele>243.4</ele>
        <time>2017-04-20T13:55:11Z</time>
      </trkpt>
      <trkpt lat="44.01806" lon="2.14855">
        <ele>244.9</ele>
        <time>2017-04-20T13:55:13Z</time>
      </trkpt>
      <trkpt lat="44.01795" lon="2.14851">
        <ele>245.9</ele>
        <time>2017-04-20T13:55:15Z</time>
      </trkpt>
      <trkpt lat="44.01784" lon="2.1485">
        <ele>247.5</ele>
        <time>2017-04-20T13:55:17Z</time>
      </trkpt>
      <trkpt lat="44.01774" lon="2.1485">
        <ele>248.7</ele>
        <time>2017-04-20T13:55:19Z</time>
      </trkpt>
      <trkpt lat="44.01762" lon="2.1485">
        <ele>250.3</ele>
        <time>2017-04-20T13:55:21Z</time>
      </trkpt>
      <trkpt lat="44.01752" lon="2.14851">
        <ele>252.1</ele>
        <time>2017-04-20T13:55:23Z</time>
      </trkpt>
      <trkpt lat="44.0174" lon="2.14851">
        <ele>253.7</ele>
        <time>2017-04-20T13:55:25Z</time>
      </trkpt>
      <trkpt lat="44.01729" lon="2.14851">
        <ele>255.1</ele>
        <time>2017-04-20T13:55:27Z</time>
      </trkpt>
      <trkpt lat="44.01719" lon="2.1485">
        <ele>256</ele>
        <time>2017-04-20T13:55:29Z</time>
      </trkpt>
      <trkpt lat="44.01707" lon="2.14849">
        <ele>256.5</ele>
        <time>2017-04-20T13:55:31Z</time>
      </trkpt>
      <trkpt lat="44.01696" lon="2.14848">
        <ele>257.4</ele>
        <time>2017-04-20T13:55:33Z</time>
      </trkpt>
      <trkpt lat="44.01685" lon="2.1485">
        <ele>258.3</ele>
        <time>2017-04-20T13:55:35Z</time>
      </trkpt>
      <trkpt lat="44.01674" lon="2.14851">
        <ele>258.5</ele>
        <time>2017-04-20T13:55:37Z</time>
      </trkpt>
      <trkpt lat="44.01663" lon="2.1485">
        <ele>259.2</ele>
        <time>2017-04-20T13:55:39Z</time>
      </trkpt>
      <trkpt lat="44.01652" lon="2.14845">
        <ele>259.7</ele>
        <time>2017-04-20T13:55:41Z</time>
      </trkpt>
      <trkpt lat="44.01643" lon="2.14836">
        <ele>260.2</ele>
        <time>2017-04-20T13:55:43Z</time>
      </trkpt>
      <trkpt lat="44.01635" lon="2.14826">
        <ele>260.9</ele>
        <time>2017-04-20T13:55:45Z</time>
      </trkpt>
      <trkpt lat="44.01628" lon="2.14815">
        <ele>260.7</ele>
        <time>2017-04-20T13:55:47Z</time>
      </trkpt>
      <trkpt lat="44.01621" lon="2.14802">
        <ele>261.3</ele>
        <time>2017-04-20T13:55:49Z</time>
      </trkpt>
      <trkpt lat="44.01615" lon="2.1479">
        <ele>262</ele>
        <time>2017-04-20T13:55:51Z</time>
      </trkpt>
      <trkpt lat="44.01608" lon="2.14778">
        <ele>262.2</ele>
        <time>2017-04-20T13:55:53Z</time>
      </trkpt>
      <trkpt lat="44.01601" lon="2.14766">
        <ele>262.5</ele>
        <time>2017-04-20T13:55:55Z</time>
      </trkpt>
      <trkpt lat="44.01595" lon="2.14754">
        <ele>263</ele>
        <time>2017-04-20T13:55:57Z</time>
      </trkpt>
      <trkpt lat="44.01588" lon="2.14741">
        <ele>264</ele>
        <time>2017-04-20T13:55:59Z</time>
      </trkpt>
      <trkpt lat="44.01582" lon="2.14729">
        <ele>264.8</ele>
        <time>2017-04-20T13:56:01Z</time>
      </trkpt>
      <trkpt lat="44.01577" lon="2.14715">
        <ele>264.7</ele>
        <time>2017-04-20T13:56:03Z</time>
      </trkpt>
      <trkpt lat="44.01572" lon="2.14701">
        <ele>265.2</ele>
        <time>2017-04-20T13:56:05Z</time>
      </trkpt>
      <trkpt lat="44.01567" lon="2.14688">
        <ele>265.5</ele>
        <time>2017-04-20T13:56:07Z</time>
      </trkpt>
      <trkpt lat="44.01562" lon="2.14674">
        <ele>265.7</ele>
        <time>2017-04-20T13:56:09Z</time>
      </trkpt>
      <trkpt lat="44.01555" lon="2.1466">
        <ele>265.9</ele>
        <time>2017-04-20T13:56:11Z</time>
      </trkpt>
      <trkpt lat="44.01548" lon="2.14648">
        <ele>265.7</ele>
        <time>2017-04-20T13:56:13Z</time>
      </trkpt>
      <trkpt lat="44.0154" lon="2.14637">
        <ele>266.5</ele>
        <time>2017-04-20T13:56:15Z</time>
      </trkpt>
      <trkpt lat="44.01531" lon="2.14626">
        <ele>267</ele>
        <time>2017-04-20T13:56:17Z</time>
      </trkpt>
      <trkpt lat="44.01521" lon="2.14618">
        <ele>267.4</ele>
        <time>2017-04-20T13:56:19Z</time>
      </trkpt>
      <trkpt lat="44.0151" lon="2.14611">
        <ele>268</ele>
        <time>2017-04-20T13:56:21Z</time>
      </trkpt>
      <trkpt lat="44.015" lon="2.14604">
        <ele>268.8</ele>
        <time>2017-04-20T13:56:23Z</time>
      </trkpt>
      <trkpt lat="44.01489" lon="2.14596">
        <ele>269.3</ele>
        <time>2017-04-20T13:56:25Z</time>
      </trkpt>
      <trkpt lat="44.01479" lon="2.14588">
        <ele>270</ele>
        <time>2017-04-20T13:56:27Z</time>
      </trkpt>
      <trkpt lat="44.0147" lon="2.14578">
        <ele>270.3</ele>
        <time>2017-04-20T13:56:29Z</time>
      </trkpt>
      <trkpt lat="44.01468" lon="2.14562">
        <ele>270.5</ele>
        <time>2017-04-20T13:56:31Z</time>
      </trkpt>
      <trkpt lat="44.01474" lon="2.1455">
        <ele>271</ele>
        <time>2017-04-20T13:56:33Z</time>
      </trkpt>
      <trkpt lat="44.01484" lon="2.1454">
        <ele>271.5</ele>
        <time>2017-04-20T13:56:35Z</time>
      </trkpt>
      <trkpt lat="44.01493" lon="2.1453">
        <ele>271.9</ele>
        <time>2017-04-20T13:56:37Z</time>
      </trkpt>
      <trkpt lat="44.01501" lon="2.14519">
        <ele>272.2</ele>
        <time>2017-04-20T13:56:39Z</time>
      </trkpt>
      <trkpt lat="44.0151" lon="2.14508">
        <ele>272.6</ele>
        <time>2017-04-20T13:56:41Z</time>
      </trkpt>
      <trkpt lat="44.01519" lon="2.14497">
        <ele>272.9</ele>
        <time>2017-04-20T13:56:43Z</time>
      </trkpt>
      <trkpt lat="44.01529" lon="2.14487">
        <ele>273.2</ele>
        <time>2017-04-20T13:56:45Z</time>
      </trkpt>
      <trkpt lat="44.01538" lon="2.14476">
        <ele>273.4</ele>
        <time>2017-04-20T13:56:47Z</time>
      </trkpt>
      <trkpt lat="44.01546" lon="2.14462">
        <ele>273.8</ele>
        <time>2017-04-20T13:56:49Z</time>
      </trkpt>
      <trkpt lat="44.0155" lon="2.14448">
        <ele>274.3</ele>
        <time>2017-04-20T13:56:51Z</time>
      </trkpt>
      <trkpt lat="44.01552" lon="2.14432">
        <ele>274.8</ele>
        <time>2017-04-20T13:56:53Z</time>
      </trkpt>
      <trkpt lat="44.01552" lon="2.14415">
        <ele>275</ele>
        <time>2017-04-20T13:56:55Z</time>
      </trkpt>
      <trkpt lat="44.01551" lon="2.14399">
        <ele>275.4</ele>
        <time>2017-04-20T13:56:57Z</time>
      </trkpt>
      <trkpt lat="44.01549" lon="2.14383">
        <ele>276.1</ele>
        <time>2017-04-20T13:56:59Z</time>
      </trkpt>
      <trkpt lat="44.01545" lon="2.14368">
        <ele>276.7</ele>
        <time>2017-04-20T13:57:01Z</time>
      </trkpt>
      <trkpt lat="44.0154" lon="2.14353">
        <ele>277.1</ele>
        <time>2017-04-20T13:57:03Z</time>
      </trkpt>
      <trkpt lat="44.01535" lon="2.14338">
        <ele>277.7</ele>
        <time>2017-04-20T13:57:05Z</time>
      </trkpt>
      <trkpt lat="44.01529" lon="2.14325">
        <ele>278.1</ele>
        <time>2017-04-20T13:57:07Z</time>
      </trkpt>
      <trkpt lat="44.01524" lon="2.14311">
        <ele>278.5</ele>
        <time>2017-04-20T13:57:09Z</time>
      </trkpt>
      <trkpt lat="44.01518" lon="2.14298">
        <ele>279.1</ele>
        <time>2017-04-20T13:57:11Z</time>
      </trkpt>
      <trkpt lat="44.01512" lon="2.14283">
        <ele>280</ele>
        <time>2017-04-20T13:57:13Z</time>
      </trkpt>
      <trkpt lat="44.01506" lon="2.1427">
        <ele>280.3</ele>
        <time>2017-04-20T13:57:15Z</time>
      </trkpt>
      <trkpt lat="44.01501" lon="2.14255">
        <ele>280.6</ele>
        <time>2017-04-20T13:57:17Z</time>
      </trkpt>
      <trkpt lat="44.01498" lon="2.1424">
        <ele>280.9</ele>
        <time>2017-04-20T13:57:19Z</time>
      </trkpt>
      <trkpt lat="44.01496" lon="2.14225">
        <ele>281.4</ele>
        <time>2017-04-20T13:57:21Z</time>
      </trkpt>
      <trkpt lat="44.01496" lon="2.14209">
        <ele>281.6</ele>
        <time>2017-04-20T13:57:23Z</time>
      </trkpt>
      <trkpt lat="44.01495" lon="2.14192">
        <ele>282.2</ele>
        <time>2017-04-20T13:57:25Z</time>
      </trkpt>
      <trkpt lat="44.01495" lon="2.14175">
        <ele>282.4</ele>
        <time>2017-04-20T13:57:27Z</time>
      </trkpt>
      <trkpt lat="44.01496" lon="2.1416">
        <ele>282.1</ele>
        <time>2017-04-20T13:57:29Z</time>
      </trkpt>
      <trkpt lat="44.01496" lon="2.14146">
        <ele>282.5</ele>
        <time>2017-04-20T13:57:31Z</time>
      </trkpt>
      <trkpt lat="44.01498" lon="2.14134">
        <ele>282.7</ele>
        <time>2017-04-20T13:57:33Z</time>
      </trkpt>
      <trkpt lat="44.015" lon="2.14119">
        <ele>283</ele>
        <time>2017-04-20T13:57:35Z</time>
      </trkpt>
      <trkpt lat="44.01501" lon="2.14102">
        <ele>283</ele>
        <time>2017-04-20T13:57:37Z</time>
      </trkpt>
      <trkpt lat="44.01504" lon="2.14085">
        <ele>282.6</ele>
        <time>2017-04-20T13:57:39Z</time>
      </trkpt>
      <trkpt lat="44.01507" lon="2.14068">
        <ele>282.4</ele>
        <time>2017-04-20T13:57:41Z</time>
      </trkpt>
      <trkpt lat="44.01512" lon="2.1405">
        <ele>282.8</ele>
        <time>2017-04-20T13:57:43Z</time>
      </trkpt>
      <trkpt lat="44.01516" lon="2.14033">
        <ele>282.7</ele>
        <time>2017-04-20T13:57:45Z</time>
      </trkpt>
      <trkpt lat="44.0152" lon="2.14016">
        <ele>282.5</ele>
        <time>2017-04-20T13:57:47Z</time>
      </trkpt>
      <trkpt lat="44.01523" lon="2.13999">
        <ele>282.4</ele>
        <time>2017-04-20T13:57:49Z</time>
      </trkpt>
      <trkpt lat="44.01525" lon="2.13982">
        <ele>282.5</ele>
        <time>2017-04-20T13:57:51Z</time>
      </trkpt>
      <trkpt lat="44.01527" lon="2.13965">
        <ele>282.3</ele>
        <time>2017-04-20T13:57:53Z</time>
      </trkpt>
      <trkpt lat="44.01528" lon="2.13949">
        <ele>282.2</ele>
        <time>2017-04-20T13:57:55Z</time>
      </trkpt>
      <trkpt lat="44.01529" lon="2.13932">
        <ele>281.8</ele>
        <time>2017-04-20T13:57:57Z</time>
      </trkpt>
      <trkpt lat="44.01534" lon="2.13918">
        <ele>281.3</ele>
        <time>2017-04-20T13:57:59Z</time>
      </trkpt>
      <trkpt lat="44.01541" lon="2.13905">
        <ele>281</ele>
        <time>2017-04-20T13:58:01Z</time>
      </trkpt>
      <trkpt lat="44.01549" lon="2.13893">
        <ele>280.7</ele>
        <time>2017-04-20T13:58:04Z</time>
      </trkpt>
      <trkpt lat="44.01557" lon="2.13883">
        <ele>280.8</ele>
        <time>2017-04-20T13:58:05Z</time>
      </trkpt>
      <trkpt lat="44.01567" lon="2.13876">
        <ele>280.6</ele>
        <time>2017-04-20T13:58:07Z</time>
      </trkpt>
      <trkpt lat="44.01577" lon="2.1387">
        <ele>280.2</ele>
        <time>2017-04-20T13:58:09Z</time>
      </trkpt>
      <trkpt lat="44.01588" lon="2.13866">
        <ele>279.9</ele>
        <time>2017-04-20T13:58:11Z</time>
      </trkpt>
      <trkpt lat="44.01601" lon="2.13862">
        <ele>279.6</ele>
        <time>2017-04-20T13:58:13Z</time>
      </trkpt>
      <trkpt lat="44.01614" lon="2.13861">
        <ele>279.6</ele>
        <time>2017-04-20T13:58:15Z</time>
      </trkpt>
      <trkpt lat="44.01626" lon="2.13863">
        <ele>279.8</ele>
        <time>2017-04-20T13:58:17Z</time>
      </trkpt>
      <trkpt lat="44.01638" lon="2.13865">
        <ele>279.8</ele>
        <time>2017-04-20T13:58:19Z</time>
      </trkpt>
      <trkpt lat="44.01651" lon="2.13869">
        <ele>279.4</ele>
        <time>2017-04-20T13:58:21Z</time>
      </trkpt>
      <trkpt lat="44.01663" lon="2.13873">
        <ele>279.2</ele>
        <time>2017-04-20T13:58:23Z</time>
      </trkpt>
      <trkpt lat="44.01676" lon="2.13875">
        <ele>279.7</ele>
        <time>2017-04-20T13:58:25Z</time>
      </trkpt>
      <trkpt lat="44.01689" lon="2.13875">
        <ele>280.2</ele>
        <time>2017-04-20T13:58:27Z</time>
      </trkpt>
      <trkpt lat="44.01702" lon="2.13871">
        <ele>280.6</ele>
        <time>2017-04-20T13:58:29Z</time>
      </trkpt>
      <trkpt lat="44.01713" lon="2.13866">
        <ele>280.8</ele>
        <time>2017-04-20T13:58:31Z</time>
      </trkpt>
      <trkpt lat="44.01723" lon="2.13857">
        <ele>280.3</ele>
        <time>2017-04-20T13:58:33Z</time>
      </trkpt>
      <trkpt lat="44.01731" lon="2.13844">
        <ele>281.1</ele>
        <time>2017-04-20T13:58:35Z</time>
      </trkpt>
      <trkpt lat="44.01737" lon="2.1383">
        <ele>281.6</ele>
        <time>2017-04-20T13:58:37Z</time>
      </trkpt>
      <trkpt lat="44.01744" lon="2.13815">
        <ele>281.9</ele>
        <time>2017-04-20T13:58:39Z</time>
      </trkpt>
      <trkpt lat="44.01752" lon="2.13801">
        <ele>282.1</ele>
        <time>2017-04-20T13:58:41Z</time>
      </trkpt>
      <trkpt lat="44.01758" lon="2.13787">
        <ele>282.3</ele>
        <time>2017-04-20T13:58:43Z</time>
      </trkpt>
      <trkpt lat="44.01764" lon="2.13771">
        <ele>283</ele>
        <time>2017-04-20T13:58:45Z</time>
      </trkpt>
      <trkpt lat="44.01769" lon="2.13756">
        <ele>283</ele>
        <time>2017-04-20T13:58:47Z</time>
      </trkpt>
      <trkpt lat="44.01775" lon="2.13741">
        <ele>283.1</ele>
        <time>2017-04-20T13:58:49Z</time>
      </trkpt>
      <trkpt lat="44.01782" lon="2.13727">
        <ele>283.2</ele>
        <time>2017-04-20T13:58:51Z</time>
      </trkpt>
      <trkpt lat="44.01792" lon="2.13717">
        <ele>283.3</ele>
        <time>2017-04-20T13:58:53Z</time>
      </trkpt>
      <trkpt lat="44.01801" lon="2.13706">
        <ele>283.3</ele>
        <time>2017-04-20T13:58:55Z</time>
      </trkpt>
      <trkpt lat="44.01811" lon="2.13696">
        <ele>283.4</ele>
        <time>2017-04-20T13:58:57Z</time>
      </trkpt>
      <trkpt lat="44.01821" lon="2.13687">
        <ele>283.6</ele>
        <time>2017-04-20T13:58:59Z</time>
      </trkpt>
      <trkpt lat="44.01832" lon="2.13679">
        <ele>283.9</ele>
        <time>2017-04-20T13:59:01Z</time>
      </trkpt>
      <trkpt lat="44.01843" lon="2.13671">
        <ele>283.9</ele>
        <time>2017-04-20T13:59:03Z</time>
      </trkpt>
      <trkpt lat="44.01854" lon="2.13663">
        <ele>283.7</ele>
        <time>2017-04-20T13:59:05Z</time>
      </trkpt>
      <trkpt lat="44.01866" lon="2.13657">
        <ele>283.2</ele>
        <time>2017-04-20T13:59:07Z</time>
      </trkpt>
      <trkpt lat="44.01877" lon="2.13649">
        <ele>283.2</ele>
        <time>2017-04-20T13:59:09Z</time>
      </trkpt>
      <trkpt lat="44.01888" lon="2.13642">
        <ele>283</ele>
        <time>2017-04-20T13:59:11Z</time>
      </trkpt>
      <trkpt lat="44.01899" lon="2.13635">
        <ele>282.9</ele>
        <time>2017-04-20T13:59:13Z</time>
      </trkpt>
      <trkpt lat="44.0191" lon="2.13627">
        <ele>282.5</ele>
        <time>2017-04-20T13:59:15Z</time>
      </trkpt>
      <trkpt lat="44.01921" lon="2.1362">
        <ele>282.4</ele>
        <time>2017-04-20T13:59:17Z</time>
      </trkpt>
      <trkpt lat="44.01933" lon="2.13614">
        <ele>282.8</ele>
        <time>2017-04-20T13:59:19Z</time>
      </trkpt>
      <trkpt lat="44.01944" lon="2.13608">
        <ele>283.3</ele>
        <time>2017-04-20T13:59:21Z</time>
      </trkpt>
      <trkpt lat="44.01956" lon="2.136">
        <ele>283.8</ele>
        <time>2017-04-20T13:59:23Z</time>
      </trkpt>
      <trkpt lat="44.01967" lon="2.13593">
        <ele>282.9</ele>
        <time>2017-04-20T13:59:25Z</time>
      </trkpt>
      <trkpt lat="44.0198" lon="2.13588">
        <ele>282.7</ele>
        <time>2017-04-20T13:59:27Z</time>
      </trkpt>
      <trkpt lat="44.01992" lon="2.13584">
        <ele>282.6</ele>
        <time>2017-04-20T13:59:29Z</time>
      </trkpt>
      <trkpt lat="44.02005" lon="2.13581">
        <ele>282.5</ele>
        <time>2017-04-20T13:59:31Z</time>
      </trkpt>
      <trkpt lat="44.02018" lon="2.1358">
        <ele>283.7</ele>
        <time>2017-04-20T13:59:33Z</time>
      </trkpt>
      <trkpt lat="44.02031" lon="2.1358">
        <ele>283.9</ele>
        <time>2017-04-20T13:59:35Z</time>
      </trkpt>
      <trkpt lat="44.02043" lon="2.13582">
        <ele>284.1</ele>
        <time>2017-04-20T13:59:37Z</time>
      </trkpt>
      <trkpt lat="44.02056" lon="2.13584">
        <ele>284.3</ele>
        <time>2017-04-20T13:59:39Z</time>
      </trkpt>
      <trkpt lat="44.02068" lon="2.13587">
        <ele>284.6</ele>
        <time>2017-04-20T13:59:41Z</time>
      </trkpt>
      <trkpt lat="44.0208" lon="2.13591">
        <ele>285.1</ele>
        <time>2017-04-20T13:59:43Z</time>
      </trkpt>
      <trkpt lat="44.02092" lon="2.13599">
        <ele>285.2</ele>
        <time>2017-04-20T13:59:45Z</time>
      </trkpt>
      <trkpt lat="44.02103" lon="2.13609">
        <ele>285</ele>
        <time>2017-04-20T13:59:47Z</time>
      </trkpt>
      <trkpt lat="44.02116" lon="2.13618">
        <ele>284.7</ele>
        <time>2017-04-20T13:59:49Z</time>
      </trkpt>
      <trkpt lat="44.02129" lon="2.13627">
        <ele>284.2</ele>
        <time>2017-04-20T13:59:51Z</time>
      </trkpt>
      <trkpt lat="44.02136" lon="2.13631">
        <ele>284</ele>
        <time>2017-04-20T13:59:52Z</time>
      </trkpt>
      <trkpt lat="44.02143" lon="2.13636">
        <ele>283.7</ele>
        <time>2017-04-20T13:59:53Z</time>
      </trkpt>
      <trkpt lat="44.02149" lon="2.13641">
        <ele>283.4</ele>
        <time>2017-04-20T13:59:54Z</time>
      </trkpt>
      <trkpt lat="44.02156" lon="2.13645">
        <ele>283.1</ele>
        <time>2017-04-20T13:59:55Z</time>
      </trkpt>
      <trkpt lat="44.02163" lon="2.1365">
        <ele>282.8</ele>
        <time>2017-04-20T13:59:56Z</time>
      </trkpt>
      <trkpt lat="44.02171" lon="2.13655">
        <ele>282.5</ele>
        <time>2017-04-20T13:59:57Z</time>
      </trkpt>
      <trkpt lat="44.02178" lon="2.1366">
        <ele>282.2</ele>
        <time>2017-04-20T13:59:58Z</time>
      </trkpt>
      <trkpt lat="44.02185" lon="2.13664">
        <ele>281.9</ele>
        <time>2017-04-20T13:59:59Z</time>
      </trkpt>
      <trkpt lat="44.02192" lon="2.1367">
        <ele>281.6</ele>
        <time>2017-04-20T14:00:00Z</time>
      </trkpt>
      <trkpt lat="44.02199" lon="2.13674">
        <ele>281.3</ele>
        <time>2017-04-20T14:00:01Z</time>
      </trkpt>
      <trkpt lat="44.02206" lon="2.1368">
        <ele>281</ele>
        <time>2017-04-20T14:00:02Z</time>
      </trkpt>
      <trkpt lat="44.02214" lon="2.13685">
        <ele>280.8</ele>
        <time>2017-04-20T14:00:03Z</time>
      </trkpt>
      <trkpt lat="44.02221" lon="2.1369">
        <ele>280.4</ele>
        <time>2017-04-20T14:00:04Z</time>
      </trkpt>
      <trkpt lat="44.02228" lon="2.13695">
        <ele>280.1</ele>
        <time>2017-04-20T14:00:05Z</time>
      </trkpt>
      <trkpt lat="44.02235" lon="2.137">
        <ele>279.8</ele>
        <time>2017-04-20T14:00:06Z</time>
      </trkpt>
      <trkpt lat="44.02242" lon="2.13705">
        <ele>279.4</ele>
        <time>2017-04-20T14:00:07Z</time>
      </trkpt>
      <trkpt lat="44.0225" lon="2.13711">
        <ele>279</ele>
        <time>2017-04-20T14:00:08Z</time>
      </trkpt>
      <trkpt lat="44.02257" lon="2.13717">
        <ele>278.6</ele>
        <time>2017-04-20T14:00:09Z</time>
      </trkpt>
      <trkpt lat="44.02264" lon="2.13722">
        <ele>278.3</ele>
        <time>2017-04-20T14:00:10Z</time>
      </trkpt>
      <trkpt lat="44.02272" lon="2.13727">
        <ele>278</ele>
        <time>2017-04-20T14:00:11Z</time>
      </trkpt>
      <trkpt lat="44.02279" lon="2.13733">
        <ele>277.6</ele>
        <time>2017-04-20T14:00:12Z</time>
      </trkpt>
      <trkpt lat="44.02287" lon="2.13739">
        <ele>277.2</ele>
        <time>2017-04-20T14:00:13Z</time>
      </trkpt>
      <trkpt lat="44.02295" lon="2.13744">
        <ele>276.8</ele>
        <time>2017-04-20T14:00:14Z</time>
      </trkpt>
      <trkpt lat="44.02303" lon="2.13749">
        <ele>276.5</ele>
        <time>2017-04-20T14:00:15Z</time>
      </trkpt>
      <trkpt lat="44.02311" lon="2.13754">
        <ele>276.2</ele>
        <time>2017-04-20T14:00:16Z</time>
      </trkpt>
      <trkpt lat="44.02319" lon="2.1376">
        <ele>276</ele>
        <time>2017-04-20T14:00:17Z</time>
      </trkpt>
      <trkpt lat="44.02326" lon="2.13766">
        <ele>275.9</ele>
        <time>2017-04-20T14:00:18Z</time>
      </trkpt>
      <trkpt lat="44.02333" lon="2.13771">
        <ele>275.9</ele>
        <time>2017-04-20T14:00:19Z</time>
      </trkpt>
      <trkpt lat="44.0234" lon="2.13776">
        <ele>275.8</ele>
        <time>2017-04-20T14:00:20Z</time>
      </trkpt>
      <trkpt lat="44.02347" lon="2.13781">
        <ele>275.6</ele>
        <time>2017-04-20T14:00:21Z</time>
      </trkpt>
      <trkpt lat="44.02354" lon="2.13786">
        <ele>275.5</ele>
        <time>2017-04-20T14:00:22Z</time>
      </trkpt>
      <trkpt lat="44.02361" lon="2.1379">
        <ele>275.4</ele>
        <time>2017-04-20T14:00:23Z</time>
      </trkpt>
      <trkpt lat="44.02368" lon="2.13796">
        <ele>275.4</ele>
        <time>2017-04-20T14:00:24Z</time>
      </trkpt>
      <trkpt lat="44.02374" lon="2.138">
        <ele>275.4</ele>
        <time>2017-04-20T14:00:25Z</time>
      </trkpt>
      <trkpt lat="44.02381" lon="2.13806">
        <ele>275.4</ele>
        <time>2017-04-20T14:00:26Z</time>
      </trkpt>
      <trkpt lat="44.02387" lon="2.13811">
        <ele>275.2</ele>
        <time>2017-04-20T14:00:27Z</time>
      </trkpt>
      <trkpt lat="44.024" lon="2.1382">
        <ele>275.1</ele>
        <time>2017-04-20T14:00:29Z</time>
      </trkpt>
      <trkpt lat="44.02412" lon="2.13828">
        <ele>275</ele>
        <time>2017-04-20T14:00:31Z</time>
      </trkpt>
      <trkpt lat="44.02422" lon="2.13836">
        <ele>274.8</ele>
        <time>2017-04-20T14:00:33Z</time>
      </trkpt>
      <trkpt lat="44.02433" lon="2.13846">
        <ele>274.7</ele>
        <time>2017-04-20T14:00:35Z</time>
      </trkpt>
      <trkpt lat="44.02444" lon="2.13855">
        <ele>274.6</ele>
        <time>2017-04-20T14:00:37Z</time>
      </trkpt>
      <trkpt lat="44.02454" lon="2.13866">
        <ele>274.3</ele>
        <time>2017-04-20T14:00:39Z</time>
      </trkpt>
      <trkpt lat="44.02463" lon="2.13878">
        <ele>274</ele>
        <time>2017-04-20T14:00:41Z</time>
      </trkpt>
      <trkpt lat="44.02471" lon="2.13893">
        <ele>273.7</ele>
        <time>2017-04-20T14:00:43Z</time>
      </trkpt>
      <trkpt lat="44.02479" lon="2.13907">
        <ele>273.8</ele>
        <time>2017-04-20T14:00:45Z</time>
      </trkpt>
      <trkpt lat="44.02486" lon="2.13922">
        <ele>273.6</ele>
        <time>2017-04-20T14:00:47Z</time>
      </trkpt>
      <trkpt lat="44.02492" lon="2.13937">
        <ele>273.4</ele>
        <time>2017-04-20T14:00:49Z</time>
      </trkpt>
      <trkpt lat="44.02499" lon="2.13952">
        <ele>273.1</ele>
        <time>2017-04-20T14:00:51Z</time>
      </trkpt>
      <trkpt lat="44.02505" lon="2.13968">
        <ele>272.8</ele>
        <time>2017-04-20T14:00:53Z</time>
      </trkpt>
      <trkpt lat="44.02511" lon="2.13983">
        <ele>272.4</ele>
        <time>2017-04-20T14:00:55Z</time>
      </trkpt>
      <trkpt lat="44.02517" lon="2.13999">
        <ele>272</ele>
        <time>2017-04-20T14:00:57Z</time>
      </trkpt>
      <trkpt lat="44.02523" lon="2.14014">
        <ele>271.8</ele>
        <time>2017-04-20T14:00:59Z</time>
      </trkpt>
      <trkpt lat="44.0253" lon="2.1403">
        <ele>271.5</ele>
        <time>2017-04-20T14:01:01Z</time>
      </trkpt>
      <trkpt lat="44.02536" lon="2.14044">
        <ele>271.3</ele>
        <time>2017-04-20T14:01:03Z</time>
      </trkpt>
      <trkpt lat="44.02542" lon="2.1406">
        <ele>271.2</ele>
        <time>2017-04-20T14:01:05Z</time>
      </trkpt>
      <trkpt lat="44.02548" lon="2.14075">
        <ele>270.9</ele>
        <time>2017-04-20T14:01:07Z</time>
      </trkpt>
      <trkpt lat="44.02554" lon="2.14091">
        <ele>270.6</ele>
        <time>2017-04-20T14:01:09Z</time>
      </trkpt>
      <trkpt lat="44.0256" lon="2.14106">
        <ele>270.8</ele>
        <time>2017-04-20T14:01:11Z</time>
      </trkpt>
      <trkpt lat="44.02566" lon="2.14121">
        <ele>270.6</ele>
        <time>2017-04-20T14:01:13Z</time>
      </trkpt>
      <trkpt lat="44.02571" lon="2.14136">
        <ele>271.1</ele>
        <time>2017-04-20T14:01:15Z</time>
      </trkpt>
      <trkpt lat="44.02577" lon="2.14149">
        <ele>271.4</ele>
        <time>2017-04-20T14:01:17Z</time>
      </trkpt>
      <trkpt lat="44.02583" lon="2.14164">
        <ele>272.2</ele>
        <time>2017-04-20T14:01:19Z</time>
      </trkpt>
      <trkpt lat="44.0259" lon="2.14176">
        <ele>273</ele>
        <time>2017-04-20T14:01:21Z</time>
      </trkpt>
      <trkpt lat="44.02598" lon="2.14189">
        <ele>274.7</ele>
        <time>2017-04-20T14:01:23Z</time>
      </trkpt>
      <trkpt lat="44.02606" lon="2.14201">
        <ele>275.9</ele>
        <time>2017-04-20T14:01:25Z</time>
      </trkpt>
      <trkpt lat="44.02615" lon="2.14211">
        <ele>277</ele>
        <time>2017-04-20T14:01:27Z</time>
      </trkpt>
      <trkpt lat="44.02625" lon="2.14221">
        <ele>278</ele>
        <time>2017-04-20T14:01:29Z</time>
      </trkpt>
      <trkpt lat="44.02634" lon="2.1423">
        <ele>278.9</ele>
        <time>2017-04-20T14:01:31Z</time>
      </trkpt>
      <trkpt lat="44.02645" lon="2.14237">
        <ele>279.9</ele>
        <time>2017-04-20T14:01:33Z</time>
      </trkpt>
      <trkpt lat="44.02656" lon="2.14244">
        <ele>280.8</ele>
        <time>2017-04-20T14:01:35Z</time>
      </trkpt>
      <trkpt lat="44.02667" lon="2.14249">
        <ele>281.7</ele>
        <time>2017-04-20T14:01:37Z</time>
      </trkpt>
      <trkpt lat="44.02679" lon="2.14253">
        <ele>282.4</ele>
        <time>2017-04-20T14:01:39Z</time>
      </trkpt>
      <trkpt lat="44.02691" lon="2.14255">
        <ele>283.2</ele>
        <time>2017-04-20T14:01:41Z</time>
      </trkpt>
      <trkpt lat="44.02703" lon="2.14255">
        <ele>284.1</ele>
        <time>2017-04-20T14:01:43Z</time>
      </trkpt>
      <trkpt lat="44.02715" lon="2.14253">
        <ele>284.9</ele>
        <time>2017-04-20T14:01:45Z</time>
      </trkpt>
      <trkpt lat="44.02727" lon="2.14252">
        <ele>285.4</ele>
        <time>2017-04-20T14:01:47Z</time>
      </trkpt>
      <trkpt lat="44.02739" lon="2.14251">
        <ele>286.4</ele>
        <time>2017-04-20T14:01:49Z</time>
      </trkpt>
      <trkpt lat="44.02751" lon="2.1425">
        <ele>287.2</ele>
        <time>2017-04-20T14:01:51Z</time>
      </trkpt>
      <trkpt lat="44.02763" lon="2.14248">
        <ele>288.1</ele>
        <time>2017-04-20T14:01:53Z</time>
      </trkpt>
      <trkpt lat="44.02775" lon="2.14247">
        <ele>288.3</ele>
        <time>2017-04-20T14:01:55Z</time>
      </trkpt>
      <trkpt lat="44.02787" lon="2.14246">
        <ele>288.7</ele>
        <time>2017-04-20T14:01:57Z</time>
      </trkpt>
      <trkpt lat="44.02799" lon="2.14246">
        <ele>289.4</ele>
        <time>2017-04-20T14:01:59Z</time>
      </trkpt>
      <trkpt lat="44.02812" lon="2.14246">
        <ele>289.4</ele>
        <time>2017-04-20T14:02:01Z</time>
      </trkpt>
      <trkpt lat="44.02825" lon="2.14245">
        <ele>289.2</ele>
        <time>2017-04-20T14:02:03Z</time>
      </trkpt>
      <trkpt lat="44.02837" lon="2.14244">
        <ele>288.8</ele>
        <time>2017-04-20T14:02:05Z</time>
      </trkpt>
      <trkpt lat="44.02849" lon="2.14243">
        <ele>287.9</ele>
        <time>2017-04-20T14:02:07Z</time>
      </trkpt>
      <trkpt lat="44.02862" lon="2.14241">
        <ele>287</ele>
        <time>2017-04-20T14:02:09Z</time>
      </trkpt>
      <trkpt lat="44.02876" lon="2.14241">
        <ele>285.9</ele>
        <time>2017-04-20T14:02:11Z</time>
      </trkpt>
      <trkpt lat="44.02891" lon="2.1424">
        <ele>284.7</ele>
        <time>2017-04-20T14:02:13Z</time>
      </trkpt>
      <trkpt lat="44.02898" lon="2.1424">
        <ele>284.1</ele>
        <time>2017-04-20T14:02:14Z</time>
      </trkpt>
      <trkpt lat="44.02906" lon="2.14241">
        <ele>283.6</ele>
        <time>2017-04-20T14:02:15Z</time>
      </trkpt>
      <trkpt lat="44.02914" lon="2.14243">
        <ele>283</ele>
        <time>2017-04-20T14:02:16Z</time>
      </trkpt>
      <trkpt lat="44.02922" lon="2.14244">
        <ele>282.4</ele>
        <time>2017-04-20T14:02:17Z</time>
      </trkpt>
      <trkpt lat="44.02931" lon="2.14246">
        <ele>282</ele>
        <time>2017-04-20T14:02:18Z</time>
      </trkpt>
      <trkpt lat="44.0294" lon="2.14248">
        <ele>281.5</ele>
        <time>2017-04-20T14:02:19Z</time>
      </trkpt>
      <trkpt lat="44.02948" lon="2.14249">
        <ele>281.1</ele>
        <time>2017-04-20T14:02:20Z</time>
      </trkpt>
      <trkpt lat="44.02956" lon="2.14252">
        <ele>280.7</ele>
        <time>2017-04-20T14:02:21Z</time>
      </trkpt>
      <trkpt lat="44.02963" lon="2.14254">
        <ele>280.5</ele>
        <time>2017-04-20T14:02:22Z</time>
      </trkpt>
      <trkpt lat="44.02976" lon="2.14257">
        <ele>279.7</ele>
        <time>2017-04-20T14:02:24Z</time>
      </trkpt>
      <trkpt lat="44.02986" lon="2.14261">
        <ele>279.1</ele>
        <time>2017-04-20T14:02:26Z</time>
      </trkpt>
      <trkpt lat="44.02993" lon="2.14267">
        <ele>278.8</ele>
        <time>2017-04-20T14:02:28Z</time>
      </trkpt>
      <trkpt lat="44.03" lon="2.14275">
        <ele>278.8</ele>
        <time>2017-04-20T14:02:30Z</time>
      </trkpt>
      <trkpt lat="44.0301" lon="2.14284">
        <ele>278.2</ele>
        <time>2017-04-20T14:02:32Z</time>
      </trkpt>
      <trkpt lat="44.0302" lon="2.14294">
        <ele>278</ele>
        <time>2017-04-20T14:02:34Z</time>
      </trkpt>
      <trkpt lat="44.0303" lon="2.14303">
        <ele>278.2</ele>
        <time>2017-04-20T14:02:36Z</time>
      </trkpt>
      <trkpt lat="44.03038" lon="2.14316">
        <ele>278</ele>
        <time>2017-04-20T14:02:38Z</time>
      </trkpt>
      <trkpt lat="44.03046" lon="2.14327">
        <ele>277.5</ele>
        <time>2017-04-20T14:02:40Z</time>
      </trkpt>
      <trkpt lat="44.03054" lon="2.14338">
        <ele>277.7</ele>
        <time>2017-04-20T14:02:42Z</time>
      </trkpt>
      <trkpt lat="44.03061" lon="2.1435">
        <ele>277.8</ele>
        <time>2017-04-20T14:02:44Z</time>
      </trkpt>
      <trkpt lat="44.03068" lon="2.14362">
        <ele>277.1</ele>
        <time>2017-04-20T14:02:46Z</time>
      </trkpt>
      <trkpt lat="44.03074" lon="2.14375">
        <ele>276.9</ele>
        <time>2017-04-20T14:02:48Z</time>
      </trkpt>
      <trkpt lat="44.03081" lon="2.14387">
        <ele>277.7</ele>
        <time>2017-04-20T14:02:50Z</time>
      </trkpt>
      <trkpt lat="44.03088" lon="2.144">
        <ele>277.8</ele>
        <time>2017-04-20T14:02:52Z</time>
      </trkpt>
      <trkpt lat="44.03094" lon="2.14415">
        <ele>278</ele>
        <time>2017-04-20T14:02:54Z</time>
      </trkpt>
      <trkpt lat="44.03099" lon="2.14428">
        <ele>277.9</ele>
        <time>2017-04-20T14:02:56Z</time>
      </trkpt>
      <trkpt lat="44.03105" lon="2.14442">
        <ele>277.9</ele>
        <time>2017-04-20T14:02:58Z</time>
      </trkpt>
      <trkpt lat="44.03111" lon="2.14454">
        <ele>277.9</ele>
        <time>2017-04-20T14:03:00Z</time>
      </trkpt>
      <trkpt lat="44.03116" lon="2.14468">
        <ele>278</ele>
        <time>2017-04-20T14:03:02Z</time>
      </trkpt>
      <trkpt lat="44.03123" lon="2.14478">
        <ele>278.5</ele>
        <time>2017-04-20T14:03:04Z</time>
      </trkpt>
      <trkpt lat="44.03132" lon="2.14485">
        <ele>278.2</ele>
        <time>2017-04-20T14:03:06Z</time>
      </trkpt>
      <trkpt lat="44.03141" lon="2.14487">
        <ele>277.9</ele>
        <time>2017-04-20T14:03:08Z</time>
      </trkpt>
      <trkpt lat="44.03152" lon="2.14487">
        <ele>277.4</ele>
        <time>2017-04-20T14:03:10Z</time>
      </trkpt>
      <trkpt lat="44.03162" lon="2.14487">
        <ele>277.2</ele>
        <time>2017-04-20T14:03:12Z</time>
      </trkpt>
      <trkpt lat="44.03171" lon="2.14486">
        <ele>277.1</ele>
        <time>2017-04-20T14:03:14Z</time>
      </trkpt>
      <trkpt lat="44.03181" lon="2.14485">
        <ele>276.8</ele>
        <time>2017-04-20T14:03:16Z</time>
      </trkpt>
      <trkpt lat="44.0319" lon="2.14483">
        <ele>276.8</ele>
        <time>2017-04-20T14:03:18Z</time>
      </trkpt>
      <trkpt lat="44.03198" lon="2.14481">
        <ele>276.8</ele>
        <time>2017-04-20T14:03:20Z</time>
      </trkpt>
      <trkpt lat="44.03207" lon="2.14481">
        <ele>277.1</ele>
        <time>2017-04-20T14:03:22Z</time>
      </trkpt>
      <trkpt lat="44.03216" lon="2.14479">
        <ele>276.4</ele>
        <time>2017-04-20T14:03:24Z</time>
      </trkpt>
      <trkpt lat="44.03224" lon="2.14479">
        <ele>276.2</ele>
        <time>2017-04-20T14:03:26Z</time>
      </trkpt>
      <trkpt lat="44.03233" lon="2.14478">
        <ele>276.1</ele>
        <time>2017-04-20T14:03:28Z</time>
      </trkpt>
      <trkpt lat="44.03243" lon="2.14476">
        <ele>275.9</ele>
        <time>2017-04-20T14:03:30Z</time>
      </trkpt>
      <trkpt lat="44.03252" lon="2.14475">
        <ele>276.4</ele>
        <time>2017-04-20T14:03:32Z</time>
      </trkpt>
      <trkpt lat="44.03261" lon="2.14473">
        <ele>276.4</ele>
        <time>2017-04-20T14:03:34Z</time>
      </trkpt>
      <trkpt lat="44.0327" lon="2.14471">
        <ele>276.3</ele>
        <time>2017-04-20T14:03:36Z</time>
      </trkpt>
      <trkpt lat="44.0328" lon="2.1447">
        <ele>276.3</ele>
        <time>2017-04-20T14:03:38Z</time>
      </trkpt>
      <trkpt lat="44.03289" lon="2.14469">
        <ele>276.4</ele>
        <time>2017-04-20T14:03:40Z</time>
      </trkpt>
      <trkpt lat="44.033" lon="2.14467">
        <ele>276.2</ele>
        <time>2017-04-20T14:03:42Z</time>
      </trkpt>
      <trkpt lat="44.0331" lon="2.14465">
        <ele>276.7</ele>
        <time>2017-04-20T14:03:44Z</time>
      </trkpt>
      <trkpt lat="44.03319" lon="2.14464">
        <ele>276.4</ele>
        <time>2017-04-20T14:03:46Z</time>
      </trkpt>
      <trkpt lat="44.03327" lon="2.14463">
        <ele>276.2</ele>
        <time>2017-04-20T14:03:48Z</time>
      </trkpt>
      <trkpt lat="44.03335" lon="2.14461">
        <ele>275.9</ele>
        <time>2017-04-20T14:03:50Z</time>
      </trkpt>
      <trkpt lat="44.03345" lon="2.14458">
        <ele>275.9</ele>
        <time>2017-04-20T14:03:53Z</time>
      </trkpt>
      <trkpt lat="44.03353" lon="2.14452">
        <ele>275.6</ele>
        <time>2017-04-20T14:03:56Z</time>
      </trkpt>
      <trkpt lat="44.03362" lon="2.14444">
        <ele>274.9</ele>
        <time>2017-04-20T14:03:59Z</time>
      </trkpt>
      <trkpt lat="44.03368" lon="2.14437">
        <ele>274.6</ele>
        <time>2017-04-20T14:04:01Z</time>
      </trkpt>
      <trkpt lat="44.03374" lon="2.14429">
        <ele>274.1</ele>
        <time>2017-04-20T14:04:03Z</time>
      </trkpt>
      <trkpt lat="44.03379" lon="2.14419">
        <ele>273.6</ele>
        <time>2017-04-20T14:04:05Z</time>
      </trkpt>
      <trkpt lat="44.03385" lon="2.1441">
        <ele>273.2</ele>
        <time>2017-04-20T14:04:07Z</time>
      </trkpt>
      <trkpt lat="44.03391" lon="2.14401">
        <ele>273.1</ele>
        <time>2017-04-20T14:04:09Z</time>
      </trkpt>
      <trkpt lat="44.03398" lon="2.14392">
        <ele>272.8</ele>
        <time>2017-04-20T14:04:11Z</time>
      </trkpt>
      <trkpt lat="44.03404" lon="2.14382">
        <ele>272.6</ele>
        <time>2017-04-20T14:04:13Z</time>
      </trkpt>
      <trkpt lat="44.03409" lon="2.14372">
        <ele>272.2</ele>
        <time>2017-04-20T14:04:15Z</time>
      </trkpt>
      <trkpt lat="44.03414" lon="2.14361">
        <ele>272.1</ele>
        <time>2017-04-20T14:04:17Z</time>
      </trkpt>
      <trkpt lat="44.03419" lon="2.14349">
        <ele>272.3</ele>
        <time>2017-04-20T14:04:19Z</time>
      </trkpt>
      <trkpt lat="44.03422" lon="2.14337">
        <ele>272.5</ele>
        <time>2017-04-20T14:04:21Z</time>
      </trkpt>
      <trkpt lat="44.03425" lon="2.14325">
        <ele>272.8</ele>
        <time>2017-04-20T14:04:23Z</time>
      </trkpt>
      <trkpt lat="44.03428" lon="2.14313">
        <ele>272.7</ele>
        <time>2017-04-20T14:04:25Z</time>
      </trkpt>
      <trkpt lat="44.0343" lon="2.143">
        <ele>272.9</ele>
        <time>2017-04-20T14:04:27Z</time>
      </trkpt>
      <trkpt lat="44.03432" lon="2.14289">
        <ele>272.8</ele>
        <time>2017-04-20T14:04:29Z</time>
      </trkpt>
      <trkpt lat="44.03434" lon="2.14276">
        <ele>272.6</ele>
        <time>2017-04-20T14:04:31Z</time>
      </trkpt>
      <trkpt lat="44.03436" lon="2.14264">
        <ele>272.2</ele>
        <time>2017-04-20T14:04:33Z</time>
      </trkpt>
      <trkpt lat="44.03438" lon="2.14252">
        <ele>271.8</ele>
        <time>2017-04-20T14:04:35Z</time>
      </trkpt>
      <trkpt lat="44.03441" lon="2.14238">
        <ele>271.3</ele>
        <time>2017-04-20T14:04:37Z</time>
      </trkpt>
      <trkpt lat="44.03443" lon="2.14224">
        <ele>270.7</ele>
        <time>2017-04-20T14:04:39Z</time>
      </trkpt>
      <trkpt lat="44.03446" lon="2.14208">
        <ele>270.1</ele>
        <time>2017-04-20T14:04:41Z</time>
      </trkpt>
      <trkpt lat="44.0345" lon="2.1419">
        <ele>268.9</ele>
        <time>2017-04-20T14:04:43Z</time>
      </trkpt>
      <trkpt lat="44.03454" lon="2.14171">
        <ele>267.7</ele>
        <time>2017-04-20T14:04:45Z</time>
      </trkpt>
      <trkpt lat="44.03458" lon="2.14152">
        <ele>266.7</ele>
        <time>2017-04-20T14:04:47Z</time>
      </trkpt>
      <trkpt lat="44.03461" lon="2.14133">
        <ele>266.1</ele>
        <time>2017-04-20T14:04:49Z</time>
      </trkpt>
      <trkpt lat="44.03467" lon="2.14114">
        <ele>265</ele>
        <time>2017-04-20T14:04:51Z</time>
      </trkpt>
      <trkpt lat="44.03469" lon="2.14104">
        <ele>264.6</ele>
        <time>2017-04-20T14:04:52Z</time>
      </trkpt>
      <trkpt lat="44.03474" lon="2.14085">
        <ele>263.8</ele>
        <time>2017-04-20T14:04:54Z</time>
      </trkpt>
      <trkpt lat="44.03478" lon="2.14076">
        <ele>263.6</ele>
        <time>2017-04-20T14:04:55Z</time>
      </trkpt>
      <trkpt lat="44.03482" lon="2.14067">
        <ele>263.2</ele>
        <time>2017-04-20T14:04:56Z</time>
      </trkpt>
      <trkpt lat="44.03487" lon="2.14058">
        <ele>262.8</ele>
        <time>2017-04-20T14:04:57Z</time>
      </trkpt>
      <trkpt lat="44.03492" lon="2.1405">
        <ele>262.9</ele>
        <time>2017-04-20T14:04:58Z</time>
      </trkpt>
      <trkpt lat="44.03497" lon="2.14042">
        <ele>262.7</ele>
        <time>2017-04-20T14:04:59Z</time>
      </trkpt>
      <trkpt lat="44.03504" lon="2.14035">
        <ele>262.5</ele>
        <time>2017-04-20T14:05:00Z</time>
      </trkpt>
      <trkpt lat="44.03513" lon="2.14022">
        <ele>262</ele>
        <time>2017-04-20T14:05:02Z</time>
      </trkpt>
      <trkpt lat="44.03517" lon="2.14007">
        <ele>261.8</ele>
        <time>2017-04-20T14:05:04Z</time>
      </trkpt>
      <trkpt lat="44.03516" lon="2.13992">
        <ele>261.6</ele>
        <time>2017-04-20T14:05:06Z</time>
      </trkpt>
      <trkpt lat="44.03508" lon="2.13983">
        <ele>261.3</ele>
        <time>2017-04-20T14:05:08Z</time>
      </trkpt>
      <trkpt lat="44.035" lon="2.13979">
        <ele>260.6</ele>
        <time>2017-04-20T14:05:10Z</time>
      </trkpt>
      <trkpt lat="44.03493" lon="2.13973">
        <ele>260</ele>
        <time>2017-04-20T14:05:12Z</time>
      </trkpt>
      <trkpt lat="44.03486" lon="2.13966">
        <ele>261.2</ele>
        <time>2017-04-20T14:05:14Z</time>
      </trkpt>
      <trkpt lat="44.03478" lon="2.13959">
        <ele>261.1</ele>
        <time>2017-04-20T14:05:16Z</time>
      </trkpt>
      <trkpt lat="44.03469" lon="2.13951">
        <ele>260.6</ele>
        <time>2017-04-20T14:05:18Z</time>
      </trkpt>
      <trkpt lat="44.03461" lon="2.13943">
        <ele>260.7</ele>
        <time>2017-04-20T14:05:20Z</time>
      </trkpt>
      <trkpt lat="44.03452" lon="2.13936">
        <ele>260.7</ele>
        <time>2017-04-20T14:05:22Z</time>
      </trkpt>
      <trkpt lat="44.03442" lon="2.13929">
        <ele>260.9</ele>
        <time>2017-04-20T14:05:24Z</time>
      </trkpt>
      <trkpt lat="44.03433" lon="2.13922">
        <ele>261.3</ele>
        <time>2017-04-20T14:05:26Z</time>
      </trkpt>
      <trkpt lat="44.03422" lon="2.13916">
        <ele>261.3</ele>
        <time>2017-04-20T14:05:28Z</time>
      </trkpt>
      <trkpt lat="44.03411" lon="2.13911">
        <ele>261.1</ele>
        <time>2017-04-20T14:05:30Z</time>
      </trkpt>
      <trkpt lat="44.03399" lon="2.13908">
        <ele>261.5</ele>
        <time>2017-04-20T14:05:32Z</time>
      </trkpt>
      <trkpt lat="44.03388" lon="2.13904">
        <ele>261.1</ele>
        <time>2017-04-20T14:05:34Z</time>
      </trkpt>
      <trkpt lat="44.03376" lon="2.13902">
        <ele>260.8</ele>
        <time>2017-04-20T14:05:36Z</time>
      </trkpt>
      <trkpt lat="44.03363" lon="2.13903">
        <ele>260.7</ele>
        <time>2017-04-20T14:05:38Z</time>
      </trkpt>
      <trkpt lat="44.03351" lon="2.13902">
        <ele>260.4</ele>
        <time>2017-04-20T14:05:40Z</time>
      </trkpt>
      <trkpt lat="44.03339" lon="2.13901">
        <ele>260.6</ele>
        <time>2017-04-20T14:05:42Z</time>
      </trkpt>
      <trkpt lat="44.03327" lon="2.13902">
        <ele>260.3</ele>
        <time>2017-04-20T14:05:44Z</time>
      </trkpt>
      <trkpt lat="44.03315" lon="2.13903">
        <ele>260</ele>
        <time>2017-04-20T14:05:46Z</time>
      </trkpt>
      <trkpt lat="44.03304" lon="2.13902">
        <ele>259.7</ele>
        <time>2017-04-20T14:05:48Z</time>
      </trkpt>
      <trkpt lat="44.03297" lon="2.1389">
        <ele>259.9</ele>
        <time>2017-04-20T14:05:50Z</time>
      </trkpt>
      <trkpt lat="44.03298" lon="2.13875">
        <ele>260.3</ele>
        <time>2017-04-20T14:05:52Z</time>
      </trkpt>
      <trkpt lat="44.03305" lon="2.13863">
        <ele>260.6</ele>
        <time>2017-04-20T14:05:54Z</time>
      </trkpt>
      <trkpt lat="44.03315" lon="2.13857">
        <ele>260.8</ele>
        <time>2017-04-20T14:05:56Z</time>
      </trkpt>
      <trkpt lat="44.03325" lon="2.13852">
        <ele>261</ele>
        <time>2017-04-20T14:05:59Z</time>
      </trkpt>
      <trkpt lat="44.03336" lon="2.13847">
        <ele>261.1</ele>
        <time>2017-04-20T14:06:00Z</time>
      </trkpt>
      <trkpt lat="44.03347" lon="2.13844">
        <ele>260.9</ele>
        <time>2017-04-20T14:06:02Z</time>
      </trkpt>
      <trkpt lat="44.03359" lon="2.13842">
        <ele>261.1</ele>
        <time>2017-04-20T14:06:04Z</time>
      </trkpt>
      <trkpt lat="44.03371" lon="2.13841">
        <ele>261.6</ele>
        <time>2017-04-20T14:06:06Z</time>
      </trkpt>
      <trkpt lat="44.03382" lon="2.1384">
        <ele>263.1</ele>
        <time>2017-04-20T14:06:08Z</time>
      </trkpt>
      <trkpt lat="44.03393" lon="2.13841">
        <ele>263.9</ele>
        <time>2017-04-20T14:06:10Z</time>
      </trkpt>
      <trkpt lat="44.03402" lon="2.13843">
        <ele>264.3</ele>
        <time>2017-04-20T14:06:12Z</time>
      </trkpt>
      <trkpt lat="44.03411" lon="2.13846">
        <ele>264.9</ele>
        <time>2017-04-20T14:06:15Z</time>
      </trkpt>
      <trkpt lat="44.03421" lon="2.13848">
        <ele>264.5</ele>
        <time>2017-04-20T14:06:18Z</time>
      </trkpt>
      <trkpt lat="44.0343" lon="2.13851">
        <ele>264.8</ele>
        <time>2017-04-20T14:06:20Z</time>
      </trkpt>
      <trkpt lat="44.03441" lon="2.13854">
        <ele>265.1</ele>
        <time>2017-04-20T14:06:22Z</time>
      </trkpt>
      <trkpt lat="44.03454" lon="2.1386">
        <ele>265.3</ele>
        <time>2017-04-20T14:06:24Z</time>
      </trkpt>
      <trkpt lat="44.03465" lon="2.13866">
        <ele>265.4</ele>
        <time>2017-04-20T14:06:26Z</time>
      </trkpt>
      <trkpt lat="44.03477" lon="2.13873">
        <ele>265</ele>
        <time>2017-04-20T14:06:28Z</time>
      </trkpt>
      <trkpt lat="44.03489" lon="2.13881">
        <ele>264.2</ele>
        <time>2017-04-20T14:06:30Z</time>
      </trkpt>
      <trkpt lat="44.03501" lon="2.13888">
        <ele>264.2</ele>
        <time>2017-04-20T14:06:32Z</time>
      </trkpt>
      <trkpt lat="44.03512" lon="2.13895">
        <ele>263.8</ele>
        <time>2017-04-20T14:06:34Z</time>
      </trkpt>
      <trkpt lat="44.03523" lon="2.13902">
        <ele>263.2</ele>
        <time>2017-04-20T14:06:36Z</time>
      </trkpt>
      <trkpt lat="44.03534" lon="2.13909">
        <ele>262.9</ele>
        <time>2017-04-20T14:06:38Z</time>
      </trkpt>
      <trkpt lat="44.03545" lon="2.13917">
        <ele>262.6</ele>
        <time>2017-04-20T14:06:40Z</time>
      </trkpt>
      <trkpt lat="44.03557" lon="2.13923">
        <ele>262.4</ele>
        <time>2017-04-20T14:06:42Z</time>
      </trkpt>
      <trkpt lat="44.0357" lon="2.13929">
        <ele>262.3</ele>
        <time>2017-04-20T14:06:44Z</time>
      </trkpt>
      <trkpt lat="44.03582" lon="2.13936">
        <ele>263.1</ele>
        <time>2017-04-20T14:06:46Z</time>
      </trkpt>
      <trkpt lat="44.03596" lon="2.13941">
        <ele>262.6</ele>
        <time>2017-04-20T14:06:48Z</time>
      </trkpt>
      <trkpt lat="44.03603" lon="2.13944">
        <ele>262.5</ele>
        <time>2017-04-20T14:06:49Z</time>
      </trkpt>
      <trkpt lat="44.03617" lon="2.13949">
        <ele>262.9</ele>
        <time>2017-04-20T14:06:51Z</time>
      </trkpt>
      <trkpt lat="44.03624" lon="2.13951">
        <ele>263</ele>
        <time>2017-04-20T14:06:52Z</time>
      </trkpt>
      <trkpt lat="44.03631" lon="2.13954">
        <ele>262.6</ele>
        <time>2017-04-20T14:06:53Z</time>
      </trkpt>
      <trkpt lat="44.03646" lon="2.13958">
        <ele>262.2</ele>
        <time>2017-04-20T14:06:55Z</time>
      </trkpt>
      <trkpt lat="44.03653" lon="2.1396">
        <ele>261.9</ele>
        <time>2017-04-20T14:06:56Z</time>
      </trkpt>
      <trkpt lat="44.03661" lon="2.13963">
        <ele>261.6</ele>
        <time>2017-04-20T14:06:57Z</time>
      </trkpt>
      <trkpt lat="44.03669" lon="2.13966">
        <ele>261.3</ele>
        <time>2017-04-20T14:06:58Z</time>
      </trkpt>
      <trkpt lat="44.03676" lon="2.13968">
        <ele>261</ele>
        <time>2017-04-20T14:06:59Z</time>
      </trkpt>
      <trkpt lat="44.03684" lon="2.13972">
        <ele>260.4</ele>
        <time>2017-04-20T14:07:00Z</time>
      </trkpt>
      <trkpt lat="44.03692" lon="2.13976">
        <ele>260.1</ele>
        <time>2017-04-20T14:07:01Z</time>
      </trkpt>
      <trkpt lat="44.03699" lon="2.13979">
        <ele>259.6</ele>
        <time>2017-04-20T14:07:02Z</time>
      </trkpt>
      <trkpt lat="44.03707" lon="2.13984">
        <ele>259.5</ele>
        <time>2017-04-20T14:07:03Z</time>
      </trkpt>
      <trkpt lat="44.03714" lon="2.1399">
        <ele>259.2</ele>
        <time>2017-04-20T14:07:04Z</time>
      </trkpt>
      <trkpt lat="44.0372" lon="2.13998">
        <ele>258.5</ele>
        <time>2017-04-20T14:07:05Z</time>
      </trkpt>
      <trkpt lat="44.03725" lon="2.14007">
        <ele>258.4</ele>
        <time>2017-04-20T14:07:06Z</time>
      </trkpt>
      <trkpt lat="44.03729" lon="2.14017">
        <ele>258.3</ele>
        <time>2017-04-20T14:07:07Z</time>
      </trkpt>
      <trkpt lat="44.03732" lon="2.14027">
        <ele>258.6</ele>
        <time>2017-04-20T14:07:08Z</time>
      </trkpt>
      <trkpt lat="44.03741" lon="2.1404">
        <ele>258</ele>
        <time>2017-04-20T14:07:10Z</time>
      </trkpt>
      <trkpt lat="44.03747" lon="2.14046">
        <ele>258.3</ele>
        <time>2017-04-20T14:07:11Z</time>
      </trkpt>
      <trkpt lat="44.03759" lon="2.14057">
        <ele>258</ele>
        <time>2017-04-20T14:07:13Z</time>
      </trkpt>
      <trkpt lat="44.03769" lon="2.14068">
        <ele>257.7</ele>
        <time>2017-04-20T14:07:15Z</time>
      </trkpt>
      <trkpt lat="44.03779" lon="2.14078">
        <ele>257.4</ele>
        <time>2017-04-20T14:07:17Z</time>
      </trkpt>
      <trkpt lat="44.0379" lon="2.14089">
        <ele>257.4</ele>
        <time>2017-04-20T14:07:19Z</time>
      </trkpt>
      <trkpt lat="44.038" lon="2.14098">
        <ele>258</ele>
        <time>2017-04-20T14:07:21Z</time>
      </trkpt>
      <trkpt lat="44.03812" lon="2.14108">
        <ele>258.3</ele>
        <time>2017-04-20T14:07:23Z</time>
      </trkpt>
      <trkpt lat="44.03824" lon="2.14117">
        <ele>257.3</ele>
        <time>2017-04-20T14:07:25Z</time>
      </trkpt>
      <trkpt lat="44.03835" lon="2.14126">
        <ele>257.5</ele>
        <time>2017-04-20T14:07:27Z</time>
      </trkpt>
      <trkpt lat="44.03847" lon="2.14135">
        <ele>257.4</ele>
        <time>2017-04-20T14:07:29Z</time>
      </trkpt>
      <trkpt lat="44.03859" lon="2.14145">
        <ele>258.1</ele>
        <time>2017-04-20T14:07:31Z</time>
      </trkpt>
      <trkpt lat="44.03866" lon="2.14148">
        <ele>258.6</ele>
        <time>2017-04-20T14:07:32Z</time>
      </trkpt>
      <trkpt lat="44.03878" lon="2.14157">
        <ele>258.8</ele>
        <time>2017-04-20T14:07:34Z</time>
      </trkpt>
      <trkpt lat="44.0389" lon="2.14165">
        <ele>258.1</ele>
        <time>2017-04-20T14:07:36Z</time>
      </trkpt>
      <trkpt lat="44.03899" lon="2.1417">
        <ele>257.4</ele>
        <time>2017-04-20T14:07:38Z</time>
      </trkpt>
      <trkpt lat="44.03893" lon="2.14172">
        <ele>255.2</ele>
        <time>2017-04-20T14:07:45Z</time>
      </trkpt>
      <trkpt lat="44.03882" lon="2.14167">
        <ele>254.6</ele>
        <time>2017-04-20T14:07:47Z</time>
      </trkpt>
      <trkpt lat="44.03869" lon="2.14162">
        <ele>254.2</ele>
        <time>2017-04-20T14:07:49Z</time>
      </trkpt>
      <trkpt lat="44.03857" lon="2.14156">
        <ele>252.7</ele>
        <time>2017-04-20T14:07:51Z</time>
      </trkpt>
      <trkpt lat="44.03845" lon="2.14148">
        <ele>251.3</ele>
        <time>2017-04-20T14:07:53Z</time>
      </trkpt>
      <trkpt lat="44.03834" lon="2.1414">
        <ele>250.5</ele>
        <time>2017-04-20T14:07:55Z</time>
      </trkpt>
      <trkpt lat="44.03827" lon="2.14136">
        <ele>249.6</ele>
        <time>2017-04-20T14:07:57Z</time>
      </trkpt>
      <trkpt lat="44.03821" lon="2.14143">
        <ele>249</ele>
        <time>2017-04-20T14:08:02Z</time>
      </trkpt>
      <trkpt lat="44.03827" lon="2.14153">
        <ele>250.2</ele>
        <time>2017-04-20T14:08:05Z</time>
      </trkpt>
      <trkpt lat="44.03835" lon="2.14165">
        <ele>249.5</ele>
        <time>2017-04-20T14:08:07Z</time>
      </trkpt>
      <trkpt lat="44.03837" lon="2.14182">
        <ele>248</ele>
        <time>2017-04-20T14:08:09Z</time>
      </trkpt>
      <trkpt lat="44.03833" lon="2.14197">
        <ele>247.8</ele>
        <time>2017-04-20T14:08:11Z</time>
      </trkpt>
      <trkpt lat="44.03827" lon="2.1421">
        <ele>247.7</ele>
        <time>2017-04-20T14:08:13Z</time>
      </trkpt>
      <trkpt lat="44.0382" lon="2.1422">
        <ele>247.6</ele>
        <time>2017-04-20T14:08:15Z</time>
      </trkpt>
      <trkpt lat="44.0381" lon="2.14219">
        <ele>247.8</ele>
        <time>2017-04-20T14:08:17Z</time>
      </trkpt>
      <trkpt lat="44.03801" lon="2.1421">
        <ele>248.3</ele>
        <time>2017-04-20T14:08:19Z</time>
      </trkpt>
      <trkpt lat="44.03793" lon="2.14196">
        <ele>248.6</ele>
        <time>2017-04-20T14:08:21Z</time>
      </trkpt>
      <trkpt lat="44.03787" lon="2.14183">
        <ele>249</ele>
        <time>2017-04-20T14:08:23Z</time>
      </trkpt>
      <trkpt lat="44.03781" lon="2.1417">
        <ele>249.1</ele>
        <time>2017-04-20T14:08:25Z</time>
      </trkpt>
      <trkpt lat="44.03773" lon="2.14156">
        <ele>249.1</ele>
        <time>2017-04-20T14:08:27Z</time>
      </trkpt>
      <trkpt lat="44.03767" lon="2.14144">
        <ele>249.3</ele>
        <time>2017-04-20T14:08:29Z</time>
      </trkpt>
      <trkpt lat="44.03759" lon="2.14132">
        <ele>250</ele>
        <time>2017-04-20T14:08:31Z</time>
      </trkpt>
      <trkpt lat="44.03749" lon="2.1412">
        <ele>250.7</ele>
        <time>2017-04-20T14:08:33Z</time>
      </trkpt>
      <trkpt lat="44.03739" lon="2.1411">
        <ele>251</ele>
        <time>2017-04-20T14:08:35Z</time>
      </trkpt>
      <trkpt lat="44.0373" lon="2.14102">
        <ele>251</ele>
        <time>2017-04-20T14:08:37Z</time>
      </trkpt>
      <trkpt lat="44.03719" lon="2.14095">
        <ele>251.2</ele>
        <time>2017-04-20T14:08:39Z</time>
      </trkpt>
      <trkpt lat="44.03708" lon="2.14089">
        <ele>251.5</ele>
        <time>2017-04-20T14:08:41Z</time>
      </trkpt>
      <trkpt lat="44.03697" lon="2.14083">
        <ele>252</ele>
        <time>2017-04-20T14:08:43Z</time>
      </trkpt>
      <trkpt lat="44.03686" lon="2.14077">
        <ele>252</ele>
        <time>2017-04-20T14:08:45Z</time>
      </trkpt>
      <trkpt lat="44.03674" lon="2.14071">
        <ele>251.4</ele>
        <time>2017-04-20T14:08:47Z</time>
      </trkpt>
      <trkpt lat="44.03663" lon="2.14065">
        <ele>251.3</ele>
        <time>2017-04-20T14:08:49Z</time>
      </trkpt>
      <trkpt lat="44.03652" lon="2.14058">
        <ele>251.3</ele>
        <time>2017-04-20T14:08:51Z</time>
      </trkpt>
      <trkpt lat="44.03639" lon="2.14054">
        <ele>251.6</ele>
        <time>2017-04-20T14:08:53Z</time>
      </trkpt>
      <trkpt lat="44.03629" lon="2.14055">
        <ele>251.6</ele>
        <time>2017-04-20T14:08:55Z</time>
      </trkpt>
      <trkpt lat="44.03618" lon="2.14066">
        <ele>254.7</ele>
        <time>2017-04-20T14:08:57Z</time>
      </trkpt>
      <trkpt lat="44.03614" lon="2.14081">
        <ele>256.5</ele>
        <time>2017-04-20T14:08:59Z</time>
      </trkpt>
      <trkpt lat="44.03615" lon="2.14097">
        <ele>258.1</ele>
        <time>2017-04-20T14:09:01Z</time>
      </trkpt>
      <trkpt lat="44.03622" lon="2.14111">
        <ele>259.1</ele>
        <time>2017-04-20T14:09:03Z</time>
      </trkpt>
      <trkpt lat="44.03632" lon="2.14122">
        <ele>260.1</ele>
        <time>2017-04-20T14:09:05Z</time>
      </trkpt>
      <trkpt lat="44.03641" lon="2.14133">
        <ele>260.2</ele>
        <time>2017-04-20T14:09:07Z</time>
      </trkpt>
      <trkpt lat="44.0365" lon="2.14146">
        <ele>260.7</ele>
        <time>2017-04-20T14:09:09Z</time>
      </trkpt>
      <trkpt lat="44.03659" lon="2.14157">
        <ele>261.6</ele>
        <time>2017-04-20T14:09:11Z</time>
      </trkpt>
      <trkpt lat="44.03669" lon="2.14168">
        <ele>262.5</ele>
        <time>2017-04-20T14:09:13Z</time>
      </trkpt>
      <trkpt lat="44.03678" lon="2.1418">
        <ele>263</ele>
        <time>2017-04-20T14:09:15Z</time>
      </trkpt>
      <trkpt lat="44.03687" lon="2.14192">
        <ele>263.7</ele>
        <time>2017-04-20T14:09:17Z</time>
      </trkpt>
      <trkpt lat="44.03695" lon="2.14205">
        <ele>264.2</ele>
        <time>2017-04-20T14:09:19Z</time>
      </trkpt>
      <trkpt lat="44.03703" lon="2.14216">
        <ele>264.4</ele>
        <time>2017-04-20T14:09:21Z</time>
      </trkpt>
      <trkpt lat="44.03712" lon="2.14227">
        <ele>264.4</ele>
        <time>2017-04-20T14:09:23Z</time>
      </trkpt>
      <trkpt lat="44.03721" lon="2.14237">
        <ele>265.5</ele>
        <time>2017-04-20T14:09:25Z</time>
      </trkpt>
      <trkpt lat="44.03731" lon="2.14248">
        <ele>266</ele>
        <time>2017-04-20T14:09:27Z</time>
      </trkpt>
      <trkpt lat="44.0374" lon="2.1426">
        <ele>266.3</ele>
        <time>2017-04-20T14:09:29Z</time>
      </trkpt>
      <trkpt lat="44.03749" lon="2.14271">
        <ele>266.6</ele>
        <time>2017-04-20T14:09:31Z</time>
      </trkpt>
      <trkpt lat="44.03759" lon="2.14282">
        <ele>267.4</ele>
        <time>2017-04-20T14:09:33Z</time>
      </trkpt>
      <trkpt lat="44.03769" lon="2.14293">
        <ele>268.1</ele>
        <time>2017-04-20T14:09:35Z</time>
      </trkpt>
      <trkpt lat="44.03779" lon="2.14305">
        <ele>268.3</ele>
        <time>2017-04-20T14:09:37Z</time>
      </trkpt>
      <trkpt lat="44.03788" lon="2.14318">
        <ele>269.2</ele>
        <time>2017-04-20T14:09:39Z</time>
      </trkpt>
      <trkpt lat="44.03797" lon="2.1433">
        <ele>270</ele>
        <time>2017-04-20T14:09:41Z</time>
      </trkpt>
      <trkpt lat="44.03807" lon="2.14342">
        <ele>270.7</ele>
        <time>2017-04-20T14:09:43Z</time>
      </trkpt>
      <trkpt lat="44.03816" lon="2.14354">
        <ele>271.1</ele>
        <time>2017-04-20T14:09:45Z</time>
      </trkpt>
      <trkpt lat="44.03826" lon="2.14367">
        <ele>271.7</ele>
        <time>2017-04-20T14:09:47Z</time>
      </trkpt>
      <trkpt lat="44.03835" lon="2.14379">
        <ele>272</ele>
        <time>2017-04-20T14:09:49Z</time>
      </trkpt>
      <trkpt lat="44.03844" lon="2.14391">
        <ele>271.9</ele>
        <time>2017-04-20T14:09:51Z</time>
      </trkpt>
      <trkpt lat="44.03853" lon="2.14403">
        <ele>272.2</ele>
        <time>2017-04-20T14:09:53Z</time>
      </trkpt>
      <trkpt lat="44.03863" lon="2.14415">
        <ele>271.6</ele>
        <time>2017-04-20T14:09:55Z</time>
      </trkpt>
      <trkpt lat="44.03873" lon="2.14426">
        <ele>271.1</ele>
        <time>2017-04-20T14:09:57Z</time>
      </trkpt>
      <trkpt lat="44.03882" lon="2.14437">
        <ele>270.5</ele>
        <time>2017-04-20T14:09:59Z</time>
      </trkpt>
      <trkpt lat="44.03891" lon="2.14445">
        <ele>269.6</ele>
        <time>2017-04-20T14:10:01Z</time>
      </trkpt>
      <trkpt lat="44.03901" lon="2.14453">
        <ele>268.5</ele>
        <time>2017-04-20T14:10:03Z</time>
      </trkpt>
      <trkpt lat="44.03908" lon="2.1446">
        <ele>267.6</ele>
        <time>2017-04-20T14:10:05Z</time>
      </trkpt>
      <trkpt lat="44.03915" lon="2.14464">
        <ele>266.1</ele>
        <time>2017-04-20T14:10:09Z</time>
      </trkpt>
      <trkpt lat="44.03908" lon="2.14457">
        <ele>263.2</ele>
        <time>2017-04-20T14:10:16Z</time>
      </trkpt>
      <trkpt lat="44.03901" lon="2.14452">
        <ele>261.8</ele>
        <time>2017-04-20T14:10:18Z</time>
      </trkpt>
      <trkpt lat="44.03893" lon="2.14443">
        <ele>261.6</ele>
        <time>2017-04-20T14:10:20Z</time>
      </trkpt>
      <trkpt lat="44.03892" lon="2.14429">
        <ele>261.5</ele>
        <time>2017-04-20T14:10:22Z</time>
      </trkpt>
      <trkpt lat="44.03893" lon="2.14416">
        <ele>260.4</ele>
        <time>2017-04-20T14:10:24Z</time>
      </trkpt>
      <trkpt lat="44.03895" lon="2.14406">
        <ele>260.7</ele>
        <time>2017-04-20T14:10:26Z</time>
      </trkpt>
      <trkpt lat="44.03897" lon="2.14396">
        <ele>260.9</ele>
        <time>2017-04-20T14:10:28Z</time>
      </trkpt>
      <trkpt lat="44.03899" lon="2.1438">
        <ele>259.7</ele>
        <time>2017-04-20T14:10:30Z</time>
      </trkpt>
      <trkpt lat="44.03902" lon="2.14365">
        <ele>258.5</ele>
        <time>2017-04-20T14:10:32Z</time>
      </trkpt>
      <trkpt lat="44.03908" lon="2.14354">
        <ele>258.6</ele>
        <time>2017-04-20T14:10:34Z</time>
      </trkpt>
      <trkpt lat="44.03918" lon="2.14351">
        <ele>258.9</ele>
        <time>2017-04-20T14:10:36Z</time>
      </trkpt>
      <trkpt lat="44.0393" lon="2.14349">
        <ele>259.3</ele>
        <time>2017-04-20T14:10:38Z</time>
      </trkpt>
      <trkpt lat="44.03941" lon="2.14352">
        <ele>259</ele>
        <time>2017-04-20T14:10:40Z</time>
      </trkpt>
      <trkpt lat="44.03952" lon="2.14355">
        <ele>259.6</ele>
        <time>2017-04-20T14:10:42Z</time>
      </trkpt>
      <trkpt lat="44.03961" lon="2.14363">
        <ele>260.5</ele>
        <time>2017-04-20T14:10:44Z</time>
      </trkpt>
      <trkpt lat="44.03966" lon="2.14375">
        <ele>262.9</ele>
        <time>2017-04-20T14:10:46Z</time>
      </trkpt>
      <trkpt lat="44.03966" lon="2.14388">
        <ele>264.5</ele>
        <time>2017-04-20T14:10:48Z</time>
      </trkpt>
      <trkpt lat="44.03965" lon="2.14399">
        <ele>265.6</ele>
        <time>2017-04-20T14:10:50Z</time>
      </trkpt>
      <trkpt lat="44.03965" lon="2.1441">
        <ele>267.1</ele>
        <time>2017-04-20T14:10:52Z</time>
      </trkpt>
      <trkpt lat="44.03968" lon="2.14419">
        <ele>268.6</ele>
        <time>2017-04-20T14:10:54Z</time>
      </trkpt>
      <trkpt lat="44.03973" lon="2.14428">
        <ele>268.5</ele>
        <time>2017-04-20T14:10:56Z</time>
      </trkpt>
      <trkpt lat="44.03979" lon="2.14439">
        <ele>268.3</ele>
        <time>2017-04-20T14:10:59Z</time>
      </trkpt>
      <trkpt lat="44.03985" lon="2.14447">
        <ele>267.9</ele>
        <time>2017-04-20T14:11:01Z</time>
      </trkpt>
      <trkpt lat="44.03989" lon="2.14457">
        <ele>267.9</ele>
        <time>2017-04-20T14:11:03Z</time>
      </trkpt>
      <trkpt lat="44.03991" lon="2.14468">
        <ele>268.3</ele>
        <time>2017-04-20T14:11:05Z</time>
      </trkpt>
      <trkpt lat="44.03988" lon="2.14478">
        <ele>268.3</ele>
        <time>2017-04-20T14:11:08Z</time>
      </trkpt>
      <trkpt lat="44.0398" lon="2.14478">
        <ele>265.9</ele>
        <time>2017-04-20T14:11:14Z</time>
      </trkpt>
      <trkpt lat="44.03972" lon="2.14478">
        <ele>262.8</ele>
        <time>2017-04-20T14:11:19Z</time>
      </trkpt>
      <trkpt lat="44.03965" lon="2.14476">
        <ele>262.4</ele>
        <time>2017-04-20T14:11:25Z</time>
      </trkpt>
      <trkpt lat="44.0397" lon="2.14483">
        <ele>261.7</ele>
        <time>2017-04-20T14:11:31Z</time>
      </trkpt>
      <trkpt lat="44.03979" lon="2.14484">
        <ele>261.1</ele>
        <time>2017-04-20T14:11:33Z</time>
      </trkpt>
      <trkpt lat="44.03988" lon="2.14486">
        <ele>260.5</ele>
        <time>2017-04-20T14:11:35Z</time>
      </trkpt>
      <trkpt lat="44.03998" lon="2.14488">
        <ele>259.8</ele>
        <time>2017-04-20T14:11:37Z</time>
      </trkpt>
      <trkpt lat="44.04009" lon="2.14489">
        <ele>259.4</ele>
        <time>2017-04-20T14:11:39Z</time>
      </trkpt>
      <trkpt lat="44.04022" lon="2.14492">
        <ele>260.6</ele>
        <time>2017-04-20T14:11:41Z</time>
      </trkpt>
      <trkpt lat="44.04035" lon="2.14496">
        <ele>262.3</ele>
        <time>2017-04-20T14:11:43Z</time>
      </trkpt>
      <trkpt lat="44.04048" lon="2.145">
        <ele>263.8</ele>
        <time>2017-04-20T14:11:45Z</time>
      </trkpt>
      <trkpt lat="44.0406" lon="2.14505">
        <ele>264.9</ele>
        <time>2017-04-20T14:11:47Z</time>
      </trkpt>
      <trkpt lat="44.04073" lon="2.14509">
        <ele>266.1</ele>
        <time>2017-04-20T14:11:49Z</time>
      </trkpt>
      <trkpt lat="44.04087" lon="2.14512">
        <ele>266.3</ele>
        <time>2017-04-20T14:11:51Z</time>
      </trkpt>
      <trkpt lat="44.04099" lon="2.14515">
        <ele>266.4</ele>
        <time>2017-04-20T14:11:53Z</time>
      </trkpt>
      <trkpt lat="44.0411" lon="2.14518">
        <ele>266</ele>
        <time>2017-04-20T14:11:55Z</time>
      </trkpt>
      <trkpt lat="44.04122" lon="2.14523">
        <ele>265</ele>
        <time>2017-04-20T14:11:57Z</time>
      </trkpt>
      <trkpt lat="44.04134" lon="2.14526">
        <ele>265.1</ele>
        <time>2017-04-20T14:11:59Z</time>
      </trkpt>
      <trkpt lat="44.04144" lon="2.1453">
        <ele>264.7</ele>
        <time>2017-04-20T14:12:01Z</time>
      </trkpt>
      <trkpt lat="44.04156" lon="2.14533">
        <ele>265</ele>
        <time>2017-04-20T14:12:03Z</time>
      </trkpt>
      <trkpt lat="44.04169" lon="2.14536">
        <ele>265.7</ele>
        <time>2017-04-20T14:12:05Z</time>
      </trkpt>
      <trkpt lat="44.04182" lon="2.14541">
        <ele>267.3</ele>
        <time>2017-04-20T14:12:07Z</time>
      </trkpt>
      <trkpt lat="44.04192" lon="2.1455">
        <ele>268.3</ele>
        <time>2017-04-20T14:12:09Z</time>
      </trkpt>
      <trkpt lat="44.04204" lon="2.14558">
        <ele>268.2</ele>
        <time>2017-04-20T14:12:11Z</time>
      </trkpt>
      <trkpt lat="44.04215" lon="2.14565">
        <ele>269.4</ele>
        <time>2017-04-20T14:12:13Z</time>
      </trkpt>
      <trkpt lat="44.04225" lon="2.14572">
        <ele>269.4</ele>
        <time>2017-04-20T14:12:15Z</time>
      </trkpt>
      <trkpt lat="44.04235" lon="2.1458">
        <ele>269</ele>
        <time>2017-04-20T14:12:17Z</time>
      </trkpt>
      <trkpt lat="44.04245" lon="2.14588">
        <ele>269.3</ele>
        <time>2017-04-20T14:12:19Z</time>
      </trkpt>
      <trkpt lat="44.04254" lon="2.14596">
        <ele>269.5</ele>
        <time>2017-04-20T14:12:21Z</time>
      </trkpt>
      <trkpt lat="44.04264" lon="2.14603">
        <ele>269.9</ele>
        <time>2017-04-20T14:12:23Z</time>
      </trkpt>
      <trkpt lat="44.04274" lon="2.14611">
        <ele>270</ele>
        <time>2017-04-20T14:12:25Z</time>
      </trkpt>
      <trkpt lat="44.04284" lon="2.14618">
        <ele>269.8</ele>
        <time>2017-04-20T14:12:27Z</time>
      </trkpt>
      <trkpt lat="44.04294" lon="2.14626">
        <ele>269.5</ele>
        <time>2017-04-20T14:12:29Z</time>
      </trkpt>
      <trkpt lat="44.04305" lon="2.14634">
        <ele>269.3</ele>
        <time>2017-04-20T14:12:31Z</time>
      </trkpt>
      <trkpt lat="44.04315" lon="2.14641">
        <ele>269.2</ele>
        <time>2017-04-20T14:12:33Z</time>
      </trkpt>
      <trkpt lat="44.04325" lon="2.14649">
        <ele>269.3</ele>
        <time>2017-04-20T14:12:35Z</time>
      </trkpt>
      <trkpt lat="44.04336" lon="2.14657">
        <ele>269.1</ele>
        <time>2017-04-20T14:12:37Z</time>
      </trkpt>
      <trkpt lat="44.04346" lon="2.14665">
        <ele>268.7</ele>
        <time>2017-04-20T14:12:39Z</time>
      </trkpt>
      <trkpt lat="44.04357" lon="2.14673">
        <ele>268.7</ele>
        <time>2017-04-20T14:12:41Z</time>
      </trkpt>
      <trkpt lat="44.04368" lon="2.14681">
        <ele>268.7</ele>
        <time>2017-04-20T14:12:43Z</time>
      </trkpt>
      <trkpt lat="44.04378" lon="2.14688">
        <ele>268.6</ele>
        <time>2017-04-20T14:12:45Z</time>
      </trkpt>
      <trkpt lat="44.04389" lon="2.14696">
        <ele>268.2</ele>
        <time>2017-04-20T14:12:47Z</time>
      </trkpt>
      <trkpt lat="44.04398" lon="2.14702">
        <ele>267.9</ele>
        <time>2017-04-20T14:12:49Z</time>
      </trkpt>
      <trkpt lat="44.04408" lon="2.14709">
        <ele>267.8</ele>
        <time>2017-04-20T14:12:51Z</time>
      </trkpt>
      <trkpt lat="44.04417" lon="2.14715">
        <ele>267.7</ele>
        <time>2017-04-20T14:12:53Z</time>
      </trkpt>
      <trkpt lat="44.04425" lon="2.14723">
        <ele>267.3</ele>
        <time>2017-04-20T14:12:55Z</time>
      </trkpt>
      <trkpt lat="44.04432" lon="2.14734">
        <ele>267.6</ele>
        <time>2017-04-20T14:12:57Z</time>
      </trkpt>
      <trkpt lat="44.04438" lon="2.14748">
        <ele>267.6</ele>
        <time>2017-04-20T14:12:59Z</time>
      </trkpt>
      <trkpt lat="44.04441" lon="2.14762">
        <ele>266.8</ele>
        <time>2017-04-20T14:13:01Z</time>
      </trkpt>
      <trkpt lat="44.04443" lon="2.14775">
        <ele>266.4</ele>
        <time>2017-04-20T14:13:03Z</time>
      </trkpt>
      <trkpt lat="44.04444" lon="2.14788">
        <ele>266.1</ele>
        <time>2017-04-20T14:13:05Z</time>
      </trkpt>
      <trkpt lat="44.04443" lon="2.14802">
        <ele>263.7</ele>
        <time>2017-04-20T14:13:08Z</time>
      </trkpt>
      <trkpt lat="44.0444" lon="2.14813">
        <ele>261.3</ele>
        <time>2017-04-20T14:13:11Z</time>
      </trkpt>
      <trkpt lat="44.04436" lon="2.14827">
        <ele>257.6</ele>
        <time>2017-04-20T14:13:14Z</time>
      </trkpt>
      <trkpt lat="44.04433" lon="2.1484">
        <ele>253.6</ele>
        <time>2017-04-20T14:13:17Z</time>
      </trkpt>
      <trkpt lat="44.04432" lon="2.14851">
        <ele>250.1</ele>
        <time>2017-04-20T14:13:20Z</time>
      </trkpt>
      <trkpt lat="44.04429" lon="2.14864">
        <ele>247.4</ele>
        <time>2017-04-20T14:13:23Z</time>
      </trkpt>
      <trkpt lat="44.04429" lon="2.14874">
        <ele>244.9</ele>
        <time>2017-04-20T14:13:26Z</time>
      </trkpt>
      <trkpt lat="44.04431" lon="2.14885">
        <ele>245.1</ele>
        <time>2017-04-20T14:13:29Z</time>
      </trkpt>
      <trkpt lat="44.04434" lon="2.14893">
        <ele>244.4</ele>
        <time>2017-04-20T14:13:33Z</time>
      </trkpt>
      <trkpt lat="44.04439" lon="2.14903">
        <ele>244</ele>
        <time>2017-04-20T14:13:38Z</time>
      </trkpt>
      <trkpt lat="44.04445" lon="2.14909">
        <ele>244.7</ele>
        <time>2017-04-20T14:13:42Z</time>
      </trkpt>
      <trkpt lat="44.04454" lon="2.14917">
        <ele>244</ele>
        <time>2017-04-20T14:13:45Z</time>
      </trkpt>
      <trkpt lat="44.04462" lon="2.14921">
        <ele>243.5</ele>
        <time>2017-04-20T14:13:47Z</time>
      </trkpt>
      <trkpt lat="44.04473" lon="2.14927">
        <ele>243</ele>
        <time>2017-04-20T14:13:49Z</time>
      </trkpt>
      <trkpt lat="44.04485" lon="2.14932">
        <ele>242.2</ele>
        <time>2017-04-20T14:13:51Z</time>
      </trkpt>
      <trkpt lat="44.04498" lon="2.14939">
        <ele>241.4</ele>
        <time>2017-04-20T14:13:53Z</time>
      </trkpt>
      <trkpt lat="44.04505" lon="2.14941">
        <ele>241.1</ele>
        <time>2017-04-20T14:13:54Z</time>
      </trkpt>
      <trkpt lat="44.04513" lon="2.14944">
        <ele>240.6</ele>
        <time>2017-04-20T14:13:55Z</time>
      </trkpt>
      <trkpt lat="44.0452" lon="2.14946">
        <ele>240.8</ele>
        <time>2017-04-20T14:13:56Z</time>
      </trkpt>
      <trkpt lat="44.04528" lon="2.14949">
        <ele>240.9</ele>
        <time>2017-04-20T14:13:57Z</time>
      </trkpt>
      <trkpt lat="44.04536" lon="2.14952">
        <ele>240.9</ele>
        <time>2017-04-20T14:13:58Z</time>
      </trkpt>
      <trkpt lat="44.04544" lon="2.14956">
        <ele>240.9</ele>
        <time>2017-04-20T14:13:59Z</time>
      </trkpt>
      <trkpt lat="44.04552" lon="2.1496">
        <ele>240.7</ele>
        <time>2017-04-20T14:14:00Z</time>
      </trkpt>
      <trkpt lat="44.0456" lon="2.14964">
        <ele>240.4</ele>
        <time>2017-04-20T14:14:01Z</time>
      </trkpt>
      <trkpt lat="44.04569" lon="2.14967">
        <ele>240.1</ele>
        <time>2017-04-20T14:14:02Z</time>
      </trkpt>
      <trkpt lat="44.04577" lon="2.14971">
        <ele>240.6</ele>
        <time>2017-04-20T14:14:03Z</time>
      </trkpt>
      <trkpt lat="44.04585" lon="2.14974">
        <ele>241</ele>
        <time>2017-04-20T14:14:04Z</time>
      </trkpt>
      <trkpt lat="44.04593" lon="2.14977">
        <ele>241</ele>
        <time>2017-04-20T14:14:05Z</time>
      </trkpt>
      <trkpt lat="44.046" lon="2.1498">
        <ele>241.1</ele>
        <time>2017-04-20T14:14:06Z</time>
      </trkpt>
      <trkpt lat="44.04608" lon="2.14982">
        <ele>241.7</ele>
        <time>2017-04-20T14:14:07Z</time>
      </trkpt>
      <trkpt lat="44.04616" lon="2.14986">
        <ele>242.3</ele>
        <time>2017-04-20T14:14:08Z</time>
      </trkpt>
      <trkpt lat="44.04623" lon="2.14988">
        <ele>243.2</ele>
        <time>2017-04-20T14:14:09Z</time>
      </trkpt>
      <trkpt lat="44.04631" lon="2.14991">
        <ele>243.7</ele>
        <time>2017-04-20T14:14:10Z</time>
      </trkpt>
      <trkpt lat="44.04638" lon="2.14993">
        <ele>244.3</ele>
        <time>2017-04-20T14:14:11Z</time>
      </trkpt>
      <trkpt lat="44.0465" lon="2.14999">
        <ele>244.7</ele>
        <time>2017-04-20T14:14:13Z</time>
      </trkpt>
      <trkpt lat="44.04659" lon="2.15004">
        <ele>244.6</ele>
        <time>2017-04-20T14:14:15Z</time>
      </trkpt>
      <trkpt lat="44.04666" lon="2.15008">
        <ele>244.1</ele>
        <time>2017-04-20T14:14:17Z</time>
      </trkpt>
      <trkpt lat="44.04675" lon="2.15013">
        <ele>243.5</ele>
        <time>2017-04-20T14:14:20Z</time>
      </trkpt>
      <trkpt lat="44.04681" lon="2.1502">
        <ele>243.7</ele>
        <time>2017-04-20T14:14:24Z</time>
      </trkpt>
      <trkpt lat="44.0468" lon="2.15031">
        <ele>244.2</ele>
        <time>2017-04-20T14:14:29Z</time>
      </trkpt>
      <trkpt lat="44.04678" lon="2.15035">
        <ele>244.8</ele>
        <time>2017-04-20T14:14:36Z</time>
      </trkpt>
    </trkseg>
  </trk>
</gpx>